<?xml version="1.0" encoding="UTF-8" standalone="no" ?>
<gpx xmlns="http://www.topografix.com/GPX/1/1" xmlns:xsi="http://www.w3.org/2001/XMLSchema-instance" xsi:schemaLocation="http://www.topografix.com/GPX/1/1 http://www.topografix.com/GPX/1/1/gpx.xsd" version="1.1" creator="VisuGPX - https://www.visugpx.com">
  <metadata>
    <name>8qrt6Xfo6s</name>
    <desc><![CDATA[

]]></desc>
  </metadata>
  <trk>
    <name><![CDATA[8qrt6Xfo6s_1]]></name>
    <trkseg>
      <trkpt lat="46.16491" lon="4.57447">
        <ele>349.6</ele>
        <time>2020-10-17T09:25:27Z</time>
      </trkpt>
      <trkpt lat="46.16491" lon="4.57447">
        <ele>349.6</ele>
        <time>2020-10-17T09:25:28Z</time>
      </trkpt>
      <trkpt lat="46.16493" lon="4.57449">
        <ele>349.8</ele>
        <time>2020-10-17T09:25:29Z</time>
      </trkpt>
      <trkpt lat="46.16493" lon="4.57449">
        <ele>350</ele>
        <time>2020-10-17T09:25:30Z</time>
      </trkpt>
      <trkpt lat="46.16496" lon="4.57451">
        <ele>350</ele>
        <time>2020-10-17T09:25:31Z</time>
      </trkpt>
      <trkpt lat="46.16496" lon="4.57451">
        <ele>349.8</ele>
        <time>2020-10-17T09:25:32Z</time>
      </trkpt>
      <trkpt lat="46.16499" lon="4.57453">
        <ele>350</ele>
        <time>2020-10-17T09:25:33Z</time>
      </trkpt>
      <trkpt lat="46.16499" lon="4.57453">
        <ele>349.8</ele>
        <time>2020-10-17T09:25:34Z</time>
      </trkpt>
      <trkpt lat="46.16501" lon="4.57455">
        <ele>349.8</ele>
        <time>2020-10-17T09:25:35Z</time>
      </trkpt>
      <trkpt lat="46.16501" lon="4.57455">
        <ele>350</ele>
        <time>2020-10-17T09:25:36Z</time>
      </trkpt>
      <trkpt lat="46.16504" lon="4.57455">
        <ele>350</ele>
        <time>2020-10-17T09:25:37Z</time>
      </trkpt>
      <trkpt lat="46.16504" lon="4.57455">
        <ele>350</ele>
        <time>2020-10-17T09:25:38Z</time>
      </trkpt>
      <trkpt lat="46.16506" lon="4.57456">
        <ele>350.2</ele>
        <time>2020-10-17T09:25:39Z</time>
      </trkpt>
      <trkpt lat="46.16506" lon="4.57456">
        <ele>350.2</ele>
        <time>2020-10-17T09:25:40Z</time>
      </trkpt>
      <trkpt lat="46.16509" lon="4.57456">
        <ele>350.6</ele>
        <time>2020-10-17T09:25:41Z</time>
      </trkpt>
      <trkpt lat="46.16509" lon="4.57456">
        <ele>350.8</ele>
        <time>2020-10-17T09:25:42Z</time>
      </trkpt>
      <trkpt lat="46.16512" lon="4.57456">
        <ele>351</ele>
        <time>2020-10-17T09:25:43Z</time>
      </trkpt>
      <trkpt lat="46.16512" lon="4.57456">
        <ele>351.4</ele>
        <time>2020-10-17T09:25:44Z</time>
      </trkpt>
      <trkpt lat="46.16515" lon="4.57457">
        <ele>351.4</ele>
        <time>2020-10-17T09:25:45Z</time>
      </trkpt>
      <trkpt lat="46.16515" lon="4.57457">
        <ele>351.6</ele>
        <time>2020-10-17T09:25:46Z</time>
      </trkpt>
      <trkpt lat="46.16517" lon="4.57458">
        <ele>352</ele>
        <time>2020-10-17T09:25:47Z</time>
      </trkpt>
      <trkpt lat="46.16517" lon="4.57458">
        <ele>352.2</ele>
        <time>2020-10-17T09:25:48Z</time>
      </trkpt>
      <trkpt lat="46.1652" lon="4.57458">
        <ele>352.6</ele>
        <time>2020-10-17T09:25:49Z</time>
      </trkpt>
      <trkpt lat="46.1652" lon="4.57458">
        <ele>352.8</ele>
        <time>2020-10-17T09:25:50Z</time>
      </trkpt>
      <trkpt lat="46.16522" lon="4.57457">
        <ele>352.8</ele>
        <time>2020-10-17T09:25:51Z</time>
      </trkpt>
      <trkpt lat="46.16522" lon="4.57457">
        <ele>353</ele>
        <time>2020-10-17T09:25:52Z</time>
      </trkpt>
      <trkpt lat="46.16525" lon="4.57457">
        <ele>353.4</ele>
        <time>2020-10-17T09:25:53Z</time>
      </trkpt>
      <trkpt lat="46.16525" lon="4.57457">
        <ele>353.4</ele>
        <time>2020-10-17T09:25:54Z</time>
      </trkpt>
      <trkpt lat="46.16527" lon="4.57457">
        <ele>353.6</ele>
        <time>2020-10-17T09:25:55Z</time>
      </trkpt>
      <trkpt lat="46.16527" lon="4.57457">
        <ele>353.8</ele>
        <time>2020-10-17T09:25:56Z</time>
      </trkpt>
      <trkpt lat="46.16529" lon="4.57457">
        <ele>354</ele>
        <time>2020-10-17T09:25:57Z</time>
      </trkpt>
      <trkpt lat="46.16529" lon="4.57457">
        <ele>354.4</ele>
        <time>2020-10-17T09:25:58Z</time>
      </trkpt>
      <trkpt lat="46.16531" lon="4.57457">
        <ele>354.6</ele>
        <time>2020-10-17T09:25:59Z</time>
      </trkpt>
      <trkpt lat="46.16531" lon="4.57457">
        <ele>354.8</ele>
        <time>2020-10-17T09:26:00Z</time>
      </trkpt>
      <trkpt lat="46.16534" lon="4.57456">
        <ele>355</ele>
        <time>2020-10-17T09:26:01Z</time>
      </trkpt>
      <trkpt lat="46.16534" lon="4.57456">
        <ele>355.2</ele>
        <time>2020-10-17T09:26:02Z</time>
      </trkpt>
      <trkpt lat="46.16537" lon="4.57455">
        <ele>355.6</ele>
        <time>2020-10-17T09:26:03Z</time>
      </trkpt>
      <trkpt lat="46.16537" lon="4.57455">
        <ele>355.8</ele>
        <time>2020-10-17T09:26:04Z</time>
      </trkpt>
      <trkpt lat="46.1654" lon="4.57454">
        <ele>355.8</ele>
        <time>2020-10-17T09:26:05Z</time>
      </trkpt>
      <trkpt lat="46.1654" lon="4.57454">
        <ele>356</ele>
        <time>2020-10-17T09:26:06Z</time>
      </trkpt>
      <trkpt lat="46.16542" lon="4.57453">
        <ele>356.2</ele>
        <time>2020-10-17T09:26:07Z</time>
      </trkpt>
      <trkpt lat="46.16542" lon="4.57453">
        <ele>356.6</ele>
        <time>2020-10-17T09:26:08Z</time>
      </trkpt>
      <trkpt lat="46.16545" lon="4.57452">
        <ele>356.8</ele>
        <time>2020-10-17T09:26:09Z</time>
      </trkpt>
      <trkpt lat="46.16545" lon="4.57452">
        <ele>357.4</ele>
        <time>2020-10-17T09:26:10Z</time>
      </trkpt>
      <trkpt lat="46.16548" lon="4.57452">
        <ele>357.4</ele>
        <time>2020-10-17T09:26:11Z</time>
      </trkpt>
      <trkpt lat="46.1655" lon="4.57452">
        <ele>357.6</ele>
        <time>2020-10-17T09:26:12Z</time>
      </trkpt>
      <trkpt lat="46.1655" lon="4.57452">
        <ele>358</ele>
        <time>2020-10-17T09:26:13Z</time>
      </trkpt>
      <trkpt lat="46.16553" lon="4.57451">
        <ele>358.2</ele>
        <time>2020-10-17T09:26:14Z</time>
      </trkpt>
      <trkpt lat="46.16553" lon="4.57451">
        <ele>358.6</ele>
        <time>2020-10-17T09:26:15Z</time>
      </trkpt>
      <trkpt lat="46.16555" lon="4.57451">
        <ele>358.6</ele>
        <time>2020-10-17T09:26:16Z</time>
      </trkpt>
      <trkpt lat="46.16555" lon="4.57451">
        <ele>359</ele>
        <time>2020-10-17T09:26:17Z</time>
      </trkpt>
      <trkpt lat="46.16557" lon="4.57451">
        <ele>359.4</ele>
        <time>2020-10-17T09:26:18Z</time>
      </trkpt>
      <trkpt lat="46.16557" lon="4.57451">
        <ele>359.6</ele>
        <time>2020-10-17T09:26:19Z</time>
      </trkpt>
      <trkpt lat="46.1656" lon="4.57451">
        <ele>360</ele>
        <time>2020-10-17T09:26:20Z</time>
      </trkpt>
      <trkpt lat="46.1656" lon="4.57451">
        <ele>360.4</ele>
        <time>2020-10-17T09:26:21Z</time>
      </trkpt>
      <trkpt lat="46.16563" lon="4.57451">
        <ele>360.6</ele>
        <time>2020-10-17T09:26:22Z</time>
      </trkpt>
      <trkpt lat="46.16563" lon="4.57451">
        <ele>360.6</ele>
        <time>2020-10-17T09:26:23Z</time>
      </trkpt>
      <trkpt lat="46.16565" lon="4.57451">
        <ele>361</ele>
        <time>2020-10-17T09:26:24Z</time>
      </trkpt>
      <trkpt lat="46.16565" lon="4.57451">
        <ele>361.2</ele>
        <time>2020-10-17T09:26:25Z</time>
      </trkpt>
      <trkpt lat="46.16568" lon="4.57451">
        <ele>361.6</ele>
        <time>2020-10-17T09:26:26Z</time>
      </trkpt>
      <trkpt lat="46.16568" lon="4.57451">
        <ele>361.8</ele>
        <time>2020-10-17T09:26:27Z</time>
      </trkpt>
      <trkpt lat="46.1657" lon="4.57451">
        <ele>362</ele>
        <time>2020-10-17T09:26:28Z</time>
      </trkpt>
      <trkpt lat="46.1657" lon="4.57451">
        <ele>362.6</ele>
        <time>2020-10-17T09:26:29Z</time>
      </trkpt>
      <trkpt lat="46.16572" lon="4.57451">
        <ele>362.8</ele>
        <time>2020-10-17T09:26:30Z</time>
      </trkpt>
      <trkpt lat="46.16572" lon="4.57451">
        <ele>363.2</ele>
        <time>2020-10-17T09:26:31Z</time>
      </trkpt>
      <trkpt lat="46.16575" lon="4.5745">
        <ele>363.4</ele>
        <time>2020-10-17T09:26:32Z</time>
      </trkpt>
      <trkpt lat="46.16575" lon="4.5745">
        <ele>363.8</ele>
        <time>2020-10-17T09:26:33Z</time>
      </trkpt>
      <trkpt lat="46.16578" lon="4.5745">
        <ele>364.2</ele>
        <time>2020-10-17T09:26:34Z</time>
      </trkpt>
      <trkpt lat="46.16578" lon="4.5745">
        <ele>364.6</ele>
        <time>2020-10-17T09:26:35Z</time>
      </trkpt>
      <trkpt lat="46.16579" lon="4.57448">
        <ele>365</ele>
        <time>2020-10-17T09:26:36Z</time>
      </trkpt>
      <trkpt lat="46.16579" lon="4.57448">
        <ele>365.2</ele>
        <time>2020-10-17T09:26:37Z</time>
      </trkpt>
      <trkpt lat="46.16581" lon="4.57445">
        <ele>365.8</ele>
        <time>2020-10-17T09:26:38Z</time>
      </trkpt>
      <trkpt lat="46.16581" lon="4.57445">
        <ele>365.6</ele>
        <time>2020-10-17T09:26:39Z</time>
      </trkpt>
      <trkpt lat="46.16581" lon="4.57442">
        <ele>365.8</ele>
        <time>2020-10-17T09:26:40Z</time>
      </trkpt>
      <trkpt lat="46.16581" lon="4.57442">
        <ele>366</ele>
        <time>2020-10-17T09:26:41Z</time>
      </trkpt>
      <trkpt lat="46.16579" lon="4.5744">
        <ele>366.2</ele>
        <time>2020-10-17T09:26:42Z</time>
      </trkpt>
      <trkpt lat="46.16579" lon="4.5744">
        <ele>366.4</ele>
        <time>2020-10-17T09:26:43Z</time>
      </trkpt>
      <trkpt lat="46.16577" lon="4.57437">
        <ele>366.6</ele>
        <time>2020-10-17T09:26:44Z</time>
      </trkpt>
      <trkpt lat="46.16577" lon="4.57437">
        <ele>366.6</ele>
        <time>2020-10-17T09:26:45Z</time>
      </trkpt>
      <trkpt lat="46.16574" lon="4.57435">
        <ele>366.6</ele>
        <time>2020-10-17T09:26:46Z</time>
      </trkpt>
      <trkpt lat="46.16574" lon="4.57435">
        <ele>366.8</ele>
        <time>2020-10-17T09:26:47Z</time>
      </trkpt>
      <trkpt lat="46.16572" lon="4.57433">
        <ele>367</ele>
        <time>2020-10-17T09:26:48Z</time>
      </trkpt>
      <trkpt lat="46.16572" lon="4.57433">
        <ele>367.4</ele>
        <time>2020-10-17T09:26:49Z</time>
      </trkpt>
      <trkpt lat="46.16569" lon="4.57431">
        <ele>367.6</ele>
        <time>2020-10-17T09:26:50Z</time>
      </trkpt>
      <trkpt lat="46.16569" lon="4.57431">
        <ele>368</ele>
        <time>2020-10-17T09:26:51Z</time>
      </trkpt>
      <trkpt lat="46.16567" lon="4.57428">
        <ele>367.8</ele>
        <time>2020-10-17T09:26:52Z</time>
      </trkpt>
      <trkpt lat="46.16567" lon="4.57428">
        <ele>368.4</ele>
        <time>2020-10-17T09:26:53Z</time>
      </trkpt>
      <trkpt lat="46.16565" lon="4.57426">
        <ele>368.4</ele>
        <time>2020-10-17T09:26:54Z</time>
      </trkpt>
      <trkpt lat="46.16565" lon="4.57426">
        <ele>368.8</ele>
        <time>2020-10-17T09:26:55Z</time>
      </trkpt>
      <trkpt lat="46.16563" lon="4.57424">
        <ele>369.2</ele>
        <time>2020-10-17T09:26:56Z</time>
      </trkpt>
      <trkpt lat="46.16563" lon="4.57424">
        <ele>369.2</ele>
        <time>2020-10-17T09:26:57Z</time>
      </trkpt>
      <trkpt lat="46.16562" lon="4.57421">
        <ele>369.6</ele>
        <time>2020-10-17T09:26:58Z</time>
      </trkpt>
      <trkpt lat="46.16562" lon="4.57421">
        <ele>370</ele>
        <time>2020-10-17T09:26:59Z</time>
      </trkpt>
      <trkpt lat="46.1656" lon="4.57418">
        <ele>370.6</ele>
        <time>2020-10-17T09:27:00Z</time>
      </trkpt>
      <trkpt lat="46.1656" lon="4.57418">
        <ele>370.4</ele>
        <time>2020-10-17T09:27:01Z</time>
      </trkpt>
      <trkpt lat="46.16559" lon="4.57415">
        <ele>370.8</ele>
        <time>2020-10-17T09:27:02Z</time>
      </trkpt>
      <trkpt lat="46.16559" lon="4.57415">
        <ele>371.2</ele>
        <time>2020-10-17T09:27:03Z</time>
      </trkpt>
      <trkpt lat="46.16558" lon="4.57412">
        <ele>371.4</ele>
        <time>2020-10-17T09:27:04Z</time>
      </trkpt>
      <trkpt lat="46.16558" lon="4.57412">
        <ele>371.4</ele>
        <time>2020-10-17T09:27:05Z</time>
      </trkpt>
      <trkpt lat="46.16558" lon="4.57409">
        <ele>371.8</ele>
        <time>2020-10-17T09:27:06Z</time>
      </trkpt>
      <trkpt lat="46.16558" lon="4.57409">
        <ele>372</ele>
        <time>2020-10-17T09:27:07Z</time>
      </trkpt>
      <trkpt lat="46.16557" lon="4.57406">
        <ele>372.2</ele>
        <time>2020-10-17T09:27:08Z</time>
      </trkpt>
      <trkpt lat="46.16557" lon="4.57406">
        <ele>372.6</ele>
        <time>2020-10-17T09:27:09Z</time>
      </trkpt>
      <trkpt lat="46.16557" lon="4.57403">
        <ele>373</ele>
        <time>2020-10-17T09:27:10Z</time>
      </trkpt>
      <trkpt lat="46.16557" lon="4.57403">
        <ele>373.4</ele>
        <time>2020-10-17T09:27:11Z</time>
      </trkpt>
      <trkpt lat="46.16558" lon="4.574">
        <ele>373.4</ele>
        <time>2020-10-17T09:27:12Z</time>
      </trkpt>
      <trkpt lat="46.16558" lon="4.574">
        <ele>374.2</ele>
        <time>2020-10-17T09:27:13Z</time>
      </trkpt>
      <trkpt lat="46.16558" lon="4.57396">
        <ele>374.6</ele>
        <time>2020-10-17T09:27:14Z</time>
      </trkpt>
      <trkpt lat="46.16558" lon="4.57396">
        <ele>374.8</ele>
        <time>2020-10-17T09:27:15Z</time>
      </trkpt>
      <trkpt lat="46.16559" lon="4.57391">
        <ele>375.2</ele>
        <time>2020-10-17T09:27:16Z</time>
      </trkpt>
      <trkpt lat="46.16559" lon="4.57391">
        <ele>375.2</ele>
        <time>2020-10-17T09:27:17Z</time>
      </trkpt>
      <trkpt lat="46.16559" lon="4.57389">
        <ele>375.6</ele>
        <time>2020-10-17T09:27:18Z</time>
      </trkpt>
      <trkpt lat="46.16559" lon="4.57389">
        <ele>375.8</ele>
        <time>2020-10-17T09:27:19Z</time>
      </trkpt>
      <trkpt lat="46.16559" lon="4.57385">
        <ele>376.2</ele>
        <time>2020-10-17T09:27:20Z</time>
      </trkpt>
      <trkpt lat="46.16559" lon="4.57385">
        <ele>376.2</ele>
        <time>2020-10-17T09:27:21Z</time>
      </trkpt>
      <trkpt lat="46.1656" lon="4.57381">
        <ele>376.6</ele>
        <time>2020-10-17T09:27:22Z</time>
      </trkpt>
      <trkpt lat="46.1656" lon="4.57381">
        <ele>377</ele>
        <time>2020-10-17T09:27:23Z</time>
      </trkpt>
      <trkpt lat="46.16561" lon="4.57378">
        <ele>377.6</ele>
        <time>2020-10-17T09:27:24Z</time>
      </trkpt>
      <trkpt lat="46.16561" lon="4.57378">
        <ele>377.6</ele>
        <time>2020-10-17T09:27:25Z</time>
      </trkpt>
      <trkpt lat="46.16562" lon="4.57376">
        <ele>377.8</ele>
        <time>2020-10-17T09:27:26Z</time>
      </trkpt>
      <trkpt lat="46.16562" lon="4.57376">
        <ele>378</ele>
        <time>2020-10-17T09:27:27Z</time>
      </trkpt>
      <trkpt lat="46.16563" lon="4.57373">
        <ele>378.2</ele>
        <time>2020-10-17T09:27:28Z</time>
      </trkpt>
      <trkpt lat="46.16563" lon="4.57373">
        <ele>378.6</ele>
        <time>2020-10-17T09:27:29Z</time>
      </trkpt>
      <trkpt lat="46.16565" lon="4.5737">
        <ele>378.8</ele>
        <time>2020-10-17T09:27:30Z</time>
      </trkpt>
      <trkpt lat="46.16565" lon="4.5737">
        <ele>379.2</ele>
        <time>2020-10-17T09:27:31Z</time>
      </trkpt>
      <trkpt lat="46.16566" lon="4.57367">
        <ele>379.4</ele>
        <time>2020-10-17T09:27:32Z</time>
      </trkpt>
      <trkpt lat="46.16566" lon="4.57367">
        <ele>379.8</ele>
        <time>2020-10-17T09:27:33Z</time>
      </trkpt>
      <trkpt lat="46.16568" lon="4.57364">
        <ele>380</ele>
        <time>2020-10-17T09:27:34Z</time>
      </trkpt>
      <trkpt lat="46.16568" lon="4.57364">
        <ele>380.2</ele>
        <time>2020-10-17T09:27:35Z</time>
      </trkpt>
      <trkpt lat="46.1657" lon="4.57362">
        <ele>380.8</ele>
        <time>2020-10-17T09:27:36Z</time>
      </trkpt>
      <trkpt lat="46.1657" lon="4.57362">
        <ele>380.8</ele>
        <time>2020-10-17T09:27:37Z</time>
      </trkpt>
      <trkpt lat="46.16572" lon="4.57361">
        <ele>381.4</ele>
        <time>2020-10-17T09:27:38Z</time>
      </trkpt>
      <trkpt lat="46.16572" lon="4.57361">
        <ele>381.6</ele>
        <time>2020-10-17T09:27:39Z</time>
      </trkpt>
      <trkpt lat="46.16574" lon="4.5736">
        <ele>381.6</ele>
        <time>2020-10-17T09:27:40Z</time>
      </trkpt>
      <trkpt lat="46.16574" lon="4.5736">
        <ele>382.2</ele>
        <time>2020-10-17T09:27:41Z</time>
      </trkpt>
      <trkpt lat="46.16576" lon="4.57358">
        <ele>382.4</ele>
        <time>2020-10-17T09:27:42Z</time>
      </trkpt>
      <trkpt lat="46.16576" lon="4.57358">
        <ele>383</ele>
        <time>2020-10-17T09:27:43Z</time>
      </trkpt>
      <trkpt lat="46.16579" lon="4.57357">
        <ele>383.4</ele>
        <time>2020-10-17T09:27:44Z</time>
      </trkpt>
      <trkpt lat="46.16579" lon="4.57357">
        <ele>383.6</ele>
        <time>2020-10-17T09:27:45Z</time>
      </trkpt>
      <trkpt lat="46.16581" lon="4.57357">
        <ele>384.2</ele>
        <time>2020-10-17T09:27:46Z</time>
      </trkpt>
      <trkpt lat="46.16581" lon="4.57357">
        <ele>384.4</ele>
        <time>2020-10-17T09:27:47Z</time>
      </trkpt>
      <trkpt lat="46.16584" lon="4.57357">
        <ele>384.6</ele>
        <time>2020-10-17T09:27:48Z</time>
      </trkpt>
      <trkpt lat="46.16584" lon="4.57357">
        <ele>385</ele>
        <time>2020-10-17T09:27:49Z</time>
      </trkpt>
      <trkpt lat="46.16587" lon="4.57356">
        <ele>385.2</ele>
        <time>2020-10-17T09:27:50Z</time>
      </trkpt>
      <trkpt lat="46.16587" lon="4.57356">
        <ele>385.2</ele>
        <time>2020-10-17T09:27:51Z</time>
      </trkpt>
      <trkpt lat="46.1659" lon="4.57356">
        <ele>385.2</ele>
        <time>2020-10-17T09:27:52Z</time>
      </trkpt>
      <trkpt lat="46.1659" lon="4.57356">
        <ele>386</ele>
        <time>2020-10-17T09:27:53Z</time>
      </trkpt>
      <trkpt lat="46.16592" lon="4.57356">
        <ele>386.2</ele>
        <time>2020-10-17T09:27:54Z</time>
      </trkpt>
      <trkpt lat="46.16592" lon="4.57356">
        <ele>386.2</ele>
        <time>2020-10-17T09:27:55Z</time>
      </trkpt>
      <trkpt lat="46.16594" lon="4.57356">
        <ele>387</ele>
        <time>2020-10-17T09:27:56Z</time>
      </trkpt>
      <trkpt lat="46.16594" lon="4.57356">
        <ele>387.2</ele>
        <time>2020-10-17T09:27:57Z</time>
      </trkpt>
      <trkpt lat="46.16597" lon="4.57356">
        <ele>387.4</ele>
        <time>2020-10-17T09:27:58Z</time>
      </trkpt>
      <trkpt lat="46.16597" lon="4.57356">
        <ele>387.6</ele>
        <time>2020-10-17T09:27:59Z</time>
      </trkpt>
      <trkpt lat="46.16599" lon="4.57355">
        <ele>387.6</ele>
        <time>2020-10-17T09:28:00Z</time>
      </trkpt>
      <trkpt lat="46.16599" lon="4.57355">
        <ele>388</ele>
        <time>2020-10-17T09:28:01Z</time>
      </trkpt>
      <trkpt lat="46.16601" lon="4.57355">
        <ele>388.2</ele>
        <time>2020-10-17T09:28:02Z</time>
      </trkpt>
      <trkpt lat="46.16601" lon="4.57355">
        <ele>388.6</ele>
        <time>2020-10-17T09:28:03Z</time>
      </trkpt>
      <trkpt lat="46.16603" lon="4.57355">
        <ele>389</ele>
        <time>2020-10-17T09:28:04Z</time>
      </trkpt>
      <trkpt lat="46.16603" lon="4.57355">
        <ele>389.6</ele>
        <time>2020-10-17T09:28:05Z</time>
      </trkpt>
      <trkpt lat="46.16605" lon="4.57354">
        <ele>390</ele>
        <time>2020-10-17T09:28:06Z</time>
      </trkpt>
      <trkpt lat="46.16605" lon="4.57354">
        <ele>390.6</ele>
        <time>2020-10-17T09:28:07Z</time>
      </trkpt>
      <trkpt lat="46.16607" lon="4.57353">
        <ele>390.8</ele>
        <time>2020-10-17T09:28:08Z</time>
      </trkpt>
      <trkpt lat="46.16607" lon="4.57353">
        <ele>390.8</ele>
        <time>2020-10-17T09:28:09Z</time>
      </trkpt>
      <trkpt lat="46.16609" lon="4.57353">
        <ele>391.4</ele>
        <time>2020-10-17T09:28:10Z</time>
      </trkpt>
      <trkpt lat="46.16609" lon="4.57353">
        <ele>391.8</ele>
        <time>2020-10-17T09:28:11Z</time>
      </trkpt>
      <trkpt lat="46.16611" lon="4.57352">
        <ele>392.2</ele>
        <time>2020-10-17T09:28:12Z</time>
      </trkpt>
      <trkpt lat="46.16611" lon="4.57352">
        <ele>392.4</ele>
        <time>2020-10-17T09:28:13Z</time>
      </trkpt>
      <trkpt lat="46.16614" lon="4.57352">
        <ele>393</ele>
        <time>2020-10-17T09:28:14Z</time>
      </trkpt>
      <trkpt lat="46.16614" lon="4.57352">
        <ele>393.2</ele>
        <time>2020-10-17T09:28:15Z</time>
      </trkpt>
      <trkpt lat="46.16616" lon="4.57352">
        <ele>393.2</ele>
        <time>2020-10-17T09:28:16Z</time>
      </trkpt>
      <trkpt lat="46.16616" lon="4.57352">
        <ele>393.8</ele>
        <time>2020-10-17T09:28:17Z</time>
      </trkpt>
      <trkpt lat="46.16618" lon="4.57352">
        <ele>394.2</ele>
        <time>2020-10-17T09:28:18Z</time>
      </trkpt>
      <trkpt lat="46.16618" lon="4.57352">
        <ele>394.6</ele>
        <time>2020-10-17T09:28:19Z</time>
      </trkpt>
      <trkpt lat="46.1662" lon="4.57351">
        <ele>394.8</ele>
        <time>2020-10-17T09:28:20Z</time>
      </trkpt>
      <trkpt lat="46.1662" lon="4.57351">
        <ele>394.8</ele>
        <time>2020-10-17T09:28:21Z</time>
      </trkpt>
      <trkpt lat="46.16623" lon="4.57351">
        <ele>395.4</ele>
        <time>2020-10-17T09:28:22Z</time>
      </trkpt>
      <trkpt lat="46.16623" lon="4.57351">
        <ele>395.6</ele>
        <time>2020-10-17T09:28:23Z</time>
      </trkpt>
      <trkpt lat="46.16625" lon="4.5735">
        <ele>396.2</ele>
        <time>2020-10-17T09:28:24Z</time>
      </trkpt>
      <trkpt lat="46.16625" lon="4.5735">
        <ele>396.2</ele>
        <time>2020-10-17T09:28:25Z</time>
      </trkpt>
      <trkpt lat="46.16628" lon="4.5735">
        <ele>396.8</ele>
        <time>2020-10-17T09:28:26Z</time>
      </trkpt>
      <trkpt lat="46.16628" lon="4.5735">
        <ele>397</ele>
        <time>2020-10-17T09:28:27Z</time>
      </trkpt>
      <trkpt lat="46.1663" lon="4.57349">
        <ele>397</ele>
        <time>2020-10-17T09:28:28Z</time>
      </trkpt>
      <trkpt lat="46.1663" lon="4.57349">
        <ele>397.6</ele>
        <time>2020-10-17T09:28:29Z</time>
      </trkpt>
      <trkpt lat="46.16633" lon="4.57348">
        <ele>398</ele>
        <time>2020-10-17T09:28:30Z</time>
      </trkpt>
      <trkpt lat="46.16633" lon="4.57348">
        <ele>398.2</ele>
        <time>2020-10-17T09:28:31Z</time>
      </trkpt>
      <trkpt lat="46.16635" lon="4.57347">
        <ele>398.4</ele>
        <time>2020-10-17T09:28:32Z</time>
      </trkpt>
      <trkpt lat="46.16635" lon="4.57347">
        <ele>398.8</ele>
        <time>2020-10-17T09:28:33Z</time>
      </trkpt>
      <trkpt lat="46.16637" lon="4.57346">
        <ele>398.8</ele>
        <time>2020-10-17T09:28:34Z</time>
      </trkpt>
      <trkpt lat="46.16637" lon="4.57346">
        <ele>399.4</ele>
        <time>2020-10-17T09:28:35Z</time>
      </trkpt>
      <trkpt lat="46.16639" lon="4.57346">
        <ele>399.6</ele>
        <time>2020-10-17T09:28:36Z</time>
      </trkpt>
      <trkpt lat="46.16639" lon="4.57346">
        <ele>399.8</ele>
        <time>2020-10-17T09:28:37Z</time>
      </trkpt>
      <trkpt lat="46.16642" lon="4.57345">
        <ele>400.2</ele>
        <time>2020-10-17T09:28:38Z</time>
      </trkpt>
      <trkpt lat="46.16642" lon="4.57345">
        <ele>400.4</ele>
        <time>2020-10-17T09:28:39Z</time>
      </trkpt>
      <trkpt lat="46.16645" lon="4.57344">
        <ele>400.6</ele>
        <time>2020-10-17T09:28:40Z</time>
      </trkpt>
      <trkpt lat="46.16645" lon="4.57344">
        <ele>400.8</ele>
        <time>2020-10-17T09:28:41Z</time>
      </trkpt>
      <trkpt lat="46.16647" lon="4.57344">
        <ele>401.4</ele>
        <time>2020-10-17T09:28:42Z</time>
      </trkpt>
      <trkpt lat="46.16647" lon="4.57344">
        <ele>401.6</ele>
        <time>2020-10-17T09:28:43Z</time>
      </trkpt>
      <trkpt lat="46.16649" lon="4.57343">
        <ele>401.6</ele>
        <time>2020-10-17T09:28:44Z</time>
      </trkpt>
      <trkpt lat="46.16649" lon="4.57343">
        <ele>402</ele>
        <time>2020-10-17T09:28:45Z</time>
      </trkpt>
      <trkpt lat="46.16652" lon="4.57343">
        <ele>402.2</ele>
        <time>2020-10-17T09:28:46Z</time>
      </trkpt>
      <trkpt lat="46.16652" lon="4.57343">
        <ele>402.8</ele>
        <time>2020-10-17T09:28:47Z</time>
      </trkpt>
      <trkpt lat="46.16655" lon="4.57342">
        <ele>403.2</ele>
        <time>2020-10-17T09:28:48Z</time>
      </trkpt>
      <trkpt lat="46.16655" lon="4.57342">
        <ele>403.4</ele>
        <time>2020-10-17T09:28:49Z</time>
      </trkpt>
      <trkpt lat="46.16658" lon="4.57342">
        <ele>403.6</ele>
        <time>2020-10-17T09:28:50Z</time>
      </trkpt>
      <trkpt lat="46.16658" lon="4.57342">
        <ele>403.8</ele>
        <time>2020-10-17T09:28:51Z</time>
      </trkpt>
      <trkpt lat="46.1666" lon="4.57342">
        <ele>403.8</ele>
        <time>2020-10-17T09:28:52Z</time>
      </trkpt>
      <trkpt lat="46.1666" lon="4.57342">
        <ele>404</ele>
        <time>2020-10-17T09:28:53Z</time>
      </trkpt>
      <trkpt lat="46.16663" lon="4.57341">
        <ele>404.4</ele>
        <time>2020-10-17T09:28:54Z</time>
      </trkpt>
      <trkpt lat="46.16663" lon="4.57341">
        <ele>404.4</ele>
        <time>2020-10-17T09:28:55Z</time>
      </trkpt>
      <trkpt lat="46.16665" lon="4.57341">
        <ele>404.6</ele>
        <time>2020-10-17T09:28:56Z</time>
      </trkpt>
      <trkpt lat="46.16665" lon="4.57341">
        <ele>404.8</ele>
        <time>2020-10-17T09:28:57Z</time>
      </trkpt>
      <trkpt lat="46.16668" lon="4.57341">
        <ele>405</ele>
        <time>2020-10-17T09:28:58Z</time>
      </trkpt>
      <trkpt lat="46.16668" lon="4.57341">
        <ele>405.2</ele>
        <time>2020-10-17T09:28:59Z</time>
      </trkpt>
      <trkpt lat="46.1667" lon="4.5734">
        <ele>405.4</ele>
        <time>2020-10-17T09:29:00Z</time>
      </trkpt>
      <trkpt lat="46.1667" lon="4.5734">
        <ele>405.8</ele>
        <time>2020-10-17T09:29:01Z</time>
      </trkpt>
      <trkpt lat="46.16673" lon="4.5734">
        <ele>405.8</ele>
        <time>2020-10-17T09:29:02Z</time>
      </trkpt>
      <trkpt lat="46.16673" lon="4.5734">
        <ele>406.4</ele>
        <time>2020-10-17T09:29:03Z</time>
      </trkpt>
      <trkpt lat="46.16675" lon="4.57339">
        <ele>406.4</ele>
        <time>2020-10-17T09:29:04Z</time>
      </trkpt>
      <trkpt lat="46.16675" lon="4.57339">
        <ele>406.8</ele>
        <time>2020-10-17T09:29:05Z</time>
      </trkpt>
      <trkpt lat="46.16678" lon="4.57338">
        <ele>406.8</ele>
        <time>2020-10-17T09:29:06Z</time>
      </trkpt>
      <trkpt lat="46.16678" lon="4.57338">
        <ele>407</ele>
        <time>2020-10-17T09:29:07Z</time>
      </trkpt>
      <trkpt lat="46.1668" lon="4.57338">
        <ele>407.2</ele>
        <time>2020-10-17T09:29:08Z</time>
      </trkpt>
      <trkpt lat="46.1668" lon="4.57338">
        <ele>407.6</ele>
        <time>2020-10-17T09:29:09Z</time>
      </trkpt>
      <trkpt lat="46.16683" lon="4.57337">
        <ele>407.8</ele>
        <time>2020-10-17T09:29:10Z</time>
      </trkpt>
      <trkpt lat="46.16683" lon="4.57337">
        <ele>408</ele>
        <time>2020-10-17T09:29:11Z</time>
      </trkpt>
      <trkpt lat="46.16686" lon="4.57337">
        <ele>408.2</ele>
        <time>2020-10-17T09:29:12Z</time>
      </trkpt>
      <trkpt lat="46.16686" lon="4.57337">
        <ele>408.4</ele>
        <time>2020-10-17T09:29:13Z</time>
      </trkpt>
      <trkpt lat="46.16689" lon="4.57337">
        <ele>408.6</ele>
        <time>2020-10-17T09:29:14Z</time>
      </trkpt>
      <trkpt lat="46.16689" lon="4.57337">
        <ele>408.8</ele>
        <time>2020-10-17T09:29:15Z</time>
      </trkpt>
      <trkpt lat="46.16692" lon="4.57338">
        <ele>409</ele>
        <time>2020-10-17T09:29:16Z</time>
      </trkpt>
      <trkpt lat="46.16692" lon="4.57338">
        <ele>409.2</ele>
        <time>2020-10-17T09:29:17Z</time>
      </trkpt>
      <trkpt lat="46.16695" lon="4.57339">
        <ele>409.4</ele>
        <time>2020-10-17T09:29:18Z</time>
      </trkpt>
      <trkpt lat="46.16695" lon="4.57339">
        <ele>409.4</ele>
        <time>2020-10-17T09:29:19Z</time>
      </trkpt>
      <trkpt lat="46.16698" lon="4.57339">
        <ele>409.6</ele>
        <time>2020-10-17T09:29:20Z</time>
      </trkpt>
      <trkpt lat="46.16698" lon="4.57339">
        <ele>409.8</ele>
        <time>2020-10-17T09:29:21Z</time>
      </trkpt>
      <trkpt lat="46.167" lon="4.57338">
        <ele>409.6</ele>
        <time>2020-10-17T09:29:22Z</time>
      </trkpt>
      <trkpt lat="46.167" lon="4.57338">
        <ele>409.8</ele>
        <time>2020-10-17T09:29:23Z</time>
      </trkpt>
      <trkpt lat="46.16702" lon="4.57338">
        <ele>410</ele>
        <time>2020-10-17T09:29:24Z</time>
      </trkpt>
      <trkpt lat="46.16702" lon="4.57338">
        <ele>410.4</ele>
        <time>2020-10-17T09:29:25Z</time>
      </trkpt>
      <trkpt lat="46.16705" lon="4.57338">
        <ele>410.4</ele>
        <time>2020-10-17T09:29:26Z</time>
      </trkpt>
      <trkpt lat="46.16705" lon="4.57338">
        <ele>411</ele>
        <time>2020-10-17T09:29:27Z</time>
      </trkpt>
      <trkpt lat="46.16708" lon="4.57338">
        <ele>411.2</ele>
        <time>2020-10-17T09:29:28Z</time>
      </trkpt>
      <trkpt lat="46.16708" lon="4.57338">
        <ele>411.6</ele>
        <time>2020-10-17T09:29:29Z</time>
      </trkpt>
      <trkpt lat="46.16711" lon="4.57337">
        <ele>411.6</ele>
        <time>2020-10-17T09:29:30Z</time>
      </trkpt>
      <trkpt lat="46.16711" lon="4.57337">
        <ele>411.6</ele>
        <time>2020-10-17T09:29:31Z</time>
      </trkpt>
      <trkpt lat="46.16714" lon="4.57336">
        <ele>412</ele>
        <time>2020-10-17T09:29:32Z</time>
      </trkpt>
      <trkpt lat="46.16714" lon="4.57336">
        <ele>412.2</ele>
        <time>2020-10-17T09:29:33Z</time>
      </trkpt>
      <trkpt lat="46.16717" lon="4.57335">
        <ele>412.4</ele>
        <time>2020-10-17T09:29:34Z</time>
      </trkpt>
      <trkpt lat="46.16717" lon="4.57335">
        <ele>412.6</ele>
        <time>2020-10-17T09:29:35Z</time>
      </trkpt>
      <trkpt lat="46.1672" lon="4.57335">
        <ele>413</ele>
        <time>2020-10-17T09:29:36Z</time>
      </trkpt>
      <trkpt lat="46.1672" lon="4.57335">
        <ele>413.2</ele>
        <time>2020-10-17T09:29:37Z</time>
      </trkpt>
      <trkpt lat="46.16723" lon="4.57334">
        <ele>413.2</ele>
        <time>2020-10-17T09:29:38Z</time>
      </trkpt>
      <trkpt lat="46.16723" lon="4.57334">
        <ele>413</ele>
        <time>2020-10-17T09:29:39Z</time>
      </trkpt>
      <trkpt lat="46.16726" lon="4.57333">
        <ele>413.4</ele>
        <time>2020-10-17T09:29:40Z</time>
      </trkpt>
      <trkpt lat="46.16726" lon="4.57333">
        <ele>413.8</ele>
        <time>2020-10-17T09:29:41Z</time>
      </trkpt>
      <trkpt lat="46.16729" lon="4.57333">
        <ele>413.8</ele>
        <time>2020-10-17T09:29:42Z</time>
      </trkpt>
      <trkpt lat="46.16729" lon="4.57333">
        <ele>414.4</ele>
        <time>2020-10-17T09:29:43Z</time>
      </trkpt>
      <trkpt lat="46.16732" lon="4.57333">
        <ele>414.6</ele>
        <time>2020-10-17T09:29:44Z</time>
      </trkpt>
      <trkpt lat="46.16732" lon="4.57333">
        <ele>414.8</ele>
        <time>2020-10-17T09:29:45Z</time>
      </trkpt>
      <trkpt lat="46.16735" lon="4.57332">
        <ele>414.8</ele>
        <time>2020-10-17T09:29:46Z</time>
      </trkpt>
      <trkpt lat="46.16735" lon="4.57332">
        <ele>415</ele>
        <time>2020-10-17T09:29:47Z</time>
      </trkpt>
      <trkpt lat="46.16737" lon="4.57332">
        <ele>415.2</ele>
        <time>2020-10-17T09:29:48Z</time>
      </trkpt>
      <trkpt lat="46.16737" lon="4.57332">
        <ele>415.2</ele>
        <time>2020-10-17T09:29:49Z</time>
      </trkpt>
      <trkpt lat="46.1674" lon="4.57332">
        <ele>415.8</ele>
        <time>2020-10-17T09:29:50Z</time>
      </trkpt>
      <trkpt lat="46.1674" lon="4.57332">
        <ele>416</ele>
        <time>2020-10-17T09:29:51Z</time>
      </trkpt>
      <trkpt lat="46.16743" lon="4.57332">
        <ele>416.4</ele>
        <time>2020-10-17T09:29:52Z</time>
      </trkpt>
      <trkpt lat="46.16743" lon="4.57332">
        <ele>416.4</ele>
        <time>2020-10-17T09:29:53Z</time>
      </trkpt>
      <trkpt lat="46.16745" lon="4.57332">
        <ele>416.6</ele>
        <time>2020-10-17T09:29:54Z</time>
      </trkpt>
      <trkpt lat="46.16745" lon="4.57332">
        <ele>417</ele>
        <time>2020-10-17T09:29:55Z</time>
      </trkpt>
      <trkpt lat="46.16748" lon="4.57332">
        <ele>417.2</ele>
        <time>2020-10-17T09:29:56Z</time>
      </trkpt>
      <trkpt lat="46.16748" lon="4.57332">
        <ele>417.8</ele>
        <time>2020-10-17T09:29:57Z</time>
      </trkpt>
      <trkpt lat="46.16751" lon="4.57332">
        <ele>417.8</ele>
        <time>2020-10-17T09:29:58Z</time>
      </trkpt>
      <trkpt lat="46.16751" lon="4.57332">
        <ele>418.2</ele>
        <time>2020-10-17T09:29:59Z</time>
      </trkpt>
      <trkpt lat="46.16753" lon="4.57331">
        <ele>418.2</ele>
        <time>2020-10-17T09:30:00Z</time>
      </trkpt>
      <trkpt lat="46.16753" lon="4.57331">
        <ele>418.2</ele>
        <time>2020-10-17T09:30:01Z</time>
      </trkpt>
      <trkpt lat="46.16756" lon="4.57331">
        <ele>418.6</ele>
        <time>2020-10-17T09:30:02Z</time>
      </trkpt>
      <trkpt lat="46.16756" lon="4.57331">
        <ele>419</ele>
        <time>2020-10-17T09:30:03Z</time>
      </trkpt>
      <trkpt lat="46.16758" lon="4.57331">
        <ele>419.2</ele>
        <time>2020-10-17T09:30:04Z</time>
      </trkpt>
      <trkpt lat="46.16758" lon="4.57331">
        <ele>419.6</ele>
        <time>2020-10-17T09:30:05Z</time>
      </trkpt>
      <trkpt lat="46.16761" lon="4.57331">
        <ele>419.8</ele>
        <time>2020-10-17T09:30:06Z</time>
      </trkpt>
      <trkpt lat="46.16761" lon="4.57331">
        <ele>420.2</ele>
        <time>2020-10-17T09:30:07Z</time>
      </trkpt>
      <trkpt lat="46.16764" lon="4.57331">
        <ele>420.4</ele>
        <time>2020-10-17T09:30:08Z</time>
      </trkpt>
      <trkpt lat="46.16764" lon="4.57331">
        <ele>420.8</ele>
        <time>2020-10-17T09:30:09Z</time>
      </trkpt>
      <trkpt lat="46.16766" lon="4.5733">
        <ele>421</ele>
        <time>2020-10-17T09:30:10Z</time>
      </trkpt>
      <trkpt lat="46.16766" lon="4.5733">
        <ele>421.2</ele>
        <time>2020-10-17T09:30:11Z</time>
      </trkpt>
      <trkpt lat="46.16769" lon="4.57331">
        <ele>421.6</ele>
        <time>2020-10-17T09:30:12Z</time>
      </trkpt>
      <trkpt lat="46.16769" lon="4.57331">
        <ele>421.8</ele>
        <time>2020-10-17T09:30:13Z</time>
      </trkpt>
      <trkpt lat="46.16772" lon="4.5733">
        <ele>422.4</ele>
        <time>2020-10-17T09:30:14Z</time>
      </trkpt>
      <trkpt lat="46.16772" lon="4.5733">
        <ele>422.6</ele>
        <time>2020-10-17T09:30:15Z</time>
      </trkpt>
      <trkpt lat="46.16774" lon="4.5733">
        <ele>422.8</ele>
        <time>2020-10-17T09:30:16Z</time>
      </trkpt>
      <trkpt lat="46.16774" lon="4.5733">
        <ele>423.2</ele>
        <time>2020-10-17T09:30:17Z</time>
      </trkpt>
      <trkpt lat="46.16777" lon="4.5733">
        <ele>423.4</ele>
        <time>2020-10-17T09:30:18Z</time>
      </trkpt>
      <trkpt lat="46.16777" lon="4.5733">
        <ele>423.8</ele>
        <time>2020-10-17T09:30:19Z</time>
      </trkpt>
      <trkpt lat="46.1678" lon="4.5733">
        <ele>424</ele>
        <time>2020-10-17T09:30:20Z</time>
      </trkpt>
      <trkpt lat="46.1678" lon="4.5733">
        <ele>424.2</ele>
        <time>2020-10-17T09:30:21Z</time>
      </trkpt>
      <trkpt lat="46.16782" lon="4.5733">
        <ele>424.6</ele>
        <time>2020-10-17T09:30:22Z</time>
      </trkpt>
      <trkpt lat="46.16782" lon="4.5733">
        <ele>424.6</ele>
        <time>2020-10-17T09:30:23Z</time>
      </trkpt>
      <trkpt lat="46.16785" lon="4.5733">
        <ele>424.8</ele>
        <time>2020-10-17T09:30:24Z</time>
      </trkpt>
      <trkpt lat="46.16785" lon="4.5733">
        <ele>425</ele>
        <time>2020-10-17T09:30:25Z</time>
      </trkpt>
      <trkpt lat="46.16788" lon="4.5733">
        <ele>425.6</ele>
        <time>2020-10-17T09:30:26Z</time>
      </trkpt>
      <trkpt lat="46.16788" lon="4.5733">
        <ele>425.8</ele>
        <time>2020-10-17T09:30:27Z</time>
      </trkpt>
      <trkpt lat="46.1679" lon="4.5733">
        <ele>426.2</ele>
        <time>2020-10-17T09:30:28Z</time>
      </trkpt>
      <trkpt lat="46.1679" lon="4.5733">
        <ele>426.6</ele>
        <time>2020-10-17T09:30:29Z</time>
      </trkpt>
      <trkpt lat="46.16793" lon="4.57329">
        <ele>426.8</ele>
        <time>2020-10-17T09:30:30Z</time>
      </trkpt>
      <trkpt lat="46.16793" lon="4.57329">
        <ele>427.2</ele>
        <time>2020-10-17T09:30:31Z</time>
      </trkpt>
      <trkpt lat="46.16795" lon="4.57329">
        <ele>427.6</ele>
        <time>2020-10-17T09:30:32Z</time>
      </trkpt>
      <trkpt lat="46.16795" lon="4.57329">
        <ele>428.2</ele>
        <time>2020-10-17T09:30:33Z</time>
      </trkpt>
      <trkpt lat="46.16798" lon="4.57329">
        <ele>428.2</ele>
        <time>2020-10-17T09:30:34Z</time>
      </trkpt>
      <trkpt lat="46.16798" lon="4.57329">
        <ele>428.4</ele>
        <time>2020-10-17T09:30:35Z</time>
      </trkpt>
      <trkpt lat="46.168" lon="4.57327">
        <ele>428.6</ele>
        <time>2020-10-17T09:30:36Z</time>
      </trkpt>
      <trkpt lat="46.168" lon="4.57327">
        <ele>429</ele>
        <time>2020-10-17T09:30:37Z</time>
      </trkpt>
      <trkpt lat="46.16803" lon="4.57327">
        <ele>429.4</ele>
        <time>2020-10-17T09:30:38Z</time>
      </trkpt>
      <trkpt lat="46.16803" lon="4.57327">
        <ele>429.4</ele>
        <time>2020-10-17T09:30:39Z</time>
      </trkpt>
      <trkpt lat="46.16805" lon="4.57327">
        <ele>430</ele>
        <time>2020-10-17T09:30:40Z</time>
      </trkpt>
      <trkpt lat="46.16805" lon="4.57327">
        <ele>430.2</ele>
        <time>2020-10-17T09:30:41Z</time>
      </trkpt>
      <trkpt lat="46.16807" lon="4.57327">
        <ele>430.4</ele>
        <time>2020-10-17T09:30:42Z</time>
      </trkpt>
      <trkpt lat="46.16807" lon="4.57327">
        <ele>430.4</ele>
        <time>2020-10-17T09:30:43Z</time>
      </trkpt>
      <trkpt lat="46.16809" lon="4.57327">
        <ele>430.6</ele>
        <time>2020-10-17T09:30:44Z</time>
      </trkpt>
      <trkpt lat="46.16809" lon="4.57327">
        <ele>431.2</ele>
        <time>2020-10-17T09:30:45Z</time>
      </trkpt>
      <trkpt lat="46.16812" lon="4.57326">
        <ele>431.2</ele>
        <time>2020-10-17T09:30:46Z</time>
      </trkpt>
      <trkpt lat="46.16812" lon="4.57326">
        <ele>431.8</ele>
        <time>2020-10-17T09:30:47Z</time>
      </trkpt>
      <trkpt lat="46.16814" lon="4.57326">
        <ele>431.8</ele>
        <time>2020-10-17T09:30:48Z</time>
      </trkpt>
      <trkpt lat="46.16814" lon="4.57326">
        <ele>432.2</ele>
        <time>2020-10-17T09:30:49Z</time>
      </trkpt>
      <trkpt lat="46.16817" lon="4.57325">
        <ele>432.6</ele>
        <time>2020-10-17T09:30:50Z</time>
      </trkpt>
      <trkpt lat="46.16817" lon="4.57325">
        <ele>432.6</ele>
        <time>2020-10-17T09:30:51Z</time>
      </trkpt>
      <trkpt lat="46.1682" lon="4.57324">
        <ele>433</ele>
        <time>2020-10-17T09:30:52Z</time>
      </trkpt>
      <trkpt lat="46.1682" lon="4.57324">
        <ele>433.2</ele>
        <time>2020-10-17T09:30:53Z</time>
      </trkpt>
      <trkpt lat="46.16822" lon="4.57324">
        <ele>433.4</ele>
        <time>2020-10-17T09:30:54Z</time>
      </trkpt>
      <trkpt lat="46.16822" lon="4.57324">
        <ele>433.6</ele>
        <time>2020-10-17T09:30:55Z</time>
      </trkpt>
      <trkpt lat="46.16825" lon="4.57323">
        <ele>433.6</ele>
        <time>2020-10-17T09:30:56Z</time>
      </trkpt>
      <trkpt lat="46.16825" lon="4.57323">
        <ele>434</ele>
        <time>2020-10-17T09:30:57Z</time>
      </trkpt>
      <trkpt lat="46.16828" lon="4.57323">
        <ele>434</ele>
        <time>2020-10-17T09:30:58Z</time>
      </trkpt>
      <trkpt lat="46.16828" lon="4.57323">
        <ele>434.4</ele>
        <time>2020-10-17T09:30:59Z</time>
      </trkpt>
      <trkpt lat="46.16831" lon="4.57323">
        <ele>434.6</ele>
        <time>2020-10-17T09:31:00Z</time>
      </trkpt>
      <trkpt lat="46.16831" lon="4.57323">
        <ele>434.8</ele>
        <time>2020-10-17T09:31:01Z</time>
      </trkpt>
      <trkpt lat="46.16834" lon="4.57323">
        <ele>435</ele>
        <time>2020-10-17T09:31:02Z</time>
      </trkpt>
      <trkpt lat="46.16834" lon="4.57323">
        <ele>435.2</ele>
        <time>2020-10-17T09:31:03Z</time>
      </trkpt>
      <trkpt lat="46.16837" lon="4.57322">
        <ele>435.4</ele>
        <time>2020-10-17T09:31:04Z</time>
      </trkpt>
      <trkpt lat="46.16837" lon="4.57322">
        <ele>435.6</ele>
        <time>2020-10-17T09:31:05Z</time>
      </trkpt>
      <trkpt lat="46.16839" lon="4.57322">
        <ele>435.8</ele>
        <time>2020-10-17T09:31:06Z</time>
      </trkpt>
      <trkpt lat="46.16839" lon="4.57322">
        <ele>435.8</ele>
        <time>2020-10-17T09:31:07Z</time>
      </trkpt>
      <trkpt lat="46.16842" lon="4.57322">
        <ele>436.2</ele>
        <time>2020-10-17T09:31:08Z</time>
      </trkpt>
      <trkpt lat="46.16842" lon="4.57322">
        <ele>436.4</ele>
        <time>2020-10-17T09:31:09Z</time>
      </trkpt>
      <trkpt lat="46.16844" lon="4.57322">
        <ele>436.6</ele>
        <time>2020-10-17T09:31:10Z</time>
      </trkpt>
      <trkpt lat="46.16844" lon="4.57322">
        <ele>437</ele>
        <time>2020-10-17T09:31:11Z</time>
      </trkpt>
      <trkpt lat="46.16847" lon="4.57322">
        <ele>437.2</ele>
        <time>2020-10-17T09:31:12Z</time>
      </trkpt>
      <trkpt lat="46.16847" lon="4.57322">
        <ele>437.6</ele>
        <time>2020-10-17T09:31:13Z</time>
      </trkpt>
      <trkpt lat="46.1685" lon="4.57322">
        <ele>437.8</ele>
        <time>2020-10-17T09:31:14Z</time>
      </trkpt>
      <trkpt lat="46.1685" lon="4.57322">
        <ele>438</ele>
        <time>2020-10-17T09:31:15Z</time>
      </trkpt>
      <trkpt lat="46.16853" lon="4.57321">
        <ele>438</ele>
        <time>2020-10-17T09:31:16Z</time>
      </trkpt>
      <trkpt lat="46.16853" lon="4.57321">
        <ele>438.4</ele>
        <time>2020-10-17T09:31:17Z</time>
      </trkpt>
      <trkpt lat="46.16856" lon="4.5732">
        <ele>438.4</ele>
        <time>2020-10-17T09:31:18Z</time>
      </trkpt>
      <trkpt lat="46.16856" lon="4.5732">
        <ele>438.8</ele>
        <time>2020-10-17T09:31:19Z</time>
      </trkpt>
      <trkpt lat="46.16858" lon="4.57319">
        <ele>438.8</ele>
        <time>2020-10-17T09:31:20Z</time>
      </trkpt>
      <trkpt lat="46.16858" lon="4.57319">
        <ele>439.2</ele>
        <time>2020-10-17T09:31:21Z</time>
      </trkpt>
      <trkpt lat="46.16861" lon="4.57318">
        <ele>439.4</ele>
        <time>2020-10-17T09:31:22Z</time>
      </trkpt>
      <trkpt lat="46.16861" lon="4.57318">
        <ele>439.8</ele>
        <time>2020-10-17T09:31:23Z</time>
      </trkpt>
      <trkpt lat="46.16864" lon="4.57318">
        <ele>440</ele>
        <time>2020-10-17T09:31:24Z</time>
      </trkpt>
      <trkpt lat="46.16864" lon="4.57318">
        <ele>440</ele>
        <time>2020-10-17T09:31:25Z</time>
      </trkpt>
      <trkpt lat="46.16867" lon="4.57317">
        <ele>440.4</ele>
        <time>2020-10-17T09:31:26Z</time>
      </trkpt>
      <trkpt lat="46.16867" lon="4.57317">
        <ele>440.6</ele>
        <time>2020-10-17T09:31:27Z</time>
      </trkpt>
      <trkpt lat="46.16869" lon="4.57317">
        <ele>441</ele>
        <time>2020-10-17T09:31:28Z</time>
      </trkpt>
      <trkpt lat="46.16869" lon="4.57317">
        <ele>441.4</ele>
        <time>2020-10-17T09:31:29Z</time>
      </trkpt>
      <trkpt lat="46.16872" lon="4.57317">
        <ele>441.4</ele>
        <time>2020-10-17T09:31:30Z</time>
      </trkpt>
      <trkpt lat="46.16872" lon="4.57317">
        <ele>441.6</ele>
        <time>2020-10-17T09:31:31Z</time>
      </trkpt>
      <trkpt lat="46.16875" lon="4.57316">
        <ele>441.8</ele>
        <time>2020-10-17T09:31:32Z</time>
      </trkpt>
      <trkpt lat="46.16875" lon="4.57316">
        <ele>441.8</ele>
        <time>2020-10-17T09:31:33Z</time>
      </trkpt>
      <trkpt lat="46.16877" lon="4.57316">
        <ele>442.2</ele>
        <time>2020-10-17T09:31:34Z</time>
      </trkpt>
      <trkpt lat="46.16877" lon="4.57316">
        <ele>442.4</ele>
        <time>2020-10-17T09:31:35Z</time>
      </trkpt>
      <trkpt lat="46.1688" lon="4.57316">
        <ele>442.4</ele>
        <time>2020-10-17T09:31:36Z</time>
      </trkpt>
      <trkpt lat="46.1688" lon="4.57316">
        <ele>443</ele>
        <time>2020-10-17T09:31:37Z</time>
      </trkpt>
      <trkpt lat="46.16883" lon="4.57315">
        <ele>442.8</ele>
        <time>2020-10-17T09:31:38Z</time>
      </trkpt>
      <trkpt lat="46.16883" lon="4.57315">
        <ele>443</ele>
        <time>2020-10-17T09:31:39Z</time>
      </trkpt>
      <trkpt lat="46.16885" lon="4.57315">
        <ele>443.4</ele>
        <time>2020-10-17T09:31:40Z</time>
      </trkpt>
      <trkpt lat="46.16885" lon="4.57315">
        <ele>443.6</ele>
        <time>2020-10-17T09:31:41Z</time>
      </trkpt>
      <trkpt lat="46.16888" lon="4.57315">
        <ele>444</ele>
        <time>2020-10-17T09:31:42Z</time>
      </trkpt>
      <trkpt lat="46.16888" lon="4.57315">
        <ele>444.2</ele>
        <time>2020-10-17T09:31:43Z</time>
      </trkpt>
      <trkpt lat="46.16891" lon="4.57314">
        <ele>444.6</ele>
        <time>2020-10-17T09:31:44Z</time>
      </trkpt>
      <trkpt lat="46.16891" lon="4.57314">
        <ele>444.8</ele>
        <time>2020-10-17T09:31:45Z</time>
      </trkpt>
      <trkpt lat="46.16893" lon="4.57314">
        <ele>445.2</ele>
        <time>2020-10-17T09:31:46Z</time>
      </trkpt>
      <trkpt lat="46.16893" lon="4.57314">
        <ele>445.4</ele>
        <time>2020-10-17T09:31:47Z</time>
      </trkpt>
      <trkpt lat="46.16896" lon="4.57314">
        <ele>445.6</ele>
        <time>2020-10-17T09:31:48Z</time>
      </trkpt>
      <trkpt lat="46.16896" lon="4.57314">
        <ele>446</ele>
        <time>2020-10-17T09:31:49Z</time>
      </trkpt>
      <trkpt lat="46.16898" lon="4.57314">
        <ele>446</ele>
        <time>2020-10-17T09:31:50Z</time>
      </trkpt>
      <trkpt lat="46.16898" lon="4.57314">
        <ele>446.4</ele>
        <time>2020-10-17T09:31:51Z</time>
      </trkpt>
      <trkpt lat="46.16902" lon="4.57314">
        <ele>446.4</ele>
        <time>2020-10-17T09:31:52Z</time>
      </trkpt>
      <trkpt lat="46.16902" lon="4.57314">
        <ele>446.8</ele>
        <time>2020-10-17T09:31:53Z</time>
      </trkpt>
      <trkpt lat="46.16904" lon="4.57315">
        <ele>447</ele>
        <time>2020-10-17T09:31:54Z</time>
      </trkpt>
      <trkpt lat="46.16904" lon="4.57315">
        <ele>447.4</ele>
        <time>2020-10-17T09:31:55Z</time>
      </trkpt>
      <trkpt lat="46.16907" lon="4.57316">
        <ele>448</ele>
        <time>2020-10-17T09:31:56Z</time>
      </trkpt>
      <trkpt lat="46.16907" lon="4.57316">
        <ele>448.2</ele>
        <time>2020-10-17T09:31:57Z</time>
      </trkpt>
      <trkpt lat="46.1691" lon="4.57317">
        <ele>448.2</ele>
        <time>2020-10-17T09:31:58Z</time>
      </trkpt>
      <trkpt lat="46.1691" lon="4.57317">
        <ele>448.6</ele>
        <time>2020-10-17T09:31:59Z</time>
      </trkpt>
      <trkpt lat="46.16912" lon="4.57317">
        <ele>448.6</ele>
        <time>2020-10-17T09:32:00Z</time>
      </trkpt>
      <trkpt lat="46.16912" lon="4.57317">
        <ele>449.2</ele>
        <time>2020-10-17T09:32:01Z</time>
      </trkpt>
      <trkpt lat="46.16915" lon="4.57318">
        <ele>449.2</ele>
        <time>2020-10-17T09:32:02Z</time>
      </trkpt>
      <trkpt lat="46.16915" lon="4.57318">
        <ele>449.6</ele>
        <time>2020-10-17T09:32:03Z</time>
      </trkpt>
      <trkpt lat="46.16917" lon="4.57319">
        <ele>449.8</ele>
        <time>2020-10-17T09:32:04Z</time>
      </trkpt>
      <trkpt lat="46.16917" lon="4.57319">
        <ele>450.4</ele>
        <time>2020-10-17T09:32:05Z</time>
      </trkpt>
      <trkpt lat="46.1692" lon="4.5732">
        <ele>450.2</ele>
        <time>2020-10-17T09:32:06Z</time>
      </trkpt>
      <trkpt lat="46.1692" lon="4.5732">
        <ele>450.4</ele>
        <time>2020-10-17T09:32:07Z</time>
      </trkpt>
      <trkpt lat="46.16923" lon="4.57321">
        <ele>450.8</ele>
        <time>2020-10-17T09:32:08Z</time>
      </trkpt>
      <trkpt lat="46.16923" lon="4.57321">
        <ele>451</ele>
        <time>2020-10-17T09:32:09Z</time>
      </trkpt>
      <trkpt lat="46.16926" lon="4.57321">
        <ele>451.4</ele>
        <time>2020-10-17T09:32:10Z</time>
      </trkpt>
      <trkpt lat="46.16926" lon="4.57321">
        <ele>451.4</ele>
        <time>2020-10-17T09:32:11Z</time>
      </trkpt>
      <trkpt lat="46.16929" lon="4.57322">
        <ele>451.8</ele>
        <time>2020-10-17T09:32:12Z</time>
      </trkpt>
      <trkpt lat="46.16929" lon="4.57322">
        <ele>452</ele>
        <time>2020-10-17T09:32:13Z</time>
      </trkpt>
      <trkpt lat="46.16932" lon="4.57323">
        <ele>452</ele>
        <time>2020-10-17T09:32:14Z</time>
      </trkpt>
      <trkpt lat="46.16932" lon="4.57323">
        <ele>452.6</ele>
        <time>2020-10-17T09:32:15Z</time>
      </trkpt>
      <trkpt lat="46.16935" lon="4.57323">
        <ele>452.6</ele>
        <time>2020-10-17T09:32:16Z</time>
      </trkpt>
      <trkpt lat="46.16935" lon="4.57323">
        <ele>453</ele>
        <time>2020-10-17T09:32:17Z</time>
      </trkpt>
      <trkpt lat="46.16938" lon="4.57324">
        <ele>453</ele>
        <time>2020-10-17T09:32:18Z</time>
      </trkpt>
      <trkpt lat="46.16938" lon="4.57324">
        <ele>453.2</ele>
        <time>2020-10-17T09:32:19Z</time>
      </trkpt>
      <trkpt lat="46.1694" lon="4.57326">
        <ele>453.4</ele>
        <time>2020-10-17T09:32:20Z</time>
      </trkpt>
      <trkpt lat="46.1694" lon="4.57326">
        <ele>453.6</ele>
        <time>2020-10-17T09:32:21Z</time>
      </trkpt>
      <trkpt lat="46.16941" lon="4.57328">
        <ele>453.8</ele>
        <time>2020-10-17T09:32:22Z</time>
      </trkpt>
      <trkpt lat="46.16941" lon="4.57328">
        <ele>453.8</ele>
        <time>2020-10-17T09:32:23Z</time>
      </trkpt>
      <trkpt lat="46.16941" lon="4.57328">
        <ele>453.8</ele>
        <time>2020-10-17T09:32:24Z</time>
      </trkpt>
      <trkpt lat="46.16941" lon="4.57328">
        <ele>453.8</ele>
        <time>2020-10-17T09:32:25Z</time>
      </trkpt>
      <trkpt lat="46.16941" lon="4.57328">
        <ele>454.2</ele>
        <time>2020-10-17T09:32:26Z</time>
      </trkpt>
      <trkpt lat="46.16941" lon="4.57328">
        <ele>454.4</ele>
        <time>2020-10-17T09:32:27Z</time>
      </trkpt>
      <trkpt lat="46.16941" lon="4.57328">
        <ele>454.8</ele>
        <time>2020-10-17T09:32:28Z</time>
      </trkpt>
      <trkpt lat="46.16941" lon="4.57328">
        <ele>454.8</ele>
        <time>2020-10-17T09:32:29Z</time>
      </trkpt>
      <trkpt lat="46.16941" lon="4.57328">
        <ele>455</ele>
        <time>2020-10-17T09:32:30Z</time>
      </trkpt>
      <trkpt lat="46.16943" lon="4.57328">
        <ele>455</ele>
        <time>2020-10-17T09:32:31Z</time>
      </trkpt>
      <trkpt lat="46.16943" lon="4.57328">
        <ele>455</ele>
        <time>2020-10-17T09:32:32Z</time>
      </trkpt>
      <trkpt lat="46.16946" lon="4.57326">
        <ele>455</ele>
        <time>2020-10-17T09:32:33Z</time>
      </trkpt>
      <trkpt lat="46.16946" lon="4.57326">
        <ele>455</ele>
        <time>2020-10-17T09:32:34Z</time>
      </trkpt>
      <trkpt lat="46.16949" lon="4.57325">
        <ele>455</ele>
        <time>2020-10-17T09:32:35Z</time>
      </trkpt>
      <trkpt lat="46.16951" lon="4.57325">
        <ele>455.4</ele>
        <time>2020-10-17T09:32:36Z</time>
      </trkpt>
      <trkpt lat="46.16951" lon="4.57325">
        <ele>455.4</ele>
        <time>2020-10-17T09:32:37Z</time>
      </trkpt>
      <trkpt lat="46.16954" lon="4.57325">
        <ele>455.8</ele>
        <time>2020-10-17T09:32:38Z</time>
      </trkpt>
      <trkpt lat="46.16954" lon="4.57325">
        <ele>455.6</ele>
        <time>2020-10-17T09:32:39Z</time>
      </trkpt>
      <trkpt lat="46.16957" lon="4.57324">
        <ele>455.8</ele>
        <time>2020-10-17T09:32:40Z</time>
      </trkpt>
      <trkpt lat="46.16957" lon="4.57324">
        <ele>456</ele>
        <time>2020-10-17T09:32:41Z</time>
      </trkpt>
      <trkpt lat="46.1696" lon="4.57323">
        <ele>456.2</ele>
        <time>2020-10-17T09:32:42Z</time>
      </trkpt>
      <trkpt lat="46.1696" lon="4.57323">
        <ele>456.2</ele>
        <time>2020-10-17T09:32:43Z</time>
      </trkpt>
      <trkpt lat="46.16964" lon="4.57322">
        <ele>456.2</ele>
        <time>2020-10-17T09:32:44Z</time>
      </trkpt>
      <trkpt lat="46.16964" lon="4.57322">
        <ele>456.2</ele>
        <time>2020-10-17T09:32:45Z</time>
      </trkpt>
      <trkpt lat="46.16967" lon="4.57321">
        <ele>456.4</ele>
        <time>2020-10-17T09:32:46Z</time>
      </trkpt>
      <trkpt lat="46.16967" lon="4.57321">
        <ele>456.2</ele>
        <time>2020-10-17T09:32:47Z</time>
      </trkpt>
      <trkpt lat="46.1697" lon="4.5732">
        <ele>456.2</ele>
        <time>2020-10-17T09:32:48Z</time>
      </trkpt>
      <trkpt lat="46.1697" lon="4.5732">
        <ele>456.4</ele>
        <time>2020-10-17T09:32:49Z</time>
      </trkpt>
      <trkpt lat="46.16973" lon="4.57319">
        <ele>456.4</ele>
        <time>2020-10-17T09:32:50Z</time>
      </trkpt>
      <trkpt lat="46.16973" lon="4.57319">
        <ele>456.8</ele>
        <time>2020-10-17T09:32:51Z</time>
      </trkpt>
      <trkpt lat="46.16976" lon="4.57318">
        <ele>456.8</ele>
        <time>2020-10-17T09:32:52Z</time>
      </trkpt>
      <trkpt lat="46.16976" lon="4.57318">
        <ele>456.8</ele>
        <time>2020-10-17T09:32:53Z</time>
      </trkpt>
      <trkpt lat="46.16979" lon="4.57317">
        <ele>457</ele>
        <time>2020-10-17T09:32:54Z</time>
      </trkpt>
      <trkpt lat="46.16979" lon="4.57317">
        <ele>457</ele>
        <time>2020-10-17T09:32:55Z</time>
      </trkpt>
      <trkpt lat="46.16982" lon="4.57316">
        <ele>457</ele>
        <time>2020-10-17T09:32:56Z</time>
      </trkpt>
      <trkpt lat="46.16982" lon="4.57316">
        <ele>457.2</ele>
        <time>2020-10-17T09:32:57Z</time>
      </trkpt>
      <trkpt lat="46.16985" lon="4.57315">
        <ele>457.4</ele>
        <time>2020-10-17T09:32:58Z</time>
      </trkpt>
      <trkpt lat="46.16985" lon="4.57315">
        <ele>457.6</ele>
        <time>2020-10-17T09:32:59Z</time>
      </trkpt>
      <trkpt lat="46.16988" lon="4.57314">
        <ele>457.8</ele>
        <time>2020-10-17T09:33:00Z</time>
      </trkpt>
      <trkpt lat="46.16988" lon="4.57314">
        <ele>458.2</ele>
        <time>2020-10-17T09:33:01Z</time>
      </trkpt>
      <trkpt lat="46.16992" lon="4.57313">
        <ele>458</ele>
        <time>2020-10-17T09:33:02Z</time>
      </trkpt>
      <trkpt lat="46.16992" lon="4.57313">
        <ele>458.2</ele>
        <time>2020-10-17T09:33:03Z</time>
      </trkpt>
      <trkpt lat="46.16995" lon="4.57313">
        <ele>458.2</ele>
        <time>2020-10-17T09:33:04Z</time>
      </trkpt>
      <trkpt lat="46.16995" lon="4.57313">
        <ele>458.6</ele>
        <time>2020-10-17T09:33:05Z</time>
      </trkpt>
      <trkpt lat="46.16998" lon="4.57312">
        <ele>458.6</ele>
        <time>2020-10-17T09:33:06Z</time>
      </trkpt>
      <trkpt lat="46.16998" lon="4.57312">
        <ele>458.6</ele>
        <time>2020-10-17T09:33:07Z</time>
      </trkpt>
      <trkpt lat="46.17001" lon="4.57313">
        <ele>459</ele>
        <time>2020-10-17T09:33:08Z</time>
      </trkpt>
      <trkpt lat="46.17001" lon="4.57313">
        <ele>459.2</ele>
        <time>2020-10-17T09:33:09Z</time>
      </trkpt>
      <trkpt lat="46.17005" lon="4.57313">
        <ele>459.4</ele>
        <time>2020-10-17T09:33:10Z</time>
      </trkpt>
      <trkpt lat="46.17005" lon="4.57313">
        <ele>459.6</ele>
        <time>2020-10-17T09:33:11Z</time>
      </trkpt>
      <trkpt lat="46.17008" lon="4.57313">
        <ele>459.6</ele>
        <time>2020-10-17T09:33:12Z</time>
      </trkpt>
      <trkpt lat="46.17008" lon="4.57313">
        <ele>459.6</ele>
        <time>2020-10-17T09:33:13Z</time>
      </trkpt>
      <trkpt lat="46.1701" lon="4.57314">
        <ele>459.8</ele>
        <time>2020-10-17T09:33:14Z</time>
      </trkpt>
      <trkpt lat="46.1701" lon="4.57314">
        <ele>459.8</ele>
        <time>2020-10-17T09:33:15Z</time>
      </trkpt>
      <trkpt lat="46.17013" lon="4.57315">
        <ele>460</ele>
        <time>2020-10-17T09:33:16Z</time>
      </trkpt>
      <trkpt lat="46.17013" lon="4.57315">
        <ele>459.8</ele>
        <time>2020-10-17T09:33:17Z</time>
      </trkpt>
      <trkpt lat="46.17016" lon="4.57316">
        <ele>460</ele>
        <time>2020-10-17T09:33:18Z</time>
      </trkpt>
      <trkpt lat="46.17016" lon="4.57316">
        <ele>460.2</ele>
        <time>2020-10-17T09:33:19Z</time>
      </trkpt>
      <trkpt lat="46.17019" lon="4.57318">
        <ele>460.4</ele>
        <time>2020-10-17T09:33:20Z</time>
      </trkpt>
      <trkpt lat="46.17019" lon="4.57318">
        <ele>460.6</ele>
        <time>2020-10-17T09:33:21Z</time>
      </trkpt>
      <trkpt lat="46.17022" lon="4.5732">
        <ele>461</ele>
        <time>2020-10-17T09:33:22Z</time>
      </trkpt>
      <trkpt lat="46.17022" lon="4.5732">
        <ele>461.2</ele>
        <time>2020-10-17T09:33:23Z</time>
      </trkpt>
      <trkpt lat="46.17025" lon="4.57322">
        <ele>461.2</ele>
        <time>2020-10-17T09:33:24Z</time>
      </trkpt>
      <trkpt lat="46.17025" lon="4.57322">
        <ele>461</ele>
        <time>2020-10-17T09:33:25Z</time>
      </trkpt>
      <trkpt lat="46.17028" lon="4.57324">
        <ele>461.2</ele>
        <time>2020-10-17T09:33:26Z</time>
      </trkpt>
      <trkpt lat="46.17028" lon="4.57324">
        <ele>461.2</ele>
        <time>2020-10-17T09:33:27Z</time>
      </trkpt>
      <trkpt lat="46.1703" lon="4.57326">
        <ele>461.4</ele>
        <time>2020-10-17T09:33:28Z</time>
      </trkpt>
      <trkpt lat="46.1703" lon="4.57326">
        <ele>461.8</ele>
        <time>2020-10-17T09:33:29Z</time>
      </trkpt>
      <trkpt lat="46.17033" lon="4.57328">
        <ele>462.2</ele>
        <time>2020-10-17T09:33:30Z</time>
      </trkpt>
      <trkpt lat="46.17033" lon="4.57328">
        <ele>462.4</ele>
        <time>2020-10-17T09:33:31Z</time>
      </trkpt>
      <trkpt lat="46.17036" lon="4.5733">
        <ele>462.4</ele>
        <time>2020-10-17T09:33:32Z</time>
      </trkpt>
      <trkpt lat="46.17036" lon="4.5733">
        <ele>462.6</ele>
        <time>2020-10-17T09:33:33Z</time>
      </trkpt>
      <trkpt lat="46.17039" lon="4.57332">
        <ele>462.8</ele>
        <time>2020-10-17T09:33:34Z</time>
      </trkpt>
      <trkpt lat="46.17039" lon="4.57332">
        <ele>463</ele>
        <time>2020-10-17T09:33:35Z</time>
      </trkpt>
      <trkpt lat="46.17042" lon="4.57334">
        <ele>463.2</ele>
        <time>2020-10-17T09:33:36Z</time>
      </trkpt>
      <trkpt lat="46.17042" lon="4.57334">
        <ele>463.6</ele>
        <time>2020-10-17T09:33:37Z</time>
      </trkpt>
      <trkpt lat="46.17045" lon="4.57335">
        <ele>463.8</ele>
        <time>2020-10-17T09:33:38Z</time>
      </trkpt>
      <trkpt lat="46.17045" lon="4.57335">
        <ele>464.2</ele>
        <time>2020-10-17T09:33:39Z</time>
      </trkpt>
      <trkpt lat="46.17047" lon="4.57336">
        <ele>464.2</ele>
        <time>2020-10-17T09:33:40Z</time>
      </trkpt>
      <trkpt lat="46.17047" lon="4.57336">
        <ele>464.6</ele>
        <time>2020-10-17T09:33:41Z</time>
      </trkpt>
      <trkpt lat="46.1705" lon="4.57337">
        <ele>464.8</ele>
        <time>2020-10-17T09:33:42Z</time>
      </trkpt>
      <trkpt lat="46.1705" lon="4.57337">
        <ele>465.2</ele>
        <time>2020-10-17T09:33:43Z</time>
      </trkpt>
      <trkpt lat="46.17053" lon="4.57338">
        <ele>465.2</ele>
        <time>2020-10-17T09:33:44Z</time>
      </trkpt>
      <trkpt lat="46.17053" lon="4.57338">
        <ele>465.4</ele>
        <time>2020-10-17T09:33:45Z</time>
      </trkpt>
      <trkpt lat="46.17055" lon="4.5734">
        <ele>465.6</ele>
        <time>2020-10-17T09:33:46Z</time>
      </trkpt>
      <trkpt lat="46.17055" lon="4.5734">
        <ele>465.8</ele>
        <time>2020-10-17T09:33:47Z</time>
      </trkpt>
      <trkpt lat="46.17058" lon="4.57342">
        <ele>466</ele>
        <time>2020-10-17T09:33:48Z</time>
      </trkpt>
      <trkpt lat="46.17058" lon="4.57342">
        <ele>466.2</ele>
        <time>2020-10-17T09:33:49Z</time>
      </trkpt>
      <trkpt lat="46.1706" lon="4.57344">
        <ele>466.6</ele>
        <time>2020-10-17T09:33:50Z</time>
      </trkpt>
      <trkpt lat="46.1706" lon="4.57344">
        <ele>466.8</ele>
        <time>2020-10-17T09:33:51Z</time>
      </trkpt>
      <trkpt lat="46.17062" lon="4.57346">
        <ele>467.4</ele>
        <time>2020-10-17T09:33:52Z</time>
      </trkpt>
      <trkpt lat="46.17062" lon="4.57346">
        <ele>467.6</ele>
        <time>2020-10-17T09:33:53Z</time>
      </trkpt>
      <trkpt lat="46.17065" lon="4.57348">
        <ele>467.6</ele>
        <time>2020-10-17T09:33:54Z</time>
      </trkpt>
      <trkpt lat="46.17065" lon="4.57348">
        <ele>467.8</ele>
        <time>2020-10-17T09:33:55Z</time>
      </trkpt>
      <trkpt lat="46.17068" lon="4.5735">
        <ele>467.8</ele>
        <time>2020-10-17T09:33:56Z</time>
      </trkpt>
      <trkpt lat="46.17068" lon="4.5735">
        <ele>468.2</ele>
        <time>2020-10-17T09:33:57Z</time>
      </trkpt>
      <trkpt lat="46.1707" lon="4.57352">
        <ele>468.4</ele>
        <time>2020-10-17T09:33:58Z</time>
      </trkpt>
      <trkpt lat="46.1707" lon="4.57352">
        <ele>468.6</ele>
        <time>2020-10-17T09:33:59Z</time>
      </trkpt>
      <trkpt lat="46.17073" lon="4.57353">
        <ele>468.8</ele>
        <time>2020-10-17T09:34:00Z</time>
      </trkpt>
      <trkpt lat="46.17073" lon="4.57353">
        <ele>468.8</ele>
        <time>2020-10-17T09:34:01Z</time>
      </trkpt>
      <trkpt lat="46.17076" lon="4.57354">
        <ele>468.8</ele>
        <time>2020-10-17T09:34:02Z</time>
      </trkpt>
      <trkpt lat="46.17076" lon="4.57354">
        <ele>468.8</ele>
        <time>2020-10-17T09:34:03Z</time>
      </trkpt>
      <trkpt lat="46.17079" lon="4.57355">
        <ele>469</ele>
        <time>2020-10-17T09:34:04Z</time>
      </trkpt>
      <trkpt lat="46.17081" lon="4.57355">
        <ele>469</ele>
        <time>2020-10-17T09:34:05Z</time>
      </trkpt>
      <trkpt lat="46.17081" lon="4.57355">
        <ele>469</ele>
        <time>2020-10-17T09:34:06Z</time>
      </trkpt>
      <trkpt lat="46.17084" lon="4.57355">
        <ele>468.8</ele>
        <time>2020-10-17T09:34:07Z</time>
      </trkpt>
      <trkpt lat="46.17084" lon="4.57355">
        <ele>469</ele>
        <time>2020-10-17T09:34:08Z</time>
      </trkpt>
      <trkpt lat="46.17087" lon="4.57354">
        <ele>469.2</ele>
        <time>2020-10-17T09:34:09Z</time>
      </trkpt>
      <trkpt lat="46.17087" lon="4.57354">
        <ele>469.4</ele>
        <time>2020-10-17T09:34:10Z</time>
      </trkpt>
      <trkpt lat="46.1709" lon="4.57354">
        <ele>469.6</ele>
        <time>2020-10-17T09:34:11Z</time>
      </trkpt>
      <trkpt lat="46.1709" lon="4.57354">
        <ele>469.8</ele>
        <time>2020-10-17T09:34:12Z</time>
      </trkpt>
      <trkpt lat="46.17093" lon="4.57355">
        <ele>469.8</ele>
        <time>2020-10-17T09:34:13Z</time>
      </trkpt>
      <trkpt lat="46.17093" lon="4.57355">
        <ele>469.8</ele>
        <time>2020-10-17T09:34:14Z</time>
      </trkpt>
      <trkpt lat="46.17097" lon="4.57354">
        <ele>470</ele>
        <time>2020-10-17T09:34:15Z</time>
      </trkpt>
      <trkpt lat="46.17097" lon="4.57354">
        <ele>470.4</ele>
        <time>2020-10-17T09:34:16Z</time>
      </trkpt>
      <trkpt lat="46.17099" lon="4.57354">
        <ele>470.6</ele>
        <time>2020-10-17T09:34:17Z</time>
      </trkpt>
      <trkpt lat="46.17099" lon="4.57354">
        <ele>471</ele>
        <time>2020-10-17T09:34:18Z</time>
      </trkpt>
      <trkpt lat="46.17103" lon="4.57353">
        <ele>471.2</ele>
        <time>2020-10-17T09:34:19Z</time>
      </trkpt>
      <trkpt lat="46.17103" lon="4.57353">
        <ele>471.6</ele>
        <time>2020-10-17T09:34:20Z</time>
      </trkpt>
      <trkpt lat="46.17106" lon="4.57353">
        <ele>471.8</ele>
        <time>2020-10-17T09:34:21Z</time>
      </trkpt>
      <trkpt lat="46.17106" lon="4.57353">
        <ele>472.2</ele>
        <time>2020-10-17T09:34:22Z</time>
      </trkpt>
      <trkpt lat="46.17109" lon="4.57353">
        <ele>472.2</ele>
        <time>2020-10-17T09:34:23Z</time>
      </trkpt>
      <trkpt lat="46.17109" lon="4.57353">
        <ele>472.6</ele>
        <time>2020-10-17T09:34:24Z</time>
      </trkpt>
      <trkpt lat="46.17112" lon="4.57353">
        <ele>472.6</ele>
        <time>2020-10-17T09:34:25Z</time>
      </trkpt>
      <trkpt lat="46.17112" lon="4.57353">
        <ele>472.8</ele>
        <time>2020-10-17T09:34:26Z</time>
      </trkpt>
      <trkpt lat="46.17115" lon="4.57353">
        <ele>472.8</ele>
        <time>2020-10-17T09:34:27Z</time>
      </trkpt>
      <trkpt lat="46.17115" lon="4.57353">
        <ele>473</ele>
        <time>2020-10-17T09:34:28Z</time>
      </trkpt>
      <trkpt lat="46.17117" lon="4.57354">
        <ele>472.8</ele>
        <time>2020-10-17T09:34:29Z</time>
      </trkpt>
      <trkpt lat="46.17117" lon="4.57354">
        <ele>473.4</ele>
        <time>2020-10-17T09:34:30Z</time>
      </trkpt>
      <trkpt lat="46.1712" lon="4.57354">
        <ele>473.6</ele>
        <time>2020-10-17T09:34:31Z</time>
      </trkpt>
      <trkpt lat="46.1712" lon="4.57354">
        <ele>473.8</ele>
        <time>2020-10-17T09:34:32Z</time>
      </trkpt>
      <trkpt lat="46.17123" lon="4.57354">
        <ele>474</ele>
        <time>2020-10-17T09:34:33Z</time>
      </trkpt>
      <trkpt lat="46.17123" lon="4.57354">
        <ele>474</ele>
        <time>2020-10-17T09:34:34Z</time>
      </trkpt>
      <trkpt lat="46.17126" lon="4.57354">
        <ele>474.2</ele>
        <time>2020-10-17T09:34:35Z</time>
      </trkpt>
      <trkpt lat="46.17126" lon="4.57354">
        <ele>474.6</ele>
        <time>2020-10-17T09:34:36Z</time>
      </trkpt>
      <trkpt lat="46.17129" lon="4.57355">
        <ele>474.8</ele>
        <time>2020-10-17T09:34:37Z</time>
      </trkpt>
      <trkpt lat="46.17129" lon="4.57355">
        <ele>474.8</ele>
        <time>2020-10-17T09:34:38Z</time>
      </trkpt>
      <trkpt lat="46.17132" lon="4.57355">
        <ele>475.2</ele>
        <time>2020-10-17T09:34:39Z</time>
      </trkpt>
      <trkpt lat="46.17132" lon="4.57355">
        <ele>475.4</ele>
        <time>2020-10-17T09:34:40Z</time>
      </trkpt>
      <trkpt lat="46.17135" lon="4.57356">
        <ele>475.6</ele>
        <time>2020-10-17T09:34:41Z</time>
      </trkpt>
      <trkpt lat="46.17135" lon="4.57356">
        <ele>475.8</ele>
        <time>2020-10-17T09:34:42Z</time>
      </trkpt>
      <trkpt lat="46.17138" lon="4.57357">
        <ele>476.2</ele>
        <time>2020-10-17T09:34:43Z</time>
      </trkpt>
      <trkpt lat="46.17138" lon="4.57357">
        <ele>476</ele>
        <time>2020-10-17T09:34:44Z</time>
      </trkpt>
      <trkpt lat="46.17141" lon="4.57357">
        <ele>476.2</ele>
        <time>2020-10-17T09:34:45Z</time>
      </trkpt>
      <trkpt lat="46.17141" lon="4.57357">
        <ele>476.4</ele>
        <time>2020-10-17T09:34:46Z</time>
      </trkpt>
      <trkpt lat="46.17143" lon="4.57357">
        <ele>476.4</ele>
        <time>2020-10-17T09:34:47Z</time>
      </trkpt>
      <trkpt lat="46.17143" lon="4.57357">
        <ele>477.4</ele>
        <time>2020-10-17T09:34:48Z</time>
      </trkpt>
      <trkpt lat="46.17146" lon="4.57358">
        <ele>477.6</ele>
        <time>2020-10-17T09:34:49Z</time>
      </trkpt>
      <trkpt lat="46.17146" lon="4.57358">
        <ele>478.2</ele>
        <time>2020-10-17T09:34:50Z</time>
      </trkpt>
      <trkpt lat="46.17149" lon="4.57358">
        <ele>478.6</ele>
        <time>2020-10-17T09:34:51Z</time>
      </trkpt>
      <trkpt lat="46.17149" lon="4.57358">
        <ele>478.6</ele>
        <time>2020-10-17T09:34:52Z</time>
      </trkpt>
      <trkpt lat="46.17151" lon="4.57359">
        <ele>478.6</ele>
        <time>2020-10-17T09:34:53Z</time>
      </trkpt>
      <trkpt lat="46.17151" lon="4.57359">
        <ele>478.6</ele>
        <time>2020-10-17T09:34:54Z</time>
      </trkpt>
      <trkpt lat="46.17154" lon="4.5736">
        <ele>479</ele>
        <time>2020-10-17T09:34:55Z</time>
      </trkpt>
      <trkpt lat="46.17154" lon="4.5736">
        <ele>479</ele>
        <time>2020-10-17T09:34:56Z</time>
      </trkpt>
      <trkpt lat="46.17157" lon="4.5736">
        <ele>479.8</ele>
        <time>2020-10-17T09:34:57Z</time>
      </trkpt>
      <trkpt lat="46.17157" lon="4.5736">
        <ele>480</ele>
        <time>2020-10-17T09:34:58Z</time>
      </trkpt>
      <trkpt lat="46.17159" lon="4.5736">
        <ele>480.2</ele>
        <time>2020-10-17T09:34:59Z</time>
      </trkpt>
      <trkpt lat="46.17159" lon="4.5736">
        <ele>480.2</ele>
        <time>2020-10-17T09:35:00Z</time>
      </trkpt>
      <trkpt lat="46.17162" lon="4.57361">
        <ele>480.4</ele>
        <time>2020-10-17T09:35:01Z</time>
      </trkpt>
      <trkpt lat="46.17162" lon="4.57361">
        <ele>481</ele>
        <time>2020-10-17T09:35:02Z</time>
      </trkpt>
      <trkpt lat="46.17164" lon="4.57362">
        <ele>481</ele>
        <time>2020-10-17T09:35:03Z</time>
      </trkpt>
      <trkpt lat="46.17164" lon="4.57362">
        <ele>481.2</ele>
        <time>2020-10-17T09:35:04Z</time>
      </trkpt>
      <trkpt lat="46.17167" lon="4.57363">
        <ele>481.4</ele>
        <time>2020-10-17T09:35:05Z</time>
      </trkpt>
      <trkpt lat="46.17167" lon="4.57363">
        <ele>482.2</ele>
        <time>2020-10-17T09:35:06Z</time>
      </trkpt>
      <trkpt lat="46.1717" lon="4.57363">
        <ele>482.6</ele>
        <time>2020-10-17T09:35:07Z</time>
      </trkpt>
      <trkpt lat="46.1717" lon="4.57363">
        <ele>482.8</ele>
        <time>2020-10-17T09:35:08Z</time>
      </trkpt>
      <trkpt lat="46.17173" lon="4.57364">
        <ele>483</ele>
        <time>2020-10-17T09:35:09Z</time>
      </trkpt>
      <trkpt lat="46.17173" lon="4.57364">
        <ele>483.2</ele>
        <time>2020-10-17T09:35:10Z</time>
      </trkpt>
      <trkpt lat="46.17176" lon="4.57364">
        <ele>483.2</ele>
        <time>2020-10-17T09:35:11Z</time>
      </trkpt>
      <trkpt lat="46.17176" lon="4.57364">
        <ele>483.8</ele>
        <time>2020-10-17T09:35:12Z</time>
      </trkpt>
      <trkpt lat="46.17178" lon="4.57364">
        <ele>484.2</ele>
        <time>2020-10-17T09:35:13Z</time>
      </trkpt>
      <trkpt lat="46.17178" lon="4.57364">
        <ele>484.4</ele>
        <time>2020-10-17T09:35:14Z</time>
      </trkpt>
      <trkpt lat="46.17181" lon="4.57364">
        <ele>484.4</ele>
        <time>2020-10-17T09:35:15Z</time>
      </trkpt>
      <trkpt lat="46.17181" lon="4.57364">
        <ele>485</ele>
        <time>2020-10-17T09:35:16Z</time>
      </trkpt>
      <trkpt lat="46.17184" lon="4.57365">
        <ele>484.8</ele>
        <time>2020-10-17T09:35:17Z</time>
      </trkpt>
      <trkpt lat="46.17184" lon="4.57365">
        <ele>485</ele>
        <time>2020-10-17T09:35:18Z</time>
      </trkpt>
      <trkpt lat="46.17187" lon="4.57365">
        <ele>485.2</ele>
        <time>2020-10-17T09:35:19Z</time>
      </trkpt>
      <trkpt lat="46.17187" lon="4.57365">
        <ele>485.2</ele>
        <time>2020-10-17T09:35:20Z</time>
      </trkpt>
      <trkpt lat="46.1719" lon="4.57365">
        <ele>485.4</ele>
        <time>2020-10-17T09:35:21Z</time>
      </trkpt>
      <trkpt lat="46.1719" lon="4.57365">
        <ele>485.8</ele>
        <time>2020-10-17T09:35:22Z</time>
      </trkpt>
      <trkpt lat="46.17192" lon="4.57365">
        <ele>485.8</ele>
        <time>2020-10-17T09:35:23Z</time>
      </trkpt>
      <trkpt lat="46.17192" lon="4.57365">
        <ele>485.8</ele>
        <time>2020-10-17T09:35:24Z</time>
      </trkpt>
      <trkpt lat="46.17195" lon="4.57364">
        <ele>486</ele>
        <time>2020-10-17T09:35:25Z</time>
      </trkpt>
      <trkpt lat="46.17195" lon="4.57364">
        <ele>486</ele>
        <time>2020-10-17T09:35:26Z</time>
      </trkpt>
      <trkpt lat="46.17198" lon="4.57365">
        <ele>486.2</ele>
        <time>2020-10-17T09:35:27Z</time>
      </trkpt>
      <trkpt lat="46.17198" lon="4.57365">
        <ele>486.4</ele>
        <time>2020-10-17T09:35:28Z</time>
      </trkpt>
      <trkpt lat="46.17201" lon="4.57366">
        <ele>487</ele>
        <time>2020-10-17T09:35:29Z</time>
      </trkpt>
      <trkpt lat="46.17201" lon="4.57366">
        <ele>487.2</ele>
        <time>2020-10-17T09:35:30Z</time>
      </trkpt>
      <trkpt lat="46.17203" lon="4.57367">
        <ele>487.6</ele>
        <time>2020-10-17T09:35:31Z</time>
      </trkpt>
      <trkpt lat="46.17203" lon="4.57367">
        <ele>487.8</ele>
        <time>2020-10-17T09:35:32Z</time>
      </trkpt>
      <trkpt lat="46.17206" lon="4.57369">
        <ele>487.8</ele>
        <time>2020-10-17T09:35:33Z</time>
      </trkpt>
      <trkpt lat="46.17206" lon="4.57369">
        <ele>488.2</ele>
        <time>2020-10-17T09:35:34Z</time>
      </trkpt>
      <trkpt lat="46.17209" lon="4.5737">
        <ele>488.2</ele>
        <time>2020-10-17T09:35:35Z</time>
      </trkpt>
      <trkpt lat="46.17209" lon="4.5737">
        <ele>488.8</ele>
        <time>2020-10-17T09:35:36Z</time>
      </trkpt>
      <trkpt lat="46.17212" lon="4.57371">
        <ele>488.8</ele>
        <time>2020-10-17T09:35:37Z</time>
      </trkpt>
      <trkpt lat="46.17212" lon="4.57371">
        <ele>488.8</ele>
        <time>2020-10-17T09:35:38Z</time>
      </trkpt>
      <trkpt lat="46.17215" lon="4.57372">
        <ele>489.2</ele>
        <time>2020-10-17T09:35:39Z</time>
      </trkpt>
      <trkpt lat="46.17215" lon="4.57372">
        <ele>489.2</ele>
        <time>2020-10-17T09:35:40Z</time>
      </trkpt>
      <trkpt lat="46.17218" lon="4.57374">
        <ele>490</ele>
        <time>2020-10-17T09:35:41Z</time>
      </trkpt>
      <trkpt lat="46.17218" lon="4.57374">
        <ele>490.2</ele>
        <time>2020-10-17T09:35:42Z</time>
      </trkpt>
      <trkpt lat="46.1722" lon="4.57375">
        <ele>490.2</ele>
        <time>2020-10-17T09:35:43Z</time>
      </trkpt>
      <trkpt lat="46.1722" lon="4.57375">
        <ele>490.4</ele>
        <time>2020-10-17T09:35:44Z</time>
      </trkpt>
      <trkpt lat="46.17223" lon="4.57376">
        <ele>490.8</ele>
        <time>2020-10-17T09:35:45Z</time>
      </trkpt>
      <trkpt lat="46.17223" lon="4.57376">
        <ele>491</ele>
        <time>2020-10-17T09:35:46Z</time>
      </trkpt>
      <trkpt lat="46.17225" lon="4.57377">
        <ele>491</ele>
        <time>2020-10-17T09:35:47Z</time>
      </trkpt>
      <trkpt lat="46.17225" lon="4.57377">
        <ele>491.2</ele>
        <time>2020-10-17T09:35:48Z</time>
      </trkpt>
      <trkpt lat="46.17228" lon="4.57377">
        <ele>491.4</ele>
        <time>2020-10-17T09:35:49Z</time>
      </trkpt>
      <trkpt lat="46.17228" lon="4.57377">
        <ele>491.6</ele>
        <time>2020-10-17T09:35:50Z</time>
      </trkpt>
      <trkpt lat="46.1723" lon="4.57378">
        <ele>491.8</ele>
        <time>2020-10-17T09:35:51Z</time>
      </trkpt>
      <trkpt lat="46.1723" lon="4.57378">
        <ele>492</ele>
        <time>2020-10-17T09:35:52Z</time>
      </trkpt>
      <trkpt lat="46.17233" lon="4.57378">
        <ele>492.4</ele>
        <time>2020-10-17T09:35:53Z</time>
      </trkpt>
      <trkpt lat="46.17233" lon="4.57378">
        <ele>492.4</ele>
        <time>2020-10-17T09:35:54Z</time>
      </trkpt>
      <trkpt lat="46.17235" lon="4.57378">
        <ele>492.8</ele>
        <time>2020-10-17T09:35:55Z</time>
      </trkpt>
      <trkpt lat="46.17235" lon="4.57378">
        <ele>493</ele>
        <time>2020-10-17T09:35:56Z</time>
      </trkpt>
      <trkpt lat="46.17235" lon="4.57378">
        <ele>493.4</ele>
        <time>2020-10-17T09:35:57Z</time>
      </trkpt>
      <trkpt lat="46.17238" lon="4.57379">
        <ele>493.4</ele>
        <time>2020-10-17T09:35:58Z</time>
      </trkpt>
      <trkpt lat="46.17238" lon="4.57379">
        <ele>493.6</ele>
        <time>2020-10-17T09:35:59Z</time>
      </trkpt>
      <trkpt lat="46.1724" lon="4.57379">
        <ele>493.6</ele>
        <time>2020-10-17T09:36:00Z</time>
      </trkpt>
      <trkpt lat="46.1724" lon="4.57379">
        <ele>493.6</ele>
        <time>2020-10-17T09:36:01Z</time>
      </trkpt>
      <trkpt lat="46.17243" lon="4.57378">
        <ele>494</ele>
        <time>2020-10-17T09:36:02Z</time>
      </trkpt>
      <trkpt lat="46.17243" lon="4.57378">
        <ele>494.4</ele>
        <time>2020-10-17T09:36:03Z</time>
      </trkpt>
      <trkpt lat="46.17246" lon="4.57378">
        <ele>494.4</ele>
        <time>2020-10-17T09:36:04Z</time>
      </trkpt>
      <trkpt lat="46.17246" lon="4.57378">
        <ele>494.8</ele>
        <time>2020-10-17T09:36:05Z</time>
      </trkpt>
      <trkpt lat="46.17248" lon="4.57377">
        <ele>495.2</ele>
        <time>2020-10-17T09:36:06Z</time>
      </trkpt>
      <trkpt lat="46.17248" lon="4.57377">
        <ele>495.4</ele>
        <time>2020-10-17T09:36:07Z</time>
      </trkpt>
      <trkpt lat="46.17251" lon="4.57377">
        <ele>495.8</ele>
        <time>2020-10-17T09:36:08Z</time>
      </trkpt>
      <trkpt lat="46.17251" lon="4.57377">
        <ele>496</ele>
        <time>2020-10-17T09:36:09Z</time>
      </trkpt>
      <trkpt lat="46.17254" lon="4.57377">
        <ele>496.2</ele>
        <time>2020-10-17T09:36:10Z</time>
      </trkpt>
      <trkpt lat="46.17254" lon="4.57377">
        <ele>496.6</ele>
        <time>2020-10-17T09:36:11Z</time>
      </trkpt>
      <trkpt lat="46.17257" lon="4.57379">
        <ele>496.8</ele>
        <time>2020-10-17T09:36:12Z</time>
      </trkpt>
      <trkpt lat="46.17257" lon="4.57379">
        <ele>497.2</ele>
        <time>2020-10-17T09:36:13Z</time>
      </trkpt>
      <trkpt lat="46.1726" lon="4.5738">
        <ele>497.4</ele>
        <time>2020-10-17T09:36:14Z</time>
      </trkpt>
      <trkpt lat="46.1726" lon="4.5738">
        <ele>497.8</ele>
        <time>2020-10-17T09:36:15Z</time>
      </trkpt>
      <trkpt lat="46.17263" lon="4.57381">
        <ele>497.8</ele>
        <time>2020-10-17T09:36:16Z</time>
      </trkpt>
      <trkpt lat="46.17263" lon="4.57381">
        <ele>498</ele>
        <time>2020-10-17T09:36:17Z</time>
      </trkpt>
      <trkpt lat="46.17266" lon="4.57381">
        <ele>498.2</ele>
        <time>2020-10-17T09:36:18Z</time>
      </trkpt>
      <trkpt lat="46.17266" lon="4.57381">
        <ele>498.4</ele>
        <time>2020-10-17T09:36:19Z</time>
      </trkpt>
      <trkpt lat="46.17269" lon="4.57381">
        <ele>498.6</ele>
        <time>2020-10-17T09:36:20Z</time>
      </trkpt>
      <trkpt lat="46.17269" lon="4.57381">
        <ele>498.8</ele>
        <time>2020-10-17T09:36:21Z</time>
      </trkpt>
      <trkpt lat="46.17271" lon="4.57381">
        <ele>498.8</ele>
        <time>2020-10-17T09:36:22Z</time>
      </trkpt>
      <trkpt lat="46.17271" lon="4.57381">
        <ele>499.2</ele>
        <time>2020-10-17T09:36:23Z</time>
      </trkpt>
      <trkpt lat="46.17273" lon="4.57382">
        <ele>499.4</ele>
        <time>2020-10-17T09:36:24Z</time>
      </trkpt>
      <trkpt lat="46.17273" lon="4.57382">
        <ele>499.2</ele>
        <time>2020-10-17T09:36:25Z</time>
      </trkpt>
      <trkpt lat="46.17275" lon="4.57382">
        <ele>499.4</ele>
        <time>2020-10-17T09:36:26Z</time>
      </trkpt>
      <trkpt lat="46.17275" lon="4.57382">
        <ele>499.6</ele>
        <time>2020-10-17T09:36:27Z</time>
      </trkpt>
      <trkpt lat="46.17278" lon="4.57383">
        <ele>500</ele>
        <time>2020-10-17T09:36:28Z</time>
      </trkpt>
      <trkpt lat="46.17278" lon="4.57383">
        <ele>500.4</ele>
        <time>2020-10-17T09:36:29Z</time>
      </trkpt>
      <trkpt lat="46.1728" lon="4.57384">
        <ele>500.8</ele>
        <time>2020-10-17T09:36:30Z</time>
      </trkpt>
      <trkpt lat="46.1728" lon="4.57384">
        <ele>500.8</ele>
        <time>2020-10-17T09:36:31Z</time>
      </trkpt>
      <trkpt lat="46.17283" lon="4.57384">
        <ele>501</ele>
        <time>2020-10-17T09:36:32Z</time>
      </trkpt>
      <trkpt lat="46.17283" lon="4.57384">
        <ele>501.2</ele>
        <time>2020-10-17T09:36:33Z</time>
      </trkpt>
      <trkpt lat="46.17286" lon="4.57385">
        <ele>501.8</ele>
        <time>2020-10-17T09:36:34Z</time>
      </trkpt>
      <trkpt lat="46.17286" lon="4.57385">
        <ele>502</ele>
        <time>2020-10-17T09:36:35Z</time>
      </trkpt>
      <trkpt lat="46.17289" lon="4.57385">
        <ele>502.2</ele>
        <time>2020-10-17T09:36:36Z</time>
      </trkpt>
      <trkpt lat="46.17289" lon="4.57385">
        <ele>502.4</ele>
        <time>2020-10-17T09:36:37Z</time>
      </trkpt>
      <trkpt lat="46.17291" lon="4.57384">
        <ele>502.6</ele>
        <time>2020-10-17T09:36:38Z</time>
      </trkpt>
      <trkpt lat="46.17291" lon="4.57384">
        <ele>502.8</ele>
        <time>2020-10-17T09:36:39Z</time>
      </trkpt>
      <trkpt lat="46.17293" lon="4.57384">
        <ele>502.6</ele>
        <time>2020-10-17T09:36:40Z</time>
      </trkpt>
      <trkpt lat="46.17293" lon="4.57384">
        <ele>503.2</ele>
        <time>2020-10-17T09:36:41Z</time>
      </trkpt>
      <trkpt lat="46.17295" lon="4.57386">
        <ele>503.4</ele>
        <time>2020-10-17T09:36:42Z</time>
      </trkpt>
      <trkpt lat="46.17295" lon="4.57386">
        <ele>503.2</ele>
        <time>2020-10-17T09:36:43Z</time>
      </trkpt>
      <trkpt lat="46.17297" lon="4.57389">
        <ele>503.4</ele>
        <time>2020-10-17T09:36:44Z</time>
      </trkpt>
      <trkpt lat="46.17297" lon="4.57389">
        <ele>503.6</ele>
        <time>2020-10-17T09:36:45Z</time>
      </trkpt>
      <trkpt lat="46.17299" lon="4.5739">
        <ele>504</ele>
        <time>2020-10-17T09:36:46Z</time>
      </trkpt>
      <trkpt lat="46.17299" lon="4.5739">
        <ele>504.2</ele>
        <time>2020-10-17T09:36:47Z</time>
      </trkpt>
      <trkpt lat="46.17302" lon="4.57391">
        <ele>504.8</ele>
        <time>2020-10-17T09:36:48Z</time>
      </trkpt>
      <trkpt lat="46.17302" lon="4.57391">
        <ele>504.6</ele>
        <time>2020-10-17T09:36:49Z</time>
      </trkpt>
      <trkpt lat="46.17304" lon="4.57392">
        <ele>505</ele>
        <time>2020-10-17T09:36:50Z</time>
      </trkpt>
      <trkpt lat="46.17304" lon="4.57392">
        <ele>505.2</ele>
        <time>2020-10-17T09:36:51Z</time>
      </trkpt>
      <trkpt lat="46.17307" lon="4.57393">
        <ele>505</ele>
        <time>2020-10-17T09:36:52Z</time>
      </trkpt>
      <trkpt lat="46.17307" lon="4.57393">
        <ele>505.6</ele>
        <time>2020-10-17T09:36:53Z</time>
      </trkpt>
      <trkpt lat="46.17309" lon="4.57395">
        <ele>505.8</ele>
        <time>2020-10-17T09:36:54Z</time>
      </trkpt>
      <trkpt lat="46.17309" lon="4.57395">
        <ele>506.6</ele>
        <time>2020-10-17T09:36:55Z</time>
      </trkpt>
      <trkpt lat="46.17312" lon="4.57398">
        <ele>506.6</ele>
        <time>2020-10-17T09:36:56Z</time>
      </trkpt>
      <trkpt lat="46.17312" lon="4.57398">
        <ele>507</ele>
        <time>2020-10-17T09:36:57Z</time>
      </trkpt>
      <trkpt lat="46.17314" lon="4.57401">
        <ele>507.4</ele>
        <time>2020-10-17T09:36:58Z</time>
      </trkpt>
      <trkpt lat="46.17314" lon="4.57401">
        <ele>507.8</ele>
        <time>2020-10-17T09:36:59Z</time>
      </trkpt>
      <trkpt lat="46.17315" lon="4.57403">
        <ele>508</ele>
        <time>2020-10-17T09:37:00Z</time>
      </trkpt>
      <trkpt lat="46.17315" lon="4.57403">
        <ele>508</ele>
        <time>2020-10-17T09:37:01Z</time>
      </trkpt>
      <trkpt lat="46.17318" lon="4.57404">
        <ele>508.2</ele>
        <time>2020-10-17T09:37:02Z</time>
      </trkpt>
      <trkpt lat="46.17318" lon="4.57404">
        <ele>508.8</ele>
        <time>2020-10-17T09:37:03Z</time>
      </trkpt>
      <trkpt lat="46.1732" lon="4.57406">
        <ele>509.2</ele>
        <time>2020-10-17T09:37:04Z</time>
      </trkpt>
      <trkpt lat="46.1732" lon="4.57406">
        <ele>509.2</ele>
        <time>2020-10-17T09:37:05Z</time>
      </trkpt>
      <trkpt lat="46.17322" lon="4.57407">
        <ele>509.2</ele>
        <time>2020-10-17T09:37:06Z</time>
      </trkpt>
      <trkpt lat="46.17322" lon="4.57407">
        <ele>509.6</ele>
        <time>2020-10-17T09:37:07Z</time>
      </trkpt>
      <trkpt lat="46.17324" lon="4.57409">
        <ele>509.8</ele>
        <time>2020-10-17T09:37:08Z</time>
      </trkpt>
      <trkpt lat="46.17324" lon="4.57409">
        <ele>510</ele>
        <time>2020-10-17T09:37:09Z</time>
      </trkpt>
      <trkpt lat="46.17326" lon="4.57409">
        <ele>510</ele>
        <time>2020-10-17T09:37:10Z</time>
      </trkpt>
      <trkpt lat="46.17326" lon="4.57409">
        <ele>510.6</ele>
        <time>2020-10-17T09:37:11Z</time>
      </trkpt>
      <trkpt lat="46.17329" lon="4.5741">
        <ele>510.6</ele>
        <time>2020-10-17T09:37:12Z</time>
      </trkpt>
      <trkpt lat="46.17329" lon="4.5741">
        <ele>511.2</ele>
        <time>2020-10-17T09:37:13Z</time>
      </trkpt>
      <trkpt lat="46.17331" lon="4.57411">
        <ele>511.4</ele>
        <time>2020-10-17T09:37:14Z</time>
      </trkpt>
      <trkpt lat="46.17331" lon="4.57411">
        <ele>511.4</ele>
        <time>2020-10-17T09:37:15Z</time>
      </trkpt>
      <trkpt lat="46.17334" lon="4.57412">
        <ele>511.6</ele>
        <time>2020-10-17T09:37:16Z</time>
      </trkpt>
      <trkpt lat="46.17334" lon="4.57412">
        <ele>511.8</ele>
        <time>2020-10-17T09:37:17Z</time>
      </trkpt>
      <trkpt lat="46.17336" lon="4.57413">
        <ele>512</ele>
        <time>2020-10-17T09:37:18Z</time>
      </trkpt>
      <trkpt lat="46.17336" lon="4.57413">
        <ele>512.2</ele>
        <time>2020-10-17T09:37:19Z</time>
      </trkpt>
      <trkpt lat="46.17339" lon="4.57414">
        <ele>512.2</ele>
        <time>2020-10-17T09:37:20Z</time>
      </trkpt>
      <trkpt lat="46.17339" lon="4.57414">
        <ele>512.6</ele>
        <time>2020-10-17T09:37:21Z</time>
      </trkpt>
      <trkpt lat="46.17342" lon="4.57414">
        <ele>513.2</ele>
        <time>2020-10-17T09:37:22Z</time>
      </trkpt>
      <trkpt lat="46.17342" lon="4.57414">
        <ele>513.2</ele>
        <time>2020-10-17T09:37:23Z</time>
      </trkpt>
      <trkpt lat="46.17342" lon="4.57414">
        <ele>513.6</ele>
        <time>2020-10-17T09:37:24Z</time>
      </trkpt>
      <trkpt lat="46.17345" lon="4.57415">
        <ele>513.6</ele>
        <time>2020-10-17T09:37:25Z</time>
      </trkpt>
      <trkpt lat="46.17345" lon="4.57415">
        <ele>513.6</ele>
        <time>2020-10-17T09:37:26Z</time>
      </trkpt>
      <trkpt lat="46.17345" lon="4.57415">
        <ele>513.8</ele>
        <time>2020-10-17T09:37:27Z</time>
      </trkpt>
      <trkpt lat="46.17347" lon="4.57415">
        <ele>514</ele>
        <time>2020-10-17T09:37:28Z</time>
      </trkpt>
      <trkpt lat="46.17348" lon="4.57416">
        <ele>514.4</ele>
        <time>2020-10-17T09:37:29Z</time>
      </trkpt>
      <trkpt lat="46.1735" lon="4.57416">
        <ele>514.6</ele>
        <time>2020-10-17T09:37:30Z</time>
      </trkpt>
      <trkpt lat="46.17351" lon="4.57417">
        <ele>514.6</ele>
        <time>2020-10-17T09:37:31Z</time>
      </trkpt>
      <trkpt lat="46.17353" lon="4.57417">
        <ele>514.6</ele>
        <time>2020-10-17T09:37:32Z</time>
      </trkpt>
      <trkpt lat="46.17355" lon="4.57418">
        <ele>514.6</ele>
        <time>2020-10-17T09:37:33Z</time>
      </trkpt>
      <trkpt lat="46.17355" lon="4.57418">
        <ele>514.8</ele>
        <time>2020-10-17T09:37:34Z</time>
      </trkpt>
      <trkpt lat="46.17357" lon="4.57418">
        <ele>515.4</ele>
        <time>2020-10-17T09:37:35Z</time>
      </trkpt>
      <trkpt lat="46.17357" lon="4.57418">
        <ele>515.4</ele>
        <time>2020-10-17T09:37:36Z</time>
      </trkpt>
      <trkpt lat="46.17357" lon="4.57418">
        <ele>515.6</ele>
        <time>2020-10-17T09:37:37Z</time>
      </trkpt>
      <trkpt lat="46.17359" lon="4.57418">
        <ele>515.6</ele>
        <time>2020-10-17T09:37:38Z</time>
      </trkpt>
      <trkpt lat="46.1736" lon="4.57419">
        <ele>515.8</ele>
        <time>2020-10-17T09:37:39Z</time>
      </trkpt>
      <trkpt lat="46.17362" lon="4.57419">
        <ele>516.2</ele>
        <time>2020-10-17T09:37:40Z</time>
      </trkpt>
      <trkpt lat="46.17363" lon="4.57419">
        <ele>516.2</ele>
        <time>2020-10-17T09:37:41Z</time>
      </trkpt>
      <trkpt lat="46.17365" lon="4.5742">
        <ele>516.4</ele>
        <time>2020-10-17T09:37:42Z</time>
      </trkpt>
      <trkpt lat="46.17367" lon="4.5742">
        <ele>516.8</ele>
        <time>2020-10-17T09:37:43Z</time>
      </trkpt>
      <trkpt lat="46.17369" lon="4.57421">
        <ele>516.8</ele>
        <time>2020-10-17T09:37:44Z</time>
      </trkpt>
      <trkpt lat="46.17371" lon="4.57421">
        <ele>517.4</ele>
        <time>2020-10-17T09:37:45Z</time>
      </trkpt>
      <trkpt lat="46.17373" lon="4.57422">
        <ele>517.6</ele>
        <time>2020-10-17T09:37:46Z</time>
      </trkpt>
      <trkpt lat="46.17375" lon="4.57422">
        <ele>517.8</ele>
        <time>2020-10-17T09:37:47Z</time>
      </trkpt>
      <trkpt lat="46.17377" lon="4.57422">
        <ele>518</ele>
        <time>2020-10-17T09:37:48Z</time>
      </trkpt>
      <trkpt lat="46.17379" lon="4.57423">
        <ele>518.2</ele>
        <time>2020-10-17T09:37:49Z</time>
      </trkpt>
      <trkpt lat="46.17381" lon="4.57423">
        <ele>518.4</ele>
        <time>2020-10-17T09:37:50Z</time>
      </trkpt>
      <trkpt lat="46.17381" lon="4.57423">
        <ele>518.6</ele>
        <time>2020-10-17T09:37:51Z</time>
      </trkpt>
      <trkpt lat="46.17385" lon="4.57424">
        <ele>519</ele>
        <time>2020-10-17T09:37:52Z</time>
      </trkpt>
      <trkpt lat="46.17385" lon="4.57424">
        <ele>519</ele>
        <time>2020-10-17T09:37:53Z</time>
      </trkpt>
      <trkpt lat="46.17385" lon="4.57424">
        <ele>519.4</ele>
        <time>2020-10-17T09:37:54Z</time>
      </trkpt>
      <trkpt lat="46.17391" lon="4.57425">
        <ele>519.4</ele>
        <time>2020-10-17T09:37:55Z</time>
      </trkpt>
      <trkpt lat="46.17392" lon="4.57425">
        <ele>519.6</ele>
        <time>2020-10-17T09:37:56Z</time>
      </trkpt>
      <trkpt lat="46.17393" lon="4.57425">
        <ele>519.4</ele>
        <time>2020-10-17T09:37:57Z</time>
      </trkpt>
      <trkpt lat="46.17393" lon="4.57425">
        <ele>519.6</ele>
        <time>2020-10-17T09:37:58Z</time>
      </trkpt>
      <trkpt lat="46.17396" lon="4.57425">
        <ele>519.6</ele>
        <time>2020-10-17T09:37:59Z</time>
      </trkpt>
      <trkpt lat="46.17396" lon="4.57425">
        <ele>519.4</ele>
        <time>2020-10-17T09:38:00Z</time>
      </trkpt>
      <trkpt lat="46.17399" lon="4.57426">
        <ele>519.6</ele>
        <time>2020-10-17T09:38:01Z</time>
      </trkpt>
      <trkpt lat="46.17399" lon="4.57426">
        <ele>519.8</ele>
        <time>2020-10-17T09:38:02Z</time>
      </trkpt>
      <trkpt lat="46.17403" lon="4.57427">
        <ele>519.8</ele>
        <time>2020-10-17T09:38:03Z</time>
      </trkpt>
      <trkpt lat="46.17405" lon="4.57428">
        <ele>520</ele>
        <time>2020-10-17T09:38:04Z</time>
      </trkpt>
      <trkpt lat="46.17405" lon="4.57428">
        <ele>520</ele>
        <time>2020-10-17T09:38:05Z</time>
      </trkpt>
      <trkpt lat="46.17407" lon="4.57429">
        <ele>520</ele>
        <time>2020-10-17T09:38:06Z</time>
      </trkpt>
      <trkpt lat="46.17407" lon="4.57429">
        <ele>520.2</ele>
        <time>2020-10-17T09:38:07Z</time>
      </trkpt>
      <trkpt lat="46.1741" lon="4.5743">
        <ele>520.4</ele>
        <time>2020-10-17T09:38:08Z</time>
      </trkpt>
      <trkpt lat="46.1741" lon="4.5743">
        <ele>520.4</ele>
        <time>2020-10-17T09:38:09Z</time>
      </trkpt>
      <trkpt lat="46.17413" lon="4.5743">
        <ele>520.4</ele>
        <time>2020-10-17T09:38:10Z</time>
      </trkpt>
      <trkpt lat="46.17413" lon="4.5743">
        <ele>520.4</ele>
        <time>2020-10-17T09:38:11Z</time>
      </trkpt>
      <trkpt lat="46.17416" lon="4.57429">
        <ele>520.8</ele>
        <time>2020-10-17T09:38:12Z</time>
      </trkpt>
      <trkpt lat="46.17416" lon="4.57429">
        <ele>520.8</ele>
        <time>2020-10-17T09:38:13Z</time>
      </trkpt>
      <trkpt lat="46.17419" lon="4.57429">
        <ele>520.6</ele>
        <time>2020-10-17T09:38:14Z</time>
      </trkpt>
      <trkpt lat="46.17419" lon="4.57429">
        <ele>520.8</ele>
        <time>2020-10-17T09:38:15Z</time>
      </trkpt>
      <trkpt lat="46.17422" lon="4.57431">
        <ele>520.8</ele>
        <time>2020-10-17T09:38:16Z</time>
      </trkpt>
      <trkpt lat="46.17424" lon="4.57432">
        <ele>521.2</ele>
        <time>2020-10-17T09:38:17Z</time>
      </trkpt>
      <trkpt lat="46.17424" lon="4.57432">
        <ele>521.6</ele>
        <time>2020-10-17T09:38:18Z</time>
      </trkpt>
      <trkpt lat="46.17427" lon="4.57432">
        <ele>521.6</ele>
        <time>2020-10-17T09:38:19Z</time>
      </trkpt>
      <trkpt lat="46.17427" lon="4.57432">
        <ele>521.6</ele>
        <time>2020-10-17T09:38:20Z</time>
      </trkpt>
      <trkpt lat="46.1743" lon="4.57432">
        <ele>521.8</ele>
        <time>2020-10-17T09:38:21Z</time>
      </trkpt>
      <trkpt lat="46.17431" lon="4.57433">
        <ele>521.8</ele>
        <time>2020-10-17T09:38:22Z</time>
      </trkpt>
      <trkpt lat="46.17431" lon="4.57433">
        <ele>522.2</ele>
        <time>2020-10-17T09:38:23Z</time>
      </trkpt>
      <trkpt lat="46.17434" lon="4.57434">
        <ele>522.2</ele>
        <time>2020-10-17T09:38:24Z</time>
      </trkpt>
      <trkpt lat="46.17434" lon="4.57434">
        <ele>522.4</ele>
        <time>2020-10-17T09:38:25Z</time>
      </trkpt>
      <trkpt lat="46.17437" lon="4.57435">
        <ele>522</ele>
        <time>2020-10-17T09:38:26Z</time>
      </trkpt>
      <trkpt lat="46.17437" lon="4.57435">
        <ele>522.2</ele>
        <time>2020-10-17T09:38:27Z</time>
      </trkpt>
      <trkpt lat="46.1744" lon="4.57436">
        <ele>522</ele>
        <time>2020-10-17T09:38:28Z</time>
      </trkpt>
      <trkpt lat="46.1744" lon="4.57436">
        <ele>522</ele>
        <time>2020-10-17T09:38:29Z</time>
      </trkpt>
      <trkpt lat="46.17443" lon="4.57438">
        <ele>522</ele>
        <time>2020-10-17T09:38:30Z</time>
      </trkpt>
      <trkpt lat="46.17443" lon="4.57438">
        <ele>522.8</ele>
        <time>2020-10-17T09:38:31Z</time>
      </trkpt>
      <trkpt lat="46.17446" lon="4.57439">
        <ele>522.8</ele>
        <time>2020-10-17T09:38:32Z</time>
      </trkpt>
      <trkpt lat="46.17448" lon="4.57441">
        <ele>523</ele>
        <time>2020-10-17T09:38:33Z</time>
      </trkpt>
      <trkpt lat="46.17448" lon="4.57441">
        <ele>523</ele>
        <time>2020-10-17T09:38:34Z</time>
      </trkpt>
      <trkpt lat="46.17451" lon="4.57441">
        <ele>523.4</ele>
        <time>2020-10-17T09:38:35Z</time>
      </trkpt>
      <trkpt lat="46.17451" lon="4.57441">
        <ele>523.4</ele>
        <time>2020-10-17T09:38:36Z</time>
      </trkpt>
      <trkpt lat="46.17453" lon="4.57441">
        <ele>523.4</ele>
        <time>2020-10-17T09:38:37Z</time>
      </trkpt>
      <trkpt lat="46.17453" lon="4.57441">
        <ele>523.6</ele>
        <time>2020-10-17T09:38:38Z</time>
      </trkpt>
      <trkpt lat="46.17455" lon="4.57441">
        <ele>523.6</ele>
        <time>2020-10-17T09:38:39Z</time>
      </trkpt>
      <trkpt lat="46.17455" lon="4.57441">
        <ele>523.4</ele>
        <time>2020-10-17T09:38:40Z</time>
      </trkpt>
      <trkpt lat="46.17458" lon="4.57441">
        <ele>523.4</ele>
        <time>2020-10-17T09:38:41Z</time>
      </trkpt>
      <trkpt lat="46.1746" lon="4.57441">
        <ele>523.6</ele>
        <time>2020-10-17T09:38:42Z</time>
      </trkpt>
      <trkpt lat="46.1746" lon="4.57441">
        <ele>524</ele>
        <time>2020-10-17T09:38:43Z</time>
      </trkpt>
      <trkpt lat="46.17463" lon="4.5744">
        <ele>524</ele>
        <time>2020-10-17T09:38:44Z</time>
      </trkpt>
      <trkpt lat="46.17463" lon="4.5744">
        <ele>524.2</ele>
        <time>2020-10-17T09:38:45Z</time>
      </trkpt>
      <trkpt lat="46.17466" lon="4.5744">
        <ele>524.6</ele>
        <time>2020-10-17T09:38:46Z</time>
      </trkpt>
      <trkpt lat="46.17466" lon="4.5744">
        <ele>524.4</ele>
        <time>2020-10-17T09:38:47Z</time>
      </trkpt>
      <trkpt lat="46.17469" lon="4.57439">
        <ele>524.4</ele>
        <time>2020-10-17T09:38:48Z</time>
      </trkpt>
      <trkpt lat="46.17469" lon="4.57439">
        <ele>524.6</ele>
        <time>2020-10-17T09:38:49Z</time>
      </trkpt>
      <trkpt lat="46.17472" lon="4.57439">
        <ele>524.8</ele>
        <time>2020-10-17T09:38:50Z</time>
      </trkpt>
      <trkpt lat="46.17472" lon="4.57439">
        <ele>524.6</ele>
        <time>2020-10-17T09:38:51Z</time>
      </trkpt>
      <trkpt lat="46.17476" lon="4.5744">
        <ele>524.8</ele>
        <time>2020-10-17T09:38:52Z</time>
      </trkpt>
      <trkpt lat="46.17478" lon="4.57439">
        <ele>525</ele>
        <time>2020-10-17T09:38:53Z</time>
      </trkpt>
      <trkpt lat="46.1748" lon="4.57439">
        <ele>525.4</ele>
        <time>2020-10-17T09:38:54Z</time>
      </trkpt>
      <trkpt lat="46.1748" lon="4.57439">
        <ele>525.4</ele>
        <time>2020-10-17T09:38:55Z</time>
      </trkpt>
      <trkpt lat="46.17484" lon="4.57439">
        <ele>525.4</ele>
        <time>2020-10-17T09:38:56Z</time>
      </trkpt>
      <trkpt lat="46.17487" lon="4.5744">
        <ele>525.6</ele>
        <time>2020-10-17T09:38:57Z</time>
      </trkpt>
      <trkpt lat="46.17488" lon="4.5744">
        <ele>525.8</ele>
        <time>2020-10-17T09:38:58Z</time>
      </trkpt>
      <trkpt lat="46.17488" lon="4.5744">
        <ele>526</ele>
        <time>2020-10-17T09:38:59Z</time>
      </trkpt>
      <trkpt lat="46.17491" lon="4.57441">
        <ele>526</ele>
        <time>2020-10-17T09:39:00Z</time>
      </trkpt>
      <trkpt lat="46.17493" lon="4.57441">
        <ele>526.4</ele>
        <time>2020-10-17T09:39:01Z</time>
      </trkpt>
      <trkpt lat="46.17493" lon="4.57441">
        <ele>526.4</ele>
        <time>2020-10-17T09:39:02Z</time>
      </trkpt>
      <trkpt lat="46.17496" lon="4.57442">
        <ele>526.6</ele>
        <time>2020-10-17T09:39:03Z</time>
      </trkpt>
      <trkpt lat="46.17496" lon="4.57442">
        <ele>526.6</ele>
        <time>2020-10-17T09:39:04Z</time>
      </trkpt>
      <trkpt lat="46.17499" lon="4.57442">
        <ele>526.8</ele>
        <time>2020-10-17T09:39:05Z</time>
      </trkpt>
      <trkpt lat="46.17499" lon="4.57442">
        <ele>527.2</ele>
        <time>2020-10-17T09:39:06Z</time>
      </trkpt>
      <trkpt lat="46.17501" lon="4.57443">
        <ele>527.2</ele>
        <time>2020-10-17T09:39:07Z</time>
      </trkpt>
      <trkpt lat="46.17501" lon="4.57443">
        <ele>527.6</ele>
        <time>2020-10-17T09:39:08Z</time>
      </trkpt>
      <trkpt lat="46.17503" lon="4.57444">
        <ele>527.6</ele>
        <time>2020-10-17T09:39:09Z</time>
      </trkpt>
      <trkpt lat="46.17503" lon="4.57444">
        <ele>528</ele>
        <time>2020-10-17T09:39:10Z</time>
      </trkpt>
      <trkpt lat="46.17506" lon="4.57445">
        <ele>528.2</ele>
        <time>2020-10-17T09:39:11Z</time>
      </trkpt>
      <trkpt lat="46.17506" lon="4.57445">
        <ele>527.8</ele>
        <time>2020-10-17T09:39:12Z</time>
      </trkpt>
      <trkpt lat="46.17509" lon="4.57445">
        <ele>528</ele>
        <time>2020-10-17T09:39:13Z</time>
      </trkpt>
      <trkpt lat="46.17509" lon="4.57445">
        <ele>528.4</ele>
        <time>2020-10-17T09:39:14Z</time>
      </trkpt>
      <trkpt lat="46.17511" lon="4.57446">
        <ele>528.6</ele>
        <time>2020-10-17T09:39:15Z</time>
      </trkpt>
      <trkpt lat="46.17511" lon="4.57446">
        <ele>528.8</ele>
        <time>2020-10-17T09:39:16Z</time>
      </trkpt>
      <trkpt lat="46.17514" lon="4.57447">
        <ele>529.2</ele>
        <time>2020-10-17T09:39:17Z</time>
      </trkpt>
      <trkpt lat="46.17514" lon="4.57447">
        <ele>529.2</ele>
        <time>2020-10-17T09:39:18Z</time>
      </trkpt>
      <trkpt lat="46.17517" lon="4.57447">
        <ele>529.2</ele>
        <time>2020-10-17T09:39:19Z</time>
      </trkpt>
      <trkpt lat="46.17517" lon="4.57447">
        <ele>529.8</ele>
        <time>2020-10-17T09:39:20Z</time>
      </trkpt>
      <trkpt lat="46.1752" lon="4.57448">
        <ele>530.2</ele>
        <time>2020-10-17T09:39:21Z</time>
      </trkpt>
      <trkpt lat="46.17522" lon="4.57448">
        <ele>530.4</ele>
        <time>2020-10-17T09:39:22Z</time>
      </trkpt>
      <trkpt lat="46.17522" lon="4.57448">
        <ele>530.8</ele>
        <time>2020-10-17T09:39:23Z</time>
      </trkpt>
      <trkpt lat="46.17525" lon="4.5745">
        <ele>531</ele>
        <time>2020-10-17T09:39:24Z</time>
      </trkpt>
      <trkpt lat="46.17525" lon="4.5745">
        <ele>531.2</ele>
        <time>2020-10-17T09:39:25Z</time>
      </trkpt>
      <trkpt lat="46.17527" lon="4.5745">
        <ele>531.2</ele>
        <time>2020-10-17T09:39:26Z</time>
      </trkpt>
      <trkpt lat="46.17527" lon="4.5745">
        <ele>531.8</ele>
        <time>2020-10-17T09:39:27Z</time>
      </trkpt>
      <trkpt lat="46.1753" lon="4.57451">
        <ele>531.6</ele>
        <time>2020-10-17T09:39:28Z</time>
      </trkpt>
      <trkpt lat="46.1753" lon="4.57451">
        <ele>532.4</ele>
        <time>2020-10-17T09:39:29Z</time>
      </trkpt>
      <trkpt lat="46.17533" lon="4.57453">
        <ele>532.8</ele>
        <time>2020-10-17T09:39:30Z</time>
      </trkpt>
      <trkpt lat="46.17533" lon="4.57453">
        <ele>532.8</ele>
        <time>2020-10-17T09:39:31Z</time>
      </trkpt>
      <trkpt lat="46.17535" lon="4.57454">
        <ele>533.4</ele>
        <time>2020-10-17T09:39:32Z</time>
      </trkpt>
      <trkpt lat="46.17535" lon="4.57454">
        <ele>533.4</ele>
        <time>2020-10-17T09:39:33Z</time>
      </trkpt>
      <trkpt lat="46.17537" lon="4.57454">
        <ele>533.6</ele>
        <time>2020-10-17T09:39:34Z</time>
      </trkpt>
      <trkpt lat="46.17537" lon="4.57454">
        <ele>533.8</ele>
        <time>2020-10-17T09:39:35Z</time>
      </trkpt>
      <trkpt lat="46.1754" lon="4.57455">
        <ele>534</ele>
        <time>2020-10-17T09:39:36Z</time>
      </trkpt>
      <trkpt lat="46.1754" lon="4.57455">
        <ele>534.4</ele>
        <time>2020-10-17T09:39:37Z</time>
      </trkpt>
      <trkpt lat="46.17542" lon="4.57455">
        <ele>534.4</ele>
        <time>2020-10-17T09:39:38Z</time>
      </trkpt>
      <trkpt lat="46.17542" lon="4.57455">
        <ele>534.8</ele>
        <time>2020-10-17T09:39:39Z</time>
      </trkpt>
      <trkpt lat="46.17544" lon="4.57453">
        <ele>534.8</ele>
        <time>2020-10-17T09:39:40Z</time>
      </trkpt>
      <trkpt lat="46.17544" lon="4.57453">
        <ele>535.4</ele>
        <time>2020-10-17T09:39:41Z</time>
      </trkpt>
      <trkpt lat="46.17547" lon="4.57452">
        <ele>535.8</ele>
        <time>2020-10-17T09:39:42Z</time>
      </trkpt>
      <trkpt lat="46.17547" lon="4.57452">
        <ele>536</ele>
        <time>2020-10-17T09:39:43Z</time>
      </trkpt>
      <trkpt lat="46.17549" lon="4.57451">
        <ele>536</ele>
        <time>2020-10-17T09:39:44Z</time>
      </trkpt>
      <trkpt lat="46.17549" lon="4.57451">
        <ele>536</ele>
        <time>2020-10-17T09:39:45Z</time>
      </trkpt>
      <trkpt lat="46.17552" lon="4.57451">
        <ele>536.4</ele>
        <time>2020-10-17T09:39:46Z</time>
      </trkpt>
      <trkpt lat="46.17552" lon="4.57451">
        <ele>536.6</ele>
        <time>2020-10-17T09:39:47Z</time>
      </trkpt>
      <trkpt lat="46.17554" lon="4.57452">
        <ele>537</ele>
        <time>2020-10-17T09:39:48Z</time>
      </trkpt>
      <trkpt lat="46.17554" lon="4.57452">
        <ele>537.2</ele>
        <time>2020-10-17T09:39:49Z</time>
      </trkpt>
      <trkpt lat="46.17557" lon="4.57453">
        <ele>537.8</ele>
        <time>2020-10-17T09:39:50Z</time>
      </trkpt>
      <trkpt lat="46.17557" lon="4.57453">
        <ele>537.6</ele>
        <time>2020-10-17T09:39:51Z</time>
      </trkpt>
      <trkpt lat="46.17559" lon="4.57454">
        <ele>538</ele>
        <time>2020-10-17T09:39:52Z</time>
      </trkpt>
      <trkpt lat="46.17559" lon="4.57454">
        <ele>538.4</ele>
        <time>2020-10-17T09:39:53Z</time>
      </trkpt>
      <trkpt lat="46.17563" lon="4.57454">
        <ele>538.4</ele>
        <time>2020-10-17T09:39:54Z</time>
      </trkpt>
      <trkpt lat="46.17563" lon="4.57454">
        <ele>538.8</ele>
        <time>2020-10-17T09:39:55Z</time>
      </trkpt>
      <trkpt lat="46.17566" lon="4.57454">
        <ele>539</ele>
        <time>2020-10-17T09:39:56Z</time>
      </trkpt>
      <trkpt lat="46.17568" lon="4.57454">
        <ele>539.2</ele>
        <time>2020-10-17T09:39:57Z</time>
      </trkpt>
      <trkpt lat="46.17568" lon="4.57454">
        <ele>539.6</ele>
        <time>2020-10-17T09:39:58Z</time>
      </trkpt>
      <trkpt lat="46.17571" lon="4.57453">
        <ele>539.6</ele>
        <time>2020-10-17T09:39:59Z</time>
      </trkpt>
      <trkpt lat="46.17573" lon="4.57453">
        <ele>540.2</ele>
        <time>2020-10-17T09:40:01Z</time>
      </trkpt>
      <trkpt lat="46.17573" lon="4.57453">
        <ele>540.4</ele>
        <time>2020-10-17T09:40:02Z</time>
      </trkpt>
      <trkpt lat="46.17575" lon="4.57453">
        <ele>540.8</ele>
        <time>2020-10-17T09:40:03Z</time>
      </trkpt>
      <trkpt lat="46.17575" lon="4.57453">
        <ele>540.6</ele>
        <time>2020-10-17T09:40:04Z</time>
      </trkpt>
      <trkpt lat="46.17577" lon="4.57451">
        <ele>541.4</ele>
        <time>2020-10-17T09:40:05Z</time>
      </trkpt>
      <trkpt lat="46.17577" lon="4.57451">
        <ele>541.4</ele>
        <time>2020-10-17T09:40:06Z</time>
      </trkpt>
      <trkpt lat="46.1758" lon="4.5745">
        <ele>541.8</ele>
        <time>2020-10-17T09:40:07Z</time>
      </trkpt>
      <trkpt lat="46.1758" lon="4.5745">
        <ele>542</ele>
        <time>2020-10-17T09:40:08Z</time>
      </trkpt>
      <trkpt lat="46.17582" lon="4.57449">
        <ele>542.2</ele>
        <time>2020-10-17T09:40:09Z</time>
      </trkpt>
      <trkpt lat="46.17582" lon="4.57449">
        <ele>542.4</ele>
        <time>2020-10-17T09:40:10Z</time>
      </trkpt>
      <trkpt lat="46.17584" lon="4.57448">
        <ele>542.8</ele>
        <time>2020-10-17T09:40:11Z</time>
      </trkpt>
      <trkpt lat="46.17584" lon="4.57448">
        <ele>542.8</ele>
        <time>2020-10-17T09:40:12Z</time>
      </trkpt>
      <trkpt lat="46.17587" lon="4.57448">
        <ele>543.2</ele>
        <time>2020-10-17T09:40:13Z</time>
      </trkpt>
      <trkpt lat="46.17587" lon="4.57448">
        <ele>543.6</ele>
        <time>2020-10-17T09:40:14Z</time>
      </trkpt>
      <trkpt lat="46.1759" lon="4.57448">
        <ele>543.6</ele>
        <time>2020-10-17T09:40:15Z</time>
      </trkpt>
      <trkpt lat="46.1759" lon="4.57448">
        <ele>544</ele>
        <time>2020-10-17T09:40:16Z</time>
      </trkpt>
      <trkpt lat="46.17593" lon="4.57448">
        <ele>544.2</ele>
        <time>2020-10-17T09:40:17Z</time>
      </trkpt>
      <trkpt lat="46.17593" lon="4.57448">
        <ele>544.4</ele>
        <time>2020-10-17T09:40:18Z</time>
      </trkpt>
      <trkpt lat="46.17596" lon="4.57449">
        <ele>544.8</ele>
        <time>2020-10-17T09:40:19Z</time>
      </trkpt>
      <trkpt lat="46.17596" lon="4.57449">
        <ele>545</ele>
        <time>2020-10-17T09:40:20Z</time>
      </trkpt>
      <trkpt lat="46.17598" lon="4.57448">
        <ele>545.6</ele>
        <time>2020-10-17T09:40:21Z</time>
      </trkpt>
      <trkpt lat="46.17598" lon="4.57448">
        <ele>545.8</ele>
        <time>2020-10-17T09:40:22Z</time>
      </trkpt>
      <trkpt lat="46.176" lon="4.57448">
        <ele>545.8</ele>
        <time>2020-10-17T09:40:23Z</time>
      </trkpt>
      <trkpt lat="46.176" lon="4.57448">
        <ele>546</ele>
        <time>2020-10-17T09:40:24Z</time>
      </trkpt>
      <trkpt lat="46.17602" lon="4.57449">
        <ele>546.2</ele>
        <time>2020-10-17T09:40:25Z</time>
      </trkpt>
      <trkpt lat="46.17602" lon="4.57449">
        <ele>546.4</ele>
        <time>2020-10-17T09:40:26Z</time>
      </trkpt>
      <trkpt lat="46.17604" lon="4.57451">
        <ele>546.8</ele>
        <time>2020-10-17T09:40:27Z</time>
      </trkpt>
      <trkpt lat="46.17604" lon="4.57451">
        <ele>546.8</ele>
        <time>2020-10-17T09:40:28Z</time>
      </trkpt>
      <trkpt lat="46.17607" lon="4.57451">
        <ele>546.8</ele>
        <time>2020-10-17T09:40:29Z</time>
      </trkpt>
      <trkpt lat="46.17607" lon="4.57451">
        <ele>547.2</ele>
        <time>2020-10-17T09:40:30Z</time>
      </trkpt>
      <trkpt lat="46.17609" lon="4.5745">
        <ele>547.2</ele>
        <time>2020-10-17T09:40:31Z</time>
      </trkpt>
      <trkpt lat="46.17609" lon="4.5745">
        <ele>547.8</ele>
        <time>2020-10-17T09:40:32Z</time>
      </trkpt>
      <trkpt lat="46.17611" lon="4.57449">
        <ele>548.2</ele>
        <time>2020-10-17T09:40:33Z</time>
      </trkpt>
      <trkpt lat="46.17611" lon="4.57449">
        <ele>548.4</ele>
        <time>2020-10-17T09:40:34Z</time>
      </trkpt>
      <trkpt lat="46.17614" lon="4.5745">
        <ele>549</ele>
        <time>2020-10-17T09:40:35Z</time>
      </trkpt>
      <trkpt lat="46.17614" lon="4.5745">
        <ele>549.2</ele>
        <time>2020-10-17T09:40:36Z</time>
      </trkpt>
      <trkpt lat="46.17616" lon="4.57449">
        <ele>549.2</ele>
        <time>2020-10-17T09:40:37Z</time>
      </trkpt>
      <trkpt lat="46.17616" lon="4.57449">
        <ele>549.6</ele>
        <time>2020-10-17T09:40:38Z</time>
      </trkpt>
      <trkpt lat="46.17618" lon="4.57448">
        <ele>549.8</ele>
        <time>2020-10-17T09:40:39Z</time>
      </trkpt>
      <trkpt lat="46.17618" lon="4.57448">
        <ele>550.2</ele>
        <time>2020-10-17T09:40:40Z</time>
      </trkpt>
      <trkpt lat="46.17621" lon="4.5745">
        <ele>550.2</ele>
        <time>2020-10-17T09:40:41Z</time>
      </trkpt>
      <trkpt lat="46.17621" lon="4.5745">
        <ele>550.4</ele>
        <time>2020-10-17T09:40:42Z</time>
      </trkpt>
      <trkpt lat="46.17624" lon="4.57451">
        <ele>551</ele>
        <time>2020-10-17T09:40:43Z</time>
      </trkpt>
      <trkpt lat="46.17624" lon="4.57451">
        <ele>551</ele>
        <time>2020-10-17T09:40:44Z</time>
      </trkpt>
      <trkpt lat="46.17627" lon="4.5745">
        <ele>551.4</ele>
        <time>2020-10-17T09:40:45Z</time>
      </trkpt>
      <trkpt lat="46.17627" lon="4.5745">
        <ele>551.4</ele>
        <time>2020-10-17T09:40:46Z</time>
      </trkpt>
      <trkpt lat="46.1763" lon="4.57451">
        <ele>551.8</ele>
        <time>2020-10-17T09:40:47Z</time>
      </trkpt>
      <trkpt lat="46.1763" lon="4.57451">
        <ele>552</ele>
        <time>2020-10-17T09:40:48Z</time>
      </trkpt>
      <trkpt lat="46.17632" lon="4.57451">
        <ele>552</ele>
        <time>2020-10-17T09:40:49Z</time>
      </trkpt>
      <trkpt lat="46.17632" lon="4.57451">
        <ele>552.4</ele>
        <time>2020-10-17T09:40:50Z</time>
      </trkpt>
      <trkpt lat="46.17634" lon="4.57452">
        <ele>552.8</ele>
        <time>2020-10-17T09:40:51Z</time>
      </trkpt>
      <trkpt lat="46.17634" lon="4.57452">
        <ele>553.2</ele>
        <time>2020-10-17T09:40:52Z</time>
      </trkpt>
      <trkpt lat="46.17636" lon="4.57453">
        <ele>553.4</ele>
        <time>2020-10-17T09:40:53Z</time>
      </trkpt>
      <trkpt lat="46.17636" lon="4.57453">
        <ele>554</ele>
        <time>2020-10-17T09:40:54Z</time>
      </trkpt>
      <trkpt lat="46.17638" lon="4.57454">
        <ele>554.4</ele>
        <time>2020-10-17T09:40:55Z</time>
      </trkpt>
      <trkpt lat="46.17638" lon="4.57454">
        <ele>554.4</ele>
        <time>2020-10-17T09:40:56Z</time>
      </trkpt>
      <trkpt lat="46.17638" lon="4.57454">
        <ele>554.6</ele>
        <time>2020-10-17T09:40:57Z</time>
      </trkpt>
      <trkpt lat="46.17641" lon="4.57454">
        <ele>555</ele>
        <time>2020-10-17T09:40:58Z</time>
      </trkpt>
      <trkpt lat="46.17641" lon="4.57454">
        <ele>555.2</ele>
        <time>2020-10-17T09:40:59Z</time>
      </trkpt>
      <trkpt lat="46.17643" lon="4.57455">
        <ele>555.2</ele>
        <time>2020-10-17T09:41:00Z</time>
      </trkpt>
      <trkpt lat="46.17643" lon="4.57455">
        <ele>556</ele>
        <time>2020-10-17T09:41:01Z</time>
      </trkpt>
      <trkpt lat="46.17646" lon="4.57456">
        <ele>556.6</ele>
        <time>2020-10-17T09:41:02Z</time>
      </trkpt>
      <trkpt lat="46.17646" lon="4.57456">
        <ele>556.8</ele>
        <time>2020-10-17T09:41:03Z</time>
      </trkpt>
      <trkpt lat="46.17648" lon="4.57456">
        <ele>557.2</ele>
        <time>2020-10-17T09:41:04Z</time>
      </trkpt>
      <trkpt lat="46.17648" lon="4.57456">
        <ele>557.2</ele>
        <time>2020-10-17T09:41:05Z</time>
      </trkpt>
      <trkpt lat="46.1765" lon="4.57457">
        <ele>557.4</ele>
        <time>2020-10-17T09:41:06Z</time>
      </trkpt>
      <trkpt lat="46.1765" lon="4.57457">
        <ele>557.6</ele>
        <time>2020-10-17T09:41:07Z</time>
      </trkpt>
      <trkpt lat="46.1765" lon="4.57457">
        <ele>557.8</ele>
        <time>2020-10-17T09:41:08Z</time>
      </trkpt>
      <trkpt lat="46.17653" lon="4.57458">
        <ele>558.2</ele>
        <time>2020-10-17T09:41:09Z</time>
      </trkpt>
      <trkpt lat="46.17653" lon="4.57458">
        <ele>558.4</ele>
        <time>2020-10-17T09:41:10Z</time>
      </trkpt>
      <trkpt lat="46.17655" lon="4.5746">
        <ele>559</ele>
        <time>2020-10-17T09:41:11Z</time>
      </trkpt>
      <trkpt lat="46.17655" lon="4.5746">
        <ele>559.2</ele>
        <time>2020-10-17T09:41:12Z</time>
      </trkpt>
      <trkpt lat="46.17657" lon="4.5746">
        <ele>559.2</ele>
        <time>2020-10-17T09:41:13Z</time>
      </trkpt>
      <trkpt lat="46.17657" lon="4.5746">
        <ele>559.4</ele>
        <time>2020-10-17T09:41:14Z</time>
      </trkpt>
      <trkpt lat="46.17657" lon="4.5746">
        <ele>559.6</ele>
        <time>2020-10-17T09:41:15Z</time>
      </trkpt>
      <trkpt lat="46.1766" lon="4.57461">
        <ele>560.2</ele>
        <time>2020-10-17T09:41:16Z</time>
      </trkpt>
      <trkpt lat="46.1766" lon="4.57461">
        <ele>560.4</ele>
        <time>2020-10-17T09:41:17Z</time>
      </trkpt>
      <trkpt lat="46.17662" lon="4.57462">
        <ele>561</ele>
        <time>2020-10-17T09:41:18Z</time>
      </trkpt>
      <trkpt lat="46.17662" lon="4.57462">
        <ele>561.2</ele>
        <time>2020-10-17T09:41:19Z</time>
      </trkpt>
      <trkpt lat="46.17664" lon="4.57462">
        <ele>561.4</ele>
        <time>2020-10-17T09:41:20Z</time>
      </trkpt>
      <trkpt lat="46.17664" lon="4.57462">
        <ele>561.6</ele>
        <time>2020-10-17T09:41:21Z</time>
      </trkpt>
      <trkpt lat="46.17666" lon="4.5746">
        <ele>561.8</ele>
        <time>2020-10-17T09:41:22Z</time>
      </trkpt>
      <trkpt lat="46.17666" lon="4.5746">
        <ele>562.4</ele>
        <time>2020-10-17T09:41:23Z</time>
      </trkpt>
      <trkpt lat="46.17669" lon="4.57457">
        <ele>562.6</ele>
        <time>2020-10-17T09:41:24Z</time>
      </trkpt>
      <trkpt lat="46.17669" lon="4.57457">
        <ele>562.8</ele>
        <time>2020-10-17T09:41:25Z</time>
      </trkpt>
      <trkpt lat="46.17671" lon="4.57456">
        <ele>562.8</ele>
        <time>2020-10-17T09:41:26Z</time>
      </trkpt>
      <trkpt lat="46.17671" lon="4.57456">
        <ele>563.2</ele>
        <time>2020-10-17T09:41:27Z</time>
      </trkpt>
      <trkpt lat="46.17671" lon="4.57456">
        <ele>563.6</ele>
        <time>2020-10-17T09:41:28Z</time>
      </trkpt>
      <trkpt lat="46.17671" lon="4.57456">
        <ele>563.6</ele>
        <time>2020-10-17T09:41:29Z</time>
      </trkpt>
      <trkpt lat="46.17671" lon="4.57456">
        <ele>563.8</ele>
        <time>2020-10-17T09:41:30Z</time>
      </trkpt>
      <trkpt lat="46.17671" lon="4.57456">
        <ele>564.2</ele>
        <time>2020-10-17T09:41:31Z</time>
      </trkpt>
      <trkpt lat="46.17671" lon="4.57456">
        <ele>564.4</ele>
        <time>2020-10-17T09:41:32Z</time>
      </trkpt>
      <trkpt lat="46.17671" lon="4.57456">
        <ele>564.6</ele>
        <time>2020-10-17T09:41:33Z</time>
      </trkpt>
      <trkpt lat="46.17671" lon="4.57456">
        <ele>564.6</ele>
        <time>2020-10-17T09:41:34Z</time>
      </trkpt>
      <trkpt lat="46.17672" lon="4.57454">
        <ele>564.8</ele>
        <time>2020-10-17T09:41:35Z</time>
      </trkpt>
      <trkpt lat="46.17672" lon="4.57454">
        <ele>564.8</ele>
        <time>2020-10-17T09:41:36Z</time>
      </trkpt>
      <trkpt lat="46.17672" lon="4.57454">
        <ele>565</ele>
        <time>2020-10-17T09:41:37Z</time>
      </trkpt>
      <trkpt lat="46.17672" lon="4.57454">
        <ele>565</ele>
        <time>2020-10-17T09:41:38Z</time>
      </trkpt>
      <trkpt lat="46.17672" lon="4.57454">
        <ele>565.2</ele>
        <time>2020-10-17T09:41:39Z</time>
      </trkpt>
      <trkpt lat="46.17672" lon="4.57454">
        <ele>565.2</ele>
        <time>2020-10-17T09:41:40Z</time>
      </trkpt>
      <trkpt lat="46.17672" lon="4.57454">
        <ele>565.2</ele>
        <time>2020-10-17T09:41:41Z</time>
      </trkpt>
      <trkpt lat="46.17672" lon="4.57454">
        <ele>565</ele>
        <time>2020-10-17T09:41:42Z</time>
      </trkpt>
      <trkpt lat="46.17674" lon="4.57454">
        <ele>565</ele>
        <time>2020-10-17T09:41:43Z</time>
      </trkpt>
      <trkpt lat="46.17674" lon="4.57454">
        <ele>564.8</ele>
        <time>2020-10-17T09:41:44Z</time>
      </trkpt>
      <trkpt lat="46.17675" lon="4.57451">
        <ele>564.8</ele>
        <time>2020-10-17T09:41:45Z</time>
      </trkpt>
      <trkpt lat="46.17675" lon="4.57451">
        <ele>564.6</ele>
        <time>2020-10-17T09:41:46Z</time>
      </trkpt>
      <trkpt lat="46.17677" lon="4.57447">
        <ele>564.6</ele>
        <time>2020-10-17T09:41:47Z</time>
      </trkpt>
      <trkpt lat="46.17677" lon="4.57447">
        <ele>564.6</ele>
        <time>2020-10-17T09:41:48Z</time>
      </trkpt>
      <trkpt lat="46.17679" lon="4.57445">
        <ele>564.4</ele>
        <time>2020-10-17T09:41:49Z</time>
      </trkpt>
      <trkpt lat="46.17679" lon="4.57445">
        <ele>564.4</ele>
        <time>2020-10-17T09:41:50Z</time>
      </trkpt>
      <trkpt lat="46.1768" lon="4.57441">
        <ele>564.6</ele>
        <time>2020-10-17T09:41:51Z</time>
      </trkpt>
      <trkpt lat="46.1768" lon="4.57441">
        <ele>564.4</ele>
        <time>2020-10-17T09:41:52Z</time>
      </trkpt>
      <trkpt lat="46.17681" lon="4.57437">
        <ele>564.4</ele>
        <time>2020-10-17T09:41:53Z</time>
      </trkpt>
      <trkpt lat="46.17681" lon="4.57437">
        <ele>564.8</ele>
        <time>2020-10-17T09:41:54Z</time>
      </trkpt>
      <trkpt lat="46.17683" lon="4.57434">
        <ele>565</ele>
        <time>2020-10-17T09:41:55Z</time>
      </trkpt>
      <trkpt lat="46.17683" lon="4.57434">
        <ele>565.2</ele>
        <time>2020-10-17T09:41:56Z</time>
      </trkpt>
      <trkpt lat="46.17684" lon="4.57431">
        <ele>565.6</ele>
        <time>2020-10-17T09:41:57Z</time>
      </trkpt>
      <trkpt lat="46.17684" lon="4.57431">
        <ele>565.8</ele>
        <time>2020-10-17T09:41:58Z</time>
      </trkpt>
      <trkpt lat="46.17685" lon="4.57428">
        <ele>565.6</ele>
        <time>2020-10-17T09:41:59Z</time>
      </trkpt>
      <trkpt lat="46.17685" lon="4.57428">
        <ele>565.4</ele>
        <time>2020-10-17T09:42:00Z</time>
      </trkpt>
      <trkpt lat="46.17685" lon="4.57424">
        <ele>565.4</ele>
        <time>2020-10-17T09:42:01Z</time>
      </trkpt>
      <trkpt lat="46.17685" lon="4.57424">
        <ele>565.4</ele>
        <time>2020-10-17T09:42:02Z</time>
      </trkpt>
      <trkpt lat="46.17686" lon="4.57421">
        <ele>565.4</ele>
        <time>2020-10-17T09:42:03Z</time>
      </trkpt>
      <trkpt lat="46.17687" lon="4.57419">
        <ele>565.6</ele>
        <time>2020-10-17T09:42:04Z</time>
      </trkpt>
      <trkpt lat="46.17687" lon="4.57419">
        <ele>565.6</ele>
        <time>2020-10-17T09:42:05Z</time>
      </trkpt>
      <trkpt lat="46.17689" lon="4.57416">
        <ele>565.6</ele>
        <time>2020-10-17T09:42:06Z</time>
      </trkpt>
      <trkpt lat="46.17689" lon="4.57416">
        <ele>566</ele>
        <time>2020-10-17T09:42:07Z</time>
      </trkpt>
      <trkpt lat="46.17692" lon="4.57413">
        <ele>566</ele>
        <time>2020-10-17T09:42:08Z</time>
      </trkpt>
      <trkpt lat="46.17692" lon="4.57413">
        <ele>566.4</ele>
        <time>2020-10-17T09:42:09Z</time>
      </trkpt>
      <trkpt lat="46.17693" lon="4.57411">
        <ele>566.6</ele>
        <time>2020-10-17T09:42:10Z</time>
      </trkpt>
      <trkpt lat="46.17693" lon="4.57411">
        <ele>566.6</ele>
        <time>2020-10-17T09:42:11Z</time>
      </trkpt>
      <trkpt lat="46.17695" lon="4.57408">
        <ele>566.6</ele>
        <time>2020-10-17T09:42:12Z</time>
      </trkpt>
      <trkpt lat="46.17695" lon="4.57408">
        <ele>566.6</ele>
        <time>2020-10-17T09:42:13Z</time>
      </trkpt>
      <trkpt lat="46.17697" lon="4.57405">
        <ele>567</ele>
        <time>2020-10-17T09:42:14Z</time>
      </trkpt>
      <trkpt lat="46.17697" lon="4.57405">
        <ele>567.4</ele>
        <time>2020-10-17T09:42:15Z</time>
      </trkpt>
      <trkpt lat="46.17699" lon="4.57402">
        <ele>567.8</ele>
        <time>2020-10-17T09:42:16Z</time>
      </trkpt>
      <trkpt lat="46.17699" lon="4.57402">
        <ele>567.8</ele>
        <time>2020-10-17T09:42:17Z</time>
      </trkpt>
      <trkpt lat="46.177" lon="4.57399">
        <ele>568</ele>
        <time>2020-10-17T09:42:18Z</time>
      </trkpt>
      <trkpt lat="46.177" lon="4.57399">
        <ele>568.2</ele>
        <time>2020-10-17T09:42:19Z</time>
      </trkpt>
      <trkpt lat="46.17702" lon="4.57395">
        <ele>568.4</ele>
        <time>2020-10-17T09:42:20Z</time>
      </trkpt>
      <trkpt lat="46.17702" lon="4.57395">
        <ele>568.6</ele>
        <time>2020-10-17T09:42:21Z</time>
      </trkpt>
      <trkpt lat="46.17705" lon="4.57394">
        <ele>568.8</ele>
        <time>2020-10-17T09:42:22Z</time>
      </trkpt>
      <trkpt lat="46.17705" lon="4.57394">
        <ele>569</ele>
        <time>2020-10-17T09:42:23Z</time>
      </trkpt>
      <trkpt lat="46.17707" lon="4.57393">
        <ele>569.2</ele>
        <time>2020-10-17T09:42:24Z</time>
      </trkpt>
      <trkpt lat="46.17707" lon="4.57393">
        <ele>569.4</ele>
        <time>2020-10-17T09:42:25Z</time>
      </trkpt>
      <trkpt lat="46.17707" lon="4.57393">
        <ele>569.8</ele>
        <time>2020-10-17T09:42:26Z</time>
      </trkpt>
      <trkpt lat="46.17707" lon="4.57393">
        <ele>570</ele>
        <time>2020-10-17T09:42:27Z</time>
      </trkpt>
      <trkpt lat="46.17707" lon="4.57393">
        <ele>570.2</ele>
        <time>2020-10-17T09:42:28Z</time>
      </trkpt>
      <trkpt lat="46.17707" lon="4.57393">
        <ele>570.2</ele>
        <time>2020-10-17T09:42:29Z</time>
      </trkpt>
      <trkpt lat="46.17707" lon="4.57393">
        <ele>570.2</ele>
        <time>2020-10-17T09:42:30Z</time>
      </trkpt>
      <trkpt lat="46.17707" lon="4.57393">
        <ele>570.2</ele>
        <time>2020-10-17T09:42:31Z</time>
      </trkpt>
      <trkpt lat="46.17707" lon="4.57393">
        <ele>570.4</ele>
        <time>2020-10-17T09:42:32Z</time>
      </trkpt>
      <trkpt lat="46.17707" lon="4.57393">
        <ele>570.6</ele>
        <time>2020-10-17T09:42:33Z</time>
      </trkpt>
      <trkpt lat="46.17707" lon="4.57393">
        <ele>570.8</ele>
        <time>2020-10-17T09:42:34Z</time>
      </trkpt>
      <trkpt lat="46.17707" lon="4.57393">
        <ele>571</ele>
        <time>2020-10-17T09:42:35Z</time>
      </trkpt>
      <trkpt lat="46.17707" lon="4.57393">
        <ele>571</ele>
        <time>2020-10-17T09:42:36Z</time>
      </trkpt>
      <trkpt lat="46.17707" lon="4.57393">
        <ele>570.8</ele>
        <time>2020-10-17T09:42:37Z</time>
      </trkpt>
      <trkpt lat="46.17707" lon="4.57393">
        <ele>570.8</ele>
        <time>2020-10-17T09:42:38Z</time>
      </trkpt>
      <trkpt lat="46.17707" lon="4.57393">
        <ele>570.8</ele>
        <time>2020-10-17T09:42:39Z</time>
      </trkpt>
      <trkpt lat="46.17707" lon="4.57393">
        <ele>570.6</ele>
        <time>2020-10-17T09:42:40Z</time>
      </trkpt>
      <trkpt lat="46.17707" lon="4.57393">
        <ele>570.6</ele>
        <time>2020-10-17T09:42:41Z</time>
      </trkpt>
      <trkpt lat="46.17707" lon="4.57393">
        <ele>570.6</ele>
        <time>2020-10-17T09:42:42Z</time>
      </trkpt>
      <trkpt lat="46.17709" lon="4.57392">
        <ele>570.6</ele>
        <time>2020-10-17T09:42:43Z</time>
      </trkpt>
      <trkpt lat="46.17709" lon="4.57392">
        <ele>570.4</ele>
        <time>2020-10-17T09:42:44Z</time>
      </trkpt>
      <trkpt lat="46.17709" lon="4.57392">
        <ele>570.4</ele>
        <time>2020-10-17T09:42:45Z</time>
      </trkpt>
      <trkpt lat="46.17709" lon="4.57392">
        <ele>570.6</ele>
        <time>2020-10-17T09:42:46Z</time>
      </trkpt>
      <trkpt lat="46.17709" lon="4.57392">
        <ele>570.6</ele>
        <time>2020-10-17T09:42:47Z</time>
      </trkpt>
      <trkpt lat="46.17709" lon="4.57392">
        <ele>570.6</ele>
        <time>2020-10-17T09:42:48Z</time>
      </trkpt>
      <trkpt lat="46.17709" lon="4.57392">
        <ele>570.6</ele>
        <time>2020-10-17T09:42:49Z</time>
      </trkpt>
      <trkpt lat="46.17709" lon="4.57392">
        <ele>570.6</ele>
        <time>2020-10-17T09:42:50Z</time>
      </trkpt>
      <trkpt lat="46.17709" lon="4.57392">
        <ele>570.6</ele>
        <time>2020-10-17T09:42:51Z</time>
      </trkpt>
      <trkpt lat="46.17709" lon="4.57392">
        <ele>570.4</ele>
        <time>2020-10-17T09:42:52Z</time>
      </trkpt>
      <trkpt lat="46.1771" lon="4.57396">
        <ele>570.2</ele>
        <time>2020-10-17T09:42:53Z</time>
      </trkpt>
      <trkpt lat="46.1771" lon="4.57396">
        <ele>570</ele>
        <time>2020-10-17T09:42:54Z</time>
      </trkpt>
      <trkpt lat="46.1771" lon="4.57398">
        <ele>570.2</ele>
        <time>2020-10-17T09:42:55Z</time>
      </trkpt>
      <trkpt lat="46.1771" lon="4.57398">
        <ele>570.6</ele>
        <time>2020-10-17T09:42:56Z</time>
      </trkpt>
      <trkpt lat="46.1771" lon="4.57401">
        <ele>570.4</ele>
        <time>2020-10-17T09:42:57Z</time>
      </trkpt>
      <trkpt lat="46.1771" lon="4.57401">
        <ele>570.8</ele>
        <time>2020-10-17T09:42:58Z</time>
      </trkpt>
      <trkpt lat="46.17711" lon="4.57404">
        <ele>571</ele>
        <time>2020-10-17T09:42:59Z</time>
      </trkpt>
      <trkpt lat="46.17711" lon="4.57404">
        <ele>571</ele>
        <time>2020-10-17T09:43:00Z</time>
      </trkpt>
      <trkpt lat="46.17711" lon="4.57407">
        <ele>571.2</ele>
        <time>2020-10-17T09:43:01Z</time>
      </trkpt>
      <trkpt lat="46.17711" lon="4.57407">
        <ele>571.2</ele>
        <time>2020-10-17T09:43:02Z</time>
      </trkpt>
      <trkpt lat="46.17711" lon="4.57407">
        <ele>571.2</ele>
        <time>2020-10-17T09:43:03Z</time>
      </trkpt>
      <trkpt lat="46.17711" lon="4.57407">
        <ele>571.6</ele>
        <time>2020-10-17T09:43:04Z</time>
      </trkpt>
      <trkpt lat="46.17711" lon="4.57407">
        <ele>572</ele>
        <time>2020-10-17T09:43:05Z</time>
      </trkpt>
      <trkpt lat="46.17711" lon="4.57407">
        <ele>572.4</ele>
        <time>2020-10-17T09:43:06Z</time>
      </trkpt>
      <trkpt lat="46.17711" lon="4.57407">
        <ele>572.6</ele>
        <time>2020-10-17T09:43:07Z</time>
      </trkpt>
      <trkpt lat="46.17711" lon="4.57407">
        <ele>572.8</ele>
        <time>2020-10-17T09:43:08Z</time>
      </trkpt>
      <trkpt lat="46.17711" lon="4.57407">
        <ele>572.8</ele>
        <time>2020-10-17T09:43:09Z</time>
      </trkpt>
      <trkpt lat="46.17711" lon="4.57407">
        <ele>572.4</ele>
        <time>2020-10-17T09:43:10Z</time>
      </trkpt>
      <trkpt lat="46.17709" lon="4.57405">
        <ele>572.4</ele>
        <time>2020-10-17T09:43:11Z</time>
      </trkpt>
      <trkpt lat="46.17709" lon="4.57405">
        <ele>572.2</ele>
        <time>2020-10-17T09:43:12Z</time>
      </trkpt>
      <trkpt lat="46.17709" lon="4.57405">
        <ele>572</ele>
        <time>2020-10-17T09:43:13Z</time>
      </trkpt>
      <trkpt lat="46.17709" lon="4.57405">
        <ele>572</ele>
        <time>2020-10-17T09:43:14Z</time>
      </trkpt>
      <trkpt lat="46.17709" lon="4.57405">
        <ele>571.8</ele>
        <time>2020-10-17T09:43:15Z</time>
      </trkpt>
      <trkpt lat="46.17709" lon="4.57401">
        <ele>571.6</ele>
        <time>2020-10-17T09:43:16Z</time>
      </trkpt>
      <trkpt lat="46.17709" lon="4.57401">
        <ele>571.6</ele>
        <time>2020-10-17T09:43:17Z</time>
      </trkpt>
      <trkpt lat="46.17707" lon="4.57397">
        <ele>571.4</ele>
        <time>2020-10-17T09:43:18Z</time>
      </trkpt>
      <trkpt lat="46.17707" lon="4.57395">
        <ele>571.2</ele>
        <time>2020-10-17T09:43:19Z</time>
      </trkpt>
      <trkpt lat="46.17706" lon="4.57392">
        <ele>570.8</ele>
        <time>2020-10-17T09:43:20Z</time>
      </trkpt>
      <trkpt lat="46.17706" lon="4.57392">
        <ele>570.6</ele>
        <time>2020-10-17T09:43:21Z</time>
      </trkpt>
      <trkpt lat="46.17705" lon="4.57388">
        <ele>570.4</ele>
        <time>2020-10-17T09:43:22Z</time>
      </trkpt>
      <trkpt lat="46.17705" lon="4.57388">
        <ele>570.4</ele>
        <time>2020-10-17T09:43:23Z</time>
      </trkpt>
      <trkpt lat="46.17704" lon="4.57384">
        <ele>570.2</ele>
        <time>2020-10-17T09:43:24Z</time>
      </trkpt>
      <trkpt lat="46.17704" lon="4.57384">
        <ele>569.8</ele>
        <time>2020-10-17T09:43:25Z</time>
      </trkpt>
      <trkpt lat="46.17703" lon="4.57379">
        <ele>569.8</ele>
        <time>2020-10-17T09:43:26Z</time>
      </trkpt>
      <trkpt lat="46.17703" lon="4.57379">
        <ele>569.2</ele>
        <time>2020-10-17T09:43:27Z</time>
      </trkpt>
      <trkpt lat="46.17702" lon="4.57375">
        <ele>569</ele>
        <time>2020-10-17T09:43:28Z</time>
      </trkpt>
      <trkpt lat="46.17702" lon="4.57375">
        <ele>568.4</ele>
        <time>2020-10-17T09:43:29Z</time>
      </trkpt>
      <trkpt lat="46.17701" lon="4.57371">
        <ele>568.2</ele>
        <time>2020-10-17T09:43:30Z</time>
      </trkpt>
      <trkpt lat="46.17701" lon="4.57371">
        <ele>568</ele>
        <time>2020-10-17T09:43:31Z</time>
      </trkpt>
      <trkpt lat="46.17701" lon="4.57366">
        <ele>567.4</ele>
        <time>2020-10-17T09:43:32Z</time>
      </trkpt>
      <trkpt lat="46.17701" lon="4.57366">
        <ele>567.4</ele>
        <time>2020-10-17T09:43:33Z</time>
      </trkpt>
      <trkpt lat="46.177" lon="4.57362">
        <ele>567.4</ele>
        <time>2020-10-17T09:43:34Z</time>
      </trkpt>
      <trkpt lat="46.177" lon="4.57362">
        <ele>567.2</ele>
        <time>2020-10-17T09:43:35Z</time>
      </trkpt>
      <trkpt lat="46.177" lon="4.57359">
        <ele>566.8</ele>
        <time>2020-10-17T09:43:36Z</time>
      </trkpt>
      <trkpt lat="46.177" lon="4.57359">
        <ele>566.8</ele>
        <time>2020-10-17T09:43:37Z</time>
      </trkpt>
      <trkpt lat="46.177" lon="4.57359">
        <ele>566.6</ele>
        <time>2020-10-17T09:43:38Z</time>
      </trkpt>
      <trkpt lat="46.177" lon="4.57359">
        <ele>566.4</ele>
        <time>2020-10-17T09:43:39Z</time>
      </trkpt>
      <trkpt lat="46.177" lon="4.57359">
        <ele>566.2</ele>
        <time>2020-10-17T09:43:40Z</time>
      </trkpt>
      <trkpt lat="46.177" lon="4.57359">
        <ele>566.2</ele>
        <time>2020-10-17T09:43:41Z</time>
      </trkpt>
      <trkpt lat="46.17699" lon="4.57356">
        <ele>566</ele>
        <time>2020-10-17T09:43:42Z</time>
      </trkpt>
      <trkpt lat="46.17699" lon="4.57356">
        <ele>565.8</ele>
        <time>2020-10-17T09:43:43Z</time>
      </trkpt>
      <trkpt lat="46.17697" lon="4.57353">
        <ele>565.4</ele>
        <time>2020-10-17T09:43:44Z</time>
      </trkpt>
      <trkpt lat="46.17697" lon="4.57353">
        <ele>565</ele>
        <time>2020-10-17T09:43:45Z</time>
      </trkpt>
      <trkpt lat="46.17695" lon="4.57351">
        <ele>564.6</ele>
        <time>2020-10-17T09:43:46Z</time>
      </trkpt>
      <trkpt lat="46.17695" lon="4.57351">
        <ele>564.6</ele>
        <time>2020-10-17T09:43:47Z</time>
      </trkpt>
      <trkpt lat="46.17693" lon="4.57349">
        <ele>564.6</ele>
        <time>2020-10-17T09:43:48Z</time>
      </trkpt>
      <trkpt lat="46.17693" lon="4.57349">
        <ele>564.4</ele>
        <time>2020-10-17T09:43:49Z</time>
      </trkpt>
      <trkpt lat="46.17693" lon="4.57349">
        <ele>564</ele>
        <time>2020-10-17T09:43:50Z</time>
      </trkpt>
      <trkpt lat="46.17693" lon="4.57349">
        <ele>564.2</ele>
        <time>2020-10-17T09:43:51Z</time>
      </trkpt>
      <trkpt lat="46.17693" lon="4.57349">
        <ele>564</ele>
        <time>2020-10-17T09:43:52Z</time>
      </trkpt>
      <trkpt lat="46.17693" lon="4.57349">
        <ele>564</ele>
        <time>2020-10-17T09:43:53Z</time>
      </trkpt>
      <trkpt lat="46.17693" lon="4.57349">
        <ele>564</ele>
        <time>2020-10-17T09:43:54Z</time>
      </trkpt>
      <trkpt lat="46.17693" lon="4.57349">
        <ele>564.2</ele>
        <time>2020-10-17T09:43:55Z</time>
      </trkpt>
      <trkpt lat="46.17693" lon="4.57349">
        <ele>564.2</ele>
        <time>2020-10-17T09:43:56Z</time>
      </trkpt>
      <trkpt lat="46.17693" lon="4.57349">
        <ele>564</ele>
        <time>2020-10-17T09:43:57Z</time>
      </trkpt>
      <trkpt lat="46.17693" lon="4.57349">
        <ele>563.8</ele>
        <time>2020-10-17T09:43:58Z</time>
      </trkpt>
      <trkpt lat="46.17693" lon="4.57349">
        <ele>563.8</ele>
        <time>2020-10-17T09:43:59Z</time>
      </trkpt>
      <trkpt lat="46.17693" lon="4.57349">
        <ele>563.8</ele>
        <time>2020-10-17T09:44:00Z</time>
      </trkpt>
      <trkpt lat="46.17693" lon="4.57349">
        <ele>563.6</ele>
        <time>2020-10-17T09:44:01Z</time>
      </trkpt>
      <trkpt lat="46.17693" lon="4.57349">
        <ele>563.4</ele>
        <time>2020-10-17T09:44:02Z</time>
      </trkpt>
      <trkpt lat="46.17693" lon="4.57349">
        <ele>563.4</ele>
        <time>2020-10-17T09:44:03Z</time>
      </trkpt>
      <trkpt lat="46.17693" lon="4.57349">
        <ele>563.2</ele>
        <time>2020-10-17T09:44:04Z</time>
      </trkpt>
      <trkpt lat="46.17693" lon="4.57349">
        <ele>563.2</ele>
        <time>2020-10-17T09:44:05Z</time>
      </trkpt>
      <trkpt lat="46.17693" lon="4.57349">
        <ele>563.4</ele>
        <time>2020-10-17T09:44:06Z</time>
      </trkpt>
      <trkpt lat="46.17693" lon="4.57349">
        <ele>563.2</ele>
        <time>2020-10-17T09:44:07Z</time>
      </trkpt>
      <trkpt lat="46.17693" lon="4.57349">
        <ele>563.2</ele>
        <time>2020-10-17T09:44:08Z</time>
      </trkpt>
      <trkpt lat="46.17693" lon="4.57349">
        <ele>563.2</ele>
        <time>2020-10-17T09:44:09Z</time>
      </trkpt>
      <trkpt lat="46.17693" lon="4.57349">
        <ele>563.2</ele>
        <time>2020-10-17T09:44:10Z</time>
      </trkpt>
      <trkpt lat="46.17693" lon="4.57349">
        <ele>563.2</ele>
        <time>2020-10-17T09:44:11Z</time>
      </trkpt>
      <trkpt lat="46.17693" lon="4.57349">
        <ele>563.2</ele>
        <time>2020-10-17T09:44:12Z</time>
      </trkpt>
      <trkpt lat="46.17693" lon="4.57349">
        <ele>563</ele>
        <time>2020-10-17T09:44:13Z</time>
      </trkpt>
      <trkpt lat="46.17693" lon="4.57349">
        <ele>563</ele>
        <time>2020-10-17T09:44:14Z</time>
      </trkpt>
      <trkpt lat="46.17693" lon="4.57349">
        <ele>562.8</ele>
        <time>2020-10-17T09:44:15Z</time>
      </trkpt>
      <trkpt lat="46.17693" lon="4.57349">
        <ele>562.8</ele>
        <time>2020-10-17T09:44:16Z</time>
      </trkpt>
      <trkpt lat="46.17693" lon="4.57349">
        <ele>562.8</ele>
        <time>2020-10-17T09:44:17Z</time>
      </trkpt>
      <trkpt lat="46.17693" lon="4.57349">
        <ele>563.2</ele>
        <time>2020-10-17T09:44:18Z</time>
      </trkpt>
      <trkpt lat="46.17693" lon="4.57349">
        <ele>563.2</ele>
        <time>2020-10-17T09:44:19Z</time>
      </trkpt>
      <trkpt lat="46.17693" lon="4.57349">
        <ele>563.2</ele>
        <time>2020-10-17T09:44:20Z</time>
      </trkpt>
      <trkpt lat="46.17693" lon="4.57349">
        <ele>563.2</ele>
        <time>2020-10-17T09:44:21Z</time>
      </trkpt>
      <trkpt lat="46.17693" lon="4.57349">
        <ele>563.2</ele>
        <time>2020-10-17T09:44:22Z</time>
      </trkpt>
      <trkpt lat="46.17693" lon="4.57349">
        <ele>563.2</ele>
        <time>2020-10-17T09:44:23Z</time>
      </trkpt>
      <trkpt lat="46.17693" lon="4.57349">
        <ele>563.2</ele>
        <time>2020-10-17T09:44:24Z</time>
      </trkpt>
      <trkpt lat="46.17693" lon="4.57349">
        <ele>563.2</ele>
        <time>2020-10-17T09:44:25Z</time>
      </trkpt>
      <trkpt lat="46.17693" lon="4.57349">
        <ele>563.4</ele>
        <time>2020-10-17T09:44:26Z</time>
      </trkpt>
      <trkpt lat="46.17691" lon="4.57348">
        <ele>563.2</ele>
        <time>2020-10-17T09:44:27Z</time>
      </trkpt>
      <trkpt lat="46.17691" lon="4.57348">
        <ele>563.2</ele>
        <time>2020-10-17T09:44:28Z</time>
      </trkpt>
      <trkpt lat="46.17689" lon="4.57346">
        <ele>563</ele>
        <time>2020-10-17T09:44:29Z</time>
      </trkpt>
      <trkpt lat="46.17689" lon="4.57346">
        <ele>562.8</ele>
        <time>2020-10-17T09:44:30Z</time>
      </trkpt>
      <trkpt lat="46.17687" lon="4.57344">
        <ele>562.4</ele>
        <time>2020-10-17T09:44:31Z</time>
      </trkpt>
      <trkpt lat="46.17687" lon="4.57344">
        <ele>562.2</ele>
        <time>2020-10-17T09:44:32Z</time>
      </trkpt>
      <trkpt lat="46.17685" lon="4.57342">
        <ele>562.2</ele>
        <time>2020-10-17T09:44:33Z</time>
      </trkpt>
      <trkpt lat="46.17685" lon="4.57342">
        <ele>561.8</ele>
        <time>2020-10-17T09:44:34Z</time>
      </trkpt>
      <trkpt lat="46.17682" lon="4.57339">
        <ele>561.6</ele>
        <time>2020-10-17T09:44:35Z</time>
      </trkpt>
      <trkpt lat="46.17682" lon="4.57339">
        <ele>561.6</ele>
        <time>2020-10-17T09:44:36Z</time>
      </trkpt>
      <trkpt lat="46.17679" lon="4.57338">
        <ele>561.2</ele>
        <time>2020-10-17T09:44:37Z</time>
      </trkpt>
      <trkpt lat="46.17679" lon="4.57338">
        <ele>561</ele>
        <time>2020-10-17T09:44:38Z</time>
      </trkpt>
      <trkpt lat="46.17677" lon="4.57336">
        <ele>560.6</ele>
        <time>2020-10-17T09:44:39Z</time>
      </trkpt>
      <trkpt lat="46.17677" lon="4.57336">
        <ele>560.2</ele>
        <time>2020-10-17T09:44:40Z</time>
      </trkpt>
      <trkpt lat="46.17675" lon="4.57334">
        <ele>559.8</ele>
        <time>2020-10-17T09:44:41Z</time>
      </trkpt>
      <trkpt lat="46.17675" lon="4.57334">
        <ele>559.8</ele>
        <time>2020-10-17T09:44:42Z</time>
      </trkpt>
      <trkpt lat="46.17672" lon="4.57332">
        <ele>559.4</ele>
        <time>2020-10-17T09:44:43Z</time>
      </trkpt>
      <trkpt lat="46.17672" lon="4.57332">
        <ele>559.2</ele>
        <time>2020-10-17T09:44:44Z</time>
      </trkpt>
      <trkpt lat="46.1767" lon="4.5733">
        <ele>559</ele>
        <time>2020-10-17T09:44:45Z</time>
      </trkpt>
      <trkpt lat="46.1767" lon="4.5733">
        <ele>558.4</ele>
        <time>2020-10-17T09:44:46Z</time>
      </trkpt>
      <trkpt lat="46.17667" lon="4.57329">
        <ele>558.2</ele>
        <time>2020-10-17T09:44:47Z</time>
      </trkpt>
      <trkpt lat="46.17667" lon="4.57329">
        <ele>558.2</ele>
        <time>2020-10-17T09:44:48Z</time>
      </trkpt>
      <trkpt lat="46.17664" lon="4.57326">
        <ele>558</ele>
        <time>2020-10-17T09:44:49Z</time>
      </trkpt>
      <trkpt lat="46.17664" lon="4.57326">
        <ele>557.6</ele>
        <time>2020-10-17T09:44:50Z</time>
      </trkpt>
      <trkpt lat="46.17661" lon="4.57324">
        <ele>557.6</ele>
        <time>2020-10-17T09:44:51Z</time>
      </trkpt>
      <trkpt lat="46.17659" lon="4.57322">
        <ele>557.2</ele>
        <time>2020-10-17T09:44:52Z</time>
      </trkpt>
      <trkpt lat="46.17658" lon="4.5732">
        <ele>556.8</ele>
        <time>2020-10-17T09:44:53Z</time>
      </trkpt>
      <trkpt lat="46.17656" lon="4.57318">
        <ele>556.6</ele>
        <time>2020-10-17T09:44:54Z</time>
      </trkpt>
      <trkpt lat="46.17654" lon="4.57316">
        <ele>556.4</ele>
        <time>2020-10-17T09:44:55Z</time>
      </trkpt>
      <trkpt lat="46.17652" lon="4.57314">
        <ele>555.8</ele>
        <time>2020-10-17T09:44:56Z</time>
      </trkpt>
      <trkpt lat="46.1765" lon="4.57312">
        <ele>555.6</ele>
        <time>2020-10-17T09:44:57Z</time>
      </trkpt>
      <trkpt lat="46.17648" lon="4.57309">
        <ele>555.4</ele>
        <time>2020-10-17T09:44:58Z</time>
      </trkpt>
      <trkpt lat="46.17646" lon="4.57306">
        <ele>554.6</ele>
        <time>2020-10-17T09:44:59Z</time>
      </trkpt>
      <trkpt lat="46.17644" lon="4.57304">
        <ele>554.4</ele>
        <time>2020-10-17T09:45:00Z</time>
      </trkpt>
      <trkpt lat="46.17642" lon="4.57302">
        <ele>554.2</ele>
        <time>2020-10-17T09:45:01Z</time>
      </trkpt>
      <trkpt lat="46.1764" lon="4.57299">
        <ele>553.6</ele>
        <time>2020-10-17T09:45:02Z</time>
      </trkpt>
      <trkpt lat="46.17638" lon="4.57297">
        <ele>553.4</ele>
        <time>2020-10-17T09:45:03Z</time>
      </trkpt>
      <trkpt lat="46.17637" lon="4.57295">
        <ele>553.2</ele>
        <time>2020-10-17T09:45:04Z</time>
      </trkpt>
      <trkpt lat="46.17635" lon="4.57292">
        <ele>552.6</ele>
        <time>2020-10-17T09:45:05Z</time>
      </trkpt>
      <trkpt lat="46.17633" lon="4.5729">
        <ele>552.4</ele>
        <time>2020-10-17T09:45:06Z</time>
      </trkpt>
      <trkpt lat="46.17631" lon="4.57288">
        <ele>552.2</ele>
        <time>2020-10-17T09:45:07Z</time>
      </trkpt>
      <trkpt lat="46.17629" lon="4.57286">
        <ele>552</ele>
        <time>2020-10-17T09:45:08Z</time>
      </trkpt>
      <trkpt lat="46.17627" lon="4.57284">
        <ele>551.6</ele>
        <time>2020-10-17T09:45:09Z</time>
      </trkpt>
      <trkpt lat="46.17625" lon="4.57283">
        <ele>551.4</ele>
        <time>2020-10-17T09:45:10Z</time>
      </trkpt>
      <trkpt lat="46.17623" lon="4.57281">
        <ele>551</ele>
        <time>2020-10-17T09:45:11Z</time>
      </trkpt>
      <trkpt lat="46.17621" lon="4.57279">
        <ele>550.6</ele>
        <time>2020-10-17T09:45:12Z</time>
      </trkpt>
      <trkpt lat="46.17619" lon="4.57277">
        <ele>550.4</ele>
        <time>2020-10-17T09:45:13Z</time>
      </trkpt>
      <trkpt lat="46.17617" lon="4.57276">
        <ele>550</ele>
        <time>2020-10-17T09:45:14Z</time>
      </trkpt>
      <trkpt lat="46.17615" lon="4.57275">
        <ele>549.6</ele>
        <time>2020-10-17T09:45:15Z</time>
      </trkpt>
      <trkpt lat="46.17613" lon="4.57273">
        <ele>549.6</ele>
        <time>2020-10-17T09:45:16Z</time>
      </trkpt>
      <trkpt lat="46.1761" lon="4.57272">
        <ele>549</ele>
        <time>2020-10-17T09:45:17Z</time>
      </trkpt>
      <trkpt lat="46.17609" lon="4.5727">
        <ele>548.6</ele>
        <time>2020-10-17T09:45:18Z</time>
      </trkpt>
      <trkpt lat="46.17607" lon="4.57269">
        <ele>548.2</ele>
        <time>2020-10-17T09:45:19Z</time>
      </trkpt>
      <trkpt lat="46.17605" lon="4.57268">
        <ele>547.8</ele>
        <time>2020-10-17T09:45:20Z</time>
      </trkpt>
      <trkpt lat="46.17602" lon="4.57267">
        <ele>547.2</ele>
        <time>2020-10-17T09:45:21Z</time>
      </trkpt>
      <trkpt lat="46.176" lon="4.57266">
        <ele>547</ele>
        <time>2020-10-17T09:45:22Z</time>
      </trkpt>
      <trkpt lat="46.17598" lon="4.57265">
        <ele>546.4</ele>
        <time>2020-10-17T09:45:23Z</time>
      </trkpt>
      <trkpt lat="46.17595" lon="4.57264">
        <ele>546</ele>
        <time>2020-10-17T09:45:24Z</time>
      </trkpt>
      <trkpt lat="46.17593" lon="4.57263">
        <ele>545.8</ele>
        <time>2020-10-17T09:45:25Z</time>
      </trkpt>
      <trkpt lat="46.1759" lon="4.57262">
        <ele>545.6</ele>
        <time>2020-10-17T09:45:26Z</time>
      </trkpt>
      <trkpt lat="46.17588" lon="4.5726">
        <ele>545</ele>
        <time>2020-10-17T09:45:27Z</time>
      </trkpt>
      <trkpt lat="46.17586" lon="4.57258">
        <ele>544.8</ele>
        <time>2020-10-17T09:45:28Z</time>
      </trkpt>
      <trkpt lat="46.17584" lon="4.57256">
        <ele>544.4</ele>
        <time>2020-10-17T09:45:29Z</time>
      </trkpt>
      <trkpt lat="46.17582" lon="4.57254">
        <ele>543.6</ele>
        <time>2020-10-17T09:45:30Z</time>
      </trkpt>
      <trkpt lat="46.17581" lon="4.57251">
        <ele>543.6</ele>
        <time>2020-10-17T09:45:31Z</time>
      </trkpt>
      <trkpt lat="46.1758" lon="4.57249">
        <ele>543.2</ele>
        <time>2020-10-17T09:45:32Z</time>
      </trkpt>
      <trkpt lat="46.1758" lon="4.57249">
        <ele>542.8</ele>
        <time>2020-10-17T09:45:33Z</time>
      </trkpt>
      <trkpt lat="46.17579" lon="4.57244">
        <ele>542.4</ele>
        <time>2020-10-17T09:45:34Z</time>
      </trkpt>
      <trkpt lat="46.17579" lon="4.57244">
        <ele>542</ele>
        <time>2020-10-17T09:45:35Z</time>
      </trkpt>
      <trkpt lat="46.17579" lon="4.57244">
        <ele>541.6</ele>
        <time>2020-10-17T09:45:36Z</time>
      </trkpt>
      <trkpt lat="46.17579" lon="4.57244">
        <ele>541.6</ele>
        <time>2020-10-17T09:45:37Z</time>
      </trkpt>
      <trkpt lat="46.17581" lon="4.57242">
        <ele>541.6</ele>
        <time>2020-10-17T09:45:38Z</time>
      </trkpt>
      <trkpt lat="46.17581" lon="4.57242">
        <ele>541.4</ele>
        <time>2020-10-17T09:45:39Z</time>
      </trkpt>
      <trkpt lat="46.17581" lon="4.57242">
        <ele>541.2</ele>
        <time>2020-10-17T09:45:40Z</time>
      </trkpt>
      <trkpt lat="46.17581" lon="4.57242">
        <ele>540.8</ele>
        <time>2020-10-17T09:45:41Z</time>
      </trkpt>
      <trkpt lat="46.17581" lon="4.57242">
        <ele>540.4</ele>
        <time>2020-10-17T09:45:42Z</time>
      </trkpt>
      <trkpt lat="46.17581" lon="4.57242">
        <ele>540.2</ele>
        <time>2020-10-17T09:45:43Z</time>
      </trkpt>
      <trkpt lat="46.17581" lon="4.57242">
        <ele>540.2</ele>
        <time>2020-10-17T09:45:44Z</time>
      </trkpt>
      <trkpt lat="46.17581" lon="4.57242">
        <ele>540.2</ele>
        <time>2020-10-17T09:45:45Z</time>
      </trkpt>
      <trkpt lat="46.17581" lon="4.57242">
        <ele>540.2</ele>
        <time>2020-10-17T09:45:46Z</time>
      </trkpt>
      <trkpt lat="46.17581" lon="4.57242">
        <ele>540.2</ele>
        <time>2020-10-17T09:45:47Z</time>
      </trkpt>
      <trkpt lat="46.17581" lon="4.57242">
        <ele>540.4</ele>
        <time>2020-10-17T09:45:48Z</time>
      </trkpt>
      <trkpt lat="46.17581" lon="4.57242">
        <ele>540.2</ele>
        <time>2020-10-17T09:45:49Z</time>
      </trkpt>
      <trkpt lat="46.17581" lon="4.57242">
        <ele>540.2</ele>
        <time>2020-10-17T09:45:50Z</time>
      </trkpt>
      <trkpt lat="46.17581" lon="4.57242">
        <ele>540.4</ele>
        <time>2020-10-17T09:45:51Z</time>
      </trkpt>
      <trkpt lat="46.17581" lon="4.57242">
        <ele>540.6</ele>
        <time>2020-10-17T09:45:52Z</time>
      </trkpt>
      <trkpt lat="46.17581" lon="4.57242">
        <ele>540.6</ele>
        <time>2020-10-17T09:45:53Z</time>
      </trkpt>
      <trkpt lat="46.17581" lon="4.57242">
        <ele>540.8</ele>
        <time>2020-10-17T09:45:54Z</time>
      </trkpt>
      <trkpt lat="46.17581" lon="4.57242">
        <ele>540.8</ele>
        <time>2020-10-17T09:45:55Z</time>
      </trkpt>
      <trkpt lat="46.17581" lon="4.57242">
        <ele>541</ele>
        <time>2020-10-17T09:45:56Z</time>
      </trkpt>
      <trkpt lat="46.17581" lon="4.57242">
        <ele>541</ele>
        <time>2020-10-17T09:45:57Z</time>
      </trkpt>
      <trkpt lat="46.17581" lon="4.57242">
        <ele>541.2</ele>
        <time>2020-10-17T09:45:58Z</time>
      </trkpt>
      <trkpt lat="46.17581" lon="4.57242">
        <ele>541.2</ele>
        <time>2020-10-17T09:45:59Z</time>
      </trkpt>
      <trkpt lat="46.17581" lon="4.57242">
        <ele>541.2</ele>
        <time>2020-10-17T09:46:00Z</time>
      </trkpt>
      <trkpt lat="46.17581" lon="4.57242">
        <ele>541.2</ele>
        <time>2020-10-17T09:46:01Z</time>
      </trkpt>
      <trkpt lat="46.17581" lon="4.57242">
        <ele>541.2</ele>
        <time>2020-10-17T09:46:02Z</time>
      </trkpt>
      <trkpt lat="46.17581" lon="4.57242">
        <ele>541.4</ele>
        <time>2020-10-17T09:46:03Z</time>
      </trkpt>
      <trkpt lat="46.17581" lon="4.57242">
        <ele>541.4</ele>
        <time>2020-10-17T09:46:04Z</time>
      </trkpt>
      <trkpt lat="46.17581" lon="4.57242">
        <ele>541.2</ele>
        <time>2020-10-17T09:46:05Z</time>
      </trkpt>
      <trkpt lat="46.17581" lon="4.57242">
        <ele>541.2</ele>
        <time>2020-10-17T09:46:06Z</time>
      </trkpt>
      <trkpt lat="46.17581" lon="4.57242">
        <ele>541.2</ele>
        <time>2020-10-17T09:46:07Z</time>
      </trkpt>
      <trkpt lat="46.17581" lon="4.57242">
        <ele>541.2</ele>
        <time>2020-10-17T09:46:08Z</time>
      </trkpt>
      <trkpt lat="46.17581" lon="4.57242">
        <ele>541.4</ele>
        <time>2020-10-17T09:46:09Z</time>
      </trkpt>
      <trkpt lat="46.17581" lon="4.57242">
        <ele>541.4</ele>
        <time>2020-10-17T09:46:10Z</time>
      </trkpt>
      <trkpt lat="46.17581" lon="4.57242">
        <ele>541.2</ele>
        <time>2020-10-17T09:46:11Z</time>
      </trkpt>
      <trkpt lat="46.17581" lon="4.57242">
        <ele>541.4</ele>
        <time>2020-10-17T09:46:12Z</time>
      </trkpt>
      <trkpt lat="46.17581" lon="4.57242">
        <ele>541.4</ele>
        <time>2020-10-17T09:46:13Z</time>
      </trkpt>
      <trkpt lat="46.17581" lon="4.57242">
        <ele>541.4</ele>
        <time>2020-10-17T09:46:14Z</time>
      </trkpt>
      <trkpt lat="46.17581" lon="4.57242">
        <ele>541.4</ele>
        <time>2020-10-17T09:46:15Z</time>
      </trkpt>
      <trkpt lat="46.17581" lon="4.57238">
        <ele>541.6</ele>
        <time>2020-10-17T09:46:16Z</time>
      </trkpt>
      <trkpt lat="46.17581" lon="4.57238">
        <ele>541.6</ele>
        <time>2020-10-17T09:46:17Z</time>
      </trkpt>
      <trkpt lat="46.1758" lon="4.57233">
        <ele>541</ele>
        <time>2020-10-17T09:46:18Z</time>
      </trkpt>
      <trkpt lat="46.17578" lon="4.57231">
        <ele>540.8</ele>
        <time>2020-10-17T09:46:19Z</time>
      </trkpt>
      <trkpt lat="46.17577" lon="4.57228">
        <ele>540.4</ele>
        <time>2020-10-17T09:46:20Z</time>
      </trkpt>
      <trkpt lat="46.17576" lon="4.57225">
        <ele>540.2</ele>
        <time>2020-10-17T09:46:21Z</time>
      </trkpt>
      <trkpt lat="46.17574" lon="4.57223">
        <ele>539.6</ele>
        <time>2020-10-17T09:46:22Z</time>
      </trkpt>
      <trkpt lat="46.17573" lon="4.57221">
        <ele>539.2</ele>
        <time>2020-10-17T09:46:23Z</time>
      </trkpt>
      <trkpt lat="46.17571" lon="4.57218">
        <ele>538.8</ele>
        <time>2020-10-17T09:46:24Z</time>
      </trkpt>
      <trkpt lat="46.17571" lon="4.57218">
        <ele>538.2</ele>
        <time>2020-10-17T09:46:25Z</time>
      </trkpt>
      <trkpt lat="46.17569" lon="4.57215">
        <ele>538</ele>
        <time>2020-10-17T09:46:26Z</time>
      </trkpt>
      <trkpt lat="46.17567" lon="4.57212">
        <ele>537.6</ele>
        <time>2020-10-17T09:46:27Z</time>
      </trkpt>
      <trkpt lat="46.17567" lon="4.57212">
        <ele>537</ele>
        <time>2020-10-17T09:46:28Z</time>
      </trkpt>
      <trkpt lat="46.17564" lon="4.57209">
        <ele>536.4</ele>
        <time>2020-10-17T09:46:29Z</time>
      </trkpt>
      <trkpt lat="46.17564" lon="4.57209">
        <ele>536</ele>
        <time>2020-10-17T09:46:30Z</time>
      </trkpt>
      <trkpt lat="46.17562" lon="4.57206">
        <ele>535.4</ele>
        <time>2020-10-17T09:46:31Z</time>
      </trkpt>
      <trkpt lat="46.17561" lon="4.57203">
        <ele>535.2</ele>
        <time>2020-10-17T09:46:32Z</time>
      </trkpt>
      <trkpt lat="46.17559" lon="4.57201">
        <ele>534.6</ele>
        <time>2020-10-17T09:46:33Z</time>
      </trkpt>
      <trkpt lat="46.17558" lon="4.57199">
        <ele>534</ele>
        <time>2020-10-17T09:46:34Z</time>
      </trkpt>
      <trkpt lat="46.17556" lon="4.57197">
        <ele>533.6</ele>
        <time>2020-10-17T09:46:35Z</time>
      </trkpt>
      <trkpt lat="46.17556" lon="4.57197">
        <ele>533</ele>
        <time>2020-10-17T09:46:36Z</time>
      </trkpt>
      <trkpt lat="46.17554" lon="4.57194">
        <ele>532.4</ele>
        <time>2020-10-17T09:46:37Z</time>
      </trkpt>
      <trkpt lat="46.17554" lon="4.57194">
        <ele>532.2</ele>
        <time>2020-10-17T09:46:38Z</time>
      </trkpt>
      <trkpt lat="46.17552" lon="4.5719">
        <ele>531.2</ele>
        <time>2020-10-17T09:46:39Z</time>
      </trkpt>
      <trkpt lat="46.17551" lon="4.57187">
        <ele>530.8</ele>
        <time>2020-10-17T09:46:40Z</time>
      </trkpt>
      <trkpt lat="46.1755" lon="4.57184">
        <ele>530.2</ele>
        <time>2020-10-17T09:46:41Z</time>
      </trkpt>
      <trkpt lat="46.17548" lon="4.57182">
        <ele>529.6</ele>
        <time>2020-10-17T09:46:42Z</time>
      </trkpt>
      <trkpt lat="46.17547" lon="4.57179">
        <ele>529</ele>
        <time>2020-10-17T09:46:43Z</time>
      </trkpt>
      <trkpt lat="46.17546" lon="4.57177">
        <ele>528.6</ele>
        <time>2020-10-17T09:46:44Z</time>
      </trkpt>
      <trkpt lat="46.17545" lon="4.57174">
        <ele>528.4</ele>
        <time>2020-10-17T09:46:45Z</time>
      </trkpt>
      <trkpt lat="46.17544" lon="4.57172">
        <ele>527.6</ele>
        <time>2020-10-17T09:46:46Z</time>
      </trkpt>
      <trkpt lat="46.17542" lon="4.57169">
        <ele>527.4</ele>
        <time>2020-10-17T09:46:47Z</time>
      </trkpt>
      <trkpt lat="46.17541" lon="4.57167">
        <ele>526.6</ele>
        <time>2020-10-17T09:46:48Z</time>
      </trkpt>
      <trkpt lat="46.1754" lon="4.57166">
        <ele>526</ele>
        <time>2020-10-17T09:46:49Z</time>
      </trkpt>
      <trkpt lat="46.17537" lon="4.57163">
        <ele>525</ele>
        <time>2020-10-17T09:46:50Z</time>
      </trkpt>
      <trkpt lat="46.17536" lon="4.5716">
        <ele>524.4</ele>
        <time>2020-10-17T09:46:51Z</time>
      </trkpt>
      <trkpt lat="46.17536" lon="4.5716">
        <ele>524.2</ele>
        <time>2020-10-17T09:46:52Z</time>
      </trkpt>
      <trkpt lat="46.17531" lon="4.57153">
        <ele>523.6</ele>
        <time>2020-10-17T09:46:53Z</time>
      </trkpt>
      <trkpt lat="46.17529" lon="4.57149">
        <ele>522.4</ele>
        <time>2020-10-17T09:46:54Z</time>
      </trkpt>
      <trkpt lat="46.17529" lon="4.57149">
        <ele>522.4</ele>
        <time>2020-10-17T09:46:55Z</time>
      </trkpt>
      <trkpt lat="46.17529" lon="4.57149">
        <ele>522</ele>
        <time>2020-10-17T09:46:56Z</time>
      </trkpt>
      <trkpt lat="46.17527" lon="4.57145">
        <ele>521.2</ele>
        <time>2020-10-17T09:46:57Z</time>
      </trkpt>
      <trkpt lat="46.17524" lon="4.5714">
        <ele>521</ele>
        <time>2020-10-17T09:46:58Z</time>
      </trkpt>
      <trkpt lat="46.17521" lon="4.57136">
        <ele>520.4</ele>
        <time>2020-10-17T09:46:59Z</time>
      </trkpt>
      <trkpt lat="46.17518" lon="4.57131">
        <ele>519.6</ele>
        <time>2020-10-17T09:47:00Z</time>
      </trkpt>
      <trkpt lat="46.17514" lon="4.57124">
        <ele>519.4</ele>
        <time>2020-10-17T09:47:01Z</time>
      </trkpt>
      <trkpt lat="46.17512" lon="4.57122">
        <ele>518.6</ele>
        <time>2020-10-17T09:47:02Z</time>
      </trkpt>
      <trkpt lat="46.17511" lon="4.5712">
        <ele>517.8</ele>
        <time>2020-10-17T09:47:03Z</time>
      </trkpt>
      <trkpt lat="46.17511" lon="4.5712">
        <ele>517.8</ele>
        <time>2020-10-17T09:47:04Z</time>
      </trkpt>
      <trkpt lat="46.17511" lon="4.5712">
        <ele>517.2</ele>
        <time>2020-10-17T09:47:05Z</time>
      </trkpt>
      <trkpt lat="46.17509" lon="4.57118">
        <ele>516.6</ele>
        <time>2020-10-17T09:47:06Z</time>
      </trkpt>
      <trkpt lat="46.17507" lon="4.57116">
        <ele>516.4</ele>
        <time>2020-10-17T09:47:07Z</time>
      </trkpt>
      <trkpt lat="46.17505" lon="4.57113">
        <ele>515.8</ele>
        <time>2020-10-17T09:47:08Z</time>
      </trkpt>
      <trkpt lat="46.17503" lon="4.57111">
        <ele>515.2</ele>
        <time>2020-10-17T09:47:09Z</time>
      </trkpt>
      <trkpt lat="46.17496" lon="4.57101">
        <ele>515.2</ele>
        <time>2020-10-17T09:47:10Z</time>
      </trkpt>
      <trkpt lat="46.17494" lon="4.57099">
        <ele>514.8</ele>
        <time>2020-10-17T09:47:11Z</time>
      </trkpt>
      <trkpt lat="46.17493" lon="4.57098">
        <ele>514.6</ele>
        <time>2020-10-17T09:47:12Z</time>
      </trkpt>
      <trkpt lat="46.17492" lon="4.57096">
        <ele>514.4</ele>
        <time>2020-10-17T09:47:13Z</time>
      </trkpt>
      <trkpt lat="46.1749" lon="4.57093">
        <ele>513.8</ele>
        <time>2020-10-17T09:47:14Z</time>
      </trkpt>
      <trkpt lat="46.17488" lon="4.57091">
        <ele>513.2</ele>
        <time>2020-10-17T09:47:15Z</time>
      </trkpt>
      <trkpt lat="46.17486" lon="4.57089">
        <ele>513.2</ele>
        <time>2020-10-17T09:47:16Z</time>
      </trkpt>
      <trkpt lat="46.17485" lon="4.57087">
        <ele>512.6</ele>
        <time>2020-10-17T09:47:17Z</time>
      </trkpt>
      <trkpt lat="46.17483" lon="4.57085">
        <ele>512.2</ele>
        <time>2020-10-17T09:47:18Z</time>
      </trkpt>
      <trkpt lat="46.17481" lon="4.57082">
        <ele>512</ele>
        <time>2020-10-17T09:47:19Z</time>
      </trkpt>
      <trkpt lat="46.1748" lon="4.5708">
        <ele>511.4</ele>
        <time>2020-10-17T09:47:20Z</time>
      </trkpt>
      <trkpt lat="46.17478" lon="4.57077">
        <ele>511.2</ele>
        <time>2020-10-17T09:47:21Z</time>
      </trkpt>
      <trkpt lat="46.17476" lon="4.57074">
        <ele>510.8</ele>
        <time>2020-10-17T09:47:22Z</time>
      </trkpt>
      <trkpt lat="46.17473" lon="4.57071">
        <ele>510.6</ele>
        <time>2020-10-17T09:47:23Z</time>
      </trkpt>
      <trkpt lat="46.17471" lon="4.57068">
        <ele>510.2</ele>
        <time>2020-10-17T09:47:24Z</time>
      </trkpt>
      <trkpt lat="46.17469" lon="4.57065">
        <ele>510</ele>
        <time>2020-10-17T09:47:25Z</time>
      </trkpt>
      <trkpt lat="46.17467" lon="4.57062">
        <ele>509.4</ele>
        <time>2020-10-17T09:47:26Z</time>
      </trkpt>
      <trkpt lat="46.17465" lon="4.5706">
        <ele>509.2</ele>
        <time>2020-10-17T09:47:27Z</time>
      </trkpt>
      <trkpt lat="46.17463" lon="4.57058">
        <ele>508.4</ele>
        <time>2020-10-17T09:47:28Z</time>
      </trkpt>
      <trkpt lat="46.17461" lon="4.57055">
        <ele>508</ele>
        <time>2020-10-17T09:47:29Z</time>
      </trkpt>
      <trkpt lat="46.17459" lon="4.57053">
        <ele>507.8</ele>
        <time>2020-10-17T09:47:30Z</time>
      </trkpt>
      <trkpt lat="46.17458" lon="4.57051">
        <ele>507.4</ele>
        <time>2020-10-17T09:47:31Z</time>
      </trkpt>
      <trkpt lat="46.17456" lon="4.57049">
        <ele>507.2</ele>
        <time>2020-10-17T09:47:32Z</time>
      </trkpt>
      <trkpt lat="46.17456" lon="4.57049">
        <ele>507.4</ele>
        <time>2020-10-17T09:47:33Z</time>
      </trkpt>
      <trkpt lat="46.17451" lon="4.57046">
        <ele>506.8</ele>
        <time>2020-10-17T09:47:34Z</time>
      </trkpt>
      <trkpt lat="46.17448" lon="4.57044">
        <ele>506.2</ele>
        <time>2020-10-17T09:47:35Z</time>
      </trkpt>
      <trkpt lat="46.17447" lon="4.57043">
        <ele>506.6</ele>
        <time>2020-10-17T09:47:36Z</time>
      </trkpt>
      <trkpt lat="46.17444" lon="4.57042">
        <ele>506.4</ele>
        <time>2020-10-17T09:47:37Z</time>
      </trkpt>
      <trkpt lat="46.17442" lon="4.5704">
        <ele>506.2</ele>
        <time>2020-10-17T09:47:38Z</time>
      </trkpt>
      <trkpt lat="46.1744" lon="4.57039">
        <ele>506.6</ele>
        <time>2020-10-17T09:47:39Z</time>
      </trkpt>
      <trkpt lat="46.17438" lon="4.57038">
        <ele>506.4</ele>
        <time>2020-10-17T09:47:40Z</time>
      </trkpt>
      <trkpt lat="46.17436" lon="4.57036">
        <ele>506.2</ele>
        <time>2020-10-17T09:47:41Z</time>
      </trkpt>
      <trkpt lat="46.17434" lon="4.57034">
        <ele>506.2</ele>
        <time>2020-10-17T09:47:42Z</time>
      </trkpt>
      <trkpt lat="46.17432" lon="4.57033">
        <ele>506.2</ele>
        <time>2020-10-17T09:47:43Z</time>
      </trkpt>
      <trkpt lat="46.17429" lon="4.57031">
        <ele>506</ele>
        <time>2020-10-17T09:47:44Z</time>
      </trkpt>
      <trkpt lat="46.17427" lon="4.5703">
        <ele>506.2</ele>
        <time>2020-10-17T09:47:45Z</time>
      </trkpt>
      <trkpt lat="46.17425" lon="4.57029">
        <ele>506.2</ele>
        <time>2020-10-17T09:47:46Z</time>
      </trkpt>
      <trkpt lat="46.17422" lon="4.57027">
        <ele>506</ele>
        <time>2020-10-17T09:47:47Z</time>
      </trkpt>
      <trkpt lat="46.1742" lon="4.57025">
        <ele>506.2</ele>
        <time>2020-10-17T09:47:48Z</time>
      </trkpt>
      <trkpt lat="46.17418" lon="4.57023">
        <ele>506.2</ele>
        <time>2020-10-17T09:47:49Z</time>
      </trkpt>
      <trkpt lat="46.17416" lon="4.57021">
        <ele>506.2</ele>
        <time>2020-10-17T09:47:50Z</time>
      </trkpt>
      <trkpt lat="46.17414" lon="4.57019">
        <ele>506.6</ele>
        <time>2020-10-17T09:47:51Z</time>
      </trkpt>
      <trkpt lat="46.17413" lon="4.57017">
        <ele>506.6</ele>
        <time>2020-10-17T09:47:52Z</time>
      </trkpt>
      <trkpt lat="46.17411" lon="4.57014">
        <ele>506.6</ele>
        <time>2020-10-17T09:47:53Z</time>
      </trkpt>
      <trkpt lat="46.1741" lon="4.57013">
        <ele>507</ele>
        <time>2020-10-17T09:47:54Z</time>
      </trkpt>
      <trkpt lat="46.17408" lon="4.5701">
        <ele>506.8</ele>
        <time>2020-10-17T09:47:55Z</time>
      </trkpt>
      <trkpt lat="46.17407" lon="4.57008">
        <ele>506.8</ele>
        <time>2020-10-17T09:47:56Z</time>
      </trkpt>
      <trkpt lat="46.17405" lon="4.57006">
        <ele>507.2</ele>
        <time>2020-10-17T09:47:57Z</time>
      </trkpt>
      <trkpt lat="46.17404" lon="4.57004">
        <ele>507.2</ele>
        <time>2020-10-17T09:47:58Z</time>
      </trkpt>
      <trkpt lat="46.17402" lon="4.57002">
        <ele>507.2</ele>
        <time>2020-10-17T09:47:59Z</time>
      </trkpt>
      <trkpt lat="46.174" lon="4.57">
        <ele>507.4</ele>
        <time>2020-10-17T09:48:00Z</time>
      </trkpt>
      <trkpt lat="46.17399" lon="4.56997">
        <ele>507.6</ele>
        <time>2020-10-17T09:48:01Z</time>
      </trkpt>
      <trkpt lat="46.17396" lon="4.56995">
        <ele>507.4</ele>
        <time>2020-10-17T09:48:02Z</time>
      </trkpt>
      <trkpt lat="46.17394" lon="4.56993">
        <ele>507.6</ele>
        <time>2020-10-17T09:48:03Z</time>
      </trkpt>
      <trkpt lat="46.17392" lon="4.56991">
        <ele>507.6</ele>
        <time>2020-10-17T09:48:04Z</time>
      </trkpt>
      <trkpt lat="46.1739" lon="4.56989">
        <ele>507.2</ele>
        <time>2020-10-17T09:48:05Z</time>
      </trkpt>
      <trkpt lat="46.17388" lon="4.56987">
        <ele>507.6</ele>
        <time>2020-10-17T09:48:06Z</time>
      </trkpt>
      <trkpt lat="46.17386" lon="4.56986">
        <ele>507.6</ele>
        <time>2020-10-17T09:48:07Z</time>
      </trkpt>
      <trkpt lat="46.17385" lon="4.56984">
        <ele>507.2</ele>
        <time>2020-10-17T09:48:08Z</time>
      </trkpt>
      <trkpt lat="46.17383" lon="4.56981">
        <ele>507.4</ele>
        <time>2020-10-17T09:48:09Z</time>
      </trkpt>
      <trkpt lat="46.17382" lon="4.56979">
        <ele>507.2</ele>
        <time>2020-10-17T09:48:10Z</time>
      </trkpt>
      <trkpt lat="46.1738" lon="4.56977">
        <ele>506.8</ele>
        <time>2020-10-17T09:48:11Z</time>
      </trkpt>
      <trkpt lat="46.17378" lon="4.56974">
        <ele>507</ele>
        <time>2020-10-17T09:48:12Z</time>
      </trkpt>
      <trkpt lat="46.17376" lon="4.56972">
        <ele>507</ele>
        <time>2020-10-17T09:48:13Z</time>
      </trkpt>
      <trkpt lat="46.17374" lon="4.56969">
        <ele>506.4</ele>
        <time>2020-10-17T09:48:14Z</time>
      </trkpt>
      <trkpt lat="46.17372" lon="4.56967">
        <ele>506.6</ele>
        <time>2020-10-17T09:48:15Z</time>
      </trkpt>
      <trkpt lat="46.1737" lon="4.56964">
        <ele>506.4</ele>
        <time>2020-10-17T09:48:16Z</time>
      </trkpt>
      <trkpt lat="46.17368" lon="4.56962">
        <ele>506</ele>
        <time>2020-10-17T09:48:17Z</time>
      </trkpt>
      <trkpt lat="46.17366" lon="4.5696">
        <ele>506</ele>
        <time>2020-10-17T09:48:18Z</time>
      </trkpt>
      <trkpt lat="46.17363" lon="4.56958">
        <ele>505.8</ele>
        <time>2020-10-17T09:48:19Z</time>
      </trkpt>
      <trkpt lat="46.1736" lon="4.56956">
        <ele>505.4</ele>
        <time>2020-10-17T09:48:20Z</time>
      </trkpt>
      <trkpt lat="46.17358" lon="4.56954">
        <ele>505.6</ele>
        <time>2020-10-17T09:48:21Z</time>
      </trkpt>
      <trkpt lat="46.17356" lon="4.56953">
        <ele>505.4</ele>
        <time>2020-10-17T09:48:22Z</time>
      </trkpt>
      <trkpt lat="46.17354" lon="4.56951">
        <ele>504.8</ele>
        <time>2020-10-17T09:48:23Z</time>
      </trkpt>
      <trkpt lat="46.17351" lon="4.56949">
        <ele>504.8</ele>
        <time>2020-10-17T09:48:24Z</time>
      </trkpt>
      <trkpt lat="46.17349" lon="4.56947">
        <ele>504.4</ele>
        <time>2020-10-17T09:48:25Z</time>
      </trkpt>
      <trkpt lat="46.17347" lon="4.56945">
        <ele>503.8</ele>
        <time>2020-10-17T09:48:26Z</time>
      </trkpt>
      <trkpt lat="46.17345" lon="4.56943">
        <ele>503.8</ele>
        <time>2020-10-17T09:48:27Z</time>
      </trkpt>
      <trkpt lat="46.17343" lon="4.56941">
        <ele>503.8</ele>
        <time>2020-10-17T09:48:28Z</time>
      </trkpt>
      <trkpt lat="46.1734" lon="4.56939">
        <ele>503.4</ele>
        <time>2020-10-17T09:48:29Z</time>
      </trkpt>
      <trkpt lat="46.17339" lon="4.56937">
        <ele>503.2</ele>
        <time>2020-10-17T09:48:30Z</time>
      </trkpt>
      <trkpt lat="46.17337" lon="4.56934">
        <ele>503</ele>
        <time>2020-10-17T09:48:31Z</time>
      </trkpt>
      <trkpt lat="46.17335" lon="4.56932">
        <ele>502.4</ele>
        <time>2020-10-17T09:48:32Z</time>
      </trkpt>
      <trkpt lat="46.17334" lon="4.56929">
        <ele>502.4</ele>
        <time>2020-10-17T09:48:33Z</time>
      </trkpt>
      <trkpt lat="46.17332" lon="4.56927">
        <ele>502</ele>
        <time>2020-10-17T09:48:34Z</time>
      </trkpt>
      <trkpt lat="46.1733" lon="4.56924">
        <ele>501.6</ele>
        <time>2020-10-17T09:48:35Z</time>
      </trkpt>
      <trkpt lat="46.17329" lon="4.56921">
        <ele>501.8</ele>
        <time>2020-10-17T09:48:36Z</time>
      </trkpt>
      <trkpt lat="46.17327" lon="4.56918">
        <ele>501.6</ele>
        <time>2020-10-17T09:48:37Z</time>
      </trkpt>
      <trkpt lat="46.17327" lon="4.56915">
        <ele>501.2</ele>
        <time>2020-10-17T09:48:38Z</time>
      </trkpt>
      <trkpt lat="46.17327" lon="4.56915">
        <ele>501.4</ele>
        <time>2020-10-17T09:48:39Z</time>
      </trkpt>
      <trkpt lat="46.17326" lon="4.5691">
        <ele>501</ele>
        <time>2020-10-17T09:48:40Z</time>
      </trkpt>
      <trkpt lat="46.17326" lon="4.5691">
        <ele>500.6</ele>
        <time>2020-10-17T09:48:41Z</time>
      </trkpt>
      <trkpt lat="46.17326" lon="4.56906">
        <ele>500.2</ele>
        <time>2020-10-17T09:48:42Z</time>
      </trkpt>
      <trkpt lat="46.17326" lon="4.56906">
        <ele>500.2</ele>
        <time>2020-10-17T09:48:43Z</time>
      </trkpt>
      <trkpt lat="46.17326" lon="4.56906">
        <ele>500</ele>
        <time>2020-10-17T09:48:44Z</time>
      </trkpt>
      <trkpt lat="46.17326" lon="4.56906">
        <ele>499.6</ele>
        <time>2020-10-17T09:48:45Z</time>
      </trkpt>
      <trkpt lat="46.17326" lon="4.56906">
        <ele>499.2</ele>
        <time>2020-10-17T09:48:46Z</time>
      </trkpt>
      <trkpt lat="46.17326" lon="4.56906">
        <ele>498.8</ele>
        <time>2020-10-17T09:48:47Z</time>
      </trkpt>
      <trkpt lat="46.17326" lon="4.56906">
        <ele>498.6</ele>
        <time>2020-10-17T09:48:48Z</time>
      </trkpt>
      <trkpt lat="46.17326" lon="4.56906">
        <ele>498.6</ele>
        <time>2020-10-17T09:48:49Z</time>
      </trkpt>
      <trkpt lat="46.17326" lon="4.56906">
        <ele>498.6</ele>
        <time>2020-10-17T09:48:50Z</time>
      </trkpt>
      <trkpt lat="46.17326" lon="4.56906">
        <ele>498.8</ele>
        <time>2020-10-17T09:48:51Z</time>
      </trkpt>
      <trkpt lat="46.17326" lon="4.56906">
        <ele>498.8</ele>
        <time>2020-10-17T09:48:52Z</time>
      </trkpt>
      <trkpt lat="46.17326" lon="4.56906">
        <ele>498.6</ele>
        <time>2020-10-17T09:48:53Z</time>
      </trkpt>
      <trkpt lat="46.17326" lon="4.56906">
        <ele>498.6</ele>
        <time>2020-10-17T09:48:54Z</time>
      </trkpt>
      <trkpt lat="46.17326" lon="4.56906">
        <ele>498.6</ele>
        <time>2020-10-17T09:48:55Z</time>
      </trkpt>
      <trkpt lat="46.17326" lon="4.56906">
        <ele>498.4</ele>
        <time>2020-10-17T09:48:56Z</time>
      </trkpt>
      <trkpt lat="46.17326" lon="4.56906">
        <ele>498.4</ele>
        <time>2020-10-17T09:48:57Z</time>
      </trkpt>
      <trkpt lat="46.17326" lon="4.56906">
        <ele>498.4</ele>
        <time>2020-10-17T09:48:58Z</time>
      </trkpt>
      <trkpt lat="46.17326" lon="4.56906">
        <ele>498</ele>
        <time>2020-10-17T09:48:59Z</time>
      </trkpt>
      <trkpt lat="46.17326" lon="4.56906">
        <ele>498.2</ele>
        <time>2020-10-17T09:49:00Z</time>
      </trkpt>
      <trkpt lat="46.17326" lon="4.56906">
        <ele>498.2</ele>
        <time>2020-10-17T09:49:01Z</time>
      </trkpt>
      <trkpt lat="46.17326" lon="4.56906">
        <ele>498.2</ele>
        <time>2020-10-17T09:49:02Z</time>
      </trkpt>
      <trkpt lat="46.17326" lon="4.56906">
        <ele>498.4</ele>
        <time>2020-10-17T09:49:03Z</time>
      </trkpt>
      <trkpt lat="46.17326" lon="4.56906">
        <ele>498.4</ele>
        <time>2020-10-17T09:49:04Z</time>
      </trkpt>
      <trkpt lat="46.17326" lon="4.56906">
        <ele>498.6</ele>
        <time>2020-10-17T09:49:05Z</time>
      </trkpt>
      <trkpt lat="46.17326" lon="4.56906">
        <ele>498.8</ele>
        <time>2020-10-17T09:49:06Z</time>
      </trkpt>
      <trkpt lat="46.17326" lon="4.56906">
        <ele>498.8</ele>
        <time>2020-10-17T09:49:07Z</time>
      </trkpt>
      <trkpt lat="46.17325" lon="4.56904">
        <ele>499</ele>
        <time>2020-10-17T09:49:08Z</time>
      </trkpt>
      <trkpt lat="46.17325" lon="4.56904">
        <ele>499.2</ele>
        <time>2020-10-17T09:49:09Z</time>
      </trkpt>
      <trkpt lat="46.17322" lon="4.56901">
        <ele>499.4</ele>
        <time>2020-10-17T09:49:10Z</time>
      </trkpt>
      <trkpt lat="46.17321" lon="4.56898">
        <ele>499.4</ele>
        <time>2020-10-17T09:49:11Z</time>
      </trkpt>
      <trkpt lat="46.1732" lon="4.56896">
        <ele>499.6</ele>
        <time>2020-10-17T09:49:12Z</time>
      </trkpt>
      <trkpt lat="46.17319" lon="4.56893">
        <ele>500</ele>
        <time>2020-10-17T09:49:13Z</time>
      </trkpt>
      <trkpt lat="46.17317" lon="4.5689">
        <ele>499.8</ele>
        <time>2020-10-17T09:49:14Z</time>
      </trkpt>
      <trkpt lat="46.17316" lon="4.56887">
        <ele>499.4</ele>
        <time>2020-10-17T09:49:15Z</time>
      </trkpt>
      <trkpt lat="46.17314" lon="4.56884">
        <ele>499.6</ele>
        <time>2020-10-17T09:49:16Z</time>
      </trkpt>
      <trkpt lat="46.17313" lon="4.56881">
        <ele>499.6</ele>
        <time>2020-10-17T09:49:17Z</time>
      </trkpt>
      <trkpt lat="46.17312" lon="4.56877">
        <ele>499.2</ele>
        <time>2020-10-17T09:49:18Z</time>
      </trkpt>
      <trkpt lat="46.1731" lon="4.56874">
        <ele>499</ele>
        <time>2020-10-17T09:49:19Z</time>
      </trkpt>
      <trkpt lat="46.17309" lon="4.56871">
        <ele>498.6</ele>
        <time>2020-10-17T09:49:20Z</time>
      </trkpt>
      <trkpt lat="46.17307" lon="4.56868">
        <ele>498.2</ele>
        <time>2020-10-17T09:49:21Z</time>
      </trkpt>
      <trkpt lat="46.17306" lon="4.56865">
        <ele>497.8</ele>
        <time>2020-10-17T09:49:22Z</time>
      </trkpt>
      <trkpt lat="46.17305" lon="4.56862">
        <ele>497.4</ele>
        <time>2020-10-17T09:49:23Z</time>
      </trkpt>
      <trkpt lat="46.17303" lon="4.56858">
        <ele>496.8</ele>
        <time>2020-10-17T09:49:24Z</time>
      </trkpt>
      <trkpt lat="46.17302" lon="4.56855">
        <ele>496.6</ele>
        <time>2020-10-17T09:49:25Z</time>
      </trkpt>
      <trkpt lat="46.17301" lon="4.56852">
        <ele>496</ele>
        <time>2020-10-17T09:49:26Z</time>
      </trkpt>
      <trkpt lat="46.173" lon="4.56848">
        <ele>495.6</ele>
        <time>2020-10-17T09:49:27Z</time>
      </trkpt>
      <trkpt lat="46.17298" lon="4.56844">
        <ele>495.4</ele>
        <time>2020-10-17T09:49:28Z</time>
      </trkpt>
      <trkpt lat="46.17297" lon="4.56841">
        <ele>494.8</ele>
        <time>2020-10-17T09:49:29Z</time>
      </trkpt>
      <trkpt lat="46.17296" lon="4.56837">
        <ele>494.2</ele>
        <time>2020-10-17T09:49:30Z</time>
      </trkpt>
      <trkpt lat="46.17295" lon="4.56834">
        <ele>494</ele>
        <time>2020-10-17T09:49:31Z</time>
      </trkpt>
      <trkpt lat="46.17294" lon="4.56831">
        <ele>493.6</ele>
        <time>2020-10-17T09:49:32Z</time>
      </trkpt>
      <trkpt lat="46.17292" lon="4.56827">
        <ele>493.2</ele>
        <time>2020-10-17T09:49:33Z</time>
      </trkpt>
      <trkpt lat="46.17291" lon="4.56824">
        <ele>492.8</ele>
        <time>2020-10-17T09:49:34Z</time>
      </trkpt>
      <trkpt lat="46.1729" lon="4.5682">
        <ele>492.4</ele>
        <time>2020-10-17T09:49:35Z</time>
      </trkpt>
      <trkpt lat="46.17289" lon="4.56817">
        <ele>492</ele>
        <time>2020-10-17T09:49:36Z</time>
      </trkpt>
      <trkpt lat="46.17287" lon="4.56814">
        <ele>492</ele>
        <time>2020-10-17T09:49:37Z</time>
      </trkpt>
      <trkpt lat="46.17286" lon="4.5681">
        <ele>491.6</ele>
        <time>2020-10-17T09:49:38Z</time>
      </trkpt>
      <trkpt lat="46.17284" lon="4.56807">
        <ele>491</ele>
        <time>2020-10-17T09:49:39Z</time>
      </trkpt>
      <trkpt lat="46.17283" lon="4.56803">
        <ele>491</ele>
        <time>2020-10-17T09:49:40Z</time>
      </trkpt>
      <trkpt lat="46.17281" lon="4.568">
        <ele>490.6</ele>
        <time>2020-10-17T09:49:41Z</time>
      </trkpt>
      <trkpt lat="46.1728" lon="4.56796">
        <ele>489.8</ele>
        <time>2020-10-17T09:49:42Z</time>
      </trkpt>
      <trkpt lat="46.17279" lon="4.56793">
        <ele>489.4</ele>
        <time>2020-10-17T09:49:43Z</time>
      </trkpt>
      <trkpt lat="46.17278" lon="4.56789">
        <ele>489</ele>
        <time>2020-10-17T09:49:44Z</time>
      </trkpt>
      <trkpt lat="46.17277" lon="4.56785">
        <ele>488.4</ele>
        <time>2020-10-17T09:49:45Z</time>
      </trkpt>
      <trkpt lat="46.17276" lon="4.56782">
        <ele>488.2</ele>
        <time>2020-10-17T09:49:46Z</time>
      </trkpt>
      <trkpt lat="46.17275" lon="4.56779">
        <ele>487.6</ele>
        <time>2020-10-17T09:49:47Z</time>
      </trkpt>
      <trkpt lat="46.17274" lon="4.56775">
        <ele>487.2</ele>
        <time>2020-10-17T09:49:48Z</time>
      </trkpt>
      <trkpt lat="46.17273" lon="4.56772">
        <ele>486.8</ele>
        <time>2020-10-17T09:49:49Z</time>
      </trkpt>
      <trkpt lat="46.17272" lon="4.56769">
        <ele>486.2</ele>
        <time>2020-10-17T09:49:50Z</time>
      </trkpt>
      <trkpt lat="46.17271" lon="4.56765">
        <ele>486.2</ele>
        <time>2020-10-17T09:49:51Z</time>
      </trkpt>
      <trkpt lat="46.1727" lon="4.56762">
        <ele>485.6</ele>
        <time>2020-10-17T09:49:52Z</time>
      </trkpt>
      <trkpt lat="46.17269" lon="4.56759">
        <ele>485</ele>
        <time>2020-10-17T09:49:53Z</time>
      </trkpt>
      <trkpt lat="46.17268" lon="4.56756">
        <ele>484.6</ele>
        <time>2020-10-17T09:49:54Z</time>
      </trkpt>
      <trkpt lat="46.17267" lon="4.56752">
        <ele>484</ele>
        <time>2020-10-17T09:49:55Z</time>
      </trkpt>
      <trkpt lat="46.17266" lon="4.56749">
        <ele>484</ele>
        <time>2020-10-17T09:49:56Z</time>
      </trkpt>
      <trkpt lat="46.17265" lon="4.56746">
        <ele>483.4</ele>
        <time>2020-10-17T09:49:57Z</time>
      </trkpt>
      <trkpt lat="46.17265" lon="4.56742">
        <ele>482.8</ele>
        <time>2020-10-17T09:49:58Z</time>
      </trkpt>
      <trkpt lat="46.17264" lon="4.56739">
        <ele>482</ele>
        <time>2020-10-17T09:49:59Z</time>
      </trkpt>
      <trkpt lat="46.17263" lon="4.56734">
        <ele>482</ele>
        <time>2020-10-17T09:50:00Z</time>
      </trkpt>
      <trkpt lat="46.17262" lon="4.56732">
        <ele>481</ele>
        <time>2020-10-17T09:50:01Z</time>
      </trkpt>
      <trkpt lat="46.17261" lon="4.56728">
        <ele>480.4</ele>
        <time>2020-10-17T09:50:02Z</time>
      </trkpt>
      <trkpt lat="46.1726" lon="4.56725">
        <ele>480</ele>
        <time>2020-10-17T09:50:03Z</time>
      </trkpt>
      <trkpt lat="46.17258" lon="4.56722">
        <ele>479.2</ele>
        <time>2020-10-17T09:50:04Z</time>
      </trkpt>
      <trkpt lat="46.17257" lon="4.5672">
        <ele>478.8</ele>
        <time>2020-10-17T09:50:05Z</time>
      </trkpt>
      <trkpt lat="46.17256" lon="4.56717">
        <ele>478</ele>
        <time>2020-10-17T09:50:06Z</time>
      </trkpt>
      <trkpt lat="46.17256" lon="4.56717">
        <ele>477.4</ele>
        <time>2020-10-17T09:50:07Z</time>
      </trkpt>
      <trkpt lat="46.17254" lon="4.56712">
        <ele>476.8</ele>
        <time>2020-10-17T09:50:08Z</time>
      </trkpt>
      <trkpt lat="46.17251" lon="4.56708">
        <ele>476.4</ele>
        <time>2020-10-17T09:50:09Z</time>
      </trkpt>
      <trkpt lat="46.1725" lon="4.56707">
        <ele>475.8</ele>
        <time>2020-10-17T09:50:10Z</time>
      </trkpt>
      <trkpt lat="46.17249" lon="4.56703">
        <ele>475</ele>
        <time>2020-10-17T09:50:11Z</time>
      </trkpt>
      <trkpt lat="46.17247" lon="4.567">
        <ele>474.8</ele>
        <time>2020-10-17T09:50:12Z</time>
      </trkpt>
      <trkpt lat="46.17245" lon="4.56698">
        <ele>474</ele>
        <time>2020-10-17T09:50:13Z</time>
      </trkpt>
      <trkpt lat="46.17243" lon="4.56696">
        <ele>473.4</ele>
        <time>2020-10-17T09:50:14Z</time>
      </trkpt>
      <trkpt lat="46.17241" lon="4.56693">
        <ele>472.6</ele>
        <time>2020-10-17T09:50:15Z</time>
      </trkpt>
      <trkpt lat="46.17239" lon="4.5669">
        <ele>471.8</ele>
        <time>2020-10-17T09:50:16Z</time>
      </trkpt>
      <trkpt lat="46.17238" lon="4.56688">
        <ele>471.6</ele>
        <time>2020-10-17T09:50:17Z</time>
      </trkpt>
      <trkpt lat="46.17236" lon="4.56685">
        <ele>471</ele>
        <time>2020-10-17T09:50:18Z</time>
      </trkpt>
      <trkpt lat="46.17234" lon="4.56683">
        <ele>470.4</ele>
        <time>2020-10-17T09:50:19Z</time>
      </trkpt>
      <trkpt lat="46.17232" lon="4.56681">
        <ele>470.2</ele>
        <time>2020-10-17T09:50:20Z</time>
      </trkpt>
      <trkpt lat="46.1723" lon="4.56678">
        <ele>469.4</ele>
        <time>2020-10-17T09:50:21Z</time>
      </trkpt>
      <trkpt lat="46.17228" lon="4.56676">
        <ele>469.2</ele>
        <time>2020-10-17T09:50:22Z</time>
      </trkpt>
      <trkpt lat="46.17226" lon="4.56674">
        <ele>468.8</ele>
        <time>2020-10-17T09:50:23Z</time>
      </trkpt>
      <trkpt lat="46.17224" lon="4.56671">
        <ele>468</ele>
        <time>2020-10-17T09:50:24Z</time>
      </trkpt>
      <trkpt lat="46.17222" lon="4.56668">
        <ele>467.8</ele>
        <time>2020-10-17T09:50:25Z</time>
      </trkpt>
      <trkpt lat="46.1722" lon="4.56666">
        <ele>467</ele>
        <time>2020-10-17T09:50:26Z</time>
      </trkpt>
      <trkpt lat="46.17218" lon="4.56664">
        <ele>466.6</ele>
        <time>2020-10-17T09:50:27Z</time>
      </trkpt>
      <trkpt lat="46.17216" lon="4.56661">
        <ele>466</ele>
        <time>2020-10-17T09:50:28Z</time>
      </trkpt>
      <trkpt lat="46.17214" lon="4.56659">
        <ele>465.2</ele>
        <time>2020-10-17T09:50:29Z</time>
      </trkpt>
      <trkpt lat="46.17212" lon="4.56656">
        <ele>464.8</ele>
        <time>2020-10-17T09:50:30Z</time>
      </trkpt>
      <trkpt lat="46.17211" lon="4.56654">
        <ele>464.2</ele>
        <time>2020-10-17T09:50:31Z</time>
      </trkpt>
      <trkpt lat="46.17208" lon="4.56652">
        <ele>464</ele>
        <time>2020-10-17T09:50:32Z</time>
      </trkpt>
      <trkpt lat="46.17206" lon="4.56649">
        <ele>463.8</ele>
        <time>2020-10-17T09:50:33Z</time>
      </trkpt>
      <trkpt lat="46.17204" lon="4.56646">
        <ele>463</ele>
        <time>2020-10-17T09:50:34Z</time>
      </trkpt>
      <trkpt lat="46.17202" lon="4.56645">
        <ele>462.6</ele>
        <time>2020-10-17T09:50:35Z</time>
      </trkpt>
      <trkpt lat="46.172" lon="4.56643">
        <ele>462</ele>
        <time>2020-10-17T09:50:36Z</time>
      </trkpt>
      <trkpt lat="46.17197" lon="4.56641">
        <ele>461.2</ele>
        <time>2020-10-17T09:50:37Z</time>
      </trkpt>
      <trkpt lat="46.17195" lon="4.56638">
        <ele>460.8</ele>
        <time>2020-10-17T09:50:38Z</time>
      </trkpt>
      <trkpt lat="46.17193" lon="4.56636">
        <ele>460.2</ele>
        <time>2020-10-17T09:50:39Z</time>
      </trkpt>
      <trkpt lat="46.17191" lon="4.56634">
        <ele>459.8</ele>
        <time>2020-10-17T09:50:40Z</time>
      </trkpt>
      <trkpt lat="46.17188" lon="4.56633">
        <ele>459.8</ele>
        <time>2020-10-17T09:50:41Z</time>
      </trkpt>
      <trkpt lat="46.17186" lon="4.56632">
        <ele>459.4</ele>
        <time>2020-10-17T09:50:42Z</time>
      </trkpt>
      <trkpt lat="46.17184" lon="4.56631">
        <ele>458.8</ele>
        <time>2020-10-17T09:50:43Z</time>
      </trkpt>
      <trkpt lat="46.17182" lon="4.5663">
        <ele>458.2</ele>
        <time>2020-10-17T09:50:44Z</time>
      </trkpt>
      <trkpt lat="46.1718" lon="4.56629">
        <ele>457.6</ele>
        <time>2020-10-17T09:50:45Z</time>
      </trkpt>
      <trkpt lat="46.17178" lon="4.56628">
        <ele>457.2</ele>
        <time>2020-10-17T09:50:46Z</time>
      </trkpt>
      <trkpt lat="46.17176" lon="4.56626">
        <ele>456.8</ele>
        <time>2020-10-17T09:50:47Z</time>
      </trkpt>
      <trkpt lat="46.17173" lon="4.56624">
        <ele>455.8</ele>
        <time>2020-10-17T09:50:48Z</time>
      </trkpt>
      <trkpt lat="46.17171" lon="4.56623">
        <ele>455.2</ele>
        <time>2020-10-17T09:50:49Z</time>
      </trkpt>
      <trkpt lat="46.17169" lon="4.56621">
        <ele>454.4</ele>
        <time>2020-10-17T09:50:50Z</time>
      </trkpt>
      <trkpt lat="46.17166" lon="4.56618">
        <ele>453.4</ele>
        <time>2020-10-17T09:50:51Z</time>
      </trkpt>
      <trkpt lat="46.17164" lon="4.56616">
        <ele>453.2</ele>
        <time>2020-10-17T09:50:52Z</time>
      </trkpt>
      <trkpt lat="46.17162" lon="4.56613">
        <ele>452.6</ele>
        <time>2020-10-17T09:50:53Z</time>
      </trkpt>
      <trkpt lat="46.17161" lon="4.56608">
        <ele>452</ele>
        <time>2020-10-17T09:50:54Z</time>
      </trkpt>
      <trkpt lat="46.17161" lon="4.56604">
        <ele>451.8</ele>
        <time>2020-10-17T09:50:55Z</time>
      </trkpt>
      <trkpt lat="46.17161" lon="4.56599">
        <ele>451.4</ele>
        <time>2020-10-17T09:50:56Z</time>
      </trkpt>
      <trkpt lat="46.17162" lon="4.56594">
        <ele>450.8</ele>
        <time>2020-10-17T09:50:57Z</time>
      </trkpt>
      <trkpt lat="46.17163" lon="4.5659">
        <ele>450.6</ele>
        <time>2020-10-17T09:50:58Z</time>
      </trkpt>
      <trkpt lat="46.17164" lon="4.56587">
        <ele>449.6</ele>
        <time>2020-10-17T09:50:59Z</time>
      </trkpt>
      <trkpt lat="46.17166" lon="4.56583">
        <ele>449.4</ele>
        <time>2020-10-17T09:51:00Z</time>
      </trkpt>
      <trkpt lat="46.17168" lon="4.56581">
        <ele>448.8</ele>
        <time>2020-10-17T09:51:01Z</time>
      </trkpt>
      <trkpt lat="46.1717" lon="4.56577">
        <ele>448.4</ele>
        <time>2020-10-17T09:51:02Z</time>
      </trkpt>
      <trkpt lat="46.17171" lon="4.56574">
        <ele>448</ele>
        <time>2020-10-17T09:51:03Z</time>
      </trkpt>
      <trkpt lat="46.17173" lon="4.56571">
        <ele>447.8</ele>
        <time>2020-10-17T09:51:04Z</time>
      </trkpt>
      <trkpt lat="46.17175" lon="4.56567">
        <ele>446.8</ele>
        <time>2020-10-17T09:51:05Z</time>
      </trkpt>
      <trkpt lat="46.17176" lon="4.56564">
        <ele>446.6</ele>
        <time>2020-10-17T09:51:06Z</time>
      </trkpt>
      <trkpt lat="46.17178" lon="4.56561">
        <ele>446.4</ele>
        <time>2020-10-17T09:51:07Z</time>
      </trkpt>
      <trkpt lat="46.1718" lon="4.56557">
        <ele>445.6</ele>
        <time>2020-10-17T09:51:08Z</time>
      </trkpt>
      <trkpt lat="46.17182" lon="4.56554">
        <ele>445.8</ele>
        <time>2020-10-17T09:51:09Z</time>
      </trkpt>
      <trkpt lat="46.17184" lon="4.56551">
        <ele>445.8</ele>
        <time>2020-10-17T09:51:10Z</time>
      </trkpt>
      <trkpt lat="46.17186" lon="4.56548">
        <ele>445.2</ele>
        <time>2020-10-17T09:51:11Z</time>
      </trkpt>
      <trkpt lat="46.17188" lon="4.56546">
        <ele>445.4</ele>
        <time>2020-10-17T09:51:12Z</time>
      </trkpt>
      <trkpt lat="46.1719" lon="4.56545">
        <ele>445</ele>
        <time>2020-10-17T09:51:13Z</time>
      </trkpt>
      <trkpt lat="46.17192" lon="4.56544">
        <ele>444.6</ele>
        <time>2020-10-17T09:51:14Z</time>
      </trkpt>
      <trkpt lat="46.17193" lon="4.56543">
        <ele>444.6</ele>
        <time>2020-10-17T09:51:15Z</time>
      </trkpt>
      <trkpt lat="46.17193" lon="4.56543">
        <ele>444.4</ele>
        <time>2020-10-17T09:51:16Z</time>
      </trkpt>
      <trkpt lat="46.17196" lon="4.56541">
        <ele>444.2</ele>
        <time>2020-10-17T09:51:17Z</time>
      </trkpt>
      <trkpt lat="46.17198" lon="4.5654">
        <ele>444.2</ele>
        <time>2020-10-17T09:51:18Z</time>
      </trkpt>
      <trkpt lat="46.172" lon="4.56539">
        <ele>444</ele>
        <time>2020-10-17T09:51:19Z</time>
      </trkpt>
      <trkpt lat="46.17202" lon="4.56538">
        <ele>444</ele>
        <time>2020-10-17T09:51:20Z</time>
      </trkpt>
      <trkpt lat="46.17202" lon="4.56538">
        <ele>444.2</ele>
        <time>2020-10-17T09:51:21Z</time>
      </trkpt>
      <trkpt lat="46.17205" lon="4.56536">
        <ele>444.2</ele>
        <time>2020-10-17T09:51:22Z</time>
      </trkpt>
      <trkpt lat="46.17205" lon="4.56536">
        <ele>444.4</ele>
        <time>2020-10-17T09:51:23Z</time>
      </trkpt>
      <trkpt lat="46.17207" lon="4.56536">
        <ele>444.6</ele>
        <time>2020-10-17T09:51:24Z</time>
      </trkpt>
      <trkpt lat="46.17207" lon="4.56536">
        <ele>445</ele>
        <time>2020-10-17T09:51:25Z</time>
      </trkpt>
      <trkpt lat="46.1721" lon="4.56536">
        <ele>445.2</ele>
        <time>2020-10-17T09:51:26Z</time>
      </trkpt>
      <trkpt lat="46.1721" lon="4.56536">
        <ele>445.2</ele>
        <time>2020-10-17T09:51:27Z</time>
      </trkpt>
      <trkpt lat="46.17212" lon="4.56535">
        <ele>445.6</ele>
        <time>2020-10-17T09:51:28Z</time>
      </trkpt>
      <trkpt lat="46.17212" lon="4.56535">
        <ele>445.8</ele>
        <time>2020-10-17T09:51:29Z</time>
      </trkpt>
      <trkpt lat="46.17214" lon="4.56536">
        <ele>445.8</ele>
        <time>2020-10-17T09:51:30Z</time>
      </trkpt>
      <trkpt lat="46.17214" lon="4.56536">
        <ele>446</ele>
        <time>2020-10-17T09:51:31Z</time>
      </trkpt>
      <trkpt lat="46.17214" lon="4.56536">
        <ele>446.2</ele>
        <time>2020-10-17T09:51:32Z</time>
      </trkpt>
      <trkpt lat="46.17217" lon="4.56535">
        <ele>446.2</ele>
        <time>2020-10-17T09:51:33Z</time>
      </trkpt>
      <trkpt lat="46.17217" lon="4.56535">
        <ele>446.4</ele>
        <time>2020-10-17T09:51:34Z</time>
      </trkpt>
      <trkpt lat="46.17217" lon="4.56535">
        <ele>446.6</ele>
        <time>2020-10-17T09:51:35Z</time>
      </trkpt>
      <trkpt lat="46.17219" lon="4.56535">
        <ele>446.6</ele>
        <time>2020-10-17T09:51:36Z</time>
      </trkpt>
      <trkpt lat="46.17219" lon="4.56535">
        <ele>446.8</ele>
        <time>2020-10-17T09:51:37Z</time>
      </trkpt>
      <trkpt lat="46.17221" lon="4.56535">
        <ele>446.6</ele>
        <time>2020-10-17T09:51:38Z</time>
      </trkpt>
      <trkpt lat="46.17221" lon="4.56535">
        <ele>446.6</ele>
        <time>2020-10-17T09:51:39Z</time>
      </trkpt>
      <trkpt lat="46.17221" lon="4.56535">
        <ele>446.6</ele>
        <time>2020-10-17T09:51:40Z</time>
      </trkpt>
      <trkpt lat="46.17221" lon="4.56535">
        <ele>446.8</ele>
        <time>2020-10-17T09:51:41Z</time>
      </trkpt>
      <trkpt lat="46.17221" lon="4.56535">
        <ele>447</ele>
        <time>2020-10-17T09:51:42Z</time>
      </trkpt>
      <trkpt lat="46.17221" lon="4.56535">
        <ele>447.2</ele>
        <time>2020-10-17T09:51:43Z</time>
      </trkpt>
      <trkpt lat="46.17221" lon="4.56535">
        <ele>447.4</ele>
        <time>2020-10-17T09:51:44Z</time>
      </trkpt>
      <trkpt lat="46.17221" lon="4.56535">
        <ele>447.6</ele>
        <time>2020-10-17T09:51:45Z</time>
      </trkpt>
      <trkpt lat="46.17221" lon="4.56535">
        <ele>447.6</ele>
        <time>2020-10-17T09:51:46Z</time>
      </trkpt>
      <trkpt lat="46.17221" lon="4.56535">
        <ele>447.6</ele>
        <time>2020-10-17T09:51:47Z</time>
      </trkpt>
      <trkpt lat="46.17221" lon="4.56535">
        <ele>447.4</ele>
        <time>2020-10-17T09:51:48Z</time>
      </trkpt>
      <trkpt lat="46.17221" lon="4.56535">
        <ele>447.4</ele>
        <time>2020-10-17T09:51:49Z</time>
      </trkpt>
      <trkpt lat="46.17221" lon="4.56535">
        <ele>447.4</ele>
        <time>2020-10-17T09:51:50Z</time>
      </trkpt>
      <trkpt lat="46.17221" lon="4.56535">
        <ele>447.6</ele>
        <time>2020-10-17T09:51:51Z</time>
      </trkpt>
      <trkpt lat="46.17221" lon="4.56535">
        <ele>447.8</ele>
        <time>2020-10-17T09:51:52Z</time>
      </trkpt>
      <trkpt lat="46.17221" lon="4.56535">
        <ele>447.6</ele>
        <time>2020-10-17T09:51:53Z</time>
      </trkpt>
      <trkpt lat="46.17221" lon="4.56535">
        <ele>447.8</ele>
        <time>2020-10-17T09:51:54Z</time>
      </trkpt>
      <trkpt lat="46.17221" lon="4.56535">
        <ele>447.6</ele>
        <time>2020-10-17T09:51:55Z</time>
      </trkpt>
      <trkpt lat="46.17221" lon="4.56535">
        <ele>447.4</ele>
        <time>2020-10-17T09:51:56Z</time>
      </trkpt>
      <trkpt lat="46.17221" lon="4.56535">
        <ele>447.4</ele>
        <time>2020-10-17T09:51:57Z</time>
      </trkpt>
      <trkpt lat="46.17221" lon="4.56535">
        <ele>447.4</ele>
        <time>2020-10-17T09:51:58Z</time>
      </trkpt>
      <trkpt lat="46.17221" lon="4.56535">
        <ele>447.4</ele>
        <time>2020-10-17T09:51:59Z</time>
      </trkpt>
      <trkpt lat="46.17221" lon="4.56535">
        <ele>447.4</ele>
        <time>2020-10-17T09:52:00Z</time>
      </trkpt>
      <trkpt lat="46.17221" lon="4.56535">
        <ele>447.4</ele>
        <time>2020-10-17T09:52:01Z</time>
      </trkpt>
      <trkpt lat="46.17221" lon="4.56535">
        <ele>447.4</ele>
        <time>2020-10-17T09:52:02Z</time>
      </trkpt>
      <trkpt lat="46.17221" lon="4.56535">
        <ele>447.4</ele>
        <time>2020-10-17T09:52:03Z</time>
      </trkpt>
      <trkpt lat="46.17221" lon="4.56535">
        <ele>447.2</ele>
        <time>2020-10-17T09:52:04Z</time>
      </trkpt>
      <trkpt lat="46.17221" lon="4.56535">
        <ele>447.2</ele>
        <time>2020-10-17T09:52:05Z</time>
      </trkpt>
      <trkpt lat="46.17224" lon="4.56534">
        <ele>447.2</ele>
        <time>2020-10-17T09:52:06Z</time>
      </trkpt>
      <trkpt lat="46.17224" lon="4.56534">
        <ele>447.2</ele>
        <time>2020-10-17T09:52:07Z</time>
      </trkpt>
      <trkpt lat="46.17226" lon="4.56533">
        <ele>447.2</ele>
        <time>2020-10-17T09:52:08Z</time>
      </trkpt>
      <trkpt lat="46.17226" lon="4.56533">
        <ele>447.2</ele>
        <time>2020-10-17T09:52:09Z</time>
      </trkpt>
      <trkpt lat="46.17229" lon="4.56531">
        <ele>447.2</ele>
        <time>2020-10-17T09:52:10Z</time>
      </trkpt>
      <trkpt lat="46.17229" lon="4.56531">
        <ele>447</ele>
        <time>2020-10-17T09:52:11Z</time>
      </trkpt>
      <trkpt lat="46.17232" lon="4.56529">
        <ele>447</ele>
        <time>2020-10-17T09:52:12Z</time>
      </trkpt>
      <trkpt lat="46.17232" lon="4.56529">
        <ele>447.2</ele>
        <time>2020-10-17T09:52:13Z</time>
      </trkpt>
      <trkpt lat="46.17235" lon="4.56527">
        <ele>447</ele>
        <time>2020-10-17T09:52:14Z</time>
      </trkpt>
      <trkpt lat="46.17235" lon="4.56527">
        <ele>446.8</ele>
        <time>2020-10-17T09:52:15Z</time>
      </trkpt>
      <trkpt lat="46.17238" lon="4.56526">
        <ele>447</ele>
        <time>2020-10-17T09:52:16Z</time>
      </trkpt>
      <trkpt lat="46.17238" lon="4.56526">
        <ele>447</ele>
        <time>2020-10-17T09:52:17Z</time>
      </trkpt>
      <trkpt lat="46.1724" lon="4.56524">
        <ele>447</ele>
        <time>2020-10-17T09:52:18Z</time>
      </trkpt>
      <trkpt lat="46.1724" lon="4.56524">
        <ele>447</ele>
        <time>2020-10-17T09:52:19Z</time>
      </trkpt>
      <trkpt lat="46.17243" lon="4.56522">
        <ele>447</ele>
        <time>2020-10-17T09:52:20Z</time>
      </trkpt>
      <trkpt lat="46.17243" lon="4.56522">
        <ele>446.8</ele>
        <time>2020-10-17T09:52:21Z</time>
      </trkpt>
      <trkpt lat="46.17246" lon="4.56519">
        <ele>446.6</ele>
        <time>2020-10-17T09:52:22Z</time>
      </trkpt>
      <trkpt lat="46.17246" lon="4.56519">
        <ele>446.4</ele>
        <time>2020-10-17T09:52:23Z</time>
      </trkpt>
      <trkpt lat="46.17249" lon="4.56517">
        <ele>446.4</ele>
        <time>2020-10-17T09:52:24Z</time>
      </trkpt>
      <trkpt lat="46.17251" lon="4.56516">
        <ele>446.6</ele>
        <time>2020-10-17T09:52:25Z</time>
      </trkpt>
      <trkpt lat="46.17251" lon="4.56516">
        <ele>446.6</ele>
        <time>2020-10-17T09:52:26Z</time>
      </trkpt>
      <trkpt lat="46.17253" lon="4.56513">
        <ele>446.8</ele>
        <time>2020-10-17T09:52:27Z</time>
      </trkpt>
      <trkpt lat="46.17253" lon="4.56513">
        <ele>446.6</ele>
        <time>2020-10-17T09:52:28Z</time>
      </trkpt>
      <trkpt lat="46.17256" lon="4.5651">
        <ele>446.6</ele>
        <time>2020-10-17T09:52:29Z</time>
      </trkpt>
      <trkpt lat="46.17256" lon="4.5651">
        <ele>446.4</ele>
        <time>2020-10-17T09:52:30Z</time>
      </trkpt>
      <trkpt lat="46.17259" lon="4.56508">
        <ele>446.2</ele>
        <time>2020-10-17T09:52:31Z</time>
      </trkpt>
      <trkpt lat="46.17259" lon="4.56508">
        <ele>446.2</ele>
        <time>2020-10-17T09:52:32Z</time>
      </trkpt>
      <trkpt lat="46.17262" lon="4.56506">
        <ele>445.8</ele>
        <time>2020-10-17T09:52:33Z</time>
      </trkpt>
      <trkpt lat="46.17262" lon="4.56506">
        <ele>445.8</ele>
        <time>2020-10-17T09:52:34Z</time>
      </trkpt>
      <trkpt lat="46.17265" lon="4.56504">
        <ele>445.8</ele>
        <time>2020-10-17T09:52:35Z</time>
      </trkpt>
      <trkpt lat="46.17265" lon="4.56504">
        <ele>445.6</ele>
        <time>2020-10-17T09:52:36Z</time>
      </trkpt>
      <trkpt lat="46.17268" lon="4.56502">
        <ele>445.4</ele>
        <time>2020-10-17T09:52:37Z</time>
      </trkpt>
      <trkpt lat="46.17268" lon="4.56502">
        <ele>445.2</ele>
        <time>2020-10-17T09:52:38Z</time>
      </trkpt>
      <trkpt lat="46.17271" lon="4.56501">
        <ele>445.2</ele>
        <time>2020-10-17T09:52:39Z</time>
      </trkpt>
      <trkpt lat="46.17273" lon="4.565">
        <ele>445.2</ele>
        <time>2020-10-17T09:52:40Z</time>
      </trkpt>
      <trkpt lat="46.17275" lon="4.56501">
        <ele>445.2</ele>
        <time>2020-10-17T09:52:41Z</time>
      </trkpt>
      <trkpt lat="46.17276" lon="4.56503">
        <ele>445.2</ele>
        <time>2020-10-17T09:52:42Z</time>
      </trkpt>
      <trkpt lat="46.17276" lon="4.56503">
        <ele>444.8</ele>
        <time>2020-10-17T09:52:43Z</time>
      </trkpt>
      <trkpt lat="46.17279" lon="4.56507">
        <ele>445.2</ele>
        <time>2020-10-17T09:52:44Z</time>
      </trkpt>
      <trkpt lat="46.17279" lon="4.5651">
        <ele>445</ele>
        <time>2020-10-17T09:52:45Z</time>
      </trkpt>
      <trkpt lat="46.17279" lon="4.5651">
        <ele>445</ele>
        <time>2020-10-17T09:52:46Z</time>
      </trkpt>
      <trkpt lat="46.17282" lon="4.56514">
        <ele>444.6</ele>
        <time>2020-10-17T09:52:47Z</time>
      </trkpt>
      <trkpt lat="46.17283" lon="4.56516">
        <ele>444.8</ele>
        <time>2020-10-17T09:52:48Z</time>
      </trkpt>
      <trkpt lat="46.17284" lon="4.56518">
        <ele>444.6</ele>
        <time>2020-10-17T09:52:49Z</time>
      </trkpt>
      <trkpt lat="46.17285" lon="4.5652">
        <ele>444.4</ele>
        <time>2020-10-17T09:52:50Z</time>
      </trkpt>
      <trkpt lat="46.17287" lon="4.56523">
        <ele>444.6</ele>
        <time>2020-10-17T09:52:51Z</time>
      </trkpt>
      <trkpt lat="46.17288" lon="4.56525">
        <ele>444.4</ele>
        <time>2020-10-17T09:52:52Z</time>
      </trkpt>
      <trkpt lat="46.17289" lon="4.56528">
        <ele>443.8</ele>
        <time>2020-10-17T09:52:53Z</time>
      </trkpt>
      <trkpt lat="46.1729" lon="4.5653">
        <ele>444.2</ele>
        <time>2020-10-17T09:52:54Z</time>
      </trkpt>
      <trkpt lat="46.17292" lon="4.56532">
        <ele>444</ele>
        <time>2020-10-17T09:52:55Z</time>
      </trkpt>
      <trkpt lat="46.17293" lon="4.56535">
        <ele>443.8</ele>
        <time>2020-10-17T09:52:56Z</time>
      </trkpt>
      <trkpt lat="46.17294" lon="4.56537">
        <ele>443.6</ele>
        <time>2020-10-17T09:52:57Z</time>
      </trkpt>
      <trkpt lat="46.17294" lon="4.56537">
        <ele>443.6</ele>
        <time>2020-10-17T09:52:58Z</time>
      </trkpt>
      <trkpt lat="46.17296" lon="4.56541">
        <ele>443.6</ele>
        <time>2020-10-17T09:52:59Z</time>
      </trkpt>
      <trkpt lat="46.17296" lon="4.56541">
        <ele>443.2</ele>
        <time>2020-10-17T09:53:00Z</time>
      </trkpt>
      <trkpt lat="46.17296" lon="4.56541">
        <ele>443.2</ele>
        <time>2020-10-17T09:53:01Z</time>
      </trkpt>
      <trkpt lat="46.17298" lon="4.56544">
        <ele>443</ele>
        <time>2020-10-17T09:53:02Z</time>
      </trkpt>
      <trkpt lat="46.17298" lon="4.56544">
        <ele>443</ele>
        <time>2020-10-17T09:53:03Z</time>
      </trkpt>
      <trkpt lat="46.17298" lon="4.56544">
        <ele>443.2</ele>
        <time>2020-10-17T09:53:04Z</time>
      </trkpt>
      <trkpt lat="46.17298" lon="4.56547">
        <ele>443.2</ele>
        <time>2020-10-17T09:53:05Z</time>
      </trkpt>
      <trkpt lat="46.17298" lon="4.56547">
        <ele>443.4</ele>
        <time>2020-10-17T09:53:06Z</time>
      </trkpt>
      <trkpt lat="46.17298" lon="4.56547">
        <ele>443.6</ele>
        <time>2020-10-17T09:53:07Z</time>
      </trkpt>
      <trkpt lat="46.17296" lon="4.56544">
        <ele>443.8</ele>
        <time>2020-10-17T09:53:08Z</time>
      </trkpt>
      <trkpt lat="46.17296" lon="4.56544">
        <ele>444</ele>
        <time>2020-10-17T09:53:09Z</time>
      </trkpt>
      <trkpt lat="46.17294" lon="4.56541">
        <ele>444</ele>
        <time>2020-10-17T09:53:10Z</time>
      </trkpt>
      <trkpt lat="46.17294" lon="4.56541">
        <ele>443.8</ele>
        <time>2020-10-17T09:53:11Z</time>
      </trkpt>
      <trkpt lat="46.17292" lon="4.56538">
        <ele>443.6</ele>
        <time>2020-10-17T09:53:12Z</time>
      </trkpt>
      <trkpt lat="46.17292" lon="4.56538">
        <ele>443.8</ele>
        <time>2020-10-17T09:53:13Z</time>
      </trkpt>
      <trkpt lat="46.1729" lon="4.56534">
        <ele>443.8</ele>
        <time>2020-10-17T09:53:14Z</time>
      </trkpt>
      <trkpt lat="46.1729" lon="4.56534">
        <ele>443.8</ele>
        <time>2020-10-17T09:53:15Z</time>
      </trkpt>
      <trkpt lat="46.17288" lon="4.5653">
        <ele>443.8</ele>
        <time>2020-10-17T09:53:16Z</time>
      </trkpt>
      <trkpt lat="46.17288" lon="4.5653">
        <ele>443.6</ele>
        <time>2020-10-17T09:53:17Z</time>
      </trkpt>
      <trkpt lat="46.17287" lon="4.56527">
        <ele>443.4</ele>
        <time>2020-10-17T09:53:18Z</time>
      </trkpt>
      <trkpt lat="46.17287" lon="4.56527">
        <ele>443.2</ele>
        <time>2020-10-17T09:53:19Z</time>
      </trkpt>
      <trkpt lat="46.17286" lon="4.56523">
        <ele>443.2</ele>
        <time>2020-10-17T09:53:20Z</time>
      </trkpt>
      <trkpt lat="46.17286" lon="4.56523">
        <ele>443.2</ele>
        <time>2020-10-17T09:53:21Z</time>
      </trkpt>
      <trkpt lat="46.17285" lon="4.5652">
        <ele>443.4</ele>
        <time>2020-10-17T09:53:22Z</time>
      </trkpt>
      <trkpt lat="46.17285" lon="4.5652">
        <ele>443.6</ele>
        <time>2020-10-17T09:53:23Z</time>
      </trkpt>
      <trkpt lat="46.17284" lon="4.56516">
        <ele>443.8</ele>
        <time>2020-10-17T09:53:24Z</time>
      </trkpt>
      <trkpt lat="46.17284" lon="4.56516">
        <ele>443.8</ele>
        <time>2020-10-17T09:53:25Z</time>
      </trkpt>
      <trkpt lat="46.17283" lon="4.56512">
        <ele>443.8</ele>
        <time>2020-10-17T09:53:26Z</time>
      </trkpt>
      <trkpt lat="46.17283" lon="4.56512">
        <ele>443.8</ele>
        <time>2020-10-17T09:53:27Z</time>
      </trkpt>
      <trkpt lat="46.17284" lon="4.56508">
        <ele>444</ele>
        <time>2020-10-17T09:53:28Z</time>
      </trkpt>
      <trkpt lat="46.17284" lon="4.56508">
        <ele>444</ele>
        <time>2020-10-17T09:53:29Z</time>
      </trkpt>
      <trkpt lat="46.17284" lon="4.56508">
        <ele>444</ele>
        <time>2020-10-17T09:53:30Z</time>
      </trkpt>
      <trkpt lat="46.17286" lon="4.56507">
        <ele>444</ele>
        <time>2020-10-17T09:53:31Z</time>
      </trkpt>
      <trkpt lat="46.17286" lon="4.56507">
        <ele>443.8</ele>
        <time>2020-10-17T09:53:32Z</time>
      </trkpt>
      <trkpt lat="46.17289" lon="4.5651">
        <ele>444</ele>
        <time>2020-10-17T09:53:33Z</time>
      </trkpt>
      <trkpt lat="46.1729" lon="4.56512">
        <ele>443.8</ele>
        <time>2020-10-17T09:53:34Z</time>
      </trkpt>
      <trkpt lat="46.17292" lon="4.56515">
        <ele>443.6</ele>
        <time>2020-10-17T09:53:35Z</time>
      </trkpt>
      <trkpt lat="46.17294" lon="4.56518">
        <ele>443.2</ele>
        <time>2020-10-17T09:53:36Z</time>
      </trkpt>
      <trkpt lat="46.17295" lon="4.56521">
        <ele>443</ele>
        <time>2020-10-17T09:53:37Z</time>
      </trkpt>
      <trkpt lat="46.17297" lon="4.56523">
        <ele>442.4</ele>
        <time>2020-10-17T09:53:38Z</time>
      </trkpt>
      <trkpt lat="46.17299" lon="4.56527">
        <ele>442</ele>
        <time>2020-10-17T09:53:39Z</time>
      </trkpt>
      <trkpt lat="46.173" lon="4.56529">
        <ele>441.2</ele>
        <time>2020-10-17T09:53:40Z</time>
      </trkpt>
      <trkpt lat="46.17301" lon="4.56533">
        <ele>440.8</ele>
        <time>2020-10-17T09:53:41Z</time>
      </trkpt>
      <trkpt lat="46.17303" lon="4.56536">
        <ele>440.8</ele>
        <time>2020-10-17T09:53:42Z</time>
      </trkpt>
      <trkpt lat="46.17304" lon="4.56539">
        <ele>440</ele>
        <time>2020-10-17T09:53:43Z</time>
      </trkpt>
      <trkpt lat="46.17305" lon="4.56541">
        <ele>439.6</ele>
        <time>2020-10-17T09:53:44Z</time>
      </trkpt>
      <trkpt lat="46.17306" lon="4.56544">
        <ele>439.6</ele>
        <time>2020-10-17T09:53:45Z</time>
      </trkpt>
      <trkpt lat="46.17308" lon="4.56546">
        <ele>439</ele>
        <time>2020-10-17T09:53:46Z</time>
      </trkpt>
      <trkpt lat="46.1731" lon="4.56549">
        <ele>438.6</ele>
        <time>2020-10-17T09:53:47Z</time>
      </trkpt>
      <trkpt lat="46.17311" lon="4.56552">
        <ele>438.6</ele>
        <time>2020-10-17T09:53:48Z</time>
      </trkpt>
      <trkpt lat="46.17313" lon="4.56554">
        <ele>438</ele>
        <time>2020-10-17T09:53:49Z</time>
      </trkpt>
      <trkpt lat="46.17314" lon="4.56557">
        <ele>437.8</ele>
        <time>2020-10-17T09:53:50Z</time>
      </trkpt>
      <trkpt lat="46.17315" lon="4.56559">
        <ele>437.8</ele>
        <time>2020-10-17T09:53:51Z</time>
      </trkpt>
      <trkpt lat="46.17318" lon="4.56562">
        <ele>437.4</ele>
        <time>2020-10-17T09:53:52Z</time>
      </trkpt>
      <trkpt lat="46.17319" lon="4.56563">
        <ele>437</ele>
        <time>2020-10-17T09:53:53Z</time>
      </trkpt>
      <trkpt lat="46.1732" lon="4.56566">
        <ele>437</ele>
        <time>2020-10-17T09:53:54Z</time>
      </trkpt>
      <trkpt lat="46.1732" lon="4.56566">
        <ele>436.4</ele>
        <time>2020-10-17T09:53:55Z</time>
      </trkpt>
      <trkpt lat="46.1732" lon="4.56566">
        <ele>436.2</ele>
        <time>2020-10-17T09:53:56Z</time>
      </trkpt>
      <trkpt lat="46.17321" lon="4.56567">
        <ele>436</ele>
        <time>2020-10-17T09:53:57Z</time>
      </trkpt>
      <trkpt lat="46.17322" lon="4.56568">
        <ele>435.2</ele>
        <time>2020-10-17T09:53:58Z</time>
      </trkpt>
      <trkpt lat="46.17324" lon="4.5657">
        <ele>435.2</ele>
        <time>2020-10-17T09:53:59Z</time>
      </trkpt>
      <trkpt lat="46.17325" lon="4.56571">
        <ele>434.6</ele>
        <time>2020-10-17T09:54:00Z</time>
      </trkpt>
      <trkpt lat="46.17326" lon="4.56573">
        <ele>434.2</ele>
        <time>2020-10-17T09:54:01Z</time>
      </trkpt>
      <trkpt lat="46.17327" lon="4.56574">
        <ele>434</ele>
        <time>2020-10-17T09:54:02Z</time>
      </trkpt>
      <trkpt lat="46.17329" lon="4.56576">
        <ele>433.2</ele>
        <time>2020-10-17T09:54:03Z</time>
      </trkpt>
      <trkpt lat="46.17332" lon="4.56578">
        <ele>433</ele>
        <time>2020-10-17T09:54:04Z</time>
      </trkpt>
      <trkpt lat="46.17334" lon="4.56581">
        <ele>432.6</ele>
        <time>2020-10-17T09:54:05Z</time>
      </trkpt>
      <trkpt lat="46.17336" lon="4.56583">
        <ele>432.2</ele>
        <time>2020-10-17T09:54:06Z</time>
      </trkpt>
      <trkpt lat="46.17339" lon="4.56586">
        <ele>431.8</ele>
        <time>2020-10-17T09:54:07Z</time>
      </trkpt>
      <trkpt lat="46.17343" lon="4.56589">
        <ele>431.4</ele>
        <time>2020-10-17T09:54:08Z</time>
      </trkpt>
      <trkpt lat="46.17346" lon="4.56593">
        <ele>430.8</ele>
        <time>2020-10-17T09:54:09Z</time>
      </trkpt>
      <trkpt lat="46.1735" lon="4.56596">
        <ele>430.6</ele>
        <time>2020-10-17T09:54:10Z</time>
      </trkpt>
      <trkpt lat="46.17354" lon="4.56597">
        <ele>430.2</ele>
        <time>2020-10-17T09:54:11Z</time>
      </trkpt>
      <trkpt lat="46.17356" lon="4.56597">
        <ele>429.6</ele>
        <time>2020-10-17T09:54:12Z</time>
      </trkpt>
      <trkpt lat="46.17358" lon="4.56599">
        <ele>429.8</ele>
        <time>2020-10-17T09:54:13Z</time>
      </trkpt>
      <trkpt lat="46.17361" lon="4.56599">
        <ele>429.4</ele>
        <time>2020-10-17T09:54:14Z</time>
      </trkpt>
      <trkpt lat="46.17365" lon="4.56601">
        <ele>428.8</ele>
        <time>2020-10-17T09:54:15Z</time>
      </trkpt>
      <trkpt lat="46.17367" lon="4.56602">
        <ele>428.8</ele>
        <time>2020-10-17T09:54:16Z</time>
      </trkpt>
      <trkpt lat="46.1737" lon="4.56603">
        <ele>428.4</ele>
        <time>2020-10-17T09:54:17Z</time>
      </trkpt>
      <trkpt lat="46.17373" lon="4.56604">
        <ele>427.6</ele>
        <time>2020-10-17T09:54:18Z</time>
      </trkpt>
      <trkpt lat="46.17376" lon="4.56605">
        <ele>428</ele>
        <time>2020-10-17T09:54:19Z</time>
      </trkpt>
      <trkpt lat="46.17378" lon="4.56605">
        <ele>427.2</ele>
        <time>2020-10-17T09:54:20Z</time>
      </trkpt>
      <trkpt lat="46.17381" lon="4.56606">
        <ele>426.6</ele>
        <time>2020-10-17T09:54:21Z</time>
      </trkpt>
      <trkpt lat="46.17383" lon="4.56607">
        <ele>426.8</ele>
        <time>2020-10-17T09:54:22Z</time>
      </trkpt>
      <trkpt lat="46.17386" lon="4.56608">
        <ele>426.6</ele>
        <time>2020-10-17T09:54:23Z</time>
      </trkpt>
      <trkpt lat="46.17388" lon="4.56608">
        <ele>426</ele>
        <time>2020-10-17T09:54:24Z</time>
      </trkpt>
      <trkpt lat="46.17391" lon="4.56609">
        <ele>426.2</ele>
        <time>2020-10-17T09:54:25Z</time>
      </trkpt>
      <trkpt lat="46.17393" lon="4.56609">
        <ele>425.8</ele>
        <time>2020-10-17T09:54:26Z</time>
      </trkpt>
      <trkpt lat="46.17396" lon="4.56609">
        <ele>425.6</ele>
        <time>2020-10-17T09:54:27Z</time>
      </trkpt>
      <trkpt lat="46.17399" lon="4.56608">
        <ele>425.8</ele>
        <time>2020-10-17T09:54:28Z</time>
      </trkpt>
      <trkpt lat="46.174" lon="4.56607">
        <ele>425.6</ele>
        <time>2020-10-17T09:54:29Z</time>
      </trkpt>
      <trkpt lat="46.17402" lon="4.56605">
        <ele>425.6</ele>
        <time>2020-10-17T09:54:30Z</time>
      </trkpt>
      <trkpt lat="46.17402" lon="4.56605">
        <ele>425.4</ele>
        <time>2020-10-17T09:54:31Z</time>
      </trkpt>
      <trkpt lat="46.17403" lon="4.566">
        <ele>425.2</ele>
        <time>2020-10-17T09:54:32Z</time>
      </trkpt>
      <trkpt lat="46.17402" lon="4.56598">
        <ele>425.2</ele>
        <time>2020-10-17T09:54:33Z</time>
      </trkpt>
      <trkpt lat="46.17402" lon="4.56595">
        <ele>425</ele>
        <time>2020-10-17T09:54:34Z</time>
      </trkpt>
      <trkpt lat="46.17402" lon="4.56595">
        <ele>424.8</ele>
        <time>2020-10-17T09:54:35Z</time>
      </trkpt>
      <trkpt lat="46.174" lon="4.56591">
        <ele>424.8</ele>
        <time>2020-10-17T09:54:36Z</time>
      </trkpt>
      <trkpt lat="46.174" lon="4.56591">
        <ele>425</ele>
        <time>2020-10-17T09:54:37Z</time>
      </trkpt>
      <trkpt lat="46.17399" lon="4.56588">
        <ele>425</ele>
        <time>2020-10-17T09:54:38Z</time>
      </trkpt>
      <trkpt lat="46.17399" lon="4.56588">
        <ele>425.2</ele>
        <time>2020-10-17T09:54:39Z</time>
      </trkpt>
      <trkpt lat="46.17398" lon="4.56584">
        <ele>425.4</ele>
        <time>2020-10-17T09:54:40Z</time>
      </trkpt>
      <trkpt lat="46.17398" lon="4.56584">
        <ele>425.4</ele>
        <time>2020-10-17T09:54:41Z</time>
      </trkpt>
      <trkpt lat="46.17397" lon="4.56581">
        <ele>425.4</ele>
        <time>2020-10-17T09:54:42Z</time>
      </trkpt>
      <trkpt lat="46.17397" lon="4.56581">
        <ele>425.6</ele>
        <time>2020-10-17T09:54:43Z</time>
      </trkpt>
      <trkpt lat="46.17395" lon="4.56578">
        <ele>425.8</ele>
        <time>2020-10-17T09:54:44Z</time>
      </trkpt>
      <trkpt lat="46.17395" lon="4.56578">
        <ele>425.8</ele>
        <time>2020-10-17T09:54:45Z</time>
      </trkpt>
      <trkpt lat="46.17394" lon="4.56575">
        <ele>426.2</ele>
        <time>2020-10-17T09:54:46Z</time>
      </trkpt>
      <trkpt lat="46.17394" lon="4.56575">
        <ele>426.2</ele>
        <time>2020-10-17T09:54:47Z</time>
      </trkpt>
      <trkpt lat="46.17393" lon="4.56572">
        <ele>426.4</ele>
        <time>2020-10-17T09:54:48Z</time>
      </trkpt>
      <trkpt lat="46.17393" lon="4.56572">
        <ele>426.4</ele>
        <time>2020-10-17T09:54:49Z</time>
      </trkpt>
      <trkpt lat="46.17392" lon="4.56568">
        <ele>426.4</ele>
        <time>2020-10-17T09:54:50Z</time>
      </trkpt>
      <trkpt lat="46.17392" lon="4.56568">
        <ele>426.4</ele>
        <time>2020-10-17T09:54:51Z</time>
      </trkpt>
      <trkpt lat="46.17391" lon="4.56564">
        <ele>426.2</ele>
        <time>2020-10-17T09:54:52Z</time>
      </trkpt>
      <trkpt lat="46.17391" lon="4.56564">
        <ele>426.4</ele>
        <time>2020-10-17T09:54:53Z</time>
      </trkpt>
      <trkpt lat="46.1739" lon="4.56561">
        <ele>426.4</ele>
        <time>2020-10-17T09:54:54Z</time>
      </trkpt>
      <trkpt lat="46.1739" lon="4.56561">
        <ele>426.8</ele>
        <time>2020-10-17T09:54:55Z</time>
      </trkpt>
      <trkpt lat="46.1739" lon="4.56557">
        <ele>426.8</ele>
        <time>2020-10-17T09:54:56Z</time>
      </trkpt>
      <trkpt lat="46.1739" lon="4.56557">
        <ele>427</ele>
        <time>2020-10-17T09:54:57Z</time>
      </trkpt>
      <trkpt lat="46.17389" lon="4.56554">
        <ele>427.2</ele>
        <time>2020-10-17T09:54:58Z</time>
      </trkpt>
      <trkpt lat="46.17389" lon="4.56554">
        <ele>427.4</ele>
        <time>2020-10-17T09:54:59Z</time>
      </trkpt>
      <trkpt lat="46.17388" lon="4.56549">
        <ele>427.2</ele>
        <time>2020-10-17T09:55:00Z</time>
      </trkpt>
      <trkpt lat="46.17388" lon="4.56549">
        <ele>427.4</ele>
        <time>2020-10-17T09:55:01Z</time>
      </trkpt>
      <trkpt lat="46.17388" lon="4.56545">
        <ele>427.4</ele>
        <time>2020-10-17T09:55:02Z</time>
      </trkpt>
      <trkpt lat="46.17388" lon="4.56545">
        <ele>427.8</ele>
        <time>2020-10-17T09:55:03Z</time>
      </trkpt>
      <trkpt lat="46.17388" lon="4.56541">
        <ele>428</ele>
        <time>2020-10-17T09:55:04Z</time>
      </trkpt>
      <trkpt lat="46.17388" lon="4.56541">
        <ele>428</ele>
        <time>2020-10-17T09:55:05Z</time>
      </trkpt>
      <trkpt lat="46.17388" lon="4.56537">
        <ele>428.2</ele>
        <time>2020-10-17T09:55:06Z</time>
      </trkpt>
      <trkpt lat="46.17388" lon="4.56537">
        <ele>428.2</ele>
        <time>2020-10-17T09:55:07Z</time>
      </trkpt>
      <trkpt lat="46.17388" lon="4.56532">
        <ele>428.2</ele>
        <time>2020-10-17T09:55:08Z</time>
      </trkpt>
      <trkpt lat="46.17388" lon="4.56532">
        <ele>428.4</ele>
        <time>2020-10-17T09:55:09Z</time>
      </trkpt>
      <trkpt lat="46.17388" lon="4.56527">
        <ele>428.6</ele>
        <time>2020-10-17T09:55:10Z</time>
      </trkpt>
      <trkpt lat="46.17388" lon="4.56527">
        <ele>429</ele>
        <time>2020-10-17T09:55:11Z</time>
      </trkpt>
      <trkpt lat="46.17389" lon="4.56523">
        <ele>428.8</ele>
        <time>2020-10-17T09:55:12Z</time>
      </trkpt>
      <trkpt lat="46.17389" lon="4.56523">
        <ele>429</ele>
        <time>2020-10-17T09:55:13Z</time>
      </trkpt>
      <trkpt lat="46.17389" lon="4.56518">
        <ele>428.8</ele>
        <time>2020-10-17T09:55:14Z</time>
      </trkpt>
      <trkpt lat="46.17389" lon="4.56518">
        <ele>428.8</ele>
        <time>2020-10-17T09:55:15Z</time>
      </trkpt>
      <trkpt lat="46.1739" lon="4.56514">
        <ele>428.8</ele>
        <time>2020-10-17T09:55:16Z</time>
      </trkpt>
      <trkpt lat="46.1739" lon="4.56514">
        <ele>429</ele>
        <time>2020-10-17T09:55:17Z</time>
      </trkpt>
      <trkpt lat="46.17392" lon="4.5651">
        <ele>429.2</ele>
        <time>2020-10-17T09:55:18Z</time>
      </trkpt>
      <trkpt lat="46.17392" lon="4.5651">
        <ele>429.2</ele>
        <time>2020-10-17T09:55:19Z</time>
      </trkpt>
      <trkpt lat="46.17393" lon="4.56505">
        <ele>429.6</ele>
        <time>2020-10-17T09:55:20Z</time>
      </trkpt>
      <trkpt lat="46.17393" lon="4.56505">
        <ele>430</ele>
        <time>2020-10-17T09:55:21Z</time>
      </trkpt>
      <trkpt lat="46.17393" lon="4.56501">
        <ele>430.2</ele>
        <time>2020-10-17T09:55:22Z</time>
      </trkpt>
      <trkpt lat="46.17393" lon="4.56501">
        <ele>430.2</ele>
        <time>2020-10-17T09:55:23Z</time>
      </trkpt>
      <trkpt lat="46.17393" lon="4.56498">
        <ele>430.2</ele>
        <time>2020-10-17T09:55:24Z</time>
      </trkpt>
      <trkpt lat="46.17393" lon="4.56498">
        <ele>430</ele>
        <time>2020-10-17T09:55:25Z</time>
      </trkpt>
      <trkpt lat="46.17394" lon="4.56493">
        <ele>430</ele>
        <time>2020-10-17T09:55:26Z</time>
      </trkpt>
      <trkpt lat="46.17395" lon="4.5649">
        <ele>430</ele>
        <time>2020-10-17T09:55:27Z</time>
      </trkpt>
      <trkpt lat="46.17395" lon="4.56487">
        <ele>430</ele>
        <time>2020-10-17T09:55:28Z</time>
      </trkpt>
      <trkpt lat="46.17396" lon="4.56483">
        <ele>429.6</ele>
        <time>2020-10-17T09:55:29Z</time>
      </trkpt>
      <trkpt lat="46.17397" lon="4.5648">
        <ele>430.2</ele>
        <time>2020-10-17T09:55:30Z</time>
      </trkpt>
      <trkpt lat="46.17397" lon="4.56476">
        <ele>429.8</ele>
        <time>2020-10-17T09:55:31Z</time>
      </trkpt>
      <trkpt lat="46.17398" lon="4.56473">
        <ele>429.4</ele>
        <time>2020-10-17T09:55:32Z</time>
      </trkpt>
      <trkpt lat="46.17399" lon="4.56469">
        <ele>429.8</ele>
        <time>2020-10-17T09:55:33Z</time>
      </trkpt>
      <trkpt lat="46.174" lon="4.56466">
        <ele>429.8</ele>
        <time>2020-10-17T09:55:34Z</time>
      </trkpt>
      <trkpt lat="46.17401" lon="4.56463">
        <ele>429.4</ele>
        <time>2020-10-17T09:55:35Z</time>
      </trkpt>
      <trkpt lat="46.17402" lon="4.56461">
        <ele>429.4</ele>
        <time>2020-10-17T09:55:36Z</time>
      </trkpt>
      <trkpt lat="46.17402" lon="4.56461">
        <ele>429.4</ele>
        <time>2020-10-17T09:55:37Z</time>
      </trkpt>
      <trkpt lat="46.17404" lon="4.56457">
        <ele>429.2</ele>
        <time>2020-10-17T09:55:38Z</time>
      </trkpt>
      <trkpt lat="46.17404" lon="4.56457">
        <ele>429</ele>
        <time>2020-10-17T09:55:39Z</time>
      </trkpt>
      <trkpt lat="46.17404" lon="4.56454">
        <ele>429</ele>
        <time>2020-10-17T09:55:40Z</time>
      </trkpt>
      <trkpt lat="46.17404" lon="4.56454">
        <ele>429.2</ele>
        <time>2020-10-17T09:55:41Z</time>
      </trkpt>
      <trkpt lat="46.17404" lon="4.56454">
        <ele>429.2</ele>
        <time>2020-10-17T09:55:42Z</time>
      </trkpt>
      <trkpt lat="46.17404" lon="4.56454">
        <ele>429.4</ele>
        <time>2020-10-17T09:55:43Z</time>
      </trkpt>
      <trkpt lat="46.17404" lon="4.56454">
        <ele>429.4</ele>
        <time>2020-10-17T09:55:44Z</time>
      </trkpt>
      <trkpt lat="46.17404" lon="4.56454">
        <ele>429.8</ele>
        <time>2020-10-17T09:55:45Z</time>
      </trkpt>
      <trkpt lat="46.17404" lon="4.56454">
        <ele>429.8</ele>
        <time>2020-10-17T09:55:46Z</time>
      </trkpt>
      <trkpt lat="46.17404" lon="4.56454">
        <ele>429.8</ele>
        <time>2020-10-17T09:55:47Z</time>
      </trkpt>
      <trkpt lat="46.17404" lon="4.56454">
        <ele>429.6</ele>
        <time>2020-10-17T09:55:48Z</time>
      </trkpt>
      <trkpt lat="46.17404" lon="4.56454">
        <ele>429.6</ele>
        <time>2020-10-17T09:55:49Z</time>
      </trkpt>
      <trkpt lat="46.17404" lon="4.56454">
        <ele>429.8</ele>
        <time>2020-10-17T09:55:50Z</time>
      </trkpt>
      <trkpt lat="46.17404" lon="4.56454">
        <ele>429.8</ele>
        <time>2020-10-17T09:55:51Z</time>
      </trkpt>
      <trkpt lat="46.17404" lon="4.56454">
        <ele>429.6</ele>
        <time>2020-10-17T09:55:52Z</time>
      </trkpt>
      <trkpt lat="46.17404" lon="4.56454">
        <ele>429.6</ele>
        <time>2020-10-17T09:55:53Z</time>
      </trkpt>
      <trkpt lat="46.17405" lon="4.56452">
        <ele>429.6</ele>
        <time>2020-10-17T09:55:54Z</time>
      </trkpt>
      <trkpt lat="46.17405" lon="4.56452">
        <ele>429.4</ele>
        <time>2020-10-17T09:55:55Z</time>
      </trkpt>
      <trkpt lat="46.17407" lon="4.56448">
        <ele>429.4</ele>
        <time>2020-10-17T09:55:56Z</time>
      </trkpt>
      <trkpt lat="46.17407" lon="4.56448">
        <ele>429.4</ele>
        <time>2020-10-17T09:55:57Z</time>
      </trkpt>
      <trkpt lat="46.17409" lon="4.56445">
        <ele>429</ele>
        <time>2020-10-17T09:55:58Z</time>
      </trkpt>
      <trkpt lat="46.17409" lon="4.56445">
        <ele>428.8</ele>
        <time>2020-10-17T09:55:59Z</time>
      </trkpt>
      <trkpt lat="46.17411" lon="4.5644">
        <ele>428.6</ele>
        <time>2020-10-17T09:56:00Z</time>
      </trkpt>
      <trkpt lat="46.17412" lon="4.56438">
        <ele>428.4</ele>
        <time>2020-10-17T09:56:01Z</time>
      </trkpt>
      <trkpt lat="46.17413" lon="4.56435">
        <ele>428.2</ele>
        <time>2020-10-17T09:56:02Z</time>
      </trkpt>
      <trkpt lat="46.17414" lon="4.56433">
        <ele>428.2</ele>
        <time>2020-10-17T09:56:03Z</time>
      </trkpt>
      <trkpt lat="46.17415" lon="4.5643">
        <ele>428</ele>
        <time>2020-10-17T09:56:04Z</time>
      </trkpt>
      <trkpt lat="46.17416" lon="4.56427">
        <ele>428</ele>
        <time>2020-10-17T09:56:05Z</time>
      </trkpt>
      <trkpt lat="46.17417" lon="4.56424">
        <ele>427.8</ele>
        <time>2020-10-17T09:56:06Z</time>
      </trkpt>
      <trkpt lat="46.17418" lon="4.5642">
        <ele>427.4</ele>
        <time>2020-10-17T09:56:07Z</time>
      </trkpt>
      <trkpt lat="46.17419" lon="4.56417">
        <ele>427.6</ele>
        <time>2020-10-17T09:56:08Z</time>
      </trkpt>
      <trkpt lat="46.1742" lon="4.56414">
        <ele>427.2</ele>
        <time>2020-10-17T09:56:09Z</time>
      </trkpt>
      <trkpt lat="46.17421" lon="4.56411">
        <ele>426.8</ele>
        <time>2020-10-17T09:56:10Z</time>
      </trkpt>
      <trkpt lat="46.17422" lon="4.56408">
        <ele>427</ele>
        <time>2020-10-17T09:56:11Z</time>
      </trkpt>
      <trkpt lat="46.17423" lon="4.56404">
        <ele>426.6</ele>
        <time>2020-10-17T09:56:12Z</time>
      </trkpt>
      <trkpt lat="46.17424" lon="4.56401">
        <ele>426.2</ele>
        <time>2020-10-17T09:56:13Z</time>
      </trkpt>
      <trkpt lat="46.17424" lon="4.56398">
        <ele>427</ele>
        <time>2020-10-17T09:56:14Z</time>
      </trkpt>
      <trkpt lat="46.17425" lon="4.56394">
        <ele>427</ele>
        <time>2020-10-17T09:56:15Z</time>
      </trkpt>
      <trkpt lat="46.17426" lon="4.56391">
        <ele>426.8</ele>
        <time>2020-10-17T09:56:16Z</time>
      </trkpt>
      <trkpt lat="46.17426" lon="4.56387">
        <ele>427.2</ele>
        <time>2020-10-17T09:56:17Z</time>
      </trkpt>
      <trkpt lat="46.17426" lon="4.56384">
        <ele>427.2</ele>
        <time>2020-10-17T09:56:18Z</time>
      </trkpt>
      <trkpt lat="46.17427" lon="4.5638">
        <ele>427.2</ele>
        <time>2020-10-17T09:56:19Z</time>
      </trkpt>
      <trkpt lat="46.17427" lon="4.56376">
        <ele>427.2</ele>
        <time>2020-10-17T09:56:20Z</time>
      </trkpt>
      <trkpt lat="46.17427" lon="4.56373">
        <ele>426.8</ele>
        <time>2020-10-17T09:56:21Z</time>
      </trkpt>
      <trkpt lat="46.17427" lon="4.56369">
        <ele>427.2</ele>
        <time>2020-10-17T09:56:22Z</time>
      </trkpt>
      <trkpt lat="46.17428" lon="4.56366">
        <ele>427</ele>
        <time>2020-10-17T09:56:23Z</time>
      </trkpt>
      <trkpt lat="46.17428" lon="4.56362">
        <ele>426.8</ele>
        <time>2020-10-17T09:56:24Z</time>
      </trkpt>
      <trkpt lat="46.17429" lon="4.56359">
        <ele>427</ele>
        <time>2020-10-17T09:56:25Z</time>
      </trkpt>
      <trkpt lat="46.17429" lon="4.56356">
        <ele>427</ele>
        <time>2020-10-17T09:56:26Z</time>
      </trkpt>
      <trkpt lat="46.17429" lon="4.56352">
        <ele>426.8</ele>
        <time>2020-10-17T09:56:27Z</time>
      </trkpt>
      <trkpt lat="46.1743" lon="4.56349">
        <ele>426.8</ele>
        <time>2020-10-17T09:56:28Z</time>
      </trkpt>
      <trkpt lat="46.1743" lon="4.56346">
        <ele>426.8</ele>
        <time>2020-10-17T09:56:29Z</time>
      </trkpt>
      <trkpt lat="46.17431" lon="4.56343">
        <ele>426.6</ele>
        <time>2020-10-17T09:56:30Z</time>
      </trkpt>
      <trkpt lat="46.17431" lon="4.56339">
        <ele>427</ele>
        <time>2020-10-17T09:56:31Z</time>
      </trkpt>
      <trkpt lat="46.17432" lon="4.56336">
        <ele>426.8</ele>
        <time>2020-10-17T09:56:32Z</time>
      </trkpt>
      <trkpt lat="46.17432" lon="4.56333">
        <ele>426.4</ele>
        <time>2020-10-17T09:56:33Z</time>
      </trkpt>
      <trkpt lat="46.17433" lon="4.5633">
        <ele>426.8</ele>
        <time>2020-10-17T09:56:34Z</time>
      </trkpt>
      <trkpt lat="46.17433" lon="4.56326">
        <ele>427</ele>
        <time>2020-10-17T09:56:35Z</time>
      </trkpt>
      <trkpt lat="46.17434" lon="4.56322">
        <ele>427</ele>
        <time>2020-10-17T09:56:36Z</time>
      </trkpt>
      <trkpt lat="46.17435" lon="4.56318">
        <ele>427.2</ele>
        <time>2020-10-17T09:56:37Z</time>
      </trkpt>
      <trkpt lat="46.17435" lon="4.56315">
        <ele>427</ele>
        <time>2020-10-17T09:56:38Z</time>
      </trkpt>
      <trkpt lat="46.17435" lon="4.56311">
        <ele>427</ele>
        <time>2020-10-17T09:56:39Z</time>
      </trkpt>
      <trkpt lat="46.17436" lon="4.56308">
        <ele>427.2</ele>
        <time>2020-10-17T09:56:40Z</time>
      </trkpt>
      <trkpt lat="46.17437" lon="4.56305">
        <ele>427</ele>
        <time>2020-10-17T09:56:41Z</time>
      </trkpt>
      <trkpt lat="46.17437" lon="4.56301">
        <ele>427.2</ele>
        <time>2020-10-17T09:56:42Z</time>
      </trkpt>
      <trkpt lat="46.17438" lon="4.56298">
        <ele>427.2</ele>
        <time>2020-10-17T09:56:43Z</time>
      </trkpt>
      <trkpt lat="46.17438" lon="4.56294">
        <ele>427</ele>
        <time>2020-10-17T09:56:44Z</time>
      </trkpt>
      <trkpt lat="46.17439" lon="4.56291">
        <ele>427</ele>
        <time>2020-10-17T09:56:45Z</time>
      </trkpt>
      <trkpt lat="46.17439" lon="4.56287">
        <ele>427</ele>
        <time>2020-10-17T09:56:46Z</time>
      </trkpt>
      <trkpt lat="46.1744" lon="4.56283">
        <ele>426.8</ele>
        <time>2020-10-17T09:56:47Z</time>
      </trkpt>
      <trkpt lat="46.1744" lon="4.5628">
        <ele>427</ele>
        <time>2020-10-17T09:56:48Z</time>
      </trkpt>
      <trkpt lat="46.1744" lon="4.56276">
        <ele>426.8</ele>
        <time>2020-10-17T09:56:49Z</time>
      </trkpt>
      <trkpt lat="46.1744" lon="4.56272">
        <ele>426.4</ele>
        <time>2020-10-17T09:56:50Z</time>
      </trkpt>
      <trkpt lat="46.17441" lon="4.56268">
        <ele>426.8</ele>
        <time>2020-10-17T09:56:51Z</time>
      </trkpt>
      <trkpt lat="46.1744" lon="4.56264">
        <ele>426.6</ele>
        <time>2020-10-17T09:56:52Z</time>
      </trkpt>
      <trkpt lat="46.1744" lon="4.56259">
        <ele>426.2</ele>
        <time>2020-10-17T09:56:53Z</time>
      </trkpt>
      <trkpt lat="46.17439" lon="4.56255">
        <ele>426.4</ele>
        <time>2020-10-17T09:56:54Z</time>
      </trkpt>
      <trkpt lat="46.17439" lon="4.56251">
        <ele>426.2</ele>
        <time>2020-10-17T09:56:55Z</time>
      </trkpt>
      <trkpt lat="46.17437" lon="4.56248">
        <ele>425.8</ele>
        <time>2020-10-17T09:56:56Z</time>
      </trkpt>
      <trkpt lat="46.17436" lon="4.56244">
        <ele>426</ele>
        <time>2020-10-17T09:56:57Z</time>
      </trkpt>
      <trkpt lat="46.17434" lon="4.56241">
        <ele>425.6</ele>
        <time>2020-10-17T09:56:58Z</time>
      </trkpt>
      <trkpt lat="46.17432" lon="4.56239">
        <ele>425</ele>
        <time>2020-10-17T09:56:59Z</time>
      </trkpt>
      <trkpt lat="46.1743" lon="4.56236">
        <ele>424.8</ele>
        <time>2020-10-17T09:57:00Z</time>
      </trkpt>
      <trkpt lat="46.17429" lon="4.56234">
        <ele>424.6</ele>
        <time>2020-10-17T09:57:01Z</time>
      </trkpt>
      <trkpt lat="46.17427" lon="4.56231">
        <ele>424</ele>
        <time>2020-10-17T09:57:02Z</time>
      </trkpt>
      <trkpt lat="46.17425" lon="4.56229">
        <ele>423.8</ele>
        <time>2020-10-17T09:57:03Z</time>
      </trkpt>
      <trkpt lat="46.17423" lon="4.56227">
        <ele>423.6</ele>
        <time>2020-10-17T09:57:04Z</time>
      </trkpt>
      <trkpt lat="46.17421" lon="4.56225">
        <ele>423.2</ele>
        <time>2020-10-17T09:57:05Z</time>
      </trkpt>
      <trkpt lat="46.17419" lon="4.56222">
        <ele>423</ele>
        <time>2020-10-17T09:57:06Z</time>
      </trkpt>
      <trkpt lat="46.17418" lon="4.5622">
        <ele>423</ele>
        <time>2020-10-17T09:57:07Z</time>
      </trkpt>
      <trkpt lat="46.17416" lon="4.56217">
        <ele>422.4</ele>
        <time>2020-10-17T09:57:08Z</time>
      </trkpt>
      <trkpt lat="46.17414" lon="4.56215">
        <ele>422.2</ele>
        <time>2020-10-17T09:57:09Z</time>
      </trkpt>
      <trkpt lat="46.17412" lon="4.56212">
        <ele>422</ele>
        <time>2020-10-17T09:57:10Z</time>
      </trkpt>
      <trkpt lat="46.1741" lon="4.5621">
        <ele>421.4</ele>
        <time>2020-10-17T09:57:11Z</time>
      </trkpt>
      <trkpt lat="46.17408" lon="4.56207">
        <ele>421</ele>
        <time>2020-10-17T09:57:12Z</time>
      </trkpt>
      <trkpt lat="46.17406" lon="4.56205">
        <ele>421</ele>
        <time>2020-10-17T09:57:13Z</time>
      </trkpt>
      <trkpt lat="46.17404" lon="4.56203">
        <ele>420.4</ele>
        <time>2020-10-17T09:57:14Z</time>
      </trkpt>
      <trkpt lat="46.17402" lon="4.562">
        <ele>420.4</ele>
        <time>2020-10-17T09:57:15Z</time>
      </trkpt>
      <trkpt lat="46.174" lon="4.56197">
        <ele>420.4</ele>
        <time>2020-10-17T09:57:16Z</time>
      </trkpt>
      <trkpt lat="46.17398" lon="4.56195">
        <ele>419.8</ele>
        <time>2020-10-17T09:57:17Z</time>
      </trkpt>
      <trkpt lat="46.17396" lon="4.56192">
        <ele>419.6</ele>
        <time>2020-10-17T09:57:18Z</time>
      </trkpt>
      <trkpt lat="46.17394" lon="4.5619">
        <ele>419.8</ele>
        <time>2020-10-17T09:57:19Z</time>
      </trkpt>
      <trkpt lat="46.17393" lon="4.56187">
        <ele>419.6</ele>
        <time>2020-10-17T09:57:20Z</time>
      </trkpt>
      <trkpt lat="46.17391" lon="4.56184">
        <ele>419.4</ele>
        <time>2020-10-17T09:57:21Z</time>
      </trkpt>
      <trkpt lat="46.17388" lon="4.56182">
        <ele>419.2</ele>
        <time>2020-10-17T09:57:22Z</time>
      </trkpt>
      <trkpt lat="46.17386" lon="4.56179">
        <ele>418.8</ele>
        <time>2020-10-17T09:57:23Z</time>
      </trkpt>
      <trkpt lat="46.17384" lon="4.56176">
        <ele>418.6</ele>
        <time>2020-10-17T09:57:24Z</time>
      </trkpt>
      <trkpt lat="46.17382" lon="4.56173">
        <ele>418.2</ele>
        <time>2020-10-17T09:57:25Z</time>
      </trkpt>
      <trkpt lat="46.1738" lon="4.5617">
        <ele>417.6</ele>
        <time>2020-10-17T09:57:26Z</time>
      </trkpt>
      <trkpt lat="46.17379" lon="4.56167">
        <ele>417.2</ele>
        <time>2020-10-17T09:57:27Z</time>
      </trkpt>
      <trkpt lat="46.17377" lon="4.56164">
        <ele>417.2</ele>
        <time>2020-10-17T09:57:28Z</time>
      </trkpt>
      <trkpt lat="46.17375" lon="4.56161">
        <ele>416.8</ele>
        <time>2020-10-17T09:57:29Z</time>
      </trkpt>
      <trkpt lat="46.17373" lon="4.56158">
        <ele>416.4</ele>
        <time>2020-10-17T09:57:30Z</time>
      </trkpt>
      <trkpt lat="46.17372" lon="4.56155">
        <ele>416.6</ele>
        <time>2020-10-17T09:57:31Z</time>
      </trkpt>
      <trkpt lat="46.17371" lon="4.56152">
        <ele>416</ele>
        <time>2020-10-17T09:57:32Z</time>
      </trkpt>
      <trkpt lat="46.1737" lon="4.56149">
        <ele>416</ele>
        <time>2020-10-17T09:57:33Z</time>
      </trkpt>
      <trkpt lat="46.17369" lon="4.56146">
        <ele>416</ele>
        <time>2020-10-17T09:57:34Z</time>
      </trkpt>
      <trkpt lat="46.17368" lon="4.56143">
        <ele>415.8</ele>
        <time>2020-10-17T09:57:35Z</time>
      </trkpt>
      <trkpt lat="46.17367" lon="4.56141">
        <ele>415.6</ele>
        <time>2020-10-17T09:57:36Z</time>
      </trkpt>
      <trkpt lat="46.17367" lon="4.56141">
        <ele>415.6</ele>
        <time>2020-10-17T09:57:37Z</time>
      </trkpt>
      <trkpt lat="46.17367" lon="4.56136">
        <ele>415.4</ele>
        <time>2020-10-17T09:57:38Z</time>
      </trkpt>
      <trkpt lat="46.17368" lon="4.56133">
        <ele>415</ele>
        <time>2020-10-17T09:57:39Z</time>
      </trkpt>
      <trkpt lat="46.1737" lon="4.56131">
        <ele>414.6</ele>
        <time>2020-10-17T09:57:40Z</time>
      </trkpt>
      <trkpt lat="46.17371" lon="4.56128">
        <ele>414.2</ele>
        <time>2020-10-17T09:57:41Z</time>
      </trkpt>
      <trkpt lat="46.17373" lon="4.56125">
        <ele>414.6</ele>
        <time>2020-10-17T09:57:42Z</time>
      </trkpt>
      <trkpt lat="46.17375" lon="4.56122">
        <ele>414</ele>
        <time>2020-10-17T09:57:43Z</time>
      </trkpt>
      <trkpt lat="46.17378" lon="4.56119">
        <ele>413.8</ele>
        <time>2020-10-17T09:57:44Z</time>
      </trkpt>
      <trkpt lat="46.17381" lon="4.56117">
        <ele>414</ele>
        <time>2020-10-17T09:57:45Z</time>
      </trkpt>
      <trkpt lat="46.17383" lon="4.56114">
        <ele>413.8</ele>
        <time>2020-10-17T09:57:46Z</time>
      </trkpt>
      <trkpt lat="46.17386" lon="4.56112">
        <ele>413.6</ele>
        <time>2020-10-17T09:57:47Z</time>
      </trkpt>
      <trkpt lat="46.17388" lon="4.5611">
        <ele>414</ele>
        <time>2020-10-17T09:57:48Z</time>
      </trkpt>
      <trkpt lat="46.1739" lon="4.56108">
        <ele>414</ele>
        <time>2020-10-17T09:57:49Z</time>
      </trkpt>
      <trkpt lat="46.17393" lon="4.56106">
        <ele>414</ele>
        <time>2020-10-17T09:57:50Z</time>
      </trkpt>
      <trkpt lat="46.17395" lon="4.56105">
        <ele>414.2</ele>
        <time>2020-10-17T09:57:51Z</time>
      </trkpt>
      <trkpt lat="46.17397" lon="4.56104">
        <ele>414.2</ele>
        <time>2020-10-17T09:57:52Z</time>
      </trkpt>
      <trkpt lat="46.17399" lon="4.56103">
        <ele>414.4</ele>
        <time>2020-10-17T09:57:53Z</time>
      </trkpt>
      <trkpt lat="46.17399" lon="4.56103">
        <ele>414.6</ele>
        <time>2020-10-17T09:57:54Z</time>
      </trkpt>
      <trkpt lat="46.17403" lon="4.56102">
        <ele>414.6</ele>
        <time>2020-10-17T09:57:55Z</time>
      </trkpt>
      <trkpt lat="46.17404" lon="4.56101">
        <ele>414.6</ele>
        <time>2020-10-17T09:57:56Z</time>
      </trkpt>
      <trkpt lat="46.17404" lon="4.56101">
        <ele>414.6</ele>
        <time>2020-10-17T09:57:57Z</time>
      </trkpt>
      <trkpt lat="46.17407" lon="4.56098">
        <ele>414.4</ele>
        <time>2020-10-17T09:57:58Z</time>
      </trkpt>
      <trkpt lat="46.17407" lon="4.56098">
        <ele>414.4</ele>
        <time>2020-10-17T09:57:59Z</time>
      </trkpt>
      <trkpt lat="46.1741" lon="4.56096">
        <ele>414.4</ele>
        <time>2020-10-17T09:58:00Z</time>
      </trkpt>
      <trkpt lat="46.17412" lon="4.56095">
        <ele>414.6</ele>
        <time>2020-10-17T09:58:01Z</time>
      </trkpt>
      <trkpt lat="46.17412" lon="4.56095">
        <ele>414.6</ele>
        <time>2020-10-17T09:58:02Z</time>
      </trkpt>
      <trkpt lat="46.17415" lon="4.56093">
        <ele>414.8</ele>
        <time>2020-10-17T09:58:03Z</time>
      </trkpt>
      <trkpt lat="46.17415" lon="4.56093">
        <ele>415</ele>
        <time>2020-10-17T09:58:04Z</time>
      </trkpt>
      <trkpt lat="46.17419" lon="4.56092">
        <ele>415.2</ele>
        <time>2020-10-17T09:58:05Z</time>
      </trkpt>
      <trkpt lat="46.17419" lon="4.56092">
        <ele>415.2</ele>
        <time>2020-10-17T09:58:06Z</time>
      </trkpt>
      <trkpt lat="46.17422" lon="4.5609">
        <ele>415.4</ele>
        <time>2020-10-17T09:58:07Z</time>
      </trkpt>
      <trkpt lat="46.17422" lon="4.5609">
        <ele>415.4</ele>
        <time>2020-10-17T09:58:08Z</time>
      </trkpt>
      <trkpt lat="46.17425" lon="4.56089">
        <ele>415.4</ele>
        <time>2020-10-17T09:58:09Z</time>
      </trkpt>
      <trkpt lat="46.17425" lon="4.56089">
        <ele>415.2</ele>
        <time>2020-10-17T09:58:10Z</time>
      </trkpt>
      <trkpt lat="46.17428" lon="4.56087">
        <ele>415.4</ele>
        <time>2020-10-17T09:58:11Z</time>
      </trkpt>
      <trkpt lat="46.17428" lon="4.56087">
        <ele>415.4</ele>
        <time>2020-10-17T09:58:12Z</time>
      </trkpt>
      <trkpt lat="46.17431" lon="4.56085">
        <ele>415.4</ele>
        <time>2020-10-17T09:58:13Z</time>
      </trkpt>
      <trkpt lat="46.17431" lon="4.56085">
        <ele>415.6</ele>
        <time>2020-10-17T09:58:14Z</time>
      </trkpt>
      <trkpt lat="46.17434" lon="4.56083">
        <ele>415.6</ele>
        <time>2020-10-17T09:58:15Z</time>
      </trkpt>
      <trkpt lat="46.17434" lon="4.56083">
        <ele>415.4</ele>
        <time>2020-10-17T09:58:16Z</time>
      </trkpt>
      <trkpt lat="46.17437" lon="4.56082">
        <ele>415.6</ele>
        <time>2020-10-17T09:58:17Z</time>
      </trkpt>
      <trkpt lat="46.17437" lon="4.56082">
        <ele>415.8</ele>
        <time>2020-10-17T09:58:18Z</time>
      </trkpt>
      <trkpt lat="46.1744" lon="4.56079">
        <ele>415.8</ele>
        <time>2020-10-17T09:58:19Z</time>
      </trkpt>
      <trkpt lat="46.1744" lon="4.56079">
        <ele>415.6</ele>
        <time>2020-10-17T09:58:20Z</time>
      </trkpt>
      <trkpt lat="46.17443" lon="4.56077">
        <ele>415.8</ele>
        <time>2020-10-17T09:58:21Z</time>
      </trkpt>
      <trkpt lat="46.17443" lon="4.56077">
        <ele>415.8</ele>
        <time>2020-10-17T09:58:22Z</time>
      </trkpt>
      <trkpt lat="46.17446" lon="4.56075">
        <ele>416</ele>
        <time>2020-10-17T09:58:23Z</time>
      </trkpt>
      <trkpt lat="46.17446" lon="4.56075">
        <ele>416.4</ele>
        <time>2020-10-17T09:58:24Z</time>
      </trkpt>
      <trkpt lat="46.17449" lon="4.56073">
        <ele>416.4</ele>
        <time>2020-10-17T09:58:25Z</time>
      </trkpt>
      <trkpt lat="46.17449" lon="4.56073">
        <ele>416.6</ele>
        <time>2020-10-17T09:58:26Z</time>
      </trkpt>
      <trkpt lat="46.17452" lon="4.56071">
        <ele>416.6</ele>
        <time>2020-10-17T09:58:27Z</time>
      </trkpt>
      <trkpt lat="46.17452" lon="4.56071">
        <ele>416.6</ele>
        <time>2020-10-17T09:58:28Z</time>
      </trkpt>
      <trkpt lat="46.17455" lon="4.56069">
        <ele>416.8</ele>
        <time>2020-10-17T09:58:29Z</time>
      </trkpt>
      <trkpt lat="46.17455" lon="4.56069">
        <ele>416.8</ele>
        <time>2020-10-17T09:58:30Z</time>
      </trkpt>
      <trkpt lat="46.17458" lon="4.56067">
        <ele>417</ele>
        <time>2020-10-17T09:58:31Z</time>
      </trkpt>
      <trkpt lat="46.17458" lon="4.56067">
        <ele>417.2</ele>
        <time>2020-10-17T09:58:32Z</time>
      </trkpt>
      <trkpt lat="46.17461" lon="4.56066">
        <ele>417.2</ele>
        <time>2020-10-17T09:58:33Z</time>
      </trkpt>
      <trkpt lat="46.17463" lon="4.56065">
        <ele>417.2</ele>
        <time>2020-10-17T09:58:34Z</time>
      </trkpt>
      <trkpt lat="46.17463" lon="4.56065">
        <ele>417.2</ele>
        <time>2020-10-17T09:58:35Z</time>
      </trkpt>
      <trkpt lat="46.17466" lon="4.56063">
        <ele>417.6</ele>
        <time>2020-10-17T09:58:36Z</time>
      </trkpt>
      <trkpt lat="46.17466" lon="4.56063">
        <ele>418</ele>
        <time>2020-10-17T09:58:37Z</time>
      </trkpt>
      <trkpt lat="46.17469" lon="4.56062">
        <ele>418.2</ele>
        <time>2020-10-17T09:58:38Z</time>
      </trkpt>
      <trkpt lat="46.17469" lon="4.56062">
        <ele>418.6</ele>
        <time>2020-10-17T09:58:39Z</time>
      </trkpt>
      <trkpt lat="46.17472" lon="4.56061">
        <ele>418.8</ele>
        <time>2020-10-17T09:58:40Z</time>
      </trkpt>
      <trkpt lat="46.17472" lon="4.56061">
        <ele>419</ele>
        <time>2020-10-17T09:58:41Z</time>
      </trkpt>
      <trkpt lat="46.17475" lon="4.56059">
        <ele>419.4</ele>
        <time>2020-10-17T09:58:42Z</time>
      </trkpt>
      <trkpt lat="46.17475" lon="4.56059">
        <ele>419.6</ele>
        <time>2020-10-17T09:58:43Z</time>
      </trkpt>
      <trkpt lat="46.17475" lon="4.56059">
        <ele>420.2</ele>
        <time>2020-10-17T09:58:47Z</time>
      </trkpt>
      <trkpt lat="46.17483" lon="4.56055">
        <ele>420.6</ele>
        <time>2020-10-17T09:58:48Z</time>
      </trkpt>
      <trkpt lat="46.17483" lon="4.56055">
        <ele>420.8</ele>
        <time>2020-10-17T09:58:49Z</time>
      </trkpt>
      <trkpt lat="46.17486" lon="4.56053">
        <ele>420.6</ele>
        <time>2020-10-17T09:58:50Z</time>
      </trkpt>
      <trkpt lat="46.17486" lon="4.56053">
        <ele>421</ele>
        <time>2020-10-17T09:58:51Z</time>
      </trkpt>
      <trkpt lat="46.17489" lon="4.56052">
        <ele>421</ele>
        <time>2020-10-17T09:58:52Z</time>
      </trkpt>
      <trkpt lat="46.17489" lon="4.56052">
        <ele>421</ele>
        <time>2020-10-17T09:58:53Z</time>
      </trkpt>
      <trkpt lat="46.17492" lon="4.56051">
        <ele>421</ele>
        <time>2020-10-17T09:58:54Z</time>
      </trkpt>
      <trkpt lat="46.17492" lon="4.56051">
        <ele>421.2</ele>
        <time>2020-10-17T09:58:55Z</time>
      </trkpt>
      <trkpt lat="46.17492" lon="4.56051">
        <ele>421.4</ele>
        <time>2020-10-17T09:58:56Z</time>
      </trkpt>
      <trkpt lat="46.17492" lon="4.56051">
        <ele>421.4</ele>
        <time>2020-10-17T09:58:57Z</time>
      </trkpt>
      <trkpt lat="46.17492" lon="4.56051">
        <ele>421.4</ele>
        <time>2020-10-17T09:59:01Z</time>
      </trkpt>
      <trkpt lat="46.17492" lon="4.56051">
        <ele>421.2</ele>
        <time>2020-10-17T09:59:02Z</time>
      </trkpt>
      <trkpt lat="46.17492" lon="4.56051">
        <ele>421.4</ele>
        <time>2020-10-17T09:59:03Z</time>
      </trkpt>
      <trkpt lat="46.17492" lon="4.56051">
        <ele>421.2</ele>
        <time>2020-10-17T09:59:04Z</time>
      </trkpt>
      <trkpt lat="46.17492" lon="4.56051">
        <ele>421.4</ele>
        <time>2020-10-17T09:59:05Z</time>
      </trkpt>
      <trkpt lat="46.17492" lon="4.56051">
        <ele>421.4</ele>
        <time>2020-10-17T09:59:06Z</time>
      </trkpt>
      <trkpt lat="46.17492" lon="4.56051">
        <ele>421.6</ele>
        <time>2020-10-17T09:59:07Z</time>
      </trkpt>
      <trkpt lat="46.17492" lon="4.56051">
        <ele>421.6</ele>
        <time>2020-10-17T09:59:08Z</time>
      </trkpt>
      <trkpt lat="46.17492" lon="4.56051">
        <ele>421.6</ele>
        <time>2020-10-17T09:59:09Z</time>
      </trkpt>
      <trkpt lat="46.17492" lon="4.56051">
        <ele>421.4</ele>
        <time>2020-10-17T09:59:10Z</time>
      </trkpt>
      <trkpt lat="46.17492" lon="4.56051">
        <ele>421.4</ele>
        <time>2020-10-17T09:59:11Z</time>
      </trkpt>
      <trkpt lat="46.17492" lon="4.56051">
        <ele>421.4</ele>
        <time>2020-10-17T09:59:12Z</time>
      </trkpt>
      <trkpt lat="46.17492" lon="4.56051">
        <ele>421.2</ele>
        <time>2020-10-17T09:59:13Z</time>
      </trkpt>
      <trkpt lat="46.17492" lon="4.56051">
        <ele>421.2</ele>
        <time>2020-10-17T09:59:14Z</time>
      </trkpt>
      <trkpt lat="46.17492" lon="4.56051">
        <ele>421.2</ele>
        <time>2020-10-17T09:59:15Z</time>
      </trkpt>
      <trkpt lat="46.17492" lon="4.56051">
        <ele>421</ele>
        <time>2020-10-17T09:59:16Z</time>
      </trkpt>
      <trkpt lat="46.17492" lon="4.56051">
        <ele>421</ele>
        <time>2020-10-17T09:59:17Z</time>
      </trkpt>
      <trkpt lat="46.17492" lon="4.56051">
        <ele>421</ele>
        <time>2020-10-17T09:59:18Z</time>
      </trkpt>
      <trkpt lat="46.17492" lon="4.56051">
        <ele>420.8</ele>
        <time>2020-10-17T09:59:19Z</time>
      </trkpt>
      <trkpt lat="46.17492" lon="4.56051">
        <ele>420.6</ele>
        <time>2020-10-17T09:59:20Z</time>
      </trkpt>
      <trkpt lat="46.17492" lon="4.56051">
        <ele>420.6</ele>
        <time>2020-10-17T09:59:21Z</time>
      </trkpt>
      <trkpt lat="46.17492" lon="4.56051">
        <ele>420.6</ele>
        <time>2020-10-17T09:59:22Z</time>
      </trkpt>
      <trkpt lat="46.17492" lon="4.56051">
        <ele>420.6</ele>
        <time>2020-10-17T09:59:23Z</time>
      </trkpt>
      <trkpt lat="46.17492" lon="4.56051">
        <ele>420.6</ele>
        <time>2020-10-17T09:59:24Z</time>
      </trkpt>
      <trkpt lat="46.17492" lon="4.56051">
        <ele>420.6</ele>
        <time>2020-10-17T09:59:25Z</time>
      </trkpt>
      <trkpt lat="46.17502" lon="4.56047">
        <ele>420.6</ele>
        <time>2020-10-17T09:59:26Z</time>
      </trkpt>
      <trkpt lat="46.17502" lon="4.56047">
        <ele>420.6</ele>
        <time>2020-10-17T09:59:27Z</time>
      </trkpt>
      <trkpt lat="46.17504" lon="4.56045">
        <ele>420.2</ele>
        <time>2020-10-17T09:59:28Z</time>
      </trkpt>
      <trkpt lat="46.17504" lon="4.56045">
        <ele>420.2</ele>
        <time>2020-10-17T09:59:29Z</time>
      </trkpt>
      <trkpt lat="46.17506" lon="4.56044">
        <ele>420</ele>
        <time>2020-10-17T09:59:30Z</time>
      </trkpt>
      <trkpt lat="46.17506" lon="4.56044">
        <ele>419.8</ele>
        <time>2020-10-17T09:59:31Z</time>
      </trkpt>
      <trkpt lat="46.17509" lon="4.56043">
        <ele>419.8</ele>
        <time>2020-10-17T09:59:32Z</time>
      </trkpt>
      <trkpt lat="46.17509" lon="4.56043">
        <ele>419.8</ele>
        <time>2020-10-17T09:59:33Z</time>
      </trkpt>
      <trkpt lat="46.17512" lon="4.56043">
        <ele>419.8</ele>
        <time>2020-10-17T09:59:34Z</time>
      </trkpt>
      <trkpt lat="46.17512" lon="4.56043">
        <ele>419.8</ele>
        <time>2020-10-17T09:59:35Z</time>
      </trkpt>
      <trkpt lat="46.17514" lon="4.56044">
        <ele>419.8</ele>
        <time>2020-10-17T09:59:36Z</time>
      </trkpt>
      <trkpt lat="46.17514" lon="4.56044">
        <ele>419.8</ele>
        <time>2020-10-17T09:59:37Z</time>
      </trkpt>
      <trkpt lat="46.17517" lon="4.56044">
        <ele>419.6</ele>
        <time>2020-10-17T09:59:38Z</time>
      </trkpt>
      <trkpt lat="46.17517" lon="4.56044">
        <ele>419.6</ele>
        <time>2020-10-17T09:59:39Z</time>
      </trkpt>
      <trkpt lat="46.1752" lon="4.56043">
        <ele>419.6</ele>
        <time>2020-10-17T09:59:40Z</time>
      </trkpt>
      <trkpt lat="46.1752" lon="4.56043">
        <ele>419.8</ele>
        <time>2020-10-17T09:59:41Z</time>
      </trkpt>
      <trkpt lat="46.17522" lon="4.56043">
        <ele>419.8</ele>
        <time>2020-10-17T09:59:42Z</time>
      </trkpt>
      <trkpt lat="46.17522" lon="4.56043">
        <ele>419.6</ele>
        <time>2020-10-17T09:59:43Z</time>
      </trkpt>
      <trkpt lat="46.17525" lon="4.56043">
        <ele>419.6</ele>
        <time>2020-10-17T09:59:44Z</time>
      </trkpt>
      <trkpt lat="46.17525" lon="4.56043">
        <ele>419.6</ele>
        <time>2020-10-17T09:59:45Z</time>
      </trkpt>
      <trkpt lat="46.17528" lon="4.56043">
        <ele>419.2</ele>
        <time>2020-10-17T09:59:46Z</time>
      </trkpt>
      <trkpt lat="46.17528" lon="4.56043">
        <ele>419</ele>
        <time>2020-10-17T09:59:47Z</time>
      </trkpt>
      <trkpt lat="46.1753" lon="4.56042">
        <ele>419.2</ele>
        <time>2020-10-17T09:59:48Z</time>
      </trkpt>
      <trkpt lat="46.1753" lon="4.56042">
        <ele>419</ele>
        <time>2020-10-17T09:59:49Z</time>
      </trkpt>
      <trkpt lat="46.17533" lon="4.56042">
        <ele>419</ele>
        <time>2020-10-17T09:59:50Z</time>
      </trkpt>
      <trkpt lat="46.17533" lon="4.56042">
        <ele>419.2</ele>
        <time>2020-10-17T09:59:51Z</time>
      </trkpt>
      <trkpt lat="46.17536" lon="4.56041">
        <ele>419</ele>
        <time>2020-10-17T09:59:52Z</time>
      </trkpt>
      <trkpt lat="46.17536" lon="4.56041">
        <ele>418.6</ele>
        <time>2020-10-17T09:59:53Z</time>
      </trkpt>
      <trkpt lat="46.17539" lon="4.5604">
        <ele>418.2</ele>
        <time>2020-10-17T09:59:54Z</time>
      </trkpt>
      <trkpt lat="46.17539" lon="4.5604">
        <ele>418</ele>
        <time>2020-10-17T09:59:55Z</time>
      </trkpt>
      <trkpt lat="46.17543" lon="4.5604">
        <ele>417.8</ele>
        <time>2020-10-17T09:59:56Z</time>
      </trkpt>
      <trkpt lat="46.17543" lon="4.5604">
        <ele>417.4</ele>
        <time>2020-10-17T09:59:57Z</time>
      </trkpt>
      <trkpt lat="46.17546" lon="4.56041">
        <ele>417.2</ele>
        <time>2020-10-17T09:59:58Z</time>
      </trkpt>
      <trkpt lat="46.17548" lon="4.56041">
        <ele>417.2</ele>
        <time>2020-10-17T09:59:59Z</time>
      </trkpt>
      <trkpt lat="46.17552" lon="4.5604">
        <ele>417.2</ele>
        <time>2020-10-17T10:00:01Z</time>
      </trkpt>
      <trkpt lat="46.17552" lon="4.5604">
        <ele>417.6</ele>
        <time>2020-10-17T10:00:02Z</time>
      </trkpt>
      <trkpt lat="46.17555" lon="4.5604">
        <ele>417.6</ele>
        <time>2020-10-17T10:00:03Z</time>
      </trkpt>
      <trkpt lat="46.17555" lon="4.5604">
        <ele>417.8</ele>
        <time>2020-10-17T10:00:04Z</time>
      </trkpt>
      <trkpt lat="46.17557" lon="4.5604">
        <ele>417.8</ele>
        <time>2020-10-17T10:00:05Z</time>
      </trkpt>
      <trkpt lat="46.17557" lon="4.5604">
        <ele>418.2</ele>
        <time>2020-10-17T10:00:06Z</time>
      </trkpt>
      <trkpt lat="46.17557" lon="4.5604">
        <ele>418.6</ele>
        <time>2020-10-17T10:00:07Z</time>
      </trkpt>
      <trkpt lat="46.17557" lon="4.5604">
        <ele>419</ele>
        <time>2020-10-17T10:00:08Z</time>
      </trkpt>
      <trkpt lat="46.17557" lon="4.5604">
        <ele>419.2</ele>
        <time>2020-10-17T10:00:09Z</time>
      </trkpt>
      <trkpt lat="46.17557" lon="4.5604">
        <ele>419.6</ele>
        <time>2020-10-17T10:00:10Z</time>
      </trkpt>
      <trkpt lat="46.17557" lon="4.5604">
        <ele>419.6</ele>
        <time>2020-10-17T10:00:11Z</time>
      </trkpt>
      <trkpt lat="46.17557" lon="4.5604">
        <ele>420</ele>
        <time>2020-10-17T10:00:12Z</time>
      </trkpt>
      <trkpt lat="46.17557" lon="4.5604">
        <ele>420</ele>
        <time>2020-10-17T10:00:13Z</time>
      </trkpt>
      <trkpt lat="46.17557" lon="4.5604">
        <ele>420.2</ele>
        <time>2020-10-17T10:00:14Z</time>
      </trkpt>
      <trkpt lat="46.17557" lon="4.5604">
        <ele>420.2</ele>
        <time>2020-10-17T10:00:15Z</time>
      </trkpt>
      <trkpt lat="46.17557" lon="4.5604">
        <ele>420.4</ele>
        <time>2020-10-17T10:00:16Z</time>
      </trkpt>
      <trkpt lat="46.17557" lon="4.5604">
        <ele>420.4</ele>
        <time>2020-10-17T10:00:17Z</time>
      </trkpt>
      <trkpt lat="46.17557" lon="4.5604">
        <ele>420.4</ele>
        <time>2020-10-17T10:00:18Z</time>
      </trkpt>
      <trkpt lat="46.17557" lon="4.5604">
        <ele>420.2</ele>
        <time>2020-10-17T10:00:19Z</time>
      </trkpt>
      <trkpt lat="46.17557" lon="4.5604">
        <ele>420.2</ele>
        <time>2020-10-17T10:00:20Z</time>
      </trkpt>
      <trkpt lat="46.17557" lon="4.5604">
        <ele>420.2</ele>
        <time>2020-10-17T10:00:21Z</time>
      </trkpt>
      <trkpt lat="46.17557" lon="4.5604">
        <ele>420.2</ele>
        <time>2020-10-17T10:00:22Z</time>
      </trkpt>
      <trkpt lat="46.17557" lon="4.5604">
        <ele>420</ele>
        <time>2020-10-17T10:00:23Z</time>
      </trkpt>
      <trkpt lat="46.17559" lon="4.5604">
        <ele>420.2</ele>
        <time>2020-10-17T10:00:24Z</time>
      </trkpt>
      <trkpt lat="46.17559" lon="4.5604">
        <ele>419.8</ele>
        <time>2020-10-17T10:00:25Z</time>
      </trkpt>
      <trkpt lat="46.17562" lon="4.5604">
        <ele>419.6</ele>
        <time>2020-10-17T10:00:26Z</time>
      </trkpt>
      <trkpt lat="46.17562" lon="4.5604">
        <ele>419.2</ele>
        <time>2020-10-17T10:00:27Z</time>
      </trkpt>
      <trkpt lat="46.17566" lon="4.56039">
        <ele>419</ele>
        <time>2020-10-17T10:00:28Z</time>
      </trkpt>
      <trkpt lat="46.17566" lon="4.56039">
        <ele>418.8</ele>
        <time>2020-10-17T10:00:29Z</time>
      </trkpt>
      <trkpt lat="46.17569" lon="4.56039">
        <ele>418.6</ele>
        <time>2020-10-17T10:00:30Z</time>
      </trkpt>
      <trkpt lat="46.17569" lon="4.56039">
        <ele>418.6</ele>
        <time>2020-10-17T10:00:31Z</time>
      </trkpt>
      <trkpt lat="46.17572" lon="4.56038">
        <ele>418.4</ele>
        <time>2020-10-17T10:00:32Z</time>
      </trkpt>
      <trkpt lat="46.17574" lon="4.56038">
        <ele>418.2</ele>
        <time>2020-10-17T10:00:33Z</time>
      </trkpt>
      <trkpt lat="46.17576" lon="4.56038">
        <ele>418.2</ele>
        <time>2020-10-17T10:00:34Z</time>
      </trkpt>
      <trkpt lat="46.17578" lon="4.56038">
        <ele>418</ele>
        <time>2020-10-17T10:00:35Z</time>
      </trkpt>
      <trkpt lat="46.17581" lon="4.56038">
        <ele>418</ele>
        <time>2020-10-17T10:00:36Z</time>
      </trkpt>
      <trkpt lat="46.17583" lon="4.56038">
        <ele>418.6</ele>
        <time>2020-10-17T10:00:37Z</time>
      </trkpt>
      <trkpt lat="46.17585" lon="4.56037">
        <ele>418.6</ele>
        <time>2020-10-17T10:00:38Z</time>
      </trkpt>
      <trkpt lat="46.17587" lon="4.56036">
        <ele>418.8</ele>
        <time>2020-10-17T10:00:39Z</time>
      </trkpt>
      <trkpt lat="46.1759" lon="4.56036">
        <ele>419</ele>
        <time>2020-10-17T10:00:40Z</time>
      </trkpt>
      <trkpt lat="46.17592" lon="4.56035">
        <ele>418.6</ele>
        <time>2020-10-17T10:00:41Z</time>
      </trkpt>
      <trkpt lat="46.17595" lon="4.56034">
        <ele>418.8</ele>
        <time>2020-10-17T10:00:42Z</time>
      </trkpt>
      <trkpt lat="46.17597" lon="4.56033">
        <ele>419.2</ele>
        <time>2020-10-17T10:00:43Z</time>
      </trkpt>
      <trkpt lat="46.17599" lon="4.56031">
        <ele>419.4</ele>
        <time>2020-10-17T10:00:44Z</time>
      </trkpt>
      <trkpt lat="46.17601" lon="4.56029">
        <ele>419</ele>
        <time>2020-10-17T10:00:45Z</time>
      </trkpt>
      <trkpt lat="46.17603" lon="4.56027">
        <ele>418.6</ele>
        <time>2020-10-17T10:00:46Z</time>
      </trkpt>
      <trkpt lat="46.17605" lon="4.56025">
        <ele>418.4</ele>
        <time>2020-10-17T10:00:47Z</time>
      </trkpt>
      <trkpt lat="46.17608" lon="4.56023">
        <ele>418.8</ele>
        <time>2020-10-17T10:00:48Z</time>
      </trkpt>
      <trkpt lat="46.1761" lon="4.56021">
        <ele>418.4</ele>
        <time>2020-10-17T10:00:49Z</time>
      </trkpt>
      <trkpt lat="46.17612" lon="4.56019">
        <ele>418.2</ele>
        <time>2020-10-17T10:00:50Z</time>
      </trkpt>
      <trkpt lat="46.17614" lon="4.56017">
        <ele>418.4</ele>
        <time>2020-10-17T10:00:51Z</time>
      </trkpt>
      <trkpt lat="46.17616" lon="4.56015">
        <ele>418.2</ele>
        <time>2020-10-17T10:00:52Z</time>
      </trkpt>
      <trkpt lat="46.17618" lon="4.56012">
        <ele>418</ele>
        <time>2020-10-17T10:00:53Z</time>
      </trkpt>
      <trkpt lat="46.1762" lon="4.5601">
        <ele>418.4</ele>
        <time>2020-10-17T10:00:54Z</time>
      </trkpt>
      <trkpt lat="46.17622" lon="4.56007">
        <ele>418</ele>
        <time>2020-10-17T10:00:55Z</time>
      </trkpt>
      <trkpt lat="46.17624" lon="4.56004">
        <ele>417.6</ele>
        <time>2020-10-17T10:00:56Z</time>
      </trkpt>
      <trkpt lat="46.17626" lon="4.56002">
        <ele>418.2</ele>
        <time>2020-10-17T10:00:57Z</time>
      </trkpt>
      <trkpt lat="46.17627" lon="4.56">
        <ele>417.8</ele>
        <time>2020-10-17T10:00:58Z</time>
      </trkpt>
      <trkpt lat="46.17629" lon="4.55997">
        <ele>417.2</ele>
        <time>2020-10-17T10:00:59Z</time>
      </trkpt>
      <trkpt lat="46.17631" lon="4.55995">
        <ele>417.4</ele>
        <time>2020-10-17T10:01:00Z</time>
      </trkpt>
      <trkpt lat="46.17632" lon="4.55992">
        <ele>417.2</ele>
        <time>2020-10-17T10:01:01Z</time>
      </trkpt>
      <trkpt lat="46.17634" lon="4.55989">
        <ele>417</ele>
        <time>2020-10-17T10:01:02Z</time>
      </trkpt>
      <trkpt lat="46.17636" lon="4.55986">
        <ele>417.4</ele>
        <time>2020-10-17T10:01:03Z</time>
      </trkpt>
      <trkpt lat="46.17637" lon="4.55983">
        <ele>417</ele>
        <time>2020-10-17T10:01:04Z</time>
      </trkpt>
      <trkpt lat="46.17639" lon="4.5598">
        <ele>417.2</ele>
        <time>2020-10-17T10:01:05Z</time>
      </trkpt>
      <trkpt lat="46.17641" lon="4.55978">
        <ele>417.4</ele>
        <time>2020-10-17T10:01:06Z</time>
      </trkpt>
      <trkpt lat="46.17643" lon="4.55975">
        <ele>417.2</ele>
        <time>2020-10-17T10:01:07Z</time>
      </trkpt>
      <trkpt lat="46.17645" lon="4.55973">
        <ele>416.8</ele>
        <time>2020-10-17T10:01:08Z</time>
      </trkpt>
      <trkpt lat="46.17648" lon="4.55971">
        <ele>417.2</ele>
        <time>2020-10-17T10:01:09Z</time>
      </trkpt>
      <trkpt lat="46.1765" lon="4.55969">
        <ele>416.8</ele>
        <time>2020-10-17T10:01:10Z</time>
      </trkpt>
      <trkpt lat="46.17652" lon="4.55967">
        <ele>416.8</ele>
        <time>2020-10-17T10:01:11Z</time>
      </trkpt>
      <trkpt lat="46.17655" lon="4.55966">
        <ele>416.8</ele>
        <time>2020-10-17T10:01:12Z</time>
      </trkpt>
      <trkpt lat="46.17657" lon="4.55964">
        <ele>416.2</ele>
        <time>2020-10-17T10:01:13Z</time>
      </trkpt>
      <trkpt lat="46.1766" lon="4.55963">
        <ele>416.4</ele>
        <time>2020-10-17T10:01:14Z</time>
      </trkpt>
      <trkpt lat="46.17662" lon="4.55962">
        <ele>416.6</ele>
        <time>2020-10-17T10:01:15Z</time>
      </trkpt>
      <trkpt lat="46.17665" lon="4.5596">
        <ele>416.4</ele>
        <time>2020-10-17T10:01:16Z</time>
      </trkpt>
      <trkpt lat="46.17667" lon="4.55958">
        <ele>416.6</ele>
        <time>2020-10-17T10:01:17Z</time>
      </trkpt>
      <trkpt lat="46.17669" lon="4.55957">
        <ele>416</ele>
        <time>2020-10-17T10:01:18Z</time>
      </trkpt>
      <trkpt lat="46.17672" lon="4.55956">
        <ele>415.8</ele>
        <time>2020-10-17T10:01:19Z</time>
      </trkpt>
      <trkpt lat="46.17675" lon="4.55955">
        <ele>416</ele>
        <time>2020-10-17T10:01:20Z</time>
      </trkpt>
      <trkpt lat="46.17677" lon="4.55954">
        <ele>415.8</ele>
        <time>2020-10-17T10:01:21Z</time>
      </trkpt>
      <trkpt lat="46.1768" lon="4.55954">
        <ele>415.6</ele>
        <time>2020-10-17T10:01:22Z</time>
      </trkpt>
      <trkpt lat="46.17682" lon="4.55953">
        <ele>416.2</ele>
        <time>2020-10-17T10:01:23Z</time>
      </trkpt>
      <trkpt lat="46.17684" lon="4.55953">
        <ele>415.8</ele>
        <time>2020-10-17T10:01:24Z</time>
      </trkpt>
      <trkpt lat="46.17687" lon="4.55953">
        <ele>415.8</ele>
        <time>2020-10-17T10:01:25Z</time>
      </trkpt>
      <trkpt lat="46.17689" lon="4.55953">
        <ele>416.4</ele>
        <time>2020-10-17T10:01:26Z</time>
      </trkpt>
      <trkpt lat="46.17691" lon="4.55953">
        <ele>416</ele>
        <time>2020-10-17T10:01:27Z</time>
      </trkpt>
      <trkpt lat="46.17694" lon="4.55953">
        <ele>416</ele>
        <time>2020-10-17T10:01:28Z</time>
      </trkpt>
      <trkpt lat="46.17696" lon="4.55953">
        <ele>416.6</ele>
        <time>2020-10-17T10:01:29Z</time>
      </trkpt>
      <trkpt lat="46.17698" lon="4.55953">
        <ele>416.6</ele>
        <time>2020-10-17T10:01:30Z</time>
      </trkpt>
      <trkpt lat="46.17701" lon="4.55952">
        <ele>416.6</ele>
        <time>2020-10-17T10:01:31Z</time>
      </trkpt>
      <trkpt lat="46.17703" lon="4.55952">
        <ele>417.2</ele>
        <time>2020-10-17T10:01:32Z</time>
      </trkpt>
      <trkpt lat="46.17705" lon="4.55952">
        <ele>417</ele>
        <time>2020-10-17T10:01:33Z</time>
      </trkpt>
      <trkpt lat="46.17708" lon="4.55951">
        <ele>417</ele>
        <time>2020-10-17T10:01:34Z</time>
      </trkpt>
      <trkpt lat="46.17711" lon="4.55951">
        <ele>417.4</ele>
        <time>2020-10-17T10:01:35Z</time>
      </trkpt>
      <trkpt lat="46.17713" lon="4.55951">
        <ele>417.2</ele>
        <time>2020-10-17T10:01:36Z</time>
      </trkpt>
      <trkpt lat="46.17713" lon="4.55951">
        <ele>417</ele>
        <time>2020-10-17T10:01:37Z</time>
      </trkpt>
      <trkpt lat="46.17716" lon="4.55951">
        <ele>417.6</ele>
        <time>2020-10-17T10:01:38Z</time>
      </trkpt>
      <trkpt lat="46.17716" lon="4.55951">
        <ele>417.6</ele>
        <time>2020-10-17T10:01:39Z</time>
      </trkpt>
      <trkpt lat="46.1772" lon="4.55951">
        <ele>417.4</ele>
        <time>2020-10-17T10:01:40Z</time>
      </trkpt>
      <trkpt lat="46.1772" lon="4.55951">
        <ele>417.6</ele>
        <time>2020-10-17T10:01:41Z</time>
      </trkpt>
      <trkpt lat="46.17723" lon="4.55952">
        <ele>417.4</ele>
        <time>2020-10-17T10:01:42Z</time>
      </trkpt>
      <trkpt lat="46.17723" lon="4.55952">
        <ele>417.8</ele>
        <time>2020-10-17T10:01:43Z</time>
      </trkpt>
      <trkpt lat="46.17726" lon="4.55953">
        <ele>417.8</ele>
        <time>2020-10-17T10:01:44Z</time>
      </trkpt>
      <trkpt lat="46.17726" lon="4.55953">
        <ele>417.6</ele>
        <time>2020-10-17T10:01:45Z</time>
      </trkpt>
      <trkpt lat="46.17729" lon="4.55954">
        <ele>417.8</ele>
        <time>2020-10-17T10:01:46Z</time>
      </trkpt>
      <trkpt lat="46.17729" lon="4.55954">
        <ele>418</ele>
        <time>2020-10-17T10:01:47Z</time>
      </trkpt>
      <trkpt lat="46.17732" lon="4.55954">
        <ele>418.4</ele>
        <time>2020-10-17T10:01:48Z</time>
      </trkpt>
      <trkpt lat="46.17732" lon="4.55954">
        <ele>418.6</ele>
        <time>2020-10-17T10:01:49Z</time>
      </trkpt>
      <trkpt lat="46.17735" lon="4.55954">
        <ele>418.6</ele>
        <time>2020-10-17T10:01:50Z</time>
      </trkpt>
      <trkpt lat="46.17735" lon="4.55954">
        <ele>418.8</ele>
        <time>2020-10-17T10:01:51Z</time>
      </trkpt>
      <trkpt lat="46.17738" lon="4.55954">
        <ele>418.6</ele>
        <time>2020-10-17T10:01:52Z</time>
      </trkpt>
      <trkpt lat="46.17738" lon="4.55954">
        <ele>419</ele>
        <time>2020-10-17T10:01:53Z</time>
      </trkpt>
      <trkpt lat="46.17741" lon="4.55954">
        <ele>419</ele>
        <time>2020-10-17T10:01:54Z</time>
      </trkpt>
      <trkpt lat="46.17741" lon="4.55954">
        <ele>418.8</ele>
        <time>2020-10-17T10:01:55Z</time>
      </trkpt>
      <trkpt lat="46.17744" lon="4.55954">
        <ele>419.6</ele>
        <time>2020-10-17T10:01:56Z</time>
      </trkpt>
      <trkpt lat="46.17744" lon="4.55954">
        <ele>419.6</ele>
        <time>2020-10-17T10:01:57Z</time>
      </trkpt>
      <trkpt lat="46.17748" lon="4.55954">
        <ele>420</ele>
        <time>2020-10-17T10:01:58Z</time>
      </trkpt>
      <trkpt lat="46.17748" lon="4.55954">
        <ele>420</ele>
        <time>2020-10-17T10:01:59Z</time>
      </trkpt>
      <trkpt lat="46.17751" lon="4.55954">
        <ele>420</ele>
        <time>2020-10-17T10:02:00Z</time>
      </trkpt>
      <trkpt lat="46.17751" lon="4.55954">
        <ele>420</ele>
        <time>2020-10-17T10:02:01Z</time>
      </trkpt>
      <trkpt lat="46.17754" lon="4.55953">
        <ele>420.2</ele>
        <time>2020-10-17T10:02:02Z</time>
      </trkpt>
      <trkpt lat="46.17754" lon="4.55953">
        <ele>420.6</ele>
        <time>2020-10-17T10:02:03Z</time>
      </trkpt>
      <trkpt lat="46.17757" lon="4.55952">
        <ele>420.8</ele>
        <time>2020-10-17T10:02:04Z</time>
      </trkpt>
      <trkpt lat="46.17757" lon="4.55952">
        <ele>420.8</ele>
        <time>2020-10-17T10:02:05Z</time>
      </trkpt>
      <trkpt lat="46.1776" lon="4.55952">
        <ele>421.2</ele>
        <time>2020-10-17T10:02:06Z</time>
      </trkpt>
      <trkpt lat="46.1776" lon="4.55952">
        <ele>421.2</ele>
        <time>2020-10-17T10:02:07Z</time>
      </trkpt>
      <trkpt lat="46.17762" lon="4.5595">
        <ele>421.4</ele>
        <time>2020-10-17T10:02:08Z</time>
      </trkpt>
      <trkpt lat="46.17762" lon="4.5595">
        <ele>421.2</ele>
        <time>2020-10-17T10:02:09Z</time>
      </trkpt>
      <trkpt lat="46.17765" lon="4.55948">
        <ele>421.4</ele>
        <time>2020-10-17T10:02:10Z</time>
      </trkpt>
      <trkpt lat="46.17765" lon="4.55948">
        <ele>421.4</ele>
        <time>2020-10-17T10:02:11Z</time>
      </trkpt>
      <trkpt lat="46.17768" lon="4.55946">
        <ele>421.2</ele>
        <time>2020-10-17T10:02:12Z</time>
      </trkpt>
      <trkpt lat="46.1777" lon="4.55945">
        <ele>421.4</ele>
        <time>2020-10-17T10:02:13Z</time>
      </trkpt>
      <trkpt lat="46.1777" lon="4.55945">
        <ele>421.4</ele>
        <time>2020-10-17T10:02:14Z</time>
      </trkpt>
      <trkpt lat="46.17773" lon="4.55943">
        <ele>421.8</ele>
        <time>2020-10-17T10:02:15Z</time>
      </trkpt>
      <trkpt lat="46.17773" lon="4.55943">
        <ele>421.8</ele>
        <time>2020-10-17T10:02:16Z</time>
      </trkpt>
      <trkpt lat="46.17776" lon="4.55941">
        <ele>422</ele>
        <time>2020-10-17T10:02:17Z</time>
      </trkpt>
      <trkpt lat="46.17776" lon="4.55941">
        <ele>422.2</ele>
        <time>2020-10-17T10:02:18Z</time>
      </trkpt>
      <trkpt lat="46.17784" lon="4.55938">
        <ele>422.6</ele>
        <time>2020-10-17T10:02:23Z</time>
      </trkpt>
      <trkpt lat="46.17784" lon="4.55938">
        <ele>423</ele>
        <time>2020-10-17T10:02:24Z</time>
      </trkpt>
      <trkpt lat="46.17787" lon="4.55937">
        <ele>423</ele>
        <time>2020-10-17T10:02:25Z</time>
      </trkpt>
      <trkpt lat="46.17787" lon="4.55937">
        <ele>423</ele>
        <time>2020-10-17T10:02:26Z</time>
      </trkpt>
      <trkpt lat="46.17789" lon="4.55936">
        <ele>423.4</ele>
        <time>2020-10-17T10:02:27Z</time>
      </trkpt>
      <trkpt lat="46.17789" lon="4.55936">
        <ele>423.6</ele>
        <time>2020-10-17T10:02:28Z</time>
      </trkpt>
      <trkpt lat="46.17792" lon="4.55934">
        <ele>423.6</ele>
        <time>2020-10-17T10:02:29Z</time>
      </trkpt>
      <trkpt lat="46.17792" lon="4.55934">
        <ele>423.6</ele>
        <time>2020-10-17T10:02:30Z</time>
      </trkpt>
      <trkpt lat="46.17795" lon="4.55933">
        <ele>423.6</ele>
        <time>2020-10-17T10:02:31Z</time>
      </trkpt>
      <trkpt lat="46.17795" lon="4.55933">
        <ele>423.6</ele>
        <time>2020-10-17T10:02:32Z</time>
      </trkpt>
      <trkpt lat="46.17797" lon="4.55932">
        <ele>423.6</ele>
        <time>2020-10-17T10:02:33Z</time>
      </trkpt>
      <trkpt lat="46.17797" lon="4.55932">
        <ele>423.6</ele>
        <time>2020-10-17T10:02:34Z</time>
      </trkpt>
      <trkpt lat="46.178" lon="4.55932">
        <ele>423.6</ele>
        <time>2020-10-17T10:02:35Z</time>
      </trkpt>
      <trkpt lat="46.178" lon="4.55932">
        <ele>423.8</ele>
        <time>2020-10-17T10:02:36Z</time>
      </trkpt>
      <trkpt lat="46.17803" lon="4.55933">
        <ele>423.6</ele>
        <time>2020-10-17T10:02:37Z</time>
      </trkpt>
      <trkpt lat="46.17803" lon="4.55933">
        <ele>423.8</ele>
        <time>2020-10-17T10:02:38Z</time>
      </trkpt>
      <trkpt lat="46.17806" lon="4.55933">
        <ele>423.8</ele>
        <time>2020-10-17T10:02:39Z</time>
      </trkpt>
      <trkpt lat="46.17806" lon="4.55933">
        <ele>423.6</ele>
        <time>2020-10-17T10:02:40Z</time>
      </trkpt>
      <trkpt lat="46.17809" lon="4.5593">
        <ele>423.8</ele>
        <time>2020-10-17T10:02:41Z</time>
      </trkpt>
      <trkpt lat="46.17809" lon="4.5593">
        <ele>424</ele>
        <time>2020-10-17T10:02:42Z</time>
      </trkpt>
      <trkpt lat="46.17811" lon="4.55927">
        <ele>424</ele>
        <time>2020-10-17T10:02:43Z</time>
      </trkpt>
      <trkpt lat="46.17811" lon="4.55927">
        <ele>424</ele>
        <time>2020-10-17T10:02:44Z</time>
      </trkpt>
      <trkpt lat="46.17813" lon="4.55924">
        <ele>424</ele>
        <time>2020-10-17T10:02:45Z</time>
      </trkpt>
      <trkpt lat="46.17813" lon="4.55924">
        <ele>423.8</ele>
        <time>2020-10-17T10:02:46Z</time>
      </trkpt>
      <trkpt lat="46.17815" lon="4.55921">
        <ele>423.4</ele>
        <time>2020-10-17T10:02:47Z</time>
      </trkpt>
      <trkpt lat="46.17815" lon="4.55921">
        <ele>423</ele>
        <time>2020-10-17T10:02:48Z</time>
      </trkpt>
      <trkpt lat="46.17817" lon="4.55919">
        <ele>422.6</ele>
        <time>2020-10-17T10:02:49Z</time>
      </trkpt>
      <trkpt lat="46.17817" lon="4.55919">
        <ele>422.4</ele>
        <time>2020-10-17T10:02:50Z</time>
      </trkpt>
      <trkpt lat="46.17817" lon="4.55919">
        <ele>422.2</ele>
        <time>2020-10-17T10:02:51Z</time>
      </trkpt>
      <trkpt lat="46.17817" lon="4.55919">
        <ele>422</ele>
        <time>2020-10-17T10:02:52Z</time>
      </trkpt>
      <trkpt lat="46.17815" lon="4.55922">
        <ele>422</ele>
        <time>2020-10-17T10:02:53Z</time>
      </trkpt>
      <trkpt lat="46.17815" lon="4.55922">
        <ele>421.8</ele>
        <time>2020-10-17T10:02:54Z</time>
      </trkpt>
      <trkpt lat="46.17813" lon="4.55925">
        <ele>421.8</ele>
        <time>2020-10-17T10:02:55Z</time>
      </trkpt>
      <trkpt lat="46.17813" lon="4.55925">
        <ele>421.8</ele>
        <time>2020-10-17T10:02:56Z</time>
      </trkpt>
      <trkpt lat="46.17811" lon="4.55928">
        <ele>422</ele>
        <time>2020-10-17T10:02:57Z</time>
      </trkpt>
      <trkpt lat="46.17811" lon="4.55928">
        <ele>421.8</ele>
        <time>2020-10-17T10:02:58Z</time>
      </trkpt>
      <trkpt lat="46.17808" lon="4.55931">
        <ele>421.6</ele>
        <time>2020-10-17T10:02:59Z</time>
      </trkpt>
      <trkpt lat="46.17808" lon="4.55931">
        <ele>421.8</ele>
        <time>2020-10-17T10:03:00Z</time>
      </trkpt>
      <trkpt lat="46.17805" lon="4.55932">
        <ele>422.2</ele>
        <time>2020-10-17T10:03:01Z</time>
      </trkpt>
      <trkpt lat="46.17805" lon="4.55932">
        <ele>422.6</ele>
        <time>2020-10-17T10:03:02Z</time>
      </trkpt>
      <trkpt lat="46.17802" lon="4.55933">
        <ele>422.6</ele>
        <time>2020-10-17T10:03:03Z</time>
      </trkpt>
      <trkpt lat="46.17802" lon="4.55933">
        <ele>422.8</ele>
        <time>2020-10-17T10:03:04Z</time>
      </trkpt>
      <trkpt lat="46.17799" lon="4.55934">
        <ele>423</ele>
        <time>2020-10-17T10:03:05Z</time>
      </trkpt>
      <trkpt lat="46.17799" lon="4.55934">
        <ele>423.2</ele>
        <time>2020-10-17T10:03:06Z</time>
      </trkpt>
      <trkpt lat="46.17797" lon="4.55935">
        <ele>423.4</ele>
        <time>2020-10-17T10:03:07Z</time>
      </trkpt>
      <trkpt lat="46.17797" lon="4.55935">
        <ele>423.6</ele>
        <time>2020-10-17T10:03:08Z</time>
      </trkpt>
      <trkpt lat="46.17797" lon="4.55935">
        <ele>423.6</ele>
        <time>2020-10-17T10:03:09Z</time>
      </trkpt>
      <trkpt lat="46.17797" lon="4.55935">
        <ele>423.4</ele>
        <time>2020-10-17T10:03:10Z</time>
      </trkpt>
      <trkpt lat="46.17797" lon="4.55935">
        <ele>423.4</ele>
        <time>2020-10-17T10:03:11Z</time>
      </trkpt>
      <trkpt lat="46.17795" lon="4.55937">
        <ele>423.4</ele>
        <time>2020-10-17T10:03:12Z</time>
      </trkpt>
      <trkpt lat="46.17795" lon="4.55937">
        <ele>423.4</ele>
        <time>2020-10-17T10:03:13Z</time>
      </trkpt>
      <trkpt lat="46.17795" lon="4.55937">
        <ele>423.2</ele>
        <time>2020-10-17T10:03:14Z</time>
      </trkpt>
      <trkpt lat="46.17795" lon="4.55937">
        <ele>423</ele>
        <time>2020-10-17T10:03:15Z</time>
      </trkpt>
      <trkpt lat="46.17795" lon="4.55937">
        <ele>423</ele>
        <time>2020-10-17T10:03:16Z</time>
      </trkpt>
      <trkpt lat="46.17798" lon="4.55936">
        <ele>423</ele>
        <time>2020-10-17T10:03:17Z</time>
      </trkpt>
      <trkpt lat="46.17798" lon="4.55936">
        <ele>423</ele>
        <time>2020-10-17T10:03:18Z</time>
      </trkpt>
      <trkpt lat="46.17801" lon="4.55936">
        <ele>423.2</ele>
        <time>2020-10-17T10:03:19Z</time>
      </trkpt>
      <trkpt lat="46.17801" lon="4.55936">
        <ele>423</ele>
        <time>2020-10-17T10:03:20Z</time>
      </trkpt>
      <trkpt lat="46.17804" lon="4.55937">
        <ele>423.2</ele>
        <time>2020-10-17T10:03:21Z</time>
      </trkpt>
      <trkpt lat="46.17804" lon="4.55937">
        <ele>423.2</ele>
        <time>2020-10-17T10:03:22Z</time>
      </trkpt>
      <trkpt lat="46.17807" lon="4.55937">
        <ele>423</ele>
        <time>2020-10-17T10:03:23Z</time>
      </trkpt>
      <trkpt lat="46.17807" lon="4.55937">
        <ele>423</ele>
        <time>2020-10-17T10:03:24Z</time>
      </trkpt>
      <trkpt lat="46.17809" lon="4.55937">
        <ele>423</ele>
        <time>2020-10-17T10:03:25Z</time>
      </trkpt>
      <trkpt lat="46.17809" lon="4.55937">
        <ele>423.4</ele>
        <time>2020-10-17T10:03:26Z</time>
      </trkpt>
      <trkpt lat="46.17812" lon="4.55938">
        <ele>423.6</ele>
        <time>2020-10-17T10:03:27Z</time>
      </trkpt>
      <trkpt lat="46.17812" lon="4.55938">
        <ele>423.8</ele>
        <time>2020-10-17T10:03:28Z</time>
      </trkpt>
      <trkpt lat="46.17815" lon="4.55939">
        <ele>424</ele>
        <time>2020-10-17T10:03:29Z</time>
      </trkpt>
      <trkpt lat="46.17815" lon="4.55939">
        <ele>424.2</ele>
        <time>2020-10-17T10:03:30Z</time>
      </trkpt>
      <trkpt lat="46.17817" lon="4.55939">
        <ele>424.8</ele>
        <time>2020-10-17T10:03:31Z</time>
      </trkpt>
      <trkpt lat="46.17817" lon="4.55939">
        <ele>425.2</ele>
        <time>2020-10-17T10:03:32Z</time>
      </trkpt>
      <trkpt lat="46.1782" lon="4.5594">
        <ele>425.2</ele>
        <time>2020-10-17T10:03:33Z</time>
      </trkpt>
      <trkpt lat="46.1782" lon="4.5594">
        <ele>425.6</ele>
        <time>2020-10-17T10:03:34Z</time>
      </trkpt>
      <trkpt lat="46.17822" lon="4.55941">
        <ele>425.8</ele>
        <time>2020-10-17T10:03:35Z</time>
      </trkpt>
      <trkpt lat="46.17822" lon="4.55941">
        <ele>426.2</ele>
        <time>2020-10-17T10:03:36Z</time>
      </trkpt>
      <trkpt lat="46.17825" lon="4.55942">
        <ele>426.2</ele>
        <time>2020-10-17T10:03:37Z</time>
      </trkpt>
      <trkpt lat="46.17825" lon="4.55942">
        <ele>426.8</ele>
        <time>2020-10-17T10:03:38Z</time>
      </trkpt>
      <trkpt lat="46.17827" lon="4.55943">
        <ele>426.8</ele>
        <time>2020-10-17T10:03:39Z</time>
      </trkpt>
      <trkpt lat="46.17827" lon="4.55943">
        <ele>427.4</ele>
        <time>2020-10-17T10:03:40Z</time>
      </trkpt>
      <trkpt lat="46.1783" lon="4.55944">
        <ele>427.8</ele>
        <time>2020-10-17T10:03:41Z</time>
      </trkpt>
      <trkpt lat="46.1783" lon="4.55944">
        <ele>428.2</ele>
        <time>2020-10-17T10:03:42Z</time>
      </trkpt>
      <trkpt lat="46.17832" lon="4.55946">
        <ele>428.4</ele>
        <time>2020-10-17T10:03:43Z</time>
      </trkpt>
      <trkpt lat="46.17832" lon="4.55946">
        <ele>428.4</ele>
        <time>2020-10-17T10:03:44Z</time>
      </trkpt>
      <trkpt lat="46.17832" lon="4.55946">
        <ele>428.6</ele>
        <time>2020-10-17T10:03:45Z</time>
      </trkpt>
      <trkpt lat="46.17832" lon="4.55946">
        <ele>428.8</ele>
        <time>2020-10-17T10:03:46Z</time>
      </trkpt>
      <trkpt lat="46.17832" lon="4.55946">
        <ele>429.2</ele>
        <time>2020-10-17T10:03:47Z</time>
      </trkpt>
      <trkpt lat="46.17832" lon="4.55946">
        <ele>429.6</ele>
        <time>2020-10-17T10:03:48Z</time>
      </trkpt>
      <trkpt lat="46.17832" lon="4.55946">
        <ele>429.6</ele>
        <time>2020-10-17T10:03:49Z</time>
      </trkpt>
      <trkpt lat="46.17829" lon="4.55946">
        <ele>429.6</ele>
        <time>2020-10-17T10:03:50Z</time>
      </trkpt>
      <trkpt lat="46.17827" lon="4.55945">
        <ele>429.4</ele>
        <time>2020-10-17T10:03:51Z</time>
      </trkpt>
      <trkpt lat="46.17825" lon="4.55944">
        <ele>429.4</ele>
        <time>2020-10-17T10:03:52Z</time>
      </trkpt>
      <trkpt lat="46.17823" lon="4.55943">
        <ele>429</ele>
        <time>2020-10-17T10:03:53Z</time>
      </trkpt>
      <trkpt lat="46.1782" lon="4.55942">
        <ele>428.8</ele>
        <time>2020-10-17T10:03:54Z</time>
      </trkpt>
      <trkpt lat="46.17818" lon="4.55942">
        <ele>428</ele>
        <time>2020-10-17T10:03:55Z</time>
      </trkpt>
      <trkpt lat="46.17816" lon="4.55941">
        <ele>427.6</ele>
        <time>2020-10-17T10:03:56Z</time>
      </trkpt>
      <trkpt lat="46.17814" lon="4.55941">
        <ele>427.4</ele>
        <time>2020-10-17T10:03:57Z</time>
      </trkpt>
      <trkpt lat="46.17812" lon="4.55941">
        <ele>427</ele>
        <time>2020-10-17T10:03:58Z</time>
      </trkpt>
      <trkpt lat="46.1781" lon="4.5594">
        <ele>426.6</ele>
        <time>2020-10-17T10:03:59Z</time>
      </trkpt>
      <trkpt lat="46.1781" lon="4.5594">
        <ele>426.6</ele>
        <time>2020-10-17T10:04:00Z</time>
      </trkpt>
      <trkpt lat="46.17807" lon="4.55938">
        <ele>426.4</ele>
        <time>2020-10-17T10:04:01Z</time>
      </trkpt>
      <trkpt lat="46.17807" lon="4.55938">
        <ele>425.8</ele>
        <time>2020-10-17T10:04:02Z</time>
      </trkpt>
      <trkpt lat="46.17804" lon="4.55936">
        <ele>425.2</ele>
        <time>2020-10-17T10:04:03Z</time>
      </trkpt>
      <trkpt lat="46.17804" lon="4.55936">
        <ele>424.6</ele>
        <time>2020-10-17T10:04:04Z</time>
      </trkpt>
      <trkpt lat="46.17804" lon="4.55934">
        <ele>424.2</ele>
        <time>2020-10-17T10:04:05Z</time>
      </trkpt>
      <trkpt lat="46.17804" lon="4.55934">
        <ele>424</ele>
        <time>2020-10-17T10:04:06Z</time>
      </trkpt>
      <trkpt lat="46.17806" lon="4.5593">
        <ele>423.8</ele>
        <time>2020-10-17T10:04:07Z</time>
      </trkpt>
      <trkpt lat="46.17806" lon="4.5593">
        <ele>423.6</ele>
        <time>2020-10-17T10:04:08Z</time>
      </trkpt>
      <trkpt lat="46.17809" lon="4.55928">
        <ele>423.4</ele>
        <time>2020-10-17T10:04:09Z</time>
      </trkpt>
      <trkpt lat="46.17809" lon="4.55928">
        <ele>423</ele>
        <time>2020-10-17T10:04:10Z</time>
      </trkpt>
      <trkpt lat="46.17812" lon="4.55925">
        <ele>423</ele>
        <time>2020-10-17T10:04:11Z</time>
      </trkpt>
      <trkpt lat="46.17812" lon="4.55925">
        <ele>422.6</ele>
        <time>2020-10-17T10:04:12Z</time>
      </trkpt>
      <trkpt lat="46.17815" lon="4.55923">
        <ele>422.4</ele>
        <time>2020-10-17T10:04:13Z</time>
      </trkpt>
      <trkpt lat="46.17815" lon="4.55923">
        <ele>422.2</ele>
        <time>2020-10-17T10:04:14Z</time>
      </trkpt>
      <trkpt lat="46.17818" lon="4.55921">
        <ele>422</ele>
        <time>2020-10-17T10:04:15Z</time>
      </trkpt>
      <trkpt lat="46.17818" lon="4.55921">
        <ele>422</ele>
        <time>2020-10-17T10:04:16Z</time>
      </trkpt>
      <trkpt lat="46.17821" lon="4.55919">
        <ele>421.8</ele>
        <time>2020-10-17T10:04:17Z</time>
      </trkpt>
      <trkpt lat="46.17821" lon="4.55919">
        <ele>421.4</ele>
        <time>2020-10-17T10:04:18Z</time>
      </trkpt>
      <trkpt lat="46.17824" lon="4.55916">
        <ele>421.2</ele>
        <time>2020-10-17T10:04:19Z</time>
      </trkpt>
      <trkpt lat="46.17824" lon="4.55916">
        <ele>421</ele>
        <time>2020-10-17T10:04:20Z</time>
      </trkpt>
      <trkpt lat="46.17827" lon="4.55912">
        <ele>420.6</ele>
        <time>2020-10-17T10:04:21Z</time>
      </trkpt>
      <trkpt lat="46.17828" lon="4.55911">
        <ele>420.6</ele>
        <time>2020-10-17T10:04:22Z</time>
      </trkpt>
      <trkpt lat="46.17828" lon="4.55911">
        <ele>420.6</ele>
        <time>2020-10-17T10:04:23Z</time>
      </trkpt>
      <trkpt lat="46.17831" lon="4.55908">
        <ele>420.4</ele>
        <time>2020-10-17T10:04:24Z</time>
      </trkpt>
      <trkpt lat="46.17831" lon="4.55908">
        <ele>420.4</ele>
        <time>2020-10-17T10:04:25Z</time>
      </trkpt>
      <trkpt lat="46.17833" lon="4.55904">
        <ele>420</ele>
        <time>2020-10-17T10:04:26Z</time>
      </trkpt>
      <trkpt lat="46.17833" lon="4.55904">
        <ele>419.8</ele>
        <time>2020-10-17T10:04:27Z</time>
      </trkpt>
      <trkpt lat="46.17836" lon="4.55902">
        <ele>419.6</ele>
        <time>2020-10-17T10:04:28Z</time>
      </trkpt>
      <trkpt lat="46.17836" lon="4.55902">
        <ele>419.4</ele>
        <time>2020-10-17T10:04:29Z</time>
      </trkpt>
      <trkpt lat="46.17839" lon="4.55899">
        <ele>419.4</ele>
        <time>2020-10-17T10:04:30Z</time>
      </trkpt>
      <trkpt lat="46.17839" lon="4.55899">
        <ele>419.2</ele>
        <time>2020-10-17T10:04:31Z</time>
      </trkpt>
      <trkpt lat="46.17841" lon="4.55897">
        <ele>419.2</ele>
        <time>2020-10-17T10:04:32Z</time>
      </trkpt>
      <trkpt lat="46.17841" lon="4.55897">
        <ele>419.2</ele>
        <time>2020-10-17T10:04:33Z</time>
      </trkpt>
      <trkpt lat="46.17844" lon="4.55894">
        <ele>419.2</ele>
        <time>2020-10-17T10:04:34Z</time>
      </trkpt>
      <trkpt lat="46.17844" lon="4.55894">
        <ele>419</ele>
        <time>2020-10-17T10:04:35Z</time>
      </trkpt>
      <trkpt lat="46.17847" lon="4.55892">
        <ele>418.8</ele>
        <time>2020-10-17T10:04:36Z</time>
      </trkpt>
      <trkpt lat="46.17847" lon="4.55892">
        <ele>418.8</ele>
        <time>2020-10-17T10:04:37Z</time>
      </trkpt>
      <trkpt lat="46.17849" lon="4.55889">
        <ele>418.6</ele>
        <time>2020-10-17T10:04:38Z</time>
      </trkpt>
      <trkpt lat="46.17849" lon="4.55889">
        <ele>418.8</ele>
        <time>2020-10-17T10:04:39Z</time>
      </trkpt>
      <trkpt lat="46.17851" lon="4.55886">
        <ele>418.6</ele>
        <time>2020-10-17T10:04:40Z</time>
      </trkpt>
      <trkpt lat="46.17851" lon="4.55886">
        <ele>418.6</ele>
        <time>2020-10-17T10:04:41Z</time>
      </trkpt>
      <trkpt lat="46.17853" lon="4.55883">
        <ele>418.6</ele>
        <time>2020-10-17T10:04:42Z</time>
      </trkpt>
      <trkpt lat="46.17853" lon="4.55883">
        <ele>418.6</ele>
        <time>2020-10-17T10:04:43Z</time>
      </trkpt>
      <trkpt lat="46.17855" lon="4.5588">
        <ele>418.8</ele>
        <time>2020-10-17T10:04:44Z</time>
      </trkpt>
      <trkpt lat="46.17855" lon="4.5588">
        <ele>418.6</ele>
        <time>2020-10-17T10:04:45Z</time>
      </trkpt>
      <trkpt lat="46.17858" lon="4.55877">
        <ele>418.8</ele>
        <time>2020-10-17T10:04:46Z</time>
      </trkpt>
      <trkpt lat="46.17858" lon="4.55877">
        <ele>418.8</ele>
        <time>2020-10-17T10:04:47Z</time>
      </trkpt>
      <trkpt lat="46.1786" lon="4.55873">
        <ele>418.6</ele>
        <time>2020-10-17T10:04:48Z</time>
      </trkpt>
      <trkpt lat="46.1786" lon="4.55873">
        <ele>418.6</ele>
        <time>2020-10-17T10:04:49Z</time>
      </trkpt>
      <trkpt lat="46.17861" lon="4.5587">
        <ele>418.6</ele>
        <time>2020-10-17T10:04:50Z</time>
      </trkpt>
      <trkpt lat="46.17861" lon="4.5587">
        <ele>419</ele>
        <time>2020-10-17T10:04:51Z</time>
      </trkpt>
      <trkpt lat="46.17863" lon="4.55867">
        <ele>419</ele>
        <time>2020-10-17T10:04:52Z</time>
      </trkpt>
      <trkpt lat="46.17863" lon="4.55867">
        <ele>419</ele>
        <time>2020-10-17T10:04:53Z</time>
      </trkpt>
      <trkpt lat="46.17864" lon="4.55863">
        <ele>419.2</ele>
        <time>2020-10-17T10:04:54Z</time>
      </trkpt>
      <trkpt lat="46.17864" lon="4.55863">
        <ele>419</ele>
        <time>2020-10-17T10:04:55Z</time>
      </trkpt>
      <trkpt lat="46.17865" lon="4.55859">
        <ele>419.2</ele>
        <time>2020-10-17T10:04:56Z</time>
      </trkpt>
      <trkpt lat="46.17865" lon="4.55857">
        <ele>419.2</ele>
        <time>2020-10-17T10:04:57Z</time>
      </trkpt>
      <trkpt lat="46.17865" lon="4.55857">
        <ele>419.4</ele>
        <time>2020-10-17T10:04:58Z</time>
      </trkpt>
      <trkpt lat="46.17866" lon="4.55852">
        <ele>419.4</ele>
        <time>2020-10-17T10:04:59Z</time>
      </trkpt>
      <trkpt lat="46.17866" lon="4.55852">
        <ele>419.6</ele>
        <time>2020-10-17T10:05:00Z</time>
      </trkpt>
      <trkpt lat="46.17868" lon="4.55848">
        <ele>419.8</ele>
        <time>2020-10-17T10:05:01Z</time>
      </trkpt>
      <trkpt lat="46.17868" lon="4.55848">
        <ele>419.8</ele>
        <time>2020-10-17T10:05:02Z</time>
      </trkpt>
      <trkpt lat="46.17869" lon="4.55844">
        <ele>419.8</ele>
        <time>2020-10-17T10:05:03Z</time>
      </trkpt>
      <trkpt lat="46.17869" lon="4.55844">
        <ele>419.8</ele>
        <time>2020-10-17T10:05:04Z</time>
      </trkpt>
      <trkpt lat="46.1787" lon="4.5584">
        <ele>420</ele>
        <time>2020-10-17T10:05:05Z</time>
      </trkpt>
      <trkpt lat="46.1787" lon="4.5584">
        <ele>419.8</ele>
        <time>2020-10-17T10:05:06Z</time>
      </trkpt>
      <trkpt lat="46.17871" lon="4.55835">
        <ele>419.8</ele>
        <time>2020-10-17T10:05:07Z</time>
      </trkpt>
      <trkpt lat="46.17871" lon="4.55835">
        <ele>419.8</ele>
        <time>2020-10-17T10:05:08Z</time>
      </trkpt>
      <trkpt lat="46.17873" lon="4.55831">
        <ele>419.8</ele>
        <time>2020-10-17T10:05:09Z</time>
      </trkpt>
      <trkpt lat="46.17873" lon="4.55828">
        <ele>419.8</ele>
        <time>2020-10-17T10:05:10Z</time>
      </trkpt>
      <trkpt lat="46.17873" lon="4.55828">
        <ele>419.8</ele>
        <time>2020-10-17T10:05:11Z</time>
      </trkpt>
      <trkpt lat="46.17874" lon="4.55824">
        <ele>419.8</ele>
        <time>2020-10-17T10:05:12Z</time>
      </trkpt>
      <trkpt lat="46.17874" lon="4.55824">
        <ele>419.6</ele>
        <time>2020-10-17T10:05:13Z</time>
      </trkpt>
      <trkpt lat="46.17876" lon="4.5582">
        <ele>419.8</ele>
        <time>2020-10-17T10:05:14Z</time>
      </trkpt>
      <trkpt lat="46.17876" lon="4.5582">
        <ele>419.8</ele>
        <time>2020-10-17T10:05:15Z</time>
      </trkpt>
      <trkpt lat="46.17877" lon="4.55816">
        <ele>420</ele>
        <time>2020-10-17T10:05:16Z</time>
      </trkpt>
      <trkpt lat="46.17877" lon="4.55816">
        <ele>420</ele>
        <time>2020-10-17T10:05:17Z</time>
      </trkpt>
      <trkpt lat="46.17879" lon="4.55811">
        <ele>420.2</ele>
        <time>2020-10-17T10:05:18Z</time>
      </trkpt>
      <trkpt lat="46.17879" lon="4.55811">
        <ele>420.2</ele>
        <time>2020-10-17T10:05:19Z</time>
      </trkpt>
      <trkpt lat="46.17881" lon="4.55807">
        <ele>420.2</ele>
        <time>2020-10-17T10:05:20Z</time>
      </trkpt>
      <trkpt lat="46.17881" lon="4.55807">
        <ele>420.4</ele>
        <time>2020-10-17T10:05:21Z</time>
      </trkpt>
      <trkpt lat="46.17883" lon="4.55803">
        <ele>420.6</ele>
        <time>2020-10-17T10:05:22Z</time>
      </trkpt>
      <trkpt lat="46.17883" lon="4.55803">
        <ele>420.8</ele>
        <time>2020-10-17T10:05:23Z</time>
      </trkpt>
      <trkpt lat="46.17885" lon="4.558">
        <ele>420.6</ele>
        <time>2020-10-17T10:05:24Z</time>
      </trkpt>
      <trkpt lat="46.17885" lon="4.558">
        <ele>420.6</ele>
        <time>2020-10-17T10:05:25Z</time>
      </trkpt>
      <trkpt lat="46.17887" lon="4.55796">
        <ele>420.4</ele>
        <time>2020-10-17T10:05:26Z</time>
      </trkpt>
      <trkpt lat="46.17887" lon="4.55796">
        <ele>420.2</ele>
        <time>2020-10-17T10:05:27Z</time>
      </trkpt>
      <trkpt lat="46.17889" lon="4.55792">
        <ele>420.6</ele>
        <time>2020-10-17T10:05:28Z</time>
      </trkpt>
      <trkpt lat="46.17889" lon="4.55792">
        <ele>420.6</ele>
        <time>2020-10-17T10:05:29Z</time>
      </trkpt>
      <trkpt lat="46.17891" lon="4.55788">
        <ele>420.8</ele>
        <time>2020-10-17T10:05:30Z</time>
      </trkpt>
      <trkpt lat="46.17891" lon="4.55788">
        <ele>420.6</ele>
        <time>2020-10-17T10:05:31Z</time>
      </trkpt>
      <trkpt lat="46.17893" lon="4.55785">
        <ele>420.4</ele>
        <time>2020-10-17T10:05:32Z</time>
      </trkpt>
      <trkpt lat="46.17893" lon="4.55785">
        <ele>420.4</ele>
        <time>2020-10-17T10:05:33Z</time>
      </trkpt>
      <trkpt lat="46.17895" lon="4.55782">
        <ele>420.2</ele>
        <time>2020-10-17T10:05:34Z</time>
      </trkpt>
      <trkpt lat="46.17895" lon="4.55782">
        <ele>420.2</ele>
        <time>2020-10-17T10:05:35Z</time>
      </trkpt>
      <trkpt lat="46.17895" lon="4.55782">
        <ele>420</ele>
        <time>2020-10-17T10:05:36Z</time>
      </trkpt>
      <trkpt lat="46.17895" lon="4.55779">
        <ele>420.2</ele>
        <time>2020-10-17T10:05:37Z</time>
      </trkpt>
      <trkpt lat="46.17895" lon="4.55779">
        <ele>420.6</ele>
        <time>2020-10-17T10:05:38Z</time>
      </trkpt>
      <trkpt lat="46.17895" lon="4.55779">
        <ele>420.6</ele>
        <time>2020-10-17T10:05:39Z</time>
      </trkpt>
      <trkpt lat="46.17895" lon="4.55779">
        <ele>420.4</ele>
        <time>2020-10-17T10:05:40Z</time>
      </trkpt>
      <trkpt lat="46.17895" lon="4.55779">
        <ele>420.8</ele>
        <time>2020-10-17T10:05:41Z</time>
      </trkpt>
      <trkpt lat="46.17895" lon="4.55779">
        <ele>420.6</ele>
        <time>2020-10-17T10:05:42Z</time>
      </trkpt>
      <trkpt lat="46.17896" lon="4.55777">
        <ele>420.6</ele>
        <time>2020-10-17T10:05:43Z</time>
      </trkpt>
      <trkpt lat="46.17896" lon="4.55777">
        <ele>420.6</ele>
        <time>2020-10-17T10:05:44Z</time>
      </trkpt>
      <trkpt lat="46.17896" lon="4.55777">
        <ele>420.6</ele>
        <time>2020-10-17T10:05:45Z</time>
      </trkpt>
      <trkpt lat="46.17896" lon="4.55777">
        <ele>420.6</ele>
        <time>2020-10-17T10:05:46Z</time>
      </trkpt>
      <trkpt lat="46.17896" lon="4.55774">
        <ele>420.4</ele>
        <time>2020-10-17T10:05:47Z</time>
      </trkpt>
      <trkpt lat="46.17896" lon="4.55774">
        <ele>420.2</ele>
        <time>2020-10-17T10:05:48Z</time>
      </trkpt>
      <trkpt lat="46.17898" lon="4.55772">
        <ele>420.2</ele>
        <time>2020-10-17T10:05:49Z</time>
      </trkpt>
      <trkpt lat="46.17898" lon="4.55772">
        <ele>420.6</ele>
        <time>2020-10-17T10:05:50Z</time>
      </trkpt>
      <trkpt lat="46.17899" lon="4.55769">
        <ele>420.6</ele>
        <time>2020-10-17T10:05:51Z</time>
      </trkpt>
      <trkpt lat="46.17899" lon="4.55769">
        <ele>420.4</ele>
        <time>2020-10-17T10:05:52Z</time>
      </trkpt>
      <trkpt lat="46.179" lon="4.55766">
        <ele>420.4</ele>
        <time>2020-10-17T10:05:53Z</time>
      </trkpt>
      <trkpt lat="46.179" lon="4.55766">
        <ele>420.2</ele>
        <time>2020-10-17T10:05:54Z</time>
      </trkpt>
      <trkpt lat="46.179" lon="4.55766">
        <ele>420.2</ele>
        <time>2020-10-17T10:05:55Z</time>
      </trkpt>
      <trkpt lat="46.17902" lon="4.55764">
        <ele>420.2</ele>
        <time>2020-10-17T10:05:56Z</time>
      </trkpt>
      <trkpt lat="46.17902" lon="4.55764">
        <ele>420.2</ele>
        <time>2020-10-17T10:05:57Z</time>
      </trkpt>
      <trkpt lat="46.17902" lon="4.55764">
        <ele>420</ele>
        <time>2020-10-17T10:05:58Z</time>
      </trkpt>
      <trkpt lat="46.17904" lon="4.55761">
        <ele>420</ele>
        <time>2020-10-17T10:05:59Z</time>
      </trkpt>
      <trkpt lat="46.17904" lon="4.55761">
        <ele>420</ele>
        <time>2020-10-17T10:06:00Z</time>
      </trkpt>
      <trkpt lat="46.17907" lon="4.55758">
        <ele>420</ele>
        <time>2020-10-17T10:06:01Z</time>
      </trkpt>
      <trkpt lat="46.17907" lon="4.55758">
        <ele>419.8</ele>
        <time>2020-10-17T10:06:02Z</time>
      </trkpt>
      <trkpt lat="46.17909" lon="4.55754">
        <ele>419.8</ele>
        <time>2020-10-17T10:06:03Z</time>
      </trkpt>
      <trkpt lat="46.1791" lon="4.55752">
        <ele>419.4</ele>
        <time>2020-10-17T10:06:04Z</time>
      </trkpt>
      <trkpt lat="46.17912" lon="4.5575">
        <ele>419.4</ele>
        <time>2020-10-17T10:06:05Z</time>
      </trkpt>
      <trkpt lat="46.17914" lon="4.55748">
        <ele>419.4</ele>
        <time>2020-10-17T10:06:06Z</time>
      </trkpt>
      <trkpt lat="46.17916" lon="4.55746">
        <ele>419.4</ele>
        <time>2020-10-17T10:06:07Z</time>
      </trkpt>
      <trkpt lat="46.17918" lon="4.55744">
        <ele>419.6</ele>
        <time>2020-10-17T10:06:08Z</time>
      </trkpt>
      <trkpt lat="46.17921" lon="4.55742">
        <ele>419.6</ele>
        <time>2020-10-17T10:06:09Z</time>
      </trkpt>
      <trkpt lat="46.17924" lon="4.5574">
        <ele>419.4</ele>
        <time>2020-10-17T10:06:10Z</time>
      </trkpt>
      <trkpt lat="46.17926" lon="4.55738">
        <ele>420</ele>
        <time>2020-10-17T10:06:11Z</time>
      </trkpt>
      <trkpt lat="46.17928" lon="4.55736">
        <ele>419.8</ele>
        <time>2020-10-17T10:06:12Z</time>
      </trkpt>
      <trkpt lat="46.1793" lon="4.55734">
        <ele>419.6</ele>
        <time>2020-10-17T10:06:13Z</time>
      </trkpt>
      <trkpt lat="46.17932" lon="4.55732">
        <ele>419.8</ele>
        <time>2020-10-17T10:06:14Z</time>
      </trkpt>
      <trkpt lat="46.17932" lon="4.55732">
        <ele>419.6</ele>
        <time>2020-10-17T10:06:15Z</time>
      </trkpt>
      <trkpt lat="46.17935" lon="4.5573">
        <ele>419.6</ele>
        <time>2020-10-17T10:06:16Z</time>
      </trkpt>
      <trkpt lat="46.17935" lon="4.5573">
        <ele>419.4</ele>
        <time>2020-10-17T10:06:17Z</time>
      </trkpt>
      <trkpt lat="46.17935" lon="4.5573">
        <ele>419.2</ele>
        <time>2020-10-17T10:06:18Z</time>
      </trkpt>
      <trkpt lat="46.17935" lon="4.5573">
        <ele>419</ele>
        <time>2020-10-17T10:06:19Z</time>
      </trkpt>
      <trkpt lat="46.17935" lon="4.5573">
        <ele>419.2</ele>
        <time>2020-10-17T10:06:20Z</time>
      </trkpt>
      <trkpt lat="46.17935" lon="4.5573">
        <ele>419.2</ele>
        <time>2020-10-17T10:06:21Z</time>
      </trkpt>
      <trkpt lat="46.17935" lon="4.5573">
        <ele>419.2</ele>
        <time>2020-10-17T10:06:22Z</time>
      </trkpt>
      <trkpt lat="46.17935" lon="4.5573">
        <ele>419.2</ele>
        <time>2020-10-17T10:06:23Z</time>
      </trkpt>
      <trkpt lat="46.17938" lon="4.55727">
        <ele>419.4</ele>
        <time>2020-10-17T10:06:24Z</time>
      </trkpt>
      <trkpt lat="46.17938" lon="4.55727">
        <ele>419.6</ele>
        <time>2020-10-17T10:06:25Z</time>
      </trkpt>
      <trkpt lat="46.17941" lon="4.55726">
        <ele>419.6</ele>
        <time>2020-10-17T10:06:26Z</time>
      </trkpt>
      <trkpt lat="46.17941" lon="4.55726">
        <ele>420</ele>
        <time>2020-10-17T10:06:27Z</time>
      </trkpt>
      <trkpt lat="46.17944" lon="4.55725">
        <ele>420</ele>
        <time>2020-10-17T10:06:28Z</time>
      </trkpt>
      <trkpt lat="46.17944" lon="4.55725">
        <ele>419.8</ele>
        <time>2020-10-17T10:06:29Z</time>
      </trkpt>
      <trkpt lat="46.17947" lon="4.55724">
        <ele>420.2</ele>
        <time>2020-10-17T10:06:30Z</time>
      </trkpt>
      <trkpt lat="46.17947" lon="4.55724">
        <ele>420.2</ele>
        <time>2020-10-17T10:06:31Z</time>
      </trkpt>
      <trkpt lat="46.1795" lon="4.55723">
        <ele>420.4</ele>
        <time>2020-10-17T10:06:32Z</time>
      </trkpt>
      <trkpt lat="46.1795" lon="4.55723">
        <ele>420.4</ele>
        <time>2020-10-17T10:06:33Z</time>
      </trkpt>
      <trkpt lat="46.17952" lon="4.55722">
        <ele>420.6</ele>
        <time>2020-10-17T10:06:34Z</time>
      </trkpt>
      <trkpt lat="46.17952" lon="4.55722">
        <ele>420.6</ele>
        <time>2020-10-17T10:06:35Z</time>
      </trkpt>
      <trkpt lat="46.17954" lon="4.5572">
        <ele>420.8</ele>
        <time>2020-10-17T10:06:36Z</time>
      </trkpt>
      <trkpt lat="46.17954" lon="4.5572">
        <ele>421</ele>
        <time>2020-10-17T10:06:37Z</time>
      </trkpt>
      <trkpt lat="46.17957" lon="4.55718">
        <ele>421.2</ele>
        <time>2020-10-17T10:06:38Z</time>
      </trkpt>
      <trkpt lat="46.17957" lon="4.55718">
        <ele>421.2</ele>
        <time>2020-10-17T10:06:39Z</time>
      </trkpt>
      <trkpt lat="46.1796" lon="4.55717">
        <ele>421.4</ele>
        <time>2020-10-17T10:06:40Z</time>
      </trkpt>
      <trkpt lat="46.1796" lon="4.55717">
        <ele>421.2</ele>
        <time>2020-10-17T10:06:41Z</time>
      </trkpt>
      <trkpt lat="46.17962" lon="4.55716">
        <ele>421</ele>
        <time>2020-10-17T10:06:42Z</time>
      </trkpt>
      <trkpt lat="46.17962" lon="4.55716">
        <ele>421</ele>
        <time>2020-10-17T10:06:43Z</time>
      </trkpt>
      <trkpt lat="46.17962" lon="4.55716">
        <ele>420.8</ele>
        <time>2020-10-17T10:06:44Z</time>
      </trkpt>
      <trkpt lat="46.17962" lon="4.55716">
        <ele>420.8</ele>
        <time>2020-10-17T10:06:45Z</time>
      </trkpt>
      <trkpt lat="46.17962" lon="4.55716">
        <ele>421</ele>
        <time>2020-10-17T10:06:46Z</time>
      </trkpt>
      <trkpt lat="46.17962" lon="4.55716">
        <ele>421.2</ele>
        <time>2020-10-17T10:06:47Z</time>
      </trkpt>
      <trkpt lat="46.17962" lon="4.55716">
        <ele>421.6</ele>
        <time>2020-10-17T10:06:48Z</time>
      </trkpt>
      <trkpt lat="46.17962" lon="4.55716">
        <ele>421.8</ele>
        <time>2020-10-17T10:06:49Z</time>
      </trkpt>
      <trkpt lat="46.17962" lon="4.55716">
        <ele>422</ele>
        <time>2020-10-17T10:06:50Z</time>
      </trkpt>
      <trkpt lat="46.17962" lon="4.55716">
        <ele>422</ele>
        <time>2020-10-17T10:06:51Z</time>
      </trkpt>
      <trkpt lat="46.17962" lon="4.55716">
        <ele>422.2</ele>
        <time>2020-10-17T10:06:52Z</time>
      </trkpt>
      <trkpt lat="46.17962" lon="4.55716">
        <ele>422.2</ele>
        <time>2020-10-17T10:06:53Z</time>
      </trkpt>
      <trkpt lat="46.17962" lon="4.55716">
        <ele>422.4</ele>
        <time>2020-10-17T10:06:54Z</time>
      </trkpt>
      <trkpt lat="46.17962" lon="4.55716">
        <ele>422.4</ele>
        <time>2020-10-17T10:06:55Z</time>
      </trkpt>
      <trkpt lat="46.17962" lon="4.55716">
        <ele>422.4</ele>
        <time>2020-10-17T10:06:56Z</time>
      </trkpt>
      <trkpt lat="46.17962" lon="4.55716">
        <ele>422.4</ele>
        <time>2020-10-17T10:06:57Z</time>
      </trkpt>
      <trkpt lat="46.17962" lon="4.55716">
        <ele>422.6</ele>
        <time>2020-10-17T10:06:58Z</time>
      </trkpt>
      <trkpt lat="46.17962" lon="4.55716">
        <ele>422.6</ele>
        <time>2020-10-17T10:06:59Z</time>
      </trkpt>
      <trkpt lat="46.17962" lon="4.55716">
        <ele>422.6</ele>
        <time>2020-10-17T10:07:00Z</time>
      </trkpt>
      <trkpt lat="46.17962" lon="4.55716">
        <ele>422.8</ele>
        <time>2020-10-17T10:07:01Z</time>
      </trkpt>
      <trkpt lat="46.17962" lon="4.55716">
        <ele>422.8</ele>
        <time>2020-10-17T10:07:02Z</time>
      </trkpt>
      <trkpt lat="46.17965" lon="4.55716">
        <ele>422.8</ele>
        <time>2020-10-17T10:07:03Z</time>
      </trkpt>
      <trkpt lat="46.17965" lon="4.55716">
        <ele>422.6</ele>
        <time>2020-10-17T10:07:04Z</time>
      </trkpt>
      <trkpt lat="46.17968" lon="4.55717">
        <ele>422</ele>
        <time>2020-10-17T10:07:05Z</time>
      </trkpt>
      <trkpt lat="46.17968" lon="4.55717">
        <ele>421.8</ele>
        <time>2020-10-17T10:07:06Z</time>
      </trkpt>
      <trkpt lat="46.17968" lon="4.55717">
        <ele>421.8</ele>
        <time>2020-10-17T10:07:07Z</time>
      </trkpt>
      <trkpt lat="46.17966" lon="4.55718">
        <ele>421.6</ele>
        <time>2020-10-17T10:07:08Z</time>
      </trkpt>
      <trkpt lat="46.17966" lon="4.55718">
        <ele>421.4</ele>
        <time>2020-10-17T10:07:09Z</time>
      </trkpt>
      <trkpt lat="46.17964" lon="4.5572">
        <ele>421.2</ele>
        <time>2020-10-17T10:07:10Z</time>
      </trkpt>
      <trkpt lat="46.17964" lon="4.5572">
        <ele>420.8</ele>
        <time>2020-10-17T10:07:11Z</time>
      </trkpt>
      <trkpt lat="46.17961" lon="4.55721">
        <ele>420.8</ele>
        <time>2020-10-17T10:07:12Z</time>
      </trkpt>
      <trkpt lat="46.17961" lon="4.55721">
        <ele>420.8</ele>
        <time>2020-10-17T10:07:13Z</time>
      </trkpt>
      <trkpt lat="46.17958" lon="4.55723">
        <ele>420.6</ele>
        <time>2020-10-17T10:07:14Z</time>
      </trkpt>
      <trkpt lat="46.17958" lon="4.55723">
        <ele>420.6</ele>
        <time>2020-10-17T10:07:15Z</time>
      </trkpt>
      <trkpt lat="46.17955" lon="4.55724">
        <ele>420.6</ele>
        <time>2020-10-17T10:07:16Z</time>
      </trkpt>
      <trkpt lat="46.17955" lon="4.55724">
        <ele>420.6</ele>
        <time>2020-10-17T10:07:17Z</time>
      </trkpt>
      <trkpt lat="46.17951" lon="4.55725">
        <ele>420.8</ele>
        <time>2020-10-17T10:07:18Z</time>
      </trkpt>
      <trkpt lat="46.17951" lon="4.55725">
        <ele>420.8</ele>
        <time>2020-10-17T10:07:19Z</time>
      </trkpt>
      <trkpt lat="46.17948" lon="4.55726">
        <ele>420.8</ele>
        <time>2020-10-17T10:07:20Z</time>
      </trkpt>
      <trkpt lat="46.17948" lon="4.55726">
        <ele>420.6</ele>
        <time>2020-10-17T10:07:21Z</time>
      </trkpt>
      <trkpt lat="46.17945" lon="4.55727">
        <ele>420.6</ele>
        <time>2020-10-17T10:07:22Z</time>
      </trkpt>
      <trkpt lat="46.17943" lon="4.55727">
        <ele>420.6</ele>
        <time>2020-10-17T10:07:23Z</time>
      </trkpt>
      <trkpt lat="46.17941" lon="4.55726">
        <ele>420.6</ele>
        <time>2020-10-17T10:07:24Z</time>
      </trkpt>
      <trkpt lat="46.17939" lon="4.55725">
        <ele>420.6</ele>
        <time>2020-10-17T10:07:25Z</time>
      </trkpt>
      <trkpt lat="46.17937" lon="4.55724">
        <ele>420.2</ele>
        <time>2020-10-17T10:07:26Z</time>
      </trkpt>
      <trkpt lat="46.17936" lon="4.55722">
        <ele>420.2</ele>
        <time>2020-10-17T10:07:27Z</time>
      </trkpt>
      <trkpt lat="46.17934" lon="4.55721">
        <ele>420.4</ele>
        <time>2020-10-17T10:07:28Z</time>
      </trkpt>
      <trkpt lat="46.17933" lon="4.55719">
        <ele>420</ele>
        <time>2020-10-17T10:07:29Z</time>
      </trkpt>
      <trkpt lat="46.17931" lon="4.55717">
        <ele>420</ele>
        <time>2020-10-17T10:07:30Z</time>
      </trkpt>
      <trkpt lat="46.1793" lon="4.55715">
        <ele>420</ele>
        <time>2020-10-17T10:07:31Z</time>
      </trkpt>
      <trkpt lat="46.17928" lon="4.55714">
        <ele>419.4</ele>
        <time>2020-10-17T10:07:32Z</time>
      </trkpt>
      <trkpt lat="46.17926" lon="4.55712">
        <ele>419.2</ele>
        <time>2020-10-17T10:07:33Z</time>
      </trkpt>
      <trkpt lat="46.17924" lon="4.5571">
        <ele>418.6</ele>
        <time>2020-10-17T10:07:34Z</time>
      </trkpt>
      <trkpt lat="46.17921" lon="4.55708">
        <ele>418.4</ele>
        <time>2020-10-17T10:07:35Z</time>
      </trkpt>
      <trkpt lat="46.17919" lon="4.55706">
        <ele>417.8</ele>
        <time>2020-10-17T10:07:36Z</time>
      </trkpt>
      <trkpt lat="46.17917" lon="4.55705">
        <ele>417.2</ele>
        <time>2020-10-17T10:07:37Z</time>
      </trkpt>
      <trkpt lat="46.17914" lon="4.55703">
        <ele>417</ele>
        <time>2020-10-17T10:07:38Z</time>
      </trkpt>
      <trkpt lat="46.17912" lon="4.55701">
        <ele>416.2</ele>
        <time>2020-10-17T10:07:39Z</time>
      </trkpt>
      <trkpt lat="46.17909" lon="4.55699">
        <ele>415.8</ele>
        <time>2020-10-17T10:07:40Z</time>
      </trkpt>
      <trkpt lat="46.17907" lon="4.55697">
        <ele>415.6</ele>
        <time>2020-10-17T10:07:41Z</time>
      </trkpt>
      <trkpt lat="46.17905" lon="4.55694">
        <ele>415</ele>
        <time>2020-10-17T10:07:42Z</time>
      </trkpt>
      <trkpt lat="46.17903" lon="4.55692">
        <ele>414.4</ele>
        <time>2020-10-17T10:07:43Z</time>
      </trkpt>
      <trkpt lat="46.17901" lon="4.5569">
        <ele>414</ele>
        <time>2020-10-17T10:07:44Z</time>
      </trkpt>
      <trkpt lat="46.17899" lon="4.55688">
        <ele>413.6</ele>
        <time>2020-10-17T10:07:45Z</time>
      </trkpt>
      <trkpt lat="46.17896" lon="4.55686">
        <ele>413.4</ele>
        <time>2020-10-17T10:07:46Z</time>
      </trkpt>
      <trkpt lat="46.17894" lon="4.55684">
        <ele>413.4</ele>
        <time>2020-10-17T10:07:47Z</time>
      </trkpt>
      <trkpt lat="46.17891" lon="4.55682">
        <ele>412.6</ele>
        <time>2020-10-17T10:07:48Z</time>
      </trkpt>
      <trkpt lat="46.17889" lon="4.5568">
        <ele>412.4</ele>
        <time>2020-10-17T10:07:49Z</time>
      </trkpt>
      <trkpt lat="46.17887" lon="4.55677">
        <ele>412.2</ele>
        <time>2020-10-17T10:07:50Z</time>
      </trkpt>
      <trkpt lat="46.17885" lon="4.55675">
        <ele>411.4</ele>
        <time>2020-10-17T10:07:51Z</time>
      </trkpt>
      <trkpt lat="46.17882" lon="4.55674">
        <ele>411.2</ele>
        <time>2020-10-17T10:07:52Z</time>
      </trkpt>
      <trkpt lat="46.1788" lon="4.55672">
        <ele>410.2</ele>
        <time>2020-10-17T10:07:53Z</time>
      </trkpt>
      <trkpt lat="46.17877" lon="4.5567">
        <ele>409.8</ele>
        <time>2020-10-17T10:07:54Z</time>
      </trkpt>
      <trkpt lat="46.17875" lon="4.55668">
        <ele>409.6</ele>
        <time>2020-10-17T10:07:55Z</time>
      </trkpt>
      <trkpt lat="46.17873" lon="4.55667">
        <ele>408.6</ele>
        <time>2020-10-17T10:07:56Z</time>
      </trkpt>
      <trkpt lat="46.1787" lon="4.55665">
        <ele>407.8</ele>
        <time>2020-10-17T10:07:57Z</time>
      </trkpt>
      <trkpt lat="46.17868" lon="4.55663">
        <ele>408</ele>
        <time>2020-10-17T10:07:58Z</time>
      </trkpt>
      <trkpt lat="46.17866" lon="4.55661">
        <ele>407.8</ele>
        <time>2020-10-17T10:07:59Z</time>
      </trkpt>
      <trkpt lat="46.17863" lon="4.55659">
        <ele>407.4</ele>
        <time>2020-10-17T10:08:00Z</time>
      </trkpt>
      <trkpt lat="46.17861" lon="4.55657">
        <ele>406.8</ele>
        <time>2020-10-17T10:08:01Z</time>
      </trkpt>
      <trkpt lat="46.17859" lon="4.55655">
        <ele>406.8</ele>
        <time>2020-10-17T10:08:02Z</time>
      </trkpt>
      <trkpt lat="46.17856" lon="4.55654">
        <ele>406.2</ele>
        <time>2020-10-17T10:08:03Z</time>
      </trkpt>
      <trkpt lat="46.17854" lon="4.55652">
        <ele>405.4</ele>
        <time>2020-10-17T10:08:04Z</time>
      </trkpt>
      <trkpt lat="46.17851" lon="4.55651">
        <ele>405.4</ele>
        <time>2020-10-17T10:08:05Z</time>
      </trkpt>
      <trkpt lat="46.17848" lon="4.55648">
        <ele>404.8</ele>
        <time>2020-10-17T10:08:06Z</time>
      </trkpt>
      <trkpt lat="46.17846" lon="4.55647">
        <ele>404.2</ele>
        <time>2020-10-17T10:08:07Z</time>
      </trkpt>
      <trkpt lat="46.17843" lon="4.55645">
        <ele>404</ele>
        <time>2020-10-17T10:08:08Z</time>
      </trkpt>
      <trkpt lat="46.17841" lon="4.55642">
        <ele>403</ele>
        <time>2020-10-17T10:08:09Z</time>
      </trkpt>
      <trkpt lat="46.17841" lon="4.55639">
        <ele>402.8</ele>
        <time>2020-10-17T10:08:10Z</time>
      </trkpt>
      <trkpt lat="46.1784" lon="4.55636">
        <ele>401.8</ele>
        <time>2020-10-17T10:08:11Z</time>
      </trkpt>
      <trkpt lat="46.1784" lon="4.55636">
        <ele>401.4</ele>
        <time>2020-10-17T10:08:12Z</time>
      </trkpt>
      <trkpt lat="46.17842" lon="4.55638">
        <ele>401</ele>
        <time>2020-10-17T10:08:13Z</time>
      </trkpt>
      <trkpt lat="46.17842" lon="4.55638">
        <ele>400.8</ele>
        <time>2020-10-17T10:08:14Z</time>
      </trkpt>
      <trkpt lat="46.17843" lon="4.55641">
        <ele>400.4</ele>
        <time>2020-10-17T10:08:15Z</time>
      </trkpt>
      <trkpt lat="46.17843" lon="4.55641">
        <ele>400.4</ele>
        <time>2020-10-17T10:08:16Z</time>
      </trkpt>
      <trkpt lat="46.17843" lon="4.55641">
        <ele>400</ele>
        <time>2020-10-17T10:08:17Z</time>
      </trkpt>
      <trkpt lat="46.17843" lon="4.55639">
        <ele>400</ele>
        <time>2020-10-17T10:08:18Z</time>
      </trkpt>
      <trkpt lat="46.17843" lon="4.55639">
        <ele>399.6</ele>
        <time>2020-10-17T10:08:19Z</time>
      </trkpt>
      <trkpt lat="46.17843" lon="4.55639">
        <ele>399.8</ele>
        <time>2020-10-17T10:08:20Z</time>
      </trkpt>
      <trkpt lat="46.17843" lon="4.55639">
        <ele>399.6</ele>
        <time>2020-10-17T10:08:21Z</time>
      </trkpt>
      <trkpt lat="46.17844" lon="4.55641">
        <ele>399.6</ele>
        <time>2020-10-17T10:08:22Z</time>
      </trkpt>
      <trkpt lat="46.17844" lon="4.55641">
        <ele>399.6</ele>
        <time>2020-10-17T10:08:23Z</time>
      </trkpt>
      <trkpt lat="46.17844" lon="4.55641">
        <ele>399.8</ele>
        <time>2020-10-17T10:08:24Z</time>
      </trkpt>
      <trkpt lat="46.17844" lon="4.55641">
        <ele>400</ele>
        <time>2020-10-17T10:08:25Z</time>
      </trkpt>
      <trkpt lat="46.17844" lon="4.55641">
        <ele>400.2</ele>
        <time>2020-10-17T10:08:26Z</time>
      </trkpt>
      <trkpt lat="46.17844" lon="4.55641">
        <ele>400.4</ele>
        <time>2020-10-17T10:08:27Z</time>
      </trkpt>
      <trkpt lat="46.17844" lon="4.55641">
        <ele>400.6</ele>
        <time>2020-10-17T10:08:28Z</time>
      </trkpt>
      <trkpt lat="46.17844" lon="4.55641">
        <ele>400.8</ele>
        <time>2020-10-17T10:08:29Z</time>
      </trkpt>
      <trkpt lat="46.17844" lon="4.55641">
        <ele>400.8</ele>
        <time>2020-10-17T10:08:30Z</time>
      </trkpt>
      <trkpt lat="46.17844" lon="4.55641">
        <ele>400.8</ele>
        <time>2020-10-17T10:08:31Z</time>
      </trkpt>
      <trkpt lat="46.17844" lon="4.55641">
        <ele>400.8</ele>
        <time>2020-10-17T10:08:32Z</time>
      </trkpt>
      <trkpt lat="46.17844" lon="4.55638">
        <ele>400.8</ele>
        <time>2020-10-17T10:08:33Z</time>
      </trkpt>
      <trkpt lat="46.17845" lon="4.55635">
        <ele>400.8</ele>
        <time>2020-10-17T10:08:34Z</time>
      </trkpt>
      <trkpt lat="46.17845" lon="4.55631">
        <ele>400.4</ele>
        <time>2020-10-17T10:08:35Z</time>
      </trkpt>
      <trkpt lat="46.17847" lon="4.55627">
        <ele>400.2</ele>
        <time>2020-10-17T10:08:36Z</time>
      </trkpt>
      <trkpt lat="46.17848" lon="4.55624">
        <ele>400.2</ele>
        <time>2020-10-17T10:08:37Z</time>
      </trkpt>
      <trkpt lat="46.1785" lon="4.55621">
        <ele>400</ele>
        <time>2020-10-17T10:08:38Z</time>
      </trkpt>
      <trkpt lat="46.17853" lon="4.55619">
        <ele>399.6</ele>
        <time>2020-10-17T10:08:39Z</time>
      </trkpt>
      <trkpt lat="46.17855" lon="4.55617">
        <ele>399.4</ele>
        <time>2020-10-17T10:08:40Z</time>
      </trkpt>
      <trkpt lat="46.17858" lon="4.55616">
        <ele>399</ele>
        <time>2020-10-17T10:08:41Z</time>
      </trkpt>
      <trkpt lat="46.1786" lon="4.55614">
        <ele>398.8</ele>
        <time>2020-10-17T10:08:42Z</time>
      </trkpt>
      <trkpt lat="46.17863" lon="4.55612">
        <ele>398.6</ele>
        <time>2020-10-17T10:08:43Z</time>
      </trkpt>
      <trkpt lat="46.17865" lon="4.55611">
        <ele>398.4</ele>
        <time>2020-10-17T10:08:44Z</time>
      </trkpt>
      <trkpt lat="46.17868" lon="4.5561">
        <ele>398</ele>
        <time>2020-10-17T10:08:45Z</time>
      </trkpt>
      <trkpt lat="46.17871" lon="4.55609">
        <ele>397.8</ele>
        <time>2020-10-17T10:08:46Z</time>
      </trkpt>
      <trkpt lat="46.17873" lon="4.55607">
        <ele>397.8</ele>
        <time>2020-10-17T10:08:47Z</time>
      </trkpt>
      <trkpt lat="46.17876" lon="4.55606">
        <ele>397.4</ele>
        <time>2020-10-17T10:08:48Z</time>
      </trkpt>
      <trkpt lat="46.17879" lon="4.55604">
        <ele>397.4</ele>
        <time>2020-10-17T10:08:49Z</time>
      </trkpt>
      <trkpt lat="46.1788" lon="4.55602">
        <ele>397.2</ele>
        <time>2020-10-17T10:08:50Z</time>
      </trkpt>
      <trkpt lat="46.17882" lon="4.556">
        <ele>396.4</ele>
        <time>2020-10-17T10:08:51Z</time>
      </trkpt>
      <trkpt lat="46.17882" lon="4.556">
        <ele>396.6</ele>
        <time>2020-10-17T10:08:52Z</time>
      </trkpt>
      <trkpt lat="46.17881" lon="4.55595">
        <ele>396</ele>
        <time>2020-10-17T10:08:53Z</time>
      </trkpt>
      <trkpt lat="46.17881" lon="4.55592">
        <ele>395.8</ele>
        <time>2020-10-17T10:08:54Z</time>
      </trkpt>
      <trkpt lat="46.1788" lon="4.5559">
        <ele>396</ele>
        <time>2020-10-17T10:08:55Z</time>
      </trkpt>
      <trkpt lat="46.1788" lon="4.5559">
        <ele>395.8</ele>
        <time>2020-10-17T10:08:56Z</time>
      </trkpt>
      <trkpt lat="46.17878" lon="4.55586">
        <ele>395.4</ele>
        <time>2020-10-17T10:08:57Z</time>
      </trkpt>
      <trkpt lat="46.17876" lon="4.55584">
        <ele>395.2</ele>
        <time>2020-10-17T10:08:58Z</time>
      </trkpt>
      <trkpt lat="46.17874" lon="4.55582">
        <ele>395.2</ele>
        <time>2020-10-17T10:08:59Z</time>
      </trkpt>
      <trkpt lat="46.17872" lon="4.5558">
        <ele>394.6</ele>
        <time>2020-10-17T10:09:00Z</time>
      </trkpt>
      <trkpt lat="46.1787" lon="4.55578">
        <ele>394.2</ele>
        <time>2020-10-17T10:09:01Z</time>
      </trkpt>
      <trkpt lat="46.17868" lon="4.55575">
        <ele>394</ele>
        <time>2020-10-17T10:09:02Z</time>
      </trkpt>
      <trkpt lat="46.17866" lon="4.55573">
        <ele>393.4</ele>
        <time>2020-10-17T10:09:03Z</time>
      </trkpt>
      <trkpt lat="46.17863" lon="4.5557">
        <ele>392.6</ele>
        <time>2020-10-17T10:09:04Z</time>
      </trkpt>
      <trkpt lat="46.17861" lon="4.55568">
        <ele>392.6</ele>
        <time>2020-10-17T10:09:05Z</time>
      </trkpt>
      <trkpt lat="46.17859" lon="4.55565">
        <ele>392.2</ele>
        <time>2020-10-17T10:09:06Z</time>
      </trkpt>
      <trkpt lat="46.17858" lon="4.55562">
        <ele>391.6</ele>
        <time>2020-10-17T10:09:07Z</time>
      </trkpt>
      <trkpt lat="46.17857" lon="4.55558">
        <ele>391.6</ele>
        <time>2020-10-17T10:09:08Z</time>
      </trkpt>
      <trkpt lat="46.17855" lon="4.55556">
        <ele>391</ele>
        <time>2020-10-17T10:09:09Z</time>
      </trkpt>
      <trkpt lat="46.17855" lon="4.55556">
        <ele>390.4</ele>
        <time>2020-10-17T10:09:10Z</time>
      </trkpt>
      <trkpt lat="46.17854" lon="4.55551">
        <ele>390.4</ele>
        <time>2020-10-17T10:09:11Z</time>
      </trkpt>
      <trkpt lat="46.17854" lon="4.55551">
        <ele>389.8</ele>
        <time>2020-10-17T10:09:12Z</time>
      </trkpt>
      <trkpt lat="46.17854" lon="4.55546">
        <ele>389.6</ele>
        <time>2020-10-17T10:09:13Z</time>
      </trkpt>
      <trkpt lat="46.17855" lon="4.55544">
        <ele>389.4</ele>
        <time>2020-10-17T10:09:14Z</time>
      </trkpt>
      <trkpt lat="46.17856" lon="4.55541">
        <ele>389.2</ele>
        <time>2020-10-17T10:09:15Z</time>
      </trkpt>
      <trkpt lat="46.17857" lon="4.55538">
        <ele>389.2</ele>
        <time>2020-10-17T10:09:16Z</time>
      </trkpt>
      <trkpt lat="46.17857" lon="4.55535">
        <ele>389.2</ele>
        <time>2020-10-17T10:09:17Z</time>
      </trkpt>
      <trkpt lat="46.17858" lon="4.55533">
        <ele>389.4</ele>
        <time>2020-10-17T10:09:18Z</time>
      </trkpt>
      <trkpt lat="46.17858" lon="4.55533">
        <ele>389.4</ele>
        <time>2020-10-17T10:09:19Z</time>
      </trkpt>
      <trkpt lat="46.17859" lon="4.55528">
        <ele>389.4</ele>
        <time>2020-10-17T10:09:20Z</time>
      </trkpt>
      <trkpt lat="46.17859" lon="4.55528">
        <ele>389.2</ele>
        <time>2020-10-17T10:09:21Z</time>
      </trkpt>
      <trkpt lat="46.17859" lon="4.55524">
        <ele>388.8</ele>
        <time>2020-10-17T10:09:22Z</time>
      </trkpt>
      <trkpt lat="46.1786" lon="4.55521">
        <ele>388.6</ele>
        <time>2020-10-17T10:09:23Z</time>
      </trkpt>
      <trkpt lat="46.1786" lon="4.55521">
        <ele>388.4</ele>
        <time>2020-10-17T10:09:24Z</time>
      </trkpt>
      <trkpt lat="46.17861" lon="4.55516">
        <ele>388.4</ele>
        <time>2020-10-17T10:09:25Z</time>
      </trkpt>
      <trkpt lat="46.17861" lon="4.55516">
        <ele>388.2</ele>
        <time>2020-10-17T10:09:26Z</time>
      </trkpt>
      <trkpt lat="46.17862" lon="4.55512">
        <ele>388.2</ele>
        <time>2020-10-17T10:09:27Z</time>
      </trkpt>
      <trkpt lat="46.17862" lon="4.55512">
        <ele>388.2</ele>
        <time>2020-10-17T10:09:28Z</time>
      </trkpt>
      <trkpt lat="46.17864" lon="4.55508">
        <ele>388.2</ele>
        <time>2020-10-17T10:09:29Z</time>
      </trkpt>
      <trkpt lat="46.17864" lon="4.55508">
        <ele>388.4</ele>
        <time>2020-10-17T10:09:30Z</time>
      </trkpt>
      <trkpt lat="46.17866" lon="4.55504">
        <ele>388.2</ele>
        <time>2020-10-17T10:09:31Z</time>
      </trkpt>
      <trkpt lat="46.17866" lon="4.55504">
        <ele>388.4</ele>
        <time>2020-10-17T10:09:32Z</time>
      </trkpt>
      <trkpt lat="46.17868" lon="4.55501">
        <ele>388.6</ele>
        <time>2020-10-17T10:09:33Z</time>
      </trkpt>
      <trkpt lat="46.17868" lon="4.55501">
        <ele>389</ele>
        <time>2020-10-17T10:09:34Z</time>
      </trkpt>
      <trkpt lat="46.1787" lon="4.55497">
        <ele>389.2</ele>
        <time>2020-10-17T10:09:35Z</time>
      </trkpt>
      <trkpt lat="46.17872" lon="4.55495">
        <ele>389.6</ele>
        <time>2020-10-17T10:09:36Z</time>
      </trkpt>
      <trkpt lat="46.17873" lon="4.55492">
        <ele>389.4</ele>
        <time>2020-10-17T10:09:37Z</time>
      </trkpt>
      <trkpt lat="46.17875" lon="4.55489">
        <ele>389.2</ele>
        <time>2020-10-17T10:09:38Z</time>
      </trkpt>
      <trkpt lat="46.17877" lon="4.55486">
        <ele>389.4</ele>
        <time>2020-10-17T10:09:39Z</time>
      </trkpt>
      <trkpt lat="46.17878" lon="4.55484">
        <ele>389.2</ele>
        <time>2020-10-17T10:09:40Z</time>
      </trkpt>
      <trkpt lat="46.1788" lon="4.55481">
        <ele>389.2</ele>
        <time>2020-10-17T10:09:41Z</time>
      </trkpt>
      <trkpt lat="46.17882" lon="4.55479">
        <ele>389.4</ele>
        <time>2020-10-17T10:09:42Z</time>
      </trkpt>
      <trkpt lat="46.17883" lon="4.55476">
        <ele>389.6</ele>
        <time>2020-10-17T10:09:43Z</time>
      </trkpt>
      <trkpt lat="46.17885" lon="4.55474">
        <ele>389.4</ele>
        <time>2020-10-17T10:09:44Z</time>
      </trkpt>
      <trkpt lat="46.17887" lon="4.55471">
        <ele>389.8</ele>
        <time>2020-10-17T10:09:45Z</time>
      </trkpt>
      <trkpt lat="46.17889" lon="4.55469">
        <ele>389.8</ele>
        <time>2020-10-17T10:09:46Z</time>
      </trkpt>
      <trkpt lat="46.1789" lon="4.55466">
        <ele>389.8</ele>
        <time>2020-10-17T10:09:47Z</time>
      </trkpt>
      <trkpt lat="46.17891" lon="4.55464">
        <ele>390.2</ele>
        <time>2020-10-17T10:09:48Z</time>
      </trkpt>
      <trkpt lat="46.17892" lon="4.5546">
        <ele>390.2</ele>
        <time>2020-10-17T10:09:49Z</time>
      </trkpt>
      <trkpt lat="46.17893" lon="4.55457">
        <ele>390</ele>
        <time>2020-10-17T10:09:50Z</time>
      </trkpt>
      <trkpt lat="46.17893" lon="4.55453">
        <ele>390.2</ele>
        <time>2020-10-17T10:09:51Z</time>
      </trkpt>
      <trkpt lat="46.17894" lon="4.5545">
        <ele>390.4</ele>
        <time>2020-10-17T10:09:52Z</time>
      </trkpt>
      <trkpt lat="46.17896" lon="4.55447">
        <ele>390.2</ele>
        <time>2020-10-17T10:09:53Z</time>
      </trkpt>
      <trkpt lat="46.17897" lon="4.55445">
        <ele>390.2</ele>
        <time>2020-10-17T10:09:54Z</time>
      </trkpt>
      <trkpt lat="46.17899" lon="4.55442">
        <ele>390.2</ele>
        <time>2020-10-17T10:09:55Z</time>
      </trkpt>
      <trkpt lat="46.17901" lon="4.5544">
        <ele>390.2</ele>
        <time>2020-10-17T10:09:56Z</time>
      </trkpt>
      <trkpt lat="46.17903" lon="4.55438">
        <ele>390</ele>
        <time>2020-10-17T10:09:57Z</time>
      </trkpt>
      <trkpt lat="46.17905" lon="4.55436">
        <ele>390.4</ele>
        <time>2020-10-17T10:09:58Z</time>
      </trkpt>
      <trkpt lat="46.17906" lon="4.55434">
        <ele>390.4</ele>
        <time>2020-10-17T10:09:59Z</time>
      </trkpt>
      <trkpt lat="46.17909" lon="4.55432">
        <ele>390.4</ele>
        <time>2020-10-17T10:10:00Z</time>
      </trkpt>
      <trkpt lat="46.17911" lon="4.5543">
        <ele>390.4</ele>
        <time>2020-10-17T10:10:01Z</time>
      </trkpt>
      <trkpt lat="46.17913" lon="4.55428">
        <ele>390.4</ele>
        <time>2020-10-17T10:10:02Z</time>
      </trkpt>
      <trkpt lat="46.17915" lon="4.55426">
        <ele>390.4</ele>
        <time>2020-10-17T10:10:03Z</time>
      </trkpt>
      <trkpt lat="46.17917" lon="4.55425">
        <ele>390.8</ele>
        <time>2020-10-17T10:10:04Z</time>
      </trkpt>
      <trkpt lat="46.17919" lon="4.55423">
        <ele>390.6</ele>
        <time>2020-10-17T10:10:05Z</time>
      </trkpt>
      <trkpt lat="46.17921" lon="4.55422">
        <ele>390.2</ele>
        <time>2020-10-17T10:10:06Z</time>
      </trkpt>
      <trkpt lat="46.17923" lon="4.5542">
        <ele>390.8</ele>
        <time>2020-10-17T10:10:07Z</time>
      </trkpt>
      <trkpt lat="46.17926" lon="4.55419">
        <ele>390.8</ele>
        <time>2020-10-17T10:10:08Z</time>
      </trkpt>
      <trkpt lat="46.17928" lon="4.55417">
        <ele>390.8</ele>
        <time>2020-10-17T10:10:09Z</time>
      </trkpt>
      <trkpt lat="46.1793" lon="4.55416">
        <ele>391</ele>
        <time>2020-10-17T10:10:10Z</time>
      </trkpt>
      <trkpt lat="46.17933" lon="4.55415">
        <ele>391</ele>
        <time>2020-10-17T10:10:11Z</time>
      </trkpt>
      <trkpt lat="46.17935" lon="4.55414">
        <ele>390.6</ele>
        <time>2020-10-17T10:10:12Z</time>
      </trkpt>
      <trkpt lat="46.17937" lon="4.55413">
        <ele>391</ele>
        <time>2020-10-17T10:10:13Z</time>
      </trkpt>
      <trkpt lat="46.1794" lon="4.55412">
        <ele>390.8</ele>
        <time>2020-10-17T10:10:14Z</time>
      </trkpt>
      <trkpt lat="46.17942" lon="4.55411">
        <ele>390.6</ele>
        <time>2020-10-17T10:10:15Z</time>
      </trkpt>
      <trkpt lat="46.17944" lon="4.55409">
        <ele>390.6</ele>
        <time>2020-10-17T10:10:16Z</time>
      </trkpt>
      <trkpt lat="46.17946" lon="4.55408">
        <ele>390.6</ele>
        <time>2020-10-17T10:10:17Z</time>
      </trkpt>
      <trkpt lat="46.17948" lon="4.55406">
        <ele>390.6</ele>
        <time>2020-10-17T10:10:18Z</time>
      </trkpt>
      <trkpt lat="46.1795" lon="4.55405">
        <ele>391</ele>
        <time>2020-10-17T10:10:19Z</time>
      </trkpt>
      <trkpt lat="46.17952" lon="4.55403">
        <ele>391.2</ele>
        <time>2020-10-17T10:10:20Z</time>
      </trkpt>
      <trkpt lat="46.17954" lon="4.55401">
        <ele>391.4</ele>
        <time>2020-10-17T10:10:21Z</time>
      </trkpt>
      <trkpt lat="46.17956" lon="4.55399">
        <ele>391.6</ele>
        <time>2020-10-17T10:10:22Z</time>
      </trkpt>
      <trkpt lat="46.17958" lon="4.55397">
        <ele>391.4</ele>
        <time>2020-10-17T10:10:23Z</time>
      </trkpt>
      <trkpt lat="46.1796" lon="4.55395">
        <ele>391.2</ele>
        <time>2020-10-17T10:10:24Z</time>
      </trkpt>
      <trkpt lat="46.17962" lon="4.55393">
        <ele>391.6</ele>
        <time>2020-10-17T10:10:25Z</time>
      </trkpt>
      <trkpt lat="46.17965" lon="4.5539">
        <ele>391.4</ele>
        <time>2020-10-17T10:10:26Z</time>
      </trkpt>
      <trkpt lat="46.17967" lon="4.55388">
        <ele>391</ele>
        <time>2020-10-17T10:10:27Z</time>
      </trkpt>
      <trkpt lat="46.17968" lon="4.55386">
        <ele>391.4</ele>
        <time>2020-10-17T10:10:28Z</time>
      </trkpt>
      <trkpt lat="46.1797" lon="4.55383">
        <ele>391.4</ele>
        <time>2020-10-17T10:10:29Z</time>
      </trkpt>
      <trkpt lat="46.17972" lon="4.5538">
        <ele>391.4</ele>
        <time>2020-10-17T10:10:30Z</time>
      </trkpt>
      <trkpt lat="46.17973" lon="4.55378">
        <ele>391.8</ele>
        <time>2020-10-17T10:10:31Z</time>
      </trkpt>
      <trkpt lat="46.17975" lon="4.55376">
        <ele>391.8</ele>
        <time>2020-10-17T10:10:32Z</time>
      </trkpt>
      <trkpt lat="46.17976" lon="4.55373">
        <ele>391.4</ele>
        <time>2020-10-17T10:10:33Z</time>
      </trkpt>
      <trkpt lat="46.17977" lon="4.5537">
        <ele>392</ele>
        <time>2020-10-17T10:10:34Z</time>
      </trkpt>
      <trkpt lat="46.17978" lon="4.55367">
        <ele>392</ele>
        <time>2020-10-17T10:10:35Z</time>
      </trkpt>
      <trkpt lat="46.17979" lon="4.55364">
        <ele>392</ele>
        <time>2020-10-17T10:10:36Z</time>
      </trkpt>
      <trkpt lat="46.1798" lon="4.5536">
        <ele>392.4</ele>
        <time>2020-10-17T10:10:37Z</time>
      </trkpt>
      <trkpt lat="46.17981" lon="4.55357">
        <ele>392.2</ele>
        <time>2020-10-17T10:10:38Z</time>
      </trkpt>
      <trkpt lat="46.17981" lon="4.55353">
        <ele>392.2</ele>
        <time>2020-10-17T10:10:39Z</time>
      </trkpt>
      <trkpt lat="46.17981" lon="4.5535">
        <ele>392.6</ele>
        <time>2020-10-17T10:10:40Z</time>
      </trkpt>
      <trkpt lat="46.17982" lon="4.55347">
        <ele>392.6</ele>
        <time>2020-10-17T10:10:41Z</time>
      </trkpt>
      <trkpt lat="46.17982" lon="4.55344">
        <ele>392.4</ele>
        <time>2020-10-17T10:10:42Z</time>
      </trkpt>
      <trkpt lat="46.17982" lon="4.5534">
        <ele>393</ele>
        <time>2020-10-17T10:10:43Z</time>
      </trkpt>
      <trkpt lat="46.17982" lon="4.55337">
        <ele>392.6</ele>
        <time>2020-10-17T10:10:44Z</time>
      </trkpt>
      <trkpt lat="46.17982" lon="4.55334">
        <ele>392.8</ele>
        <time>2020-10-17T10:10:45Z</time>
      </trkpt>
      <trkpt lat="46.17982" lon="4.5533">
        <ele>392.8</ele>
        <time>2020-10-17T10:10:46Z</time>
      </trkpt>
      <trkpt lat="46.17982" lon="4.55326">
        <ele>393.2</ele>
        <time>2020-10-17T10:10:47Z</time>
      </trkpt>
      <trkpt lat="46.17983" lon="4.55322">
        <ele>392.6</ele>
        <time>2020-10-17T10:10:48Z</time>
      </trkpt>
      <trkpt lat="46.17984" lon="4.55318">
        <ele>392.8</ele>
        <time>2020-10-17T10:10:49Z</time>
      </trkpt>
      <trkpt lat="46.17985" lon="4.55315">
        <ele>393</ele>
        <time>2020-10-17T10:10:50Z</time>
      </trkpt>
      <trkpt lat="46.17986" lon="4.55312">
        <ele>392.4</ele>
        <time>2020-10-17T10:10:51Z</time>
      </trkpt>
      <trkpt lat="46.17988" lon="4.55308">
        <ele>392.4</ele>
        <time>2020-10-17T10:10:52Z</time>
      </trkpt>
      <trkpt lat="46.17989" lon="4.55306">
        <ele>392.2</ele>
        <time>2020-10-17T10:10:53Z</time>
      </trkpt>
      <trkpt lat="46.1799" lon="4.55303">
        <ele>391.6</ele>
        <time>2020-10-17T10:10:54Z</time>
      </trkpt>
      <trkpt lat="46.17991" lon="4.553">
        <ele>391.6</ele>
        <time>2020-10-17T10:10:55Z</time>
      </trkpt>
      <trkpt lat="46.17992" lon="4.55297">
        <ele>391.6</ele>
        <time>2020-10-17T10:10:56Z</time>
      </trkpt>
      <trkpt lat="46.17994" lon="4.55293">
        <ele>391.2</ele>
        <time>2020-10-17T10:10:57Z</time>
      </trkpt>
      <trkpt lat="46.17995" lon="4.55291">
        <ele>390.8</ele>
        <time>2020-10-17T10:10:58Z</time>
      </trkpt>
      <trkpt lat="46.17997" lon="4.55287">
        <ele>391</ele>
        <time>2020-10-17T10:10:59Z</time>
      </trkpt>
      <trkpt lat="46.17998" lon="4.55284">
        <ele>390.6</ele>
        <time>2020-10-17T10:11:00Z</time>
      </trkpt>
      <trkpt lat="46.17999" lon="4.55281">
        <ele>390</ele>
        <time>2020-10-17T10:11:01Z</time>
      </trkpt>
      <trkpt lat="46.18" lon="4.55278">
        <ele>390.4</ele>
        <time>2020-10-17T10:11:02Z</time>
      </trkpt>
      <trkpt lat="46.18001" lon="4.55274">
        <ele>390</ele>
        <time>2020-10-17T10:11:03Z</time>
      </trkpt>
      <trkpt lat="46.18003" lon="4.55271">
        <ele>389.4</ele>
        <time>2020-10-17T10:11:04Z</time>
      </trkpt>
      <trkpt lat="46.18004" lon="4.55268">
        <ele>389.4</ele>
        <time>2020-10-17T10:11:05Z</time>
      </trkpt>
      <trkpt lat="46.18005" lon="4.55265">
        <ele>389.2</ele>
        <time>2020-10-17T10:11:06Z</time>
      </trkpt>
      <trkpt lat="46.18006" lon="4.55261">
        <ele>388.8</ele>
        <time>2020-10-17T10:11:07Z</time>
      </trkpt>
      <trkpt lat="46.18007" lon="4.55258">
        <ele>388.8</ele>
        <time>2020-10-17T10:11:08Z</time>
      </trkpt>
      <trkpt lat="46.18008" lon="4.55255">
        <ele>388.4</ele>
        <time>2020-10-17T10:11:09Z</time>
      </trkpt>
      <trkpt lat="46.1801" lon="4.55252">
        <ele>387.8</ele>
        <time>2020-10-17T10:11:10Z</time>
      </trkpt>
      <trkpt lat="46.1801" lon="4.55248">
        <ele>387.8</ele>
        <time>2020-10-17T10:11:11Z</time>
      </trkpt>
      <trkpt lat="46.18011" lon="4.55245">
        <ele>387.6</ele>
        <time>2020-10-17T10:11:12Z</time>
      </trkpt>
      <trkpt lat="46.18012" lon="4.55241">
        <ele>387</ele>
        <time>2020-10-17T10:11:13Z</time>
      </trkpt>
      <trkpt lat="46.18014" lon="4.55237">
        <ele>386.8</ele>
        <time>2020-10-17T10:11:14Z</time>
      </trkpt>
      <trkpt lat="46.18014" lon="4.55234">
        <ele>386.8</ele>
        <time>2020-10-17T10:11:15Z</time>
      </trkpt>
      <trkpt lat="46.18015" lon="4.55229">
        <ele>386</ele>
        <time>2020-10-17T10:11:16Z</time>
      </trkpt>
      <trkpt lat="46.18017" lon="4.55225">
        <ele>385.6</ele>
        <time>2020-10-17T10:11:17Z</time>
      </trkpt>
      <trkpt lat="46.18017" lon="4.55221">
        <ele>385.8</ele>
        <time>2020-10-17T10:11:18Z</time>
      </trkpt>
      <trkpt lat="46.18017" lon="4.55217">
        <ele>385.2</ele>
        <time>2020-10-17T10:11:19Z</time>
      </trkpt>
      <trkpt lat="46.18018" lon="4.55213">
        <ele>384.8</ele>
        <time>2020-10-17T10:11:20Z</time>
      </trkpt>
      <trkpt lat="46.18018" lon="4.5521">
        <ele>384.8</ele>
        <time>2020-10-17T10:11:21Z</time>
      </trkpt>
      <trkpt lat="46.18018" lon="4.55206">
        <ele>384.6</ele>
        <time>2020-10-17T10:11:22Z</time>
      </trkpt>
      <trkpt lat="46.18018" lon="4.55202">
        <ele>383.8</ele>
        <time>2020-10-17T10:11:23Z</time>
      </trkpt>
      <trkpt lat="46.18017" lon="4.55199">
        <ele>383.8</ele>
        <time>2020-10-17T10:11:24Z</time>
      </trkpt>
      <trkpt lat="46.18017" lon="4.55196">
        <ele>383.4</ele>
        <time>2020-10-17T10:11:25Z</time>
      </trkpt>
      <trkpt lat="46.18016" lon="4.55193">
        <ele>382.8</ele>
        <time>2020-10-17T10:11:26Z</time>
      </trkpt>
      <trkpt lat="46.18016" lon="4.55189">
        <ele>383.2</ele>
        <time>2020-10-17T10:11:27Z</time>
      </trkpt>
      <trkpt lat="46.18015" lon="4.55185">
        <ele>382.6</ele>
        <time>2020-10-17T10:11:28Z</time>
      </trkpt>
      <trkpt lat="46.18015" lon="4.55182">
        <ele>381.8</ele>
        <time>2020-10-17T10:11:29Z</time>
      </trkpt>
      <trkpt lat="46.18014" lon="4.55178">
        <ele>382.2</ele>
        <time>2020-10-17T10:11:30Z</time>
      </trkpt>
      <trkpt lat="46.18014" lon="4.55174">
        <ele>382</ele>
        <time>2020-10-17T10:11:31Z</time>
      </trkpt>
      <trkpt lat="46.18013" lon="4.5517">
        <ele>381.6</ele>
        <time>2020-10-17T10:11:32Z</time>
      </trkpt>
      <trkpt lat="46.18012" lon="4.55167">
        <ele>381.6</ele>
        <time>2020-10-17T10:11:33Z</time>
      </trkpt>
      <trkpt lat="46.18012" lon="4.55163">
        <ele>381.2</ele>
        <time>2020-10-17T10:11:34Z</time>
      </trkpt>
      <trkpt lat="46.18011" lon="4.5516">
        <ele>380.8</ele>
        <time>2020-10-17T10:11:35Z</time>
      </trkpt>
      <trkpt lat="46.1801" lon="4.55156">
        <ele>380.8</ele>
        <time>2020-10-17T10:11:36Z</time>
      </trkpt>
      <trkpt lat="46.18009" lon="4.55152">
        <ele>380.2</ele>
        <time>2020-10-17T10:11:37Z</time>
      </trkpt>
      <trkpt lat="46.18009" lon="4.55148">
        <ele>379.6</ele>
        <time>2020-10-17T10:11:38Z</time>
      </trkpt>
      <trkpt lat="46.18008" lon="4.55143">
        <ele>379.8</ele>
        <time>2020-10-17T10:11:39Z</time>
      </trkpt>
      <trkpt lat="46.18007" lon="4.55139">
        <ele>379.2</ele>
        <time>2020-10-17T10:11:40Z</time>
      </trkpt>
      <trkpt lat="46.18007" lon="4.55135">
        <ele>378.8</ele>
        <time>2020-10-17T10:11:41Z</time>
      </trkpt>
      <trkpt lat="46.18006" lon="4.55131">
        <ele>379.2</ele>
        <time>2020-10-17T10:11:42Z</time>
      </trkpt>
      <trkpt lat="46.18005" lon="4.55127">
        <ele>379.2</ele>
        <time>2020-10-17T10:11:43Z</time>
      </trkpt>
      <trkpt lat="46.18005" lon="4.55123">
        <ele>378.8</ele>
        <time>2020-10-17T10:11:44Z</time>
      </trkpt>
      <trkpt lat="46.18005" lon="4.5512">
        <ele>379</ele>
        <time>2020-10-17T10:11:45Z</time>
      </trkpt>
      <trkpt lat="46.18004" lon="4.55116">
        <ele>379</ele>
        <time>2020-10-17T10:11:46Z</time>
      </trkpt>
      <trkpt lat="46.18004" lon="4.55113">
        <ele>378.8</ele>
        <time>2020-10-17T10:11:47Z</time>
      </trkpt>
      <trkpt lat="46.18004" lon="4.55109">
        <ele>379</ele>
        <time>2020-10-17T10:11:48Z</time>
      </trkpt>
      <trkpt lat="46.18003" lon="4.55105">
        <ele>379.2</ele>
        <time>2020-10-17T10:11:49Z</time>
      </trkpt>
      <trkpt lat="46.18003" lon="4.55102">
        <ele>378.8</ele>
        <time>2020-10-17T10:11:50Z</time>
      </trkpt>
      <trkpt lat="46.18002" lon="4.55099">
        <ele>379</ele>
        <time>2020-10-17T10:11:51Z</time>
      </trkpt>
      <trkpt lat="46.18002" lon="4.55095">
        <ele>379</ele>
        <time>2020-10-17T10:11:52Z</time>
      </trkpt>
      <trkpt lat="46.18001" lon="4.55092">
        <ele>378.8</ele>
        <time>2020-10-17T10:11:53Z</time>
      </trkpt>
      <trkpt lat="46.18001" lon="4.55088">
        <ele>379</ele>
        <time>2020-10-17T10:11:54Z</time>
      </trkpt>
      <trkpt lat="46.18001" lon="4.55085">
        <ele>378.8</ele>
        <time>2020-10-17T10:11:55Z</time>
      </trkpt>
      <trkpt lat="46.18001" lon="4.55082">
        <ele>378.6</ele>
        <time>2020-10-17T10:11:56Z</time>
      </trkpt>
      <trkpt lat="46.18" lon="4.55078">
        <ele>378.6</ele>
        <time>2020-10-17T10:11:57Z</time>
      </trkpt>
      <trkpt lat="46.18" lon="4.55074">
        <ele>378.4</ele>
        <time>2020-10-17T10:11:58Z</time>
      </trkpt>
      <trkpt lat="46.18" lon="4.55071">
        <ele>378.4</ele>
        <time>2020-10-17T10:11:59Z</time>
      </trkpt>
      <trkpt lat="46.18" lon="4.55067">
        <ele>378.2</ele>
        <time>2020-10-17T10:12:00Z</time>
      </trkpt>
      <trkpt lat="46.17999" lon="4.55064">
        <ele>378.6</ele>
        <time>2020-10-17T10:12:01Z</time>
      </trkpt>
      <trkpt lat="46.17999" lon="4.55064">
        <ele>378.4</ele>
        <time>2020-10-17T10:12:02Z</time>
      </trkpt>
      <trkpt lat="46.17999" lon="4.5506">
        <ele>378.4</ele>
        <time>2020-10-17T10:12:03Z</time>
      </trkpt>
      <trkpt lat="46.17999" lon="4.5506">
        <ele>378.6</ele>
        <time>2020-10-17T10:12:04Z</time>
      </trkpt>
      <trkpt lat="46.17999" lon="4.55055">
        <ele>378.4</ele>
        <time>2020-10-17T10:12:05Z</time>
      </trkpt>
      <trkpt lat="46.17999" lon="4.55055">
        <ele>378.4</ele>
        <time>2020-10-17T10:12:06Z</time>
      </trkpt>
      <trkpt lat="46.17999" lon="4.55051">
        <ele>378.6</ele>
        <time>2020-10-17T10:12:07Z</time>
      </trkpt>
      <trkpt lat="46.17999" lon="4.55051">
        <ele>378.6</ele>
        <time>2020-10-17T10:12:08Z</time>
      </trkpt>
      <trkpt lat="46.18" lon="4.55046">
        <ele>378.4</ele>
        <time>2020-10-17T10:12:09Z</time>
      </trkpt>
      <trkpt lat="46.18" lon="4.55046">
        <ele>378.4</ele>
        <time>2020-10-17T10:12:10Z</time>
      </trkpt>
      <trkpt lat="46.18" lon="4.55042">
        <ele>378.4</ele>
        <time>2020-10-17T10:12:11Z</time>
      </trkpt>
      <trkpt lat="46.18" lon="4.55042">
        <ele>378.8</ele>
        <time>2020-10-17T10:12:12Z</time>
      </trkpt>
      <trkpt lat="46.18" lon="4.55038">
        <ele>379.2</ele>
        <time>2020-10-17T10:12:13Z</time>
      </trkpt>
      <trkpt lat="46.18" lon="4.55038">
        <ele>379.2</ele>
        <time>2020-10-17T10:12:14Z</time>
      </trkpt>
      <trkpt lat="46.18" lon="4.55034">
        <ele>379</ele>
        <time>2020-10-17T10:12:15Z</time>
      </trkpt>
      <trkpt lat="46.18" lon="4.55034">
        <ele>379</ele>
        <time>2020-10-17T10:12:16Z</time>
      </trkpt>
      <trkpt lat="46.18" lon="4.55029">
        <ele>379</ele>
        <time>2020-10-17T10:12:17Z</time>
      </trkpt>
      <trkpt lat="46.18" lon="4.55029">
        <ele>379</ele>
        <time>2020-10-17T10:12:18Z</time>
      </trkpt>
      <trkpt lat="46.18" lon="4.55026">
        <ele>379</ele>
        <time>2020-10-17T10:12:19Z</time>
      </trkpt>
      <trkpt lat="46.18" lon="4.55026">
        <ele>379.2</ele>
        <time>2020-10-17T10:12:20Z</time>
      </trkpt>
      <trkpt lat="46.18" lon="4.55021">
        <ele>379.2</ele>
        <time>2020-10-17T10:12:21Z</time>
      </trkpt>
      <trkpt lat="46.18" lon="4.55021">
        <ele>379.2</ele>
        <time>2020-10-17T10:12:22Z</time>
      </trkpt>
      <trkpt lat="46.18" lon="4.55017">
        <ele>379.4</ele>
        <time>2020-10-17T10:12:23Z</time>
      </trkpt>
      <trkpt lat="46.18" lon="4.55017">
        <ele>379.6</ele>
        <time>2020-10-17T10:12:24Z</time>
      </trkpt>
      <trkpt lat="46.18" lon="4.55013">
        <ele>379.8</ele>
        <time>2020-10-17T10:12:25Z</time>
      </trkpt>
      <trkpt lat="46.18" lon="4.55013">
        <ele>379.8</ele>
        <time>2020-10-17T10:12:26Z</time>
      </trkpt>
      <trkpt lat="46.17999" lon="4.55008">
        <ele>380</ele>
        <time>2020-10-17T10:12:27Z</time>
      </trkpt>
      <trkpt lat="46.17999" lon="4.55008">
        <ele>380</ele>
        <time>2020-10-17T10:12:28Z</time>
      </trkpt>
      <trkpt lat="46.17998" lon="4.55005">
        <ele>380.2</ele>
        <time>2020-10-17T10:12:29Z</time>
      </trkpt>
      <trkpt lat="46.17998" lon="4.55005">
        <ele>380.2</ele>
        <time>2020-10-17T10:12:30Z</time>
      </trkpt>
      <trkpt lat="46.17998" lon="4.55005">
        <ele>380.2</ele>
        <time>2020-10-17T10:12:31Z</time>
      </trkpt>
      <trkpt lat="46.17998" lon="4.55005">
        <ele>380.2</ele>
        <time>2020-10-17T10:12:32Z</time>
      </trkpt>
      <trkpt lat="46.17998" lon="4.55005">
        <ele>380.4</ele>
        <time>2020-10-17T10:12:33Z</time>
      </trkpt>
      <trkpt lat="46.17998" lon="4.55005">
        <ele>380.4</ele>
        <time>2020-10-17T10:12:34Z</time>
      </trkpt>
      <trkpt lat="46.18" lon="4.55002">
        <ele>380.2</ele>
        <time>2020-10-17T10:12:35Z</time>
      </trkpt>
      <trkpt lat="46.18" lon="4.55002">
        <ele>380.2</ele>
        <time>2020-10-17T10:12:36Z</time>
      </trkpt>
      <trkpt lat="46.18003" lon="4.54999">
        <ele>380.2</ele>
        <time>2020-10-17T10:12:37Z</time>
      </trkpt>
      <trkpt lat="46.18003" lon="4.54999">
        <ele>380.4</ele>
        <time>2020-10-17T10:12:38Z</time>
      </trkpt>
      <trkpt lat="46.18005" lon="4.54997">
        <ele>380.6</ele>
        <time>2020-10-17T10:12:39Z</time>
      </trkpt>
      <trkpt lat="46.18005" lon="4.54997">
        <ele>380.6</ele>
        <time>2020-10-17T10:12:40Z</time>
      </trkpt>
      <trkpt lat="46.18005" lon="4.54997">
        <ele>380.4</ele>
        <time>2020-10-17T10:12:41Z</time>
      </trkpt>
      <trkpt lat="46.18007" lon="4.54996">
        <ele>380.4</ele>
        <time>2020-10-17T10:12:42Z</time>
      </trkpt>
      <trkpt lat="46.18007" lon="4.54996">
        <ele>380.4</ele>
        <time>2020-10-17T10:12:43Z</time>
      </trkpt>
      <trkpt lat="46.18007" lon="4.54996">
        <ele>380.6</ele>
        <time>2020-10-17T10:12:44Z</time>
      </trkpt>
      <trkpt lat="46.18007" lon="4.54996">
        <ele>381</ele>
        <time>2020-10-17T10:12:45Z</time>
      </trkpt>
      <trkpt lat="46.18007" lon="4.54996">
        <ele>381.2</ele>
        <time>2020-10-17T10:12:46Z</time>
      </trkpt>
      <trkpt lat="46.18007" lon="4.54996">
        <ele>381.8</ele>
        <time>2020-10-17T10:12:47Z</time>
      </trkpt>
      <trkpt lat="46.18007" lon="4.54996">
        <ele>381.8</ele>
        <time>2020-10-17T10:12:48Z</time>
      </trkpt>
      <trkpt lat="46.18007" lon="4.54996">
        <ele>382</ele>
        <time>2020-10-17T10:12:49Z</time>
      </trkpt>
      <trkpt lat="46.18009" lon="4.54997">
        <ele>382.2</ele>
        <time>2020-10-17T10:12:50Z</time>
      </trkpt>
      <trkpt lat="46.18009" lon="4.54997">
        <ele>382.4</ele>
        <time>2020-10-17T10:12:51Z</time>
      </trkpt>
      <trkpt lat="46.18009" lon="4.54997">
        <ele>382.4</ele>
        <time>2020-10-17T10:12:52Z</time>
      </trkpt>
      <trkpt lat="46.18009" lon="4.54997">
        <ele>382.8</ele>
        <time>2020-10-17T10:12:53Z</time>
      </trkpt>
      <trkpt lat="46.18009" lon="4.54997">
        <ele>382.8</ele>
        <time>2020-10-17T10:12:54Z</time>
      </trkpt>
      <trkpt lat="46.18009" lon="4.54994">
        <ele>382.8</ele>
        <time>2020-10-17T10:12:55Z</time>
      </trkpt>
      <trkpt lat="46.18009" lon="4.54994">
        <ele>382.8</ele>
        <time>2020-10-17T10:12:56Z</time>
      </trkpt>
      <trkpt lat="46.18009" lon="4.5499">
        <ele>382.4</ele>
        <time>2020-10-17T10:12:57Z</time>
      </trkpt>
      <trkpt lat="46.18009" lon="4.5499">
        <ele>382.2</ele>
        <time>2020-10-17T10:12:58Z</time>
      </trkpt>
      <trkpt lat="46.1801" lon="4.54985">
        <ele>382.2</ele>
        <time>2020-10-17T10:12:59Z</time>
      </trkpt>
      <trkpt lat="46.1801" lon="4.54985">
        <ele>382</ele>
        <time>2020-10-17T10:13:00Z</time>
      </trkpt>
      <trkpt lat="46.18011" lon="4.54981">
        <ele>382.2</ele>
        <time>2020-10-17T10:13:01Z</time>
      </trkpt>
      <trkpt lat="46.18011" lon="4.54981">
        <ele>382</ele>
        <time>2020-10-17T10:13:02Z</time>
      </trkpt>
      <trkpt lat="46.18012" lon="4.54977">
        <ele>382</ele>
        <time>2020-10-17T10:13:03Z</time>
      </trkpt>
      <trkpt lat="46.18012" lon="4.54977">
        <ele>381.8</ele>
        <time>2020-10-17T10:13:04Z</time>
      </trkpt>
      <trkpt lat="46.18012" lon="4.54972">
        <ele>381.8</ele>
        <time>2020-10-17T10:13:05Z</time>
      </trkpt>
      <trkpt lat="46.18012" lon="4.5497">
        <ele>381.8</ele>
        <time>2020-10-17T10:13:06Z</time>
      </trkpt>
      <trkpt lat="46.18012" lon="4.54967">
        <ele>381.8</ele>
        <time>2020-10-17T10:13:07Z</time>
      </trkpt>
      <trkpt lat="46.18012" lon="4.54967">
        <ele>381.8</ele>
        <time>2020-10-17T10:13:08Z</time>
      </trkpt>
      <trkpt lat="46.18012" lon="4.54962">
        <ele>381.8</ele>
        <time>2020-10-17T10:13:09Z</time>
      </trkpt>
      <trkpt lat="46.18012" lon="4.54962">
        <ele>382</ele>
        <time>2020-10-17T10:13:10Z</time>
      </trkpt>
      <trkpt lat="46.18013" lon="4.54957">
        <ele>382</ele>
        <time>2020-10-17T10:13:11Z</time>
      </trkpt>
      <trkpt lat="46.18013" lon="4.54957">
        <ele>382</ele>
        <time>2020-10-17T10:13:12Z</time>
      </trkpt>
      <trkpt lat="46.18013" lon="4.54953">
        <ele>381.8</ele>
        <time>2020-10-17T10:13:13Z</time>
      </trkpt>
      <trkpt lat="46.18013" lon="4.54953">
        <ele>382</ele>
        <time>2020-10-17T10:13:14Z</time>
      </trkpt>
      <trkpt lat="46.18014" lon="4.54948">
        <ele>382</ele>
        <time>2020-10-17T10:13:15Z</time>
      </trkpt>
      <trkpt lat="46.18014" lon="4.54948">
        <ele>382</ele>
        <time>2020-10-17T10:13:16Z</time>
      </trkpt>
      <trkpt lat="46.18013" lon="4.54943">
        <ele>382</ele>
        <time>2020-10-17T10:13:17Z</time>
      </trkpt>
      <trkpt lat="46.18013" lon="4.54943">
        <ele>381.8</ele>
        <time>2020-10-17T10:13:18Z</time>
      </trkpt>
      <trkpt lat="46.18013" lon="4.54939">
        <ele>381.8</ele>
        <time>2020-10-17T10:13:19Z</time>
      </trkpt>
      <trkpt lat="46.18013" lon="4.54939">
        <ele>382</ele>
        <time>2020-10-17T10:13:20Z</time>
      </trkpt>
      <trkpt lat="46.18013" lon="4.54934">
        <ele>382</ele>
        <time>2020-10-17T10:13:21Z</time>
      </trkpt>
      <trkpt lat="46.18013" lon="4.54934">
        <ele>382</ele>
        <time>2020-10-17T10:13:22Z</time>
      </trkpt>
      <trkpt lat="46.18013" lon="4.54929">
        <ele>382.2</ele>
        <time>2020-10-17T10:13:23Z</time>
      </trkpt>
      <trkpt lat="46.18013" lon="4.54929">
        <ele>382</ele>
        <time>2020-10-17T10:13:24Z</time>
      </trkpt>
      <trkpt lat="46.18012" lon="4.54925">
        <ele>382.2</ele>
        <time>2020-10-17T10:13:25Z</time>
      </trkpt>
      <trkpt lat="46.18012" lon="4.54925">
        <ele>382.4</ele>
        <time>2020-10-17T10:13:26Z</time>
      </trkpt>
      <trkpt lat="46.18012" lon="4.5492">
        <ele>382.4</ele>
        <time>2020-10-17T10:13:27Z</time>
      </trkpt>
      <trkpt lat="46.18012" lon="4.5492">
        <ele>382.4</ele>
        <time>2020-10-17T10:13:28Z</time>
      </trkpt>
      <trkpt lat="46.18012" lon="4.54916">
        <ele>382.6</ele>
        <time>2020-10-17T10:13:29Z</time>
      </trkpt>
      <trkpt lat="46.18012" lon="4.54916">
        <ele>383</ele>
        <time>2020-10-17T10:13:30Z</time>
      </trkpt>
      <trkpt lat="46.18012" lon="4.54911">
        <ele>383</ele>
        <time>2020-10-17T10:13:31Z</time>
      </trkpt>
      <trkpt lat="46.18012" lon="4.54911">
        <ele>383</ele>
        <time>2020-10-17T10:13:32Z</time>
      </trkpt>
      <trkpt lat="46.18012" lon="4.54907">
        <ele>383.2</ele>
        <time>2020-10-17T10:13:33Z</time>
      </trkpt>
      <trkpt lat="46.18012" lon="4.54904">
        <ele>383.2</ele>
        <time>2020-10-17T10:13:34Z</time>
      </trkpt>
      <trkpt lat="46.18012" lon="4.54904">
        <ele>383.2</ele>
        <time>2020-10-17T10:13:35Z</time>
      </trkpt>
      <trkpt lat="46.18012" lon="4.54899">
        <ele>383.2</ele>
        <time>2020-10-17T10:13:36Z</time>
      </trkpt>
      <trkpt lat="46.18012" lon="4.54899">
        <ele>383.4</ele>
        <time>2020-10-17T10:13:37Z</time>
      </trkpt>
      <trkpt lat="46.18012" lon="4.54895">
        <ele>383.6</ele>
        <time>2020-10-17T10:13:38Z</time>
      </trkpt>
      <trkpt lat="46.18012" lon="4.54895">
        <ele>383.6</ele>
        <time>2020-10-17T10:13:39Z</time>
      </trkpt>
      <trkpt lat="46.18012" lon="4.54891">
        <ele>383.8</ele>
        <time>2020-10-17T10:13:40Z</time>
      </trkpt>
      <trkpt lat="46.18012" lon="4.54891">
        <ele>384.2</ele>
        <time>2020-10-17T10:13:41Z</time>
      </trkpt>
      <trkpt lat="46.18012" lon="4.54886">
        <ele>384.4</ele>
        <time>2020-10-17T10:13:42Z</time>
      </trkpt>
      <trkpt lat="46.18012" lon="4.54886">
        <ele>384.6</ele>
        <time>2020-10-17T10:13:43Z</time>
      </trkpt>
      <trkpt lat="46.18012" lon="4.54881">
        <ele>384.8</ele>
        <time>2020-10-17T10:13:44Z</time>
      </trkpt>
      <trkpt lat="46.18012" lon="4.54881">
        <ele>384.8</ele>
        <time>2020-10-17T10:13:45Z</time>
      </trkpt>
      <trkpt lat="46.18012" lon="4.54877">
        <ele>384.8</ele>
        <time>2020-10-17T10:13:46Z</time>
      </trkpt>
      <trkpt lat="46.18012" lon="4.54877">
        <ele>384.6</ele>
        <time>2020-10-17T10:13:47Z</time>
      </trkpt>
      <trkpt lat="46.18013" lon="4.54873">
        <ele>384.8</ele>
        <time>2020-10-17T10:13:48Z</time>
      </trkpt>
      <trkpt lat="46.18013" lon="4.54873">
        <ele>385</ele>
        <time>2020-10-17T10:13:49Z</time>
      </trkpt>
      <trkpt lat="46.18013" lon="4.54869">
        <ele>385</ele>
        <time>2020-10-17T10:13:50Z</time>
      </trkpt>
      <trkpt lat="46.18013" lon="4.54869">
        <ele>385</ele>
        <time>2020-10-17T10:13:51Z</time>
      </trkpt>
      <trkpt lat="46.18014" lon="4.54865">
        <ele>385.2</ele>
        <time>2020-10-17T10:13:52Z</time>
      </trkpt>
      <trkpt lat="46.18014" lon="4.54865">
        <ele>385.6</ele>
        <time>2020-10-17T10:13:53Z</time>
      </trkpt>
      <trkpt lat="46.18014" lon="4.54861">
        <ele>385.4</ele>
        <time>2020-10-17T10:13:54Z</time>
      </trkpt>
      <trkpt lat="46.18014" lon="4.54861">
        <ele>385.4</ele>
        <time>2020-10-17T10:13:55Z</time>
      </trkpt>
      <trkpt lat="46.18014" lon="4.54856">
        <ele>385.8</ele>
        <time>2020-10-17T10:13:56Z</time>
      </trkpt>
      <trkpt lat="46.18014" lon="4.54856">
        <ele>385.8</ele>
        <time>2020-10-17T10:13:57Z</time>
      </trkpt>
      <trkpt lat="46.18014" lon="4.54852">
        <ele>386</ele>
        <time>2020-10-17T10:13:58Z</time>
      </trkpt>
      <trkpt lat="46.18014" lon="4.54852">
        <ele>386.2</ele>
        <time>2020-10-17T10:13:59Z</time>
      </trkpt>
      <trkpt lat="46.18014" lon="4.54847">
        <ele>386.2</ele>
        <time>2020-10-17T10:14:00Z</time>
      </trkpt>
      <trkpt lat="46.18014" lon="4.54847">
        <ele>386.6</ele>
        <time>2020-10-17T10:14:01Z</time>
      </trkpt>
      <trkpt lat="46.18014" lon="4.54843">
        <ele>386.8</ele>
        <time>2020-10-17T10:14:02Z</time>
      </trkpt>
      <trkpt lat="46.18014" lon="4.54843">
        <ele>387.2</ele>
        <time>2020-10-17T10:14:03Z</time>
      </trkpt>
      <trkpt lat="46.18014" lon="4.54839">
        <ele>387.6</ele>
        <time>2020-10-17T10:14:04Z</time>
      </trkpt>
      <trkpt lat="46.18014" lon="4.54839">
        <ele>387.8</ele>
        <time>2020-10-17T10:14:05Z</time>
      </trkpt>
      <trkpt lat="46.18015" lon="4.54835">
        <ele>388</ele>
        <time>2020-10-17T10:14:06Z</time>
      </trkpt>
      <trkpt lat="46.18015" lon="4.54835">
        <ele>388.2</ele>
        <time>2020-10-17T10:14:07Z</time>
      </trkpt>
      <trkpt lat="46.18016" lon="4.54831">
        <ele>388.4</ele>
        <time>2020-10-17T10:14:08Z</time>
      </trkpt>
      <trkpt lat="46.18016" lon="4.54831">
        <ele>388.4</ele>
        <time>2020-10-17T10:14:09Z</time>
      </trkpt>
      <trkpt lat="46.18016" lon="4.54828">
        <ele>388.6</ele>
        <time>2020-10-17T10:14:10Z</time>
      </trkpt>
      <trkpt lat="46.18016" lon="4.54828">
        <ele>388.8</ele>
        <time>2020-10-17T10:14:11Z</time>
      </trkpt>
      <trkpt lat="46.18016" lon="4.54824">
        <ele>389.2</ele>
        <time>2020-10-17T10:14:12Z</time>
      </trkpt>
      <trkpt lat="46.18016" lon="4.54824">
        <ele>389.2</ele>
        <time>2020-10-17T10:14:13Z</time>
      </trkpt>
      <trkpt lat="46.18015" lon="4.54819">
        <ele>389.4</ele>
        <time>2020-10-17T10:14:14Z</time>
      </trkpt>
      <trkpt lat="46.18015" lon="4.54817">
        <ele>389.8</ele>
        <time>2020-10-17T10:14:15Z</time>
      </trkpt>
      <trkpt lat="46.18015" lon="4.54814">
        <ele>389.8</ele>
        <time>2020-10-17T10:14:16Z</time>
      </trkpt>
      <trkpt lat="46.18015" lon="4.54814">
        <ele>390</ele>
        <time>2020-10-17T10:14:17Z</time>
      </trkpt>
      <trkpt lat="46.18015" lon="4.54809">
        <ele>390.2</ele>
        <time>2020-10-17T10:14:18Z</time>
      </trkpt>
      <trkpt lat="46.18015" lon="4.54809">
        <ele>390.2</ele>
        <time>2020-10-17T10:14:19Z</time>
      </trkpt>
      <trkpt lat="46.18015" lon="4.54805">
        <ele>390.4</ele>
        <time>2020-10-17T10:14:20Z</time>
      </trkpt>
      <trkpt lat="46.18015" lon="4.54805">
        <ele>390.4</ele>
        <time>2020-10-17T10:14:21Z</time>
      </trkpt>
      <trkpt lat="46.18015" lon="4.54801">
        <ele>390.6</ele>
        <time>2020-10-17T10:14:22Z</time>
      </trkpt>
      <trkpt lat="46.18015" lon="4.54801">
        <ele>390.8</ele>
        <time>2020-10-17T10:14:23Z</time>
      </trkpt>
      <trkpt lat="46.18015" lon="4.54797">
        <ele>390.8</ele>
        <time>2020-10-17T10:14:24Z</time>
      </trkpt>
      <trkpt lat="46.18015" lon="4.54797">
        <ele>391</ele>
        <time>2020-10-17T10:14:25Z</time>
      </trkpt>
      <trkpt lat="46.18015" lon="4.54797">
        <ele>391</ele>
        <time>2020-10-17T10:14:26Z</time>
      </trkpt>
      <trkpt lat="46.18014" lon="4.54794">
        <ele>391</ele>
        <time>2020-10-17T10:14:27Z</time>
      </trkpt>
      <trkpt lat="46.18014" lon="4.54794">
        <ele>391.4</ele>
        <time>2020-10-17T10:14:28Z</time>
      </trkpt>
      <trkpt lat="46.18014" lon="4.54794">
        <ele>391.8</ele>
        <time>2020-10-17T10:14:29Z</time>
      </trkpt>
      <trkpt lat="46.18014" lon="4.54794">
        <ele>392</ele>
        <time>2020-10-17T10:14:30Z</time>
      </trkpt>
      <trkpt lat="46.18014" lon="4.54794">
        <ele>392.2</ele>
        <time>2020-10-17T10:14:31Z</time>
      </trkpt>
      <trkpt lat="46.18014" lon="4.54794">
        <ele>392.4</ele>
        <time>2020-10-17T10:14:32Z</time>
      </trkpt>
      <trkpt lat="46.18014" lon="4.54794">
        <ele>392.4</ele>
        <time>2020-10-17T10:14:33Z</time>
      </trkpt>
      <trkpt lat="46.18014" lon="4.54794">
        <ele>392.4</ele>
        <time>2020-10-17T10:14:34Z</time>
      </trkpt>
      <trkpt lat="46.18014" lon="4.54794">
        <ele>392.4</ele>
        <time>2020-10-17T10:14:35Z</time>
      </trkpt>
      <trkpt lat="46.18014" lon="4.54794">
        <ele>392.4</ele>
        <time>2020-10-17T10:14:36Z</time>
      </trkpt>
      <trkpt lat="46.18014" lon="4.54794">
        <ele>392.4</ele>
        <time>2020-10-17T10:14:37Z</time>
      </trkpt>
      <trkpt lat="46.18014" lon="4.54794">
        <ele>392.4</ele>
        <time>2020-10-17T10:14:38Z</time>
      </trkpt>
      <trkpt lat="46.18014" lon="4.54794">
        <ele>392.4</ele>
        <time>2020-10-17T10:14:39Z</time>
      </trkpt>
      <trkpt lat="46.18014" lon="4.54794">
        <ele>392.4</ele>
        <time>2020-10-17T10:14:40Z</time>
      </trkpt>
      <trkpt lat="46.18014" lon="4.54794">
        <ele>392.4</ele>
        <time>2020-10-17T10:14:41Z</time>
      </trkpt>
      <trkpt lat="46.18014" lon="4.54794">
        <ele>392.4</ele>
        <time>2020-10-17T10:14:42Z</time>
      </trkpt>
      <trkpt lat="46.18014" lon="4.54794">
        <ele>392.4</ele>
        <time>2020-10-17T10:14:43Z</time>
      </trkpt>
      <trkpt lat="46.18014" lon="4.54794">
        <ele>392.4</ele>
        <time>2020-10-17T10:14:44Z</time>
      </trkpt>
      <trkpt lat="46.18014" lon="4.54794">
        <ele>392.4</ele>
        <time>2020-10-17T10:14:45Z</time>
      </trkpt>
      <trkpt lat="46.18014" lon="4.54794">
        <ele>392.4</ele>
        <time>2020-10-17T10:14:46Z</time>
      </trkpt>
      <trkpt lat="46.18014" lon="4.54794">
        <ele>392.4</ele>
        <time>2020-10-17T10:14:47Z</time>
      </trkpt>
      <trkpt lat="46.18014" lon="4.54794">
        <ele>392.2</ele>
        <time>2020-10-17T10:14:48Z</time>
      </trkpt>
      <trkpt lat="46.18014" lon="4.54794">
        <ele>392.2</ele>
        <time>2020-10-17T10:14:49Z</time>
      </trkpt>
      <trkpt lat="46.18014" lon="4.54794">
        <ele>392.4</ele>
        <time>2020-10-17T10:14:50Z</time>
      </trkpt>
      <trkpt lat="46.18014" lon="4.54794">
        <ele>392.4</ele>
        <time>2020-10-17T10:14:51Z</time>
      </trkpt>
      <trkpt lat="46.18014" lon="4.54794">
        <ele>392.2</ele>
        <time>2020-10-17T10:14:52Z</time>
      </trkpt>
      <trkpt lat="46.18014" lon="4.54794">
        <ele>391.8</ele>
        <time>2020-10-17T10:14:53Z</time>
      </trkpt>
      <trkpt lat="46.18014" lon="4.54794">
        <ele>391.6</ele>
        <time>2020-10-17T10:14:54Z</time>
      </trkpt>
      <trkpt lat="46.18014" lon="4.54794">
        <ele>391.4</ele>
        <time>2020-10-17T10:14:55Z</time>
      </trkpt>
      <trkpt lat="46.18014" lon="4.54794">
        <ele>391.6</ele>
        <time>2020-10-17T10:14:56Z</time>
      </trkpt>
      <trkpt lat="46.18014" lon="4.54794">
        <ele>391.4</ele>
        <time>2020-10-17T10:14:57Z</time>
      </trkpt>
      <trkpt lat="46.18014" lon="4.54794">
        <ele>391.2</ele>
        <time>2020-10-17T10:14:58Z</time>
      </trkpt>
      <trkpt lat="46.18014" lon="4.54794">
        <ele>391.2</ele>
        <time>2020-10-17T10:14:59Z</time>
      </trkpt>
      <trkpt lat="46.18014" lon="4.54794">
        <ele>391.2</ele>
        <time>2020-10-17T10:15:00Z</time>
      </trkpt>
      <trkpt lat="46.18014" lon="4.54794">
        <ele>391.2</ele>
        <time>2020-10-17T10:15:01Z</time>
      </trkpt>
      <trkpt lat="46.18014" lon="4.54794">
        <ele>391</ele>
        <time>2020-10-17T10:15:02Z</time>
      </trkpt>
      <trkpt lat="46.18013" lon="4.54792">
        <ele>391.2</ele>
        <time>2020-10-17T10:15:03Z</time>
      </trkpt>
      <trkpt lat="46.18013" lon="4.54792">
        <ele>391.2</ele>
        <time>2020-10-17T10:15:04Z</time>
      </trkpt>
      <trkpt lat="46.18013" lon="4.54792">
        <ele>391.4</ele>
        <time>2020-10-17T10:15:05Z</time>
      </trkpt>
      <trkpt lat="46.18013" lon="4.54792">
        <ele>391.6</ele>
        <time>2020-10-17T10:15:06Z</time>
      </trkpt>
      <trkpt lat="46.18013" lon="4.54792">
        <ele>391.4</ele>
        <time>2020-10-17T10:15:07Z</time>
      </trkpt>
      <trkpt lat="46.18013" lon="4.54792">
        <ele>391.2</ele>
        <time>2020-10-17T10:15:08Z</time>
      </trkpt>
      <trkpt lat="46.18013" lon="4.54792">
        <ele>391.2</ele>
        <time>2020-10-17T10:15:09Z</time>
      </trkpt>
      <trkpt lat="46.18013" lon="4.54792">
        <ele>391.2</ele>
        <time>2020-10-17T10:15:10Z</time>
      </trkpt>
      <trkpt lat="46.18013" lon="4.54792">
        <ele>390.6</ele>
        <time>2020-10-17T10:15:11Z</time>
      </trkpt>
      <trkpt lat="46.18013" lon="4.54792">
        <ele>390.4</ele>
        <time>2020-10-17T10:15:12Z</time>
      </trkpt>
      <trkpt lat="46.18013" lon="4.54792">
        <ele>390.2</ele>
        <time>2020-10-17T10:15:13Z</time>
      </trkpt>
      <trkpt lat="46.18013" lon="4.54792">
        <ele>390</ele>
        <time>2020-10-17T10:15:14Z</time>
      </trkpt>
      <trkpt lat="46.18011" lon="4.54791">
        <ele>390.4</ele>
        <time>2020-10-17T10:15:15Z</time>
      </trkpt>
      <trkpt lat="46.18011" lon="4.54791">
        <ele>390.6</ele>
        <time>2020-10-17T10:15:16Z</time>
      </trkpt>
      <trkpt lat="46.18011" lon="4.54791">
        <ele>390.2</ele>
        <time>2020-10-17T10:15:17Z</time>
      </trkpt>
      <trkpt lat="46.18011" lon="4.54791">
        <ele>390.2</ele>
        <time>2020-10-17T10:15:18Z</time>
      </trkpt>
      <trkpt lat="46.18011" lon="4.54791">
        <ele>390</ele>
        <time>2020-10-17T10:15:19Z</time>
      </trkpt>
      <trkpt lat="46.18011" lon="4.54791">
        <ele>390</ele>
        <time>2020-10-17T10:15:20Z</time>
      </trkpt>
      <trkpt lat="46.18011" lon="4.54791">
        <ele>390</ele>
        <time>2020-10-17T10:15:21Z</time>
      </trkpt>
      <trkpt lat="46.18011" lon="4.54791">
        <ele>389.8</ele>
        <time>2020-10-17T10:15:22Z</time>
      </trkpt>
      <trkpt lat="46.18011" lon="4.54791">
        <ele>389.6</ele>
        <time>2020-10-17T10:15:23Z</time>
      </trkpt>
      <trkpt lat="46.18011" lon="4.54791">
        <ele>389.6</ele>
        <time>2020-10-17T10:15:24Z</time>
      </trkpt>
      <trkpt lat="46.18011" lon="4.54791">
        <ele>389.4</ele>
        <time>2020-10-17T10:15:25Z</time>
      </trkpt>
      <trkpt lat="46.18011" lon="4.54791">
        <ele>389.6</ele>
        <time>2020-10-17T10:15:26Z</time>
      </trkpt>
      <trkpt lat="46.18011" lon="4.54791">
        <ele>389.6</ele>
        <time>2020-10-17T10:15:27Z</time>
      </trkpt>
      <trkpt lat="46.18011" lon="4.54791">
        <ele>389.4</ele>
        <time>2020-10-17T10:15:28Z</time>
      </trkpt>
      <trkpt lat="46.18011" lon="4.54791">
        <ele>389.2</ele>
        <time>2020-10-17T10:15:29Z</time>
      </trkpt>
      <trkpt lat="46.18011" lon="4.54791">
        <ele>389.2</ele>
        <time>2020-10-17T10:15:30Z</time>
      </trkpt>
      <trkpt lat="46.18011" lon="4.54791">
        <ele>389.2</ele>
        <time>2020-10-17T10:15:31Z</time>
      </trkpt>
      <trkpt lat="46.18011" lon="4.54791">
        <ele>389.2</ele>
        <time>2020-10-17T10:15:32Z</time>
      </trkpt>
      <trkpt lat="46.18011" lon="4.54791">
        <ele>389</ele>
        <time>2020-10-17T10:15:33Z</time>
      </trkpt>
      <trkpt lat="46.18011" lon="4.54791">
        <ele>389</ele>
        <time>2020-10-17T10:15:34Z</time>
      </trkpt>
      <trkpt lat="46.18011" lon="4.54791">
        <ele>388.8</ele>
        <time>2020-10-17T10:15:35Z</time>
      </trkpt>
      <trkpt lat="46.18011" lon="4.54791">
        <ele>388.8</ele>
        <time>2020-10-17T10:15:36Z</time>
      </trkpt>
      <trkpt lat="46.18011" lon="4.54791">
        <ele>388.6</ele>
        <time>2020-10-17T10:15:37Z</time>
      </trkpt>
      <trkpt lat="46.18011" lon="4.54791">
        <ele>388.6</ele>
        <time>2020-10-17T10:15:38Z</time>
      </trkpt>
      <trkpt lat="46.18011" lon="4.54791">
        <ele>388.4</ele>
        <time>2020-10-17T10:15:39Z</time>
      </trkpt>
      <trkpt lat="46.18011" lon="4.54791">
        <ele>388.4</ele>
        <time>2020-10-17T10:15:40Z</time>
      </trkpt>
      <trkpt lat="46.18011" lon="4.54791">
        <ele>388.4</ele>
        <time>2020-10-17T10:15:41Z</time>
      </trkpt>
      <trkpt lat="46.18011" lon="4.54791">
        <ele>388.2</ele>
        <time>2020-10-17T10:15:42Z</time>
      </trkpt>
      <trkpt lat="46.18011" lon="4.54791">
        <ele>388.2</ele>
        <time>2020-10-17T10:15:43Z</time>
      </trkpt>
      <trkpt lat="46.18011" lon="4.54791">
        <ele>388.2</ele>
        <time>2020-10-17T10:15:44Z</time>
      </trkpt>
      <trkpt lat="46.18011" lon="4.54791">
        <ele>388.2</ele>
        <time>2020-10-17T10:15:45Z</time>
      </trkpt>
      <trkpt lat="46.18011" lon="4.54791">
        <ele>388.2</ele>
        <time>2020-10-17T10:15:46Z</time>
      </trkpt>
      <trkpt lat="46.18009" lon="4.54789">
        <ele>388</ele>
        <time>2020-10-17T10:15:47Z</time>
      </trkpt>
      <trkpt lat="46.18009" lon="4.54789">
        <ele>388</ele>
        <time>2020-10-17T10:15:48Z</time>
      </trkpt>
      <trkpt lat="46.18009" lon="4.54784">
        <ele>388.2</ele>
        <time>2020-10-17T10:15:49Z</time>
      </trkpt>
      <trkpt lat="46.18009" lon="4.54784">
        <ele>388.2</ele>
        <time>2020-10-17T10:15:50Z</time>
      </trkpt>
      <trkpt lat="46.18009" lon="4.54779">
        <ele>388.4</ele>
        <time>2020-10-17T10:15:51Z</time>
      </trkpt>
      <trkpt lat="46.18009" lon="4.54779">
        <ele>388.4</ele>
        <time>2020-10-17T10:15:52Z</time>
      </trkpt>
      <trkpt lat="46.18008" lon="4.54775">
        <ele>388.4</ele>
        <time>2020-10-17T10:15:53Z</time>
      </trkpt>
      <trkpt lat="46.18008" lon="4.54772">
        <ele>388.4</ele>
        <time>2020-10-17T10:15:54Z</time>
      </trkpt>
      <trkpt lat="46.18008" lon="4.54772">
        <ele>388.4</ele>
        <time>2020-10-17T10:15:55Z</time>
      </trkpt>
      <trkpt lat="46.18007" lon="4.54767">
        <ele>388.4</ele>
        <time>2020-10-17T10:15:56Z</time>
      </trkpt>
      <trkpt lat="46.18007" lon="4.54765">
        <ele>388.6</ele>
        <time>2020-10-17T10:15:57Z</time>
      </trkpt>
      <trkpt lat="46.18007" lon="4.54765">
        <ele>388.6</ele>
        <time>2020-10-17T10:15:58Z</time>
      </trkpt>
      <trkpt lat="46.18006" lon="4.54759">
        <ele>388.8</ele>
        <time>2020-10-17T10:15:59Z</time>
      </trkpt>
      <trkpt lat="46.18006" lon="4.54757">
        <ele>389</ele>
        <time>2020-10-17T10:16:00Z</time>
      </trkpt>
      <trkpt lat="46.18005" lon="4.54754">
        <ele>389.2</ele>
        <time>2020-10-17T10:16:01Z</time>
      </trkpt>
      <trkpt lat="46.18005" lon="4.54752">
        <ele>389.4</ele>
        <time>2020-10-17T10:16:02Z</time>
      </trkpt>
      <trkpt lat="46.18005" lon="4.54752">
        <ele>389.6</ele>
        <time>2020-10-17T10:16:03Z</time>
      </trkpt>
      <trkpt lat="46.18005" lon="4.54747">
        <ele>389.6</ele>
        <time>2020-10-17T10:16:04Z</time>
      </trkpt>
      <trkpt lat="46.18005" lon="4.54747">
        <ele>389.8</ele>
        <time>2020-10-17T10:16:05Z</time>
      </trkpt>
      <trkpt lat="46.18004" lon="4.54742">
        <ele>390</ele>
        <time>2020-10-17T10:16:06Z</time>
      </trkpt>
      <trkpt lat="46.18004" lon="4.54742">
        <ele>390</ele>
        <time>2020-10-17T10:16:07Z</time>
      </trkpt>
      <trkpt lat="46.18004" lon="4.54738">
        <ele>390.2</ele>
        <time>2020-10-17T10:16:08Z</time>
      </trkpt>
      <trkpt lat="46.18004" lon="4.54738">
        <ele>390.4</ele>
        <time>2020-10-17T10:16:09Z</time>
      </trkpt>
      <trkpt lat="46.18003" lon="4.54733">
        <ele>390.6</ele>
        <time>2020-10-17T10:16:10Z</time>
      </trkpt>
      <trkpt lat="46.18003" lon="4.54733">
        <ele>390.8</ele>
        <time>2020-10-17T10:16:11Z</time>
      </trkpt>
      <trkpt lat="46.18002" lon="4.54728">
        <ele>391</ele>
        <time>2020-10-17T10:16:12Z</time>
      </trkpt>
      <trkpt lat="46.18002" lon="4.54725">
        <ele>391.2</ele>
        <time>2020-10-17T10:16:13Z</time>
      </trkpt>
      <trkpt lat="46.18002" lon="4.54725">
        <ele>391.4</ele>
        <time>2020-10-17T10:16:14Z</time>
      </trkpt>
      <trkpt lat="46.18001" lon="4.5472">
        <ele>391.4</ele>
        <time>2020-10-17T10:16:15Z</time>
      </trkpt>
      <trkpt lat="46.18001" lon="4.54718">
        <ele>391.6</ele>
        <time>2020-10-17T10:16:16Z</time>
      </trkpt>
      <trkpt lat="46.18" lon="4.54715">
        <ele>392</ele>
        <time>2020-10-17T10:16:17Z</time>
      </trkpt>
      <trkpt lat="46.17999" lon="4.54713">
        <ele>392.2</ele>
        <time>2020-10-17T10:16:18Z</time>
      </trkpt>
      <trkpt lat="46.17999" lon="4.54713">
        <ele>392.4</ele>
        <time>2020-10-17T10:16:19Z</time>
      </trkpt>
      <trkpt lat="46.17998" lon="4.54708">
        <ele>392.6</ele>
        <time>2020-10-17T10:16:20Z</time>
      </trkpt>
      <trkpt lat="46.17998" lon="4.54708">
        <ele>392.6</ele>
        <time>2020-10-17T10:16:21Z</time>
      </trkpt>
      <trkpt lat="46.17998" lon="4.54704">
        <ele>392.8</ele>
        <time>2020-10-17T10:16:22Z</time>
      </trkpt>
      <trkpt lat="46.17998" lon="4.54704">
        <ele>393</ele>
        <time>2020-10-17T10:16:23Z</time>
      </trkpt>
      <trkpt lat="46.17997" lon="4.547">
        <ele>392.8</ele>
        <time>2020-10-17T10:16:24Z</time>
      </trkpt>
      <trkpt lat="46.17997" lon="4.547">
        <ele>393</ele>
        <time>2020-10-17T10:16:25Z</time>
      </trkpt>
      <trkpt lat="46.17996" lon="4.54696">
        <ele>393.2</ele>
        <time>2020-10-17T10:16:26Z</time>
      </trkpt>
      <trkpt lat="46.17996" lon="4.54696">
        <ele>393.4</ele>
        <time>2020-10-17T10:16:27Z</time>
      </trkpt>
      <trkpt lat="46.17996" lon="4.54691">
        <ele>393.6</ele>
        <time>2020-10-17T10:16:28Z</time>
      </trkpt>
      <trkpt lat="46.17996" lon="4.54691">
        <ele>393.8</ele>
        <time>2020-10-17T10:16:29Z</time>
      </trkpt>
      <trkpt lat="46.17995" lon="4.54686">
        <ele>394</ele>
        <time>2020-10-17T10:16:30Z</time>
      </trkpt>
      <trkpt lat="46.17995" lon="4.54684">
        <ele>394.4</ele>
        <time>2020-10-17T10:16:31Z</time>
      </trkpt>
      <trkpt lat="46.17994" lon="4.54681">
        <ele>394.6</ele>
        <time>2020-10-17T10:16:32Z</time>
      </trkpt>
      <trkpt lat="46.17994" lon="4.54678">
        <ele>394.8</ele>
        <time>2020-10-17T10:16:33Z</time>
      </trkpt>
      <trkpt lat="46.17994" lon="4.54678">
        <ele>395</ele>
        <time>2020-10-17T10:16:34Z</time>
      </trkpt>
      <trkpt lat="46.17993" lon="4.54674">
        <ele>395</ele>
        <time>2020-10-17T10:16:35Z</time>
      </trkpt>
      <trkpt lat="46.17992" lon="4.54671">
        <ele>395.2</ele>
        <time>2020-10-17T10:16:36Z</time>
      </trkpt>
      <trkpt lat="46.17992" lon="4.54669">
        <ele>395.4</ele>
        <time>2020-10-17T10:16:37Z</time>
      </trkpt>
      <trkpt lat="46.17992" lon="4.54666">
        <ele>395.4</ele>
        <time>2020-10-17T10:16:38Z</time>
      </trkpt>
      <trkpt lat="46.17992" lon="4.54666">
        <ele>395.6</ele>
        <time>2020-10-17T10:16:39Z</time>
      </trkpt>
      <trkpt lat="46.17992" lon="4.54662">
        <ele>396.2</ele>
        <time>2020-10-17T10:16:40Z</time>
      </trkpt>
      <trkpt lat="46.17992" lon="4.54662">
        <ele>396.6</ele>
        <time>2020-10-17T10:16:41Z</time>
      </trkpt>
      <trkpt lat="46.17993" lon="4.54656">
        <ele>396.8</ele>
        <time>2020-10-17T10:16:42Z</time>
      </trkpt>
      <trkpt lat="46.17993" lon="4.54653">
        <ele>397</ele>
        <time>2020-10-17T10:16:43Z</time>
      </trkpt>
      <trkpt lat="46.17993" lon="4.54653">
        <ele>396.8</ele>
        <time>2020-10-17T10:16:44Z</time>
      </trkpt>
      <trkpt lat="46.17993" lon="4.54649">
        <ele>397.8</ele>
        <time>2020-10-17T10:16:45Z</time>
      </trkpt>
      <trkpt lat="46.17993" lon="4.54649">
        <ele>398.4</ele>
        <time>2020-10-17T10:16:46Z</time>
      </trkpt>
      <trkpt lat="46.17994" lon="4.54645">
        <ele>398.6</ele>
        <time>2020-10-17T10:16:47Z</time>
      </trkpt>
      <trkpt lat="46.17994" lon="4.54645">
        <ele>398.6</ele>
        <time>2020-10-17T10:16:48Z</time>
      </trkpt>
      <trkpt lat="46.17995" lon="4.5464">
        <ele>398.8</ele>
        <time>2020-10-17T10:16:49Z</time>
      </trkpt>
      <trkpt lat="46.17995" lon="4.5464">
        <ele>399</ele>
        <time>2020-10-17T10:16:50Z</time>
      </trkpt>
      <trkpt lat="46.17996" lon="4.54636">
        <ele>399</ele>
        <time>2020-10-17T10:16:51Z</time>
      </trkpt>
      <trkpt lat="46.17996" lon="4.54636">
        <ele>399.2</ele>
        <time>2020-10-17T10:16:52Z</time>
      </trkpt>
      <trkpt lat="46.17997" lon="4.54632">
        <ele>399.6</ele>
        <time>2020-10-17T10:16:53Z</time>
      </trkpt>
      <trkpt lat="46.17997" lon="4.54632">
        <ele>399.8</ele>
        <time>2020-10-17T10:16:54Z</time>
      </trkpt>
      <trkpt lat="46.17999" lon="4.54629">
        <ele>400</ele>
        <time>2020-10-17T10:16:55Z</time>
      </trkpt>
      <trkpt lat="46.17999" lon="4.54629">
        <ele>400.6</ele>
        <time>2020-10-17T10:16:56Z</time>
      </trkpt>
      <trkpt lat="46.18" lon="4.54625">
        <ele>400.6</ele>
        <time>2020-10-17T10:16:57Z</time>
      </trkpt>
      <trkpt lat="46.18" lon="4.54625">
        <ele>400.8</ele>
        <time>2020-10-17T10:16:58Z</time>
      </trkpt>
      <trkpt lat="46.18002" lon="4.54621">
        <ele>400.8</ele>
        <time>2020-10-17T10:16:59Z</time>
      </trkpt>
      <trkpt lat="46.18002" lon="4.54621">
        <ele>401</ele>
        <time>2020-10-17T10:17:00Z</time>
      </trkpt>
      <trkpt lat="46.18004" lon="4.54617">
        <ele>401.4</ele>
        <time>2020-10-17T10:17:01Z</time>
      </trkpt>
      <trkpt lat="46.18005" lon="4.54615">
        <ele>401.4</ele>
        <time>2020-10-17T10:17:02Z</time>
      </trkpt>
      <trkpt lat="46.18005" lon="4.54615">
        <ele>401.4</ele>
        <time>2020-10-17T10:17:03Z</time>
      </trkpt>
      <trkpt lat="46.18007" lon="4.54611">
        <ele>401.6</ele>
        <time>2020-10-17T10:17:04Z</time>
      </trkpt>
      <trkpt lat="46.18007" lon="4.54611">
        <ele>401.8</ele>
        <time>2020-10-17T10:17:05Z</time>
      </trkpt>
      <trkpt lat="46.18009" lon="4.54607">
        <ele>402</ele>
        <time>2020-10-17T10:17:06Z</time>
      </trkpt>
      <trkpt lat="46.18009" lon="4.54607">
        <ele>402</ele>
        <time>2020-10-17T10:17:07Z</time>
      </trkpt>
      <trkpt lat="46.18012" lon="4.54603">
        <ele>402.2</ele>
        <time>2020-10-17T10:17:08Z</time>
      </trkpt>
      <trkpt lat="46.18012" lon="4.54603">
        <ele>402.2</ele>
        <time>2020-10-17T10:17:09Z</time>
      </trkpt>
      <trkpt lat="46.18014" lon="4.546">
        <ele>402.4</ele>
        <time>2020-10-17T10:17:10Z</time>
      </trkpt>
      <trkpt lat="46.18014" lon="4.546">
        <ele>402.6</ele>
        <time>2020-10-17T10:17:11Z</time>
      </trkpt>
      <trkpt lat="46.18016" lon="4.54595">
        <ele>402.8</ele>
        <time>2020-10-17T10:17:12Z</time>
      </trkpt>
      <trkpt lat="46.18016" lon="4.54595">
        <ele>402.8</ele>
        <time>2020-10-17T10:17:13Z</time>
      </trkpt>
      <trkpt lat="46.18018" lon="4.54591">
        <ele>403</ele>
        <time>2020-10-17T10:17:14Z</time>
      </trkpt>
      <trkpt lat="46.18019" lon="4.54589">
        <ele>403</ele>
        <time>2020-10-17T10:17:15Z</time>
      </trkpt>
      <trkpt lat="46.1802" lon="4.54587">
        <ele>403.2</ele>
        <time>2020-10-17T10:17:16Z</time>
      </trkpt>
      <trkpt lat="46.18021" lon="4.54584">
        <ele>403.6</ele>
        <time>2020-10-17T10:17:17Z</time>
      </trkpt>
      <trkpt lat="46.18021" lon="4.54584">
        <ele>403.6</ele>
        <time>2020-10-17T10:17:18Z</time>
      </trkpt>
      <trkpt lat="46.18023" lon="4.5458">
        <ele>403.6</ele>
        <time>2020-10-17T10:17:19Z</time>
      </trkpt>
      <trkpt lat="46.18023" lon="4.5458">
        <ele>403.8</ele>
        <time>2020-10-17T10:17:20Z</time>
      </trkpt>
      <trkpt lat="46.18025" lon="4.54577">
        <ele>403.8</ele>
        <time>2020-10-17T10:17:21Z</time>
      </trkpt>
      <trkpt lat="46.18025" lon="4.54577">
        <ele>404</ele>
        <time>2020-10-17T10:17:22Z</time>
      </trkpt>
      <trkpt lat="46.18026" lon="4.54573">
        <ele>404.2</ele>
        <time>2020-10-17T10:17:23Z</time>
      </trkpt>
      <trkpt lat="46.18026" lon="4.54573">
        <ele>404.4</ele>
        <time>2020-10-17T10:17:24Z</time>
      </trkpt>
      <trkpt lat="46.18028" lon="4.54569">
        <ele>404.4</ele>
        <time>2020-10-17T10:17:25Z</time>
      </trkpt>
      <trkpt lat="46.18028" lon="4.54569">
        <ele>404.4</ele>
        <time>2020-10-17T10:17:26Z</time>
      </trkpt>
      <trkpt lat="46.1803" lon="4.54565">
        <ele>404.6</ele>
        <time>2020-10-17T10:17:27Z</time>
      </trkpt>
      <trkpt lat="46.18031" lon="4.54563">
        <ele>404.6</ele>
        <time>2020-10-17T10:17:28Z</time>
      </trkpt>
      <trkpt lat="46.18031" lon="4.54563">
        <ele>404.8</ele>
        <time>2020-10-17T10:17:29Z</time>
      </trkpt>
      <trkpt lat="46.18033" lon="4.54558">
        <ele>405</ele>
        <time>2020-10-17T10:17:30Z</time>
      </trkpt>
      <trkpt lat="46.18033" lon="4.54558">
        <ele>405</ele>
        <time>2020-10-17T10:17:31Z</time>
      </trkpt>
      <trkpt lat="46.18035" lon="4.54554">
        <ele>405</ele>
        <time>2020-10-17T10:17:32Z</time>
      </trkpt>
      <trkpt lat="46.18035" lon="4.54554">
        <ele>405.2</ele>
        <time>2020-10-17T10:17:33Z</time>
      </trkpt>
      <trkpt lat="46.18036" lon="4.54549">
        <ele>405.4</ele>
        <time>2020-10-17T10:17:34Z</time>
      </trkpt>
      <trkpt lat="46.18036" lon="4.54549">
        <ele>405.4</ele>
        <time>2020-10-17T10:17:35Z</time>
      </trkpt>
      <trkpt lat="46.18038" lon="4.54545">
        <ele>405.4</ele>
        <time>2020-10-17T10:17:36Z</time>
      </trkpt>
      <trkpt lat="46.18038" lon="4.54545">
        <ele>405.6</ele>
        <time>2020-10-17T10:17:37Z</time>
      </trkpt>
      <trkpt lat="46.18039" lon="4.5454">
        <ele>406</ele>
        <time>2020-10-17T10:17:38Z</time>
      </trkpt>
      <trkpt lat="46.18039" lon="4.5454">
        <ele>406.2</ele>
        <time>2020-10-17T10:17:39Z</time>
      </trkpt>
      <trkpt lat="46.1804" lon="4.54536">
        <ele>406.4</ele>
        <time>2020-10-17T10:17:40Z</time>
      </trkpt>
      <trkpt lat="46.18041" lon="4.54534">
        <ele>406.4</ele>
        <time>2020-10-17T10:17:41Z</time>
      </trkpt>
      <trkpt lat="46.18041" lon="4.54534">
        <ele>406.6</ele>
        <time>2020-10-17T10:17:42Z</time>
      </trkpt>
      <trkpt lat="46.18043" lon="4.54529">
        <ele>407</ele>
        <time>2020-10-17T10:17:43Z</time>
      </trkpt>
      <trkpt lat="46.18043" lon="4.54529">
        <ele>407.2</ele>
        <time>2020-10-17T10:17:44Z</time>
      </trkpt>
      <trkpt lat="46.18044" lon="4.54525">
        <ele>407.2</ele>
        <time>2020-10-17T10:17:45Z</time>
      </trkpt>
      <trkpt lat="46.18045" lon="4.54523">
        <ele>407</ele>
        <time>2020-10-17T10:17:46Z</time>
      </trkpt>
      <trkpt lat="46.18045" lon="4.54523">
        <ele>407</ele>
        <time>2020-10-17T10:17:47Z</time>
      </trkpt>
      <trkpt lat="46.18047" lon="4.54518">
        <ele>407</ele>
        <time>2020-10-17T10:17:48Z</time>
      </trkpt>
      <trkpt lat="46.18047" lon="4.54518">
        <ele>407.2</ele>
        <time>2020-10-17T10:17:49Z</time>
      </trkpt>
      <trkpt lat="46.18048" lon="4.54514">
        <ele>407.4</ele>
        <time>2020-10-17T10:17:50Z</time>
      </trkpt>
      <trkpt lat="46.18048" lon="4.54514">
        <ele>407.4</ele>
        <time>2020-10-17T10:17:51Z</time>
      </trkpt>
      <trkpt lat="46.1805" lon="4.5451">
        <ele>407.6</ele>
        <time>2020-10-17T10:17:52Z</time>
      </trkpt>
      <trkpt lat="46.1805" lon="4.5451">
        <ele>407.8</ele>
        <time>2020-10-17T10:17:53Z</time>
      </trkpt>
      <trkpt lat="46.18052" lon="4.54506">
        <ele>408</ele>
        <time>2020-10-17T10:17:54Z</time>
      </trkpt>
      <trkpt lat="46.18052" lon="4.54506">
        <ele>408</ele>
        <time>2020-10-17T10:17:55Z</time>
      </trkpt>
      <trkpt lat="46.18053" lon="4.54501">
        <ele>408.2</ele>
        <time>2020-10-17T10:17:56Z</time>
      </trkpt>
      <trkpt lat="46.18053" lon="4.54501">
        <ele>408.2</ele>
        <time>2020-10-17T10:17:57Z</time>
      </trkpt>
      <trkpt lat="46.18055" lon="4.54498">
        <ele>408.4</ele>
        <time>2020-10-17T10:17:58Z</time>
      </trkpt>
      <trkpt lat="46.18055" lon="4.54498">
        <ele>408.6</ele>
        <time>2020-10-17T10:17:59Z</time>
      </trkpt>
      <trkpt lat="46.18056" lon="4.54493">
        <ele>408.8</ele>
        <time>2020-10-17T10:18:00Z</time>
      </trkpt>
      <trkpt lat="46.18056" lon="4.54493">
        <ele>408.8</ele>
        <time>2020-10-17T10:18:01Z</time>
      </trkpt>
      <trkpt lat="46.18058" lon="4.5449">
        <ele>409</ele>
        <time>2020-10-17T10:18:02Z</time>
      </trkpt>
      <trkpt lat="46.18058" lon="4.5449">
        <ele>409.2</ele>
        <time>2020-10-17T10:18:03Z</time>
      </trkpt>
      <trkpt lat="46.18059" lon="4.54486">
        <ele>409.2</ele>
        <time>2020-10-17T10:18:04Z</time>
      </trkpt>
      <trkpt lat="46.18059" lon="4.54486">
        <ele>409.2</ele>
        <time>2020-10-17T10:18:05Z</time>
      </trkpt>
      <trkpt lat="46.1806" lon="4.54481">
        <ele>409.4</ele>
        <time>2020-10-17T10:18:06Z</time>
      </trkpt>
      <trkpt lat="46.1806" lon="4.54481">
        <ele>409.4</ele>
        <time>2020-10-17T10:18:07Z</time>
      </trkpt>
      <trkpt lat="46.18062" lon="4.54477">
        <ele>409.4</ele>
        <time>2020-10-17T10:18:08Z</time>
      </trkpt>
      <trkpt lat="46.18062" lon="4.54477">
        <ele>409.4</ele>
        <time>2020-10-17T10:18:09Z</time>
      </trkpt>
      <trkpt lat="46.18063" lon="4.54473">
        <ele>409.6</ele>
        <time>2020-10-17T10:18:10Z</time>
      </trkpt>
      <trkpt lat="46.18063" lon="4.54473">
        <ele>409.6</ele>
        <time>2020-10-17T10:18:11Z</time>
      </trkpt>
      <trkpt lat="46.18064" lon="4.54468">
        <ele>409.8</ele>
        <time>2020-10-17T10:18:12Z</time>
      </trkpt>
      <trkpt lat="46.18064" lon="4.54468">
        <ele>409.8</ele>
        <time>2020-10-17T10:18:13Z</time>
      </trkpt>
      <trkpt lat="46.18065" lon="4.54464">
        <ele>409.8</ele>
        <time>2020-10-17T10:18:14Z</time>
      </trkpt>
      <trkpt lat="46.18065" lon="4.54464">
        <ele>410</ele>
        <time>2020-10-17T10:18:15Z</time>
      </trkpt>
      <trkpt lat="46.18066" lon="4.5446">
        <ele>410</ele>
        <time>2020-10-17T10:18:16Z</time>
      </trkpt>
      <trkpt lat="46.18066" lon="4.5446">
        <ele>410</ele>
        <time>2020-10-17T10:18:17Z</time>
      </trkpt>
      <trkpt lat="46.18068" lon="4.54456">
        <ele>410.4</ele>
        <time>2020-10-17T10:18:18Z</time>
      </trkpt>
      <trkpt lat="46.18068" lon="4.54456">
        <ele>410.4</ele>
        <time>2020-10-17T10:18:19Z</time>
      </trkpt>
      <trkpt lat="46.18069" lon="4.54452">
        <ele>410.6</ele>
        <time>2020-10-17T10:18:20Z</time>
      </trkpt>
      <trkpt lat="46.18069" lon="4.54452">
        <ele>410.6</ele>
        <time>2020-10-17T10:18:21Z</time>
      </trkpt>
      <trkpt lat="46.18071" lon="4.54447">
        <ele>410.8</ele>
        <time>2020-10-17T10:18:22Z</time>
      </trkpt>
      <trkpt lat="46.18071" lon="4.54447">
        <ele>410.8</ele>
        <time>2020-10-17T10:18:23Z</time>
      </trkpt>
      <trkpt lat="46.18073" lon="4.54443">
        <ele>411.6</ele>
        <time>2020-10-17T10:18:24Z</time>
      </trkpt>
      <trkpt lat="46.18073" lon="4.54443">
        <ele>411.6</ele>
        <time>2020-10-17T10:18:25Z</time>
      </trkpt>
      <trkpt lat="46.18074" lon="4.54438">
        <ele>411.4</ele>
        <time>2020-10-17T10:18:26Z</time>
      </trkpt>
      <trkpt lat="46.18074" lon="4.54438">
        <ele>411.4</ele>
        <time>2020-10-17T10:18:27Z</time>
      </trkpt>
      <trkpt lat="46.18076" lon="4.54434">
        <ele>411.4</ele>
        <time>2020-10-17T10:18:28Z</time>
      </trkpt>
      <trkpt lat="46.18076" lon="4.54434">
        <ele>411.6</ele>
        <time>2020-10-17T10:18:29Z</time>
      </trkpt>
      <trkpt lat="46.18077" lon="4.54429">
        <ele>411.6</ele>
        <time>2020-10-17T10:18:30Z</time>
      </trkpt>
      <trkpt lat="46.18077" lon="4.54429">
        <ele>411.8</ele>
        <time>2020-10-17T10:18:31Z</time>
      </trkpt>
      <trkpt lat="46.18077" lon="4.54429">
        <ele>411.8</ele>
        <time>2020-10-17T10:18:32Z</time>
      </trkpt>
      <trkpt lat="46.18077" lon="4.54429">
        <ele>412</ele>
        <time>2020-10-17T10:18:33Z</time>
      </trkpt>
      <trkpt lat="46.18077" lon="4.54429">
        <ele>412</ele>
        <time>2020-10-17T10:18:34Z</time>
      </trkpt>
      <trkpt lat="46.18078" lon="4.54425">
        <ele>412.2</ele>
        <time>2020-10-17T10:18:35Z</time>
      </trkpt>
      <trkpt lat="46.18078" lon="4.54423">
        <ele>412.4</ele>
        <time>2020-10-17T10:18:36Z</time>
      </trkpt>
      <trkpt lat="46.18078" lon="4.54423">
        <ele>412.6</ele>
        <time>2020-10-17T10:18:37Z</time>
      </trkpt>
      <trkpt lat="46.18079" lon="4.54418">
        <ele>412.6</ele>
        <time>2020-10-17T10:18:38Z</time>
      </trkpt>
      <trkpt lat="46.18079" lon="4.54415">
        <ele>412.8</ele>
        <time>2020-10-17T10:18:39Z</time>
      </trkpt>
      <trkpt lat="46.18079" lon="4.54415">
        <ele>413</ele>
        <time>2020-10-17T10:18:40Z</time>
      </trkpt>
      <trkpt lat="46.1808" lon="4.5441">
        <ele>413.2</ele>
        <time>2020-10-17T10:18:41Z</time>
      </trkpt>
      <trkpt lat="46.18081" lon="4.54408">
        <ele>413.2</ele>
        <time>2020-10-17T10:18:42Z</time>
      </trkpt>
      <trkpt lat="46.18081" lon="4.54408">
        <ele>413.4</ele>
        <time>2020-10-17T10:18:43Z</time>
      </trkpt>
      <trkpt lat="46.18082" lon="4.54402">
        <ele>413.6</ele>
        <time>2020-10-17T10:18:44Z</time>
      </trkpt>
      <trkpt lat="46.18082" lon="4.544">
        <ele>413.8</ele>
        <time>2020-10-17T10:18:45Z</time>
      </trkpt>
      <trkpt lat="46.18082" lon="4.544">
        <ele>414</ele>
        <time>2020-10-17T10:18:46Z</time>
      </trkpt>
      <trkpt lat="46.18083" lon="4.54395">
        <ele>414.4</ele>
        <time>2020-10-17T10:18:47Z</time>
      </trkpt>
      <trkpt lat="46.18083" lon="4.54395">
        <ele>414.4</ele>
        <time>2020-10-17T10:18:48Z</time>
      </trkpt>
      <trkpt lat="46.18084" lon="4.54391">
        <ele>414.4</ele>
        <time>2020-10-17T10:18:49Z</time>
      </trkpt>
      <trkpt lat="46.18084" lon="4.54391">
        <ele>414.6</ele>
        <time>2020-10-17T10:18:50Z</time>
      </trkpt>
      <trkpt lat="46.18084" lon="4.54386">
        <ele>414.6</ele>
        <time>2020-10-17T10:18:51Z</time>
      </trkpt>
      <trkpt lat="46.18084" lon="4.54386">
        <ele>414.8</ele>
        <time>2020-10-17T10:18:52Z</time>
      </trkpt>
      <trkpt lat="46.18085" lon="4.54381">
        <ele>414.6</ele>
        <time>2020-10-17T10:18:53Z</time>
      </trkpt>
      <trkpt lat="46.18085" lon="4.54381">
        <ele>414.8</ele>
        <time>2020-10-17T10:18:54Z</time>
      </trkpt>
      <trkpt lat="46.18086" lon="4.54377">
        <ele>414.6</ele>
        <time>2020-10-17T10:18:55Z</time>
      </trkpt>
      <trkpt lat="46.18086" lon="4.54377">
        <ele>414.6</ele>
        <time>2020-10-17T10:18:56Z</time>
      </trkpt>
      <trkpt lat="46.18086" lon="4.54372">
        <ele>414.8</ele>
        <time>2020-10-17T10:18:57Z</time>
      </trkpt>
      <trkpt lat="46.18087" lon="4.5437">
        <ele>415</ele>
        <time>2020-10-17T10:18:58Z</time>
      </trkpt>
      <trkpt lat="46.18087" lon="4.5437">
        <ele>415.2</ele>
        <time>2020-10-17T10:18:59Z</time>
      </trkpt>
      <trkpt lat="46.18087" lon="4.54365">
        <ele>415.4</ele>
        <time>2020-10-17T10:19:00Z</time>
      </trkpt>
      <trkpt lat="46.18088" lon="4.54362">
        <ele>415.4</ele>
        <time>2020-10-17T10:19:01Z</time>
      </trkpt>
      <trkpt lat="46.18088" lon="4.54362">
        <ele>415.6</ele>
        <time>2020-10-17T10:19:02Z</time>
      </trkpt>
      <trkpt lat="46.18088" lon="4.54357">
        <ele>415.8</ele>
        <time>2020-10-17T10:19:03Z</time>
      </trkpt>
      <trkpt lat="46.18088" lon="4.54357">
        <ele>415.8</ele>
        <time>2020-10-17T10:19:04Z</time>
      </trkpt>
      <trkpt lat="46.18089" lon="4.54352">
        <ele>416</ele>
        <time>2020-10-17T10:19:05Z</time>
      </trkpt>
      <trkpt lat="46.18089" lon="4.54352">
        <ele>416.2</ele>
        <time>2020-10-17T10:19:06Z</time>
      </trkpt>
      <trkpt lat="46.18089" lon="4.54347">
        <ele>416</ele>
        <time>2020-10-17T10:19:07Z</time>
      </trkpt>
      <trkpt lat="46.18089" lon="4.54347">
        <ele>416.2</ele>
        <time>2020-10-17T10:19:08Z</time>
      </trkpt>
      <trkpt lat="46.1809" lon="4.54342">
        <ele>416.2</ele>
        <time>2020-10-17T10:19:09Z</time>
      </trkpt>
      <trkpt lat="46.1809" lon="4.54342">
        <ele>416.6</ele>
        <time>2020-10-17T10:19:10Z</time>
      </trkpt>
      <trkpt lat="46.18091" lon="4.54338">
        <ele>416.6</ele>
        <time>2020-10-17T10:19:11Z</time>
      </trkpt>
      <trkpt lat="46.18091" lon="4.54338">
        <ele>417</ele>
        <time>2020-10-17T10:19:12Z</time>
      </trkpt>
      <trkpt lat="46.18091" lon="4.54334">
        <ele>416.8</ele>
        <time>2020-10-17T10:19:13Z</time>
      </trkpt>
      <trkpt lat="46.18091" lon="4.54334">
        <ele>417</ele>
        <time>2020-10-17T10:19:14Z</time>
      </trkpt>
      <trkpt lat="46.18091" lon="4.5433">
        <ele>417.2</ele>
        <time>2020-10-17T10:19:15Z</time>
      </trkpt>
      <trkpt lat="46.18091" lon="4.5433">
        <ele>417.4</ele>
        <time>2020-10-17T10:19:16Z</time>
      </trkpt>
      <trkpt lat="46.18092" lon="4.54326">
        <ele>417.6</ele>
        <time>2020-10-17T10:19:17Z</time>
      </trkpt>
      <trkpt lat="46.18092" lon="4.54324">
        <ele>417.8</ele>
        <time>2020-10-17T10:19:18Z</time>
      </trkpt>
      <trkpt lat="46.18093" lon="4.54321">
        <ele>418</ele>
        <time>2020-10-17T10:19:19Z</time>
      </trkpt>
      <trkpt lat="46.18093" lon="4.54321">
        <ele>418.4</ele>
        <time>2020-10-17T10:19:20Z</time>
      </trkpt>
      <trkpt lat="46.18093" lon="4.54316">
        <ele>418.8</ele>
        <time>2020-10-17T10:19:21Z</time>
      </trkpt>
      <trkpt lat="46.18094" lon="4.54313">
        <ele>418.6</ele>
        <time>2020-10-17T10:19:22Z</time>
      </trkpt>
      <trkpt lat="46.18094" lon="4.54313">
        <ele>418.6</ele>
        <time>2020-10-17T10:19:23Z</time>
      </trkpt>
      <trkpt lat="46.18094" lon="4.54308">
        <ele>418.6</ele>
        <time>2020-10-17T10:19:24Z</time>
      </trkpt>
      <trkpt lat="46.18094" lon="4.54308">
        <ele>418.6</ele>
        <time>2020-10-17T10:19:25Z</time>
      </trkpt>
      <trkpt lat="46.18094" lon="4.54304">
        <ele>418.6</ele>
        <time>2020-10-17T10:19:26Z</time>
      </trkpt>
      <trkpt lat="46.18095" lon="4.54301">
        <ele>418.6</ele>
        <time>2020-10-17T10:19:27Z</time>
      </trkpt>
      <trkpt lat="46.18095" lon="4.54301">
        <ele>418.8</ele>
        <time>2020-10-17T10:19:28Z</time>
      </trkpt>
      <trkpt lat="46.18095" lon="4.54297">
        <ele>418.8</ele>
        <time>2020-10-17T10:19:29Z</time>
      </trkpt>
      <trkpt lat="46.18095" lon="4.54297">
        <ele>419.2</ele>
        <time>2020-10-17T10:19:30Z</time>
      </trkpt>
      <trkpt lat="46.18095" lon="4.54293">
        <ele>419.2</ele>
        <time>2020-10-17T10:19:31Z</time>
      </trkpt>
      <trkpt lat="46.18095" lon="4.54293">
        <ele>419.2</ele>
        <time>2020-10-17T10:19:32Z</time>
      </trkpt>
      <trkpt lat="46.18095" lon="4.54288">
        <ele>419.4</ele>
        <time>2020-10-17T10:19:33Z</time>
      </trkpt>
      <trkpt lat="46.18095" lon="4.54288">
        <ele>419.4</ele>
        <time>2020-10-17T10:19:34Z</time>
      </trkpt>
      <trkpt lat="46.18095" lon="4.54284">
        <ele>419.6</ele>
        <time>2020-10-17T10:19:35Z</time>
      </trkpt>
      <trkpt lat="46.18095" lon="4.54284">
        <ele>420</ele>
        <time>2020-10-17T10:19:36Z</time>
      </trkpt>
      <trkpt lat="46.18095" lon="4.5428">
        <ele>420.2</ele>
        <time>2020-10-17T10:19:37Z</time>
      </trkpt>
      <trkpt lat="46.18095" lon="4.5428">
        <ele>420.2</ele>
        <time>2020-10-17T10:19:38Z</time>
      </trkpt>
      <trkpt lat="46.18095" lon="4.54276">
        <ele>420.2</ele>
        <time>2020-10-17T10:19:39Z</time>
      </trkpt>
      <trkpt lat="46.18095" lon="4.54276">
        <ele>420.4</ele>
        <time>2020-10-17T10:19:40Z</time>
      </trkpt>
      <trkpt lat="46.18095" lon="4.54271">
        <ele>420.4</ele>
        <time>2020-10-17T10:19:41Z</time>
      </trkpt>
      <trkpt lat="46.18095" lon="4.54271">
        <ele>420.6</ele>
        <time>2020-10-17T10:19:42Z</time>
      </trkpt>
      <trkpt lat="46.18095" lon="4.54267">
        <ele>420.8</ele>
        <time>2020-10-17T10:19:43Z</time>
      </trkpt>
      <trkpt lat="46.18095" lon="4.54267">
        <ele>421</ele>
        <time>2020-10-17T10:19:44Z</time>
      </trkpt>
      <trkpt lat="46.18095" lon="4.54262">
        <ele>421</ele>
        <time>2020-10-17T10:19:45Z</time>
      </trkpt>
      <trkpt lat="46.18095" lon="4.54262">
        <ele>421.2</ele>
        <time>2020-10-17T10:19:46Z</time>
      </trkpt>
      <trkpt lat="46.18095" lon="4.54258">
        <ele>421.4</ele>
        <time>2020-10-17T10:19:47Z</time>
      </trkpt>
      <trkpt lat="46.18095" lon="4.54258">
        <ele>421.8</ele>
        <time>2020-10-17T10:19:48Z</time>
      </trkpt>
      <trkpt lat="46.18094" lon="4.54253">
        <ele>422</ele>
        <time>2020-10-17T10:19:49Z</time>
      </trkpt>
      <trkpt lat="46.18094" lon="4.54253">
        <ele>422.2</ele>
        <time>2020-10-17T10:19:50Z</time>
      </trkpt>
      <trkpt lat="46.18093" lon="4.54248">
        <ele>422.6</ele>
        <time>2020-10-17T10:19:51Z</time>
      </trkpt>
      <trkpt lat="46.18093" lon="4.54248">
        <ele>422.6</ele>
        <time>2020-10-17T10:19:52Z</time>
      </trkpt>
      <trkpt lat="46.18093" lon="4.54243">
        <ele>422.8</ele>
        <time>2020-10-17T10:19:53Z</time>
      </trkpt>
      <trkpt lat="46.18093" lon="4.54243">
        <ele>423</ele>
        <time>2020-10-17T10:19:54Z</time>
      </trkpt>
      <trkpt lat="46.18092" lon="4.54239">
        <ele>423.4</ele>
        <time>2020-10-17T10:19:55Z</time>
      </trkpt>
      <trkpt lat="46.18092" lon="4.54239">
        <ele>423.4</ele>
        <time>2020-10-17T10:19:56Z</time>
      </trkpt>
      <trkpt lat="46.18091" lon="4.54235">
        <ele>423.4</ele>
        <time>2020-10-17T10:19:57Z</time>
      </trkpt>
      <trkpt lat="46.18091" lon="4.54235">
        <ele>423.6</ele>
        <time>2020-10-17T10:19:58Z</time>
      </trkpt>
      <trkpt lat="46.18091" lon="4.54231">
        <ele>423.8</ele>
        <time>2020-10-17T10:19:59Z</time>
      </trkpt>
      <trkpt lat="46.18091" lon="4.54228">
        <ele>424</ele>
        <time>2020-10-17T10:20:00Z</time>
      </trkpt>
      <trkpt lat="46.18091" lon="4.54228">
        <ele>424.2</ele>
        <time>2020-10-17T10:20:01Z</time>
      </trkpt>
      <trkpt lat="46.18092" lon="4.54224">
        <ele>424.4</ele>
        <time>2020-10-17T10:20:02Z</time>
      </trkpt>
      <trkpt lat="46.18092" lon="4.54224">
        <ele>424.6</ele>
        <time>2020-10-17T10:20:03Z</time>
      </trkpt>
      <trkpt lat="46.18091" lon="4.54221">
        <ele>425</ele>
        <time>2020-10-17T10:20:04Z</time>
      </trkpt>
      <trkpt lat="46.18091" lon="4.54221">
        <ele>425.2</ele>
        <time>2020-10-17T10:20:05Z</time>
      </trkpt>
      <trkpt lat="46.18089" lon="4.54218">
        <ele>425.4</ele>
        <time>2020-10-17T10:20:06Z</time>
      </trkpt>
      <trkpt lat="46.18089" lon="4.54218">
        <ele>425.6</ele>
        <time>2020-10-17T10:20:07Z</time>
      </trkpt>
      <trkpt lat="46.18087" lon="4.54214">
        <ele>425.8</ele>
        <time>2020-10-17T10:20:08Z</time>
      </trkpt>
      <trkpt lat="46.18087" lon="4.54214">
        <ele>425.8</ele>
        <time>2020-10-17T10:20:09Z</time>
      </trkpt>
      <trkpt lat="46.18085" lon="4.5421">
        <ele>425.8</ele>
        <time>2020-10-17T10:20:10Z</time>
      </trkpt>
      <trkpt lat="46.18085" lon="4.5421">
        <ele>426</ele>
        <time>2020-10-17T10:20:11Z</time>
      </trkpt>
      <trkpt lat="46.18084" lon="4.54206">
        <ele>426</ele>
        <time>2020-10-17T10:20:12Z</time>
      </trkpt>
      <trkpt lat="46.18084" lon="4.54206">
        <ele>425.8</ele>
        <time>2020-10-17T10:20:13Z</time>
      </trkpt>
      <trkpt lat="46.18085" lon="4.54202">
        <ele>426</ele>
        <time>2020-10-17T10:20:14Z</time>
      </trkpt>
      <trkpt lat="46.18085" lon="4.54202">
        <ele>425.8</ele>
        <time>2020-10-17T10:20:15Z</time>
      </trkpt>
      <trkpt lat="46.18087" lon="4.54198">
        <ele>426.2</ele>
        <time>2020-10-17T10:20:16Z</time>
      </trkpt>
      <trkpt lat="46.18087" lon="4.54198">
        <ele>426.4</ele>
        <time>2020-10-17T10:20:17Z</time>
      </trkpt>
      <trkpt lat="46.18089" lon="4.54195">
        <ele>426.6</ele>
        <time>2020-10-17T10:20:18Z</time>
      </trkpt>
      <trkpt lat="46.18089" lon="4.54195">
        <ele>426.6</ele>
        <time>2020-10-17T10:20:19Z</time>
      </trkpt>
      <trkpt lat="46.18092" lon="4.54194">
        <ele>426.8</ele>
        <time>2020-10-17T10:20:20Z</time>
      </trkpt>
      <trkpt lat="46.18092" lon="4.54194">
        <ele>426.8</ele>
        <time>2020-10-17T10:20:21Z</time>
      </trkpt>
      <trkpt lat="46.18094" lon="4.54191">
        <ele>427</ele>
        <time>2020-10-17T10:20:22Z</time>
      </trkpt>
      <trkpt lat="46.18094" lon="4.54191">
        <ele>427.2</ele>
        <time>2020-10-17T10:20:23Z</time>
      </trkpt>
      <trkpt lat="46.18097" lon="4.5419">
        <ele>427.4</ele>
        <time>2020-10-17T10:20:24Z</time>
      </trkpt>
      <trkpt lat="46.18097" lon="4.5419">
        <ele>427.4</ele>
        <time>2020-10-17T10:20:25Z</time>
      </trkpt>
      <trkpt lat="46.181" lon="4.54192">
        <ele>427.6</ele>
        <time>2020-10-17T10:20:26Z</time>
      </trkpt>
      <trkpt lat="46.181" lon="4.54192">
        <ele>427.8</ele>
        <time>2020-10-17T10:20:27Z</time>
      </trkpt>
      <trkpt lat="46.18103" lon="4.54195">
        <ele>428</ele>
        <time>2020-10-17T10:20:28Z</time>
      </trkpt>
      <trkpt lat="46.18103" lon="4.54195">
        <ele>428</ele>
        <time>2020-10-17T10:20:29Z</time>
      </trkpt>
      <trkpt lat="46.18104" lon="4.54198">
        <ele>428.2</ele>
        <time>2020-10-17T10:20:30Z</time>
      </trkpt>
      <trkpt lat="46.18104" lon="4.54198">
        <ele>428.2</ele>
        <time>2020-10-17T10:20:31Z</time>
      </trkpt>
      <trkpt lat="46.18106" lon="4.542">
        <ele>428.4</ele>
        <time>2020-10-17T10:20:32Z</time>
      </trkpt>
      <trkpt lat="46.18106" lon="4.542">
        <ele>428.6</ele>
        <time>2020-10-17T10:20:33Z</time>
      </trkpt>
      <trkpt lat="46.18108" lon="4.54204">
        <ele>429</ele>
        <time>2020-10-17T10:20:34Z</time>
      </trkpt>
      <trkpt lat="46.18108" lon="4.54204">
        <ele>429.2</ele>
        <time>2020-10-17T10:20:35Z</time>
      </trkpt>
      <trkpt lat="46.1811" lon="4.54207">
        <ele>429.2</ele>
        <time>2020-10-17T10:20:36Z</time>
      </trkpt>
      <trkpt lat="46.1811" lon="4.54207">
        <ele>429.2</ele>
        <time>2020-10-17T10:20:37Z</time>
      </trkpt>
      <trkpt lat="46.18112" lon="4.54211">
        <ele>429.6</ele>
        <time>2020-10-17T10:20:38Z</time>
      </trkpt>
      <trkpt lat="46.18112" lon="4.54211">
        <ele>429.8</ele>
        <time>2020-10-17T10:20:39Z</time>
      </trkpt>
      <trkpt lat="46.18112" lon="4.54215">
        <ele>430</ele>
        <time>2020-10-17T10:20:40Z</time>
      </trkpt>
      <trkpt lat="46.18112" lon="4.54215">
        <ele>430.2</ele>
        <time>2020-10-17T10:20:41Z</time>
      </trkpt>
      <trkpt lat="46.18112" lon="4.54215">
        <ele>430.6</ele>
        <time>2020-10-17T10:20:42Z</time>
      </trkpt>
      <trkpt lat="46.18112" lon="4.54215">
        <ele>431</ele>
        <time>2020-10-17T10:20:43Z</time>
      </trkpt>
      <trkpt lat="46.18112" lon="4.54215">
        <ele>431.4</ele>
        <time>2020-10-17T10:20:44Z</time>
      </trkpt>
      <trkpt lat="46.18112" lon="4.54215">
        <ele>431.8</ele>
        <time>2020-10-17T10:20:45Z</time>
      </trkpt>
      <trkpt lat="46.18112" lon="4.54215">
        <ele>432</ele>
        <time>2020-10-17T10:20:46Z</time>
      </trkpt>
      <trkpt lat="46.18112" lon="4.54215">
        <ele>432.4</ele>
        <time>2020-10-17T10:20:47Z</time>
      </trkpt>
      <trkpt lat="46.18113" lon="4.54217">
        <ele>432.8</ele>
        <time>2020-10-17T10:20:48Z</time>
      </trkpt>
      <trkpt lat="46.18113" lon="4.54217">
        <ele>432.8</ele>
        <time>2020-10-17T10:20:49Z</time>
      </trkpt>
      <trkpt lat="46.18115" lon="4.5422">
        <ele>432.4</ele>
        <time>2020-10-17T10:20:50Z</time>
      </trkpt>
      <trkpt lat="46.18115" lon="4.5422">
        <ele>432.2</ele>
        <time>2020-10-17T10:20:51Z</time>
      </trkpt>
      <trkpt lat="46.18118" lon="4.54223">
        <ele>432.2</ele>
        <time>2020-10-17T10:20:52Z</time>
      </trkpt>
      <trkpt lat="46.18118" lon="4.54223">
        <ele>432</ele>
        <time>2020-10-17T10:20:53Z</time>
      </trkpt>
      <trkpt lat="46.1812" lon="4.54226">
        <ele>432</ele>
        <time>2020-10-17T10:20:54Z</time>
      </trkpt>
      <trkpt lat="46.1812" lon="4.54226">
        <ele>432.2</ele>
        <time>2020-10-17T10:20:55Z</time>
      </trkpt>
      <trkpt lat="46.18122" lon="4.5423">
        <ele>432.2</ele>
        <time>2020-10-17T10:20:56Z</time>
      </trkpt>
      <trkpt lat="46.18122" lon="4.5423">
        <ele>432.2</ele>
        <time>2020-10-17T10:20:57Z</time>
      </trkpt>
      <trkpt lat="46.18124" lon="4.54233">
        <ele>432.2</ele>
        <time>2020-10-17T10:20:58Z</time>
      </trkpt>
      <trkpt lat="46.18124" lon="4.54233">
        <ele>432.4</ele>
        <time>2020-10-17T10:20:59Z</time>
      </trkpt>
      <trkpt lat="46.18126" lon="4.54236">
        <ele>432.4</ele>
        <time>2020-10-17T10:21:00Z</time>
      </trkpt>
      <trkpt lat="46.18126" lon="4.54236">
        <ele>432.6</ele>
        <time>2020-10-17T10:21:01Z</time>
      </trkpt>
      <trkpt lat="46.18128" lon="4.54239">
        <ele>432.6</ele>
        <time>2020-10-17T10:21:02Z</time>
      </trkpt>
      <trkpt lat="46.18128" lon="4.54239">
        <ele>433</ele>
        <time>2020-10-17T10:21:03Z</time>
      </trkpt>
      <trkpt lat="46.18131" lon="4.54243">
        <ele>433</ele>
        <time>2020-10-17T10:21:04Z</time>
      </trkpt>
      <trkpt lat="46.18131" lon="4.54243">
        <ele>433</ele>
        <time>2020-10-17T10:21:05Z</time>
      </trkpt>
      <trkpt lat="46.18133" lon="4.54245">
        <ele>433.2</ele>
        <time>2020-10-17T10:21:06Z</time>
      </trkpt>
      <trkpt lat="46.18133" lon="4.54245">
        <ele>433</ele>
        <time>2020-10-17T10:21:07Z</time>
      </trkpt>
      <trkpt lat="46.18135" lon="4.54249">
        <ele>433</ele>
        <time>2020-10-17T10:21:08Z</time>
      </trkpt>
      <trkpt lat="46.18135" lon="4.54249">
        <ele>433</ele>
        <time>2020-10-17T10:21:09Z</time>
      </trkpt>
      <trkpt lat="46.18137" lon="4.54251">
        <ele>433</ele>
        <time>2020-10-17T10:21:10Z</time>
      </trkpt>
      <trkpt lat="46.18137" lon="4.54251">
        <ele>433.2</ele>
        <time>2020-10-17T10:21:11Z</time>
      </trkpt>
      <trkpt lat="46.1814" lon="4.54254">
        <ele>433.2</ele>
        <time>2020-10-17T10:21:12Z</time>
      </trkpt>
      <trkpt lat="46.1814" lon="4.54254">
        <ele>433.2</ele>
        <time>2020-10-17T10:21:13Z</time>
      </trkpt>
      <trkpt lat="46.18142" lon="4.54257">
        <ele>433.2</ele>
        <time>2020-10-17T10:21:14Z</time>
      </trkpt>
      <trkpt lat="46.18142" lon="4.54257">
        <ele>433.6</ele>
        <time>2020-10-17T10:21:15Z</time>
      </trkpt>
      <trkpt lat="46.18144" lon="4.54259">
        <ele>433.6</ele>
        <time>2020-10-17T10:21:16Z</time>
      </trkpt>
      <trkpt lat="46.18144" lon="4.54259">
        <ele>433.8</ele>
        <time>2020-10-17T10:21:17Z</time>
      </trkpt>
      <trkpt lat="46.18147" lon="4.54262">
        <ele>433.8</ele>
        <time>2020-10-17T10:21:18Z</time>
      </trkpt>
      <trkpt lat="46.18147" lon="4.54262">
        <ele>433.8</ele>
        <time>2020-10-17T10:21:19Z</time>
      </trkpt>
      <trkpt lat="46.18149" lon="4.54263">
        <ele>433.8</ele>
        <time>2020-10-17T10:21:20Z</time>
      </trkpt>
      <trkpt lat="46.18149" lon="4.54263">
        <ele>434</ele>
        <time>2020-10-17T10:21:21Z</time>
      </trkpt>
      <trkpt lat="46.18149" lon="4.54263">
        <ele>434</ele>
        <time>2020-10-17T10:21:22Z</time>
      </trkpt>
      <trkpt lat="46.18151" lon="4.54264">
        <ele>434.4</ele>
        <time>2020-10-17T10:21:23Z</time>
      </trkpt>
      <trkpt lat="46.18151" lon="4.54264">
        <ele>434.4</ele>
        <time>2020-10-17T10:21:24Z</time>
      </trkpt>
      <trkpt lat="46.18153" lon="4.54266">
        <ele>434.4</ele>
        <time>2020-10-17T10:21:25Z</time>
      </trkpt>
      <trkpt lat="46.18153" lon="4.54266">
        <ele>434.6</ele>
        <time>2020-10-17T10:21:26Z</time>
      </trkpt>
      <trkpt lat="46.18156" lon="4.54268">
        <ele>434.6</ele>
        <time>2020-10-17T10:21:27Z</time>
      </trkpt>
      <trkpt lat="46.18156" lon="4.54268">
        <ele>434.4</ele>
        <time>2020-10-17T10:21:28Z</time>
      </trkpt>
      <trkpt lat="46.18159" lon="4.5427">
        <ele>434.2</ele>
        <time>2020-10-17T10:21:29Z</time>
      </trkpt>
      <trkpt lat="46.18159" lon="4.5427">
        <ele>434.2</ele>
        <time>2020-10-17T10:21:30Z</time>
      </trkpt>
      <trkpt lat="46.18162" lon="4.54272">
        <ele>434.4</ele>
        <time>2020-10-17T10:21:31Z</time>
      </trkpt>
      <trkpt lat="46.18162" lon="4.54272">
        <ele>434.4</ele>
        <time>2020-10-17T10:21:32Z</time>
      </trkpt>
      <trkpt lat="46.18164" lon="4.54274">
        <ele>434.4</ele>
        <time>2020-10-17T10:21:33Z</time>
      </trkpt>
      <trkpt lat="46.18164" lon="4.54274">
        <ele>434.6</ele>
        <time>2020-10-17T10:21:34Z</time>
      </trkpt>
      <trkpt lat="46.18167" lon="4.54276">
        <ele>434.6</ele>
        <time>2020-10-17T10:21:35Z</time>
      </trkpt>
      <trkpt lat="46.18167" lon="4.54276">
        <ele>434.8</ele>
        <time>2020-10-17T10:21:36Z</time>
      </trkpt>
      <trkpt lat="46.1817" lon="4.54278">
        <ele>435</ele>
        <time>2020-10-17T10:21:37Z</time>
      </trkpt>
      <trkpt lat="46.1817" lon="4.54278">
        <ele>435.2</ele>
        <time>2020-10-17T10:21:38Z</time>
      </trkpt>
      <trkpt lat="46.18173" lon="4.5428">
        <ele>435.6</ele>
        <time>2020-10-17T10:21:39Z</time>
      </trkpt>
      <trkpt lat="46.18173" lon="4.5428">
        <ele>435.8</ele>
        <time>2020-10-17T10:21:40Z</time>
      </trkpt>
      <trkpt lat="46.18176" lon="4.54282">
        <ele>436.2</ele>
        <time>2020-10-17T10:21:41Z</time>
      </trkpt>
      <trkpt lat="46.18176" lon="4.54282">
        <ele>436.4</ele>
        <time>2020-10-17T10:21:42Z</time>
      </trkpt>
      <trkpt lat="46.18179" lon="4.54283">
        <ele>436.4</ele>
        <time>2020-10-17T10:21:43Z</time>
      </trkpt>
      <trkpt lat="46.18179" lon="4.54283">
        <ele>436.4</ele>
        <time>2020-10-17T10:21:44Z</time>
      </trkpt>
      <trkpt lat="46.18182" lon="4.54285">
        <ele>436.6</ele>
        <time>2020-10-17T10:21:45Z</time>
      </trkpt>
      <trkpt lat="46.18182" lon="4.54285">
        <ele>436.8</ele>
        <time>2020-10-17T10:21:46Z</time>
      </trkpt>
      <trkpt lat="46.18185" lon="4.54286">
        <ele>436.8</ele>
        <time>2020-10-17T10:21:47Z</time>
      </trkpt>
      <trkpt lat="46.18185" lon="4.54286">
        <ele>436.8</ele>
        <time>2020-10-17T10:21:48Z</time>
      </trkpt>
      <trkpt lat="46.18188" lon="4.54288">
        <ele>437</ele>
        <time>2020-10-17T10:21:49Z</time>
      </trkpt>
      <trkpt lat="46.18189" lon="4.54289">
        <ele>437.4</ele>
        <time>2020-10-17T10:21:50Z</time>
      </trkpt>
      <trkpt lat="46.18189" lon="4.54289">
        <ele>437.4</ele>
        <time>2020-10-17T10:21:51Z</time>
      </trkpt>
      <trkpt lat="46.18192" lon="4.5429">
        <ele>437.6</ele>
        <time>2020-10-17T10:21:52Z</time>
      </trkpt>
      <trkpt lat="46.18192" lon="4.5429">
        <ele>437.6</ele>
        <time>2020-10-17T10:21:53Z</time>
      </trkpt>
      <trkpt lat="46.18196" lon="4.54292">
        <ele>437.6</ele>
        <time>2020-10-17T10:21:54Z</time>
      </trkpt>
      <trkpt lat="46.18196" lon="4.54292">
        <ele>437.8</ele>
        <time>2020-10-17T10:21:55Z</time>
      </trkpt>
      <trkpt lat="46.18198" lon="4.54294">
        <ele>437.8</ele>
        <time>2020-10-17T10:21:56Z</time>
      </trkpt>
      <trkpt lat="46.18198" lon="4.54294">
        <ele>438</ele>
        <time>2020-10-17T10:21:57Z</time>
      </trkpt>
      <trkpt lat="46.18202" lon="4.54295">
        <ele>438.4</ele>
        <time>2020-10-17T10:21:58Z</time>
      </trkpt>
      <trkpt lat="46.18203" lon="4.54296">
        <ele>438.6</ele>
        <time>2020-10-17T10:21:59Z</time>
      </trkpt>
      <trkpt lat="46.18203" lon="4.54296">
        <ele>438.4</ele>
        <time>2020-10-17T10:22:00Z</time>
      </trkpt>
      <trkpt lat="46.18207" lon="4.54297">
        <ele>438.4</ele>
        <time>2020-10-17T10:22:01Z</time>
      </trkpt>
      <trkpt lat="46.18207" lon="4.54297">
        <ele>438.4</ele>
        <time>2020-10-17T10:22:02Z</time>
      </trkpt>
      <trkpt lat="46.18209" lon="4.54299">
        <ele>438.4</ele>
        <time>2020-10-17T10:22:03Z</time>
      </trkpt>
      <trkpt lat="46.18209" lon="4.54299">
        <ele>438.4</ele>
        <time>2020-10-17T10:22:04Z</time>
      </trkpt>
      <trkpt lat="46.18212" lon="4.54301">
        <ele>438.4</ele>
        <time>2020-10-17T10:22:05Z</time>
      </trkpt>
      <trkpt lat="46.18212" lon="4.54301">
        <ele>438.6</ele>
        <time>2020-10-17T10:22:06Z</time>
      </trkpt>
      <trkpt lat="46.18215" lon="4.54302">
        <ele>438.6</ele>
        <time>2020-10-17T10:22:07Z</time>
      </trkpt>
      <trkpt lat="46.18215" lon="4.54302">
        <ele>438.6</ele>
        <time>2020-10-17T10:22:08Z</time>
      </trkpt>
      <trkpt lat="46.18218" lon="4.54304">
        <ele>438.6</ele>
        <time>2020-10-17T10:22:09Z</time>
      </trkpt>
      <trkpt lat="46.18218" lon="4.54304">
        <ele>438.6</ele>
        <time>2020-10-17T10:22:10Z</time>
      </trkpt>
      <trkpt lat="46.1822" lon="4.54305">
        <ele>438.6</ele>
        <time>2020-10-17T10:22:11Z</time>
      </trkpt>
      <trkpt lat="46.1822" lon="4.54305">
        <ele>438.6</ele>
        <time>2020-10-17T10:22:12Z</time>
      </trkpt>
      <trkpt lat="46.1822" lon="4.54305">
        <ele>438.8</ele>
        <time>2020-10-17T10:22:13Z</time>
      </trkpt>
      <trkpt lat="46.1822" lon="4.54305">
        <ele>438.8</ele>
        <time>2020-10-17T10:22:14Z</time>
      </trkpt>
      <trkpt lat="46.18223" lon="4.54306">
        <ele>439</ele>
        <time>2020-10-17T10:22:15Z</time>
      </trkpt>
      <trkpt lat="46.18223" lon="4.54306">
        <ele>439.2</ele>
        <time>2020-10-17T10:22:16Z</time>
      </trkpt>
      <trkpt lat="46.18225" lon="4.54306">
        <ele>439.4</ele>
        <time>2020-10-17T10:22:17Z</time>
      </trkpt>
      <trkpt lat="46.18225" lon="4.54306">
        <ele>439.4</ele>
        <time>2020-10-17T10:22:18Z</time>
      </trkpt>
      <trkpt lat="46.18225" lon="4.54306">
        <ele>439.2</ele>
        <time>2020-10-17T10:22:19Z</time>
      </trkpt>
      <trkpt lat="46.18228" lon="4.54308">
        <ele>439.4</ele>
        <time>2020-10-17T10:22:20Z</time>
      </trkpt>
      <trkpt lat="46.18228" lon="4.54308">
        <ele>439.6</ele>
        <time>2020-10-17T10:22:21Z</time>
      </trkpt>
      <trkpt lat="46.18228" lon="4.54308">
        <ele>439.6</ele>
        <time>2020-10-17T10:22:22Z</time>
      </trkpt>
      <trkpt lat="46.18228" lon="4.54308">
        <ele>439.6</ele>
        <time>2020-10-17T10:22:23Z</time>
      </trkpt>
      <trkpt lat="46.18228" lon="4.54308">
        <ele>439.4</ele>
        <time>2020-10-17T10:22:24Z</time>
      </trkpt>
      <trkpt lat="46.18228" lon="4.54308">
        <ele>439.4</ele>
        <time>2020-10-17T10:22:25Z</time>
      </trkpt>
      <trkpt lat="46.18228" lon="4.54308">
        <ele>439.4</ele>
        <time>2020-10-17T10:22:26Z</time>
      </trkpt>
      <trkpt lat="46.18228" lon="4.54308">
        <ele>439.4</ele>
        <time>2020-10-17T10:22:27Z</time>
      </trkpt>
      <trkpt lat="46.18228" lon="4.54308">
        <ele>439.4</ele>
        <time>2020-10-17T10:22:28Z</time>
      </trkpt>
      <trkpt lat="46.18228" lon="4.54308">
        <ele>439.2</ele>
        <time>2020-10-17T10:22:29Z</time>
      </trkpt>
      <trkpt lat="46.18228" lon="4.54308">
        <ele>439.4</ele>
        <time>2020-10-17T10:22:30Z</time>
      </trkpt>
      <trkpt lat="46.18228" lon="4.54308">
        <ele>439.4</ele>
        <time>2020-10-17T10:22:31Z</time>
      </trkpt>
      <trkpt lat="46.18228" lon="4.54308">
        <ele>439.6</ele>
        <time>2020-10-17T10:22:32Z</time>
      </trkpt>
      <trkpt lat="46.18228" lon="4.54308">
        <ele>439.6</ele>
        <time>2020-10-17T10:22:33Z</time>
      </trkpt>
      <trkpt lat="46.18228" lon="4.54308">
        <ele>439.6</ele>
        <time>2020-10-17T10:22:34Z</time>
      </trkpt>
      <trkpt lat="46.18228" lon="4.54308">
        <ele>439.8</ele>
        <time>2020-10-17T10:22:35Z</time>
      </trkpt>
      <trkpt lat="46.18228" lon="4.54308">
        <ele>439.8</ele>
        <time>2020-10-17T10:22:36Z</time>
      </trkpt>
      <trkpt lat="46.18228" lon="4.54308">
        <ele>439.6</ele>
        <time>2020-10-17T10:22:37Z</time>
      </trkpt>
      <trkpt lat="46.18228" lon="4.54308">
        <ele>439.6</ele>
        <time>2020-10-17T10:22:38Z</time>
      </trkpt>
      <trkpt lat="46.18228" lon="4.54308">
        <ele>439.4</ele>
        <time>2020-10-17T10:22:39Z</time>
      </trkpt>
      <trkpt lat="46.18228" lon="4.54308">
        <ele>439.2</ele>
        <time>2020-10-17T10:22:40Z</time>
      </trkpt>
      <trkpt lat="46.18228" lon="4.54308">
        <ele>439.2</ele>
        <time>2020-10-17T10:22:41Z</time>
      </trkpt>
      <trkpt lat="46.18228" lon="4.54308">
        <ele>439</ele>
        <time>2020-10-17T10:22:42Z</time>
      </trkpt>
      <trkpt lat="46.18228" lon="4.54308">
        <ele>439</ele>
        <time>2020-10-17T10:22:43Z</time>
      </trkpt>
      <trkpt lat="46.18228" lon="4.54308">
        <ele>438.8</ele>
        <time>2020-10-17T10:22:44Z</time>
      </trkpt>
      <trkpt lat="46.18228" lon="4.54308">
        <ele>439</ele>
        <time>2020-10-17T10:22:45Z</time>
      </trkpt>
      <trkpt lat="46.18228" lon="4.54308">
        <ele>438.8</ele>
        <time>2020-10-17T10:22:46Z</time>
      </trkpt>
      <trkpt lat="46.18228" lon="4.54308">
        <ele>438.8</ele>
        <time>2020-10-17T10:22:47Z</time>
      </trkpt>
      <trkpt lat="46.18228" lon="4.54308">
        <ele>438.4</ele>
        <time>2020-10-17T10:22:48Z</time>
      </trkpt>
      <trkpt lat="46.18225" lon="4.54307">
        <ele>438.4</ele>
        <time>2020-10-17T10:22:49Z</time>
      </trkpt>
      <trkpt lat="46.18223" lon="4.54306">
        <ele>438.2</ele>
        <time>2020-10-17T10:22:50Z</time>
      </trkpt>
      <trkpt lat="46.18223" lon="4.54306">
        <ele>438.2</ele>
        <time>2020-10-17T10:22:51Z</time>
      </trkpt>
      <trkpt lat="46.18221" lon="4.54305">
        <ele>438.2</ele>
        <time>2020-10-17T10:22:52Z</time>
      </trkpt>
      <trkpt lat="46.18221" lon="4.54305">
        <ele>438.4</ele>
        <time>2020-10-17T10:22:53Z</time>
      </trkpt>
      <trkpt lat="46.18218" lon="4.54304">
        <ele>438.8</ele>
        <time>2020-10-17T10:22:54Z</time>
      </trkpt>
      <trkpt lat="46.18218" lon="4.54304">
        <ele>438.6</ele>
        <time>2020-10-17T10:22:55Z</time>
      </trkpt>
      <trkpt lat="46.18215" lon="4.54303">
        <ele>438.6</ele>
        <time>2020-10-17T10:22:56Z</time>
      </trkpt>
      <trkpt lat="46.18215" lon="4.54303">
        <ele>438.4</ele>
        <time>2020-10-17T10:22:57Z</time>
      </trkpt>
      <trkpt lat="46.18212" lon="4.54302">
        <ele>438.2</ele>
        <time>2020-10-17T10:22:58Z</time>
      </trkpt>
      <trkpt lat="46.18212" lon="4.54302">
        <ele>438.2</ele>
        <time>2020-10-17T10:22:59Z</time>
      </trkpt>
      <trkpt lat="46.18209" lon="4.54301">
        <ele>438.4</ele>
        <time>2020-10-17T10:23:00Z</time>
      </trkpt>
      <trkpt lat="46.18209" lon="4.54301">
        <ele>438.2</ele>
        <time>2020-10-17T10:23:01Z</time>
      </trkpt>
      <trkpt lat="46.18206" lon="4.543">
        <ele>438</ele>
        <time>2020-10-17T10:23:02Z</time>
      </trkpt>
      <trkpt lat="46.18206" lon="4.543">
        <ele>437.8</ele>
        <time>2020-10-17T10:23:03Z</time>
      </trkpt>
      <trkpt lat="46.18203" lon="4.54299">
        <ele>437.8</ele>
        <time>2020-10-17T10:23:04Z</time>
      </trkpt>
      <trkpt lat="46.18203" lon="4.54299">
        <ele>437.6</ele>
        <time>2020-10-17T10:23:05Z</time>
      </trkpt>
      <trkpt lat="46.182" lon="4.54297">
        <ele>437.6</ele>
        <time>2020-10-17T10:23:06Z</time>
      </trkpt>
      <trkpt lat="46.182" lon="4.54297">
        <ele>437.6</ele>
        <time>2020-10-17T10:23:07Z</time>
      </trkpt>
      <trkpt lat="46.18197" lon="4.54296">
        <ele>437.4</ele>
        <time>2020-10-17T10:23:08Z</time>
      </trkpt>
      <trkpt lat="46.18197" lon="4.54296">
        <ele>437.2</ele>
        <time>2020-10-17T10:23:09Z</time>
      </trkpt>
      <trkpt lat="46.18195" lon="4.54294">
        <ele>437</ele>
        <time>2020-10-17T10:23:10Z</time>
      </trkpt>
      <trkpt lat="46.18195" lon="4.54294">
        <ele>437</ele>
        <time>2020-10-17T10:23:11Z</time>
      </trkpt>
      <trkpt lat="46.18192" lon="4.54293">
        <ele>436.8</ele>
        <time>2020-10-17T10:23:12Z</time>
      </trkpt>
      <trkpt lat="46.18192" lon="4.54293">
        <ele>436.4</ele>
        <time>2020-10-17T10:23:13Z</time>
      </trkpt>
      <trkpt lat="46.18189" lon="4.54292">
        <ele>436.4</ele>
        <time>2020-10-17T10:23:14Z</time>
      </trkpt>
      <trkpt lat="46.18189" lon="4.54292">
        <ele>436.4</ele>
        <time>2020-10-17T10:23:15Z</time>
      </trkpt>
      <trkpt lat="46.18186" lon="4.54291">
        <ele>436.4</ele>
        <time>2020-10-17T10:23:16Z</time>
      </trkpt>
      <trkpt lat="46.18186" lon="4.54291">
        <ele>436.4</ele>
        <time>2020-10-17T10:23:17Z</time>
      </trkpt>
      <trkpt lat="46.18183" lon="4.54289">
        <ele>436.4</ele>
        <time>2020-10-17T10:23:18Z</time>
      </trkpt>
      <trkpt lat="46.18183" lon="4.54289">
        <ele>436</ele>
        <time>2020-10-17T10:23:19Z</time>
      </trkpt>
      <trkpt lat="46.1818" lon="4.54288">
        <ele>436</ele>
        <time>2020-10-17T10:23:20Z</time>
      </trkpt>
      <trkpt lat="46.1818" lon="4.54288">
        <ele>435.6</ele>
        <time>2020-10-17T10:23:21Z</time>
      </trkpt>
      <trkpt lat="46.18178" lon="4.54287">
        <ele>435.6</ele>
        <time>2020-10-17T10:23:22Z</time>
      </trkpt>
      <trkpt lat="46.18178" lon="4.54287">
        <ele>435.6</ele>
        <time>2020-10-17T10:23:23Z</time>
      </trkpt>
      <trkpt lat="46.18175" lon="4.54286">
        <ele>435.6</ele>
        <time>2020-10-17T10:23:24Z</time>
      </trkpt>
      <trkpt lat="46.18175" lon="4.54286">
        <ele>435.4</ele>
        <time>2020-10-17T10:23:25Z</time>
      </trkpt>
      <trkpt lat="46.18172" lon="4.54285">
        <ele>435.2</ele>
        <time>2020-10-17T10:23:26Z</time>
      </trkpt>
      <trkpt lat="46.18172" lon="4.54285">
        <ele>435</ele>
        <time>2020-10-17T10:23:27Z</time>
      </trkpt>
      <trkpt lat="46.18169" lon="4.54284">
        <ele>434.8</ele>
        <time>2020-10-17T10:23:28Z</time>
      </trkpt>
      <trkpt lat="46.18169" lon="4.54284">
        <ele>434.8</ele>
        <time>2020-10-17T10:23:29Z</time>
      </trkpt>
      <trkpt lat="46.18166" lon="4.54283">
        <ele>434.6</ele>
        <time>2020-10-17T10:23:30Z</time>
      </trkpt>
      <trkpt lat="46.18166" lon="4.54283">
        <ele>434.4</ele>
        <time>2020-10-17T10:23:31Z</time>
      </trkpt>
      <trkpt lat="46.18164" lon="4.54281">
        <ele>434</ele>
        <time>2020-10-17T10:23:32Z</time>
      </trkpt>
      <trkpt lat="46.18164" lon="4.54281">
        <ele>433.8</ele>
        <time>2020-10-17T10:23:33Z</time>
      </trkpt>
      <trkpt lat="46.18161" lon="4.54279">
        <ele>433.8</ele>
        <time>2020-10-17T10:23:34Z</time>
      </trkpt>
      <trkpt lat="46.18161" lon="4.54279">
        <ele>433.6</ele>
        <time>2020-10-17T10:23:35Z</time>
      </trkpt>
      <trkpt lat="46.18158" lon="4.54277">
        <ele>433.6</ele>
        <time>2020-10-17T10:23:36Z</time>
      </trkpt>
      <trkpt lat="46.18158" lon="4.54277">
        <ele>433.6</ele>
        <time>2020-10-17T10:23:37Z</time>
      </trkpt>
      <trkpt lat="46.18156" lon="4.54276">
        <ele>433.6</ele>
        <time>2020-10-17T10:23:38Z</time>
      </trkpt>
      <trkpt lat="46.18156" lon="4.54276">
        <ele>433.4</ele>
        <time>2020-10-17T10:23:39Z</time>
      </trkpt>
      <trkpt lat="46.18153" lon="4.54275">
        <ele>433.4</ele>
        <time>2020-10-17T10:23:40Z</time>
      </trkpt>
      <trkpt lat="46.18153" lon="4.54275">
        <ele>433.4</ele>
        <time>2020-10-17T10:23:41Z</time>
      </trkpt>
      <trkpt lat="46.1815" lon="4.54274">
        <ele>433.4</ele>
        <time>2020-10-17T10:23:42Z</time>
      </trkpt>
      <trkpt lat="46.1815" lon="4.54274">
        <ele>432.8</ele>
        <time>2020-10-17T10:23:43Z</time>
      </trkpt>
      <trkpt lat="46.18148" lon="4.54273">
        <ele>432.8</ele>
        <time>2020-10-17T10:23:44Z</time>
      </trkpt>
      <trkpt lat="46.18148" lon="4.54273">
        <ele>432.8</ele>
        <time>2020-10-17T10:23:45Z</time>
      </trkpt>
      <trkpt lat="46.18148" lon="4.54273">
        <ele>432.8</ele>
        <time>2020-10-17T10:23:46Z</time>
      </trkpt>
      <trkpt lat="46.18148" lon="4.54273">
        <ele>432.6</ele>
        <time>2020-10-17T10:23:47Z</time>
      </trkpt>
      <trkpt lat="46.18148" lon="4.54273">
        <ele>432.6</ele>
        <time>2020-10-17T10:23:48Z</time>
      </trkpt>
      <trkpt lat="46.18148" lon="4.54273">
        <ele>432.2</ele>
        <time>2020-10-17T10:23:49Z</time>
      </trkpt>
      <trkpt lat="46.18148" lon="4.54273">
        <ele>432.2</ele>
        <time>2020-10-17T10:23:50Z</time>
      </trkpt>
      <trkpt lat="46.18148" lon="4.54273">
        <ele>432</ele>
        <time>2020-10-17T10:23:51Z</time>
      </trkpt>
      <trkpt lat="46.18148" lon="4.54273">
        <ele>432.2</ele>
        <time>2020-10-17T10:23:52Z</time>
      </trkpt>
      <trkpt lat="46.18148" lon="4.54273">
        <ele>432.2</ele>
        <time>2020-10-17T10:23:53Z</time>
      </trkpt>
      <trkpt lat="46.18148" lon="4.54273">
        <ele>432</ele>
        <time>2020-10-17T10:23:54Z</time>
      </trkpt>
      <trkpt lat="46.18148" lon="4.54273">
        <ele>432</ele>
        <time>2020-10-17T10:23:55Z</time>
      </trkpt>
      <trkpt lat="46.18148" lon="4.54273">
        <ele>432</ele>
        <time>2020-10-17T10:23:56Z</time>
      </trkpt>
      <trkpt lat="46.18148" lon="4.54273">
        <ele>432</ele>
        <time>2020-10-17T10:23:57Z</time>
      </trkpt>
      <trkpt lat="46.18148" lon="4.54273">
        <ele>432</ele>
        <time>2020-10-17T10:23:58Z</time>
      </trkpt>
      <trkpt lat="46.18148" lon="4.54273">
        <ele>431.8</ele>
        <time>2020-10-17T10:23:59Z</time>
      </trkpt>
      <trkpt lat="46.18148" lon="4.54273">
        <ele>432</ele>
        <time>2020-10-17T10:24:00Z</time>
      </trkpt>
      <trkpt lat="46.18148" lon="4.54273">
        <ele>432.2</ele>
        <time>2020-10-17T10:24:01Z</time>
      </trkpt>
      <trkpt lat="46.18148" lon="4.54273">
        <ele>432</ele>
        <time>2020-10-17T10:24:02Z</time>
      </trkpt>
      <trkpt lat="46.18148" lon="4.54273">
        <ele>432</ele>
        <time>2020-10-17T10:24:03Z</time>
      </trkpt>
      <trkpt lat="46.18148" lon="4.54273">
        <ele>432.2</ele>
        <time>2020-10-17T10:24:04Z</time>
      </trkpt>
      <trkpt lat="46.18148" lon="4.54273">
        <ele>432</ele>
        <time>2020-10-17T10:24:05Z</time>
      </trkpt>
      <trkpt lat="46.18149" lon="4.54274">
        <ele>431.8</ele>
        <time>2020-10-17T10:24:06Z</time>
      </trkpt>
      <trkpt lat="46.18149" lon="4.54274">
        <ele>432</ele>
        <time>2020-10-17T10:24:07Z</time>
      </trkpt>
      <trkpt lat="46.18151" lon="4.54277">
        <ele>431.8</ele>
        <time>2020-10-17T10:24:08Z</time>
      </trkpt>
      <trkpt lat="46.18151" lon="4.54277">
        <ele>431.8</ele>
        <time>2020-10-17T10:24:09Z</time>
      </trkpt>
      <trkpt lat="46.18153" lon="4.5428">
        <ele>432</ele>
        <time>2020-10-17T10:24:10Z</time>
      </trkpt>
      <trkpt lat="46.18153" lon="4.5428">
        <ele>431.6</ele>
        <time>2020-10-17T10:24:11Z</time>
      </trkpt>
      <trkpt lat="46.18154" lon="4.54282">
        <ele>431.2</ele>
        <time>2020-10-17T10:24:12Z</time>
      </trkpt>
      <trkpt lat="46.18154" lon="4.54282">
        <ele>430.8</ele>
        <time>2020-10-17T10:24:13Z</time>
      </trkpt>
      <trkpt lat="46.18156" lon="4.54285">
        <ele>430.6</ele>
        <time>2020-10-17T10:24:14Z</time>
      </trkpt>
      <trkpt lat="46.18156" lon="4.54285">
        <ele>430.4</ele>
        <time>2020-10-17T10:24:15Z</time>
      </trkpt>
      <trkpt lat="46.18158" lon="4.5429">
        <ele>430.2</ele>
        <time>2020-10-17T10:24:16Z</time>
      </trkpt>
      <trkpt lat="46.18158" lon="4.5429">
        <ele>430.2</ele>
        <time>2020-10-17T10:24:17Z</time>
      </trkpt>
      <trkpt lat="46.18159" lon="4.54294">
        <ele>430</ele>
        <time>2020-10-17T10:24:18Z</time>
      </trkpt>
      <trkpt lat="46.18159" lon="4.54294">
        <ele>429.8</ele>
        <time>2020-10-17T10:24:19Z</time>
      </trkpt>
      <trkpt lat="46.1816" lon="4.54297">
        <ele>429.4</ele>
        <time>2020-10-17T10:24:20Z</time>
      </trkpt>
      <trkpt lat="46.1816" lon="4.54297">
        <ele>429.4</ele>
        <time>2020-10-17T10:24:21Z</time>
      </trkpt>
      <trkpt lat="46.18162" lon="4.543">
        <ele>429.2</ele>
        <time>2020-10-17T10:24:22Z</time>
      </trkpt>
      <trkpt lat="46.18164" lon="4.54301">
        <ele>429.4</ele>
        <time>2020-10-17T10:24:23Z</time>
      </trkpt>
      <trkpt lat="46.18164" lon="4.54301">
        <ele>429.6</ele>
        <time>2020-10-17T10:24:24Z</time>
      </trkpt>
      <trkpt lat="46.18167" lon="4.54304">
        <ele>429.6</ele>
        <time>2020-10-17T10:24:25Z</time>
      </trkpt>
      <trkpt lat="46.18169" lon="4.54305">
        <ele>429.6</ele>
        <time>2020-10-17T10:24:26Z</time>
      </trkpt>
      <trkpt lat="46.18169" lon="4.54305">
        <ele>429.8</ele>
        <time>2020-10-17T10:24:27Z</time>
      </trkpt>
      <trkpt lat="46.18172" lon="4.54307">
        <ele>429.8</ele>
        <time>2020-10-17T10:24:28Z</time>
      </trkpt>
      <trkpt lat="46.18172" lon="4.54307">
        <ele>430</ele>
        <time>2020-10-17T10:24:29Z</time>
      </trkpt>
      <trkpt lat="46.18175" lon="4.5431">
        <ele>430.2</ele>
        <time>2020-10-17T10:24:30Z</time>
      </trkpt>
      <trkpt lat="46.18175" lon="4.5431">
        <ele>430</ele>
        <time>2020-10-17T10:24:31Z</time>
      </trkpt>
      <trkpt lat="46.18177" lon="4.54312">
        <ele>429.8</ele>
        <time>2020-10-17T10:24:32Z</time>
      </trkpt>
      <trkpt lat="46.18177" lon="4.54312">
        <ele>430</ele>
        <time>2020-10-17T10:24:33Z</time>
      </trkpt>
      <trkpt lat="46.18181" lon="4.54314">
        <ele>430</ele>
        <time>2020-10-17T10:24:34Z</time>
      </trkpt>
      <trkpt lat="46.18181" lon="4.54314">
        <ele>430</ele>
        <time>2020-10-17T10:24:35Z</time>
      </trkpt>
      <trkpt lat="46.18184" lon="4.54317">
        <ele>430.2</ele>
        <time>2020-10-17T10:24:36Z</time>
      </trkpt>
      <trkpt lat="46.18184" lon="4.54317">
        <ele>430.6</ele>
        <time>2020-10-17T10:24:37Z</time>
      </trkpt>
      <trkpt lat="46.18186" lon="4.5432">
        <ele>430.4</ele>
        <time>2020-10-17T10:24:38Z</time>
      </trkpt>
      <trkpt lat="46.18186" lon="4.5432">
        <ele>430.6</ele>
        <time>2020-10-17T10:24:39Z</time>
      </trkpt>
      <trkpt lat="46.18189" lon="4.54322">
        <ele>430.8</ele>
        <time>2020-10-17T10:24:40Z</time>
      </trkpt>
      <trkpt lat="46.1819" lon="4.54324">
        <ele>430.8</ele>
        <time>2020-10-17T10:24:41Z</time>
      </trkpt>
      <trkpt lat="46.1819" lon="4.54324">
        <ele>430.8</ele>
        <time>2020-10-17T10:24:42Z</time>
      </trkpt>
      <trkpt lat="46.18193" lon="4.54326">
        <ele>430.6</ele>
        <time>2020-10-17T10:24:43Z</time>
      </trkpt>
      <trkpt lat="46.18193" lon="4.54326">
        <ele>430.6</ele>
        <time>2020-10-17T10:24:44Z</time>
      </trkpt>
      <trkpt lat="46.18196" lon="4.54328">
        <ele>430.6</ele>
        <time>2020-10-17T10:24:45Z</time>
      </trkpt>
      <trkpt lat="46.18196" lon="4.54328">
        <ele>430.6</ele>
        <time>2020-10-17T10:24:46Z</time>
      </trkpt>
      <trkpt lat="46.18199" lon="4.5433">
        <ele>430.6</ele>
        <time>2020-10-17T10:24:47Z</time>
      </trkpt>
      <trkpt lat="46.18199" lon="4.5433">
        <ele>430.4</ele>
        <time>2020-10-17T10:24:48Z</time>
      </trkpt>
      <trkpt lat="46.18201" lon="4.5433">
        <ele>430.4</ele>
        <time>2020-10-17T10:24:49Z</time>
      </trkpt>
      <trkpt lat="46.18201" lon="4.5433">
        <ele>430.4</ele>
        <time>2020-10-17T10:24:50Z</time>
      </trkpt>
      <trkpt lat="46.18203" lon="4.54327">
        <ele>430.4</ele>
        <time>2020-10-17T10:24:51Z</time>
      </trkpt>
      <trkpt lat="46.18203" lon="4.54327">
        <ele>430.4</ele>
        <time>2020-10-17T10:24:52Z</time>
      </trkpt>
      <trkpt lat="46.18204" lon="4.54324">
        <ele>430.2</ele>
        <time>2020-10-17T10:24:53Z</time>
      </trkpt>
      <trkpt lat="46.18204" lon="4.54324">
        <ele>430.2</ele>
        <time>2020-10-17T10:24:54Z</time>
      </trkpt>
      <trkpt lat="46.18202" lon="4.54321">
        <ele>430.2</ele>
        <time>2020-10-17T10:24:55Z</time>
      </trkpt>
      <trkpt lat="46.18202" lon="4.54321">
        <ele>430.4</ele>
        <time>2020-10-17T10:24:56Z</time>
      </trkpt>
      <trkpt lat="46.18201" lon="4.54319">
        <ele>430.6</ele>
        <time>2020-10-17T10:24:57Z</time>
      </trkpt>
      <trkpt lat="46.18201" lon="4.54319">
        <ele>431</ele>
        <time>2020-10-17T10:24:58Z</time>
      </trkpt>
      <trkpt lat="46.18201" lon="4.54319">
        <ele>431</ele>
        <time>2020-10-17T10:24:59Z</time>
      </trkpt>
      <trkpt lat="46.18201" lon="4.54319">
        <ele>431</ele>
        <time>2020-10-17T10:25:00Z</time>
      </trkpt>
      <trkpt lat="46.18203" lon="4.54318">
        <ele>431.2</ele>
        <time>2020-10-17T10:25:01Z</time>
      </trkpt>
      <trkpt lat="46.18203" lon="4.54318">
        <ele>431.2</ele>
        <time>2020-10-17T10:25:02Z</time>
      </trkpt>
      <trkpt lat="46.18203" lon="4.54318">
        <ele>431</ele>
        <time>2020-10-17T10:25:03Z</time>
      </trkpt>
      <trkpt lat="46.18205" lon="4.54319">
        <ele>431</ele>
        <time>2020-10-17T10:25:04Z</time>
      </trkpt>
      <trkpt lat="46.18205" lon="4.54319">
        <ele>431</ele>
        <time>2020-10-17T10:25:05Z</time>
      </trkpt>
      <trkpt lat="46.18205" lon="4.54319">
        <ele>430.8</ele>
        <time>2020-10-17T10:25:06Z</time>
      </trkpt>
      <trkpt lat="46.18205" lon="4.54319">
        <ele>430.6</ele>
        <time>2020-10-17T10:25:07Z</time>
      </trkpt>
      <trkpt lat="46.18205" lon="4.54319">
        <ele>430.6</ele>
        <time>2020-10-17T10:25:08Z</time>
      </trkpt>
      <trkpt lat="46.18205" lon="4.54319">
        <ele>430.8</ele>
        <time>2020-10-17T10:25:09Z</time>
      </trkpt>
      <trkpt lat="46.18203" lon="4.54322">
        <ele>430.8</ele>
        <time>2020-10-17T10:25:10Z</time>
      </trkpt>
      <trkpt lat="46.18203" lon="4.54322">
        <ele>430.8</ele>
        <time>2020-10-17T10:25:11Z</time>
      </trkpt>
      <trkpt lat="46.18203" lon="4.54322">
        <ele>431.2</ele>
        <time>2020-10-17T10:25:12Z</time>
      </trkpt>
      <trkpt lat="46.18203" lon="4.54322">
        <ele>431.2</ele>
        <time>2020-10-17T10:25:13Z</time>
      </trkpt>
      <trkpt lat="46.18203" lon="4.54322">
        <ele>431</ele>
        <time>2020-10-17T10:25:14Z</time>
      </trkpt>
      <trkpt lat="46.18203" lon="4.54322">
        <ele>430.8</ele>
        <time>2020-10-17T10:25:15Z</time>
      </trkpt>
      <trkpt lat="46.18201" lon="4.54323">
        <ele>430.8</ele>
        <time>2020-10-17T10:25:16Z</time>
      </trkpt>
      <trkpt lat="46.18201" lon="4.54323">
        <ele>430.8</ele>
        <time>2020-10-17T10:25:17Z</time>
      </trkpt>
      <trkpt lat="46.18201" lon="4.54323">
        <ele>430.8</ele>
        <time>2020-10-17T10:25:18Z</time>
      </trkpt>
      <trkpt lat="46.18201" lon="4.54323">
        <ele>431</ele>
        <time>2020-10-17T10:25:19Z</time>
      </trkpt>
      <trkpt lat="46.18201" lon="4.54323">
        <ele>430.8</ele>
        <time>2020-10-17T10:25:20Z</time>
      </trkpt>
      <trkpt lat="46.18201" lon="4.54323">
        <ele>430.8</ele>
        <time>2020-10-17T10:25:21Z</time>
      </trkpt>
      <trkpt lat="46.18201" lon="4.54323">
        <ele>430.8</ele>
        <time>2020-10-17T10:25:22Z</time>
      </trkpt>
      <trkpt lat="46.18201" lon="4.54323">
        <ele>430.6</ele>
        <time>2020-10-17T10:25:23Z</time>
      </trkpt>
      <trkpt lat="46.18201" lon="4.54323">
        <ele>430.8</ele>
        <time>2020-10-17T10:25:24Z</time>
      </trkpt>
      <trkpt lat="46.18204" lon="4.54322">
        <ele>430.8</ele>
        <time>2020-10-17T10:25:25Z</time>
      </trkpt>
      <trkpt lat="46.18204" lon="4.54322">
        <ele>430.8</ele>
        <time>2020-10-17T10:25:26Z</time>
      </trkpt>
      <trkpt lat="46.18206" lon="4.54325">
        <ele>431</ele>
        <time>2020-10-17T10:25:27Z</time>
      </trkpt>
      <trkpt lat="46.18206" lon="4.54325">
        <ele>431</ele>
        <time>2020-10-17T10:25:28Z</time>
      </trkpt>
      <trkpt lat="46.18208" lon="4.54328">
        <ele>431</ele>
        <time>2020-10-17T10:25:29Z</time>
      </trkpt>
      <trkpt lat="46.18208" lon="4.54328">
        <ele>431</ele>
        <time>2020-10-17T10:25:30Z</time>
      </trkpt>
      <trkpt lat="46.1821" lon="4.54332">
        <ele>431.2</ele>
        <time>2020-10-17T10:25:31Z</time>
      </trkpt>
      <trkpt lat="46.18211" lon="4.54334">
        <ele>431.4</ele>
        <time>2020-10-17T10:25:32Z</time>
      </trkpt>
      <trkpt lat="46.18211" lon="4.54334">
        <ele>431.2</ele>
        <time>2020-10-17T10:25:33Z</time>
      </trkpt>
      <trkpt lat="46.18213" lon="4.54337">
        <ele>431.4</ele>
        <time>2020-10-17T10:25:34Z</time>
      </trkpt>
      <trkpt lat="46.18213" lon="4.54337">
        <ele>431.2</ele>
        <time>2020-10-17T10:25:35Z</time>
      </trkpt>
      <trkpt lat="46.18215" lon="4.54339">
        <ele>431.2</ele>
        <time>2020-10-17T10:25:36Z</time>
      </trkpt>
      <trkpt lat="46.18215" lon="4.54339">
        <ele>431.2</ele>
        <time>2020-10-17T10:25:37Z</time>
      </trkpt>
      <trkpt lat="46.18218" lon="4.54341">
        <ele>431.2</ele>
        <time>2020-10-17T10:25:38Z</time>
      </trkpt>
      <trkpt lat="46.18218" lon="4.54341">
        <ele>431</ele>
        <time>2020-10-17T10:25:39Z</time>
      </trkpt>
      <trkpt lat="46.18221" lon="4.54342">
        <ele>431</ele>
        <time>2020-10-17T10:25:40Z</time>
      </trkpt>
      <trkpt lat="46.18221" lon="4.54342">
        <ele>431.2</ele>
        <time>2020-10-17T10:25:41Z</time>
      </trkpt>
      <trkpt lat="46.18224" lon="4.54344">
        <ele>431.2</ele>
        <time>2020-10-17T10:25:42Z</time>
      </trkpt>
      <trkpt lat="46.18224" lon="4.54344">
        <ele>431.2</ele>
        <time>2020-10-17T10:25:43Z</time>
      </trkpt>
      <trkpt lat="46.18226" lon="4.54346">
        <ele>431.2</ele>
        <time>2020-10-17T10:25:44Z</time>
      </trkpt>
      <trkpt lat="46.18226" lon="4.54346">
        <ele>431.2</ele>
        <time>2020-10-17T10:25:45Z</time>
      </trkpt>
      <trkpt lat="46.18229" lon="4.54348">
        <ele>431.2</ele>
        <time>2020-10-17T10:25:46Z</time>
      </trkpt>
      <trkpt lat="46.18231" lon="4.54349">
        <ele>431</ele>
        <time>2020-10-17T10:25:47Z</time>
      </trkpt>
      <trkpt lat="46.18231" lon="4.54349">
        <ele>431</ele>
        <time>2020-10-17T10:25:48Z</time>
      </trkpt>
      <trkpt lat="46.18233" lon="4.54351">
        <ele>430.8</ele>
        <time>2020-10-17T10:25:49Z</time>
      </trkpt>
      <trkpt lat="46.18233" lon="4.54351">
        <ele>431</ele>
        <time>2020-10-17T10:25:50Z</time>
      </trkpt>
      <trkpt lat="46.18233" lon="4.54351">
        <ele>431</ele>
        <time>2020-10-17T10:25:51Z</time>
      </trkpt>
      <trkpt lat="46.18236" lon="4.54352">
        <ele>431</ele>
        <time>2020-10-17T10:25:52Z</time>
      </trkpt>
      <trkpt lat="46.18236" lon="4.54352">
        <ele>430.8</ele>
        <time>2020-10-17T10:25:53Z</time>
      </trkpt>
      <trkpt lat="46.18239" lon="4.54351">
        <ele>430.8</ele>
        <time>2020-10-17T10:25:54Z</time>
      </trkpt>
      <trkpt lat="46.18239" lon="4.54351">
        <ele>431</ele>
        <time>2020-10-17T10:25:55Z</time>
      </trkpt>
      <trkpt lat="46.18241" lon="4.5435">
        <ele>431</ele>
        <time>2020-10-17T10:25:56Z</time>
      </trkpt>
      <trkpt lat="46.18241" lon="4.5435">
        <ele>431</ele>
        <time>2020-10-17T10:25:57Z</time>
      </trkpt>
      <trkpt lat="46.18243" lon="4.5435">
        <ele>431.4</ele>
        <time>2020-10-17T10:25:58Z</time>
      </trkpt>
      <trkpt lat="46.18243" lon="4.5435">
        <ele>431.4</ele>
        <time>2020-10-17T10:25:59Z</time>
      </trkpt>
      <trkpt lat="46.18246" lon="4.5435">
        <ele>431.4</ele>
        <time>2020-10-17T10:26:00Z</time>
      </trkpt>
      <trkpt lat="46.18246" lon="4.5435">
        <ele>431.6</ele>
        <time>2020-10-17T10:26:01Z</time>
      </trkpt>
      <trkpt lat="46.18248" lon="4.54349">
        <ele>431.4</ele>
        <time>2020-10-17T10:26:02Z</time>
      </trkpt>
      <trkpt lat="46.18248" lon="4.54349">
        <ele>431.6</ele>
        <time>2020-10-17T10:26:03Z</time>
      </trkpt>
      <trkpt lat="46.18251" lon="4.5435">
        <ele>431.4</ele>
        <time>2020-10-17T10:26:04Z</time>
      </trkpt>
      <trkpt lat="46.18251" lon="4.5435">
        <ele>431.6</ele>
        <time>2020-10-17T10:26:05Z</time>
      </trkpt>
      <trkpt lat="46.18254" lon="4.54351">
        <ele>431.4</ele>
        <time>2020-10-17T10:26:06Z</time>
      </trkpt>
      <trkpt lat="46.18256" lon="4.54352">
        <ele>431.4</ele>
        <time>2020-10-17T10:26:07Z</time>
      </trkpt>
      <trkpt lat="46.18258" lon="4.54354">
        <ele>431.4</ele>
        <time>2020-10-17T10:26:08Z</time>
      </trkpt>
      <trkpt lat="46.1826" lon="4.54356">
        <ele>431.4</ele>
        <time>2020-10-17T10:26:09Z</time>
      </trkpt>
      <trkpt lat="46.18261" lon="4.54358">
        <ele>431.4</ele>
        <time>2020-10-17T10:26:10Z</time>
      </trkpt>
      <trkpt lat="46.18261" lon="4.54358">
        <ele>431.4</ele>
        <time>2020-10-17T10:26:11Z</time>
      </trkpt>
      <trkpt lat="46.18264" lon="4.54361">
        <ele>431.4</ele>
        <time>2020-10-17T10:26:12Z</time>
      </trkpt>
      <trkpt lat="46.18264" lon="4.54361">
        <ele>431.6</ele>
        <time>2020-10-17T10:26:13Z</time>
      </trkpt>
      <trkpt lat="46.18266" lon="4.54364">
        <ele>431.8</ele>
        <time>2020-10-17T10:26:14Z</time>
      </trkpt>
      <trkpt lat="46.18266" lon="4.54364">
        <ele>431.8</ele>
        <time>2020-10-17T10:26:15Z</time>
      </trkpt>
      <trkpt lat="46.18269" lon="4.54367">
        <ele>432</ele>
        <time>2020-10-17T10:26:16Z</time>
      </trkpt>
      <trkpt lat="46.18269" lon="4.54367">
        <ele>431.8</ele>
        <time>2020-10-17T10:26:17Z</time>
      </trkpt>
      <trkpt lat="46.18271" lon="4.5437">
        <ele>431.8</ele>
        <time>2020-10-17T10:26:18Z</time>
      </trkpt>
      <trkpt lat="46.18271" lon="4.5437">
        <ele>432</ele>
        <time>2020-10-17T10:26:19Z</time>
      </trkpt>
      <trkpt lat="46.18273" lon="4.54373">
        <ele>431.8</ele>
        <time>2020-10-17T10:26:20Z</time>
      </trkpt>
      <trkpt lat="46.18273" lon="4.54373">
        <ele>431.8</ele>
        <time>2020-10-17T10:26:21Z</time>
      </trkpt>
      <trkpt lat="46.18276" lon="4.54376">
        <ele>431.8</ele>
        <time>2020-10-17T10:26:22Z</time>
      </trkpt>
      <trkpt lat="46.18276" lon="4.54376">
        <ele>431.8</ele>
        <time>2020-10-17T10:26:23Z</time>
      </trkpt>
      <trkpt lat="46.18278" lon="4.5438">
        <ele>431.8</ele>
        <time>2020-10-17T10:26:24Z</time>
      </trkpt>
      <trkpt lat="46.1828" lon="4.54382">
        <ele>431.8</ele>
        <time>2020-10-17T10:26:25Z</time>
      </trkpt>
      <trkpt lat="46.1828" lon="4.54382">
        <ele>431.8</ele>
        <time>2020-10-17T10:26:26Z</time>
      </trkpt>
      <trkpt lat="46.18282" lon="4.54385">
        <ele>431.8</ele>
        <time>2020-10-17T10:26:27Z</time>
      </trkpt>
      <trkpt lat="46.18282" lon="4.54385">
        <ele>431.6</ele>
        <time>2020-10-17T10:26:28Z</time>
      </trkpt>
      <trkpt lat="46.18284" lon="4.54388">
        <ele>431.6</ele>
        <time>2020-10-17T10:26:29Z</time>
      </trkpt>
      <trkpt lat="46.18284" lon="4.54388">
        <ele>431.6</ele>
        <time>2020-10-17T10:26:30Z</time>
      </trkpt>
      <trkpt lat="46.18286" lon="4.54392">
        <ele>431.4</ele>
        <time>2020-10-17T10:26:31Z</time>
      </trkpt>
      <trkpt lat="46.18286" lon="4.54392">
        <ele>431.6</ele>
        <time>2020-10-17T10:26:32Z</time>
      </trkpt>
      <trkpt lat="46.18288" lon="4.54395">
        <ele>431.4</ele>
        <time>2020-10-17T10:26:33Z</time>
      </trkpt>
      <trkpt lat="46.18288" lon="4.54395">
        <ele>431.2</ele>
        <time>2020-10-17T10:26:34Z</time>
      </trkpt>
      <trkpt lat="46.1829" lon="4.54399">
        <ele>431.2</ele>
        <time>2020-10-17T10:26:35Z</time>
      </trkpt>
      <trkpt lat="46.1829" lon="4.54399">
        <ele>431</ele>
        <time>2020-10-17T10:26:36Z</time>
      </trkpt>
      <trkpt lat="46.18292" lon="4.54403">
        <ele>430.8</ele>
        <time>2020-10-17T10:26:37Z</time>
      </trkpt>
      <trkpt lat="46.18292" lon="4.54403">
        <ele>430.8</ele>
        <time>2020-10-17T10:26:38Z</time>
      </trkpt>
      <trkpt lat="46.18294" lon="4.54406">
        <ele>430.6</ele>
        <time>2020-10-17T10:26:39Z</time>
      </trkpt>
      <trkpt lat="46.18294" lon="4.54406">
        <ele>430.8</ele>
        <time>2020-10-17T10:26:40Z</time>
      </trkpt>
      <trkpt lat="46.18296" lon="4.54409">
        <ele>430.8</ele>
        <time>2020-10-17T10:26:41Z</time>
      </trkpt>
      <trkpt lat="46.18296" lon="4.54409">
        <ele>430.6</ele>
        <time>2020-10-17T10:26:42Z</time>
      </trkpt>
      <trkpt lat="46.18298" lon="4.54412">
        <ele>430.6</ele>
        <time>2020-10-17T10:26:43Z</time>
      </trkpt>
      <trkpt lat="46.18298" lon="4.54412">
        <ele>430.6</ele>
        <time>2020-10-17T10:26:44Z</time>
      </trkpt>
      <trkpt lat="46.183" lon="4.54416">
        <ele>430.6</ele>
        <time>2020-10-17T10:26:45Z</time>
      </trkpt>
      <trkpt lat="46.183" lon="4.54416">
        <ele>430.4</ele>
        <time>2020-10-17T10:26:46Z</time>
      </trkpt>
      <trkpt lat="46.18302" lon="4.54419">
        <ele>430.4</ele>
        <time>2020-10-17T10:26:47Z</time>
      </trkpt>
      <trkpt lat="46.18302" lon="4.54419">
        <ele>430.4</ele>
        <time>2020-10-17T10:26:48Z</time>
      </trkpt>
      <trkpt lat="46.18304" lon="4.54423">
        <ele>430.4</ele>
        <time>2020-10-17T10:26:49Z</time>
      </trkpt>
      <trkpt lat="46.18305" lon="4.54425">
        <ele>430.4</ele>
        <time>2020-10-17T10:26:50Z</time>
      </trkpt>
      <trkpt lat="46.18305" lon="4.54425">
        <ele>430.4</ele>
        <time>2020-10-17T10:26:51Z</time>
      </trkpt>
      <trkpt lat="46.18308" lon="4.54428">
        <ele>430.8</ele>
        <time>2020-10-17T10:26:52Z</time>
      </trkpt>
      <trkpt lat="46.18308" lon="4.54428">
        <ele>430.8</ele>
        <time>2020-10-17T10:26:53Z</time>
      </trkpt>
      <trkpt lat="46.18311" lon="4.54431">
        <ele>430.6</ele>
        <time>2020-10-17T10:26:54Z</time>
      </trkpt>
      <trkpt lat="46.18311" lon="4.54431">
        <ele>430.4</ele>
        <time>2020-10-17T10:26:55Z</time>
      </trkpt>
      <trkpt lat="46.18313" lon="4.54434">
        <ele>430.2</ele>
        <time>2020-10-17T10:26:56Z</time>
      </trkpt>
      <trkpt lat="46.18313" lon="4.54434">
        <ele>430.2</ele>
        <time>2020-10-17T10:26:57Z</time>
      </trkpt>
      <trkpt lat="46.18315" lon="4.54437">
        <ele>430.2</ele>
        <time>2020-10-17T10:26:58Z</time>
      </trkpt>
      <trkpt lat="46.18315" lon="4.54437">
        <ele>430.4</ele>
        <time>2020-10-17T10:26:59Z</time>
      </trkpt>
      <trkpt lat="46.18317" lon="4.54441">
        <ele>430</ele>
        <time>2020-10-17T10:27:00Z</time>
      </trkpt>
      <trkpt lat="46.18317" lon="4.54441">
        <ele>430</ele>
        <time>2020-10-17T10:27:01Z</time>
      </trkpt>
      <trkpt lat="46.18319" lon="4.54445">
        <ele>430</ele>
        <time>2020-10-17T10:27:02Z</time>
      </trkpt>
      <trkpt lat="46.18319" lon="4.54445">
        <ele>429.8</ele>
        <time>2020-10-17T10:27:03Z</time>
      </trkpt>
      <trkpt lat="46.18321" lon="4.54448">
        <ele>429.8</ele>
        <time>2020-10-17T10:27:04Z</time>
      </trkpt>
      <trkpt lat="46.18322" lon="4.5445">
        <ele>430</ele>
        <time>2020-10-17T10:27:05Z</time>
      </trkpt>
      <trkpt lat="46.18323" lon="4.54453">
        <ele>430</ele>
        <time>2020-10-17T10:27:06Z</time>
      </trkpt>
      <trkpt lat="46.18324" lon="4.54456">
        <ele>429.8</ele>
        <time>2020-10-17T10:27:07Z</time>
      </trkpt>
      <trkpt lat="46.18325" lon="4.5446">
        <ele>430</ele>
        <time>2020-10-17T10:27:08Z</time>
      </trkpt>
      <trkpt lat="46.18326" lon="4.54462">
        <ele>429.2</ele>
        <time>2020-10-17T10:27:09Z</time>
      </trkpt>
      <trkpt lat="46.18327" lon="4.54466">
        <ele>429</ele>
        <time>2020-10-17T10:27:10Z</time>
      </trkpt>
      <trkpt lat="46.18328" lon="4.54469">
        <ele>429.2</ele>
        <time>2020-10-17T10:27:11Z</time>
      </trkpt>
      <trkpt lat="46.18328" lon="4.54471">
        <ele>429</ele>
        <time>2020-10-17T10:27:12Z</time>
      </trkpt>
      <trkpt lat="46.18329" lon="4.54474">
        <ele>428.8</ele>
        <time>2020-10-17T10:27:13Z</time>
      </trkpt>
      <trkpt lat="46.1833" lon="4.54477">
        <ele>429.2</ele>
        <time>2020-10-17T10:27:14Z</time>
      </trkpt>
      <trkpt lat="46.18331" lon="4.54479">
        <ele>429</ele>
        <time>2020-10-17T10:27:15Z</time>
      </trkpt>
      <trkpt lat="46.18332" lon="4.54482">
        <ele>428.6</ele>
        <time>2020-10-17T10:27:16Z</time>
      </trkpt>
      <trkpt lat="46.18333" lon="4.54485">
        <ele>428.8</ele>
        <time>2020-10-17T10:27:17Z</time>
      </trkpt>
      <trkpt lat="46.18334" lon="4.54487">
        <ele>428.8</ele>
        <time>2020-10-17T10:27:18Z</time>
      </trkpt>
      <trkpt lat="46.18335" lon="4.5449">
        <ele>428.4</ele>
        <time>2020-10-17T10:27:19Z</time>
      </trkpt>
      <trkpt lat="46.18337" lon="4.54493">
        <ele>428.4</ele>
        <time>2020-10-17T10:27:20Z</time>
      </trkpt>
      <trkpt lat="46.18339" lon="4.54496">
        <ele>428.2</ele>
        <time>2020-10-17T10:27:21Z</time>
      </trkpt>
      <trkpt lat="46.18341" lon="4.54499">
        <ele>427.8</ele>
        <time>2020-10-17T10:27:22Z</time>
      </trkpt>
      <trkpt lat="46.18343" lon="4.54501">
        <ele>428</ele>
        <time>2020-10-17T10:27:23Z</time>
      </trkpt>
      <trkpt lat="46.18344" lon="4.54504">
        <ele>428.4</ele>
        <time>2020-10-17T10:27:24Z</time>
      </trkpt>
      <trkpt lat="46.18346" lon="4.54506">
        <ele>427.8</ele>
        <time>2020-10-17T10:27:25Z</time>
      </trkpt>
      <trkpt lat="46.18348" lon="4.54509">
        <ele>427.8</ele>
        <time>2020-10-17T10:27:26Z</time>
      </trkpt>
      <trkpt lat="46.1835" lon="4.54511">
        <ele>428</ele>
        <time>2020-10-17T10:27:27Z</time>
      </trkpt>
      <trkpt lat="46.18352" lon="4.54513">
        <ele>427.6</ele>
        <time>2020-10-17T10:27:28Z</time>
      </trkpt>
      <trkpt lat="46.18353" lon="4.54515">
        <ele>427.6</ele>
        <time>2020-10-17T10:27:29Z</time>
      </trkpt>
      <trkpt lat="46.18355" lon="4.54518">
        <ele>427.2</ele>
        <time>2020-10-17T10:27:30Z</time>
      </trkpt>
      <trkpt lat="46.18356" lon="4.5452">
        <ele>426.8</ele>
        <time>2020-10-17T10:27:31Z</time>
      </trkpt>
      <trkpt lat="46.18358" lon="4.54522">
        <ele>426.8</ele>
        <time>2020-10-17T10:27:32Z</time>
      </trkpt>
      <trkpt lat="46.1836" lon="4.54524">
        <ele>426.8</ele>
        <time>2020-10-17T10:27:33Z</time>
      </trkpt>
      <trkpt lat="46.18361" lon="4.54527">
        <ele>426.4</ele>
        <time>2020-10-17T10:27:34Z</time>
      </trkpt>
      <trkpt lat="46.18363" lon="4.54529">
        <ele>426.2</ele>
        <time>2020-10-17T10:27:35Z</time>
      </trkpt>
      <trkpt lat="46.18365" lon="4.54531">
        <ele>426.2</ele>
        <time>2020-10-17T10:27:36Z</time>
      </trkpt>
      <trkpt lat="46.18367" lon="4.54533">
        <ele>425.6</ele>
        <time>2020-10-17T10:27:37Z</time>
      </trkpt>
      <trkpt lat="46.18369" lon="4.54535">
        <ele>425.2</ele>
        <time>2020-10-17T10:27:38Z</time>
      </trkpt>
      <trkpt lat="46.18371" lon="4.54537">
        <ele>425.2</ele>
        <time>2020-10-17T10:27:39Z</time>
      </trkpt>
      <trkpt lat="46.18373" lon="4.54538">
        <ele>424.6</ele>
        <time>2020-10-17T10:27:40Z</time>
      </trkpt>
      <trkpt lat="46.18375" lon="4.5454">
        <ele>424.4</ele>
        <time>2020-10-17T10:27:41Z</time>
      </trkpt>
      <trkpt lat="46.18377" lon="4.54543">
        <ele>424.4</ele>
        <time>2020-10-17T10:27:42Z</time>
      </trkpt>
      <trkpt lat="46.18379" lon="4.54545">
        <ele>423.8</ele>
        <time>2020-10-17T10:27:43Z</time>
      </trkpt>
      <trkpt lat="46.18381" lon="4.54547">
        <ele>423.6</ele>
        <time>2020-10-17T10:27:44Z</time>
      </trkpt>
      <trkpt lat="46.18383" lon="4.54549">
        <ele>423.4</ele>
        <time>2020-10-17T10:27:45Z</time>
      </trkpt>
      <trkpt lat="46.18385" lon="4.54551">
        <ele>422.8</ele>
        <time>2020-10-17T10:27:46Z</time>
      </trkpt>
      <trkpt lat="46.18387" lon="4.54553">
        <ele>422.6</ele>
        <time>2020-10-17T10:27:47Z</time>
      </trkpt>
      <trkpt lat="46.18389" lon="4.54554">
        <ele>422.6</ele>
        <time>2020-10-17T10:27:48Z</time>
      </trkpt>
      <trkpt lat="46.18391" lon="4.54556">
        <ele>422</ele>
        <time>2020-10-17T10:27:49Z</time>
      </trkpt>
      <trkpt lat="46.18393" lon="4.54558">
        <ele>422</ele>
        <time>2020-10-17T10:27:50Z</time>
      </trkpt>
      <trkpt lat="46.18395" lon="4.5456">
        <ele>421.8</ele>
        <time>2020-10-17T10:27:51Z</time>
      </trkpt>
      <trkpt lat="46.18397" lon="4.54561">
        <ele>421.4</ele>
        <time>2020-10-17T10:27:52Z</time>
      </trkpt>
      <trkpt lat="46.18399" lon="4.54563">
        <ele>421</ele>
        <time>2020-10-17T10:27:53Z</time>
      </trkpt>
      <trkpt lat="46.18401" lon="4.54564">
        <ele>420.8</ele>
        <time>2020-10-17T10:27:54Z</time>
      </trkpt>
      <trkpt lat="46.18403" lon="4.54566">
        <ele>420.2</ele>
        <time>2020-10-17T10:27:55Z</time>
      </trkpt>
      <trkpt lat="46.18406" lon="4.54566">
        <ele>420</ele>
        <time>2020-10-17T10:27:56Z</time>
      </trkpt>
      <trkpt lat="46.18408" lon="4.54567">
        <ele>420.2</ele>
        <time>2020-10-17T10:27:57Z</time>
      </trkpt>
      <trkpt lat="46.18411" lon="4.54568">
        <ele>419.6</ele>
        <time>2020-10-17T10:27:58Z</time>
      </trkpt>
      <trkpt lat="46.18413" lon="4.54569">
        <ele>419.4</ele>
        <time>2020-10-17T10:27:59Z</time>
      </trkpt>
      <trkpt lat="46.18415" lon="4.5457">
        <ele>419.4</ele>
        <time>2020-10-17T10:28:00Z</time>
      </trkpt>
      <trkpt lat="46.18417" lon="4.54571">
        <ele>419</ele>
        <time>2020-10-17T10:28:01Z</time>
      </trkpt>
      <trkpt lat="46.18419" lon="4.54573">
        <ele>418.8</ele>
        <time>2020-10-17T10:28:02Z</time>
      </trkpt>
      <trkpt lat="46.18422" lon="4.54574">
        <ele>419</ele>
        <time>2020-10-17T10:28:03Z</time>
      </trkpt>
      <trkpt lat="46.18424" lon="4.54576">
        <ele>418.4</ele>
        <time>2020-10-17T10:28:04Z</time>
      </trkpt>
      <trkpt lat="46.18427" lon="4.54577">
        <ele>418.2</ele>
        <time>2020-10-17T10:28:05Z</time>
      </trkpt>
      <trkpt lat="46.18429" lon="4.54578">
        <ele>418.2</ele>
        <time>2020-10-17T10:28:06Z</time>
      </trkpt>
      <trkpt lat="46.18432" lon="4.5458">
        <ele>417.8</ele>
        <time>2020-10-17T10:28:07Z</time>
      </trkpt>
      <trkpt lat="46.18434" lon="4.54581">
        <ele>417.6</ele>
        <time>2020-10-17T10:28:08Z</time>
      </trkpt>
      <trkpt lat="46.18436" lon="4.54581">
        <ele>418</ele>
        <time>2020-10-17T10:28:09Z</time>
      </trkpt>
      <trkpt lat="46.18439" lon="4.54582">
        <ele>417.4</ele>
        <time>2020-10-17T10:28:10Z</time>
      </trkpt>
      <trkpt lat="46.18441" lon="4.54582">
        <ele>417</ele>
        <time>2020-10-17T10:28:11Z</time>
      </trkpt>
      <trkpt lat="46.18444" lon="4.54583">
        <ele>417.2</ele>
        <time>2020-10-17T10:28:12Z</time>
      </trkpt>
      <trkpt lat="46.18446" lon="4.54583">
        <ele>417</ele>
        <time>2020-10-17T10:28:13Z</time>
      </trkpt>
      <trkpt lat="46.18448" lon="4.54584">
        <ele>416.4</ele>
        <time>2020-10-17T10:28:14Z</time>
      </trkpt>
      <trkpt lat="46.18451" lon="4.54584">
        <ele>416.6</ele>
        <time>2020-10-17T10:28:15Z</time>
      </trkpt>
      <trkpt lat="46.18453" lon="4.54585">
        <ele>416</ele>
        <time>2020-10-17T10:28:16Z</time>
      </trkpt>
      <trkpt lat="46.18456" lon="4.54585">
        <ele>416</ele>
        <time>2020-10-17T10:28:17Z</time>
      </trkpt>
      <trkpt lat="46.18458" lon="4.54585">
        <ele>416.2</ele>
        <time>2020-10-17T10:28:18Z</time>
      </trkpt>
      <trkpt lat="46.18461" lon="4.54585">
        <ele>415.4</ele>
        <time>2020-10-17T10:28:19Z</time>
      </trkpt>
      <trkpt lat="46.18464" lon="4.54586">
        <ele>415.2</ele>
        <time>2020-10-17T10:28:20Z</time>
      </trkpt>
      <trkpt lat="46.18466" lon="4.54586">
        <ele>415.4</ele>
        <time>2020-10-17T10:28:21Z</time>
      </trkpt>
      <trkpt lat="46.18469" lon="4.54586">
        <ele>414.8</ele>
        <time>2020-10-17T10:28:22Z</time>
      </trkpt>
      <trkpt lat="46.18471" lon="4.54586">
        <ele>414.8</ele>
        <time>2020-10-17T10:28:23Z</time>
      </trkpt>
      <trkpt lat="46.18473" lon="4.54586">
        <ele>414.2</ele>
        <time>2020-10-17T10:28:24Z</time>
      </trkpt>
      <trkpt lat="46.18476" lon="4.54586">
        <ele>413.4</ele>
        <time>2020-10-17T10:28:25Z</time>
      </trkpt>
      <trkpt lat="46.18479" lon="4.54586">
        <ele>412.8</ele>
        <time>2020-10-17T10:28:26Z</time>
      </trkpt>
      <trkpt lat="46.18481" lon="4.54587">
        <ele>412.8</ele>
        <time>2020-10-17T10:28:27Z</time>
      </trkpt>
      <trkpt lat="46.18484" lon="4.54587">
        <ele>412.6</ele>
        <time>2020-10-17T10:28:28Z</time>
      </trkpt>
      <trkpt lat="46.18486" lon="4.54586">
        <ele>412</ele>
        <time>2020-10-17T10:28:29Z</time>
      </trkpt>
      <trkpt lat="46.18489" lon="4.54586">
        <ele>412.2</ele>
        <time>2020-10-17T10:28:30Z</time>
      </trkpt>
      <trkpt lat="46.18491" lon="4.54585">
        <ele>411.8</ele>
        <time>2020-10-17T10:28:31Z</time>
      </trkpt>
      <trkpt lat="46.18493" lon="4.54584">
        <ele>411.2</ele>
        <time>2020-10-17T10:28:32Z</time>
      </trkpt>
      <trkpt lat="46.18495" lon="4.54583">
        <ele>411.4</ele>
        <time>2020-10-17T10:28:33Z</time>
      </trkpt>
      <trkpt lat="46.18498" lon="4.54582">
        <ele>411.2</ele>
        <time>2020-10-17T10:28:34Z</time>
      </trkpt>
      <trkpt lat="46.185" lon="4.54581">
        <ele>410.6</ele>
        <time>2020-10-17T10:28:35Z</time>
      </trkpt>
      <trkpt lat="46.18502" lon="4.5458">
        <ele>410.6</ele>
        <time>2020-10-17T10:28:36Z</time>
      </trkpt>
      <trkpt lat="46.18504" lon="4.54578">
        <ele>410.4</ele>
        <time>2020-10-17T10:28:37Z</time>
      </trkpt>
      <trkpt lat="46.18506" lon="4.54577">
        <ele>410</ele>
        <time>2020-10-17T10:28:38Z</time>
      </trkpt>
      <trkpt lat="46.18508" lon="4.54575">
        <ele>410</ele>
        <time>2020-10-17T10:28:39Z</time>
      </trkpt>
      <trkpt lat="46.1851" lon="4.54574">
        <ele>409.6</ele>
        <time>2020-10-17T10:28:40Z</time>
      </trkpt>
      <trkpt lat="46.18512" lon="4.54573">
        <ele>409.2</ele>
        <time>2020-10-17T10:28:41Z</time>
      </trkpt>
      <trkpt lat="46.18514" lon="4.54571">
        <ele>409</ele>
        <time>2020-10-17T10:28:42Z</time>
      </trkpt>
      <trkpt lat="46.18516" lon="4.5457">
        <ele>408.8</ele>
        <time>2020-10-17T10:28:43Z</time>
      </trkpt>
      <trkpt lat="46.18518" lon="4.54568">
        <ele>408.4</ele>
        <time>2020-10-17T10:28:44Z</time>
      </trkpt>
      <trkpt lat="46.1852" lon="4.54566">
        <ele>408.4</ele>
        <time>2020-10-17T10:28:45Z</time>
      </trkpt>
      <trkpt lat="46.18522" lon="4.54564">
        <ele>408.2</ele>
        <time>2020-10-17T10:28:46Z</time>
      </trkpt>
      <trkpt lat="46.18524" lon="4.54563">
        <ele>408</ele>
        <time>2020-10-17T10:28:47Z</time>
      </trkpt>
      <trkpt lat="46.18527" lon="4.54561">
        <ele>408</ele>
        <time>2020-10-17T10:28:48Z</time>
      </trkpt>
      <trkpt lat="46.18529" lon="4.5456">
        <ele>407.6</ele>
        <time>2020-10-17T10:28:49Z</time>
      </trkpt>
      <trkpt lat="46.18531" lon="4.54559">
        <ele>407.2</ele>
        <time>2020-10-17T10:28:50Z</time>
      </trkpt>
      <trkpt lat="46.18533" lon="4.54559">
        <ele>407.2</ele>
        <time>2020-10-17T10:28:51Z</time>
      </trkpt>
      <trkpt lat="46.18533" lon="4.54559">
        <ele>407.4</ele>
        <time>2020-10-17T10:28:52Z</time>
      </trkpt>
      <trkpt lat="46.18536" lon="4.54558">
        <ele>407</ele>
        <time>2020-10-17T10:28:53Z</time>
      </trkpt>
      <trkpt lat="46.18536" lon="4.54558">
        <ele>407</ele>
        <time>2020-10-17T10:28:54Z</time>
      </trkpt>
      <trkpt lat="46.18538" lon="4.54557">
        <ele>406.8</ele>
        <time>2020-10-17T10:28:55Z</time>
      </trkpt>
      <trkpt lat="46.18538" lon="4.54557">
        <ele>406.6</ele>
        <time>2020-10-17T10:28:56Z</time>
      </trkpt>
      <trkpt lat="46.18541" lon="4.54556">
        <ele>406.6</ele>
        <time>2020-10-17T10:28:57Z</time>
      </trkpt>
      <trkpt lat="46.18541" lon="4.54556">
        <ele>406.6</ele>
        <time>2020-10-17T10:28:58Z</time>
      </trkpt>
      <trkpt lat="46.18544" lon="4.54556">
        <ele>406.4</ele>
        <time>2020-10-17T10:28:59Z</time>
      </trkpt>
      <trkpt lat="46.18544" lon="4.54556">
        <ele>406.4</ele>
        <time>2020-10-17T10:29:00Z</time>
      </trkpt>
      <trkpt lat="46.18547" lon="4.54556">
        <ele>406.2</ele>
        <time>2020-10-17T10:29:01Z</time>
      </trkpt>
      <trkpt lat="46.18547" lon="4.54556">
        <ele>406.4</ele>
        <time>2020-10-17T10:29:02Z</time>
      </trkpt>
      <trkpt lat="46.1855" lon="4.54558">
        <ele>406.4</ele>
        <time>2020-10-17T10:29:03Z</time>
      </trkpt>
      <trkpt lat="46.1855" lon="4.54558">
        <ele>406.4</ele>
        <time>2020-10-17T10:29:04Z</time>
      </trkpt>
      <trkpt lat="46.18553" lon="4.54559">
        <ele>406.4</ele>
        <time>2020-10-17T10:29:05Z</time>
      </trkpt>
      <trkpt lat="46.18553" lon="4.54559">
        <ele>406.4</ele>
        <time>2020-10-17T10:29:06Z</time>
      </trkpt>
      <trkpt lat="46.18555" lon="4.5456">
        <ele>406.6</ele>
        <time>2020-10-17T10:29:07Z</time>
      </trkpt>
      <trkpt lat="46.18557" lon="4.54562">
        <ele>406.4</ele>
        <time>2020-10-17T10:29:08Z</time>
      </trkpt>
      <trkpt lat="46.18559" lon="4.54563">
        <ele>406.4</ele>
        <time>2020-10-17T10:29:09Z</time>
      </trkpt>
      <trkpt lat="46.18559" lon="4.54563">
        <ele>406.4</ele>
        <time>2020-10-17T10:29:10Z</time>
      </trkpt>
      <trkpt lat="46.18561" lon="4.54566">
        <ele>406.4</ele>
        <time>2020-10-17T10:29:11Z</time>
      </trkpt>
      <trkpt lat="46.18561" lon="4.54566">
        <ele>406.6</ele>
        <time>2020-10-17T10:29:12Z</time>
      </trkpt>
      <trkpt lat="46.18564" lon="4.54568">
        <ele>406.2</ele>
        <time>2020-10-17T10:29:13Z</time>
      </trkpt>
      <trkpt lat="46.18564" lon="4.54568">
        <ele>406</ele>
        <time>2020-10-17T10:29:14Z</time>
      </trkpt>
      <trkpt lat="46.18567" lon="4.54571">
        <ele>405.8</ele>
        <time>2020-10-17T10:29:15Z</time>
      </trkpt>
      <trkpt lat="46.18569" lon="4.54573">
        <ele>406</ele>
        <time>2020-10-17T10:29:16Z</time>
      </trkpt>
      <trkpt lat="46.18569" lon="4.54573">
        <ele>406</ele>
        <time>2020-10-17T10:29:17Z</time>
      </trkpt>
      <trkpt lat="46.18572" lon="4.54576">
        <ele>406</ele>
        <time>2020-10-17T10:29:18Z</time>
      </trkpt>
      <trkpt lat="46.18572" lon="4.54576">
        <ele>406</ele>
        <time>2020-10-17T10:29:19Z</time>
      </trkpt>
      <trkpt lat="46.18574" lon="4.54579">
        <ele>405.8</ele>
        <time>2020-10-17T10:29:20Z</time>
      </trkpt>
      <trkpt lat="46.18576" lon="4.54581">
        <ele>406</ele>
        <time>2020-10-17T10:29:21Z</time>
      </trkpt>
      <trkpt lat="46.18576" lon="4.54581">
        <ele>406</ele>
        <time>2020-10-17T10:29:22Z</time>
      </trkpt>
      <trkpt lat="46.18578" lon="4.54583">
        <ele>406.2</ele>
        <time>2020-10-17T10:29:23Z</time>
      </trkpt>
      <trkpt lat="46.1858" lon="4.54585">
        <ele>406.2</ele>
        <time>2020-10-17T10:29:24Z</time>
      </trkpt>
      <trkpt lat="46.1858" lon="4.54585">
        <ele>406.4</ele>
        <time>2020-10-17T10:29:25Z</time>
      </trkpt>
      <trkpt lat="46.18583" lon="4.54588">
        <ele>406.4</ele>
        <time>2020-10-17T10:29:26Z</time>
      </trkpt>
      <trkpt lat="46.18584" lon="4.5459">
        <ele>406.6</ele>
        <time>2020-10-17T10:29:27Z</time>
      </trkpt>
      <trkpt lat="46.18586" lon="4.54592">
        <ele>406.8</ele>
        <time>2020-10-17T10:29:28Z</time>
      </trkpt>
      <trkpt lat="46.18586" lon="4.54592">
        <ele>407.4</ele>
        <time>2020-10-17T10:29:29Z</time>
      </trkpt>
      <trkpt lat="46.18589" lon="4.54594">
        <ele>407.6</ele>
        <time>2020-10-17T10:29:30Z</time>
      </trkpt>
      <trkpt lat="46.18589" lon="4.54594">
        <ele>407.8</ele>
        <time>2020-10-17T10:29:31Z</time>
      </trkpt>
      <trkpt lat="46.18591" lon="4.54596">
        <ele>408</ele>
        <time>2020-10-17T10:29:32Z</time>
      </trkpt>
      <trkpt lat="46.18591" lon="4.54596">
        <ele>408.2</ele>
        <time>2020-10-17T10:29:33Z</time>
      </trkpt>
      <trkpt lat="46.18594" lon="4.54599">
        <ele>408.2</ele>
        <time>2020-10-17T10:29:34Z</time>
      </trkpt>
      <trkpt lat="46.18594" lon="4.54599">
        <ele>408.4</ele>
        <time>2020-10-17T10:29:35Z</time>
      </trkpt>
      <trkpt lat="46.18596" lon="4.54601">
        <ele>408.6</ele>
        <time>2020-10-17T10:29:36Z</time>
      </trkpt>
      <trkpt lat="46.18596" lon="4.54601">
        <ele>408.8</ele>
        <time>2020-10-17T10:29:37Z</time>
      </trkpt>
      <trkpt lat="46.18599" lon="4.54602">
        <ele>409</ele>
        <time>2020-10-17T10:29:38Z</time>
      </trkpt>
      <trkpt lat="46.18599" lon="4.54602">
        <ele>409.2</ele>
        <time>2020-10-17T10:29:39Z</time>
      </trkpt>
      <trkpt lat="46.18601" lon="4.54605">
        <ele>409.2</ele>
        <time>2020-10-17T10:29:40Z</time>
      </trkpt>
      <trkpt lat="46.18601" lon="4.54605">
        <ele>409.4</ele>
        <time>2020-10-17T10:29:41Z</time>
      </trkpt>
      <trkpt lat="46.18603" lon="4.54607">
        <ele>409.4</ele>
        <time>2020-10-17T10:29:42Z</time>
      </trkpt>
      <trkpt lat="46.18603" lon="4.54607">
        <ele>409.6</ele>
        <time>2020-10-17T10:29:43Z</time>
      </trkpt>
      <trkpt lat="46.18606" lon="4.54609">
        <ele>409.6</ele>
        <time>2020-10-17T10:29:44Z</time>
      </trkpt>
      <trkpt lat="46.18606" lon="4.54609">
        <ele>409.6</ele>
        <time>2020-10-17T10:29:45Z</time>
      </trkpt>
      <trkpt lat="46.18608" lon="4.5461">
        <ele>410</ele>
        <time>2020-10-17T10:29:46Z</time>
      </trkpt>
      <trkpt lat="46.18608" lon="4.5461">
        <ele>410.2</ele>
        <time>2020-10-17T10:29:47Z</time>
      </trkpt>
      <trkpt lat="46.1861" lon="4.54612">
        <ele>410.4</ele>
        <time>2020-10-17T10:29:48Z</time>
      </trkpt>
      <trkpt lat="46.1861" lon="4.54612">
        <ele>410.6</ele>
        <time>2020-10-17T10:29:49Z</time>
      </trkpt>
      <trkpt lat="46.18612" lon="4.54614">
        <ele>411</ele>
        <time>2020-10-17T10:29:50Z</time>
      </trkpt>
      <trkpt lat="46.18612" lon="4.54614">
        <ele>411.4</ele>
        <time>2020-10-17T10:29:51Z</time>
      </trkpt>
      <trkpt lat="46.18615" lon="4.54616">
        <ele>411.4</ele>
        <time>2020-10-17T10:29:52Z</time>
      </trkpt>
      <trkpt lat="46.18617" lon="4.54617">
        <ele>411.6</ele>
        <time>2020-10-17T10:29:53Z</time>
      </trkpt>
      <trkpt lat="46.18617" lon="4.54617">
        <ele>411.6</ele>
        <time>2020-10-17T10:29:54Z</time>
      </trkpt>
      <trkpt lat="46.1862" lon="4.5462">
        <ele>411.8</ele>
        <time>2020-10-17T10:29:55Z</time>
      </trkpt>
      <trkpt lat="46.1862" lon="4.5462">
        <ele>412.2</ele>
        <time>2020-10-17T10:29:56Z</time>
      </trkpt>
      <trkpt lat="46.18623" lon="4.54622">
        <ele>412.4</ele>
        <time>2020-10-17T10:29:57Z</time>
      </trkpt>
      <trkpt lat="46.18623" lon="4.54622">
        <ele>412.6</ele>
        <time>2020-10-17T10:29:58Z</time>
      </trkpt>
      <trkpt lat="46.18626" lon="4.54624">
        <ele>412.8</ele>
        <time>2020-10-17T10:29:59Z</time>
      </trkpt>
      <trkpt lat="46.18626" lon="4.54624">
        <ele>412.8</ele>
        <time>2020-10-17T10:30:00Z</time>
      </trkpt>
      <trkpt lat="46.18628" lon="4.54626">
        <ele>413</ele>
        <time>2020-10-17T10:30:01Z</time>
      </trkpt>
      <trkpt lat="46.18628" lon="4.54626">
        <ele>413</ele>
        <time>2020-10-17T10:30:02Z</time>
      </trkpt>
      <trkpt lat="46.18631" lon="4.54629">
        <ele>413</ele>
        <time>2020-10-17T10:30:03Z</time>
      </trkpt>
      <trkpt lat="46.18631" lon="4.54629">
        <ele>413</ele>
        <time>2020-10-17T10:30:04Z</time>
      </trkpt>
      <trkpt lat="46.18634" lon="4.5463">
        <ele>413.2</ele>
        <time>2020-10-17T10:30:05Z</time>
      </trkpt>
      <trkpt lat="46.18634" lon="4.5463">
        <ele>413.2</ele>
        <time>2020-10-17T10:30:06Z</time>
      </trkpt>
      <trkpt lat="46.18637" lon="4.54632">
        <ele>413.6</ele>
        <time>2020-10-17T10:30:07Z</time>
      </trkpt>
      <trkpt lat="46.18637" lon="4.54632">
        <ele>413.6</ele>
        <time>2020-10-17T10:30:08Z</time>
      </trkpt>
      <trkpt lat="46.1864" lon="4.54634">
        <ele>414</ele>
        <time>2020-10-17T10:30:09Z</time>
      </trkpt>
      <trkpt lat="46.1864" lon="4.54634">
        <ele>414.4</ele>
        <time>2020-10-17T10:30:10Z</time>
      </trkpt>
      <trkpt lat="46.18642" lon="4.54636">
        <ele>414.6</ele>
        <time>2020-10-17T10:30:11Z</time>
      </trkpt>
      <trkpt lat="46.18642" lon="4.54636">
        <ele>414.6</ele>
        <time>2020-10-17T10:30:12Z</time>
      </trkpt>
      <trkpt lat="46.18645" lon="4.54637">
        <ele>414.8</ele>
        <time>2020-10-17T10:30:13Z</time>
      </trkpt>
      <trkpt lat="46.18645" lon="4.54637">
        <ele>415</ele>
        <time>2020-10-17T10:30:14Z</time>
      </trkpt>
      <trkpt lat="46.18647" lon="4.54639">
        <ele>415.2</ele>
        <time>2020-10-17T10:30:15Z</time>
      </trkpt>
      <trkpt lat="46.18647" lon="4.54639">
        <ele>415.2</ele>
        <time>2020-10-17T10:30:16Z</time>
      </trkpt>
      <trkpt lat="46.1865" lon="4.5464">
        <ele>415.4</ele>
        <time>2020-10-17T10:30:17Z</time>
      </trkpt>
      <trkpt lat="46.1865" lon="4.5464">
        <ele>415.8</ele>
        <time>2020-10-17T10:30:18Z</time>
      </trkpt>
      <trkpt lat="46.18652" lon="4.54641">
        <ele>416</ele>
        <time>2020-10-17T10:30:19Z</time>
      </trkpt>
      <trkpt lat="46.18652" lon="4.54641">
        <ele>416.2</ele>
        <time>2020-10-17T10:30:20Z</time>
      </trkpt>
      <trkpt lat="46.18655" lon="4.54643">
        <ele>416.2</ele>
        <time>2020-10-17T10:30:21Z</time>
      </trkpt>
      <trkpt lat="46.18655" lon="4.54643">
        <ele>416.4</ele>
        <time>2020-10-17T10:30:22Z</time>
      </trkpt>
      <trkpt lat="46.18657" lon="4.54644">
        <ele>416.4</ele>
        <time>2020-10-17T10:30:23Z</time>
      </trkpt>
      <trkpt lat="46.18657" lon="4.54644">
        <ele>416.4</ele>
        <time>2020-10-17T10:30:24Z</time>
      </trkpt>
      <trkpt lat="46.1866" lon="4.54646">
        <ele>416.4</ele>
        <time>2020-10-17T10:30:25Z</time>
      </trkpt>
      <trkpt lat="46.1866" lon="4.54646">
        <ele>416.6</ele>
        <time>2020-10-17T10:30:26Z</time>
      </trkpt>
      <trkpt lat="46.18662" lon="4.54647">
        <ele>416.6</ele>
        <time>2020-10-17T10:30:27Z</time>
      </trkpt>
      <trkpt lat="46.18662" lon="4.54647">
        <ele>417</ele>
        <time>2020-10-17T10:30:28Z</time>
      </trkpt>
      <trkpt lat="46.18665" lon="4.54649">
        <ele>417.4</ele>
        <time>2020-10-17T10:30:29Z</time>
      </trkpt>
      <trkpt lat="46.18665" lon="4.54649">
        <ele>417.8</ele>
        <time>2020-10-17T10:30:30Z</time>
      </trkpt>
      <trkpt lat="46.18668" lon="4.54651">
        <ele>417.8</ele>
        <time>2020-10-17T10:30:31Z</time>
      </trkpt>
      <trkpt lat="46.18668" lon="4.54651">
        <ele>418</ele>
        <time>2020-10-17T10:30:32Z</time>
      </trkpt>
      <trkpt lat="46.18671" lon="4.54653">
        <ele>418.2</ele>
        <time>2020-10-17T10:30:33Z</time>
      </trkpt>
      <trkpt lat="46.18671" lon="4.54653">
        <ele>418.6</ele>
        <time>2020-10-17T10:30:34Z</time>
      </trkpt>
      <trkpt lat="46.18673" lon="4.54655">
        <ele>418.8</ele>
        <time>2020-10-17T10:30:35Z</time>
      </trkpt>
      <trkpt lat="46.18673" lon="4.54655">
        <ele>419.2</ele>
        <time>2020-10-17T10:30:36Z</time>
      </trkpt>
      <trkpt lat="46.18676" lon="4.54656">
        <ele>419.4</ele>
        <time>2020-10-17T10:30:37Z</time>
      </trkpt>
      <trkpt lat="46.18676" lon="4.54656">
        <ele>419.8</ele>
        <time>2020-10-17T10:30:38Z</time>
      </trkpt>
      <trkpt lat="46.18679" lon="4.54657">
        <ele>419.8</ele>
        <time>2020-10-17T10:30:39Z</time>
      </trkpt>
      <trkpt lat="46.18679" lon="4.54657">
        <ele>420</ele>
        <time>2020-10-17T10:30:40Z</time>
      </trkpt>
      <trkpt lat="46.18681" lon="4.54657">
        <ele>420</ele>
        <time>2020-10-17T10:30:41Z</time>
      </trkpt>
      <trkpt lat="46.18681" lon="4.54657">
        <ele>420.4</ele>
        <time>2020-10-17T10:30:42Z</time>
      </trkpt>
      <trkpt lat="46.18684" lon="4.54657">
        <ele>420.6</ele>
        <time>2020-10-17T10:30:43Z</time>
      </trkpt>
      <trkpt lat="46.18684" lon="4.54657">
        <ele>420.8</ele>
        <time>2020-10-17T10:30:44Z</time>
      </trkpt>
      <trkpt lat="46.18687" lon="4.54657">
        <ele>421</ele>
        <time>2020-10-17T10:30:45Z</time>
      </trkpt>
      <trkpt lat="46.18687" lon="4.54657">
        <ele>421.4</ele>
        <time>2020-10-17T10:30:46Z</time>
      </trkpt>
      <trkpt lat="46.1869" lon="4.54656">
        <ele>421.2</ele>
        <time>2020-10-17T10:30:47Z</time>
      </trkpt>
      <trkpt lat="46.1869" lon="4.54656">
        <ele>421.4</ele>
        <time>2020-10-17T10:30:48Z</time>
      </trkpt>
      <trkpt lat="46.18694" lon="4.54656">
        <ele>421.4</ele>
        <time>2020-10-17T10:30:49Z</time>
      </trkpt>
      <trkpt lat="46.18694" lon="4.54656">
        <ele>421.6</ele>
        <time>2020-10-17T10:30:50Z</time>
      </trkpt>
      <trkpt lat="46.18697" lon="4.54654">
        <ele>421.8</ele>
        <time>2020-10-17T10:30:51Z</time>
      </trkpt>
      <trkpt lat="46.18697" lon="4.54654">
        <ele>422.2</ele>
        <time>2020-10-17T10:30:52Z</time>
      </trkpt>
      <trkpt lat="46.187" lon="4.54652">
        <ele>422.4</ele>
        <time>2020-10-17T10:30:53Z</time>
      </trkpt>
      <trkpt lat="46.187" lon="4.54652">
        <ele>422.4</ele>
        <time>2020-10-17T10:30:54Z</time>
      </trkpt>
      <trkpt lat="46.18702" lon="4.5465">
        <ele>422.6</ele>
        <time>2020-10-17T10:30:55Z</time>
      </trkpt>
      <trkpt lat="46.18702" lon="4.5465">
        <ele>422.6</ele>
        <time>2020-10-17T10:30:56Z</time>
      </trkpt>
      <trkpt lat="46.18702" lon="4.5465">
        <ele>422.8</ele>
        <time>2020-10-17T10:30:57Z</time>
      </trkpt>
      <trkpt lat="46.18704" lon="4.54648">
        <ele>423.2</ele>
        <time>2020-10-17T10:30:58Z</time>
      </trkpt>
      <trkpt lat="46.18704" lon="4.54648">
        <ele>423.6</ele>
        <time>2020-10-17T10:30:59Z</time>
      </trkpt>
      <trkpt lat="46.18704" lon="4.54648">
        <ele>424</ele>
        <time>2020-10-17T10:31:00Z</time>
      </trkpt>
      <trkpt lat="46.18704" lon="4.54648">
        <ele>424.2</ele>
        <time>2020-10-17T10:31:01Z</time>
      </trkpt>
      <trkpt lat="46.18704" lon="4.54648">
        <ele>424.4</ele>
        <time>2020-10-17T10:31:02Z</time>
      </trkpt>
      <trkpt lat="46.18704" lon="4.54648">
        <ele>424.6</ele>
        <time>2020-10-17T10:31:03Z</time>
      </trkpt>
      <trkpt lat="46.18704" lon="4.54648">
        <ele>424.8</ele>
        <time>2020-10-17T10:31:04Z</time>
      </trkpt>
      <trkpt lat="46.18704" lon="4.54648">
        <ele>424.8</ele>
        <time>2020-10-17T10:31:05Z</time>
      </trkpt>
      <trkpt lat="46.18704" lon="4.54648">
        <ele>425</ele>
        <time>2020-10-17T10:31:06Z</time>
      </trkpt>
      <trkpt lat="46.18704" lon="4.54648">
        <ele>425</ele>
        <time>2020-10-17T10:31:07Z</time>
      </trkpt>
      <trkpt lat="46.18704" lon="4.54648">
        <ele>424.8</ele>
        <time>2020-10-17T10:31:08Z</time>
      </trkpt>
      <trkpt lat="46.18704" lon="4.54648">
        <ele>424.8</ele>
        <time>2020-10-17T10:31:09Z</time>
      </trkpt>
      <trkpt lat="46.18706" lon="4.5465">
        <ele>424.8</ele>
        <time>2020-10-17T10:31:10Z</time>
      </trkpt>
      <trkpt lat="46.18706" lon="4.5465">
        <ele>425</ele>
        <time>2020-10-17T10:31:11Z</time>
      </trkpt>
      <trkpt lat="46.18706" lon="4.5465">
        <ele>424.8</ele>
        <time>2020-10-17T10:31:12Z</time>
      </trkpt>
      <trkpt lat="46.18706" lon="4.5465">
        <ele>424.6</ele>
        <time>2020-10-17T10:31:13Z</time>
      </trkpt>
      <trkpt lat="46.18706" lon="4.5465">
        <ele>424.4</ele>
        <time>2020-10-17T10:31:14Z</time>
      </trkpt>
      <trkpt lat="46.18706" lon="4.5465">
        <ele>424.6</ele>
        <time>2020-10-17T10:31:15Z</time>
      </trkpt>
      <trkpt lat="46.18708" lon="4.5465">
        <ele>424.6</ele>
        <time>2020-10-17T10:31:16Z</time>
      </trkpt>
      <trkpt lat="46.18708" lon="4.5465">
        <ele>424.6</ele>
        <time>2020-10-17T10:31:17Z</time>
      </trkpt>
      <trkpt lat="46.1871" lon="4.54649">
        <ele>424.6</ele>
        <time>2020-10-17T10:31:18Z</time>
      </trkpt>
      <trkpt lat="46.1871" lon="4.54649">
        <ele>424.6</ele>
        <time>2020-10-17T10:31:19Z</time>
      </trkpt>
      <trkpt lat="46.1871" lon="4.54649">
        <ele>424.6</ele>
        <time>2020-10-17T10:31:20Z</time>
      </trkpt>
      <trkpt lat="46.1871" lon="4.54649">
        <ele>424.6</ele>
        <time>2020-10-17T10:31:21Z</time>
      </trkpt>
      <trkpt lat="46.1871" lon="4.54649">
        <ele>424.6</ele>
        <time>2020-10-17T10:31:22Z</time>
      </trkpt>
      <trkpt lat="46.18712" lon="4.54648">
        <ele>424.6</ele>
        <time>2020-10-17T10:31:23Z</time>
      </trkpt>
      <trkpt lat="46.18712" lon="4.54648">
        <ele>424.6</ele>
        <time>2020-10-17T10:31:24Z</time>
      </trkpt>
      <trkpt lat="46.18714" lon="4.54649">
        <ele>424.6</ele>
        <time>2020-10-17T10:31:25Z</time>
      </trkpt>
      <trkpt lat="46.18714" lon="4.54649">
        <ele>424.6</ele>
        <time>2020-10-17T10:31:26Z</time>
      </trkpt>
      <trkpt lat="46.18716" lon="4.54651">
        <ele>424.6</ele>
        <time>2020-10-17T10:31:27Z</time>
      </trkpt>
      <trkpt lat="46.18716" lon="4.54651">
        <ele>425</ele>
        <time>2020-10-17T10:31:28Z</time>
      </trkpt>
      <trkpt lat="46.1872" lon="4.54654">
        <ele>424.6</ele>
        <time>2020-10-17T10:31:29Z</time>
      </trkpt>
      <trkpt lat="46.18722" lon="4.54656">
        <ele>424.6</ele>
        <time>2020-10-17T10:31:30Z</time>
      </trkpt>
      <trkpt lat="46.18724" lon="4.54657">
        <ele>424.8</ele>
        <time>2020-10-17T10:31:31Z</time>
      </trkpt>
      <trkpt lat="46.18726" lon="4.54659">
        <ele>424.6</ele>
        <time>2020-10-17T10:31:32Z</time>
      </trkpt>
      <trkpt lat="46.18729" lon="4.5466">
        <ele>424.6</ele>
        <time>2020-10-17T10:31:33Z</time>
      </trkpt>
      <trkpt lat="46.18731" lon="4.54661">
        <ele>424.8</ele>
        <time>2020-10-17T10:31:34Z</time>
      </trkpt>
      <trkpt lat="46.18733" lon="4.54663">
        <ele>424.6</ele>
        <time>2020-10-17T10:31:35Z</time>
      </trkpt>
      <trkpt lat="46.18735" lon="4.54665">
        <ele>424.4</ele>
        <time>2020-10-17T10:31:36Z</time>
      </trkpt>
      <trkpt lat="46.18737" lon="4.54667">
        <ele>424.6</ele>
        <time>2020-10-17T10:31:37Z</time>
      </trkpt>
      <trkpt lat="46.18739" lon="4.54669">
        <ele>424.2</ele>
        <time>2020-10-17T10:31:38Z</time>
      </trkpt>
      <trkpt lat="46.18741" lon="4.54671">
        <ele>424</ele>
        <time>2020-10-17T10:31:39Z</time>
      </trkpt>
      <trkpt lat="46.18744" lon="4.54672">
        <ele>424.4</ele>
        <time>2020-10-17T10:31:40Z</time>
      </trkpt>
      <trkpt lat="46.18746" lon="4.54673">
        <ele>424</ele>
        <time>2020-10-17T10:31:41Z</time>
      </trkpt>
      <trkpt lat="46.18749" lon="4.54675">
        <ele>423.6</ele>
        <time>2020-10-17T10:31:42Z</time>
      </trkpt>
      <trkpt lat="46.18751" lon="4.54677">
        <ele>423.8</ele>
        <time>2020-10-17T10:31:43Z</time>
      </trkpt>
      <trkpt lat="46.18753" lon="4.54678">
        <ele>423.4</ele>
        <time>2020-10-17T10:31:44Z</time>
      </trkpt>
      <trkpt lat="46.18755" lon="4.5468">
        <ele>423</ele>
        <time>2020-10-17T10:31:45Z</time>
      </trkpt>
      <trkpt lat="46.18757" lon="4.54682">
        <ele>423.4</ele>
        <time>2020-10-17T10:31:46Z</time>
      </trkpt>
      <trkpt lat="46.18759" lon="4.54683">
        <ele>423.2</ele>
        <time>2020-10-17T10:31:47Z</time>
      </trkpt>
      <trkpt lat="46.18762" lon="4.54684">
        <ele>422.8</ele>
        <time>2020-10-17T10:31:48Z</time>
      </trkpt>
      <trkpt lat="46.18764" lon="4.54686">
        <ele>423</ele>
        <time>2020-10-17T10:31:49Z</time>
      </trkpt>
      <trkpt lat="46.18767" lon="4.54687">
        <ele>422.8</ele>
        <time>2020-10-17T10:31:50Z</time>
      </trkpt>
      <trkpt lat="46.18769" lon="4.54688">
        <ele>422.8</ele>
        <time>2020-10-17T10:31:51Z</time>
      </trkpt>
      <trkpt lat="46.18772" lon="4.54689">
        <ele>423.2</ele>
        <time>2020-10-17T10:31:52Z</time>
      </trkpt>
      <trkpt lat="46.18774" lon="4.5469">
        <ele>422.8</ele>
        <time>2020-10-17T10:31:53Z</time>
      </trkpt>
      <trkpt lat="46.18777" lon="4.5469">
        <ele>422.8</ele>
        <time>2020-10-17T10:31:54Z</time>
      </trkpt>
      <trkpt lat="46.18779" lon="4.54691">
        <ele>423.2</ele>
        <time>2020-10-17T10:31:55Z</time>
      </trkpt>
      <trkpt lat="46.18781" lon="4.54691">
        <ele>422.8</ele>
        <time>2020-10-17T10:31:56Z</time>
      </trkpt>
      <trkpt lat="46.18784" lon="4.54692">
        <ele>422.6</ele>
        <time>2020-10-17T10:31:57Z</time>
      </trkpt>
      <trkpt lat="46.18787" lon="4.54692">
        <ele>423</ele>
        <time>2020-10-17T10:31:58Z</time>
      </trkpt>
      <trkpt lat="46.18789" lon="4.54693">
        <ele>422.6</ele>
        <time>2020-10-17T10:31:59Z</time>
      </trkpt>
      <trkpt lat="46.18792" lon="4.54693">
        <ele>422</ele>
        <time>2020-10-17T10:32:00Z</time>
      </trkpt>
      <trkpt lat="46.18794" lon="4.54694">
        <ele>422.4</ele>
        <time>2020-10-17T10:32:01Z</time>
      </trkpt>
      <trkpt lat="46.18796" lon="4.54694">
        <ele>422</ele>
        <time>2020-10-17T10:32:02Z</time>
      </trkpt>
      <trkpt lat="46.18799" lon="4.54695">
        <ele>421.4</ele>
        <time>2020-10-17T10:32:03Z</time>
      </trkpt>
      <trkpt lat="46.18802" lon="4.54695">
        <ele>421.8</ele>
        <time>2020-10-17T10:32:04Z</time>
      </trkpt>
      <trkpt lat="46.18804" lon="4.54695">
        <ele>421.4</ele>
        <time>2020-10-17T10:32:05Z</time>
      </trkpt>
      <trkpt lat="46.18807" lon="4.54695">
        <ele>421</ele>
        <time>2020-10-17T10:32:06Z</time>
      </trkpt>
      <trkpt lat="46.18809" lon="4.54694">
        <ele>421.2</ele>
        <time>2020-10-17T10:32:07Z</time>
      </trkpt>
      <trkpt lat="46.18811" lon="4.54693">
        <ele>420.8</ele>
        <time>2020-10-17T10:32:08Z</time>
      </trkpt>
      <trkpt lat="46.18814" lon="4.54692">
        <ele>420.2</ele>
        <time>2020-10-17T10:32:09Z</time>
      </trkpt>
      <trkpt lat="46.18816" lon="4.54691">
        <ele>420.6</ele>
        <time>2020-10-17T10:32:10Z</time>
      </trkpt>
      <trkpt lat="46.18819" lon="4.54689">
        <ele>420.2</ele>
        <time>2020-10-17T10:32:11Z</time>
      </trkpt>
      <trkpt lat="46.18821" lon="4.54688">
        <ele>419.8</ele>
        <time>2020-10-17T10:32:12Z</time>
      </trkpt>
      <trkpt lat="46.18823" lon="4.54686">
        <ele>420</ele>
        <time>2020-10-17T10:32:13Z</time>
      </trkpt>
      <trkpt lat="46.18825" lon="4.54684">
        <ele>419.8</ele>
        <time>2020-10-17T10:32:14Z</time>
      </trkpt>
      <trkpt lat="46.18827" lon="4.54682">
        <ele>419.6</ele>
        <time>2020-10-17T10:32:15Z</time>
      </trkpt>
      <trkpt lat="46.1883" lon="4.54681">
        <ele>419.8</ele>
        <time>2020-10-17T10:32:16Z</time>
      </trkpt>
      <trkpt lat="46.18831" lon="4.5468">
        <ele>419.8</ele>
        <time>2020-10-17T10:32:17Z</time>
      </trkpt>
      <trkpt lat="46.18831" lon="4.5468">
        <ele>419.6</ele>
        <time>2020-10-17T10:32:18Z</time>
      </trkpt>
      <trkpt lat="46.18834" lon="4.54678">
        <ele>419.6</ele>
        <time>2020-10-17T10:32:19Z</time>
      </trkpt>
      <trkpt lat="46.18834" lon="4.54678">
        <ele>419.2</ele>
        <time>2020-10-17T10:32:20Z</time>
      </trkpt>
      <trkpt lat="46.18837" lon="4.54676">
        <ele>419.2</ele>
        <time>2020-10-17T10:32:21Z</time>
      </trkpt>
      <trkpt lat="46.18837" lon="4.54676">
        <ele>419.2</ele>
        <time>2020-10-17T10:32:22Z</time>
      </trkpt>
      <trkpt lat="46.1884" lon="4.54674">
        <ele>419.2</ele>
        <time>2020-10-17T10:32:23Z</time>
      </trkpt>
      <trkpt lat="46.1884" lon="4.54674">
        <ele>419.2</ele>
        <time>2020-10-17T10:32:24Z</time>
      </trkpt>
      <trkpt lat="46.18842" lon="4.54672">
        <ele>419.2</ele>
        <time>2020-10-17T10:32:25Z</time>
      </trkpt>
      <trkpt lat="46.18842" lon="4.54672">
        <ele>419</ele>
        <time>2020-10-17T10:32:26Z</time>
      </trkpt>
      <trkpt lat="46.18845" lon="4.5467">
        <ele>418.8</ele>
        <time>2020-10-17T10:32:27Z</time>
      </trkpt>
      <trkpt lat="46.18845" lon="4.5467">
        <ele>419</ele>
        <time>2020-10-17T10:32:28Z</time>
      </trkpt>
      <trkpt lat="46.18848" lon="4.54669">
        <ele>419</ele>
        <time>2020-10-17T10:32:29Z</time>
      </trkpt>
      <trkpt lat="46.18848" lon="4.54669">
        <ele>419.2</ele>
        <time>2020-10-17T10:32:30Z</time>
      </trkpt>
      <trkpt lat="46.1885" lon="4.54668">
        <ele>419.4</ele>
        <time>2020-10-17T10:32:31Z</time>
      </trkpt>
      <trkpt lat="46.1885" lon="4.54668">
        <ele>419.6</ele>
        <time>2020-10-17T10:32:32Z</time>
      </trkpt>
      <trkpt lat="46.1885" lon="4.54668">
        <ele>419.6</ele>
        <time>2020-10-17T10:32:33Z</time>
      </trkpt>
      <trkpt lat="46.1885" lon="4.54668">
        <ele>419.4</ele>
        <time>2020-10-17T10:32:34Z</time>
      </trkpt>
      <trkpt lat="46.1885" lon="4.54668">
        <ele>419.2</ele>
        <time>2020-10-17T10:32:35Z</time>
      </trkpt>
      <trkpt lat="46.18853" lon="4.54666">
        <ele>419</ele>
        <time>2020-10-17T10:32:36Z</time>
      </trkpt>
      <trkpt lat="46.18853" lon="4.54666">
        <ele>419</ele>
        <time>2020-10-17T10:32:37Z</time>
      </trkpt>
      <trkpt lat="46.18856" lon="4.54664">
        <ele>419</ele>
        <time>2020-10-17T10:32:38Z</time>
      </trkpt>
      <trkpt lat="46.18856" lon="4.54664">
        <ele>419</ele>
        <time>2020-10-17T10:32:39Z</time>
      </trkpt>
      <trkpt lat="46.18858" lon="4.54664">
        <ele>418.8</ele>
        <time>2020-10-17T10:32:40Z</time>
      </trkpt>
      <trkpt lat="46.18858" lon="4.54664">
        <ele>418.6</ele>
        <time>2020-10-17T10:32:41Z</time>
      </trkpt>
      <trkpt lat="46.18861" lon="4.54661">
        <ele>418.6</ele>
        <time>2020-10-17T10:32:42Z</time>
      </trkpt>
      <trkpt lat="46.18861" lon="4.54661">
        <ele>418.6</ele>
        <time>2020-10-17T10:32:43Z</time>
      </trkpt>
      <trkpt lat="46.18864" lon="4.5466">
        <ele>418.6</ele>
        <time>2020-10-17T10:32:44Z</time>
      </trkpt>
      <trkpt lat="46.18864" lon="4.5466">
        <ele>418.6</ele>
        <time>2020-10-17T10:32:45Z</time>
      </trkpt>
      <trkpt lat="46.18867" lon="4.54657">
        <ele>418.8</ele>
        <time>2020-10-17T10:32:46Z</time>
      </trkpt>
      <trkpt lat="46.18867" lon="4.54657">
        <ele>418.6</ele>
        <time>2020-10-17T10:32:47Z</time>
      </trkpt>
      <trkpt lat="46.18869" lon="4.54656">
        <ele>418.4</ele>
        <time>2020-10-17T10:32:48Z</time>
      </trkpt>
      <trkpt lat="46.18869" lon="4.54656">
        <ele>418.6</ele>
        <time>2020-10-17T10:32:49Z</time>
      </trkpt>
      <trkpt lat="46.18872" lon="4.54654">
        <ele>418.4</ele>
        <time>2020-10-17T10:32:50Z</time>
      </trkpt>
      <trkpt lat="46.18872" lon="4.54654">
        <ele>418.2</ele>
        <time>2020-10-17T10:32:51Z</time>
      </trkpt>
      <trkpt lat="46.18875" lon="4.54653">
        <ele>418.2</ele>
        <time>2020-10-17T10:32:52Z</time>
      </trkpt>
      <trkpt lat="46.18875" lon="4.54653">
        <ele>418.2</ele>
        <time>2020-10-17T10:32:53Z</time>
      </trkpt>
      <trkpt lat="46.18878" lon="4.54652">
        <ele>418.2</ele>
        <time>2020-10-17T10:32:54Z</time>
      </trkpt>
      <trkpt lat="46.18878" lon="4.54652">
        <ele>418.2</ele>
        <time>2020-10-17T10:32:55Z</time>
      </trkpt>
      <trkpt lat="46.18881" lon="4.54652">
        <ele>418.4</ele>
        <time>2020-10-17T10:32:56Z</time>
      </trkpt>
      <trkpt lat="46.18881" lon="4.54652">
        <ele>418.4</ele>
        <time>2020-10-17T10:32:57Z</time>
      </trkpt>
      <trkpt lat="46.18883" lon="4.54651">
        <ele>418.4</ele>
        <time>2020-10-17T10:32:58Z</time>
      </trkpt>
      <trkpt lat="46.18883" lon="4.54651">
        <ele>418.4</ele>
        <time>2020-10-17T10:32:59Z</time>
      </trkpt>
      <trkpt lat="46.18887" lon="4.54652">
        <ele>418.4</ele>
        <time>2020-10-17T10:33:00Z</time>
      </trkpt>
      <trkpt lat="46.18889" lon="4.54652">
        <ele>418.6</ele>
        <time>2020-10-17T10:33:01Z</time>
      </trkpt>
      <trkpt lat="46.18889" lon="4.54652">
        <ele>418.6</ele>
        <time>2020-10-17T10:33:02Z</time>
      </trkpt>
      <trkpt lat="46.18891" lon="4.54653">
        <ele>418.8</ele>
        <time>2020-10-17T10:33:03Z</time>
      </trkpt>
      <trkpt lat="46.18891" lon="4.54653">
        <ele>418.8</ele>
        <time>2020-10-17T10:33:04Z</time>
      </trkpt>
      <trkpt lat="46.18895" lon="4.54654">
        <ele>418.8</ele>
        <time>2020-10-17T10:33:05Z</time>
      </trkpt>
      <trkpt lat="46.18895" lon="4.54654">
        <ele>418.6</ele>
        <time>2020-10-17T10:33:06Z</time>
      </trkpt>
      <trkpt lat="46.18898" lon="4.54655">
        <ele>418.6</ele>
        <time>2020-10-17T10:33:07Z</time>
      </trkpt>
      <trkpt lat="46.18898" lon="4.54655">
        <ele>418.4</ele>
        <time>2020-10-17T10:33:08Z</time>
      </trkpt>
      <trkpt lat="46.18902" lon="4.54655">
        <ele>418.4</ele>
        <time>2020-10-17T10:33:09Z</time>
      </trkpt>
      <trkpt lat="46.18902" lon="4.54655">
        <ele>418.4</ele>
        <time>2020-10-17T10:33:10Z</time>
      </trkpt>
      <trkpt lat="46.18905" lon="4.54655">
        <ele>418.4</ele>
        <time>2020-10-17T10:33:11Z</time>
      </trkpt>
      <trkpt lat="46.18905" lon="4.54655">
        <ele>418.4</ele>
        <time>2020-10-17T10:33:12Z</time>
      </trkpt>
      <trkpt lat="46.18907" lon="4.54654">
        <ele>418.6</ele>
        <time>2020-10-17T10:33:13Z</time>
      </trkpt>
      <trkpt lat="46.18907" lon="4.54654">
        <ele>418.6</ele>
        <time>2020-10-17T10:33:14Z</time>
      </trkpt>
      <trkpt lat="46.18911" lon="4.54654">
        <ele>418.8</ele>
        <time>2020-10-17T10:33:15Z</time>
      </trkpt>
      <trkpt lat="46.18911" lon="4.54654">
        <ele>418.6</ele>
        <time>2020-10-17T10:33:16Z</time>
      </trkpt>
      <trkpt lat="46.18914" lon="4.54653">
        <ele>418.8</ele>
        <time>2020-10-17T10:33:17Z</time>
      </trkpt>
      <trkpt lat="46.18916" lon="4.54653">
        <ele>418.8</ele>
        <time>2020-10-17T10:33:18Z</time>
      </trkpt>
      <trkpt lat="46.18918" lon="4.54653">
        <ele>418.8</ele>
        <time>2020-10-17T10:33:19Z</time>
      </trkpt>
      <trkpt lat="46.1892" lon="4.54652">
        <ele>418.8</ele>
        <time>2020-10-17T10:33:20Z</time>
      </trkpt>
      <trkpt lat="46.1892" lon="4.54652">
        <ele>419</ele>
        <time>2020-10-17T10:33:21Z</time>
      </trkpt>
      <trkpt lat="46.18923" lon="4.54653">
        <ele>419.2</ele>
        <time>2020-10-17T10:33:22Z</time>
      </trkpt>
      <trkpt lat="46.18923" lon="4.54653">
        <ele>419.4</ele>
        <time>2020-10-17T10:33:23Z</time>
      </trkpt>
      <trkpt lat="46.18926" lon="4.54653">
        <ele>419.4</ele>
        <time>2020-10-17T10:33:24Z</time>
      </trkpt>
      <trkpt lat="46.18926" lon="4.54653">
        <ele>419.6</ele>
        <time>2020-10-17T10:33:25Z</time>
      </trkpt>
      <trkpt lat="46.18929" lon="4.54652">
        <ele>419.8</ele>
        <time>2020-10-17T10:33:26Z</time>
      </trkpt>
      <trkpt lat="46.18929" lon="4.54652">
        <ele>419.8</ele>
        <time>2020-10-17T10:33:27Z</time>
      </trkpt>
      <trkpt lat="46.18932" lon="4.54652">
        <ele>419.8</ele>
        <time>2020-10-17T10:33:28Z</time>
      </trkpt>
      <trkpt lat="46.18932" lon="4.54652">
        <ele>420</ele>
        <time>2020-10-17T10:33:29Z</time>
      </trkpt>
      <trkpt lat="46.18935" lon="4.54651">
        <ele>419.8</ele>
        <time>2020-10-17T10:33:30Z</time>
      </trkpt>
      <trkpt lat="46.18935" lon="4.54651">
        <ele>420</ele>
        <time>2020-10-17T10:33:31Z</time>
      </trkpt>
      <trkpt lat="46.18938" lon="4.54651">
        <ele>420</ele>
        <time>2020-10-17T10:33:32Z</time>
      </trkpt>
      <trkpt lat="46.18938" lon="4.54651">
        <ele>420.2</ele>
        <time>2020-10-17T10:33:33Z</time>
      </trkpt>
      <trkpt lat="46.18941" lon="4.54652">
        <ele>420.2</ele>
        <time>2020-10-17T10:33:34Z</time>
      </trkpt>
      <trkpt lat="46.18941" lon="4.54652">
        <ele>420.4</ele>
        <time>2020-10-17T10:33:35Z</time>
      </trkpt>
      <trkpt lat="46.18944" lon="4.54653">
        <ele>420.8</ele>
        <time>2020-10-17T10:33:36Z</time>
      </trkpt>
      <trkpt lat="46.18944" lon="4.54653">
        <ele>421.4</ele>
        <time>2020-10-17T10:33:37Z</time>
      </trkpt>
      <trkpt lat="46.18947" lon="4.54654">
        <ele>421.6</ele>
        <time>2020-10-17T10:33:38Z</time>
      </trkpt>
      <trkpt lat="46.18947" lon="4.54654">
        <ele>421.6</ele>
        <time>2020-10-17T10:33:39Z</time>
      </trkpt>
      <trkpt lat="46.18949" lon="4.54656">
        <ele>421.8</ele>
        <time>2020-10-17T10:33:40Z</time>
      </trkpt>
      <trkpt lat="46.18949" lon="4.54656">
        <ele>422</ele>
        <time>2020-10-17T10:33:41Z</time>
      </trkpt>
      <trkpt lat="46.18952" lon="4.54658">
        <ele>422.2</ele>
        <time>2020-10-17T10:33:42Z</time>
      </trkpt>
      <trkpt lat="46.18952" lon="4.54658">
        <ele>422.2</ele>
        <time>2020-10-17T10:33:43Z</time>
      </trkpt>
      <trkpt lat="46.18954" lon="4.54661">
        <ele>422.4</ele>
        <time>2020-10-17T10:33:44Z</time>
      </trkpt>
      <trkpt lat="46.18954" lon="4.54661">
        <ele>422.4</ele>
        <time>2020-10-17T10:33:45Z</time>
      </trkpt>
      <trkpt lat="46.18956" lon="4.54663">
        <ele>422.6</ele>
        <time>2020-10-17T10:33:46Z</time>
      </trkpt>
      <trkpt lat="46.18956" lon="4.54663">
        <ele>422.6</ele>
        <time>2020-10-17T10:33:47Z</time>
      </trkpt>
      <trkpt lat="46.18958" lon="4.54664">
        <ele>422.8</ele>
        <time>2020-10-17T10:33:48Z</time>
      </trkpt>
      <trkpt lat="46.18958" lon="4.54664">
        <ele>423</ele>
        <time>2020-10-17T10:33:49Z</time>
      </trkpt>
      <trkpt lat="46.1896" lon="4.54666">
        <ele>423.2</ele>
        <time>2020-10-17T10:33:50Z</time>
      </trkpt>
      <trkpt lat="46.18961" lon="4.54668">
        <ele>423.4</ele>
        <time>2020-10-17T10:33:51Z</time>
      </trkpt>
      <trkpt lat="46.18961" lon="4.54668">
        <ele>423.6</ele>
        <time>2020-10-17T10:33:52Z</time>
      </trkpt>
      <trkpt lat="46.18964" lon="4.5467">
        <ele>423.8</ele>
        <time>2020-10-17T10:33:53Z</time>
      </trkpt>
      <trkpt lat="46.18964" lon="4.5467">
        <ele>424</ele>
        <time>2020-10-17T10:33:54Z</time>
      </trkpt>
      <trkpt lat="46.18968" lon="4.54672">
        <ele>424.2</ele>
        <time>2020-10-17T10:33:55Z</time>
      </trkpt>
      <trkpt lat="46.18969" lon="4.54673">
        <ele>424.2</ele>
        <time>2020-10-17T10:33:56Z</time>
      </trkpt>
      <trkpt lat="46.18969" lon="4.54673">
        <ele>424.2</ele>
        <time>2020-10-17T10:33:57Z</time>
      </trkpt>
      <trkpt lat="46.18972" lon="4.54676">
        <ele>424</ele>
        <time>2020-10-17T10:33:58Z</time>
      </trkpt>
      <trkpt lat="46.18972" lon="4.54676">
        <ele>424.2</ele>
        <time>2020-10-17T10:33:59Z</time>
      </trkpt>
      <trkpt lat="46.18975" lon="4.54679">
        <ele>424.2</ele>
        <time>2020-10-17T10:34:00Z</time>
      </trkpt>
      <trkpt lat="46.18977" lon="4.54681">
        <ele>424.2</ele>
        <time>2020-10-17T10:34:01Z</time>
      </trkpt>
      <trkpt lat="46.18977" lon="4.54681">
        <ele>424.4</ele>
        <time>2020-10-17T10:34:02Z</time>
      </trkpt>
      <trkpt lat="46.18979" lon="4.54684">
        <ele>424.4</ele>
        <time>2020-10-17T10:34:03Z</time>
      </trkpt>
      <trkpt lat="46.18979" lon="4.54684">
        <ele>424.4</ele>
        <time>2020-10-17T10:34:04Z</time>
      </trkpt>
      <trkpt lat="46.18981" lon="4.54687">
        <ele>424.4</ele>
        <time>2020-10-17T10:34:05Z</time>
      </trkpt>
      <trkpt lat="46.18981" lon="4.54687">
        <ele>424.4</ele>
        <time>2020-10-17T10:34:06Z</time>
      </trkpt>
      <trkpt lat="46.18983" lon="4.5469">
        <ele>424.4</ele>
        <time>2020-10-17T10:34:07Z</time>
      </trkpt>
      <trkpt lat="46.18983" lon="4.5469">
        <ele>424.6</ele>
        <time>2020-10-17T10:34:08Z</time>
      </trkpt>
      <trkpt lat="46.18986" lon="4.54692">
        <ele>424.6</ele>
        <time>2020-10-17T10:34:09Z</time>
      </trkpt>
      <trkpt lat="46.18988" lon="4.54692">
        <ele>425</ele>
        <time>2020-10-17T10:34:10Z</time>
      </trkpt>
      <trkpt lat="46.18988" lon="4.54692">
        <ele>425</ele>
        <time>2020-10-17T10:34:11Z</time>
      </trkpt>
      <trkpt lat="46.18991" lon="4.54695">
        <ele>425.2</ele>
        <time>2020-10-17T10:34:12Z</time>
      </trkpt>
      <trkpt lat="46.18991" lon="4.54695">
        <ele>425.2</ele>
        <time>2020-10-17T10:34:13Z</time>
      </trkpt>
      <trkpt lat="46.18994" lon="4.54696">
        <ele>425.2</ele>
        <time>2020-10-17T10:34:14Z</time>
      </trkpt>
      <trkpt lat="46.18994" lon="4.54696">
        <ele>425.2</ele>
        <time>2020-10-17T10:34:15Z</time>
      </trkpt>
      <trkpt lat="46.18997" lon="4.54698">
        <ele>425.2</ele>
        <time>2020-10-17T10:34:16Z</time>
      </trkpt>
      <trkpt lat="46.18997" lon="4.54698">
        <ele>425.2</ele>
        <time>2020-10-17T10:34:17Z</time>
      </trkpt>
      <trkpt lat="46.19" lon="4.54701">
        <ele>425.4</ele>
        <time>2020-10-17T10:34:18Z</time>
      </trkpt>
      <trkpt lat="46.19" lon="4.54701">
        <ele>425.4</ele>
        <time>2020-10-17T10:34:19Z</time>
      </trkpt>
      <trkpt lat="46.19002" lon="4.54703">
        <ele>425.4</ele>
        <time>2020-10-17T10:34:20Z</time>
      </trkpt>
      <trkpt lat="46.19002" lon="4.54703">
        <ele>425.4</ele>
        <time>2020-10-17T10:34:21Z</time>
      </trkpt>
      <trkpt lat="46.19005" lon="4.54706">
        <ele>425.2</ele>
        <time>2020-10-17T10:34:22Z</time>
      </trkpt>
      <trkpt lat="46.19005" lon="4.54706">
        <ele>425.4</ele>
        <time>2020-10-17T10:34:23Z</time>
      </trkpt>
      <trkpt lat="46.19008" lon="4.54709">
        <ele>425.4</ele>
        <time>2020-10-17T10:34:24Z</time>
      </trkpt>
      <trkpt lat="46.19008" lon="4.54709">
        <ele>425.4</ele>
        <time>2020-10-17T10:34:25Z</time>
      </trkpt>
      <trkpt lat="46.1901" lon="4.54712">
        <ele>425.2</ele>
        <time>2020-10-17T10:34:26Z</time>
      </trkpt>
      <trkpt lat="46.1901" lon="4.54712">
        <ele>425.2</ele>
        <time>2020-10-17T10:34:27Z</time>
      </trkpt>
      <trkpt lat="46.19013" lon="4.54714">
        <ele>425.4</ele>
        <time>2020-10-17T10:34:28Z</time>
      </trkpt>
      <trkpt lat="46.19013" lon="4.54714">
        <ele>425.4</ele>
        <time>2020-10-17T10:34:29Z</time>
      </trkpt>
      <trkpt lat="46.19015" lon="4.54717">
        <ele>425.4</ele>
        <time>2020-10-17T10:34:30Z</time>
      </trkpt>
      <trkpt lat="46.19016" lon="4.54718">
        <ele>425.4</ele>
        <time>2020-10-17T10:34:31Z</time>
      </trkpt>
      <trkpt lat="46.19016" lon="4.54718">
        <ele>425.6</ele>
        <time>2020-10-17T10:34:32Z</time>
      </trkpt>
      <trkpt lat="46.19018" lon="4.54719">
        <ele>425.6</ele>
        <time>2020-10-17T10:34:33Z</time>
      </trkpt>
      <trkpt lat="46.19018" lon="4.54719">
        <ele>425.8</ele>
        <time>2020-10-17T10:34:34Z</time>
      </trkpt>
      <trkpt lat="46.19021" lon="4.54723">
        <ele>425.6</ele>
        <time>2020-10-17T10:34:35Z</time>
      </trkpt>
      <trkpt lat="46.19021" lon="4.54723">
        <ele>425.8</ele>
        <time>2020-10-17T10:34:36Z</time>
      </trkpt>
      <trkpt lat="46.19022" lon="4.54726">
        <ele>425.8</ele>
        <time>2020-10-17T10:34:37Z</time>
      </trkpt>
      <trkpt lat="46.19022" lon="4.54726">
        <ele>425.6</ele>
        <time>2020-10-17T10:34:38Z</time>
      </trkpt>
      <trkpt lat="46.19024" lon="4.5473">
        <ele>425.6</ele>
        <time>2020-10-17T10:34:39Z</time>
      </trkpt>
      <trkpt lat="46.19024" lon="4.5473">
        <ele>425.6</ele>
        <time>2020-10-17T10:34:40Z</time>
      </trkpt>
      <trkpt lat="46.19027" lon="4.54733">
        <ele>425.6</ele>
        <time>2020-10-17T10:34:41Z</time>
      </trkpt>
      <trkpt lat="46.19027" lon="4.54733">
        <ele>425.6</ele>
        <time>2020-10-17T10:34:42Z</time>
      </trkpt>
      <trkpt lat="46.19029" lon="4.54735">
        <ele>425.4</ele>
        <time>2020-10-17T10:34:43Z</time>
      </trkpt>
      <trkpt lat="46.19029" lon="4.54735">
        <ele>425.6</ele>
        <time>2020-10-17T10:34:44Z</time>
      </trkpt>
      <trkpt lat="46.19031" lon="4.54738">
        <ele>425.6</ele>
        <time>2020-10-17T10:34:45Z</time>
      </trkpt>
      <trkpt lat="46.19031" lon="4.54738">
        <ele>425.8</ele>
        <time>2020-10-17T10:34:46Z</time>
      </trkpt>
      <trkpt lat="46.19033" lon="4.5474">
        <ele>425.8</ele>
        <time>2020-10-17T10:34:47Z</time>
      </trkpt>
      <trkpt lat="46.19033" lon="4.5474">
        <ele>426</ele>
        <time>2020-10-17T10:34:48Z</time>
      </trkpt>
      <trkpt lat="46.19036" lon="4.54743">
        <ele>426.4</ele>
        <time>2020-10-17T10:34:49Z</time>
      </trkpt>
      <trkpt lat="46.19036" lon="4.54743">
        <ele>426.6</ele>
        <time>2020-10-17T10:34:50Z</time>
      </trkpt>
      <trkpt lat="46.19038" lon="4.54745">
        <ele>426.6</ele>
        <time>2020-10-17T10:34:51Z</time>
      </trkpt>
      <trkpt lat="46.19038" lon="4.54745">
        <ele>426.6</ele>
        <time>2020-10-17T10:34:52Z</time>
      </trkpt>
      <trkpt lat="46.1904" lon="4.54748">
        <ele>426.6</ele>
        <time>2020-10-17T10:34:53Z</time>
      </trkpt>
      <trkpt lat="46.1904" lon="4.54748">
        <ele>426.8</ele>
        <time>2020-10-17T10:34:54Z</time>
      </trkpt>
      <trkpt lat="46.19042" lon="4.54752">
        <ele>426.8</ele>
        <time>2020-10-17T10:34:55Z</time>
      </trkpt>
      <trkpt lat="46.19042" lon="4.54752">
        <ele>426.8</ele>
        <time>2020-10-17T10:34:56Z</time>
      </trkpt>
      <trkpt lat="46.19045" lon="4.54757">
        <ele>427</ele>
        <time>2020-10-17T10:34:57Z</time>
      </trkpt>
      <trkpt lat="46.19045" lon="4.54757">
        <ele>427</ele>
        <time>2020-10-17T10:34:58Z</time>
      </trkpt>
      <trkpt lat="46.19046" lon="4.5476">
        <ele>427.2</ele>
        <time>2020-10-17T10:34:59Z</time>
      </trkpt>
      <trkpt lat="46.19046" lon="4.5476">
        <ele>427.4</ele>
        <time>2020-10-17T10:35:00Z</time>
      </trkpt>
      <trkpt lat="46.19046" lon="4.5476">
        <ele>427.6</ele>
        <time>2020-10-17T10:35:01Z</time>
      </trkpt>
      <trkpt lat="46.19047" lon="4.54759">
        <ele>427.8</ele>
        <time>2020-10-17T10:35:02Z</time>
      </trkpt>
      <trkpt lat="46.19047" lon="4.54759">
        <ele>428.2</ele>
        <time>2020-10-17T10:35:03Z</time>
      </trkpt>
      <trkpt lat="46.19047" lon="4.54759">
        <ele>428.4</ele>
        <time>2020-10-17T10:35:04Z</time>
      </trkpt>
      <trkpt lat="46.19047" lon="4.54759">
        <ele>428.4</ele>
        <time>2020-10-17T10:35:05Z</time>
      </trkpt>
      <trkpt lat="46.19047" lon="4.54759">
        <ele>428.6</ele>
        <time>2020-10-17T10:35:06Z</time>
      </trkpt>
      <trkpt lat="46.19047" lon="4.54759">
        <ele>428.6</ele>
        <time>2020-10-17T10:35:07Z</time>
      </trkpt>
      <trkpt lat="46.19047" lon="4.54759">
        <ele>429</ele>
        <time>2020-10-17T10:35:08Z</time>
      </trkpt>
      <trkpt lat="46.19047" lon="4.54759">
        <ele>429</ele>
        <time>2020-10-17T10:35:09Z</time>
      </trkpt>
      <trkpt lat="46.19047" lon="4.54759">
        <ele>429</ele>
        <time>2020-10-17T10:35:10Z</time>
      </trkpt>
      <trkpt lat="46.19047" lon="4.54759">
        <ele>428.8</ele>
        <time>2020-10-17T10:35:11Z</time>
      </trkpt>
      <trkpt lat="46.19047" lon="4.54759">
        <ele>428.8</ele>
        <time>2020-10-17T10:35:12Z</time>
      </trkpt>
      <trkpt lat="46.19047" lon="4.54759">
        <ele>428.8</ele>
        <time>2020-10-17T10:35:13Z</time>
      </trkpt>
      <trkpt lat="46.19047" lon="4.54759">
        <ele>428.6</ele>
        <time>2020-10-17T10:35:14Z</time>
      </trkpt>
      <trkpt lat="46.19047" lon="4.54759">
        <ele>428.8</ele>
        <time>2020-10-17T10:35:15Z</time>
      </trkpt>
      <trkpt lat="46.19049" lon="4.5476">
        <ele>428.8</ele>
        <time>2020-10-17T10:35:16Z</time>
      </trkpt>
      <trkpt lat="46.19049" lon="4.5476">
        <ele>428.6</ele>
        <time>2020-10-17T10:35:17Z</time>
      </trkpt>
      <trkpt lat="46.1905" lon="4.54762">
        <ele>428.4</ele>
        <time>2020-10-17T10:35:18Z</time>
      </trkpt>
      <trkpt lat="46.1905" lon="4.54762">
        <ele>428.6</ele>
        <time>2020-10-17T10:35:19Z</time>
      </trkpt>
      <trkpt lat="46.19052" lon="4.54765">
        <ele>428.6</ele>
        <time>2020-10-17T10:35:20Z</time>
      </trkpt>
      <trkpt lat="46.19052" lon="4.54765">
        <ele>428.4</ele>
        <time>2020-10-17T10:35:21Z</time>
      </trkpt>
      <trkpt lat="46.19053" lon="4.54768">
        <ele>428.4</ele>
        <time>2020-10-17T10:35:22Z</time>
      </trkpt>
      <trkpt lat="46.19053" lon="4.54768">
        <ele>428.4</ele>
        <time>2020-10-17T10:35:23Z</time>
      </trkpt>
      <trkpt lat="46.19055" lon="4.5477">
        <ele>428.4</ele>
        <time>2020-10-17T10:35:24Z</time>
      </trkpt>
      <trkpt lat="46.19055" lon="4.5477">
        <ele>428.4</ele>
        <time>2020-10-17T10:35:25Z</time>
      </trkpt>
      <trkpt lat="46.19058" lon="4.54773">
        <ele>428.6</ele>
        <time>2020-10-17T10:35:26Z</time>
      </trkpt>
      <trkpt lat="46.19058" lon="4.54773">
        <ele>428.6</ele>
        <time>2020-10-17T10:35:27Z</time>
      </trkpt>
      <trkpt lat="46.1906" lon="4.54776">
        <ele>428.6</ele>
        <time>2020-10-17T10:35:28Z</time>
      </trkpt>
      <trkpt lat="46.1906" lon="4.54776">
        <ele>428.8</ele>
        <time>2020-10-17T10:35:29Z</time>
      </trkpt>
      <trkpt lat="46.19063" lon="4.54778">
        <ele>429</ele>
        <time>2020-10-17T10:35:30Z</time>
      </trkpt>
      <trkpt lat="46.19063" lon="4.54778">
        <ele>429.2</ele>
        <time>2020-10-17T10:35:31Z</time>
      </trkpt>
      <trkpt lat="46.19065" lon="4.54779">
        <ele>429</ele>
        <time>2020-10-17T10:35:32Z</time>
      </trkpt>
      <trkpt lat="46.19065" lon="4.54779">
        <ele>429</ele>
        <time>2020-10-17T10:35:33Z</time>
      </trkpt>
      <trkpt lat="46.19067" lon="4.54781">
        <ele>429.2</ele>
        <time>2020-10-17T10:35:34Z</time>
      </trkpt>
      <trkpt lat="46.19067" lon="4.54781">
        <ele>429.4</ele>
        <time>2020-10-17T10:35:35Z</time>
      </trkpt>
      <trkpt lat="46.19069" lon="4.54783">
        <ele>429.6</ele>
        <time>2020-10-17T10:35:36Z</time>
      </trkpt>
      <trkpt lat="46.19069" lon="4.54783">
        <ele>429.8</ele>
        <time>2020-10-17T10:35:37Z</time>
      </trkpt>
      <trkpt lat="46.19071" lon="4.54785">
        <ele>430.2</ele>
        <time>2020-10-17T10:35:38Z</time>
      </trkpt>
      <trkpt lat="46.19071" lon="4.54785">
        <ele>430.2</ele>
        <time>2020-10-17T10:35:39Z</time>
      </trkpt>
      <trkpt lat="46.19074" lon="4.54787">
        <ele>430.4</ele>
        <time>2020-10-17T10:35:40Z</time>
      </trkpt>
      <trkpt lat="46.19074" lon="4.54787">
        <ele>430.6</ele>
        <time>2020-10-17T10:35:41Z</time>
      </trkpt>
      <trkpt lat="46.19075" lon="4.5479">
        <ele>430.8</ele>
        <time>2020-10-17T10:35:42Z</time>
      </trkpt>
      <trkpt lat="46.19075" lon="4.5479">
        <ele>431</ele>
        <time>2020-10-17T10:35:43Z</time>
      </trkpt>
      <trkpt lat="46.19077" lon="4.54793">
        <ele>431.2</ele>
        <time>2020-10-17T10:35:44Z</time>
      </trkpt>
      <trkpt lat="46.19077" lon="4.54793">
        <ele>431.6</ele>
        <time>2020-10-17T10:35:45Z</time>
      </trkpt>
      <trkpt lat="46.19079" lon="4.54797">
        <ele>431.4</ele>
        <time>2020-10-17T10:35:46Z</time>
      </trkpt>
      <trkpt lat="46.19079" lon="4.54797">
        <ele>431.4</ele>
        <time>2020-10-17T10:35:47Z</time>
      </trkpt>
      <trkpt lat="46.19081" lon="4.54799">
        <ele>431.8</ele>
        <time>2020-10-17T10:35:48Z</time>
      </trkpt>
      <trkpt lat="46.19081" lon="4.54799">
        <ele>431.8</ele>
        <time>2020-10-17T10:35:49Z</time>
      </trkpt>
      <trkpt lat="46.19083" lon="4.54803">
        <ele>432</ele>
        <time>2020-10-17T10:35:50Z</time>
      </trkpt>
      <trkpt lat="46.19083" lon="4.54803">
        <ele>432.2</ele>
        <time>2020-10-17T10:35:51Z</time>
      </trkpt>
      <trkpt lat="46.19085" lon="4.54806">
        <ele>432.4</ele>
        <time>2020-10-17T10:35:52Z</time>
      </trkpt>
      <trkpt lat="46.19085" lon="4.54806">
        <ele>432.6</ele>
        <time>2020-10-17T10:35:53Z</time>
      </trkpt>
      <trkpt lat="46.19087" lon="4.54808">
        <ele>432.8</ele>
        <time>2020-10-17T10:35:54Z</time>
      </trkpt>
      <trkpt lat="46.19087" lon="4.54808">
        <ele>433.2</ele>
        <time>2020-10-17T10:35:55Z</time>
      </trkpt>
      <trkpt lat="46.1909" lon="4.54811">
        <ele>433.6</ele>
        <time>2020-10-17T10:35:56Z</time>
      </trkpt>
      <trkpt lat="46.1909" lon="4.54811">
        <ele>433.8</ele>
        <time>2020-10-17T10:35:57Z</time>
      </trkpt>
      <trkpt lat="46.19092" lon="4.54814">
        <ele>434</ele>
        <time>2020-10-17T10:35:58Z</time>
      </trkpt>
      <trkpt lat="46.19092" lon="4.54814">
        <ele>434.2</ele>
        <time>2020-10-17T10:35:59Z</time>
      </trkpt>
      <trkpt lat="46.19094" lon="4.54817">
        <ele>434.4</ele>
        <time>2020-10-17T10:36:00Z</time>
      </trkpt>
      <trkpt lat="46.19094" lon="4.54817">
        <ele>434.4</ele>
        <time>2020-10-17T10:36:01Z</time>
      </trkpt>
      <trkpt lat="46.19095" lon="4.5482">
        <ele>434.8</ele>
        <time>2020-10-17T10:36:02Z</time>
      </trkpt>
      <trkpt lat="46.19095" lon="4.5482">
        <ele>435</ele>
        <time>2020-10-17T10:36:03Z</time>
      </trkpt>
      <trkpt lat="46.19098" lon="4.54823">
        <ele>435.2</ele>
        <time>2020-10-17T10:36:04Z</time>
      </trkpt>
      <trkpt lat="46.19099" lon="4.54825">
        <ele>435.6</ele>
        <time>2020-10-17T10:36:05Z</time>
      </trkpt>
      <trkpt lat="46.19099" lon="4.54825">
        <ele>435.6</ele>
        <time>2020-10-17T10:36:06Z</time>
      </trkpt>
      <trkpt lat="46.19102" lon="4.54828">
        <ele>436</ele>
        <time>2020-10-17T10:36:07Z</time>
      </trkpt>
      <trkpt lat="46.19102" lon="4.54828">
        <ele>436.2</ele>
        <time>2020-10-17T10:36:08Z</time>
      </trkpt>
      <trkpt lat="46.19104" lon="4.54831">
        <ele>436.6</ele>
        <time>2020-10-17T10:36:09Z</time>
      </trkpt>
      <trkpt lat="46.19104" lon="4.54831">
        <ele>436.6</ele>
        <time>2020-10-17T10:36:10Z</time>
      </trkpt>
      <trkpt lat="46.19106" lon="4.54833">
        <ele>436.6</ele>
        <time>2020-10-17T10:36:11Z</time>
      </trkpt>
      <trkpt lat="46.19106" lon="4.54833">
        <ele>436.8</ele>
        <time>2020-10-17T10:36:12Z</time>
      </trkpt>
      <trkpt lat="46.19107" lon="4.54836">
        <ele>437</ele>
        <time>2020-10-17T10:36:13Z</time>
      </trkpt>
      <trkpt lat="46.19107" lon="4.54836">
        <ele>437.4</ele>
        <time>2020-10-17T10:36:14Z</time>
      </trkpt>
      <trkpt lat="46.19109" lon="4.54838">
        <ele>437.4</ele>
        <time>2020-10-17T10:36:15Z</time>
      </trkpt>
      <trkpt lat="46.19109" lon="4.54838">
        <ele>437.8</ele>
        <time>2020-10-17T10:36:16Z</time>
      </trkpt>
      <trkpt lat="46.19112" lon="4.5484">
        <ele>438</ele>
        <time>2020-10-17T10:36:17Z</time>
      </trkpt>
      <trkpt lat="46.19112" lon="4.5484">
        <ele>438.2</ele>
        <time>2020-10-17T10:36:18Z</time>
      </trkpt>
      <trkpt lat="46.19114" lon="4.54843">
        <ele>438.4</ele>
        <time>2020-10-17T10:36:19Z</time>
      </trkpt>
      <trkpt lat="46.19114" lon="4.54843">
        <ele>438.8</ele>
        <time>2020-10-17T10:36:20Z</time>
      </trkpt>
      <trkpt lat="46.19116" lon="4.54846">
        <ele>439</ele>
        <time>2020-10-17T10:36:21Z</time>
      </trkpt>
      <trkpt lat="46.19116" lon="4.54846">
        <ele>439.2</ele>
        <time>2020-10-17T10:36:22Z</time>
      </trkpt>
      <trkpt lat="46.19118" lon="4.54848">
        <ele>439.4</ele>
        <time>2020-10-17T10:36:23Z</time>
      </trkpt>
      <trkpt lat="46.19118" lon="4.54848">
        <ele>439.8</ele>
        <time>2020-10-17T10:36:24Z</time>
      </trkpt>
      <trkpt lat="46.19119" lon="4.5485">
        <ele>440</ele>
        <time>2020-10-17T10:36:25Z</time>
      </trkpt>
      <trkpt lat="46.19119" lon="4.5485">
        <ele>439.8</ele>
        <time>2020-10-17T10:36:26Z</time>
      </trkpt>
      <trkpt lat="46.19122" lon="4.54853">
        <ele>440.4</ele>
        <time>2020-10-17T10:36:27Z</time>
      </trkpt>
      <trkpt lat="46.19122" lon="4.54853">
        <ele>440.6</ele>
        <time>2020-10-17T10:36:28Z</time>
      </trkpt>
      <trkpt lat="46.19124" lon="4.54857">
        <ele>441.2</ele>
        <time>2020-10-17T10:36:29Z</time>
      </trkpt>
      <trkpt lat="46.19124" lon="4.54857">
        <ele>441.2</ele>
        <time>2020-10-17T10:36:30Z</time>
      </trkpt>
      <trkpt lat="46.19125" lon="4.5486">
        <ele>441.4</ele>
        <time>2020-10-17T10:36:31Z</time>
      </trkpt>
      <trkpt lat="46.19125" lon="4.5486">
        <ele>441.4</ele>
        <time>2020-10-17T10:36:32Z</time>
      </trkpt>
      <trkpt lat="46.19127" lon="4.54863">
        <ele>441.4</ele>
        <time>2020-10-17T10:36:33Z</time>
      </trkpt>
      <trkpt lat="46.19127" lon="4.54863">
        <ele>441.8</ele>
        <time>2020-10-17T10:36:34Z</time>
      </trkpt>
      <trkpt lat="46.19129" lon="4.54864">
        <ele>442</ele>
        <time>2020-10-17T10:36:35Z</time>
      </trkpt>
      <trkpt lat="46.19129" lon="4.54864">
        <ele>442.6</ele>
        <time>2020-10-17T10:36:36Z</time>
      </trkpt>
      <trkpt lat="46.19131" lon="4.54865">
        <ele>442.6</ele>
        <time>2020-10-17T10:36:37Z</time>
      </trkpt>
      <trkpt lat="46.19131" lon="4.54865">
        <ele>443.2</ele>
        <time>2020-10-17T10:36:38Z</time>
      </trkpt>
      <trkpt lat="46.19131" lon="4.54865">
        <ele>443.6</ele>
        <time>2020-10-17T10:36:39Z</time>
      </trkpt>
      <trkpt lat="46.19134" lon="4.54863">
        <ele>444</ele>
        <time>2020-10-17T10:36:40Z</time>
      </trkpt>
      <trkpt lat="46.19134" lon="4.54863">
        <ele>444.2</ele>
        <time>2020-10-17T10:36:41Z</time>
      </trkpt>
      <trkpt lat="46.19134" lon="4.54863">
        <ele>444.6</ele>
        <time>2020-10-17T10:36:42Z</time>
      </trkpt>
      <trkpt lat="46.19135" lon="4.5486">
        <ele>445</ele>
        <time>2020-10-17T10:36:43Z</time>
      </trkpt>
      <trkpt lat="46.19135" lon="4.5486">
        <ele>445.2</ele>
        <time>2020-10-17T10:36:44Z</time>
      </trkpt>
      <trkpt lat="46.19137" lon="4.54857">
        <ele>445.4</ele>
        <time>2020-10-17T10:36:45Z</time>
      </trkpt>
      <trkpt lat="46.19137" lon="4.54857">
        <ele>445.4</ele>
        <time>2020-10-17T10:36:46Z</time>
      </trkpt>
      <trkpt lat="46.19138" lon="4.54854">
        <ele>446</ele>
        <time>2020-10-17T10:36:47Z</time>
      </trkpt>
      <trkpt lat="46.19138" lon="4.54854">
        <ele>445.8</ele>
        <time>2020-10-17T10:36:48Z</time>
      </trkpt>
      <trkpt lat="46.1914" lon="4.54851">
        <ele>446.4</ele>
        <time>2020-10-17T10:36:49Z</time>
      </trkpt>
      <trkpt lat="46.1914" lon="4.54851">
        <ele>446.6</ele>
        <time>2020-10-17T10:36:50Z</time>
      </trkpt>
      <trkpt lat="46.19142" lon="4.54849">
        <ele>447</ele>
        <time>2020-10-17T10:36:51Z</time>
      </trkpt>
      <trkpt lat="46.19142" lon="4.54849">
        <ele>446.8</ele>
        <time>2020-10-17T10:36:52Z</time>
      </trkpt>
      <trkpt lat="46.19144" lon="4.54846">
        <ele>447</ele>
        <time>2020-10-17T10:36:53Z</time>
      </trkpt>
      <trkpt lat="46.19144" lon="4.54846">
        <ele>447.4</ele>
        <time>2020-10-17T10:36:54Z</time>
      </trkpt>
      <trkpt lat="46.19146" lon="4.54843">
        <ele>447.4</ele>
        <time>2020-10-17T10:36:55Z</time>
      </trkpt>
      <trkpt lat="46.19146" lon="4.54843">
        <ele>447.6</ele>
        <time>2020-10-17T10:36:56Z</time>
      </trkpt>
      <trkpt lat="46.19148" lon="4.5484">
        <ele>447.6</ele>
        <time>2020-10-17T10:36:57Z</time>
      </trkpt>
      <trkpt lat="46.19148" lon="4.5484">
        <ele>448.2</ele>
        <time>2020-10-17T10:36:58Z</time>
      </trkpt>
      <trkpt lat="46.19151" lon="4.54837">
        <ele>448.4</ele>
        <time>2020-10-17T10:36:59Z</time>
      </trkpt>
      <trkpt lat="46.19151" lon="4.54837">
        <ele>448.6</ele>
        <time>2020-10-17T10:37:00Z</time>
      </trkpt>
      <trkpt lat="46.19153" lon="4.54835">
        <ele>448.6</ele>
        <time>2020-10-17T10:37:01Z</time>
      </trkpt>
      <trkpt lat="46.19155" lon="4.54834">
        <ele>449</ele>
        <time>2020-10-17T10:37:02Z</time>
      </trkpt>
      <trkpt lat="46.19155" lon="4.54834">
        <ele>449</ele>
        <time>2020-10-17T10:37:03Z</time>
      </trkpt>
      <trkpt lat="46.19157" lon="4.54832">
        <ele>449.8</ele>
        <time>2020-10-17T10:37:04Z</time>
      </trkpt>
      <trkpt lat="46.19157" lon="4.54832">
        <ele>450</ele>
        <time>2020-10-17T10:37:05Z</time>
      </trkpt>
      <trkpt lat="46.19159" lon="4.54831">
        <ele>450</ele>
        <time>2020-10-17T10:37:06Z</time>
      </trkpt>
      <trkpt lat="46.19159" lon="4.54831">
        <ele>450.4</ele>
        <time>2020-10-17T10:37:07Z</time>
      </trkpt>
      <trkpt lat="46.19162" lon="4.5483">
        <ele>450.4</ele>
        <time>2020-10-17T10:37:08Z</time>
      </trkpt>
      <trkpt lat="46.19162" lon="4.5483">
        <ele>451</ele>
        <time>2020-10-17T10:37:09Z</time>
      </trkpt>
      <trkpt lat="46.19166" lon="4.54828">
        <ele>451.2</ele>
        <time>2020-10-17T10:37:10Z</time>
      </trkpt>
      <trkpt lat="46.19166" lon="4.54828">
        <ele>451.4</ele>
        <time>2020-10-17T10:37:11Z</time>
      </trkpt>
      <trkpt lat="46.19168" lon="4.54827">
        <ele>451.6</ele>
        <time>2020-10-17T10:37:12Z</time>
      </trkpt>
      <trkpt lat="46.19168" lon="4.54827">
        <ele>451.8</ele>
        <time>2020-10-17T10:37:13Z</time>
      </trkpt>
      <trkpt lat="46.19171" lon="4.54826">
        <ele>452.2</ele>
        <time>2020-10-17T10:37:14Z</time>
      </trkpt>
      <trkpt lat="46.19171" lon="4.54826">
        <ele>452</ele>
        <time>2020-10-17T10:37:15Z</time>
      </trkpt>
      <trkpt lat="46.19173" lon="4.54824">
        <ele>452.4</ele>
        <time>2020-10-17T10:37:16Z</time>
      </trkpt>
      <trkpt lat="46.19173" lon="4.54824">
        <ele>452.4</ele>
        <time>2020-10-17T10:37:17Z</time>
      </trkpt>
      <trkpt lat="46.19174" lon="4.54822">
        <ele>452.6</ele>
        <time>2020-10-17T10:37:18Z</time>
      </trkpt>
      <trkpt lat="46.19174" lon="4.54822">
        <ele>452.8</ele>
        <time>2020-10-17T10:37:19Z</time>
      </trkpt>
      <trkpt lat="46.19174" lon="4.54822">
        <ele>453</ele>
        <time>2020-10-17T10:37:20Z</time>
      </trkpt>
      <trkpt lat="46.19174" lon="4.54822">
        <ele>453</ele>
        <time>2020-10-17T10:37:21Z</time>
      </trkpt>
      <trkpt lat="46.19176" lon="4.54819">
        <ele>453.4</ele>
        <time>2020-10-17T10:37:22Z</time>
      </trkpt>
      <trkpt lat="46.19176" lon="4.54819">
        <ele>453.6</ele>
        <time>2020-10-17T10:37:23Z</time>
      </trkpt>
      <trkpt lat="46.19176" lon="4.54814">
        <ele>453.8</ele>
        <time>2020-10-17T10:37:24Z</time>
      </trkpt>
      <trkpt lat="46.19176" lon="4.54814">
        <ele>454.2</ele>
        <time>2020-10-17T10:37:25Z</time>
      </trkpt>
      <trkpt lat="46.19176" lon="4.5481">
        <ele>454.2</ele>
        <time>2020-10-17T10:37:26Z</time>
      </trkpt>
      <trkpt lat="46.19176" lon="4.5481">
        <ele>454.2</ele>
        <time>2020-10-17T10:37:27Z</time>
      </trkpt>
      <trkpt lat="46.19176" lon="4.54805">
        <ele>454.4</ele>
        <time>2020-10-17T10:37:28Z</time>
      </trkpt>
      <trkpt lat="46.19175" lon="4.54803">
        <ele>454.4</ele>
        <time>2020-10-17T10:37:29Z</time>
      </trkpt>
      <trkpt lat="46.19175" lon="4.548">
        <ele>454.4</ele>
        <time>2020-10-17T10:37:30Z</time>
      </trkpt>
      <trkpt lat="46.19175" lon="4.54797">
        <ele>454.4</ele>
        <time>2020-10-17T10:37:31Z</time>
      </trkpt>
      <trkpt lat="46.19175" lon="4.54797">
        <ele>454</ele>
        <time>2020-10-17T10:37:32Z</time>
      </trkpt>
      <trkpt lat="46.19175" lon="4.54792">
        <ele>454.4</ele>
        <time>2020-10-17T10:37:33Z</time>
      </trkpt>
      <trkpt lat="46.19175" lon="4.54792">
        <ele>454.4</ele>
        <time>2020-10-17T10:37:34Z</time>
      </trkpt>
      <trkpt lat="46.19176" lon="4.54787">
        <ele>454.4</ele>
        <time>2020-10-17T10:37:35Z</time>
      </trkpt>
      <trkpt lat="46.19176" lon="4.54787">
        <ele>454.4</ele>
        <time>2020-10-17T10:37:36Z</time>
      </trkpt>
      <trkpt lat="46.19177" lon="4.54783">
        <ele>454.6</ele>
        <time>2020-10-17T10:37:37Z</time>
      </trkpt>
      <trkpt lat="46.19177" lon="4.54783">
        <ele>454.6</ele>
        <time>2020-10-17T10:37:38Z</time>
      </trkpt>
      <trkpt lat="46.19177" lon="4.54778">
        <ele>454.8</ele>
        <time>2020-10-17T10:37:39Z</time>
      </trkpt>
      <trkpt lat="46.19177" lon="4.54778">
        <ele>454.8</ele>
        <time>2020-10-17T10:37:40Z</time>
      </trkpt>
      <trkpt lat="46.19176" lon="4.54774">
        <ele>455</ele>
        <time>2020-10-17T10:37:41Z</time>
      </trkpt>
      <trkpt lat="46.19176" lon="4.54774">
        <ele>455.2</ele>
        <time>2020-10-17T10:37:42Z</time>
      </trkpt>
      <trkpt lat="46.19176" lon="4.5477">
        <ele>455.4</ele>
        <time>2020-10-17T10:37:43Z</time>
      </trkpt>
      <trkpt lat="46.19176" lon="4.5477">
        <ele>455.4</ele>
        <time>2020-10-17T10:37:44Z</time>
      </trkpt>
      <trkpt lat="46.19175" lon="4.54765">
        <ele>455.2</ele>
        <time>2020-10-17T10:37:45Z</time>
      </trkpt>
      <trkpt lat="46.19175" lon="4.54765">
        <ele>455.2</ele>
        <time>2020-10-17T10:37:46Z</time>
      </trkpt>
      <trkpt lat="46.19176" lon="4.54761">
        <ele>455.2</ele>
        <time>2020-10-17T10:37:47Z</time>
      </trkpt>
      <trkpt lat="46.19176" lon="4.54761">
        <ele>455.2</ele>
        <time>2020-10-17T10:37:48Z</time>
      </trkpt>
      <trkpt lat="46.19179" lon="4.54761">
        <ele>455.4</ele>
        <time>2020-10-17T10:37:49Z</time>
      </trkpt>
      <trkpt lat="46.19179" lon="4.54761">
        <ele>455.6</ele>
        <time>2020-10-17T10:37:50Z</time>
      </trkpt>
      <trkpt lat="46.19182" lon="4.54763">
        <ele>455.8</ele>
        <time>2020-10-17T10:37:51Z</time>
      </trkpt>
      <trkpt lat="46.19182" lon="4.54763">
        <ele>455.8</ele>
        <time>2020-10-17T10:37:52Z</time>
      </trkpt>
      <trkpt lat="46.19184" lon="4.54766">
        <ele>456</ele>
        <time>2020-10-17T10:37:53Z</time>
      </trkpt>
      <trkpt lat="46.19184" lon="4.54766">
        <ele>456</ele>
        <time>2020-10-17T10:37:54Z</time>
      </trkpt>
      <trkpt lat="46.19185" lon="4.54771">
        <ele>455.8</ele>
        <time>2020-10-17T10:37:55Z</time>
      </trkpt>
      <trkpt lat="46.19185" lon="4.54771">
        <ele>456</ele>
        <time>2020-10-17T10:37:56Z</time>
      </trkpt>
      <trkpt lat="46.19186" lon="4.54775">
        <ele>455.8</ele>
        <time>2020-10-17T10:37:57Z</time>
      </trkpt>
      <trkpt lat="46.19186" lon="4.54775">
        <ele>456.2</ele>
        <time>2020-10-17T10:37:58Z</time>
      </trkpt>
      <trkpt lat="46.19188" lon="4.54779">
        <ele>456.4</ele>
        <time>2020-10-17T10:37:59Z</time>
      </trkpt>
      <trkpt lat="46.19188" lon="4.54779">
        <ele>456.4</ele>
        <time>2020-10-17T10:38:00Z</time>
      </trkpt>
      <trkpt lat="46.19189" lon="4.54783">
        <ele>456.6</ele>
        <time>2020-10-17T10:38:01Z</time>
      </trkpt>
      <trkpt lat="46.19189" lon="4.54783">
        <ele>456.4</ele>
        <time>2020-10-17T10:38:02Z</time>
      </trkpt>
      <trkpt lat="46.1919" lon="4.54786">
        <ele>456.6</ele>
        <time>2020-10-17T10:38:03Z</time>
      </trkpt>
      <trkpt lat="46.1919" lon="4.54786">
        <ele>456.8</ele>
        <time>2020-10-17T10:38:04Z</time>
      </trkpt>
      <trkpt lat="46.19191" lon="4.5479">
        <ele>456.6</ele>
        <time>2020-10-17T10:38:05Z</time>
      </trkpt>
      <trkpt lat="46.19191" lon="4.5479">
        <ele>456.6</ele>
        <time>2020-10-17T10:38:06Z</time>
      </trkpt>
      <trkpt lat="46.19193" lon="4.54794">
        <ele>456.8</ele>
        <time>2020-10-17T10:38:07Z</time>
      </trkpt>
      <trkpt lat="46.19194" lon="4.54796">
        <ele>457</ele>
        <time>2020-10-17T10:38:08Z</time>
      </trkpt>
      <trkpt lat="46.19194" lon="4.54796">
        <ele>457</ele>
        <time>2020-10-17T10:38:09Z</time>
      </trkpt>
      <trkpt lat="46.19196" lon="4.54799">
        <ele>457</ele>
        <time>2020-10-17T10:38:10Z</time>
      </trkpt>
      <trkpt lat="46.19196" lon="4.54799">
        <ele>457.2</ele>
        <time>2020-10-17T10:38:11Z</time>
      </trkpt>
      <trkpt lat="46.19198" lon="4.54803">
        <ele>457.2</ele>
        <time>2020-10-17T10:38:12Z</time>
      </trkpt>
      <trkpt lat="46.19198" lon="4.54803">
        <ele>457.2</ele>
        <time>2020-10-17T10:38:13Z</time>
      </trkpt>
      <trkpt lat="46.192" lon="4.54805">
        <ele>457.2</ele>
        <time>2020-10-17T10:38:14Z</time>
      </trkpt>
      <trkpt lat="46.192" lon="4.54805">
        <ele>457.2</ele>
        <time>2020-10-17T10:38:15Z</time>
      </trkpt>
      <trkpt lat="46.19203" lon="4.54808">
        <ele>457.2</ele>
        <time>2020-10-17T10:38:16Z</time>
      </trkpt>
      <trkpt lat="46.19203" lon="4.54808">
        <ele>457.2</ele>
        <time>2020-10-17T10:38:17Z</time>
      </trkpt>
      <trkpt lat="46.19206" lon="4.5481">
        <ele>457.6</ele>
        <time>2020-10-17T10:38:18Z</time>
      </trkpt>
      <trkpt lat="46.19206" lon="4.5481">
        <ele>457.8</ele>
        <time>2020-10-17T10:38:19Z</time>
      </trkpt>
      <trkpt lat="46.19209" lon="4.54811">
        <ele>457.8</ele>
        <time>2020-10-17T10:38:20Z</time>
      </trkpt>
      <trkpt lat="46.19209" lon="4.54811">
        <ele>458</ele>
        <time>2020-10-17T10:38:21Z</time>
      </trkpt>
      <trkpt lat="46.19212" lon="4.54811">
        <ele>458.2</ele>
        <time>2020-10-17T10:38:22Z</time>
      </trkpt>
      <trkpt lat="46.19212" lon="4.54811">
        <ele>458.2</ele>
        <time>2020-10-17T10:38:23Z</time>
      </trkpt>
      <trkpt lat="46.19215" lon="4.54812">
        <ele>458.4</ele>
        <time>2020-10-17T10:38:24Z</time>
      </trkpt>
      <trkpt lat="46.19217" lon="4.54812">
        <ele>458.4</ele>
        <time>2020-10-17T10:38:25Z</time>
      </trkpt>
      <trkpt lat="46.19217" lon="4.54812">
        <ele>458.8</ele>
        <time>2020-10-17T10:38:26Z</time>
      </trkpt>
      <trkpt lat="46.1922" lon="4.54812">
        <ele>459</ele>
        <time>2020-10-17T10:38:27Z</time>
      </trkpt>
      <trkpt lat="46.1922" lon="4.54812">
        <ele>458.8</ele>
        <time>2020-10-17T10:38:28Z</time>
      </trkpt>
      <trkpt lat="46.19223" lon="4.54812">
        <ele>458.8</ele>
        <time>2020-10-17T10:38:29Z</time>
      </trkpt>
      <trkpt lat="46.19223" lon="4.54812">
        <ele>459</ele>
        <time>2020-10-17T10:38:30Z</time>
      </trkpt>
      <trkpt lat="46.19226" lon="4.54812">
        <ele>459</ele>
        <time>2020-10-17T10:38:31Z</time>
      </trkpt>
      <trkpt lat="46.19226" lon="4.54812">
        <ele>459</ele>
        <time>2020-10-17T10:38:32Z</time>
      </trkpt>
      <trkpt lat="46.19229" lon="4.54813">
        <ele>459</ele>
        <time>2020-10-17T10:38:33Z</time>
      </trkpt>
      <trkpt lat="46.19229" lon="4.54813">
        <ele>459</ele>
        <time>2020-10-17T10:38:34Z</time>
      </trkpt>
      <trkpt lat="46.19232" lon="4.54812">
        <ele>458.8</ele>
        <time>2020-10-17T10:38:35Z</time>
      </trkpt>
      <trkpt lat="46.19232" lon="4.54812">
        <ele>459.4</ele>
        <time>2020-10-17T10:38:36Z</time>
      </trkpt>
      <trkpt lat="46.19234" lon="4.54812">
        <ele>459.6</ele>
        <time>2020-10-17T10:38:37Z</time>
      </trkpt>
      <trkpt lat="46.19236" lon="4.54812">
        <ele>459.8</ele>
        <time>2020-10-17T10:38:38Z</time>
      </trkpt>
      <trkpt lat="46.19236" lon="4.54812">
        <ele>460</ele>
        <time>2020-10-17T10:38:39Z</time>
      </trkpt>
      <trkpt lat="46.19239" lon="4.54813">
        <ele>460</ele>
        <time>2020-10-17T10:38:40Z</time>
      </trkpt>
      <trkpt lat="46.19239" lon="4.54813">
        <ele>460.6</ele>
        <time>2020-10-17T10:38:41Z</time>
      </trkpt>
      <trkpt lat="46.19241" lon="4.54813">
        <ele>460.8</ele>
        <time>2020-10-17T10:38:42Z</time>
      </trkpt>
      <trkpt lat="46.19241" lon="4.54813">
        <ele>461.2</ele>
        <time>2020-10-17T10:38:43Z</time>
      </trkpt>
      <trkpt lat="46.19244" lon="4.54812">
        <ele>461.4</ele>
        <time>2020-10-17T10:38:44Z</time>
      </trkpt>
      <trkpt lat="46.19244" lon="4.54812">
        <ele>461.8</ele>
        <time>2020-10-17T10:38:45Z</time>
      </trkpt>
      <trkpt lat="46.19247" lon="4.54812">
        <ele>462.2</ele>
        <time>2020-10-17T10:38:46Z</time>
      </trkpt>
      <trkpt lat="46.19247" lon="4.54812">
        <ele>462</ele>
        <time>2020-10-17T10:38:47Z</time>
      </trkpt>
      <trkpt lat="46.1925" lon="4.54812">
        <ele>462</ele>
        <time>2020-10-17T10:38:48Z</time>
      </trkpt>
      <trkpt lat="46.1925" lon="4.54812">
        <ele>462.4</ele>
        <time>2020-10-17T10:38:49Z</time>
      </trkpt>
      <trkpt lat="46.19252" lon="4.54811">
        <ele>462.4</ele>
        <time>2020-10-17T10:38:50Z</time>
      </trkpt>
      <trkpt lat="46.19252" lon="4.54811">
        <ele>462.8</ele>
        <time>2020-10-17T10:38:51Z</time>
      </trkpt>
      <trkpt lat="46.19255" lon="4.54811">
        <ele>463.2</ele>
        <time>2020-10-17T10:38:52Z</time>
      </trkpt>
      <trkpt lat="46.19255" lon="4.54811">
        <ele>463.4</ele>
        <time>2020-10-17T10:38:53Z</time>
      </trkpt>
      <trkpt lat="46.19258" lon="4.54812">
        <ele>463.8</ele>
        <time>2020-10-17T10:38:54Z</time>
      </trkpt>
      <trkpt lat="46.19258" lon="4.54812">
        <ele>464</ele>
        <time>2020-10-17T10:38:55Z</time>
      </trkpt>
      <trkpt lat="46.1926" lon="4.54812">
        <ele>464</ele>
        <time>2020-10-17T10:38:56Z</time>
      </trkpt>
      <trkpt lat="46.1926" lon="4.54812">
        <ele>464.4</ele>
        <time>2020-10-17T10:38:57Z</time>
      </trkpt>
      <trkpt lat="46.19262" lon="4.54812">
        <ele>464.8</ele>
        <time>2020-10-17T10:38:58Z</time>
      </trkpt>
      <trkpt lat="46.19262" lon="4.54812">
        <ele>465.4</ele>
        <time>2020-10-17T10:38:59Z</time>
      </trkpt>
      <trkpt lat="46.19265" lon="4.54812">
        <ele>465.8</ele>
        <time>2020-10-17T10:39:00Z</time>
      </trkpt>
      <trkpt lat="46.19265" lon="4.54812">
        <ele>466</ele>
        <time>2020-10-17T10:39:01Z</time>
      </trkpt>
      <trkpt lat="46.19268" lon="4.54812">
        <ele>465.8</ele>
        <time>2020-10-17T10:39:02Z</time>
      </trkpt>
      <trkpt lat="46.19268" lon="4.54812">
        <ele>466</ele>
        <time>2020-10-17T10:39:03Z</time>
      </trkpt>
      <trkpt lat="46.19272" lon="4.54812">
        <ele>466.4</ele>
        <time>2020-10-17T10:39:04Z</time>
      </trkpt>
      <trkpt lat="46.19272" lon="4.54812">
        <ele>466.4</ele>
        <time>2020-10-17T10:39:05Z</time>
      </trkpt>
      <trkpt lat="46.19274" lon="4.54812">
        <ele>466.6</ele>
        <time>2020-10-17T10:39:06Z</time>
      </trkpt>
      <trkpt lat="46.19274" lon="4.54812">
        <ele>467</ele>
        <time>2020-10-17T10:39:07Z</time>
      </trkpt>
      <trkpt lat="46.19278" lon="4.54812">
        <ele>467.4</ele>
        <time>2020-10-17T10:39:08Z</time>
      </trkpt>
      <trkpt lat="46.19278" lon="4.54812">
        <ele>467.6</ele>
        <time>2020-10-17T10:39:09Z</time>
      </trkpt>
      <trkpt lat="46.1928" lon="4.54812">
        <ele>467.8</ele>
        <time>2020-10-17T10:39:10Z</time>
      </trkpt>
      <trkpt lat="46.1928" lon="4.54812">
        <ele>468</ele>
        <time>2020-10-17T10:39:11Z</time>
      </trkpt>
      <trkpt lat="46.19283" lon="4.54812">
        <ele>468.4</ele>
        <time>2020-10-17T10:39:12Z</time>
      </trkpt>
      <trkpt lat="46.19283" lon="4.54812">
        <ele>468.8</ele>
        <time>2020-10-17T10:39:13Z</time>
      </trkpt>
      <trkpt lat="46.19286" lon="4.54812">
        <ele>469</ele>
        <time>2020-10-17T10:39:14Z</time>
      </trkpt>
      <trkpt lat="46.19286" lon="4.54812">
        <ele>469.4</ele>
        <time>2020-10-17T10:39:15Z</time>
      </trkpt>
      <trkpt lat="46.19289" lon="4.54812">
        <ele>469.4</ele>
        <time>2020-10-17T10:39:16Z</time>
      </trkpt>
      <trkpt lat="46.19289" lon="4.54812">
        <ele>469.6</ele>
        <time>2020-10-17T10:39:17Z</time>
      </trkpt>
      <trkpt lat="46.19292" lon="4.54811">
        <ele>470</ele>
        <time>2020-10-17T10:39:18Z</time>
      </trkpt>
      <trkpt lat="46.19292" lon="4.54811">
        <ele>470.2</ele>
        <time>2020-10-17T10:39:19Z</time>
      </trkpt>
      <trkpt lat="46.19294" lon="4.54811">
        <ele>470.4</ele>
        <time>2020-10-17T10:39:20Z</time>
      </trkpt>
      <trkpt lat="46.19294" lon="4.54811">
        <ele>470.6</ele>
        <time>2020-10-17T10:39:21Z</time>
      </trkpt>
      <trkpt lat="46.19298" lon="4.54811">
        <ele>470.6</ele>
        <time>2020-10-17T10:39:22Z</time>
      </trkpt>
      <trkpt lat="46.19298" lon="4.54811">
        <ele>470.8</ele>
        <time>2020-10-17T10:39:23Z</time>
      </trkpt>
      <trkpt lat="46.19301" lon="4.54811">
        <ele>471.2</ele>
        <time>2020-10-17T10:39:24Z</time>
      </trkpt>
      <trkpt lat="46.19301" lon="4.54811">
        <ele>471.4</ele>
        <time>2020-10-17T10:39:25Z</time>
      </trkpt>
      <trkpt lat="46.19304" lon="4.54811">
        <ele>471.8</ele>
        <time>2020-10-17T10:39:26Z</time>
      </trkpt>
      <trkpt lat="46.19304" lon="4.54811">
        <ele>472.2</ele>
        <time>2020-10-17T10:39:27Z</time>
      </trkpt>
      <trkpt lat="46.19307" lon="4.5481">
        <ele>472.4</ele>
        <time>2020-10-17T10:39:28Z</time>
      </trkpt>
      <trkpt lat="46.19307" lon="4.5481">
        <ele>472.4</ele>
        <time>2020-10-17T10:39:29Z</time>
      </trkpt>
      <trkpt lat="46.1931" lon="4.5481">
        <ele>472.2</ele>
        <time>2020-10-17T10:39:30Z</time>
      </trkpt>
      <trkpt lat="46.1931" lon="4.5481">
        <ele>472.6</ele>
        <time>2020-10-17T10:39:31Z</time>
      </trkpt>
      <trkpt lat="46.19313" lon="4.54809">
        <ele>472.8</ele>
        <time>2020-10-17T10:39:32Z</time>
      </trkpt>
      <trkpt lat="46.19313" lon="4.54809">
        <ele>473</ele>
        <time>2020-10-17T10:39:33Z</time>
      </trkpt>
      <trkpt lat="46.19315" lon="4.54808">
        <ele>473</ele>
        <time>2020-10-17T10:39:34Z</time>
      </trkpt>
      <trkpt lat="46.19315" lon="4.54808">
        <ele>473.6</ele>
        <time>2020-10-17T10:39:35Z</time>
      </trkpt>
      <trkpt lat="46.19318" lon="4.54808">
        <ele>473.6</ele>
        <time>2020-10-17T10:39:36Z</time>
      </trkpt>
      <trkpt lat="46.19318" lon="4.54808">
        <ele>474</ele>
        <time>2020-10-17T10:39:37Z</time>
      </trkpt>
      <trkpt lat="46.19321" lon="4.54807">
        <ele>474.2</ele>
        <time>2020-10-17T10:39:38Z</time>
      </trkpt>
      <trkpt lat="46.19321" lon="4.54807">
        <ele>474.4</ele>
        <time>2020-10-17T10:39:39Z</time>
      </trkpt>
      <trkpt lat="46.19324" lon="4.54807">
        <ele>474.8</ele>
        <time>2020-10-17T10:39:40Z</time>
      </trkpt>
      <trkpt lat="46.19324" lon="4.54807">
        <ele>474.6</ele>
        <time>2020-10-17T10:39:41Z</time>
      </trkpt>
      <trkpt lat="46.19326" lon="4.54806">
        <ele>475</ele>
        <time>2020-10-17T10:39:42Z</time>
      </trkpt>
      <trkpt lat="46.19326" lon="4.54806">
        <ele>475.4</ele>
        <time>2020-10-17T10:39:43Z</time>
      </trkpt>
      <trkpt lat="46.19329" lon="4.54804">
        <ele>475.4</ele>
        <time>2020-10-17T10:39:44Z</time>
      </trkpt>
      <trkpt lat="46.19329" lon="4.54804">
        <ele>475.6</ele>
        <time>2020-10-17T10:39:45Z</time>
      </trkpt>
      <trkpt lat="46.19331" lon="4.54803">
        <ele>475.6</ele>
        <time>2020-10-17T10:39:46Z</time>
      </trkpt>
      <trkpt lat="46.19331" lon="4.54803">
        <ele>475.8</ele>
        <time>2020-10-17T10:39:47Z</time>
      </trkpt>
      <trkpt lat="46.19334" lon="4.54801">
        <ele>476.2</ele>
        <time>2020-10-17T10:39:48Z</time>
      </trkpt>
      <trkpt lat="46.19334" lon="4.54801">
        <ele>476.4</ele>
        <time>2020-10-17T10:39:49Z</time>
      </trkpt>
      <trkpt lat="46.19336" lon="4.54799">
        <ele>476.6</ele>
        <time>2020-10-17T10:39:50Z</time>
      </trkpt>
      <trkpt lat="46.19336" lon="4.54799">
        <ele>476.8</ele>
        <time>2020-10-17T10:39:51Z</time>
      </trkpt>
      <trkpt lat="46.19339" lon="4.54797">
        <ele>476.8</ele>
        <time>2020-10-17T10:39:52Z</time>
      </trkpt>
      <trkpt lat="46.19339" lon="4.54797">
        <ele>477</ele>
        <time>2020-10-17T10:39:53Z</time>
      </trkpt>
      <trkpt lat="46.19341" lon="4.54796">
        <ele>477</ele>
        <time>2020-10-17T10:39:54Z</time>
      </trkpt>
      <trkpt lat="46.19341" lon="4.54796">
        <ele>477.6</ele>
        <time>2020-10-17T10:39:55Z</time>
      </trkpt>
      <trkpt lat="46.19344" lon="4.54794">
        <ele>477.8</ele>
        <time>2020-10-17T10:39:56Z</time>
      </trkpt>
      <trkpt lat="46.19344" lon="4.54794">
        <ele>478</ele>
        <time>2020-10-17T10:39:57Z</time>
      </trkpt>
      <trkpt lat="46.19346" lon="4.54792">
        <ele>478.4</ele>
        <time>2020-10-17T10:39:58Z</time>
      </trkpt>
      <trkpt lat="46.19346" lon="4.54792">
        <ele>478.4</ele>
        <time>2020-10-17T10:39:59Z</time>
      </trkpt>
      <trkpt lat="46.19349" lon="4.54791">
        <ele>478.6</ele>
        <time>2020-10-17T10:40:00Z</time>
      </trkpt>
      <trkpt lat="46.19349" lon="4.54791">
        <ele>479</ele>
        <time>2020-10-17T10:40:01Z</time>
      </trkpt>
      <trkpt lat="46.19352" lon="4.54788">
        <ele>479.2</ele>
        <time>2020-10-17T10:40:02Z</time>
      </trkpt>
      <trkpt lat="46.19352" lon="4.54788">
        <ele>479.4</ele>
        <time>2020-10-17T10:40:03Z</time>
      </trkpt>
      <trkpt lat="46.19354" lon="4.54787">
        <ele>479.4</ele>
        <time>2020-10-17T10:40:04Z</time>
      </trkpt>
      <trkpt lat="46.19354" lon="4.54787">
        <ele>479.4</ele>
        <time>2020-10-17T10:40:05Z</time>
      </trkpt>
      <trkpt lat="46.19356" lon="4.54785">
        <ele>479.6</ele>
        <time>2020-10-17T10:40:06Z</time>
      </trkpt>
      <trkpt lat="46.19356" lon="4.54785">
        <ele>479.6</ele>
        <time>2020-10-17T10:40:07Z</time>
      </trkpt>
      <trkpt lat="46.19359" lon="4.54783">
        <ele>479.6</ele>
        <time>2020-10-17T10:40:08Z</time>
      </trkpt>
      <trkpt lat="46.19359" lon="4.54783">
        <ele>480</ele>
        <time>2020-10-17T10:40:09Z</time>
      </trkpt>
      <trkpt lat="46.19362" lon="4.54781">
        <ele>480.2</ele>
        <time>2020-10-17T10:40:10Z</time>
      </trkpt>
      <trkpt lat="46.19362" lon="4.54781">
        <ele>480.4</ele>
        <time>2020-10-17T10:40:11Z</time>
      </trkpt>
      <trkpt lat="46.19365" lon="4.54779">
        <ele>480.2</ele>
        <time>2020-10-17T10:40:12Z</time>
      </trkpt>
      <trkpt lat="46.19365" lon="4.54779">
        <ele>480.4</ele>
        <time>2020-10-17T10:40:13Z</time>
      </trkpt>
      <trkpt lat="46.19367" lon="4.54777">
        <ele>480.6</ele>
        <time>2020-10-17T10:40:14Z</time>
      </trkpt>
      <trkpt lat="46.19367" lon="4.54777">
        <ele>481</ele>
        <time>2020-10-17T10:40:15Z</time>
      </trkpt>
      <trkpt lat="46.19369" lon="4.54775">
        <ele>481.4</ele>
        <time>2020-10-17T10:40:16Z</time>
      </trkpt>
      <trkpt lat="46.19369" lon="4.54775">
        <ele>481.6</ele>
        <time>2020-10-17T10:40:17Z</time>
      </trkpt>
      <trkpt lat="46.19371" lon="4.54773">
        <ele>482</ele>
        <time>2020-10-17T10:40:18Z</time>
      </trkpt>
      <trkpt lat="46.19371" lon="4.54773">
        <ele>482</ele>
        <time>2020-10-17T10:40:19Z</time>
      </trkpt>
      <trkpt lat="46.19374" lon="4.54772">
        <ele>482.2</ele>
        <time>2020-10-17T10:40:20Z</time>
      </trkpt>
      <trkpt lat="46.19374" lon="4.54772">
        <ele>482.2</ele>
        <time>2020-10-17T10:40:21Z</time>
      </trkpt>
      <trkpt lat="46.19377" lon="4.54772">
        <ele>482.4</ele>
        <time>2020-10-17T10:40:22Z</time>
      </trkpt>
      <trkpt lat="46.19377" lon="4.54772">
        <ele>482.6</ele>
        <time>2020-10-17T10:40:23Z</time>
      </trkpt>
      <trkpt lat="46.1938" lon="4.54772">
        <ele>482.8</ele>
        <time>2020-10-17T10:40:24Z</time>
      </trkpt>
      <trkpt lat="46.1938" lon="4.54772">
        <ele>483.2</ele>
        <time>2020-10-17T10:40:25Z</time>
      </trkpt>
      <trkpt lat="46.19382" lon="4.54771">
        <ele>483.4</ele>
        <time>2020-10-17T10:40:26Z</time>
      </trkpt>
      <trkpt lat="46.19382" lon="4.54771">
        <ele>483.6</ele>
        <time>2020-10-17T10:40:27Z</time>
      </trkpt>
      <trkpt lat="46.19385" lon="4.5477">
        <ele>483.6</ele>
        <time>2020-10-17T10:40:28Z</time>
      </trkpt>
      <trkpt lat="46.19385" lon="4.5477">
        <ele>483.8</ele>
        <time>2020-10-17T10:40:29Z</time>
      </trkpt>
      <trkpt lat="46.19388" lon="4.5477">
        <ele>483.8</ele>
        <time>2020-10-17T10:40:30Z</time>
      </trkpt>
      <trkpt lat="46.19388" lon="4.5477">
        <ele>484</ele>
        <time>2020-10-17T10:40:31Z</time>
      </trkpt>
      <trkpt lat="46.1939" lon="4.5477">
        <ele>484</ele>
        <time>2020-10-17T10:40:32Z</time>
      </trkpt>
      <trkpt lat="46.1939" lon="4.5477">
        <ele>484.2</ele>
        <time>2020-10-17T10:40:33Z</time>
      </trkpt>
      <trkpt lat="46.19393" lon="4.54769">
        <ele>484.6</ele>
        <time>2020-10-17T10:40:34Z</time>
      </trkpt>
      <trkpt lat="46.19393" lon="4.54769">
        <ele>484.8</ele>
        <time>2020-10-17T10:40:35Z</time>
      </trkpt>
      <trkpt lat="46.19395" lon="4.54768">
        <ele>485</ele>
        <time>2020-10-17T10:40:36Z</time>
      </trkpt>
      <trkpt lat="46.19395" lon="4.54768">
        <ele>485.2</ele>
        <time>2020-10-17T10:40:37Z</time>
      </trkpt>
      <trkpt lat="46.19397" lon="4.54767">
        <ele>485.4</ele>
        <time>2020-10-17T10:40:38Z</time>
      </trkpt>
      <trkpt lat="46.19397" lon="4.54767">
        <ele>485.8</ele>
        <time>2020-10-17T10:40:39Z</time>
      </trkpt>
      <trkpt lat="46.194" lon="4.54766">
        <ele>486.2</ele>
        <time>2020-10-17T10:40:40Z</time>
      </trkpt>
      <trkpt lat="46.194" lon="4.54766">
        <ele>486.2</ele>
        <time>2020-10-17T10:40:41Z</time>
      </trkpt>
      <trkpt lat="46.19403" lon="4.54764">
        <ele>486.6</ele>
        <time>2020-10-17T10:40:42Z</time>
      </trkpt>
      <trkpt lat="46.19403" lon="4.54764">
        <ele>486.6</ele>
        <time>2020-10-17T10:40:43Z</time>
      </trkpt>
      <trkpt lat="46.19406" lon="4.54764">
        <ele>486.8</ele>
        <time>2020-10-17T10:40:44Z</time>
      </trkpt>
      <trkpt lat="46.19406" lon="4.54764">
        <ele>486.8</ele>
        <time>2020-10-17T10:40:45Z</time>
      </trkpt>
      <trkpt lat="46.19409" lon="4.54764">
        <ele>486.8</ele>
        <time>2020-10-17T10:40:46Z</time>
      </trkpt>
      <trkpt lat="46.19409" lon="4.54764">
        <ele>487</ele>
        <time>2020-10-17T10:40:47Z</time>
      </trkpt>
      <trkpt lat="46.19411" lon="4.54764">
        <ele>487.2</ele>
        <time>2020-10-17T10:40:48Z</time>
      </trkpt>
      <trkpt lat="46.19411" lon="4.54764">
        <ele>487.2</ele>
        <time>2020-10-17T10:40:49Z</time>
      </trkpt>
      <trkpt lat="46.19413" lon="4.54764">
        <ele>487.2</ele>
        <time>2020-10-17T10:40:50Z</time>
      </trkpt>
      <trkpt lat="46.19413" lon="4.54764">
        <ele>487.4</ele>
        <time>2020-10-17T10:40:51Z</time>
      </trkpt>
      <trkpt lat="46.19416" lon="4.54764">
        <ele>487.4</ele>
        <time>2020-10-17T10:40:52Z</time>
      </trkpt>
      <trkpt lat="46.19416" lon="4.54764">
        <ele>487.4</ele>
        <time>2020-10-17T10:40:53Z</time>
      </trkpt>
      <trkpt lat="46.19419" lon="4.54765">
        <ele>487.8</ele>
        <time>2020-10-17T10:40:54Z</time>
      </trkpt>
      <trkpt lat="46.19419" lon="4.54765">
        <ele>487.8</ele>
        <time>2020-10-17T10:40:55Z</time>
      </trkpt>
      <trkpt lat="46.19421" lon="4.54765">
        <ele>488.2</ele>
        <time>2020-10-17T10:40:56Z</time>
      </trkpt>
      <trkpt lat="46.19421" lon="4.54765">
        <ele>488.2</ele>
        <time>2020-10-17T10:40:57Z</time>
      </trkpt>
      <trkpt lat="46.19424" lon="4.54765">
        <ele>488.4</ele>
        <time>2020-10-17T10:40:58Z</time>
      </trkpt>
      <trkpt lat="46.19424" lon="4.54765">
        <ele>488.6</ele>
        <time>2020-10-17T10:40:59Z</time>
      </trkpt>
      <trkpt lat="46.19427" lon="4.54764">
        <ele>488.8</ele>
        <time>2020-10-17T10:41:00Z</time>
      </trkpt>
      <trkpt lat="46.19427" lon="4.54764">
        <ele>489.4</ele>
        <time>2020-10-17T10:41:01Z</time>
      </trkpt>
      <trkpt lat="46.1943" lon="4.54764">
        <ele>489.4</ele>
        <time>2020-10-17T10:41:02Z</time>
      </trkpt>
      <trkpt lat="46.1943" lon="4.54764">
        <ele>489.4</ele>
        <time>2020-10-17T10:41:03Z</time>
      </trkpt>
      <trkpt lat="46.19432" lon="4.54765">
        <ele>489.8</ele>
        <time>2020-10-17T10:41:04Z</time>
      </trkpt>
      <trkpt lat="46.19432" lon="4.54765">
        <ele>489.6</ele>
        <time>2020-10-17T10:41:05Z</time>
      </trkpt>
      <trkpt lat="46.19435" lon="4.54765">
        <ele>490</ele>
        <time>2020-10-17T10:41:06Z</time>
      </trkpt>
      <trkpt lat="46.19435" lon="4.54765">
        <ele>490.2</ele>
        <time>2020-10-17T10:41:07Z</time>
      </trkpt>
      <trkpt lat="46.19437" lon="4.54765">
        <ele>490.4</ele>
        <time>2020-10-17T10:41:08Z</time>
      </trkpt>
      <trkpt lat="46.19437" lon="4.54765">
        <ele>490.6</ele>
        <time>2020-10-17T10:41:09Z</time>
      </trkpt>
      <trkpt lat="46.1944" lon="4.54766">
        <ele>490.8</ele>
        <time>2020-10-17T10:41:10Z</time>
      </trkpt>
      <trkpt lat="46.1944" lon="4.54766">
        <ele>491.2</ele>
        <time>2020-10-17T10:41:11Z</time>
      </trkpt>
      <trkpt lat="46.19442" lon="4.54765">
        <ele>491.2</ele>
        <time>2020-10-17T10:41:12Z</time>
      </trkpt>
      <trkpt lat="46.19442" lon="4.54765">
        <ele>491.4</ele>
        <time>2020-10-17T10:41:13Z</time>
      </trkpt>
      <trkpt lat="46.19445" lon="4.54764">
        <ele>491.2</ele>
        <time>2020-10-17T10:41:14Z</time>
      </trkpt>
      <trkpt lat="46.19445" lon="4.54764">
        <ele>491.6</ele>
        <time>2020-10-17T10:41:15Z</time>
      </trkpt>
      <trkpt lat="46.19447" lon="4.54764">
        <ele>492</ele>
        <time>2020-10-17T10:41:16Z</time>
      </trkpt>
      <trkpt lat="46.19447" lon="4.54764">
        <ele>492</ele>
        <time>2020-10-17T10:41:17Z</time>
      </trkpt>
      <trkpt lat="46.1945" lon="4.54765">
        <ele>492.2</ele>
        <time>2020-10-17T10:41:18Z</time>
      </trkpt>
      <trkpt lat="46.1945" lon="4.54765">
        <ele>492.4</ele>
        <time>2020-10-17T10:41:19Z</time>
      </trkpt>
      <trkpt lat="46.19452" lon="4.54765">
        <ele>492.8</ele>
        <time>2020-10-17T10:41:20Z</time>
      </trkpt>
      <trkpt lat="46.19452" lon="4.54765">
        <ele>492.8</ele>
        <time>2020-10-17T10:41:21Z</time>
      </trkpt>
      <trkpt lat="46.19455" lon="4.54765">
        <ele>493</ele>
        <time>2020-10-17T10:41:22Z</time>
      </trkpt>
      <trkpt lat="46.19455" lon="4.54765">
        <ele>493.2</ele>
        <time>2020-10-17T10:41:23Z</time>
      </trkpt>
      <trkpt lat="46.19458" lon="4.54764">
        <ele>493.4</ele>
        <time>2020-10-17T10:41:24Z</time>
      </trkpt>
      <trkpt lat="46.19458" lon="4.54764">
        <ele>493.8</ele>
        <time>2020-10-17T10:41:25Z</time>
      </trkpt>
      <trkpt lat="46.19458" lon="4.54764">
        <ele>494</ele>
        <time>2020-10-17T10:41:26Z</time>
      </trkpt>
      <trkpt lat="46.19461" lon="4.54764">
        <ele>494.4</ele>
        <time>2020-10-17T10:41:27Z</time>
      </trkpt>
      <trkpt lat="46.19461" lon="4.54764">
        <ele>494.4</ele>
        <time>2020-10-17T10:41:28Z</time>
      </trkpt>
      <trkpt lat="46.19461" lon="4.54764">
        <ele>494.2</ele>
        <time>2020-10-17T10:41:29Z</time>
      </trkpt>
      <trkpt lat="46.19463" lon="4.54764">
        <ele>494.6</ele>
        <time>2020-10-17T10:41:30Z</time>
      </trkpt>
      <trkpt lat="46.19463" lon="4.54764">
        <ele>495</ele>
        <time>2020-10-17T10:41:31Z</time>
      </trkpt>
      <trkpt lat="46.19466" lon="4.54764">
        <ele>495.2</ele>
        <time>2020-10-17T10:41:32Z</time>
      </trkpt>
      <trkpt lat="46.19466" lon="4.54764">
        <ele>495.4</ele>
        <time>2020-10-17T10:41:33Z</time>
      </trkpt>
      <trkpt lat="46.19469" lon="4.54763">
        <ele>495.2</ele>
        <time>2020-10-17T10:41:34Z</time>
      </trkpt>
      <trkpt lat="46.19471" lon="4.54764">
        <ele>495.8</ele>
        <time>2020-10-17T10:41:35Z</time>
      </trkpt>
      <trkpt lat="46.19471" lon="4.54764">
        <ele>495.8</ele>
        <time>2020-10-17T10:41:36Z</time>
      </trkpt>
      <trkpt lat="46.19474" lon="4.54764">
        <ele>496.4</ele>
        <time>2020-10-17T10:41:37Z</time>
      </trkpt>
      <trkpt lat="46.19474" lon="4.54764">
        <ele>496.4</ele>
        <time>2020-10-17T10:41:38Z</time>
      </trkpt>
      <trkpt lat="46.19477" lon="4.54764">
        <ele>496.8</ele>
        <time>2020-10-17T10:41:39Z</time>
      </trkpt>
      <trkpt lat="46.19477" lon="4.54764">
        <ele>497</ele>
        <time>2020-10-17T10:41:40Z</time>
      </trkpt>
      <trkpt lat="46.19479" lon="4.54763">
        <ele>497</ele>
        <time>2020-10-17T10:41:41Z</time>
      </trkpt>
      <trkpt lat="46.19479" lon="4.54763">
        <ele>497.2</ele>
        <time>2020-10-17T10:41:42Z</time>
      </trkpt>
      <trkpt lat="46.19482" lon="4.54763">
        <ele>497.4</ele>
        <time>2020-10-17T10:41:43Z</time>
      </trkpt>
      <trkpt lat="46.19482" lon="4.54763">
        <ele>497.8</ele>
        <time>2020-10-17T10:41:44Z</time>
      </trkpt>
      <trkpt lat="46.19486" lon="4.54763">
        <ele>497.8</ele>
        <time>2020-10-17T10:41:45Z</time>
      </trkpt>
      <trkpt lat="46.19486" lon="4.54763">
        <ele>497.8</ele>
        <time>2020-10-17T10:41:46Z</time>
      </trkpt>
      <trkpt lat="46.19488" lon="4.54762">
        <ele>498</ele>
        <time>2020-10-17T10:41:47Z</time>
      </trkpt>
      <trkpt lat="46.19488" lon="4.54762">
        <ele>498.2</ele>
        <time>2020-10-17T10:41:48Z</time>
      </trkpt>
      <trkpt lat="46.19491" lon="4.54762">
        <ele>498.2</ele>
        <time>2020-10-17T10:41:49Z</time>
      </trkpt>
      <trkpt lat="46.19491" lon="4.54762">
        <ele>498.4</ele>
        <time>2020-10-17T10:41:50Z</time>
      </trkpt>
      <trkpt lat="46.19494" lon="4.54761">
        <ele>498.8</ele>
        <time>2020-10-17T10:41:51Z</time>
      </trkpt>
      <trkpt lat="46.19494" lon="4.54761">
        <ele>499.2</ele>
        <time>2020-10-17T10:41:52Z</time>
      </trkpt>
      <trkpt lat="46.19497" lon="4.5476">
        <ele>499.2</ele>
        <time>2020-10-17T10:41:53Z</time>
      </trkpt>
      <trkpt lat="46.19497" lon="4.5476">
        <ele>499</ele>
        <time>2020-10-17T10:41:54Z</time>
      </trkpt>
      <trkpt lat="46.195" lon="4.54759">
        <ele>499.4</ele>
        <time>2020-10-17T10:41:55Z</time>
      </trkpt>
      <trkpt lat="46.195" lon="4.54759">
        <ele>499.6</ele>
        <time>2020-10-17T10:41:56Z</time>
      </trkpt>
      <trkpt lat="46.19503" lon="4.54758">
        <ele>499.6</ele>
        <time>2020-10-17T10:41:57Z</time>
      </trkpt>
      <trkpt lat="46.19503" lon="4.54758">
        <ele>499.8</ele>
        <time>2020-10-17T10:41:58Z</time>
      </trkpt>
      <trkpt lat="46.19505" lon="4.54758">
        <ele>500</ele>
        <time>2020-10-17T10:41:59Z</time>
      </trkpt>
      <trkpt lat="46.19505" lon="4.54758">
        <ele>500.4</ele>
        <time>2020-10-17T10:42:00Z</time>
      </trkpt>
      <trkpt lat="46.19508" lon="4.54757">
        <ele>500.4</ele>
        <time>2020-10-17T10:42:01Z</time>
      </trkpt>
      <trkpt lat="46.19508" lon="4.54757">
        <ele>500.4</ele>
        <time>2020-10-17T10:42:02Z</time>
      </trkpt>
      <trkpt lat="46.19511" lon="4.54756">
        <ele>500.8</ele>
        <time>2020-10-17T10:42:03Z</time>
      </trkpt>
      <trkpt lat="46.19511" lon="4.54756">
        <ele>501</ele>
        <time>2020-10-17T10:42:04Z</time>
      </trkpt>
      <trkpt lat="46.19513" lon="4.54756">
        <ele>501.2</ele>
        <time>2020-10-17T10:42:05Z</time>
      </trkpt>
      <trkpt lat="46.19513" lon="4.54756">
        <ele>501.2</ele>
        <time>2020-10-17T10:42:06Z</time>
      </trkpt>
      <trkpt lat="46.19516" lon="4.54756">
        <ele>501.2</ele>
        <time>2020-10-17T10:42:07Z</time>
      </trkpt>
      <trkpt lat="46.19516" lon="4.54756">
        <ele>501.8</ele>
        <time>2020-10-17T10:42:08Z</time>
      </trkpt>
      <trkpt lat="46.19518" lon="4.54757">
        <ele>502</ele>
        <time>2020-10-17T10:42:09Z</time>
      </trkpt>
      <trkpt lat="46.19518" lon="4.54757">
        <ele>502.2</ele>
        <time>2020-10-17T10:42:10Z</time>
      </trkpt>
      <trkpt lat="46.1952" lon="4.54757">
        <ele>502.6</ele>
        <time>2020-10-17T10:42:11Z</time>
      </trkpt>
      <trkpt lat="46.1952" lon="4.54757">
        <ele>502.8</ele>
        <time>2020-10-17T10:42:12Z</time>
      </trkpt>
      <trkpt lat="46.19523" lon="4.54757">
        <ele>503</ele>
        <time>2020-10-17T10:42:13Z</time>
      </trkpt>
      <trkpt lat="46.19523" lon="4.54757">
        <ele>503.2</ele>
        <time>2020-10-17T10:42:14Z</time>
      </trkpt>
      <trkpt lat="46.19525" lon="4.54757">
        <ele>503.6</ele>
        <time>2020-10-17T10:42:15Z</time>
      </trkpt>
      <trkpt lat="46.19525" lon="4.54757">
        <ele>503.6</ele>
        <time>2020-10-17T10:42:16Z</time>
      </trkpt>
      <trkpt lat="46.19527" lon="4.54757">
        <ele>503.6</ele>
        <time>2020-10-17T10:42:17Z</time>
      </trkpt>
      <trkpt lat="46.19527" lon="4.54757">
        <ele>504</ele>
        <time>2020-10-17T10:42:18Z</time>
      </trkpt>
      <trkpt lat="46.1953" lon="4.54756">
        <ele>504.2</ele>
        <time>2020-10-17T10:42:19Z</time>
      </trkpt>
      <trkpt lat="46.1953" lon="4.54756">
        <ele>504.6</ele>
        <time>2020-10-17T10:42:20Z</time>
      </trkpt>
      <trkpt lat="46.19533" lon="4.54755">
        <ele>504.6</ele>
        <time>2020-10-17T10:42:21Z</time>
      </trkpt>
      <trkpt lat="46.19533" lon="4.54755">
        <ele>505.2</ele>
        <time>2020-10-17T10:42:22Z</time>
      </trkpt>
      <trkpt lat="46.19536" lon="4.54755">
        <ele>505.4</ele>
        <time>2020-10-17T10:42:23Z</time>
      </trkpt>
      <trkpt lat="46.19536" lon="4.54755">
        <ele>505.6</ele>
        <time>2020-10-17T10:42:24Z</time>
      </trkpt>
      <trkpt lat="46.19539" lon="4.54753">
        <ele>506</ele>
        <time>2020-10-17T10:42:25Z</time>
      </trkpt>
      <trkpt lat="46.19539" lon="4.54753">
        <ele>505.8</ele>
        <time>2020-10-17T10:42:26Z</time>
      </trkpt>
      <trkpt lat="46.19542" lon="4.54753">
        <ele>506.2</ele>
        <time>2020-10-17T10:42:27Z</time>
      </trkpt>
      <trkpt lat="46.19542" lon="4.54753">
        <ele>506.6</ele>
        <time>2020-10-17T10:42:28Z</time>
      </trkpt>
      <trkpt lat="46.19545" lon="4.54754">
        <ele>506.6</ele>
        <time>2020-10-17T10:42:29Z</time>
      </trkpt>
      <trkpt lat="46.19545" lon="4.54754">
        <ele>507</ele>
        <time>2020-10-17T10:42:30Z</time>
      </trkpt>
      <trkpt lat="46.19547" lon="4.54754">
        <ele>507</ele>
        <time>2020-10-17T10:42:31Z</time>
      </trkpt>
      <trkpt lat="46.19547" lon="4.54754">
        <ele>507.4</ele>
        <time>2020-10-17T10:42:32Z</time>
      </trkpt>
      <trkpt lat="46.1955" lon="4.54753">
        <ele>507.6</ele>
        <time>2020-10-17T10:42:33Z</time>
      </trkpt>
      <trkpt lat="46.1955" lon="4.54753">
        <ele>508</ele>
        <time>2020-10-17T10:42:34Z</time>
      </trkpt>
      <trkpt lat="46.19552" lon="4.54752">
        <ele>508</ele>
        <time>2020-10-17T10:42:35Z</time>
      </trkpt>
      <trkpt lat="46.19552" lon="4.54752">
        <ele>508.4</ele>
        <time>2020-10-17T10:42:36Z</time>
      </trkpt>
      <trkpt lat="46.19555" lon="4.54751">
        <ele>508.6</ele>
        <time>2020-10-17T10:42:37Z</time>
      </trkpt>
      <trkpt lat="46.19555" lon="4.54751">
        <ele>508.6</ele>
        <time>2020-10-17T10:42:38Z</time>
      </trkpt>
      <trkpt lat="46.19558" lon="4.5475">
        <ele>508.8</ele>
        <time>2020-10-17T10:42:39Z</time>
      </trkpt>
      <trkpt lat="46.19558" lon="4.5475">
        <ele>509</ele>
        <time>2020-10-17T10:42:40Z</time>
      </trkpt>
      <trkpt lat="46.19562" lon="4.54749">
        <ele>509.4</ele>
        <time>2020-10-17T10:42:41Z</time>
      </trkpt>
      <trkpt lat="46.19562" lon="4.54749">
        <ele>509.4</ele>
        <time>2020-10-17T10:42:42Z</time>
      </trkpt>
      <trkpt lat="46.19564" lon="4.54748">
        <ele>509.8</ele>
        <time>2020-10-17T10:42:43Z</time>
      </trkpt>
      <trkpt lat="46.19564" lon="4.54748">
        <ele>509.8</ele>
        <time>2020-10-17T10:42:44Z</time>
      </trkpt>
      <trkpt lat="46.19565" lon="4.54748">
        <ele>509.6</ele>
        <time>2020-10-17T10:42:45Z</time>
      </trkpt>
      <trkpt lat="46.19565" lon="4.54748">
        <ele>510</ele>
        <time>2020-10-17T10:42:46Z</time>
      </trkpt>
      <trkpt lat="46.19568" lon="4.54747">
        <ele>510.2</ele>
        <time>2020-10-17T10:42:47Z</time>
      </trkpt>
      <trkpt lat="46.19568" lon="4.54747">
        <ele>510.6</ele>
        <time>2020-10-17T10:42:48Z</time>
      </trkpt>
      <trkpt lat="46.19571" lon="4.54747">
        <ele>511</ele>
        <time>2020-10-17T10:42:49Z</time>
      </trkpt>
      <trkpt lat="46.19573" lon="4.54747">
        <ele>511.4</ele>
        <time>2020-10-17T10:42:50Z</time>
      </trkpt>
      <trkpt lat="46.19575" lon="4.54747">
        <ele>511.4</ele>
        <time>2020-10-17T10:42:51Z</time>
      </trkpt>
      <trkpt lat="46.19575" lon="4.54747">
        <ele>512</ele>
        <time>2020-10-17T10:42:52Z</time>
      </trkpt>
      <trkpt lat="46.19578" lon="4.54747">
        <ele>512.2</ele>
        <time>2020-10-17T10:42:53Z</time>
      </trkpt>
      <trkpt lat="46.19578" lon="4.54747">
        <ele>512.8</ele>
        <time>2020-10-17T10:42:54Z</time>
      </trkpt>
      <trkpt lat="46.1958" lon="4.54748">
        <ele>512.6</ele>
        <time>2020-10-17T10:42:55Z</time>
      </trkpt>
      <trkpt lat="46.1958" lon="4.54748">
        <ele>512.8</ele>
        <time>2020-10-17T10:42:56Z</time>
      </trkpt>
      <trkpt lat="46.19583" lon="4.5475">
        <ele>513</ele>
        <time>2020-10-17T10:42:57Z</time>
      </trkpt>
      <trkpt lat="46.19583" lon="4.5475">
        <ele>513</ele>
        <time>2020-10-17T10:42:58Z</time>
      </trkpt>
      <trkpt lat="46.19586" lon="4.54751">
        <ele>513.2</ele>
        <time>2020-10-17T10:42:59Z</time>
      </trkpt>
      <trkpt lat="46.19586" lon="4.54751">
        <ele>513.2</ele>
        <time>2020-10-17T10:43:00Z</time>
      </trkpt>
      <trkpt lat="46.19589" lon="4.54752">
        <ele>513.6</ele>
        <time>2020-10-17T10:43:01Z</time>
      </trkpt>
      <trkpt lat="46.19589" lon="4.54752">
        <ele>513.6</ele>
        <time>2020-10-17T10:43:02Z</time>
      </trkpt>
      <trkpt lat="46.19592" lon="4.54754">
        <ele>514</ele>
        <time>2020-10-17T10:43:03Z</time>
      </trkpt>
      <trkpt lat="46.19592" lon="4.54754">
        <ele>514.2</ele>
        <time>2020-10-17T10:43:04Z</time>
      </trkpt>
      <trkpt lat="46.19595" lon="4.54755">
        <ele>514.4</ele>
        <time>2020-10-17T10:43:05Z</time>
      </trkpt>
      <trkpt lat="46.19595" lon="4.54755">
        <ele>514.8</ele>
        <time>2020-10-17T10:43:06Z</time>
      </trkpt>
      <trkpt lat="46.19598" lon="4.54756">
        <ele>514.8</ele>
        <time>2020-10-17T10:43:07Z</time>
      </trkpt>
      <trkpt lat="46.19598" lon="4.54756">
        <ele>514.8</ele>
        <time>2020-10-17T10:43:08Z</time>
      </trkpt>
      <trkpt lat="46.19601" lon="4.54757">
        <ele>515</ele>
        <time>2020-10-17T10:43:09Z</time>
      </trkpt>
      <trkpt lat="46.19601" lon="4.54757">
        <ele>515.2</ele>
        <time>2020-10-17T10:43:10Z</time>
      </trkpt>
      <trkpt lat="46.19603" lon="4.54759">
        <ele>515.2</ele>
        <time>2020-10-17T10:43:11Z</time>
      </trkpt>
      <trkpt lat="46.19603" lon="4.54759">
        <ele>515.6</ele>
        <time>2020-10-17T10:43:12Z</time>
      </trkpt>
      <trkpt lat="46.19606" lon="4.54761">
        <ele>515.6</ele>
        <time>2020-10-17T10:43:13Z</time>
      </trkpt>
      <trkpt lat="46.19608" lon="4.54761">
        <ele>516</ele>
        <time>2020-10-17T10:43:14Z</time>
      </trkpt>
      <trkpt lat="46.19608" lon="4.54761">
        <ele>515.8</ele>
        <time>2020-10-17T10:43:15Z</time>
      </trkpt>
      <trkpt lat="46.1961" lon="4.54762">
        <ele>516</ele>
        <time>2020-10-17T10:43:16Z</time>
      </trkpt>
      <trkpt lat="46.1961" lon="4.54762">
        <ele>516.2</ele>
        <time>2020-10-17T10:43:17Z</time>
      </trkpt>
      <trkpt lat="46.19613" lon="4.54763">
        <ele>516</ele>
        <time>2020-10-17T10:43:18Z</time>
      </trkpt>
      <trkpt lat="46.19613" lon="4.54763">
        <ele>516.4</ele>
        <time>2020-10-17T10:43:19Z</time>
      </trkpt>
      <trkpt lat="46.19616" lon="4.54764">
        <ele>516.6</ele>
        <time>2020-10-17T10:43:20Z</time>
      </trkpt>
      <trkpt lat="46.19616" lon="4.54764">
        <ele>516.6</ele>
        <time>2020-10-17T10:43:21Z</time>
      </trkpt>
      <trkpt lat="46.19619" lon="4.54764">
        <ele>516.6</ele>
        <time>2020-10-17T10:43:22Z</time>
      </trkpt>
      <trkpt lat="46.19619" lon="4.54764">
        <ele>516.8</ele>
        <time>2020-10-17T10:43:23Z</time>
      </trkpt>
      <trkpt lat="46.19621" lon="4.54765">
        <ele>517.2</ele>
        <time>2020-10-17T10:43:24Z</time>
      </trkpt>
      <trkpt lat="46.19621" lon="4.54765">
        <ele>517.2</ele>
        <time>2020-10-17T10:43:25Z</time>
      </trkpt>
      <trkpt lat="46.19624" lon="4.54766">
        <ele>517.6</ele>
        <time>2020-10-17T10:43:26Z</time>
      </trkpt>
      <trkpt lat="46.19624" lon="4.54766">
        <ele>517.8</ele>
        <time>2020-10-17T10:43:27Z</time>
      </trkpt>
      <trkpt lat="46.19627" lon="4.54767">
        <ele>518.2</ele>
        <time>2020-10-17T10:43:28Z</time>
      </trkpt>
      <trkpt lat="46.19627" lon="4.54767">
        <ele>518.2</ele>
        <time>2020-10-17T10:43:29Z</time>
      </trkpt>
      <trkpt lat="46.19629" lon="4.54769">
        <ele>518.2</ele>
        <time>2020-10-17T10:43:30Z</time>
      </trkpt>
      <trkpt lat="46.19629" lon="4.54769">
        <ele>518.4</ele>
        <time>2020-10-17T10:43:31Z</time>
      </trkpt>
      <trkpt lat="46.19631" lon="4.5477">
        <ele>518.4</ele>
        <time>2020-10-17T10:43:32Z</time>
      </trkpt>
      <trkpt lat="46.19631" lon="4.5477">
        <ele>518.8</ele>
        <time>2020-10-17T10:43:33Z</time>
      </trkpt>
      <trkpt lat="46.19631" lon="4.5477">
        <ele>519</ele>
        <time>2020-10-17T10:43:34Z</time>
      </trkpt>
      <trkpt lat="46.19634" lon="4.54771">
        <ele>519.2</ele>
        <time>2020-10-17T10:43:35Z</time>
      </trkpt>
      <trkpt lat="46.19634" lon="4.54771">
        <ele>519.4</ele>
        <time>2020-10-17T10:43:36Z</time>
      </trkpt>
      <trkpt lat="46.19636" lon="4.54772">
        <ele>519.4</ele>
        <time>2020-10-17T10:43:37Z</time>
      </trkpt>
      <trkpt lat="46.19636" lon="4.54772">
        <ele>519.4</ele>
        <time>2020-10-17T10:43:38Z</time>
      </trkpt>
      <trkpt lat="46.19638" lon="4.54773">
        <ele>519.8</ele>
        <time>2020-10-17T10:43:39Z</time>
      </trkpt>
      <trkpt lat="46.1964" lon="4.54774">
        <ele>520</ele>
        <time>2020-10-17T10:43:40Z</time>
      </trkpt>
      <trkpt lat="46.19642" lon="4.54775">
        <ele>520.2</ele>
        <time>2020-10-17T10:43:41Z</time>
      </trkpt>
      <trkpt lat="46.19644" lon="4.54776">
        <ele>520.4</ele>
        <time>2020-10-17T10:43:42Z</time>
      </trkpt>
      <trkpt lat="46.19644" lon="4.54776">
        <ele>520.6</ele>
        <time>2020-10-17T10:43:43Z</time>
      </trkpt>
      <trkpt lat="46.19646" lon="4.54778">
        <ele>520.8</ele>
        <time>2020-10-17T10:43:44Z</time>
      </trkpt>
      <trkpt lat="46.19646" lon="4.54778">
        <ele>521</ele>
        <time>2020-10-17T10:43:45Z</time>
      </trkpt>
      <trkpt lat="46.19649" lon="4.54779">
        <ele>521.2</ele>
        <time>2020-10-17T10:43:46Z</time>
      </trkpt>
      <trkpt lat="46.19649" lon="4.54779">
        <ele>521</ele>
        <time>2020-10-17T10:43:47Z</time>
      </trkpt>
      <trkpt lat="46.19652" lon="4.5478">
        <ele>521</ele>
        <time>2020-10-17T10:43:48Z</time>
      </trkpt>
      <trkpt lat="46.19652" lon="4.5478">
        <ele>521.2</ele>
        <time>2020-10-17T10:43:49Z</time>
      </trkpt>
      <trkpt lat="46.19655" lon="4.54782">
        <ele>521.2</ele>
        <time>2020-10-17T10:43:50Z</time>
      </trkpt>
      <trkpt lat="46.19655" lon="4.54782">
        <ele>521.4</ele>
        <time>2020-10-17T10:43:51Z</time>
      </trkpt>
      <trkpt lat="46.19658" lon="4.54784">
        <ele>521.6</ele>
        <time>2020-10-17T10:43:52Z</time>
      </trkpt>
      <trkpt lat="46.19658" lon="4.54784">
        <ele>521.4</ele>
        <time>2020-10-17T10:43:53Z</time>
      </trkpt>
      <trkpt lat="46.19661" lon="4.54785">
        <ele>522</ele>
        <time>2020-10-17T10:43:54Z</time>
      </trkpt>
      <trkpt lat="46.19661" lon="4.54785">
        <ele>522.2</ele>
        <time>2020-10-17T10:43:55Z</time>
      </trkpt>
      <trkpt lat="46.19664" lon="4.54786">
        <ele>522.6</ele>
        <time>2020-10-17T10:43:56Z</time>
      </trkpt>
      <trkpt lat="46.19664" lon="4.54786">
        <ele>522.6</ele>
        <time>2020-10-17T10:43:57Z</time>
      </trkpt>
      <trkpt lat="46.19667" lon="4.54787">
        <ele>523</ele>
        <time>2020-10-17T10:43:58Z</time>
      </trkpt>
      <trkpt lat="46.19667" lon="4.54787">
        <ele>523</ele>
        <time>2020-10-17T10:43:59Z</time>
      </trkpt>
      <trkpt lat="46.1967" lon="4.54788">
        <ele>523.2</ele>
        <time>2020-10-17T10:44:00Z</time>
      </trkpt>
      <trkpt lat="46.1967" lon="4.54788">
        <ele>523.4</ele>
        <time>2020-10-17T10:44:01Z</time>
      </trkpt>
      <trkpt lat="46.19673" lon="4.5479">
        <ele>523.2</ele>
        <time>2020-10-17T10:44:02Z</time>
      </trkpt>
      <trkpt lat="46.19673" lon="4.5479">
        <ele>523.6</ele>
        <time>2020-10-17T10:44:03Z</time>
      </trkpt>
      <trkpt lat="46.19676" lon="4.5479">
        <ele>523.8</ele>
        <time>2020-10-17T10:44:04Z</time>
      </trkpt>
      <trkpt lat="46.19676" lon="4.5479">
        <ele>524</ele>
        <time>2020-10-17T10:44:05Z</time>
      </trkpt>
      <trkpt lat="46.19679" lon="4.54791">
        <ele>524</ele>
        <time>2020-10-17T10:44:06Z</time>
      </trkpt>
      <trkpt lat="46.19679" lon="4.54791">
        <ele>524.4</ele>
        <time>2020-10-17T10:44:07Z</time>
      </trkpt>
      <trkpt lat="46.19682" lon="4.54792">
        <ele>524.6</ele>
        <time>2020-10-17T10:44:08Z</time>
      </trkpt>
      <trkpt lat="46.19682" lon="4.54792">
        <ele>524.8</ele>
        <time>2020-10-17T10:44:09Z</time>
      </trkpt>
      <trkpt lat="46.19684" lon="4.54793">
        <ele>525</ele>
        <time>2020-10-17T10:44:10Z</time>
      </trkpt>
      <trkpt lat="46.19684" lon="4.54793">
        <ele>525</ele>
        <time>2020-10-17T10:44:11Z</time>
      </trkpt>
      <trkpt lat="46.19687" lon="4.54793">
        <ele>525.2</ele>
        <time>2020-10-17T10:44:12Z</time>
      </trkpt>
      <trkpt lat="46.19687" lon="4.54793">
        <ele>525.4</ele>
        <time>2020-10-17T10:44:13Z</time>
      </trkpt>
      <trkpt lat="46.1969" lon="4.54793">
        <ele>525.4</ele>
        <time>2020-10-17T10:44:14Z</time>
      </trkpt>
      <trkpt lat="46.1969" lon="4.54793">
        <ele>525.8</ele>
        <time>2020-10-17T10:44:15Z</time>
      </trkpt>
      <trkpt lat="46.19692" lon="4.54794">
        <ele>526</ele>
        <time>2020-10-17T10:44:16Z</time>
      </trkpt>
      <trkpt lat="46.19692" lon="4.54794">
        <ele>526</ele>
        <time>2020-10-17T10:44:17Z</time>
      </trkpt>
      <trkpt lat="46.19694" lon="4.54794">
        <ele>526.2</ele>
        <time>2020-10-17T10:44:18Z</time>
      </trkpt>
      <trkpt lat="46.19694" lon="4.54794">
        <ele>526.2</ele>
        <time>2020-10-17T10:44:19Z</time>
      </trkpt>
      <trkpt lat="46.19696" lon="4.54794">
        <ele>526.8</ele>
        <time>2020-10-17T10:44:20Z</time>
      </trkpt>
      <trkpt lat="46.19696" lon="4.54794">
        <ele>527.2</ele>
        <time>2020-10-17T10:44:21Z</time>
      </trkpt>
      <trkpt lat="46.19699" lon="4.54795">
        <ele>527.2</ele>
        <time>2020-10-17T10:44:22Z</time>
      </trkpt>
      <trkpt lat="46.19699" lon="4.54795">
        <ele>527.4</ele>
        <time>2020-10-17T10:44:23Z</time>
      </trkpt>
      <trkpt lat="46.19701" lon="4.54796">
        <ele>527.4</ele>
        <time>2020-10-17T10:44:24Z</time>
      </trkpt>
      <trkpt lat="46.19701" lon="4.54796">
        <ele>527.8</ele>
        <time>2020-10-17T10:44:25Z</time>
      </trkpt>
      <trkpt lat="46.19704" lon="4.54796">
        <ele>528</ele>
        <time>2020-10-17T10:44:26Z</time>
      </trkpt>
      <trkpt lat="46.19704" lon="4.54796">
        <ele>528</ele>
        <time>2020-10-17T10:44:27Z</time>
      </trkpt>
      <trkpt lat="46.19707" lon="4.54796">
        <ele>528.6</ele>
        <time>2020-10-17T10:44:28Z</time>
      </trkpt>
      <trkpt lat="46.19707" lon="4.54796">
        <ele>528.8</ele>
        <time>2020-10-17T10:44:29Z</time>
      </trkpt>
      <trkpt lat="46.1971" lon="4.54796">
        <ele>528.8</ele>
        <time>2020-10-17T10:44:30Z</time>
      </trkpt>
      <trkpt lat="46.1971" lon="4.54796">
        <ele>529.6</ele>
        <time>2020-10-17T10:44:31Z</time>
      </trkpt>
      <trkpt lat="46.19713" lon="4.54797">
        <ele>529.6</ele>
        <time>2020-10-17T10:44:32Z</time>
      </trkpt>
      <trkpt lat="46.19713" lon="4.54797">
        <ele>529.8</ele>
        <time>2020-10-17T10:44:33Z</time>
      </trkpt>
      <trkpt lat="46.19715" lon="4.54798">
        <ele>530.2</ele>
        <time>2020-10-17T10:44:34Z</time>
      </trkpt>
      <trkpt lat="46.19715" lon="4.54798">
        <ele>530.2</ele>
        <time>2020-10-17T10:44:35Z</time>
      </trkpt>
      <trkpt lat="46.19718" lon="4.54798">
        <ele>530.8</ele>
        <time>2020-10-17T10:44:36Z</time>
      </trkpt>
      <trkpt lat="46.19718" lon="4.54798">
        <ele>530.8</ele>
        <time>2020-10-17T10:44:37Z</time>
      </trkpt>
      <trkpt lat="46.1972" lon="4.54798">
        <ele>531.2</ele>
        <time>2020-10-17T10:44:38Z</time>
      </trkpt>
      <trkpt lat="46.1972" lon="4.54798">
        <ele>531.6</ele>
        <time>2020-10-17T10:44:39Z</time>
      </trkpt>
      <trkpt lat="46.19722" lon="4.54799">
        <ele>531.6</ele>
        <time>2020-10-17T10:44:40Z</time>
      </trkpt>
      <trkpt lat="46.19722" lon="4.54799">
        <ele>532.2</ele>
        <time>2020-10-17T10:44:41Z</time>
      </trkpt>
      <trkpt lat="46.19725" lon="4.54798">
        <ele>532.4</ele>
        <time>2020-10-17T10:44:42Z</time>
      </trkpt>
      <trkpt lat="46.19725" lon="4.54798">
        <ele>532.4</ele>
        <time>2020-10-17T10:44:43Z</time>
      </trkpt>
      <trkpt lat="46.19727" lon="4.54798">
        <ele>532.8</ele>
        <time>2020-10-17T10:44:44Z</time>
      </trkpt>
      <trkpt lat="46.19727" lon="4.54798">
        <ele>533</ele>
        <time>2020-10-17T10:44:45Z</time>
      </trkpt>
      <trkpt lat="46.1973" lon="4.54798">
        <ele>533</ele>
        <time>2020-10-17T10:44:46Z</time>
      </trkpt>
      <trkpt lat="46.1973" lon="4.54798">
        <ele>533.6</ele>
        <time>2020-10-17T10:44:47Z</time>
      </trkpt>
      <trkpt lat="46.19732" lon="4.54799">
        <ele>533.8</ele>
        <time>2020-10-17T10:44:48Z</time>
      </trkpt>
      <trkpt lat="46.19732" lon="4.54799">
        <ele>534.2</ele>
        <time>2020-10-17T10:44:49Z</time>
      </trkpt>
      <trkpt lat="46.19735" lon="4.54799">
        <ele>534.6</ele>
        <time>2020-10-17T10:44:50Z</time>
      </trkpt>
      <trkpt lat="46.19735" lon="4.54799">
        <ele>534.8</ele>
        <time>2020-10-17T10:44:51Z</time>
      </trkpt>
      <trkpt lat="46.19738" lon="4.54799">
        <ele>535.2</ele>
        <time>2020-10-17T10:44:52Z</time>
      </trkpt>
      <trkpt lat="46.19738" lon="4.54799">
        <ele>535.4</ele>
        <time>2020-10-17T10:44:53Z</time>
      </trkpt>
      <trkpt lat="46.1974" lon="4.54799">
        <ele>535.8</ele>
        <time>2020-10-17T10:44:54Z</time>
      </trkpt>
      <trkpt lat="46.1974" lon="4.54799">
        <ele>536.2</ele>
        <time>2020-10-17T10:44:55Z</time>
      </trkpt>
      <trkpt lat="46.1974" lon="4.54799">
        <ele>536.4</ele>
        <time>2020-10-17T10:44:56Z</time>
      </trkpt>
      <trkpt lat="46.19743" lon="4.548">
        <ele>536.4</ele>
        <time>2020-10-17T10:44:57Z</time>
      </trkpt>
      <trkpt lat="46.19743" lon="4.548">
        <ele>536.8</ele>
        <time>2020-10-17T10:44:58Z</time>
      </trkpt>
      <trkpt lat="46.19745" lon="4.548">
        <ele>536.8</ele>
        <time>2020-10-17T10:44:59Z</time>
      </trkpt>
      <trkpt lat="46.19745" lon="4.548">
        <ele>537.2</ele>
        <time>2020-10-17T10:45:00Z</time>
      </trkpt>
      <trkpt lat="46.19747" lon="4.54801">
        <ele>537.4</ele>
        <time>2020-10-17T10:45:01Z</time>
      </trkpt>
      <trkpt lat="46.19747" lon="4.54801">
        <ele>537.6</ele>
        <time>2020-10-17T10:45:02Z</time>
      </trkpt>
      <trkpt lat="46.1975" lon="4.54801">
        <ele>538.2</ele>
        <time>2020-10-17T10:45:03Z</time>
      </trkpt>
      <trkpt lat="46.1975" lon="4.54801">
        <ele>538.6</ele>
        <time>2020-10-17T10:45:04Z</time>
      </trkpt>
      <trkpt lat="46.19752" lon="4.54801">
        <ele>538.8</ele>
        <time>2020-10-17T10:45:05Z</time>
      </trkpt>
      <trkpt lat="46.19752" lon="4.54801">
        <ele>539.2</ele>
        <time>2020-10-17T10:45:06Z</time>
      </trkpt>
      <trkpt lat="46.19754" lon="4.54801">
        <ele>539.4</ele>
        <time>2020-10-17T10:45:07Z</time>
      </trkpt>
      <trkpt lat="46.19754" lon="4.54801">
        <ele>539.4</ele>
        <time>2020-10-17T10:45:08Z</time>
      </trkpt>
      <trkpt lat="46.19754" lon="4.54801">
        <ele>539.8</ele>
        <time>2020-10-17T10:45:09Z</time>
      </trkpt>
      <trkpt lat="46.19757" lon="4.54801">
        <ele>540.2</ele>
        <time>2020-10-17T10:45:10Z</time>
      </trkpt>
      <trkpt lat="46.19757" lon="4.54801">
        <ele>540.2</ele>
        <time>2020-10-17T10:45:11Z</time>
      </trkpt>
      <trkpt lat="46.19759" lon="4.54802">
        <ele>540.8</ele>
        <time>2020-10-17T10:45:12Z</time>
      </trkpt>
      <trkpt lat="46.19759" lon="4.54802">
        <ele>541</ele>
        <time>2020-10-17T10:45:13Z</time>
      </trkpt>
      <trkpt lat="46.19759" lon="4.54802">
        <ele>541</ele>
        <time>2020-10-17T10:45:14Z</time>
      </trkpt>
      <trkpt lat="46.19762" lon="4.54804">
        <ele>541.2</ele>
        <time>2020-10-17T10:45:15Z</time>
      </trkpt>
      <trkpt lat="46.19762" lon="4.54804">
        <ele>541.4</ele>
        <time>2020-10-17T10:45:16Z</time>
      </trkpt>
      <trkpt lat="46.19764" lon="4.54804">
        <ele>541.6</ele>
        <time>2020-10-17T10:45:17Z</time>
      </trkpt>
      <trkpt lat="46.19764" lon="4.54804">
        <ele>541.8</ele>
        <time>2020-10-17T10:45:18Z</time>
      </trkpt>
      <trkpt lat="46.19767" lon="4.54804">
        <ele>541.8</ele>
        <time>2020-10-17T10:45:19Z</time>
      </trkpt>
      <trkpt lat="46.19767" lon="4.54804">
        <ele>542.2</ele>
        <time>2020-10-17T10:45:20Z</time>
      </trkpt>
      <trkpt lat="46.1977" lon="4.54805">
        <ele>542.4</ele>
        <time>2020-10-17T10:45:21Z</time>
      </trkpt>
      <trkpt lat="46.1977" lon="4.54805">
        <ele>542.8</ele>
        <time>2020-10-17T10:45:22Z</time>
      </trkpt>
      <trkpt lat="46.19773" lon="4.54805">
        <ele>543.2</ele>
        <time>2020-10-17T10:45:23Z</time>
      </trkpt>
      <trkpt lat="46.19773" lon="4.54805">
        <ele>543.2</ele>
        <time>2020-10-17T10:45:24Z</time>
      </trkpt>
      <trkpt lat="46.19775" lon="4.54805">
        <ele>543.4</ele>
        <time>2020-10-17T10:45:25Z</time>
      </trkpt>
      <trkpt lat="46.19775" lon="4.54805">
        <ele>543.6</ele>
        <time>2020-10-17T10:45:26Z</time>
      </trkpt>
      <trkpt lat="46.19778" lon="4.54806">
        <ele>543.6</ele>
        <time>2020-10-17T10:45:27Z</time>
      </trkpt>
      <trkpt lat="46.19778" lon="4.54806">
        <ele>544</ele>
        <time>2020-10-17T10:45:28Z</time>
      </trkpt>
      <trkpt lat="46.19781" lon="4.54807">
        <ele>544.2</ele>
        <time>2020-10-17T10:45:29Z</time>
      </trkpt>
      <trkpt lat="46.19781" lon="4.54807">
        <ele>544.4</ele>
        <time>2020-10-17T10:45:30Z</time>
      </trkpt>
      <trkpt lat="46.19784" lon="4.54808">
        <ele>544.8</ele>
        <time>2020-10-17T10:45:31Z</time>
      </trkpt>
      <trkpt lat="46.19784" lon="4.54808">
        <ele>544.6</ele>
        <time>2020-10-17T10:45:32Z</time>
      </trkpt>
      <trkpt lat="46.19786" lon="4.54808">
        <ele>545</ele>
        <time>2020-10-17T10:45:33Z</time>
      </trkpt>
      <trkpt lat="46.19786" lon="4.54808">
        <ele>545.4</ele>
        <time>2020-10-17T10:45:34Z</time>
      </trkpt>
      <trkpt lat="46.19788" lon="4.5481">
        <ele>545.4</ele>
        <time>2020-10-17T10:45:35Z</time>
      </trkpt>
      <trkpt lat="46.19788" lon="4.5481">
        <ele>545.4</ele>
        <time>2020-10-17T10:45:36Z</time>
      </trkpt>
      <trkpt lat="46.19791" lon="4.5481">
        <ele>545.6</ele>
        <time>2020-10-17T10:45:37Z</time>
      </trkpt>
      <trkpt lat="46.19791" lon="4.5481">
        <ele>546</ele>
        <time>2020-10-17T10:45:38Z</time>
      </trkpt>
      <trkpt lat="46.19793" lon="4.54811">
        <ele>546.2</ele>
        <time>2020-10-17T10:45:39Z</time>
      </trkpt>
      <trkpt lat="46.19793" lon="4.54811">
        <ele>546.6</ele>
        <time>2020-10-17T10:45:40Z</time>
      </trkpt>
      <trkpt lat="46.19796" lon="4.54811">
        <ele>546.4</ele>
        <time>2020-10-17T10:45:41Z</time>
      </trkpt>
      <trkpt lat="46.19796" lon="4.54811">
        <ele>547</ele>
        <time>2020-10-17T10:45:42Z</time>
      </trkpt>
      <trkpt lat="46.19799" lon="4.54812">
        <ele>547.2</ele>
        <time>2020-10-17T10:45:43Z</time>
      </trkpt>
      <trkpt lat="46.19799" lon="4.54812">
        <ele>547.4</ele>
        <time>2020-10-17T10:45:44Z</time>
      </trkpt>
      <trkpt lat="46.19802" lon="4.54813">
        <ele>547.4</ele>
        <time>2020-10-17T10:45:45Z</time>
      </trkpt>
      <trkpt lat="46.19802" lon="4.54813">
        <ele>547.8</ele>
        <time>2020-10-17T10:45:46Z</time>
      </trkpt>
      <trkpt lat="46.19805" lon="4.54814">
        <ele>548.2</ele>
        <time>2020-10-17T10:45:47Z</time>
      </trkpt>
      <trkpt lat="46.19805" lon="4.54814">
        <ele>548.4</ele>
        <time>2020-10-17T10:45:48Z</time>
      </trkpt>
      <trkpt lat="46.19809" lon="4.54815">
        <ele>548.6</ele>
        <time>2020-10-17T10:45:49Z</time>
      </trkpt>
      <trkpt lat="46.19809" lon="4.54815">
        <ele>549</ele>
        <time>2020-10-17T10:45:50Z</time>
      </trkpt>
      <trkpt lat="46.19812" lon="4.54815">
        <ele>549.2</ele>
        <time>2020-10-17T10:45:51Z</time>
      </trkpt>
      <trkpt lat="46.19812" lon="4.54815">
        <ele>549.2</ele>
        <time>2020-10-17T10:45:52Z</time>
      </trkpt>
      <trkpt lat="46.19814" lon="4.54815">
        <ele>549.2</ele>
        <time>2020-10-17T10:45:53Z</time>
      </trkpt>
      <trkpt lat="46.19814" lon="4.54815">
        <ele>549.6</ele>
        <time>2020-10-17T10:45:54Z</time>
      </trkpt>
      <trkpt lat="46.19817" lon="4.54816">
        <ele>549.8</ele>
        <time>2020-10-17T10:45:55Z</time>
      </trkpt>
      <trkpt lat="46.19817" lon="4.54816">
        <ele>549.8</ele>
        <time>2020-10-17T10:45:56Z</time>
      </trkpt>
      <trkpt lat="46.1982" lon="4.54817">
        <ele>549.8</ele>
        <time>2020-10-17T10:45:57Z</time>
      </trkpt>
      <trkpt lat="46.1982" lon="4.54817">
        <ele>550</ele>
        <time>2020-10-17T10:45:58Z</time>
      </trkpt>
      <trkpt lat="46.19823" lon="4.54818">
        <ele>550.4</ele>
        <time>2020-10-17T10:45:59Z</time>
      </trkpt>
      <trkpt lat="46.19823" lon="4.54818">
        <ele>550.6</ele>
        <time>2020-10-17T10:46:00Z</time>
      </trkpt>
      <trkpt lat="46.19825" lon="4.54819">
        <ele>550.4</ele>
        <time>2020-10-17T10:46:01Z</time>
      </trkpt>
      <trkpt lat="46.19825" lon="4.54819">
        <ele>550.8</ele>
        <time>2020-10-17T10:46:02Z</time>
      </trkpt>
      <trkpt lat="46.19828" lon="4.5482">
        <ele>551.2</ele>
        <time>2020-10-17T10:46:03Z</time>
      </trkpt>
      <trkpt lat="46.19828" lon="4.5482">
        <ele>551.4</ele>
        <time>2020-10-17T10:46:04Z</time>
      </trkpt>
      <trkpt lat="46.1983" lon="4.54821">
        <ele>551.4</ele>
        <time>2020-10-17T10:46:05Z</time>
      </trkpt>
      <trkpt lat="46.1983" lon="4.54821">
        <ele>551.2</ele>
        <time>2020-10-17T10:46:06Z</time>
      </trkpt>
      <trkpt lat="46.19832" lon="4.54824">
        <ele>551.6</ele>
        <time>2020-10-17T10:46:07Z</time>
      </trkpt>
      <trkpt lat="46.19832" lon="4.54824">
        <ele>551.6</ele>
        <time>2020-10-17T10:46:08Z</time>
      </trkpt>
      <trkpt lat="46.19834" lon="4.54825">
        <ele>551.8</ele>
        <time>2020-10-17T10:46:09Z</time>
      </trkpt>
      <trkpt lat="46.19834" lon="4.54825">
        <ele>552</ele>
        <time>2020-10-17T10:46:10Z</time>
      </trkpt>
      <trkpt lat="46.19837" lon="4.54827">
        <ele>552.6</ele>
        <time>2020-10-17T10:46:11Z</time>
      </trkpt>
      <trkpt lat="46.19837" lon="4.54827">
        <ele>552.8</ele>
        <time>2020-10-17T10:46:12Z</time>
      </trkpt>
      <trkpt lat="46.19839" lon="4.54829">
        <ele>552.8</ele>
        <time>2020-10-17T10:46:13Z</time>
      </trkpt>
      <trkpt lat="46.19839" lon="4.54829">
        <ele>553.2</ele>
        <time>2020-10-17T10:46:14Z</time>
      </trkpt>
      <trkpt lat="46.19841" lon="4.54831">
        <ele>553.2</ele>
        <time>2020-10-17T10:46:15Z</time>
      </trkpt>
      <trkpt lat="46.19841" lon="4.54831">
        <ele>553.6</ele>
        <time>2020-10-17T10:46:16Z</time>
      </trkpt>
      <trkpt lat="46.19843" lon="4.54833">
        <ele>553.8</ele>
        <time>2020-10-17T10:46:17Z</time>
      </trkpt>
      <trkpt lat="46.19843" lon="4.54833">
        <ele>554.2</ele>
        <time>2020-10-17T10:46:18Z</time>
      </trkpt>
      <trkpt lat="46.19846" lon="4.54834">
        <ele>554.4</ele>
        <time>2020-10-17T10:46:19Z</time>
      </trkpt>
      <trkpt lat="46.19846" lon="4.54834">
        <ele>554.8</ele>
        <time>2020-10-17T10:46:20Z</time>
      </trkpt>
      <trkpt lat="46.19848" lon="4.54836">
        <ele>554.8</ele>
        <time>2020-10-17T10:46:21Z</time>
      </trkpt>
      <trkpt lat="46.19848" lon="4.54836">
        <ele>555</ele>
        <time>2020-10-17T10:46:22Z</time>
      </trkpt>
      <trkpt lat="46.1985" lon="4.54838">
        <ele>555.4</ele>
        <time>2020-10-17T10:46:23Z</time>
      </trkpt>
      <trkpt lat="46.1985" lon="4.54838">
        <ele>555.6</ele>
        <time>2020-10-17T10:46:24Z</time>
      </trkpt>
      <trkpt lat="46.19853" lon="4.5484">
        <ele>555.6</ele>
        <time>2020-10-17T10:46:25Z</time>
      </trkpt>
      <trkpt lat="46.19853" lon="4.5484">
        <ele>556</ele>
        <time>2020-10-17T10:46:26Z</time>
      </trkpt>
      <trkpt lat="46.19856" lon="4.54841">
        <ele>556.2</ele>
        <time>2020-10-17T10:46:27Z</time>
      </trkpt>
      <trkpt lat="46.19856" lon="4.54841">
        <ele>556.4</ele>
        <time>2020-10-17T10:46:28Z</time>
      </trkpt>
      <trkpt lat="46.19858" lon="4.54843">
        <ele>556.6</ele>
        <time>2020-10-17T10:46:29Z</time>
      </trkpt>
      <trkpt lat="46.19858" lon="4.54843">
        <ele>556.8</ele>
        <time>2020-10-17T10:46:30Z</time>
      </trkpt>
      <trkpt lat="46.1986" lon="4.54846">
        <ele>557.2</ele>
        <time>2020-10-17T10:46:31Z</time>
      </trkpt>
      <trkpt lat="46.1986" lon="4.54846">
        <ele>557.4</ele>
        <time>2020-10-17T10:46:32Z</time>
      </trkpt>
      <trkpt lat="46.19862" lon="4.54847">
        <ele>558</ele>
        <time>2020-10-17T10:46:33Z</time>
      </trkpt>
      <trkpt lat="46.19862" lon="4.54847">
        <ele>558.4</ele>
        <time>2020-10-17T10:46:34Z</time>
      </trkpt>
      <trkpt lat="46.19864" lon="4.54849">
        <ele>558.6</ele>
        <time>2020-10-17T10:46:35Z</time>
      </trkpt>
      <trkpt lat="46.19864" lon="4.54849">
        <ele>559.2</ele>
        <time>2020-10-17T10:46:36Z</time>
      </trkpt>
      <trkpt lat="46.19866" lon="4.54851">
        <ele>559.2</ele>
        <time>2020-10-17T10:46:37Z</time>
      </trkpt>
      <trkpt lat="46.19866" lon="4.54851">
        <ele>559.6</ele>
        <time>2020-10-17T10:46:38Z</time>
      </trkpt>
      <trkpt lat="46.19869" lon="4.54852">
        <ele>560</ele>
        <time>2020-10-17T10:46:39Z</time>
      </trkpt>
      <trkpt lat="46.19869" lon="4.54852">
        <ele>560</ele>
        <time>2020-10-17T10:46:40Z</time>
      </trkpt>
      <trkpt lat="46.19871" lon="4.54854">
        <ele>560</ele>
        <time>2020-10-17T10:46:41Z</time>
      </trkpt>
      <trkpt lat="46.19871" lon="4.54854">
        <ele>560.4</ele>
        <time>2020-10-17T10:46:42Z</time>
      </trkpt>
      <trkpt lat="46.19873" lon="4.54856">
        <ele>560.6</ele>
        <time>2020-10-17T10:46:43Z</time>
      </trkpt>
      <trkpt lat="46.19873" lon="4.54856">
        <ele>560.6</ele>
        <time>2020-10-17T10:46:44Z</time>
      </trkpt>
      <trkpt lat="46.19876" lon="4.54857">
        <ele>561</ele>
        <time>2020-10-17T10:46:45Z</time>
      </trkpt>
      <trkpt lat="46.19876" lon="4.54857">
        <ele>561.4</ele>
        <time>2020-10-17T10:46:46Z</time>
      </trkpt>
      <trkpt lat="46.19878" lon="4.54858">
        <ele>561.8</ele>
        <time>2020-10-17T10:46:47Z</time>
      </trkpt>
      <trkpt lat="46.19878" lon="4.54858">
        <ele>562</ele>
        <time>2020-10-17T10:46:48Z</time>
      </trkpt>
      <trkpt lat="46.1988" lon="4.54859">
        <ele>562.6</ele>
        <time>2020-10-17T10:46:49Z</time>
      </trkpt>
      <trkpt lat="46.1988" lon="4.54859">
        <ele>562.6</ele>
        <time>2020-10-17T10:46:50Z</time>
      </trkpt>
      <trkpt lat="46.19883" lon="4.54859">
        <ele>563</ele>
        <time>2020-10-17T10:46:51Z</time>
      </trkpt>
      <trkpt lat="46.19883" lon="4.54859">
        <ele>563.2</ele>
        <time>2020-10-17T10:46:52Z</time>
      </trkpt>
      <trkpt lat="46.19886" lon="4.5486">
        <ele>563.2</ele>
        <time>2020-10-17T10:46:53Z</time>
      </trkpt>
      <trkpt lat="46.19886" lon="4.5486">
        <ele>563.6</ele>
        <time>2020-10-17T10:46:54Z</time>
      </trkpt>
      <trkpt lat="46.19888" lon="4.5486">
        <ele>563.8</ele>
        <time>2020-10-17T10:46:55Z</time>
      </trkpt>
      <trkpt lat="46.19888" lon="4.5486">
        <ele>564.2</ele>
        <time>2020-10-17T10:46:56Z</time>
      </trkpt>
      <trkpt lat="46.1989" lon="4.5486">
        <ele>564.2</ele>
        <time>2020-10-17T10:46:57Z</time>
      </trkpt>
      <trkpt lat="46.1989" lon="4.5486">
        <ele>564.4</ele>
        <time>2020-10-17T10:46:58Z</time>
      </trkpt>
      <trkpt lat="46.19893" lon="4.5486">
        <ele>564.8</ele>
        <time>2020-10-17T10:46:59Z</time>
      </trkpt>
      <trkpt lat="46.19893" lon="4.5486">
        <ele>565.2</ele>
        <time>2020-10-17T10:47:00Z</time>
      </trkpt>
      <trkpt lat="46.19895" lon="4.5486">
        <ele>565.6</ele>
        <time>2020-10-17T10:47:01Z</time>
      </trkpt>
      <trkpt lat="46.19895" lon="4.5486">
        <ele>565.8</ele>
        <time>2020-10-17T10:47:02Z</time>
      </trkpt>
      <trkpt lat="46.19898" lon="4.5486">
        <ele>566</ele>
        <time>2020-10-17T10:47:03Z</time>
      </trkpt>
      <trkpt lat="46.19898" lon="4.5486">
        <ele>566</ele>
        <time>2020-10-17T10:47:04Z</time>
      </trkpt>
      <trkpt lat="46.199" lon="4.5486">
        <ele>566</ele>
        <time>2020-10-17T10:47:05Z</time>
      </trkpt>
      <trkpt lat="46.199" lon="4.5486">
        <ele>566.6</ele>
        <time>2020-10-17T10:47:06Z</time>
      </trkpt>
      <trkpt lat="46.19903" lon="4.5486">
        <ele>567</ele>
        <time>2020-10-17T10:47:07Z</time>
      </trkpt>
      <trkpt lat="46.19903" lon="4.5486">
        <ele>567</ele>
        <time>2020-10-17T10:47:08Z</time>
      </trkpt>
      <trkpt lat="46.19905" lon="4.54861">
        <ele>567.4</ele>
        <time>2020-10-17T10:47:09Z</time>
      </trkpt>
      <trkpt lat="46.19905" lon="4.54861">
        <ele>567.8</ele>
        <time>2020-10-17T10:47:10Z</time>
      </trkpt>
      <trkpt lat="46.19908" lon="4.54861">
        <ele>568.2</ele>
        <time>2020-10-17T10:47:11Z</time>
      </trkpt>
      <trkpt lat="46.19908" lon="4.54861">
        <ele>568.2</ele>
        <time>2020-10-17T10:47:12Z</time>
      </trkpt>
      <trkpt lat="46.1991" lon="4.54861">
        <ele>568.6</ele>
        <time>2020-10-17T10:47:13Z</time>
      </trkpt>
      <trkpt lat="46.1991" lon="4.54861">
        <ele>569</ele>
        <time>2020-10-17T10:47:14Z</time>
      </trkpt>
      <trkpt lat="46.19912" lon="4.54861">
        <ele>569</ele>
        <time>2020-10-17T10:47:15Z</time>
      </trkpt>
      <trkpt lat="46.19912" lon="4.54861">
        <ele>569.4</ele>
        <time>2020-10-17T10:47:16Z</time>
      </trkpt>
      <trkpt lat="46.19914" lon="4.54861">
        <ele>569.6</ele>
        <time>2020-10-17T10:47:17Z</time>
      </trkpt>
      <trkpt lat="46.19914" lon="4.54861">
        <ele>569.8</ele>
        <time>2020-10-17T10:47:18Z</time>
      </trkpt>
      <trkpt lat="46.19917" lon="4.5486">
        <ele>570.2</ele>
        <time>2020-10-17T10:47:19Z</time>
      </trkpt>
      <trkpt lat="46.19917" lon="4.5486">
        <ele>570.6</ele>
        <time>2020-10-17T10:47:20Z</time>
      </trkpt>
      <trkpt lat="46.19919" lon="4.5486">
        <ele>570.6</ele>
        <time>2020-10-17T10:47:21Z</time>
      </trkpt>
      <trkpt lat="46.19919" lon="4.5486">
        <ele>571</ele>
        <time>2020-10-17T10:47:22Z</time>
      </trkpt>
      <trkpt lat="46.19922" lon="4.5486">
        <ele>571</ele>
        <time>2020-10-17T10:47:23Z</time>
      </trkpt>
      <trkpt lat="46.19922" lon="4.5486">
        <ele>571.2</ele>
        <time>2020-10-17T10:47:24Z</time>
      </trkpt>
      <trkpt lat="46.19925" lon="4.5486">
        <ele>571.4</ele>
        <time>2020-10-17T10:47:25Z</time>
      </trkpt>
      <trkpt lat="46.19925" lon="4.5486">
        <ele>571.4</ele>
        <time>2020-10-17T10:47:26Z</time>
      </trkpt>
      <trkpt lat="46.19928" lon="4.5486">
        <ele>571.8</ele>
        <time>2020-10-17T10:47:27Z</time>
      </trkpt>
      <trkpt lat="46.19928" lon="4.5486">
        <ele>572</ele>
        <time>2020-10-17T10:47:28Z</time>
      </trkpt>
      <trkpt lat="46.1993" lon="4.5486">
        <ele>572.4</ele>
        <time>2020-10-17T10:47:29Z</time>
      </trkpt>
      <trkpt lat="46.1993" lon="4.5486">
        <ele>572.8</ele>
        <time>2020-10-17T10:47:30Z</time>
      </trkpt>
      <trkpt lat="46.19933" lon="4.54861">
        <ele>573</ele>
        <time>2020-10-17T10:47:31Z</time>
      </trkpt>
      <trkpt lat="46.19933" lon="4.54861">
        <ele>573.4</ele>
        <time>2020-10-17T10:47:32Z</time>
      </trkpt>
      <trkpt lat="46.19935" lon="4.5486">
        <ele>573.4</ele>
        <time>2020-10-17T10:47:33Z</time>
      </trkpt>
      <trkpt lat="46.19935" lon="4.5486">
        <ele>573.4</ele>
        <time>2020-10-17T10:47:34Z</time>
      </trkpt>
      <trkpt lat="46.19938" lon="4.5486">
        <ele>573.6</ele>
        <time>2020-10-17T10:47:35Z</time>
      </trkpt>
      <trkpt lat="46.19938" lon="4.5486">
        <ele>573.8</ele>
        <time>2020-10-17T10:47:36Z</time>
      </trkpt>
      <trkpt lat="46.19941" lon="4.5486">
        <ele>574</ele>
        <time>2020-10-17T10:47:37Z</time>
      </trkpt>
      <trkpt lat="46.19941" lon="4.5486">
        <ele>574</ele>
        <time>2020-10-17T10:47:38Z</time>
      </trkpt>
      <trkpt lat="46.19944" lon="4.5486">
        <ele>574.4</ele>
        <time>2020-10-17T10:47:39Z</time>
      </trkpt>
      <trkpt lat="46.19944" lon="4.5486">
        <ele>574.4</ele>
        <time>2020-10-17T10:47:40Z</time>
      </trkpt>
      <trkpt lat="46.19947" lon="4.5486">
        <ele>574.4</ele>
        <time>2020-10-17T10:47:41Z</time>
      </trkpt>
      <trkpt lat="46.19947" lon="4.5486">
        <ele>574.6</ele>
        <time>2020-10-17T10:47:42Z</time>
      </trkpt>
      <trkpt lat="46.1995" lon="4.5486">
        <ele>574.8</ele>
        <time>2020-10-17T10:47:43Z</time>
      </trkpt>
      <trkpt lat="46.1995" lon="4.5486">
        <ele>575.2</ele>
        <time>2020-10-17T10:47:44Z</time>
      </trkpt>
      <trkpt lat="46.19952" lon="4.5486">
        <ele>575.2</ele>
        <time>2020-10-17T10:47:45Z</time>
      </trkpt>
      <trkpt lat="46.19952" lon="4.5486">
        <ele>575.8</ele>
        <time>2020-10-17T10:47:46Z</time>
      </trkpt>
      <trkpt lat="46.19955" lon="4.5486">
        <ele>575.8</ele>
        <time>2020-10-17T10:47:47Z</time>
      </trkpt>
      <trkpt lat="46.19957" lon="4.5486">
        <ele>576.2</ele>
        <time>2020-10-17T10:47:48Z</time>
      </trkpt>
      <trkpt lat="46.19957" lon="4.5486">
        <ele>576.4</ele>
        <time>2020-10-17T10:47:49Z</time>
      </trkpt>
      <trkpt lat="46.1996" lon="4.5486">
        <ele>576.6</ele>
        <time>2020-10-17T10:47:50Z</time>
      </trkpt>
      <trkpt lat="46.1996" lon="4.5486">
        <ele>576.6</ele>
        <time>2020-10-17T10:47:51Z</time>
      </trkpt>
      <trkpt lat="46.19963" lon="4.54859">
        <ele>576.8</ele>
        <time>2020-10-17T10:47:52Z</time>
      </trkpt>
      <trkpt lat="46.19963" lon="4.54859">
        <ele>577.2</ele>
        <time>2020-10-17T10:47:53Z</time>
      </trkpt>
      <trkpt lat="46.19966" lon="4.54858">
        <ele>577.4</ele>
        <time>2020-10-17T10:47:54Z</time>
      </trkpt>
      <trkpt lat="46.19966" lon="4.54858">
        <ele>577.6</ele>
        <time>2020-10-17T10:47:55Z</time>
      </trkpt>
      <trkpt lat="46.19968" lon="4.54858">
        <ele>577.8</ele>
        <time>2020-10-17T10:47:56Z</time>
      </trkpt>
      <trkpt lat="46.19968" lon="4.54858">
        <ele>577.8</ele>
        <time>2020-10-17T10:47:57Z</time>
      </trkpt>
      <trkpt lat="46.19971" lon="4.54858">
        <ele>578.2</ele>
        <time>2020-10-17T10:47:58Z</time>
      </trkpt>
      <trkpt lat="46.19971" lon="4.54858">
        <ele>578.4</ele>
        <time>2020-10-17T10:47:59Z</time>
      </trkpt>
      <trkpt lat="46.19973" lon="4.54858">
        <ele>579</ele>
        <time>2020-10-17T10:48:00Z</time>
      </trkpt>
      <trkpt lat="46.19973" lon="4.54858">
        <ele>579</ele>
        <time>2020-10-17T10:48:01Z</time>
      </trkpt>
      <trkpt lat="46.19976" lon="4.54858">
        <ele>579.2</ele>
        <time>2020-10-17T10:48:02Z</time>
      </trkpt>
      <trkpt lat="46.19976" lon="4.54858">
        <ele>579.4</ele>
        <time>2020-10-17T10:48:03Z</time>
      </trkpt>
      <trkpt lat="46.19979" lon="4.54858">
        <ele>579.4</ele>
        <time>2020-10-17T10:48:04Z</time>
      </trkpt>
      <trkpt lat="46.19979" lon="4.54858">
        <ele>579.6</ele>
        <time>2020-10-17T10:48:05Z</time>
      </trkpt>
      <trkpt lat="46.19981" lon="4.54858">
        <ele>579.8</ele>
        <time>2020-10-17T10:48:06Z</time>
      </trkpt>
      <trkpt lat="46.19981" lon="4.54858">
        <ele>580</ele>
        <time>2020-10-17T10:48:07Z</time>
      </trkpt>
      <trkpt lat="46.19984" lon="4.54858">
        <ele>580.2</ele>
        <time>2020-10-17T10:48:08Z</time>
      </trkpt>
      <trkpt lat="46.19984" lon="4.54858">
        <ele>580.2</ele>
        <time>2020-10-17T10:48:09Z</time>
      </trkpt>
      <trkpt lat="46.19987" lon="4.54859">
        <ele>580.4</ele>
        <time>2020-10-17T10:48:10Z</time>
      </trkpt>
      <trkpt lat="46.19987" lon="4.54859">
        <ele>580.6</ele>
        <time>2020-10-17T10:48:11Z</time>
      </trkpt>
      <trkpt lat="46.19991" lon="4.54858">
        <ele>580.6</ele>
        <time>2020-10-17T10:48:12Z</time>
      </trkpt>
      <trkpt lat="46.19991" lon="4.54858">
        <ele>580.8</ele>
        <time>2020-10-17T10:48:13Z</time>
      </trkpt>
      <trkpt lat="46.19994" lon="4.54858">
        <ele>581</ele>
        <time>2020-10-17T10:48:14Z</time>
      </trkpt>
      <trkpt lat="46.19994" lon="4.54858">
        <ele>581.2</ele>
        <time>2020-10-17T10:48:15Z</time>
      </trkpt>
      <trkpt lat="46.19997" lon="4.54857">
        <ele>581.4</ele>
        <time>2020-10-17T10:48:16Z</time>
      </trkpt>
      <trkpt lat="46.19997" lon="4.54857">
        <ele>581.2</ele>
        <time>2020-10-17T10:48:17Z</time>
      </trkpt>
      <trkpt lat="46.20001" lon="4.54856">
        <ele>581.2</ele>
        <time>2020-10-17T10:48:18Z</time>
      </trkpt>
      <trkpt lat="46.20001" lon="4.54856">
        <ele>581.4</ele>
        <time>2020-10-17T10:48:19Z</time>
      </trkpt>
      <trkpt lat="46.20004" lon="4.54855">
        <ele>581.4</ele>
        <time>2020-10-17T10:48:20Z</time>
      </trkpt>
      <trkpt lat="46.20004" lon="4.54855">
        <ele>581.4</ele>
        <time>2020-10-17T10:48:21Z</time>
      </trkpt>
      <trkpt lat="46.20008" lon="4.54855">
        <ele>581.4</ele>
        <time>2020-10-17T10:48:22Z</time>
      </trkpt>
      <trkpt lat="46.2001" lon="4.54854">
        <ele>581.6</ele>
        <time>2020-10-17T10:48:23Z</time>
      </trkpt>
      <trkpt lat="46.2001" lon="4.54854">
        <ele>582.2</ele>
        <time>2020-10-17T10:48:24Z</time>
      </trkpt>
      <trkpt lat="46.20013" lon="4.54854">
        <ele>582.4</ele>
        <time>2020-10-17T10:48:25Z</time>
      </trkpt>
      <trkpt lat="46.20013" lon="4.54854">
        <ele>582.4</ele>
        <time>2020-10-17T10:48:26Z</time>
      </trkpt>
      <trkpt lat="46.20015" lon="4.54854">
        <ele>582.2</ele>
        <time>2020-10-17T10:48:27Z</time>
      </trkpt>
      <trkpt lat="46.20015" lon="4.54854">
        <ele>582.6</ele>
        <time>2020-10-17T10:48:28Z</time>
      </trkpt>
      <trkpt lat="46.20018" lon="4.54853">
        <ele>582.8</ele>
        <time>2020-10-17T10:48:29Z</time>
      </trkpt>
      <trkpt lat="46.20018" lon="4.54853">
        <ele>583</ele>
        <time>2020-10-17T10:48:30Z</time>
      </trkpt>
      <trkpt lat="46.20021" lon="4.54853">
        <ele>583</ele>
        <time>2020-10-17T10:48:31Z</time>
      </trkpt>
      <trkpt lat="46.20021" lon="4.54853">
        <ele>583.2</ele>
        <time>2020-10-17T10:48:32Z</time>
      </trkpt>
      <trkpt lat="46.20025" lon="4.54853">
        <ele>583.2</ele>
        <time>2020-10-17T10:48:33Z</time>
      </trkpt>
      <trkpt lat="46.20026" lon="4.54854">
        <ele>583.2</ele>
        <time>2020-10-17T10:48:34Z</time>
      </trkpt>
      <trkpt lat="46.20026" lon="4.54854">
        <ele>583.2</ele>
        <time>2020-10-17T10:48:35Z</time>
      </trkpt>
      <trkpt lat="46.2003" lon="4.54854">
        <ele>583.2</ele>
        <time>2020-10-17T10:48:36Z</time>
      </trkpt>
      <trkpt lat="46.20031" lon="4.54854">
        <ele>583.4</ele>
        <time>2020-10-17T10:48:37Z</time>
      </trkpt>
      <trkpt lat="46.20033" lon="4.54854">
        <ele>583.6</ele>
        <time>2020-10-17T10:48:38Z</time>
      </trkpt>
      <trkpt lat="46.20033" lon="4.54854">
        <ele>583.8</ele>
        <time>2020-10-17T10:48:39Z</time>
      </trkpt>
      <trkpt lat="46.20037" lon="4.54854">
        <ele>583.8</ele>
        <time>2020-10-17T10:48:40Z</time>
      </trkpt>
      <trkpt lat="46.20037" lon="4.54854">
        <ele>583.8</ele>
        <time>2020-10-17T10:48:41Z</time>
      </trkpt>
      <trkpt lat="46.2004" lon="4.54855">
        <ele>584</ele>
        <time>2020-10-17T10:48:42Z</time>
      </trkpt>
      <trkpt lat="46.2004" lon="4.54855">
        <ele>584</ele>
        <time>2020-10-17T10:48:43Z</time>
      </trkpt>
      <trkpt lat="46.20043" lon="4.54856">
        <ele>584.4</ele>
        <time>2020-10-17T10:48:44Z</time>
      </trkpt>
      <trkpt lat="46.20043" lon="4.54856">
        <ele>584.4</ele>
        <time>2020-10-17T10:48:45Z</time>
      </trkpt>
      <trkpt lat="46.20047" lon="4.54857">
        <ele>584.6</ele>
        <time>2020-10-17T10:48:46Z</time>
      </trkpt>
      <trkpt lat="46.20047" lon="4.54857">
        <ele>584.4</ele>
        <time>2020-10-17T10:48:47Z</time>
      </trkpt>
      <trkpt lat="46.2005" lon="4.54857">
        <ele>584.4</ele>
        <time>2020-10-17T10:48:48Z</time>
      </trkpt>
      <trkpt lat="46.2005" lon="4.54857">
        <ele>584.4</ele>
        <time>2020-10-17T10:48:49Z</time>
      </trkpt>
      <trkpt lat="46.20053" lon="4.54857">
        <ele>584.6</ele>
        <time>2020-10-17T10:48:50Z</time>
      </trkpt>
      <trkpt lat="46.20053" lon="4.54857">
        <ele>585</ele>
        <time>2020-10-17T10:48:51Z</time>
      </trkpt>
      <trkpt lat="46.20057" lon="4.54857">
        <ele>584.8</ele>
        <time>2020-10-17T10:48:52Z</time>
      </trkpt>
      <trkpt lat="46.20057" lon="4.54857">
        <ele>585</ele>
        <time>2020-10-17T10:48:53Z</time>
      </trkpt>
      <trkpt lat="46.2006" lon="4.54857">
        <ele>585</ele>
        <time>2020-10-17T10:48:54Z</time>
      </trkpt>
      <trkpt lat="46.2006" lon="4.54857">
        <ele>585</ele>
        <time>2020-10-17T10:48:55Z</time>
      </trkpt>
      <trkpt lat="46.20063" lon="4.54855">
        <ele>584.8</ele>
        <time>2020-10-17T10:48:56Z</time>
      </trkpt>
      <trkpt lat="46.20065" lon="4.54854">
        <ele>585.2</ele>
        <time>2020-10-17T10:48:57Z</time>
      </trkpt>
      <trkpt lat="46.20066" lon="4.54854">
        <ele>585.2</ele>
        <time>2020-10-17T10:48:58Z</time>
      </trkpt>
      <trkpt lat="46.20066" lon="4.54854">
        <ele>585.6</ele>
        <time>2020-10-17T10:48:59Z</time>
      </trkpt>
      <trkpt lat="46.2007" lon="4.54854">
        <ele>585.8</ele>
        <time>2020-10-17T10:49:00Z</time>
      </trkpt>
      <trkpt lat="46.2007" lon="4.54854">
        <ele>586.2</ele>
        <time>2020-10-17T10:49:01Z</time>
      </trkpt>
      <trkpt lat="46.20073" lon="4.54854">
        <ele>586.4</ele>
        <time>2020-10-17T10:49:02Z</time>
      </trkpt>
      <trkpt lat="46.20073" lon="4.54854">
        <ele>586.8</ele>
        <time>2020-10-17T10:49:03Z</time>
      </trkpt>
      <trkpt lat="46.20076" lon="4.54854">
        <ele>586.8</ele>
        <time>2020-10-17T10:49:04Z</time>
      </trkpt>
      <trkpt lat="46.20076" lon="4.54854">
        <ele>586.8</ele>
        <time>2020-10-17T10:49:05Z</time>
      </trkpt>
      <trkpt lat="46.20079" lon="4.54854">
        <ele>587</ele>
        <time>2020-10-17T10:49:06Z</time>
      </trkpt>
      <trkpt lat="46.20079" lon="4.54854">
        <ele>587</ele>
        <time>2020-10-17T10:49:07Z</time>
      </trkpt>
      <trkpt lat="46.20082" lon="4.54854">
        <ele>587.2</ele>
        <time>2020-10-17T10:49:08Z</time>
      </trkpt>
      <trkpt lat="46.20082" lon="4.54854">
        <ele>587.2</ele>
        <time>2020-10-17T10:49:09Z</time>
      </trkpt>
      <trkpt lat="46.20085" lon="4.54854">
        <ele>587</ele>
        <time>2020-10-17T10:49:10Z</time>
      </trkpt>
      <trkpt lat="46.20085" lon="4.54854">
        <ele>587</ele>
        <time>2020-10-17T10:49:11Z</time>
      </trkpt>
      <trkpt lat="46.20088" lon="4.54853">
        <ele>587</ele>
        <time>2020-10-17T10:49:12Z</time>
      </trkpt>
      <trkpt lat="46.20088" lon="4.54853">
        <ele>586.8</ele>
        <time>2020-10-17T10:49:13Z</time>
      </trkpt>
      <trkpt lat="46.20091" lon="4.54852">
        <ele>586.8</ele>
        <time>2020-10-17T10:49:14Z</time>
      </trkpt>
      <trkpt lat="46.20091" lon="4.54852">
        <ele>586.8</ele>
        <time>2020-10-17T10:49:15Z</time>
      </trkpt>
      <trkpt lat="46.20094" lon="4.54851">
        <ele>587</ele>
        <time>2020-10-17T10:49:16Z</time>
      </trkpt>
      <trkpt lat="46.20094" lon="4.54851">
        <ele>587.4</ele>
        <time>2020-10-17T10:49:17Z</time>
      </trkpt>
      <trkpt lat="46.20096" lon="4.5485">
        <ele>587.4</ele>
        <time>2020-10-17T10:49:18Z</time>
      </trkpt>
      <trkpt lat="46.20096" lon="4.5485">
        <ele>587.6</ele>
        <time>2020-10-17T10:49:19Z</time>
      </trkpt>
      <trkpt lat="46.20096" lon="4.5485">
        <ele>587.8</ele>
        <time>2020-10-17T10:49:20Z</time>
      </trkpt>
      <trkpt lat="46.20096" lon="4.5485">
        <ele>587.8</ele>
        <time>2020-10-17T10:49:21Z</time>
      </trkpt>
      <trkpt lat="46.20099" lon="4.5485">
        <ele>588</ele>
        <time>2020-10-17T10:49:22Z</time>
      </trkpt>
      <trkpt lat="46.20101" lon="4.5485">
        <ele>588.2</ele>
        <time>2020-10-17T10:49:23Z</time>
      </trkpt>
      <trkpt lat="46.20103" lon="4.5485">
        <ele>588.2</ele>
        <time>2020-10-17T10:49:24Z</time>
      </trkpt>
      <trkpt lat="46.20105" lon="4.54849">
        <ele>588.2</ele>
        <time>2020-10-17T10:49:25Z</time>
      </trkpt>
      <trkpt lat="46.20107" lon="4.54849">
        <ele>588.2</ele>
        <time>2020-10-17T10:49:26Z</time>
      </trkpt>
      <trkpt lat="46.20109" lon="4.54849">
        <ele>588.2</ele>
        <time>2020-10-17T10:49:27Z</time>
      </trkpt>
      <trkpt lat="46.2011" lon="4.54849">
        <ele>588.6</ele>
        <time>2020-10-17T10:49:28Z</time>
      </trkpt>
      <trkpt lat="46.20111" lon="4.54849">
        <ele>588.6</ele>
        <time>2020-10-17T10:49:29Z</time>
      </trkpt>
      <trkpt lat="46.20112" lon="4.54849">
        <ele>588.8</ele>
        <time>2020-10-17T10:49:30Z</time>
      </trkpt>
      <trkpt lat="46.20115" lon="4.54849">
        <ele>588.8</ele>
        <time>2020-10-17T10:49:31Z</time>
      </trkpt>
      <trkpt lat="46.20115" lon="4.54849">
        <ele>588.8</ele>
        <time>2020-10-17T10:49:32Z</time>
      </trkpt>
      <trkpt lat="46.20117" lon="4.54848">
        <ele>588.6</ele>
        <time>2020-10-17T10:49:33Z</time>
      </trkpt>
      <trkpt lat="46.20117" lon="4.54848">
        <ele>588.8</ele>
        <time>2020-10-17T10:49:34Z</time>
      </trkpt>
      <trkpt lat="46.2012" lon="4.54847">
        <ele>588.8</ele>
        <time>2020-10-17T10:49:35Z</time>
      </trkpt>
      <trkpt lat="46.20122" lon="4.54848">
        <ele>589</ele>
        <time>2020-10-17T10:49:36Z</time>
      </trkpt>
      <trkpt lat="46.20122" lon="4.54848">
        <ele>589</ele>
        <time>2020-10-17T10:49:37Z</time>
      </trkpt>
      <trkpt lat="46.20126" lon="4.54847">
        <ele>589.4</ele>
        <time>2020-10-17T10:49:38Z</time>
      </trkpt>
      <trkpt lat="46.20126" lon="4.54847">
        <ele>589.4</ele>
        <time>2020-10-17T10:49:39Z</time>
      </trkpt>
      <trkpt lat="46.2013" lon="4.54847">
        <ele>589.6</ele>
        <time>2020-10-17T10:49:40Z</time>
      </trkpt>
      <trkpt lat="46.20131" lon="4.54848">
        <ele>589.6</ele>
        <time>2020-10-17T10:49:41Z</time>
      </trkpt>
      <trkpt lat="46.20133" lon="4.54848">
        <ele>589.8</ele>
        <time>2020-10-17T10:49:42Z</time>
      </trkpt>
      <trkpt lat="46.20133" lon="4.54848">
        <ele>590.2</ele>
        <time>2020-10-17T10:49:43Z</time>
      </trkpt>
      <trkpt lat="46.20137" lon="4.54848">
        <ele>590.2</ele>
        <time>2020-10-17T10:49:44Z</time>
      </trkpt>
      <trkpt lat="46.20139" lon="4.54849">
        <ele>590.2</ele>
        <time>2020-10-17T10:49:45Z</time>
      </trkpt>
      <trkpt lat="46.20139" lon="4.54849">
        <ele>590.4</ele>
        <time>2020-10-17T10:49:46Z</time>
      </trkpt>
      <trkpt lat="46.20142" lon="4.54849">
        <ele>590.4</ele>
        <time>2020-10-17T10:49:47Z</time>
      </trkpt>
      <trkpt lat="46.20144" lon="4.54849">
        <ele>590.4</ele>
        <time>2020-10-17T10:49:48Z</time>
      </trkpt>
      <trkpt lat="46.20146" lon="4.5485">
        <ele>590.4</ele>
        <time>2020-10-17T10:49:49Z</time>
      </trkpt>
      <trkpt lat="46.20146" lon="4.5485">
        <ele>590.2</ele>
        <time>2020-10-17T10:49:50Z</time>
      </trkpt>
      <trkpt lat="46.20148" lon="4.5485">
        <ele>590.2</ele>
        <time>2020-10-17T10:49:51Z</time>
      </trkpt>
      <trkpt lat="46.2015" lon="4.5485">
        <ele>590.4</ele>
        <time>2020-10-17T10:49:52Z</time>
      </trkpt>
      <trkpt lat="46.2015" lon="4.5485">
        <ele>590.2</ele>
        <time>2020-10-17T10:49:53Z</time>
      </trkpt>
      <trkpt lat="46.20154" lon="4.5485">
        <ele>590.4</ele>
        <time>2020-10-17T10:49:54Z</time>
      </trkpt>
      <trkpt lat="46.20156" lon="4.54851">
        <ele>590.4</ele>
        <time>2020-10-17T10:49:55Z</time>
      </trkpt>
      <trkpt lat="46.20158" lon="4.54851">
        <ele>590.6</ele>
        <time>2020-10-17T10:49:56Z</time>
      </trkpt>
      <trkpt lat="46.20158" lon="4.54851">
        <ele>590.6</ele>
        <time>2020-10-17T10:49:57Z</time>
      </trkpt>
      <trkpt lat="46.20161" lon="4.54851">
        <ele>590.8</ele>
        <time>2020-10-17T10:49:58Z</time>
      </trkpt>
      <trkpt lat="46.20161" lon="4.54851">
        <ele>590.8</ele>
        <time>2020-10-17T10:49:59Z</time>
      </trkpt>
      <trkpt lat="46.20164" lon="4.54851">
        <ele>590.8</ele>
        <time>2020-10-17T10:50:00Z</time>
      </trkpt>
      <trkpt lat="46.20164" lon="4.54851">
        <ele>590.6</ele>
        <time>2020-10-17T10:50:01Z</time>
      </trkpt>
      <trkpt lat="46.20166" lon="4.54852">
        <ele>590.6</ele>
        <time>2020-10-17T10:50:02Z</time>
      </trkpt>
      <trkpt lat="46.20166" lon="4.54852">
        <ele>590.4</ele>
        <time>2020-10-17T10:50:03Z</time>
      </trkpt>
      <trkpt lat="46.20169" lon="4.54854">
        <ele>590.2</ele>
        <time>2020-10-17T10:50:04Z</time>
      </trkpt>
      <trkpt lat="46.20171" lon="4.54856">
        <ele>590.2</ele>
        <time>2020-10-17T10:50:05Z</time>
      </trkpt>
      <trkpt lat="46.20173" lon="4.54858">
        <ele>590.4</ele>
        <time>2020-10-17T10:50:06Z</time>
      </trkpt>
      <trkpt lat="46.20173" lon="4.54858">
        <ele>590.4</ele>
        <time>2020-10-17T10:50:07Z</time>
      </trkpt>
      <trkpt lat="46.20176" lon="4.54861">
        <ele>590.6</ele>
        <time>2020-10-17T10:50:08Z</time>
      </trkpt>
      <trkpt lat="46.20176" lon="4.54861">
        <ele>590.6</ele>
        <time>2020-10-17T10:50:09Z</time>
      </trkpt>
      <trkpt lat="46.20179" lon="4.54863">
        <ele>590.6</ele>
        <time>2020-10-17T10:50:10Z</time>
      </trkpt>
      <trkpt lat="46.20179" lon="4.54863">
        <ele>591</ele>
        <time>2020-10-17T10:50:11Z</time>
      </trkpt>
      <trkpt lat="46.20182" lon="4.54865">
        <ele>591.2</ele>
        <time>2020-10-17T10:50:12Z</time>
      </trkpt>
      <trkpt lat="46.20182" lon="4.54865">
        <ele>591.2</ele>
        <time>2020-10-17T10:50:13Z</time>
      </trkpt>
      <trkpt lat="46.20184" lon="4.54867">
        <ele>591.4</ele>
        <time>2020-10-17T10:50:14Z</time>
      </trkpt>
      <trkpt lat="46.20184" lon="4.54867">
        <ele>591.4</ele>
        <time>2020-10-17T10:50:15Z</time>
      </trkpt>
      <trkpt lat="46.20184" lon="4.54867">
        <ele>591.4</ele>
        <time>2020-10-17T10:50:16Z</time>
      </trkpt>
      <trkpt lat="46.20184" lon="4.54867">
        <ele>591.6</ele>
        <time>2020-10-17T10:50:17Z</time>
      </trkpt>
      <trkpt lat="46.20186" lon="4.54867">
        <ele>591.8</ele>
        <time>2020-10-17T10:50:18Z</time>
      </trkpt>
      <trkpt lat="46.20186" lon="4.54867">
        <ele>591.8</ele>
        <time>2020-10-17T10:50:19Z</time>
      </trkpt>
      <trkpt lat="46.20186" lon="4.54867">
        <ele>592.2</ele>
        <time>2020-10-17T10:50:20Z</time>
      </trkpt>
      <trkpt lat="46.20186" lon="4.54867">
        <ele>592.2</ele>
        <time>2020-10-17T10:50:21Z</time>
      </trkpt>
      <trkpt lat="46.20186" lon="4.54867">
        <ele>592.6</ele>
        <time>2020-10-17T10:50:22Z</time>
      </trkpt>
      <trkpt lat="46.20186" lon="4.54867">
        <ele>592.6</ele>
        <time>2020-10-17T10:50:23Z</time>
      </trkpt>
      <trkpt lat="46.20186" lon="4.54867">
        <ele>593</ele>
        <time>2020-10-17T10:50:24Z</time>
      </trkpt>
      <trkpt lat="46.20186" lon="4.54867">
        <ele>593.2</ele>
        <time>2020-10-17T10:50:25Z</time>
      </trkpt>
      <trkpt lat="46.20189" lon="4.54867">
        <ele>593.2</ele>
        <time>2020-10-17T10:50:26Z</time>
      </trkpt>
      <trkpt lat="46.20189" lon="4.54867">
        <ele>593</ele>
        <time>2020-10-17T10:50:27Z</time>
      </trkpt>
      <trkpt lat="46.20191" lon="4.54868">
        <ele>592.6</ele>
        <time>2020-10-17T10:50:28Z</time>
      </trkpt>
      <trkpt lat="46.20191" lon="4.54868">
        <ele>592.6</ele>
        <time>2020-10-17T10:50:29Z</time>
      </trkpt>
      <trkpt lat="46.20193" lon="4.54868">
        <ele>592.6</ele>
        <time>2020-10-17T10:50:30Z</time>
      </trkpt>
      <trkpt lat="46.20193" lon="4.54868">
        <ele>592.4</ele>
        <time>2020-10-17T10:50:31Z</time>
      </trkpt>
      <trkpt lat="46.20196" lon="4.54869">
        <ele>592.4</ele>
        <time>2020-10-17T10:50:32Z</time>
      </trkpt>
      <trkpt lat="46.20196" lon="4.54869">
        <ele>592</ele>
        <time>2020-10-17T10:50:33Z</time>
      </trkpt>
      <trkpt lat="46.20198" lon="4.54869">
        <ele>592</ele>
        <time>2020-10-17T10:50:34Z</time>
      </trkpt>
      <trkpt lat="46.20198" lon="4.54869">
        <ele>592</ele>
        <time>2020-10-17T10:50:35Z</time>
      </trkpt>
      <trkpt lat="46.20201" lon="4.5487">
        <ele>592</ele>
        <time>2020-10-17T10:50:36Z</time>
      </trkpt>
      <trkpt lat="46.20201" lon="4.5487">
        <ele>592</ele>
        <time>2020-10-17T10:50:37Z</time>
      </trkpt>
      <trkpt lat="46.20204" lon="4.54871">
        <ele>592.2</ele>
        <time>2020-10-17T10:50:38Z</time>
      </trkpt>
      <trkpt lat="46.20204" lon="4.54871">
        <ele>592.2</ele>
        <time>2020-10-17T10:50:39Z</time>
      </trkpt>
      <trkpt lat="46.20208" lon="4.54872">
        <ele>592.4</ele>
        <time>2020-10-17T10:50:40Z</time>
      </trkpt>
      <trkpt lat="46.20208" lon="4.54872">
        <ele>592.2</ele>
        <time>2020-10-17T10:50:41Z</time>
      </trkpt>
      <trkpt lat="46.20211" lon="4.54873">
        <ele>592.2</ele>
        <time>2020-10-17T10:50:42Z</time>
      </trkpt>
      <trkpt lat="46.20211" lon="4.54873">
        <ele>592.2</ele>
        <time>2020-10-17T10:50:43Z</time>
      </trkpt>
      <trkpt lat="46.20214" lon="4.54873">
        <ele>592.2</ele>
        <time>2020-10-17T10:50:44Z</time>
      </trkpt>
      <trkpt lat="46.20214" lon="4.54873">
        <ele>592.2</ele>
        <time>2020-10-17T10:50:45Z</time>
      </trkpt>
      <trkpt lat="46.20217" lon="4.54875">
        <ele>592.2</ele>
        <time>2020-10-17T10:50:46Z</time>
      </trkpt>
      <trkpt lat="46.20217" lon="4.54875">
        <ele>592</ele>
        <time>2020-10-17T10:50:47Z</time>
      </trkpt>
      <trkpt lat="46.2022" lon="4.54876">
        <ele>592.2</ele>
        <time>2020-10-17T10:50:48Z</time>
      </trkpt>
      <trkpt lat="46.2022" lon="4.54876">
        <ele>592.2</ele>
        <time>2020-10-17T10:50:49Z</time>
      </trkpt>
      <trkpt lat="46.20222" lon="4.54878">
        <ele>592.4</ele>
        <time>2020-10-17T10:50:50Z</time>
      </trkpt>
      <trkpt lat="46.20222" lon="4.54878">
        <ele>592.4</ele>
        <time>2020-10-17T10:50:51Z</time>
      </trkpt>
      <trkpt lat="46.20224" lon="4.54882">
        <ele>592.4</ele>
        <time>2020-10-17T10:50:52Z</time>
      </trkpt>
      <trkpt lat="46.20224" lon="4.54882">
        <ele>592.4</ele>
        <time>2020-10-17T10:50:53Z</time>
      </trkpt>
      <trkpt lat="46.20224" lon="4.54884">
        <ele>592.4</ele>
        <time>2020-10-17T10:50:54Z</time>
      </trkpt>
      <trkpt lat="46.20224" lon="4.54884">
        <ele>592.6</ele>
        <time>2020-10-17T10:50:55Z</time>
      </trkpt>
      <trkpt lat="46.20224" lon="4.54884">
        <ele>592.8</ele>
        <time>2020-10-17T10:50:56Z</time>
      </trkpt>
      <trkpt lat="46.20224" lon="4.54884">
        <ele>593.2</ele>
        <time>2020-10-17T10:50:57Z</time>
      </trkpt>
      <trkpt lat="46.20223" lon="4.54886">
        <ele>593.4</ele>
        <time>2020-10-17T10:50:58Z</time>
      </trkpt>
      <trkpt lat="46.20223" lon="4.54886">
        <ele>593.6</ele>
        <time>2020-10-17T10:50:59Z</time>
      </trkpt>
      <trkpt lat="46.20223" lon="4.54886">
        <ele>594</ele>
        <time>2020-10-17T10:51:00Z</time>
      </trkpt>
      <trkpt lat="46.20223" lon="4.54886">
        <ele>594.4</ele>
        <time>2020-10-17T10:51:01Z</time>
      </trkpt>
      <trkpt lat="46.20223" lon="4.54886">
        <ele>594.6</ele>
        <time>2020-10-17T10:51:02Z</time>
      </trkpt>
      <trkpt lat="46.20223" lon="4.54886">
        <ele>594.6</ele>
        <time>2020-10-17T10:51:03Z</time>
      </trkpt>
      <trkpt lat="46.20223" lon="4.54886">
        <ele>594.6</ele>
        <time>2020-10-17T10:51:04Z</time>
      </trkpt>
      <trkpt lat="46.20225" lon="4.54887">
        <ele>594.6</ele>
        <time>2020-10-17T10:51:05Z</time>
      </trkpt>
      <trkpt lat="46.20225" lon="4.54887">
        <ele>594.2</ele>
        <time>2020-10-17T10:51:06Z</time>
      </trkpt>
      <trkpt lat="46.20224" lon="4.5489">
        <ele>594</ele>
        <time>2020-10-17T10:51:07Z</time>
      </trkpt>
      <trkpt lat="46.20224" lon="4.5489">
        <ele>593.8</ele>
        <time>2020-10-17T10:51:08Z</time>
      </trkpt>
      <trkpt lat="46.20224" lon="4.5489">
        <ele>593.8</ele>
        <time>2020-10-17T10:51:09Z</time>
      </trkpt>
      <trkpt lat="46.20223" lon="4.54893">
        <ele>593.6</ele>
        <time>2020-10-17T10:51:10Z</time>
      </trkpt>
      <trkpt lat="46.20223" lon="4.54893">
        <ele>593.6</ele>
        <time>2020-10-17T10:51:11Z</time>
      </trkpt>
      <trkpt lat="46.20221" lon="4.54895">
        <ele>593.6</ele>
        <time>2020-10-17T10:51:12Z</time>
      </trkpt>
      <trkpt lat="46.20221" lon="4.54895">
        <ele>593.6</ele>
        <time>2020-10-17T10:51:13Z</time>
      </trkpt>
      <trkpt lat="46.20219" lon="4.54897">
        <ele>593.8</ele>
        <time>2020-10-17T10:51:14Z</time>
      </trkpt>
      <trkpt lat="46.20219" lon="4.54897">
        <ele>594.2</ele>
        <time>2020-10-17T10:51:15Z</time>
      </trkpt>
      <trkpt lat="46.20218" lon="4.549">
        <ele>594.4</ele>
        <time>2020-10-17T10:51:16Z</time>
      </trkpt>
      <trkpt lat="46.20218" lon="4.549">
        <ele>594.6</ele>
        <time>2020-10-17T10:51:17Z</time>
      </trkpt>
      <trkpt lat="46.20215" lon="4.54902">
        <ele>594.6</ele>
        <time>2020-10-17T10:51:18Z</time>
      </trkpt>
      <trkpt lat="46.20215" lon="4.54902">
        <ele>595</ele>
        <time>2020-10-17T10:51:19Z</time>
      </trkpt>
      <trkpt lat="46.20213" lon="4.54905">
        <ele>595.2</ele>
        <time>2020-10-17T10:51:20Z</time>
      </trkpt>
      <trkpt lat="46.20213" lon="4.54905">
        <ele>595.2</ele>
        <time>2020-10-17T10:51:21Z</time>
      </trkpt>
      <trkpt lat="46.20212" lon="4.54908">
        <ele>595.4</ele>
        <time>2020-10-17T10:51:22Z</time>
      </trkpt>
      <trkpt lat="46.20212" lon="4.54908">
        <ele>595.6</ele>
        <time>2020-10-17T10:51:23Z</time>
      </trkpt>
      <trkpt lat="46.2021" lon="4.54911">
        <ele>595.6</ele>
        <time>2020-10-17T10:51:24Z</time>
      </trkpt>
      <trkpt lat="46.2021" lon="4.54911">
        <ele>595.6</ele>
        <time>2020-10-17T10:51:25Z</time>
      </trkpt>
      <trkpt lat="46.20208" lon="4.54914">
        <ele>596</ele>
        <time>2020-10-17T10:51:26Z</time>
      </trkpt>
      <trkpt lat="46.20208" lon="4.54914">
        <ele>596.2</ele>
        <time>2020-10-17T10:51:27Z</time>
      </trkpt>
      <trkpt lat="46.20206" lon="4.54917">
        <ele>596.6</ele>
        <time>2020-10-17T10:51:28Z</time>
      </trkpt>
      <trkpt lat="46.20206" lon="4.54917">
        <ele>597</ele>
        <time>2020-10-17T10:51:29Z</time>
      </trkpt>
      <trkpt lat="46.20204" lon="4.5492">
        <ele>597</ele>
        <time>2020-10-17T10:51:30Z</time>
      </trkpt>
      <trkpt lat="46.20204" lon="4.5492">
        <ele>597.2</ele>
        <time>2020-10-17T10:51:31Z</time>
      </trkpt>
      <trkpt lat="46.20202" lon="4.54922">
        <ele>597.4</ele>
        <time>2020-10-17T10:51:32Z</time>
      </trkpt>
      <trkpt lat="46.20202" lon="4.54922">
        <ele>597.6</ele>
        <time>2020-10-17T10:51:33Z</time>
      </trkpt>
      <trkpt lat="46.20201" lon="4.54926">
        <ele>597.6</ele>
        <time>2020-10-17T10:51:34Z</time>
      </trkpt>
      <trkpt lat="46.20201" lon="4.54926">
        <ele>597.8</ele>
        <time>2020-10-17T10:51:35Z</time>
      </trkpt>
      <trkpt lat="46.20199" lon="4.54928">
        <ele>598.2</ele>
        <time>2020-10-17T10:51:36Z</time>
      </trkpt>
      <trkpt lat="46.20199" lon="4.54928">
        <ele>598.4</ele>
        <time>2020-10-17T10:51:37Z</time>
      </trkpt>
      <trkpt lat="46.20197" lon="4.54931">
        <ele>598.4</ele>
        <time>2020-10-17T10:51:38Z</time>
      </trkpt>
      <trkpt lat="46.20197" lon="4.54931">
        <ele>598.4</ele>
        <time>2020-10-17T10:51:39Z</time>
      </trkpt>
      <trkpt lat="46.20195" lon="4.54934">
        <ele>598.4</ele>
        <time>2020-10-17T10:51:40Z</time>
      </trkpt>
      <trkpt lat="46.20195" lon="4.54934">
        <ele>598.4</ele>
        <time>2020-10-17T10:51:41Z</time>
      </trkpt>
      <trkpt lat="46.20193" lon="4.54938">
        <ele>598.6</ele>
        <time>2020-10-17T10:51:42Z</time>
      </trkpt>
      <trkpt lat="46.20193" lon="4.54938">
        <ele>598.6</ele>
        <time>2020-10-17T10:51:43Z</time>
      </trkpt>
      <trkpt lat="46.2019" lon="4.5494">
        <ele>598.8</ele>
        <time>2020-10-17T10:51:44Z</time>
      </trkpt>
      <trkpt lat="46.2019" lon="4.5494">
        <ele>598.8</ele>
        <time>2020-10-17T10:51:45Z</time>
      </trkpt>
      <trkpt lat="46.20188" lon="4.54942">
        <ele>599</ele>
        <time>2020-10-17T10:51:46Z</time>
      </trkpt>
      <trkpt lat="46.20188" lon="4.54942">
        <ele>599</ele>
        <time>2020-10-17T10:51:47Z</time>
      </trkpt>
      <trkpt lat="46.20186" lon="4.54944">
        <ele>599.2</ele>
        <time>2020-10-17T10:51:48Z</time>
      </trkpt>
      <trkpt lat="46.20186" lon="4.54944">
        <ele>599.4</ele>
        <time>2020-10-17T10:51:49Z</time>
      </trkpt>
      <trkpt lat="46.20184" lon="4.54947">
        <ele>599.4</ele>
        <time>2020-10-17T10:51:50Z</time>
      </trkpt>
      <trkpt lat="46.20184" lon="4.54947">
        <ele>599.4</ele>
        <time>2020-10-17T10:51:51Z</time>
      </trkpt>
      <trkpt lat="46.20182" lon="4.5495">
        <ele>599.4</ele>
        <time>2020-10-17T10:51:52Z</time>
      </trkpt>
      <trkpt lat="46.20182" lon="4.5495">
        <ele>599.4</ele>
        <time>2020-10-17T10:51:53Z</time>
      </trkpt>
      <trkpt lat="46.2018" lon="4.54953">
        <ele>599.6</ele>
        <time>2020-10-17T10:51:54Z</time>
      </trkpt>
      <trkpt lat="46.2018" lon="4.54953">
        <ele>599.6</ele>
        <time>2020-10-17T10:51:55Z</time>
      </trkpt>
      <trkpt lat="46.20178" lon="4.54956">
        <ele>600</ele>
        <time>2020-10-17T10:51:56Z</time>
      </trkpt>
      <trkpt lat="46.20178" lon="4.54956">
        <ele>599.8</ele>
        <time>2020-10-17T10:51:57Z</time>
      </trkpt>
      <trkpt lat="46.20177" lon="4.54958">
        <ele>599.8</ele>
        <time>2020-10-17T10:51:58Z</time>
      </trkpt>
      <trkpt lat="46.20177" lon="4.54958">
        <ele>599.8</ele>
        <time>2020-10-17T10:51:59Z</time>
      </trkpt>
      <trkpt lat="46.20175" lon="4.54962">
        <ele>600</ele>
        <time>2020-10-17T10:52:00Z</time>
      </trkpt>
      <trkpt lat="46.20175" lon="4.54962">
        <ele>600</ele>
        <time>2020-10-17T10:52:01Z</time>
      </trkpt>
      <trkpt lat="46.20173" lon="4.54965">
        <ele>600</ele>
        <time>2020-10-17T10:52:02Z</time>
      </trkpt>
      <trkpt lat="46.20173" lon="4.54965">
        <ele>600</ele>
        <time>2020-10-17T10:52:03Z</time>
      </trkpt>
      <trkpt lat="46.20171" lon="4.54968">
        <ele>599.8</ele>
        <time>2020-10-17T10:52:04Z</time>
      </trkpt>
      <trkpt lat="46.20171" lon="4.54968">
        <ele>599.8</ele>
        <time>2020-10-17T10:52:05Z</time>
      </trkpt>
      <trkpt lat="46.20168" lon="4.54971">
        <ele>599.8</ele>
        <time>2020-10-17T10:52:06Z</time>
      </trkpt>
      <trkpt lat="46.20168" lon="4.54971">
        <ele>599.8</ele>
        <time>2020-10-17T10:52:07Z</time>
      </trkpt>
      <trkpt lat="46.20166" lon="4.54974">
        <ele>599.8</ele>
        <time>2020-10-17T10:52:08Z</time>
      </trkpt>
      <trkpt lat="46.20166" lon="4.54974">
        <ele>600.2</ele>
        <time>2020-10-17T10:52:09Z</time>
      </trkpt>
      <trkpt lat="46.20164" lon="4.54979">
        <ele>600.2</ele>
        <time>2020-10-17T10:52:10Z</time>
      </trkpt>
      <trkpt lat="46.20163" lon="4.54981">
        <ele>600</ele>
        <time>2020-10-17T10:52:11Z</time>
      </trkpt>
      <trkpt lat="46.20163" lon="4.54981">
        <ele>600</ele>
        <time>2020-10-17T10:52:12Z</time>
      </trkpt>
      <trkpt lat="46.20161" lon="4.54985">
        <ele>599.8</ele>
        <time>2020-10-17T10:52:13Z</time>
      </trkpt>
      <trkpt lat="46.20161" lon="4.54985">
        <ele>599.8</ele>
        <time>2020-10-17T10:52:14Z</time>
      </trkpt>
      <trkpt lat="46.20159" lon="4.54989">
        <ele>599.6</ele>
        <time>2020-10-17T10:52:15Z</time>
      </trkpt>
      <trkpt lat="46.20159" lon="4.54989">
        <ele>600</ele>
        <time>2020-10-17T10:52:16Z</time>
      </trkpt>
      <trkpt lat="46.20158" lon="4.54993">
        <ele>600</ele>
        <time>2020-10-17T10:52:17Z</time>
      </trkpt>
      <trkpt lat="46.20158" lon="4.54993">
        <ele>599.8</ele>
        <time>2020-10-17T10:52:18Z</time>
      </trkpt>
      <trkpt lat="46.20156" lon="4.54997">
        <ele>600</ele>
        <time>2020-10-17T10:52:19Z</time>
      </trkpt>
      <trkpt lat="46.20156" lon="4.54997">
        <ele>600</ele>
        <time>2020-10-17T10:52:20Z</time>
      </trkpt>
      <trkpt lat="46.20155" lon="4.55002">
        <ele>600.2</ele>
        <time>2020-10-17T10:52:21Z</time>
      </trkpt>
      <trkpt lat="46.20155" lon="4.55002">
        <ele>600.2</ele>
        <time>2020-10-17T10:52:22Z</time>
      </trkpt>
      <trkpt lat="46.20154" lon="4.55006">
        <ele>600.2</ele>
        <time>2020-10-17T10:52:23Z</time>
      </trkpt>
      <trkpt lat="46.20154" lon="4.55006">
        <ele>600.4</ele>
        <time>2020-10-17T10:52:24Z</time>
      </trkpt>
      <trkpt lat="46.20154" lon="4.5501">
        <ele>600.2</ele>
        <time>2020-10-17T10:52:25Z</time>
      </trkpt>
      <trkpt lat="46.20154" lon="4.5501">
        <ele>600</ele>
        <time>2020-10-17T10:52:26Z</time>
      </trkpt>
      <trkpt lat="46.20155" lon="4.55014">
        <ele>600</ele>
        <time>2020-10-17T10:52:27Z</time>
      </trkpt>
      <trkpt lat="46.20155" lon="4.55014">
        <ele>600.2</ele>
        <time>2020-10-17T10:52:28Z</time>
      </trkpt>
      <trkpt lat="46.20156" lon="4.55018">
        <ele>600.2</ele>
        <time>2020-10-17T10:52:29Z</time>
      </trkpt>
      <trkpt lat="46.20156" lon="4.55018">
        <ele>600.4</ele>
        <time>2020-10-17T10:52:30Z</time>
      </trkpt>
      <trkpt lat="46.20158" lon="4.55022">
        <ele>600.6</ele>
        <time>2020-10-17T10:52:31Z</time>
      </trkpt>
      <trkpt lat="46.20158" lon="4.55022">
        <ele>601</ele>
        <time>2020-10-17T10:52:32Z</time>
      </trkpt>
      <trkpt lat="46.2016" lon="4.55025">
        <ele>601</ele>
        <time>2020-10-17T10:52:33Z</time>
      </trkpt>
      <trkpt lat="46.2016" lon="4.55025">
        <ele>601.2</ele>
        <time>2020-10-17T10:52:34Z</time>
      </trkpt>
      <trkpt lat="46.20162" lon="4.55027">
        <ele>601</ele>
        <time>2020-10-17T10:52:35Z</time>
      </trkpt>
      <trkpt lat="46.20162" lon="4.55027">
        <ele>601.4</ele>
        <time>2020-10-17T10:52:36Z</time>
      </trkpt>
      <trkpt lat="46.20164" lon="4.55031">
        <ele>601.8</ele>
        <time>2020-10-17T10:52:37Z</time>
      </trkpt>
      <trkpt lat="46.20164" lon="4.55031">
        <ele>601.6</ele>
        <time>2020-10-17T10:52:38Z</time>
      </trkpt>
      <trkpt lat="46.20166" lon="4.55034">
        <ele>601.8</ele>
        <time>2020-10-17T10:52:39Z</time>
      </trkpt>
      <trkpt lat="46.20166" lon="4.55034">
        <ele>602</ele>
        <time>2020-10-17T10:52:40Z</time>
      </trkpt>
      <trkpt lat="46.20168" lon="4.55036">
        <ele>602.2</ele>
        <time>2020-10-17T10:52:41Z</time>
      </trkpt>
      <trkpt lat="46.20168" lon="4.55036">
        <ele>602.2</ele>
        <time>2020-10-17T10:52:42Z</time>
      </trkpt>
      <trkpt lat="46.2017" lon="4.55038">
        <ele>602.8</ele>
        <time>2020-10-17T10:52:43Z</time>
      </trkpt>
      <trkpt lat="46.2017" lon="4.55038">
        <ele>602.8</ele>
        <time>2020-10-17T10:52:44Z</time>
      </trkpt>
      <trkpt lat="46.2017" lon="4.55038">
        <ele>603.2</ele>
        <time>2020-10-17T10:52:45Z</time>
      </trkpt>
      <trkpt lat="46.20172" lon="4.5504">
        <ele>603.2</ele>
        <time>2020-10-17T10:52:46Z</time>
      </trkpt>
      <trkpt lat="46.20172" lon="4.5504">
        <ele>603.6</ele>
        <time>2020-10-17T10:52:47Z</time>
      </trkpt>
      <trkpt lat="46.20174" lon="4.55042">
        <ele>604</ele>
        <time>2020-10-17T10:52:48Z</time>
      </trkpt>
      <trkpt lat="46.20174" lon="4.55042">
        <ele>604</ele>
        <time>2020-10-17T10:52:49Z</time>
      </trkpt>
      <trkpt lat="46.20174" lon="4.55042">
        <ele>604.2</ele>
        <time>2020-10-17T10:52:50Z</time>
      </trkpt>
      <trkpt lat="46.20177" lon="4.5504">
        <ele>604.6</ele>
        <time>2020-10-17T10:52:51Z</time>
      </trkpt>
      <trkpt lat="46.20177" lon="4.5504">
        <ele>605</ele>
        <time>2020-10-17T10:52:52Z</time>
      </trkpt>
      <trkpt lat="46.20179" lon="4.55038">
        <ele>604.8</ele>
        <time>2020-10-17T10:52:53Z</time>
      </trkpt>
      <trkpt lat="46.20179" lon="4.55038">
        <ele>605.4</ele>
        <time>2020-10-17T10:52:54Z</time>
      </trkpt>
      <trkpt lat="46.20181" lon="4.55037">
        <ele>605.6</ele>
        <time>2020-10-17T10:52:55Z</time>
      </trkpt>
      <trkpt lat="46.20181" lon="4.55037">
        <ele>606</ele>
        <time>2020-10-17T10:52:56Z</time>
      </trkpt>
      <trkpt lat="46.20184" lon="4.55035">
        <ele>606.2</ele>
        <time>2020-10-17T10:52:57Z</time>
      </trkpt>
      <trkpt lat="46.20184" lon="4.55035">
        <ele>606.2</ele>
        <time>2020-10-17T10:52:58Z</time>
      </trkpt>
      <trkpt lat="46.20187" lon="4.55034">
        <ele>606.6</ele>
        <time>2020-10-17T10:52:59Z</time>
      </trkpt>
      <trkpt lat="46.20187" lon="4.55034">
        <ele>606.8</ele>
        <time>2020-10-17T10:53:00Z</time>
      </trkpt>
      <trkpt lat="46.20188" lon="4.55031">
        <ele>607</ele>
        <time>2020-10-17T10:53:01Z</time>
      </trkpt>
      <trkpt lat="46.20188" lon="4.55031">
        <ele>607.2</ele>
        <time>2020-10-17T10:53:02Z</time>
      </trkpt>
      <trkpt lat="46.2019" lon="4.55029">
        <ele>607</ele>
        <time>2020-10-17T10:53:03Z</time>
      </trkpt>
      <trkpt lat="46.2019" lon="4.55029">
        <ele>607.2</ele>
        <time>2020-10-17T10:53:04Z</time>
      </trkpt>
      <trkpt lat="46.20193" lon="4.55027">
        <ele>607.8</ele>
        <time>2020-10-17T10:53:05Z</time>
      </trkpt>
      <trkpt lat="46.20193" lon="4.55027">
        <ele>607.8</ele>
        <time>2020-10-17T10:53:06Z</time>
      </trkpt>
      <trkpt lat="46.20195" lon="4.55025">
        <ele>608</ele>
        <time>2020-10-17T10:53:07Z</time>
      </trkpt>
      <trkpt lat="46.20195" lon="4.55025">
        <ele>608.4</ele>
        <time>2020-10-17T10:53:08Z</time>
      </trkpt>
      <trkpt lat="46.20197" lon="4.55023">
        <ele>608.8</ele>
        <time>2020-10-17T10:53:09Z</time>
      </trkpt>
      <trkpt lat="46.20197" lon="4.55023">
        <ele>609</ele>
        <time>2020-10-17T10:53:10Z</time>
      </trkpt>
      <trkpt lat="46.20199" lon="4.55021">
        <ele>609</ele>
        <time>2020-10-17T10:53:11Z</time>
      </trkpt>
      <trkpt lat="46.20199" lon="4.55021">
        <ele>609</ele>
        <time>2020-10-17T10:53:12Z</time>
      </trkpt>
      <trkpt lat="46.20202" lon="4.55019">
        <ele>609.2</ele>
        <time>2020-10-17T10:53:13Z</time>
      </trkpt>
      <trkpt lat="46.20202" lon="4.55019">
        <ele>609.4</ele>
        <time>2020-10-17T10:53:14Z</time>
      </trkpt>
      <trkpt lat="46.20204" lon="4.55018">
        <ele>609.8</ele>
        <time>2020-10-17T10:53:15Z</time>
      </trkpt>
      <trkpt lat="46.20204" lon="4.55018">
        <ele>609.8</ele>
        <time>2020-10-17T10:53:16Z</time>
      </trkpt>
      <trkpt lat="46.20206" lon="4.55017">
        <ele>610</ele>
        <time>2020-10-17T10:53:17Z</time>
      </trkpt>
      <trkpt lat="46.20206" lon="4.55017">
        <ele>610.2</ele>
        <time>2020-10-17T10:53:18Z</time>
      </trkpt>
      <trkpt lat="46.20209" lon="4.55015">
        <ele>610.2</ele>
        <time>2020-10-17T10:53:19Z</time>
      </trkpt>
      <trkpt lat="46.20209" lon="4.55015">
        <ele>610.4</ele>
        <time>2020-10-17T10:53:20Z</time>
      </trkpt>
      <trkpt lat="46.20211" lon="4.55013">
        <ele>610.4</ele>
        <time>2020-10-17T10:53:21Z</time>
      </trkpt>
      <trkpt lat="46.20211" lon="4.55013">
        <ele>610.2</ele>
        <time>2020-10-17T10:53:22Z</time>
      </trkpt>
      <trkpt lat="46.20213" lon="4.55013">
        <ele>610.4</ele>
        <time>2020-10-17T10:53:23Z</time>
      </trkpt>
      <trkpt lat="46.20213" lon="4.55013">
        <ele>610.8</ele>
        <time>2020-10-17T10:53:24Z</time>
      </trkpt>
      <trkpt lat="46.20213" lon="4.55013">
        <ele>610.8</ele>
        <time>2020-10-17T10:53:25Z</time>
      </trkpt>
      <trkpt lat="46.20213" lon="4.55013">
        <ele>610.6</ele>
        <time>2020-10-17T10:53:26Z</time>
      </trkpt>
      <trkpt lat="46.20213" lon="4.55013">
        <ele>610.6</ele>
        <time>2020-10-17T10:53:27Z</time>
      </trkpt>
      <trkpt lat="46.20213" lon="4.55013">
        <ele>610.4</ele>
        <time>2020-10-17T10:53:28Z</time>
      </trkpt>
      <trkpt lat="46.20213" lon="4.55013">
        <ele>610.4</ele>
        <time>2020-10-17T10:53:29Z</time>
      </trkpt>
      <trkpt lat="46.20213" lon="4.55013">
        <ele>610.4</ele>
        <time>2020-10-17T10:53:30Z</time>
      </trkpt>
      <trkpt lat="46.20213" lon="4.55013">
        <ele>610.4</ele>
        <time>2020-10-17T10:53:31Z</time>
      </trkpt>
      <trkpt lat="46.20213" lon="4.55013">
        <ele>610.4</ele>
        <time>2020-10-17T10:53:32Z</time>
      </trkpt>
      <trkpt lat="46.20216" lon="4.55012">
        <ele>610.2</ele>
        <time>2020-10-17T10:53:33Z</time>
      </trkpt>
      <trkpt lat="46.20216" lon="4.55012">
        <ele>610.2</ele>
        <time>2020-10-17T10:53:34Z</time>
      </trkpt>
      <trkpt lat="46.20218" lon="4.55011">
        <ele>610.2</ele>
        <time>2020-10-17T10:53:35Z</time>
      </trkpt>
      <trkpt lat="46.20218" lon="4.55011">
        <ele>610.4</ele>
        <time>2020-10-17T10:53:36Z</time>
      </trkpt>
      <trkpt lat="46.20218" lon="4.55011">
        <ele>610.6</ele>
        <time>2020-10-17T10:53:37Z</time>
      </trkpt>
      <trkpt lat="46.20218" lon="4.55011">
        <ele>611</ele>
        <time>2020-10-17T10:53:38Z</time>
      </trkpt>
      <trkpt lat="46.20218" lon="4.55011">
        <ele>611.2</ele>
        <time>2020-10-17T10:53:39Z</time>
      </trkpt>
      <trkpt lat="46.20218" lon="4.55011">
        <ele>611.2</ele>
        <time>2020-10-17T10:53:40Z</time>
      </trkpt>
      <trkpt lat="46.20221" lon="4.5501">
        <ele>611.2</ele>
        <time>2020-10-17T10:53:41Z</time>
      </trkpt>
      <trkpt lat="46.20221" lon="4.5501">
        <ele>611.2</ele>
        <time>2020-10-17T10:53:42Z</time>
      </trkpt>
      <trkpt lat="46.20223" lon="4.55009">
        <ele>611.2</ele>
        <time>2020-10-17T10:53:43Z</time>
      </trkpt>
      <trkpt lat="46.20223" lon="4.55009">
        <ele>611.2</ele>
        <time>2020-10-17T10:53:44Z</time>
      </trkpt>
      <trkpt lat="46.20226" lon="4.55008">
        <ele>611.2</ele>
        <time>2020-10-17T10:53:45Z</time>
      </trkpt>
      <trkpt lat="46.20226" lon="4.55008">
        <ele>611</ele>
        <time>2020-10-17T10:53:46Z</time>
      </trkpt>
      <trkpt lat="46.20229" lon="4.55008">
        <ele>611.2</ele>
        <time>2020-10-17T10:53:47Z</time>
      </trkpt>
      <trkpt lat="46.20229" lon="4.55008">
        <ele>611.2</ele>
        <time>2020-10-17T10:53:48Z</time>
      </trkpt>
      <trkpt lat="46.20232" lon="4.55008">
        <ele>611.2</ele>
        <time>2020-10-17T10:53:49Z</time>
      </trkpt>
      <trkpt lat="46.20232" lon="4.55008">
        <ele>611.4</ele>
        <time>2020-10-17T10:53:50Z</time>
      </trkpt>
      <trkpt lat="46.20235" lon="4.55008">
        <ele>611.8</ele>
        <time>2020-10-17T10:53:51Z</time>
      </trkpt>
      <trkpt lat="46.20235" lon="4.55008">
        <ele>611.6</ele>
        <time>2020-10-17T10:53:52Z</time>
      </trkpt>
      <trkpt lat="46.20237" lon="4.55007">
        <ele>611.6</ele>
        <time>2020-10-17T10:53:53Z</time>
      </trkpt>
      <trkpt lat="46.20237" lon="4.55007">
        <ele>611.6</ele>
        <time>2020-10-17T10:53:54Z</time>
      </trkpt>
      <trkpt lat="46.2024" lon="4.55008">
        <ele>611.8</ele>
        <time>2020-10-17T10:53:55Z</time>
      </trkpt>
      <trkpt lat="46.2024" lon="4.55008">
        <ele>612</ele>
        <time>2020-10-17T10:53:56Z</time>
      </trkpt>
      <trkpt lat="46.20243" lon="4.55008">
        <ele>612.4</ele>
        <time>2020-10-17T10:53:57Z</time>
      </trkpt>
      <trkpt lat="46.20243" lon="4.55008">
        <ele>612.8</ele>
        <time>2020-10-17T10:53:58Z</time>
      </trkpt>
      <trkpt lat="46.20246" lon="4.55008">
        <ele>613</ele>
        <time>2020-10-17T10:53:59Z</time>
      </trkpt>
      <trkpt lat="46.20246" lon="4.55008">
        <ele>613.2</ele>
        <time>2020-10-17T10:54:00Z</time>
      </trkpt>
      <trkpt lat="46.20249" lon="4.55008">
        <ele>613.4</ele>
        <time>2020-10-17T10:54:01Z</time>
      </trkpt>
      <trkpt lat="46.20249" lon="4.55008">
        <ele>613.4</ele>
        <time>2020-10-17T10:54:02Z</time>
      </trkpt>
      <trkpt lat="46.20253" lon="4.55009">
        <ele>613.4</ele>
        <time>2020-10-17T10:54:03Z</time>
      </trkpt>
      <trkpt lat="46.20253" lon="4.55009">
        <ele>613.4</ele>
        <time>2020-10-17T10:54:04Z</time>
      </trkpt>
      <trkpt lat="46.20256" lon="4.55009">
        <ele>613.4</ele>
        <time>2020-10-17T10:54:05Z</time>
      </trkpt>
      <trkpt lat="46.20256" lon="4.55009">
        <ele>613.4</ele>
        <time>2020-10-17T10:54:06Z</time>
      </trkpt>
      <trkpt lat="46.20259" lon="4.55009">
        <ele>613.2</ele>
        <time>2020-10-17T10:54:07Z</time>
      </trkpt>
      <trkpt lat="46.20259" lon="4.55009">
        <ele>613.2</ele>
        <time>2020-10-17T10:54:08Z</time>
      </trkpt>
      <trkpt lat="46.20262" lon="4.5501">
        <ele>613.2</ele>
        <time>2020-10-17T10:54:09Z</time>
      </trkpt>
      <trkpt lat="46.20262" lon="4.5501">
        <ele>613.8</ele>
        <time>2020-10-17T10:54:10Z</time>
      </trkpt>
      <trkpt lat="46.20265" lon="4.5501">
        <ele>614</ele>
        <time>2020-10-17T10:54:11Z</time>
      </trkpt>
      <trkpt lat="46.20265" lon="4.5501">
        <ele>614</ele>
        <time>2020-10-17T10:54:12Z</time>
      </trkpt>
      <trkpt lat="46.20268" lon="4.55011">
        <ele>614.2</ele>
        <time>2020-10-17T10:54:13Z</time>
      </trkpt>
      <trkpt lat="46.20268" lon="4.55011">
        <ele>614.2</ele>
        <time>2020-10-17T10:54:14Z</time>
      </trkpt>
      <trkpt lat="46.20271" lon="4.55012">
        <ele>614</ele>
        <time>2020-10-17T10:54:15Z</time>
      </trkpt>
      <trkpt lat="46.20271" lon="4.55012">
        <ele>614.4</ele>
        <time>2020-10-17T10:54:16Z</time>
      </trkpt>
      <trkpt lat="46.20274" lon="4.55013">
        <ele>614.6</ele>
        <time>2020-10-17T10:54:17Z</time>
      </trkpt>
      <trkpt lat="46.20274" lon="4.55013">
        <ele>614.6</ele>
        <time>2020-10-17T10:54:18Z</time>
      </trkpt>
      <trkpt lat="46.20277" lon="4.55014">
        <ele>615</ele>
        <time>2020-10-17T10:54:19Z</time>
      </trkpt>
      <trkpt lat="46.20277" lon="4.55014">
        <ele>615</ele>
        <time>2020-10-17T10:54:20Z</time>
      </trkpt>
      <trkpt lat="46.20278" lon="4.55016">
        <ele>615.4</ele>
        <time>2020-10-17T10:54:21Z</time>
      </trkpt>
      <trkpt lat="46.20278" lon="4.55016">
        <ele>615.6</ele>
        <time>2020-10-17T10:54:22Z</time>
      </trkpt>
      <trkpt lat="46.20278" lon="4.55016">
        <ele>615.4</ele>
        <time>2020-10-17T10:54:23Z</time>
      </trkpt>
      <trkpt lat="46.2028" lon="4.55018">
        <ele>615.6</ele>
        <time>2020-10-17T10:54:24Z</time>
      </trkpt>
      <trkpt lat="46.2028" lon="4.55018">
        <ele>615.6</ele>
        <time>2020-10-17T10:54:25Z</time>
      </trkpt>
      <trkpt lat="46.2028" lon="4.55018">
        <ele>616.2</ele>
        <time>2020-10-17T10:54:26Z</time>
      </trkpt>
      <trkpt lat="46.2028" lon="4.55018">
        <ele>616.4</ele>
        <time>2020-10-17T10:54:27Z</time>
      </trkpt>
      <trkpt lat="46.2028" lon="4.55018">
        <ele>616.6</ele>
        <time>2020-10-17T10:54:28Z</time>
      </trkpt>
      <trkpt lat="46.2028" lon="4.55018">
        <ele>616.6</ele>
        <time>2020-10-17T10:54:29Z</time>
      </trkpt>
      <trkpt lat="46.20282" lon="4.55018">
        <ele>616.6</ele>
        <time>2020-10-17T10:54:30Z</time>
      </trkpt>
      <trkpt lat="46.20282" lon="4.55018">
        <ele>616.8</ele>
        <time>2020-10-17T10:54:31Z</time>
      </trkpt>
      <trkpt lat="46.20285" lon="4.55018">
        <ele>617</ele>
        <time>2020-10-17T10:54:32Z</time>
      </trkpt>
      <trkpt lat="46.20285" lon="4.55018">
        <ele>616.8</ele>
        <time>2020-10-17T10:54:33Z</time>
      </trkpt>
      <trkpt lat="46.20287" lon="4.55019">
        <ele>616.8</ele>
        <time>2020-10-17T10:54:34Z</time>
      </trkpt>
      <trkpt lat="46.20287" lon="4.55019">
        <ele>617</ele>
        <time>2020-10-17T10:54:35Z</time>
      </trkpt>
      <trkpt lat="46.20289" lon="4.55019">
        <ele>617</ele>
        <time>2020-10-17T10:54:36Z</time>
      </trkpt>
      <trkpt lat="46.20289" lon="4.55019">
        <ele>616.6</ele>
        <time>2020-10-17T10:54:37Z</time>
      </trkpt>
      <trkpt lat="46.20292" lon="4.55021">
        <ele>616.4</ele>
        <time>2020-10-17T10:54:38Z</time>
      </trkpt>
      <trkpt lat="46.20292" lon="4.55021">
        <ele>616.4</ele>
        <time>2020-10-17T10:54:39Z</time>
      </trkpt>
      <trkpt lat="46.20294" lon="4.55022">
        <ele>616.2</ele>
        <time>2020-10-17T10:54:40Z</time>
      </trkpt>
      <trkpt lat="46.20294" lon="4.55022">
        <ele>616.2</ele>
        <time>2020-10-17T10:54:41Z</time>
      </trkpt>
      <trkpt lat="46.20294" lon="4.55022">
        <ele>616.6</ele>
        <time>2020-10-17T10:54:42Z</time>
      </trkpt>
      <trkpt lat="46.20294" lon="4.55022">
        <ele>616.6</ele>
        <time>2020-10-17T10:54:43Z</time>
      </trkpt>
      <trkpt lat="46.20294" lon="4.55022">
        <ele>616.6</ele>
        <time>2020-10-17T10:54:44Z</time>
      </trkpt>
      <trkpt lat="46.20294" lon="4.55022">
        <ele>616.6</ele>
        <time>2020-10-17T10:54:45Z</time>
      </trkpt>
      <trkpt lat="46.20294" lon="4.55022">
        <ele>616.8</ele>
        <time>2020-10-17T10:54:46Z</time>
      </trkpt>
      <trkpt lat="46.20294" lon="4.55022">
        <ele>616.6</ele>
        <time>2020-10-17T10:54:47Z</time>
      </trkpt>
      <trkpt lat="46.20294" lon="4.55022">
        <ele>616.4</ele>
        <time>2020-10-17T10:54:48Z</time>
      </trkpt>
      <trkpt lat="46.20294" lon="4.55022">
        <ele>616.6</ele>
        <time>2020-10-17T10:54:49Z</time>
      </trkpt>
      <trkpt lat="46.20294" lon="4.55022">
        <ele>616.6</ele>
        <time>2020-10-17T10:54:50Z</time>
      </trkpt>
      <trkpt lat="46.20294" lon="4.55022">
        <ele>616.8</ele>
        <time>2020-10-17T10:54:51Z</time>
      </trkpt>
      <trkpt lat="46.20294" lon="4.55022">
        <ele>616.8</ele>
        <time>2020-10-17T10:54:52Z</time>
      </trkpt>
      <trkpt lat="46.20294" lon="4.55022">
        <ele>616.8</ele>
        <time>2020-10-17T10:54:53Z</time>
      </trkpt>
      <trkpt lat="46.20294" lon="4.55022">
        <ele>616.8</ele>
        <time>2020-10-17T10:54:54Z</time>
      </trkpt>
      <trkpt lat="46.20294" lon="4.55022">
        <ele>616.8</ele>
        <time>2020-10-17T10:54:55Z</time>
      </trkpt>
      <trkpt lat="46.20294" lon="4.55022">
        <ele>616.6</ele>
        <time>2020-10-17T10:54:56Z</time>
      </trkpt>
      <trkpt lat="46.20294" lon="4.55022">
        <ele>616.8</ele>
        <time>2020-10-17T10:54:57Z</time>
      </trkpt>
      <trkpt lat="46.20294" lon="4.55022">
        <ele>616.8</ele>
        <time>2020-10-17T10:54:58Z</time>
      </trkpt>
      <trkpt lat="46.20294" lon="4.55022">
        <ele>616.8</ele>
        <time>2020-10-17T10:54:59Z</time>
      </trkpt>
      <trkpt lat="46.20294" lon="4.55022">
        <ele>617</ele>
        <time>2020-10-17T10:55:00Z</time>
      </trkpt>
      <trkpt lat="46.20295" lon="4.55024">
        <ele>617</ele>
        <time>2020-10-17T10:55:01Z</time>
      </trkpt>
      <trkpt lat="46.20295" lon="4.55024">
        <ele>617</ele>
        <time>2020-10-17T10:55:02Z</time>
      </trkpt>
      <trkpt lat="46.20297" lon="4.55024">
        <ele>617</ele>
        <time>2020-10-17T10:55:03Z</time>
      </trkpt>
      <trkpt lat="46.20297" lon="4.55024">
        <ele>617</ele>
        <time>2020-10-17T10:55:04Z</time>
      </trkpt>
      <trkpt lat="46.203" lon="4.55025">
        <ele>617</ele>
        <time>2020-10-17T10:55:05Z</time>
      </trkpt>
      <trkpt lat="46.203" lon="4.55025">
        <ele>616.8</ele>
        <time>2020-10-17T10:55:06Z</time>
      </trkpt>
      <trkpt lat="46.20303" lon="4.55025">
        <ele>617</ele>
        <time>2020-10-17T10:55:07Z</time>
      </trkpt>
      <trkpt lat="46.20303" lon="4.55025">
        <ele>617.2</ele>
        <time>2020-10-17T10:55:08Z</time>
      </trkpt>
      <trkpt lat="46.20305" lon="4.55026">
        <ele>617</ele>
        <time>2020-10-17T10:55:09Z</time>
      </trkpt>
      <trkpt lat="46.20305" lon="4.55026">
        <ele>616.6</ele>
        <time>2020-10-17T10:55:10Z</time>
      </trkpt>
      <trkpt lat="46.20308" lon="4.55027">
        <ele>616.8</ele>
        <time>2020-10-17T10:55:11Z</time>
      </trkpt>
      <trkpt lat="46.20308" lon="4.55027">
        <ele>616.4</ele>
        <time>2020-10-17T10:55:12Z</time>
      </trkpt>
      <trkpt lat="46.2031" lon="4.55027">
        <ele>616.2</ele>
        <time>2020-10-17T10:55:13Z</time>
      </trkpt>
      <trkpt lat="46.2031" lon="4.55027">
        <ele>616</ele>
        <time>2020-10-17T10:55:14Z</time>
      </trkpt>
      <trkpt lat="46.20312" lon="4.55028">
        <ele>615.8</ele>
        <time>2020-10-17T10:55:15Z</time>
      </trkpt>
      <trkpt lat="46.20312" lon="4.55028">
        <ele>616</ele>
        <time>2020-10-17T10:55:16Z</time>
      </trkpt>
      <trkpt lat="46.20315" lon="4.55029">
        <ele>615.8</ele>
        <time>2020-10-17T10:55:17Z</time>
      </trkpt>
      <trkpt lat="46.20316" lon="4.55031">
        <ele>615.8</ele>
        <time>2020-10-17T10:55:18Z</time>
      </trkpt>
      <trkpt lat="46.20318" lon="4.55032">
        <ele>615.8</ele>
        <time>2020-10-17T10:55:19Z</time>
      </trkpt>
      <trkpt lat="46.2032" lon="4.55033">
        <ele>616</ele>
        <time>2020-10-17T10:55:20Z</time>
      </trkpt>
      <trkpt lat="46.20322" lon="4.55034">
        <ele>616</ele>
        <time>2020-10-17T10:55:21Z</time>
      </trkpt>
      <trkpt lat="46.20325" lon="4.55034">
        <ele>616.4</ele>
        <time>2020-10-17T10:55:22Z</time>
      </trkpt>
      <trkpt lat="46.20326" lon="4.55035">
        <ele>616.4</ele>
        <time>2020-10-17T10:55:23Z</time>
      </trkpt>
      <trkpt lat="46.20329" lon="4.55036">
        <ele>616.6</ele>
        <time>2020-10-17T10:55:24Z</time>
      </trkpt>
      <trkpt lat="46.20331" lon="4.55036">
        <ele>616.6</ele>
        <time>2020-10-17T10:55:25Z</time>
      </trkpt>
      <trkpt lat="46.20333" lon="4.55037">
        <ele>616.4</ele>
        <time>2020-10-17T10:55:26Z</time>
      </trkpt>
      <trkpt lat="46.20336" lon="4.55038">
        <ele>616.6</ele>
        <time>2020-10-17T10:55:27Z</time>
      </trkpt>
      <trkpt lat="46.20338" lon="4.55039">
        <ele>616.4</ele>
        <time>2020-10-17T10:55:28Z</time>
      </trkpt>
      <trkpt lat="46.20341" lon="4.5504">
        <ele>616.4</ele>
        <time>2020-10-17T10:55:29Z</time>
      </trkpt>
      <trkpt lat="46.20343" lon="4.5504">
        <ele>616.6</ele>
        <time>2020-10-17T10:55:30Z</time>
      </trkpt>
      <trkpt lat="46.20346" lon="4.55041">
        <ele>616.2</ele>
        <time>2020-10-17T10:55:31Z</time>
      </trkpt>
      <trkpt lat="46.20348" lon="4.55042">
        <ele>616</ele>
        <time>2020-10-17T10:55:32Z</time>
      </trkpt>
      <trkpt lat="46.20351" lon="4.55043">
        <ele>616</ele>
        <time>2020-10-17T10:55:33Z</time>
      </trkpt>
      <trkpt lat="46.20353" lon="4.55043">
        <ele>615.8</ele>
        <time>2020-10-17T10:55:34Z</time>
      </trkpt>
      <trkpt lat="46.20356" lon="4.55043">
        <ele>615.4</ele>
        <time>2020-10-17T10:55:35Z</time>
      </trkpt>
      <trkpt lat="46.20358" lon="4.55044">
        <ele>615.6</ele>
        <time>2020-10-17T10:55:36Z</time>
      </trkpt>
      <trkpt lat="46.2036" lon="4.55044">
        <ele>615.2</ele>
        <time>2020-10-17T10:55:37Z</time>
      </trkpt>
      <trkpt lat="46.20363" lon="4.55044">
        <ele>615</ele>
        <time>2020-10-17T10:55:38Z</time>
      </trkpt>
      <trkpt lat="46.20366" lon="4.55045">
        <ele>615.2</ele>
        <time>2020-10-17T10:55:39Z</time>
      </trkpt>
      <trkpt lat="46.20368" lon="4.55044">
        <ele>614.8</ele>
        <time>2020-10-17T10:55:40Z</time>
      </trkpt>
      <trkpt lat="46.20371" lon="4.55045">
        <ele>614.6</ele>
        <time>2020-10-17T10:55:41Z</time>
      </trkpt>
      <trkpt lat="46.20374" lon="4.55045">
        <ele>614.6</ele>
        <time>2020-10-17T10:55:42Z</time>
      </trkpt>
      <trkpt lat="46.20376" lon="4.55046">
        <ele>614.2</ele>
        <time>2020-10-17T10:55:43Z</time>
      </trkpt>
      <trkpt lat="46.20379" lon="4.55047">
        <ele>613.8</ele>
        <time>2020-10-17T10:55:44Z</time>
      </trkpt>
      <trkpt lat="46.20379" lon="4.55047">
        <ele>613.8</ele>
        <time>2020-10-17T10:55:45Z</time>
      </trkpt>
      <trkpt lat="46.20382" lon="4.55048">
        <ele>613.8</ele>
        <time>2020-10-17T10:55:46Z</time>
      </trkpt>
      <trkpt lat="46.20382" lon="4.55048">
        <ele>614</ele>
        <time>2020-10-17T10:55:47Z</time>
      </trkpt>
      <trkpt lat="46.20385" lon="4.55048">
        <ele>614</ele>
        <time>2020-10-17T10:55:48Z</time>
      </trkpt>
      <trkpt lat="46.20385" lon="4.55048">
        <ele>613.6</ele>
        <time>2020-10-17T10:55:49Z</time>
      </trkpt>
      <trkpt lat="46.20389" lon="4.55048">
        <ele>613.6</ele>
        <time>2020-10-17T10:55:50Z</time>
      </trkpt>
      <trkpt lat="46.20391" lon="4.55049">
        <ele>613.4</ele>
        <time>2020-10-17T10:55:51Z</time>
      </trkpt>
      <trkpt lat="46.20393" lon="4.5505">
        <ele>613.2</ele>
        <time>2020-10-17T10:55:52Z</time>
      </trkpt>
      <trkpt lat="46.20395" lon="4.55052">
        <ele>613</ele>
        <time>2020-10-17T10:55:53Z</time>
      </trkpt>
      <trkpt lat="46.20397" lon="4.55053">
        <ele>612.8</ele>
        <time>2020-10-17T10:55:54Z</time>
      </trkpt>
      <trkpt lat="46.20399" lon="4.55053">
        <ele>612.6</ele>
        <time>2020-10-17T10:55:55Z</time>
      </trkpt>
      <trkpt lat="46.20402" lon="4.55055">
        <ele>612.4</ele>
        <time>2020-10-17T10:55:56Z</time>
      </trkpt>
      <trkpt lat="46.20404" lon="4.55056">
        <ele>612.4</ele>
        <time>2020-10-17T10:55:57Z</time>
      </trkpt>
      <trkpt lat="46.20406" lon="4.55057">
        <ele>612.4</ele>
        <time>2020-10-17T10:55:58Z</time>
      </trkpt>
      <trkpt lat="46.20408" lon="4.55058">
        <ele>612.4</ele>
        <time>2020-10-17T10:55:59Z</time>
      </trkpt>
      <trkpt lat="46.20408" lon="4.55058">
        <ele>612.4</ele>
        <time>2020-10-17T10:56:00Z</time>
      </trkpt>
      <trkpt lat="46.2041" lon="4.5506">
        <ele>612.2</ele>
        <time>2020-10-17T10:56:01Z</time>
      </trkpt>
      <trkpt lat="46.2041" lon="4.5506">
        <ele>612.2</ele>
        <time>2020-10-17T10:56:02Z</time>
      </trkpt>
      <trkpt lat="46.20412" lon="4.55061">
        <ele>612</ele>
        <time>2020-10-17T10:56:03Z</time>
      </trkpt>
      <trkpt lat="46.20412" lon="4.55061">
        <ele>612.2</ele>
        <time>2020-10-17T10:56:04Z</time>
      </trkpt>
      <trkpt lat="46.20414" lon="4.55063">
        <ele>612.2</ele>
        <time>2020-10-17T10:56:05Z</time>
      </trkpt>
      <trkpt lat="46.20414" lon="4.55063">
        <ele>612</ele>
        <time>2020-10-17T10:56:06Z</time>
      </trkpt>
      <trkpt lat="46.20414" lon="4.55063">
        <ele>612</ele>
        <time>2020-10-17T10:56:07Z</time>
      </trkpt>
      <trkpt lat="46.20414" lon="4.55063">
        <ele>611.6</ele>
        <time>2020-10-17T10:56:08Z</time>
      </trkpt>
      <trkpt lat="46.20416" lon="4.55063">
        <ele>611.4</ele>
        <time>2020-10-17T10:56:09Z</time>
      </trkpt>
      <trkpt lat="46.20416" lon="4.55063">
        <ele>611.4</ele>
        <time>2020-10-17T10:56:10Z</time>
      </trkpt>
      <trkpt lat="46.20416" lon="4.55063">
        <ele>611.2</ele>
        <time>2020-10-17T10:56:11Z</time>
      </trkpt>
      <trkpt lat="46.20416" lon="4.55063">
        <ele>611.2</ele>
        <time>2020-10-17T10:56:12Z</time>
      </trkpt>
      <trkpt lat="46.20416" lon="4.55063">
        <ele>611.2</ele>
        <time>2020-10-17T10:56:13Z</time>
      </trkpt>
      <trkpt lat="46.20417" lon="4.55064">
        <ele>611.4</ele>
        <time>2020-10-17T10:56:14Z</time>
      </trkpt>
      <trkpt lat="46.20417" lon="4.55064">
        <ele>611.4</ele>
        <time>2020-10-17T10:56:15Z</time>
      </trkpt>
      <trkpt lat="46.20417" lon="4.55064">
        <ele>611.4</ele>
        <time>2020-10-17T10:56:16Z</time>
      </trkpt>
      <trkpt lat="46.20417" lon="4.55064">
        <ele>611.4</ele>
        <time>2020-10-17T10:56:17Z</time>
      </trkpt>
      <trkpt lat="46.20417" lon="4.55064">
        <ele>611.2</ele>
        <time>2020-10-17T10:56:18Z</time>
      </trkpt>
      <trkpt lat="46.20417" lon="4.55064">
        <ele>611</ele>
        <time>2020-10-17T10:56:19Z</time>
      </trkpt>
      <trkpt lat="46.20417" lon="4.55064">
        <ele>611.2</ele>
        <time>2020-10-17T10:56:20Z</time>
      </trkpt>
      <trkpt lat="46.20419" lon="4.55065">
        <ele>611.2</ele>
        <time>2020-10-17T10:56:21Z</time>
      </trkpt>
      <trkpt lat="46.20419" lon="4.55065">
        <ele>611.2</ele>
        <time>2020-10-17T10:56:22Z</time>
      </trkpt>
      <trkpt lat="46.20419" lon="4.55065">
        <ele>611</ele>
        <time>2020-10-17T10:56:23Z</time>
      </trkpt>
      <trkpt lat="46.20419" lon="4.55065">
        <ele>611</ele>
        <time>2020-10-17T10:56:24Z</time>
      </trkpt>
      <trkpt lat="46.20419" lon="4.55065">
        <ele>610.8</ele>
        <time>2020-10-17T10:56:25Z</time>
      </trkpt>
      <trkpt lat="46.20419" lon="4.55065">
        <ele>610.6</ele>
        <time>2020-10-17T10:56:26Z</time>
      </trkpt>
      <trkpt lat="46.20419" lon="4.55065">
        <ele>610.6</ele>
        <time>2020-10-17T10:56:27Z</time>
      </trkpt>
      <trkpt lat="46.20421" lon="4.55066">
        <ele>611</ele>
        <time>2020-10-17T10:56:28Z</time>
      </trkpt>
      <trkpt lat="46.20421" lon="4.55066">
        <ele>611.2</ele>
        <time>2020-10-17T10:56:29Z</time>
      </trkpt>
      <trkpt lat="46.20423" lon="4.55066">
        <ele>611.4</ele>
        <time>2020-10-17T10:56:30Z</time>
      </trkpt>
      <trkpt lat="46.20423" lon="4.55066">
        <ele>611.4</ele>
        <time>2020-10-17T10:56:31Z</time>
      </trkpt>
      <trkpt lat="46.20425" lon="4.55066">
        <ele>611.6</ele>
        <time>2020-10-17T10:56:32Z</time>
      </trkpt>
      <trkpt lat="46.20425" lon="4.55066">
        <ele>611.6</ele>
        <time>2020-10-17T10:56:33Z</time>
      </trkpt>
      <trkpt lat="46.20428" lon="4.55067">
        <ele>611.4</ele>
        <time>2020-10-17T10:56:34Z</time>
      </trkpt>
      <trkpt lat="46.20428" lon="4.55067">
        <ele>611.2</ele>
        <time>2020-10-17T10:56:35Z</time>
      </trkpt>
      <trkpt lat="46.2043" lon="4.55067">
        <ele>611</ele>
        <time>2020-10-17T10:56:36Z</time>
      </trkpt>
      <trkpt lat="46.2043" lon="4.55067">
        <ele>611</ele>
        <time>2020-10-17T10:56:37Z</time>
      </trkpt>
      <trkpt lat="46.20434" lon="4.55068">
        <ele>611.2</ele>
        <time>2020-10-17T10:56:38Z</time>
      </trkpt>
      <trkpt lat="46.20434" lon="4.55068">
        <ele>611.4</ele>
        <time>2020-10-17T10:56:39Z</time>
      </trkpt>
      <trkpt lat="46.20436" lon="4.55069">
        <ele>611.4</ele>
        <time>2020-10-17T10:56:40Z</time>
      </trkpt>
      <trkpt lat="46.20436" lon="4.55069">
        <ele>611.8</ele>
        <time>2020-10-17T10:56:41Z</time>
      </trkpt>
      <trkpt lat="46.20439" lon="4.55069">
        <ele>611.6</ele>
        <time>2020-10-17T10:56:42Z</time>
      </trkpt>
      <trkpt lat="46.20439" lon="4.55069">
        <ele>611.8</ele>
        <time>2020-10-17T10:56:43Z</time>
      </trkpt>
      <trkpt lat="46.20442" lon="4.55069">
        <ele>612</ele>
        <time>2020-10-17T10:56:44Z</time>
      </trkpt>
      <trkpt lat="46.20442" lon="4.55069">
        <ele>612.2</ele>
        <time>2020-10-17T10:56:45Z</time>
      </trkpt>
      <trkpt lat="46.20444" lon="4.55072">
        <ele>612.2</ele>
        <time>2020-10-17T10:56:46Z</time>
      </trkpt>
      <trkpt lat="46.20446" lon="4.55073">
        <ele>612.2</ele>
        <time>2020-10-17T10:56:47Z</time>
      </trkpt>
      <trkpt lat="46.20446" lon="4.55073">
        <ele>612.6</ele>
        <time>2020-10-17T10:56:48Z</time>
      </trkpt>
      <trkpt lat="46.20451" lon="4.55076">
        <ele>612.6</ele>
        <time>2020-10-17T10:56:49Z</time>
      </trkpt>
      <trkpt lat="46.20453" lon="4.55077">
        <ele>612.4</ele>
        <time>2020-10-17T10:56:50Z</time>
      </trkpt>
      <trkpt lat="46.20457" lon="4.55077">
        <ele>612</ele>
        <time>2020-10-17T10:56:51Z</time>
      </trkpt>
      <trkpt lat="46.20458" lon="4.55078">
        <ele>612.2</ele>
        <time>2020-10-17T10:56:52Z</time>
      </trkpt>
      <trkpt lat="46.2046" lon="4.55079">
        <ele>612.2</ele>
        <time>2020-10-17T10:56:53Z</time>
      </trkpt>
      <trkpt lat="46.20463" lon="4.5508">
        <ele>612.2</ele>
        <time>2020-10-17T10:56:54Z</time>
      </trkpt>
      <trkpt lat="46.20466" lon="4.55081">
        <ele>612.6</ele>
        <time>2020-10-17T10:56:55Z</time>
      </trkpt>
      <trkpt lat="46.20469" lon="4.55082">
        <ele>612.4</ele>
        <time>2020-10-17T10:56:56Z</time>
      </trkpt>
      <trkpt lat="46.20471" lon="4.55083">
        <ele>612.4</ele>
        <time>2020-10-17T10:56:57Z</time>
      </trkpt>
      <trkpt lat="46.20474" lon="4.55084">
        <ele>612.4</ele>
        <time>2020-10-17T10:56:58Z</time>
      </trkpt>
      <trkpt lat="46.20476" lon="4.55085">
        <ele>612.4</ele>
        <time>2020-10-17T10:56:59Z</time>
      </trkpt>
      <trkpt lat="46.20479" lon="4.55087">
        <ele>612.6</ele>
        <time>2020-10-17T10:57:00Z</time>
      </trkpt>
      <trkpt lat="46.20482" lon="4.55088">
        <ele>612.4</ele>
        <time>2020-10-17T10:57:01Z</time>
      </trkpt>
      <trkpt lat="46.20484" lon="4.55089">
        <ele>612.4</ele>
        <time>2020-10-17T10:57:02Z</time>
      </trkpt>
      <trkpt lat="46.20486" lon="4.5509">
        <ele>612.4</ele>
        <time>2020-10-17T10:57:03Z</time>
      </trkpt>
      <trkpt lat="46.20486" lon="4.5509">
        <ele>612.2</ele>
        <time>2020-10-17T10:57:04Z</time>
      </trkpt>
      <trkpt lat="46.2049" lon="4.5509">
        <ele>612</ele>
        <time>2020-10-17T10:57:05Z</time>
      </trkpt>
      <trkpt lat="46.20492" lon="4.5509">
        <ele>612.4</ele>
        <time>2020-10-17T10:57:06Z</time>
      </trkpt>
      <trkpt lat="46.20494" lon="4.5509">
        <ele>612</ele>
        <time>2020-10-17T10:57:07Z</time>
      </trkpt>
      <trkpt lat="46.20496" lon="4.5509">
        <ele>612</ele>
        <time>2020-10-17T10:57:08Z</time>
      </trkpt>
      <trkpt lat="46.20498" lon="4.5509">
        <ele>612</ele>
        <time>2020-10-17T10:57:09Z</time>
      </trkpt>
      <trkpt lat="46.20501" lon="4.5509">
        <ele>611.4</ele>
        <time>2020-10-17T10:57:10Z</time>
      </trkpt>
      <trkpt lat="46.20503" lon="4.5509">
        <ele>611.4</ele>
        <time>2020-10-17T10:57:11Z</time>
      </trkpt>
      <trkpt lat="46.20505" lon="4.5509">
        <ele>611.4</ele>
        <time>2020-10-17T10:57:12Z</time>
      </trkpt>
      <trkpt lat="46.20508" lon="4.55091">
        <ele>611.2</ele>
        <time>2020-10-17T10:57:13Z</time>
      </trkpt>
      <trkpt lat="46.20511" lon="4.5509">
        <ele>611</ele>
        <time>2020-10-17T10:57:14Z</time>
      </trkpt>
      <trkpt lat="46.20513" lon="4.55091">
        <ele>611</ele>
        <time>2020-10-17T10:57:15Z</time>
      </trkpt>
      <trkpt lat="46.20516" lon="4.55092">
        <ele>610.6</ele>
        <time>2020-10-17T10:57:16Z</time>
      </trkpt>
      <trkpt lat="46.20518" lon="4.55092">
        <ele>610.2</ele>
        <time>2020-10-17T10:57:17Z</time>
      </trkpt>
      <trkpt lat="46.2052" lon="4.55093">
        <ele>610.2</ele>
        <time>2020-10-17T10:57:18Z</time>
      </trkpt>
      <trkpt lat="46.20523" lon="4.55093">
        <ele>610.4</ele>
        <time>2020-10-17T10:57:19Z</time>
      </trkpt>
      <trkpt lat="46.20526" lon="4.55094">
        <ele>610</ele>
        <time>2020-10-17T10:57:20Z</time>
      </trkpt>
      <trkpt lat="46.20528" lon="4.55096">
        <ele>609.6</ele>
        <time>2020-10-17T10:57:21Z</time>
      </trkpt>
      <trkpt lat="46.2053" lon="4.55097">
        <ele>609.4</ele>
        <time>2020-10-17T10:57:22Z</time>
      </trkpt>
      <trkpt lat="46.20532" lon="4.55099">
        <ele>609</ele>
        <time>2020-10-17T10:57:23Z</time>
      </trkpt>
      <trkpt lat="46.20535" lon="4.551">
        <ele>608.6</ele>
        <time>2020-10-17T10:57:24Z</time>
      </trkpt>
      <trkpt lat="46.20537" lon="4.55102">
        <ele>608.8</ele>
        <time>2020-10-17T10:57:25Z</time>
      </trkpt>
      <trkpt lat="46.20539" lon="4.55103">
        <ele>608.2</ele>
        <time>2020-10-17T10:57:26Z</time>
      </trkpt>
      <trkpt lat="46.20541" lon="4.55105">
        <ele>607.6</ele>
        <time>2020-10-17T10:57:27Z</time>
      </trkpt>
      <trkpt lat="46.20544" lon="4.55107">
        <ele>608</ele>
        <time>2020-10-17T10:57:28Z</time>
      </trkpt>
      <trkpt lat="46.20546" lon="4.55109">
        <ele>607.4</ele>
        <time>2020-10-17T10:57:29Z</time>
      </trkpt>
      <trkpt lat="46.20549" lon="4.55113">
        <ele>606.8</ele>
        <time>2020-10-17T10:57:30Z</time>
      </trkpt>
      <trkpt lat="46.20551" lon="4.55117">
        <ele>607</ele>
        <time>2020-10-17T10:57:31Z</time>
      </trkpt>
      <trkpt lat="46.20554" lon="4.5512">
        <ele>606.6</ele>
        <time>2020-10-17T10:57:32Z</time>
      </trkpt>
      <trkpt lat="46.20556" lon="4.55124">
        <ele>606.2</ele>
        <time>2020-10-17T10:57:33Z</time>
      </trkpt>
      <trkpt lat="46.20558" lon="4.55128">
        <ele>606.4</ele>
        <time>2020-10-17T10:57:34Z</time>
      </trkpt>
      <trkpt lat="46.20559" lon="4.55131">
        <ele>606</ele>
        <time>2020-10-17T10:57:35Z</time>
      </trkpt>
      <trkpt lat="46.20561" lon="4.55134">
        <ele>605.8</ele>
        <time>2020-10-17T10:57:36Z</time>
      </trkpt>
      <trkpt lat="46.20564" lon="4.55137">
        <ele>605.6</ele>
        <time>2020-10-17T10:57:37Z</time>
      </trkpt>
      <trkpt lat="46.20566" lon="4.55138">
        <ele>605.4</ele>
        <time>2020-10-17T10:57:38Z</time>
      </trkpt>
      <trkpt lat="46.20569" lon="4.55138">
        <ele>605</ele>
        <time>2020-10-17T10:57:39Z</time>
      </trkpt>
      <trkpt lat="46.20571" lon="4.55138">
        <ele>605</ele>
        <time>2020-10-17T10:57:40Z</time>
      </trkpt>
      <trkpt lat="46.20574" lon="4.55138">
        <ele>604.8</ele>
        <time>2020-10-17T10:57:41Z</time>
      </trkpt>
      <trkpt lat="46.20577" lon="4.55138">
        <ele>604.4</ele>
        <time>2020-10-17T10:57:42Z</time>
      </trkpt>
      <trkpt lat="46.2058" lon="4.55138">
        <ele>604.2</ele>
        <time>2020-10-17T10:57:43Z</time>
      </trkpt>
      <trkpt lat="46.20584" lon="4.55137">
        <ele>604.4</ele>
        <time>2020-10-17T10:57:44Z</time>
      </trkpt>
      <trkpt lat="46.20587" lon="4.55136">
        <ele>604</ele>
        <time>2020-10-17T10:57:45Z</time>
      </trkpt>
      <trkpt lat="46.20589" lon="4.55135">
        <ele>603.6</ele>
        <time>2020-10-17T10:57:46Z</time>
      </trkpt>
      <trkpt lat="46.20592" lon="4.55133">
        <ele>603.8</ele>
        <time>2020-10-17T10:57:47Z</time>
      </trkpt>
      <trkpt lat="46.20594" lon="4.55131">
        <ele>603.6</ele>
        <time>2020-10-17T10:57:48Z</time>
      </trkpt>
      <trkpt lat="46.20596" lon="4.55129">
        <ele>603.6</ele>
        <time>2020-10-17T10:57:49Z</time>
      </trkpt>
      <trkpt lat="46.20598" lon="4.55127">
        <ele>603.8</ele>
        <time>2020-10-17T10:57:50Z</time>
      </trkpt>
      <trkpt lat="46.206" lon="4.55125">
        <ele>603.8</ele>
        <time>2020-10-17T10:57:51Z</time>
      </trkpt>
      <trkpt lat="46.20602" lon="4.55124">
        <ele>603.8</ele>
        <time>2020-10-17T10:57:52Z</time>
      </trkpt>
      <trkpt lat="46.20602" lon="4.55124">
        <ele>604</ele>
        <time>2020-10-17T10:57:53Z</time>
      </trkpt>
      <trkpt lat="46.20606" lon="4.55121">
        <ele>604.2</ele>
        <time>2020-10-17T10:57:54Z</time>
      </trkpt>
      <trkpt lat="46.20606" lon="4.55121">
        <ele>604.4</ele>
        <time>2020-10-17T10:57:55Z</time>
      </trkpt>
      <trkpt lat="46.20608" lon="4.5512">
        <ele>604.2</ele>
        <time>2020-10-17T10:57:56Z</time>
      </trkpt>
      <trkpt lat="46.20608" lon="4.5512">
        <ele>604.2</ele>
        <time>2020-10-17T10:57:57Z</time>
      </trkpt>
      <trkpt lat="46.20611" lon="4.55118">
        <ele>604.4</ele>
        <time>2020-10-17T10:57:58Z</time>
      </trkpt>
      <trkpt lat="46.20613" lon="4.55117">
        <ele>604.6</ele>
        <time>2020-10-17T10:57:59Z</time>
      </trkpt>
      <trkpt lat="46.20613" lon="4.55117">
        <ele>605</ele>
        <time>2020-10-17T10:58:00Z</time>
      </trkpt>
      <trkpt lat="46.20615" lon="4.55116">
        <ele>605</ele>
        <time>2020-10-17T10:58:01Z</time>
      </trkpt>
      <trkpt lat="46.20615" lon="4.55116">
        <ele>605.2</ele>
        <time>2020-10-17T10:58:02Z</time>
      </trkpt>
      <trkpt lat="46.20619" lon="4.55114">
        <ele>605</ele>
        <time>2020-10-17T10:58:03Z</time>
      </trkpt>
      <trkpt lat="46.20619" lon="4.55114">
        <ele>605.4</ele>
        <time>2020-10-17T10:58:04Z</time>
      </trkpt>
      <trkpt lat="46.20622" lon="4.55113">
        <ele>605.6</ele>
        <time>2020-10-17T10:58:05Z</time>
      </trkpt>
      <trkpt lat="46.20622" lon="4.55113">
        <ele>605.6</ele>
        <time>2020-10-17T10:58:06Z</time>
      </trkpt>
      <trkpt lat="46.20625" lon="4.55111">
        <ele>605.6</ele>
        <time>2020-10-17T10:58:07Z</time>
      </trkpt>
      <trkpt lat="46.20625" lon="4.55111">
        <ele>605.6</ele>
        <time>2020-10-17T10:58:08Z</time>
      </trkpt>
      <trkpt lat="46.20627" lon="4.5511">
        <ele>605.4</ele>
        <time>2020-10-17T10:58:09Z</time>
      </trkpt>
      <trkpt lat="46.20627" lon="4.5511">
        <ele>605.6</ele>
        <time>2020-10-17T10:58:10Z</time>
      </trkpt>
      <trkpt lat="46.2063" lon="4.55109">
        <ele>605.4</ele>
        <time>2020-10-17T10:58:11Z</time>
      </trkpt>
      <trkpt lat="46.2063" lon="4.55109">
        <ele>605.6</ele>
        <time>2020-10-17T10:58:12Z</time>
      </trkpt>
      <trkpt lat="46.20634" lon="4.55108">
        <ele>605.6</ele>
        <time>2020-10-17T10:58:13Z</time>
      </trkpt>
      <trkpt lat="46.20636" lon="4.55107">
        <ele>605.6</ele>
        <time>2020-10-17T10:58:14Z</time>
      </trkpt>
      <trkpt lat="46.20636" lon="4.55107">
        <ele>605.6</ele>
        <time>2020-10-17T10:58:15Z</time>
      </trkpt>
      <trkpt lat="46.20638" lon="4.55105">
        <ele>605.8</ele>
        <time>2020-10-17T10:58:16Z</time>
      </trkpt>
      <trkpt lat="46.20638" lon="4.55105">
        <ele>605.8</ele>
        <time>2020-10-17T10:58:17Z</time>
      </trkpt>
      <trkpt lat="46.20641" lon="4.55105">
        <ele>606</ele>
        <time>2020-10-17T10:58:18Z</time>
      </trkpt>
      <trkpt lat="46.20641" lon="4.55105">
        <ele>605.8</ele>
        <time>2020-10-17T10:58:19Z</time>
      </trkpt>
      <trkpt lat="46.20644" lon="4.55105">
        <ele>606.2</ele>
        <time>2020-10-17T10:58:20Z</time>
      </trkpt>
      <trkpt lat="46.20644" lon="4.55105">
        <ele>606.2</ele>
        <time>2020-10-17T10:58:21Z</time>
      </trkpt>
      <trkpt lat="46.20647" lon="4.55104">
        <ele>606.2</ele>
        <time>2020-10-17T10:58:22Z</time>
      </trkpt>
      <trkpt lat="46.20647" lon="4.55104">
        <ele>606.2</ele>
        <time>2020-10-17T10:58:23Z</time>
      </trkpt>
      <trkpt lat="46.2065" lon="4.55103">
        <ele>606</ele>
        <time>2020-10-17T10:58:24Z</time>
      </trkpt>
      <trkpt lat="46.2065" lon="4.55103">
        <ele>606</ele>
        <time>2020-10-17T10:58:25Z</time>
      </trkpt>
      <trkpt lat="46.20652" lon="4.55102">
        <ele>606</ele>
        <time>2020-10-17T10:58:26Z</time>
      </trkpt>
      <trkpt lat="46.20652" lon="4.55102">
        <ele>606</ele>
        <time>2020-10-17T10:58:27Z</time>
      </trkpt>
      <trkpt lat="46.20655" lon="4.551">
        <ele>606</ele>
        <time>2020-10-17T10:58:28Z</time>
      </trkpt>
      <trkpt lat="46.20655" lon="4.551">
        <ele>606.2</ele>
        <time>2020-10-17T10:58:29Z</time>
      </trkpt>
      <trkpt lat="46.20657" lon="4.55099">
        <ele>606.4</ele>
        <time>2020-10-17T10:58:30Z</time>
      </trkpt>
      <trkpt lat="46.20657" lon="4.55099">
        <ele>606.4</ele>
        <time>2020-10-17T10:58:31Z</time>
      </trkpt>
      <trkpt lat="46.2066" lon="4.551">
        <ele>606.6</ele>
        <time>2020-10-17T10:58:32Z</time>
      </trkpt>
      <trkpt lat="46.2066" lon="4.551">
        <ele>606.6</ele>
        <time>2020-10-17T10:58:33Z</time>
      </trkpt>
      <trkpt lat="46.20663" lon="4.551">
        <ele>607.2</ele>
        <time>2020-10-17T10:58:34Z</time>
      </trkpt>
      <trkpt lat="46.20665" lon="4.551">
        <ele>607.2</ele>
        <time>2020-10-17T10:58:35Z</time>
      </trkpt>
      <trkpt lat="46.20667" lon="4.55099">
        <ele>607.2</ele>
        <time>2020-10-17T10:58:36Z</time>
      </trkpt>
      <trkpt lat="46.20667" lon="4.55099">
        <ele>607.2</ele>
        <time>2020-10-17T10:58:37Z</time>
      </trkpt>
      <trkpt lat="46.2067" lon="4.55099">
        <ele>607.2</ele>
        <time>2020-10-17T10:58:38Z</time>
      </trkpt>
      <trkpt lat="46.2067" lon="4.55099">
        <ele>607.4</ele>
        <time>2020-10-17T10:58:39Z</time>
      </trkpt>
      <trkpt lat="46.20672" lon="4.55099">
        <ele>607.4</ele>
        <time>2020-10-17T10:58:40Z</time>
      </trkpt>
      <trkpt lat="46.20672" lon="4.55099">
        <ele>607.4</ele>
        <time>2020-10-17T10:58:41Z</time>
      </trkpt>
      <trkpt lat="46.20675" lon="4.55098">
        <ele>607.2</ele>
        <time>2020-10-17T10:58:42Z</time>
      </trkpt>
      <trkpt lat="46.20675" lon="4.55098">
        <ele>607.2</ele>
        <time>2020-10-17T10:58:43Z</time>
      </trkpt>
      <trkpt lat="46.20677" lon="4.55097">
        <ele>607.2</ele>
        <time>2020-10-17T10:58:44Z</time>
      </trkpt>
      <trkpt lat="46.20677" lon="4.55097">
        <ele>607</ele>
        <time>2020-10-17T10:58:45Z</time>
      </trkpt>
      <trkpt lat="46.2068" lon="4.55096">
        <ele>607</ele>
        <time>2020-10-17T10:58:46Z</time>
      </trkpt>
      <trkpt lat="46.20682" lon="4.55096">
        <ele>607</ele>
        <time>2020-10-17T10:58:47Z</time>
      </trkpt>
      <trkpt lat="46.20683" lon="4.55095">
        <ele>606.8</ele>
        <time>2020-10-17T10:58:48Z</time>
      </trkpt>
      <trkpt lat="46.20683" lon="4.55095">
        <ele>607.2</ele>
        <time>2020-10-17T10:58:49Z</time>
      </trkpt>
      <trkpt lat="46.20688" lon="4.55094">
        <ele>606.8</ele>
        <time>2020-10-17T10:58:50Z</time>
      </trkpt>
      <trkpt lat="46.2069" lon="4.55092">
        <ele>606.8</ele>
        <time>2020-10-17T10:58:51Z</time>
      </trkpt>
      <trkpt lat="46.20691" lon="4.55091">
        <ele>607</ele>
        <time>2020-10-17T10:58:52Z</time>
      </trkpt>
      <trkpt lat="46.20693" lon="4.5509">
        <ele>607.2</ele>
        <time>2020-10-17T10:58:53Z</time>
      </trkpt>
      <trkpt lat="46.20694" lon="4.55088">
        <ele>607.2</ele>
        <time>2020-10-17T10:58:54Z</time>
      </trkpt>
      <trkpt lat="46.20694" lon="4.55088">
        <ele>607.4</ele>
        <time>2020-10-17T10:58:55Z</time>
      </trkpt>
      <trkpt lat="46.20695" lon="4.55084">
        <ele>608</ele>
        <time>2020-10-17T10:58:56Z</time>
      </trkpt>
      <trkpt lat="46.20695" lon="4.55084">
        <ele>608</ele>
        <time>2020-10-17T10:58:57Z</time>
      </trkpt>
      <trkpt lat="46.20696" lon="4.5508">
        <ele>608.2</ele>
        <time>2020-10-17T10:58:58Z</time>
      </trkpt>
      <trkpt lat="46.20696" lon="4.5508">
        <ele>608</ele>
        <time>2020-10-17T10:58:59Z</time>
      </trkpt>
      <trkpt lat="46.20695" lon="4.55077">
        <ele>608</ele>
        <time>2020-10-17T10:59:00Z</time>
      </trkpt>
      <trkpt lat="46.20695" lon="4.55077">
        <ele>608.2</ele>
        <time>2020-10-17T10:59:01Z</time>
      </trkpt>
      <trkpt lat="46.20693" lon="4.55075">
        <ele>608.2</ele>
        <time>2020-10-17T10:59:02Z</time>
      </trkpt>
      <trkpt lat="46.20693" lon="4.55075">
        <ele>608.4</ele>
        <time>2020-10-17T10:59:03Z</time>
      </trkpt>
      <trkpt lat="46.20691" lon="4.55073">
        <ele>608.6</ele>
        <time>2020-10-17T10:59:04Z</time>
      </trkpt>
      <trkpt lat="46.20691" lon="4.55073">
        <ele>608.4</ele>
        <time>2020-10-17T10:59:05Z</time>
      </trkpt>
      <trkpt lat="46.20688" lon="4.55071">
        <ele>608.6</ele>
        <time>2020-10-17T10:59:06Z</time>
      </trkpt>
      <trkpt lat="46.20688" lon="4.55071">
        <ele>608.4</ele>
        <time>2020-10-17T10:59:07Z</time>
      </trkpt>
      <trkpt lat="46.20686" lon="4.55068">
        <ele>608.6</ele>
        <time>2020-10-17T10:59:08Z</time>
      </trkpt>
      <trkpt lat="46.20686" lon="4.55068">
        <ele>608.6</ele>
        <time>2020-10-17T10:59:09Z</time>
      </trkpt>
      <trkpt lat="46.20683" lon="4.55065">
        <ele>608.6</ele>
        <time>2020-10-17T10:59:10Z</time>
      </trkpt>
      <trkpt lat="46.20683" lon="4.55065">
        <ele>608.6</ele>
        <time>2020-10-17T10:59:11Z</time>
      </trkpt>
      <trkpt lat="46.2068" lon="4.55062">
        <ele>608.6</ele>
        <time>2020-10-17T10:59:12Z</time>
      </trkpt>
      <trkpt lat="46.2068" lon="4.55062">
        <ele>608.8</ele>
        <time>2020-10-17T10:59:13Z</time>
      </trkpt>
      <trkpt lat="46.20678" lon="4.55059">
        <ele>608.8</ele>
        <time>2020-10-17T10:59:14Z</time>
      </trkpt>
      <trkpt lat="46.20678" lon="4.55059">
        <ele>609.4</ele>
        <time>2020-10-17T10:59:15Z</time>
      </trkpt>
      <trkpt lat="46.20675" lon="4.55057">
        <ele>609.4</ele>
        <time>2020-10-17T10:59:16Z</time>
      </trkpt>
      <trkpt lat="46.20675" lon="4.55057">
        <ele>609.4</ele>
        <time>2020-10-17T10:59:17Z</time>
      </trkpt>
      <trkpt lat="46.20673" lon="4.55055">
        <ele>609.6</ele>
        <time>2020-10-17T10:59:18Z</time>
      </trkpt>
      <trkpt lat="46.20673" lon="4.55055">
        <ele>609.6</ele>
        <time>2020-10-17T10:59:19Z</time>
      </trkpt>
      <trkpt lat="46.2067" lon="4.55052">
        <ele>609.6</ele>
        <time>2020-10-17T10:59:20Z</time>
      </trkpt>
      <trkpt lat="46.2067" lon="4.55052">
        <ele>609.6</ele>
        <time>2020-10-17T10:59:21Z</time>
      </trkpt>
      <trkpt lat="46.20668" lon="4.55048">
        <ele>609.4</ele>
        <time>2020-10-17T10:59:22Z</time>
      </trkpt>
      <trkpt lat="46.20668" lon="4.55048">
        <ele>609.6</ele>
        <time>2020-10-17T10:59:23Z</time>
      </trkpt>
      <trkpt lat="46.20665" lon="4.55045">
        <ele>610</ele>
        <time>2020-10-17T10:59:24Z</time>
      </trkpt>
      <trkpt lat="46.20665" lon="4.55045">
        <ele>610</ele>
        <time>2020-10-17T10:59:25Z</time>
      </trkpt>
      <trkpt lat="46.20663" lon="4.55042">
        <ele>610</ele>
        <time>2020-10-17T10:59:26Z</time>
      </trkpt>
      <trkpt lat="46.20663" lon="4.55042">
        <ele>610</ele>
        <time>2020-10-17T10:59:27Z</time>
      </trkpt>
      <trkpt lat="46.20661" lon="4.55039">
        <ele>610</ele>
        <time>2020-10-17T10:59:28Z</time>
      </trkpt>
      <trkpt lat="46.20661" lon="4.55039">
        <ele>610</ele>
        <time>2020-10-17T10:59:29Z</time>
      </trkpt>
      <trkpt lat="46.20659" lon="4.55035">
        <ele>610</ele>
        <time>2020-10-17T10:59:30Z</time>
      </trkpt>
      <trkpt lat="46.20659" lon="4.55035">
        <ele>610.4</ele>
        <time>2020-10-17T10:59:31Z</time>
      </trkpt>
      <trkpt lat="46.20658" lon="4.55031">
        <ele>611</ele>
        <time>2020-10-17T10:59:32Z</time>
      </trkpt>
      <trkpt lat="46.20658" lon="4.55031">
        <ele>611</ele>
        <time>2020-10-17T10:59:33Z</time>
      </trkpt>
      <trkpt lat="46.20656" lon="4.55027">
        <ele>611</ele>
        <time>2020-10-17T10:59:34Z</time>
      </trkpt>
      <trkpt lat="46.20656" lon="4.55027">
        <ele>610.8</ele>
        <time>2020-10-17T10:59:35Z</time>
      </trkpt>
      <trkpt lat="46.20654" lon="4.55023">
        <ele>611</ele>
        <time>2020-10-17T10:59:36Z</time>
      </trkpt>
      <trkpt lat="46.20654" lon="4.55023">
        <ele>611</ele>
        <time>2020-10-17T10:59:37Z</time>
      </trkpt>
      <trkpt lat="46.20653" lon="4.5502">
        <ele>611</ele>
        <time>2020-10-17T10:59:38Z</time>
      </trkpt>
      <trkpt lat="46.20653" lon="4.5502">
        <ele>611.2</ele>
        <time>2020-10-17T10:59:39Z</time>
      </trkpt>
      <trkpt lat="46.20652" lon="4.55016">
        <ele>611.2</ele>
        <time>2020-10-17T10:59:40Z</time>
      </trkpt>
      <trkpt lat="46.20652" lon="4.55016">
        <ele>611.2</ele>
        <time>2020-10-17T10:59:41Z</time>
      </trkpt>
      <trkpt lat="46.20651" lon="4.55011">
        <ele>611.8</ele>
        <time>2020-10-17T10:59:42Z</time>
      </trkpt>
      <trkpt lat="46.20651" lon="4.55011">
        <ele>612</ele>
        <time>2020-10-17T10:59:43Z</time>
      </trkpt>
      <trkpt lat="46.20651" lon="4.55007">
        <ele>612.2</ele>
        <time>2020-10-17T10:59:44Z</time>
      </trkpt>
      <trkpt lat="46.20651" lon="4.55007">
        <ele>612.4</ele>
        <time>2020-10-17T10:59:45Z</time>
      </trkpt>
      <trkpt lat="46.20652" lon="4.55003">
        <ele>612.6</ele>
        <time>2020-10-17T10:59:46Z</time>
      </trkpt>
      <trkpt lat="46.20652" lon="4.55003">
        <ele>613</ele>
        <time>2020-10-17T10:59:47Z</time>
      </trkpt>
      <trkpt lat="46.20652" lon="4.54999">
        <ele>613.2</ele>
        <time>2020-10-17T10:59:48Z</time>
      </trkpt>
      <trkpt lat="46.20652" lon="4.54996">
        <ele>613.2</ele>
        <time>2020-10-17T10:59:49Z</time>
      </trkpt>
      <trkpt lat="46.20652" lon="4.54996">
        <ele>613.6</ele>
        <time>2020-10-17T10:59:50Z</time>
      </trkpt>
      <trkpt lat="46.20652" lon="4.54991">
        <ele>614</ele>
        <time>2020-10-17T10:59:51Z</time>
      </trkpt>
      <trkpt lat="46.20652" lon="4.54991">
        <ele>614.4</ele>
        <time>2020-10-17T10:59:52Z</time>
      </trkpt>
      <trkpt lat="46.20653" lon="4.54987">
        <ele>614.4</ele>
        <time>2020-10-17T10:59:53Z</time>
      </trkpt>
      <trkpt lat="46.20653" lon="4.54987">
        <ele>614.4</ele>
        <time>2020-10-17T10:59:54Z</time>
      </trkpt>
      <trkpt lat="46.20653" lon="4.54983">
        <ele>614.8</ele>
        <time>2020-10-17T10:59:55Z</time>
      </trkpt>
      <trkpt lat="46.20653" lon="4.54983">
        <ele>614.8</ele>
        <time>2020-10-17T10:59:56Z</time>
      </trkpt>
      <trkpt lat="46.20654" lon="4.54978">
        <ele>615.2</ele>
        <time>2020-10-17T10:59:57Z</time>
      </trkpt>
      <trkpt lat="46.20654" lon="4.54978">
        <ele>615.4</ele>
        <time>2020-10-17T10:59:58Z</time>
      </trkpt>
      <trkpt lat="46.20655" lon="4.54974">
        <ele>615.8</ele>
        <time>2020-10-17T10:59:59Z</time>
      </trkpt>
      <trkpt lat="46.20655" lon="4.54974">
        <ele>616</ele>
        <time>2020-10-17T11:00:00Z</time>
      </trkpt>
      <trkpt lat="46.20656" lon="4.54971">
        <ele>616.2</ele>
        <time>2020-10-17T11:00:01Z</time>
      </trkpt>
      <trkpt lat="46.20656" lon="4.54971">
        <ele>616.4</ele>
        <time>2020-10-17T11:00:02Z</time>
      </trkpt>
      <trkpt lat="46.20657" lon="4.54966">
        <ele>616.6</ele>
        <time>2020-10-17T11:00:03Z</time>
      </trkpt>
      <trkpt lat="46.20657" lon="4.54966">
        <ele>616.6</ele>
        <time>2020-10-17T11:00:04Z</time>
      </trkpt>
      <trkpt lat="46.20659" lon="4.54962">
        <ele>616.8</ele>
        <time>2020-10-17T11:00:05Z</time>
      </trkpt>
      <trkpt lat="46.20659" lon="4.54962">
        <ele>616.8</ele>
        <time>2020-10-17T11:00:06Z</time>
      </trkpt>
      <trkpt lat="46.2066" lon="4.54958">
        <ele>617</ele>
        <time>2020-10-17T11:00:07Z</time>
      </trkpt>
      <trkpt lat="46.2066" lon="4.54958">
        <ele>617</ele>
        <time>2020-10-17T11:00:08Z</time>
      </trkpt>
      <trkpt lat="46.20661" lon="4.54955">
        <ele>617.2</ele>
        <time>2020-10-17T11:00:09Z</time>
      </trkpt>
      <trkpt lat="46.20661" lon="4.54955">
        <ele>617.6</ele>
        <time>2020-10-17T11:00:10Z</time>
      </trkpt>
      <trkpt lat="46.20662" lon="4.5495">
        <ele>617.8</ele>
        <time>2020-10-17T11:00:11Z</time>
      </trkpt>
      <trkpt lat="46.20662" lon="4.5495">
        <ele>618</ele>
        <time>2020-10-17T11:00:12Z</time>
      </trkpt>
      <trkpt lat="46.20662" lon="4.54946">
        <ele>618.4</ele>
        <time>2020-10-17T11:00:13Z</time>
      </trkpt>
      <trkpt lat="46.20662" lon="4.54946">
        <ele>618.4</ele>
        <time>2020-10-17T11:00:14Z</time>
      </trkpt>
      <trkpt lat="46.20663" lon="4.54942">
        <ele>618.6</ele>
        <time>2020-10-17T11:00:15Z</time>
      </trkpt>
      <trkpt lat="46.20663" lon="4.54939">
        <ele>618.2</ele>
        <time>2020-10-17T11:00:16Z</time>
      </trkpt>
      <trkpt lat="46.20663" lon="4.54936">
        <ele>618.2</ele>
        <time>2020-10-17T11:00:17Z</time>
      </trkpt>
      <trkpt lat="46.20663" lon="4.54932">
        <ele>618.4</ele>
        <time>2020-10-17T11:00:18Z</time>
      </trkpt>
      <trkpt lat="46.20662" lon="4.54929">
        <ele>618.2</ele>
        <time>2020-10-17T11:00:19Z</time>
      </trkpt>
      <trkpt lat="46.20661" lon="4.54925">
        <ele>618.2</ele>
        <time>2020-10-17T11:00:20Z</time>
      </trkpt>
      <trkpt lat="46.20661" lon="4.54921">
        <ele>618.4</ele>
        <time>2020-10-17T11:00:21Z</time>
      </trkpt>
      <trkpt lat="46.20661" lon="4.54918">
        <ele>618.6</ele>
        <time>2020-10-17T11:00:22Z</time>
      </trkpt>
      <trkpt lat="46.20661" lon="4.54914">
        <ele>618.6</ele>
        <time>2020-10-17T11:00:23Z</time>
      </trkpt>
      <trkpt lat="46.2066" lon="4.5491">
        <ele>618.6</ele>
        <time>2020-10-17T11:00:24Z</time>
      </trkpt>
      <trkpt lat="46.2066" lon="4.54907">
        <ele>618.6</ele>
        <time>2020-10-17T11:00:25Z</time>
      </trkpt>
      <trkpt lat="46.20658" lon="4.54903">
        <ele>618.4</ele>
        <time>2020-10-17T11:00:26Z</time>
      </trkpt>
      <trkpt lat="46.20658" lon="4.54899">
        <ele>618</ele>
        <time>2020-10-17T11:00:27Z</time>
      </trkpt>
      <trkpt lat="46.20657" lon="4.54895">
        <ele>618.2</ele>
        <time>2020-10-17T11:00:28Z</time>
      </trkpt>
      <trkpt lat="46.20656" lon="4.54891">
        <ele>618</ele>
        <time>2020-10-17T11:00:29Z</time>
      </trkpt>
      <trkpt lat="46.20656" lon="4.54888">
        <ele>617.8</ele>
        <time>2020-10-17T11:00:30Z</time>
      </trkpt>
      <trkpt lat="46.20655" lon="4.54885">
        <ele>617.8</ele>
        <time>2020-10-17T11:00:31Z</time>
      </trkpt>
      <trkpt lat="46.20655" lon="4.54885">
        <ele>618</ele>
        <time>2020-10-17T11:00:32Z</time>
      </trkpt>
      <trkpt lat="46.20654" lon="4.5488">
        <ele>617.8</ele>
        <time>2020-10-17T11:00:33Z</time>
      </trkpt>
      <trkpt lat="46.20654" lon="4.5488">
        <ele>617.6</ele>
        <time>2020-10-17T11:00:34Z</time>
      </trkpt>
      <trkpt lat="46.20653" lon="4.54875">
        <ele>617.4</ele>
        <time>2020-10-17T11:00:35Z</time>
      </trkpt>
      <trkpt lat="46.20653" lon="4.54873">
        <ele>617.4</ele>
        <time>2020-10-17T11:00:36Z</time>
      </trkpt>
      <trkpt lat="46.20652" lon="4.5487">
        <ele>617.2</ele>
        <time>2020-10-17T11:00:37Z</time>
      </trkpt>
      <trkpt lat="46.20652" lon="4.5487">
        <ele>617</ele>
        <time>2020-10-17T11:00:38Z</time>
      </trkpt>
      <trkpt lat="46.20652" lon="4.54865">
        <ele>617.2</ele>
        <time>2020-10-17T11:00:39Z</time>
      </trkpt>
      <trkpt lat="46.20652" lon="4.54865">
        <ele>617.2</ele>
        <time>2020-10-17T11:00:40Z</time>
      </trkpt>
      <trkpt lat="46.20651" lon="4.54861">
        <ele>617.2</ele>
        <time>2020-10-17T11:00:41Z</time>
      </trkpt>
      <trkpt lat="46.20651" lon="4.54861">
        <ele>617.2</ele>
        <time>2020-10-17T11:00:42Z</time>
      </trkpt>
      <trkpt lat="46.20651" lon="4.54861">
        <ele>617.2</ele>
        <time>2020-10-17T11:00:43Z</time>
      </trkpt>
      <trkpt lat="46.20651" lon="4.54861">
        <ele>617.4</ele>
        <time>2020-10-17T11:00:44Z</time>
      </trkpt>
      <trkpt lat="46.20651" lon="4.54861">
        <ele>617.2</ele>
        <time>2020-10-17T11:00:45Z</time>
      </trkpt>
      <trkpt lat="46.20651" lon="4.54861">
        <ele>617</ele>
        <time>2020-10-17T11:00:46Z</time>
      </trkpt>
      <trkpt lat="46.20651" lon="4.54861">
        <ele>616.8</ele>
        <time>2020-10-17T11:00:47Z</time>
      </trkpt>
      <trkpt lat="46.2065" lon="4.54859">
        <ele>616.8</ele>
        <time>2020-10-17T11:00:48Z</time>
      </trkpt>
      <trkpt lat="46.2065" lon="4.54859">
        <ele>616.6</ele>
        <time>2020-10-17T11:00:49Z</time>
      </trkpt>
      <trkpt lat="46.20649" lon="4.54855">
        <ele>616.6</ele>
        <time>2020-10-17T11:00:50Z</time>
      </trkpt>
      <trkpt lat="46.20649" lon="4.54855">
        <ele>616.4</ele>
        <time>2020-10-17T11:00:51Z</time>
      </trkpt>
      <trkpt lat="46.20649" lon="4.54851">
        <ele>616.4</ele>
        <time>2020-10-17T11:00:52Z</time>
      </trkpt>
      <trkpt lat="46.20649" lon="4.54851">
        <ele>616.4</ele>
        <time>2020-10-17T11:00:53Z</time>
      </trkpt>
      <trkpt lat="46.20648" lon="4.54846">
        <ele>616.4</ele>
        <time>2020-10-17T11:00:54Z</time>
      </trkpt>
      <trkpt lat="46.20648" lon="4.54846">
        <ele>616.6</ele>
        <time>2020-10-17T11:00:55Z</time>
      </trkpt>
      <trkpt lat="46.20648" lon="4.54842">
        <ele>616.8</ele>
        <time>2020-10-17T11:00:56Z</time>
      </trkpt>
      <trkpt lat="46.20647" lon="4.54839">
        <ele>616.8</ele>
        <time>2020-10-17T11:00:57Z</time>
      </trkpt>
      <trkpt lat="46.20647" lon="4.54836">
        <ele>616.8</ele>
        <time>2020-10-17T11:00:58Z</time>
      </trkpt>
      <trkpt lat="46.20646" lon="4.54832">
        <ele>616.2</ele>
        <time>2020-10-17T11:00:59Z</time>
      </trkpt>
      <trkpt lat="46.20645" lon="4.54828">
        <ele>616.2</ele>
        <time>2020-10-17T11:01:00Z</time>
      </trkpt>
      <trkpt lat="46.20644" lon="4.54824">
        <ele>616.6</ele>
        <time>2020-10-17T11:01:01Z</time>
      </trkpt>
      <trkpt lat="46.20643" lon="4.5482">
        <ele>616.2</ele>
        <time>2020-10-17T11:01:02Z</time>
      </trkpt>
      <trkpt lat="46.20642" lon="4.54816">
        <ele>616.2</ele>
        <time>2020-10-17T11:01:03Z</time>
      </trkpt>
      <trkpt lat="46.20641" lon="4.54813">
        <ele>616.4</ele>
        <time>2020-10-17T11:01:04Z</time>
      </trkpt>
      <trkpt lat="46.2064" lon="4.54809">
        <ele>616.4</ele>
        <time>2020-10-17T11:01:05Z</time>
      </trkpt>
      <trkpt lat="46.20639" lon="4.54806">
        <ele>616</ele>
        <time>2020-10-17T11:01:06Z</time>
      </trkpt>
      <trkpt lat="46.20638" lon="4.54803">
        <ele>615.8</ele>
        <time>2020-10-17T11:01:07Z</time>
      </trkpt>
      <trkpt lat="46.20637" lon="4.54799">
        <ele>615.6</ele>
        <time>2020-10-17T11:01:08Z</time>
      </trkpt>
      <trkpt lat="46.20636" lon="4.54795">
        <ele>615.2</ele>
        <time>2020-10-17T11:01:09Z</time>
      </trkpt>
      <trkpt lat="46.20636" lon="4.54791">
        <ele>615.2</ele>
        <time>2020-10-17T11:01:10Z</time>
      </trkpt>
      <trkpt lat="46.20635" lon="4.54788">
        <ele>615</ele>
        <time>2020-10-17T11:01:11Z</time>
      </trkpt>
      <trkpt lat="46.20634" lon="4.54785">
        <ele>614.4</ele>
        <time>2020-10-17T11:01:12Z</time>
      </trkpt>
      <trkpt lat="46.20634" lon="4.54782">
        <ele>614.4</ele>
        <time>2020-10-17T11:01:13Z</time>
      </trkpt>
      <trkpt lat="46.20634" lon="4.5478">
        <ele>614.4</ele>
        <time>2020-10-17T11:01:14Z</time>
      </trkpt>
      <trkpt lat="46.20634" lon="4.5478">
        <ele>614.2</ele>
        <time>2020-10-17T11:01:15Z</time>
      </trkpt>
      <trkpt lat="46.20632" lon="4.54775">
        <ele>614</ele>
        <time>2020-10-17T11:01:16Z</time>
      </trkpt>
      <trkpt lat="46.20632" lon="4.54775">
        <ele>613.6</ele>
        <time>2020-10-17T11:01:17Z</time>
      </trkpt>
      <trkpt lat="46.20631" lon="4.54772">
        <ele>613.4</ele>
        <time>2020-10-17T11:01:18Z</time>
      </trkpt>
      <trkpt lat="46.20631" lon="4.54772">
        <ele>613.2</ele>
        <time>2020-10-17T11:01:19Z</time>
      </trkpt>
      <trkpt lat="46.20629" lon="4.54768">
        <ele>613</ele>
        <time>2020-10-17T11:01:20Z</time>
      </trkpt>
      <trkpt lat="46.20629" lon="4.54768">
        <ele>612.8</ele>
        <time>2020-10-17T11:01:21Z</time>
      </trkpt>
      <trkpt lat="46.20628" lon="4.54764">
        <ele>612.6</ele>
        <time>2020-10-17T11:01:22Z</time>
      </trkpt>
      <trkpt lat="46.20628" lon="4.54764">
        <ele>612.4</ele>
        <time>2020-10-17T11:01:23Z</time>
      </trkpt>
      <trkpt lat="46.20628" lon="4.5476">
        <ele>612.4</ele>
        <time>2020-10-17T11:01:24Z</time>
      </trkpt>
      <trkpt lat="46.20628" lon="4.5476">
        <ele>612</ele>
        <time>2020-10-17T11:01:25Z</time>
      </trkpt>
      <trkpt lat="46.20627" lon="4.54756">
        <ele>612.2</ele>
        <time>2020-10-17T11:01:26Z</time>
      </trkpt>
      <trkpt lat="46.20627" lon="4.54756">
        <ele>612</ele>
        <time>2020-10-17T11:01:27Z</time>
      </trkpt>
      <trkpt lat="46.20626" lon="4.54753">
        <ele>612</ele>
        <time>2020-10-17T11:01:28Z</time>
      </trkpt>
      <trkpt lat="46.20626" lon="4.54753">
        <ele>612.2</ele>
        <time>2020-10-17T11:01:29Z</time>
      </trkpt>
      <trkpt lat="46.20626" lon="4.54753">
        <ele>612.6</ele>
        <time>2020-10-17T11:01:30Z</time>
      </trkpt>
      <trkpt lat="46.20626" lon="4.54753">
        <ele>612.8</ele>
        <time>2020-10-17T11:01:31Z</time>
      </trkpt>
      <trkpt lat="46.20626" lon="4.54753">
        <ele>613</ele>
        <time>2020-10-17T11:01:32Z</time>
      </trkpt>
      <trkpt lat="46.20626" lon="4.54753">
        <ele>613</ele>
        <time>2020-10-17T11:01:33Z</time>
      </trkpt>
      <trkpt lat="46.20626" lon="4.54753">
        <ele>613.2</ele>
        <time>2020-10-17T11:01:34Z</time>
      </trkpt>
      <trkpt lat="46.20624" lon="4.54751">
        <ele>613.4</ele>
        <time>2020-10-17T11:01:35Z</time>
      </trkpt>
      <trkpt lat="46.20624" lon="4.54751">
        <ele>613.6</ele>
        <time>2020-10-17T11:01:36Z</time>
      </trkpt>
      <trkpt lat="46.20624" lon="4.54751">
        <ele>613.6</ele>
        <time>2020-10-17T11:01:37Z</time>
      </trkpt>
      <trkpt lat="46.20624" lon="4.54751">
        <ele>613.8</ele>
        <time>2020-10-17T11:01:38Z</time>
      </trkpt>
      <trkpt lat="46.20624" lon="4.54751">
        <ele>613.8</ele>
        <time>2020-10-17T11:01:39Z</time>
      </trkpt>
      <trkpt lat="46.20624" lon="4.54751">
        <ele>613.8</ele>
        <time>2020-10-17T11:01:40Z</time>
      </trkpt>
      <trkpt lat="46.20624" lon="4.54751">
        <ele>614</ele>
        <time>2020-10-17T11:01:41Z</time>
      </trkpt>
      <trkpt lat="46.20624" lon="4.54747">
        <ele>614</ele>
        <time>2020-10-17T11:01:42Z</time>
      </trkpt>
      <trkpt lat="46.20624" lon="4.54747">
        <ele>614</ele>
        <time>2020-10-17T11:01:43Z</time>
      </trkpt>
      <trkpt lat="46.20624" lon="4.54743">
        <ele>613.8</ele>
        <time>2020-10-17T11:01:44Z</time>
      </trkpt>
      <trkpt lat="46.20624" lon="4.54743">
        <ele>613.4</ele>
        <time>2020-10-17T11:01:45Z</time>
      </trkpt>
      <trkpt lat="46.20624" lon="4.54738">
        <ele>613</ele>
        <time>2020-10-17T11:01:46Z</time>
      </trkpt>
      <trkpt lat="46.20624" lon="4.54738">
        <ele>612.8</ele>
        <time>2020-10-17T11:01:47Z</time>
      </trkpt>
      <trkpt lat="46.20625" lon="4.54735">
        <ele>612.6</ele>
        <time>2020-10-17T11:01:48Z</time>
      </trkpt>
      <trkpt lat="46.20625" lon="4.54735">
        <ele>612.6</ele>
        <time>2020-10-17T11:01:49Z</time>
      </trkpt>
      <trkpt lat="46.20626" lon="4.54731">
        <ele>612.6</ele>
        <time>2020-10-17T11:01:50Z</time>
      </trkpt>
      <trkpt lat="46.20626" lon="4.54731">
        <ele>612.6</ele>
        <time>2020-10-17T11:01:51Z</time>
      </trkpt>
      <trkpt lat="46.20628" lon="4.5473">
        <ele>612.6</ele>
        <time>2020-10-17T11:01:52Z</time>
      </trkpt>
      <trkpt lat="46.20628" lon="4.5473">
        <ele>612.8</ele>
        <time>2020-10-17T11:01:53Z</time>
      </trkpt>
      <trkpt lat="46.2063" lon="4.54731">
        <ele>613</ele>
        <time>2020-10-17T11:01:54Z</time>
      </trkpt>
      <trkpt lat="46.2063" lon="4.54731">
        <ele>613.4</ele>
        <time>2020-10-17T11:01:55Z</time>
      </trkpt>
      <trkpt lat="46.2063" lon="4.54731">
        <ele>613.8</ele>
        <time>2020-10-17T11:01:56Z</time>
      </trkpt>
      <trkpt lat="46.2063" lon="4.54731">
        <ele>613.8</ele>
        <time>2020-10-17T11:01:57Z</time>
      </trkpt>
      <trkpt lat="46.2063" lon="4.54731">
        <ele>613.8</ele>
        <time>2020-10-17T11:01:58Z</time>
      </trkpt>
      <trkpt lat="46.2063" lon="4.54731">
        <ele>613.8</ele>
        <time>2020-10-17T11:01:59Z</time>
      </trkpt>
      <trkpt lat="46.2063" lon="4.54731">
        <ele>613.8</ele>
        <time>2020-10-17T11:02:00Z</time>
      </trkpt>
      <trkpt lat="46.2063" lon="4.54731">
        <ele>613.8</ele>
        <time>2020-10-17T11:02:01Z</time>
      </trkpt>
      <trkpt lat="46.20628" lon="4.54727">
        <ele>614</ele>
        <time>2020-10-17T11:02:02Z</time>
      </trkpt>
      <trkpt lat="46.20628" lon="4.54727">
        <ele>614</ele>
        <time>2020-10-17T11:02:03Z</time>
      </trkpt>
      <trkpt lat="46.20626" lon="4.54724">
        <ele>613.8</ele>
        <time>2020-10-17T11:02:04Z</time>
      </trkpt>
      <trkpt lat="46.20626" lon="4.54724">
        <ele>613.8</ele>
        <time>2020-10-17T11:02:05Z</time>
      </trkpt>
      <trkpt lat="46.20624" lon="4.54721">
        <ele>613.4</ele>
        <time>2020-10-17T11:02:06Z</time>
      </trkpt>
      <trkpt lat="46.20624" lon="4.54721">
        <ele>613.4</ele>
        <time>2020-10-17T11:02:07Z</time>
      </trkpt>
      <trkpt lat="46.20623" lon="4.54717">
        <ele>613.6</ele>
        <time>2020-10-17T11:02:08Z</time>
      </trkpt>
      <trkpt lat="46.20623" lon="4.54717">
        <ele>613.4</ele>
        <time>2020-10-17T11:02:09Z</time>
      </trkpt>
      <trkpt lat="46.20622" lon="4.54713">
        <ele>613.6</ele>
        <time>2020-10-17T11:02:10Z</time>
      </trkpt>
      <trkpt lat="46.20622" lon="4.54713">
        <ele>613.6</ele>
        <time>2020-10-17T11:02:11Z</time>
      </trkpt>
      <trkpt lat="46.20622" lon="4.54708">
        <ele>613.6</ele>
        <time>2020-10-17T11:02:12Z</time>
      </trkpt>
      <trkpt lat="46.20622" lon="4.54708">
        <ele>613.6</ele>
        <time>2020-10-17T11:02:13Z</time>
      </trkpt>
      <trkpt lat="46.20622" lon="4.54703">
        <ele>613.8</ele>
        <time>2020-10-17T11:02:14Z</time>
      </trkpt>
      <trkpt lat="46.20622" lon="4.54703">
        <ele>613.8</ele>
        <time>2020-10-17T11:02:15Z</time>
      </trkpt>
      <trkpt lat="46.20622" lon="4.54699">
        <ele>613.8</ele>
        <time>2020-10-17T11:02:16Z</time>
      </trkpt>
      <trkpt lat="46.20622" lon="4.54699">
        <ele>613.6</ele>
        <time>2020-10-17T11:02:17Z</time>
      </trkpt>
      <trkpt lat="46.20623" lon="4.54694">
        <ele>613.8</ele>
        <time>2020-10-17T11:02:18Z</time>
      </trkpt>
      <trkpt lat="46.20623" lon="4.54694">
        <ele>613.6</ele>
        <time>2020-10-17T11:02:19Z</time>
      </trkpt>
      <trkpt lat="46.20623" lon="4.5469">
        <ele>613.8</ele>
        <time>2020-10-17T11:02:20Z</time>
      </trkpt>
      <trkpt lat="46.20623" lon="4.5469">
        <ele>613.6</ele>
        <time>2020-10-17T11:02:21Z</time>
      </trkpt>
      <trkpt lat="46.20622" lon="4.54686">
        <ele>613.6</ele>
        <time>2020-10-17T11:02:22Z</time>
      </trkpt>
      <trkpt lat="46.20622" lon="4.54686">
        <ele>613.8</ele>
        <time>2020-10-17T11:02:23Z</time>
      </trkpt>
      <trkpt lat="46.20623" lon="4.54682">
        <ele>613.4</ele>
        <time>2020-10-17T11:02:24Z</time>
      </trkpt>
      <trkpt lat="46.20623" lon="4.54682">
        <ele>613.2</ele>
        <time>2020-10-17T11:02:25Z</time>
      </trkpt>
      <trkpt lat="46.20623" lon="4.54677">
        <ele>613</ele>
        <time>2020-10-17T11:02:26Z</time>
      </trkpt>
      <trkpt lat="46.20623" lon="4.54677">
        <ele>613.2</ele>
        <time>2020-10-17T11:02:27Z</time>
      </trkpt>
      <trkpt lat="46.20624" lon="4.54673">
        <ele>613.2</ele>
        <time>2020-10-17T11:02:28Z</time>
      </trkpt>
      <trkpt lat="46.20624" lon="4.54673">
        <ele>613.2</ele>
        <time>2020-10-17T11:02:29Z</time>
      </trkpt>
      <trkpt lat="46.20624" lon="4.54669">
        <ele>613.2</ele>
        <time>2020-10-17T11:02:30Z</time>
      </trkpt>
      <trkpt lat="46.20624" lon="4.54669">
        <ele>613</ele>
        <time>2020-10-17T11:02:31Z</time>
      </trkpt>
      <trkpt lat="46.20624" lon="4.54665">
        <ele>613.2</ele>
        <time>2020-10-17T11:02:32Z</time>
      </trkpt>
      <trkpt lat="46.20624" lon="4.54665">
        <ele>613</ele>
        <time>2020-10-17T11:02:33Z</time>
      </trkpt>
      <trkpt lat="46.20623" lon="4.54663">
        <ele>613.2</ele>
        <time>2020-10-17T11:02:34Z</time>
      </trkpt>
      <trkpt lat="46.20623" lon="4.54663">
        <ele>613.2</ele>
        <time>2020-10-17T11:02:35Z</time>
      </trkpt>
      <trkpt lat="46.20623" lon="4.54663">
        <ele>613.2</ele>
        <time>2020-10-17T11:02:36Z</time>
      </trkpt>
      <trkpt lat="46.20623" lon="4.54663">
        <ele>613.2</ele>
        <time>2020-10-17T11:02:37Z</time>
      </trkpt>
      <trkpt lat="46.20623" lon="4.54663">
        <ele>613</ele>
        <time>2020-10-17T11:02:38Z</time>
      </trkpt>
      <trkpt lat="46.20623" lon="4.54663">
        <ele>612.8</ele>
        <time>2020-10-17T11:02:39Z</time>
      </trkpt>
      <trkpt lat="46.20623" lon="4.54663">
        <ele>612.6</ele>
        <time>2020-10-17T11:02:40Z</time>
      </trkpt>
      <trkpt lat="46.20623" lon="4.54663">
        <ele>612.8</ele>
        <time>2020-10-17T11:02:41Z</time>
      </trkpt>
      <trkpt lat="46.20623" lon="4.54663">
        <ele>612.8</ele>
        <time>2020-10-17T11:02:42Z</time>
      </trkpt>
      <trkpt lat="46.20623" lon="4.54663">
        <ele>612.8</ele>
        <time>2020-10-17T11:02:43Z</time>
      </trkpt>
      <trkpt lat="46.20623" lon="4.54663">
        <ele>612.6</ele>
        <time>2020-10-17T11:02:44Z</time>
      </trkpt>
      <trkpt lat="46.20623" lon="4.54663">
        <ele>612.4</ele>
        <time>2020-10-17T11:02:45Z</time>
      </trkpt>
      <trkpt lat="46.20623" lon="4.54663">
        <ele>612.4</ele>
        <time>2020-10-17T11:02:46Z</time>
      </trkpt>
      <trkpt lat="46.20625" lon="4.54663">
        <ele>612.8</ele>
        <time>2020-10-17T11:02:47Z</time>
      </trkpt>
      <trkpt lat="46.20625" lon="4.54663">
        <ele>612.8</ele>
        <time>2020-10-17T11:02:48Z</time>
      </trkpt>
      <trkpt lat="46.20625" lon="4.54663">
        <ele>612.8</ele>
        <time>2020-10-17T11:02:49Z</time>
      </trkpt>
      <trkpt lat="46.20627" lon="4.54663">
        <ele>612.8</ele>
        <time>2020-10-17T11:02:50Z</time>
      </trkpt>
      <trkpt lat="46.20627" lon="4.54663">
        <ele>612.8</ele>
        <time>2020-10-17T11:02:51Z</time>
      </trkpt>
      <trkpt lat="46.20629" lon="4.5466">
        <ele>613</ele>
        <time>2020-10-17T11:02:52Z</time>
      </trkpt>
      <trkpt lat="46.20629" lon="4.5466">
        <ele>613.4</ele>
        <time>2020-10-17T11:02:53Z</time>
      </trkpt>
      <trkpt lat="46.2063" lon="4.54657">
        <ele>613.4</ele>
        <time>2020-10-17T11:02:54Z</time>
      </trkpt>
      <trkpt lat="46.2063" lon="4.54657">
        <ele>613.6</ele>
        <time>2020-10-17T11:02:55Z</time>
      </trkpt>
      <trkpt lat="46.20632" lon="4.54653">
        <ele>614</ele>
        <time>2020-10-17T11:02:56Z</time>
      </trkpt>
      <trkpt lat="46.20632" lon="4.54653">
        <ele>614</ele>
        <time>2020-10-17T11:02:57Z</time>
      </trkpt>
      <trkpt lat="46.20633" lon="4.5465">
        <ele>614.2</ele>
        <time>2020-10-17T11:02:58Z</time>
      </trkpt>
      <trkpt lat="46.20633" lon="4.5465">
        <ele>614.2</ele>
        <time>2020-10-17T11:02:59Z</time>
      </trkpt>
      <trkpt lat="46.20635" lon="4.54647">
        <ele>614.2</ele>
        <time>2020-10-17T11:03:00Z</time>
      </trkpt>
      <trkpt lat="46.20635" lon="4.54647">
        <ele>614.2</ele>
        <time>2020-10-17T11:03:01Z</time>
      </trkpt>
      <trkpt lat="46.20637" lon="4.54645">
        <ele>614.4</ele>
        <time>2020-10-17T11:03:02Z</time>
      </trkpt>
      <trkpt lat="46.20637" lon="4.54645">
        <ele>614.6</ele>
        <time>2020-10-17T11:03:03Z</time>
      </trkpt>
      <trkpt lat="46.20639" lon="4.54642">
        <ele>614.8</ele>
        <time>2020-10-17T11:03:04Z</time>
      </trkpt>
      <trkpt lat="46.20639" lon="4.54642">
        <ele>615.2</ele>
        <time>2020-10-17T11:03:05Z</time>
      </trkpt>
      <trkpt lat="46.20641" lon="4.54641">
        <ele>615.4</ele>
        <time>2020-10-17T11:03:06Z</time>
      </trkpt>
      <trkpt lat="46.20641" lon="4.54641">
        <ele>615.6</ele>
        <time>2020-10-17T11:03:07Z</time>
      </trkpt>
      <trkpt lat="46.20644" lon="4.54639">
        <ele>615.6</ele>
        <time>2020-10-17T11:03:08Z</time>
      </trkpt>
      <trkpt lat="46.20644" lon="4.54639">
        <ele>616</ele>
        <time>2020-10-17T11:03:09Z</time>
      </trkpt>
      <trkpt lat="46.20646" lon="4.54637">
        <ele>616</ele>
        <time>2020-10-17T11:03:10Z</time>
      </trkpt>
      <trkpt lat="46.20646" lon="4.54637">
        <ele>616</ele>
        <time>2020-10-17T11:03:11Z</time>
      </trkpt>
      <trkpt lat="46.20648" lon="4.54636">
        <ele>616.4</ele>
        <time>2020-10-17T11:03:12Z</time>
      </trkpt>
      <trkpt lat="46.20648" lon="4.54636">
        <ele>616.6</ele>
        <time>2020-10-17T11:03:13Z</time>
      </trkpt>
      <trkpt lat="46.20651" lon="4.54634">
        <ele>616.8</ele>
        <time>2020-10-17T11:03:14Z</time>
      </trkpt>
      <trkpt lat="46.20651" lon="4.54634">
        <ele>617</ele>
        <time>2020-10-17T11:03:15Z</time>
      </trkpt>
      <trkpt lat="46.20653" lon="4.54632">
        <ele>617.2</ele>
        <time>2020-10-17T11:03:16Z</time>
      </trkpt>
      <trkpt lat="46.20653" lon="4.54632">
        <ele>617.4</ele>
        <time>2020-10-17T11:03:17Z</time>
      </trkpt>
      <trkpt lat="46.20656" lon="4.54632">
        <ele>617.4</ele>
        <time>2020-10-17T11:03:18Z</time>
      </trkpt>
      <trkpt lat="46.20656" lon="4.54632">
        <ele>617.6</ele>
        <time>2020-10-17T11:03:19Z</time>
      </trkpt>
      <trkpt lat="46.20659" lon="4.54632">
        <ele>618.2</ele>
        <time>2020-10-17T11:03:20Z</time>
      </trkpt>
      <trkpt lat="46.20659" lon="4.54632">
        <ele>618</ele>
        <time>2020-10-17T11:03:21Z</time>
      </trkpt>
      <trkpt lat="46.20661" lon="4.54631">
        <ele>618.2</ele>
        <time>2020-10-17T11:03:22Z</time>
      </trkpt>
      <trkpt lat="46.20661" lon="4.54631">
        <ele>618.4</ele>
        <time>2020-10-17T11:03:23Z</time>
      </trkpt>
      <trkpt lat="46.20664" lon="4.54632">
        <ele>618.4</ele>
        <time>2020-10-17T11:03:24Z</time>
      </trkpt>
      <trkpt lat="46.20664" lon="4.54632">
        <ele>619</ele>
        <time>2020-10-17T11:03:25Z</time>
      </trkpt>
      <trkpt lat="46.20666" lon="4.54631">
        <ele>619.2</ele>
        <time>2020-10-17T11:03:26Z</time>
      </trkpt>
      <trkpt lat="46.20666" lon="4.54631">
        <ele>619.2</ele>
        <time>2020-10-17T11:03:27Z</time>
      </trkpt>
      <trkpt lat="46.20669" lon="4.54632">
        <ele>619.6</ele>
        <time>2020-10-17T11:03:28Z</time>
      </trkpt>
      <trkpt lat="46.20669" lon="4.54632">
        <ele>619.8</ele>
        <time>2020-10-17T11:03:29Z</time>
      </trkpt>
      <trkpt lat="46.20671" lon="4.54632">
        <ele>620</ele>
        <time>2020-10-17T11:03:30Z</time>
      </trkpt>
      <trkpt lat="46.20671" lon="4.54632">
        <ele>620.2</ele>
        <time>2020-10-17T11:03:31Z</time>
      </trkpt>
      <trkpt lat="46.20674" lon="4.54632">
        <ele>620.4</ele>
        <time>2020-10-17T11:03:32Z</time>
      </trkpt>
      <trkpt lat="46.20674" lon="4.54632">
        <ele>621</ele>
        <time>2020-10-17T11:03:33Z</time>
      </trkpt>
      <trkpt lat="46.20677" lon="4.54632">
        <ele>621.2</ele>
        <time>2020-10-17T11:03:34Z</time>
      </trkpt>
      <trkpt lat="46.20677" lon="4.54632">
        <ele>621.2</ele>
        <time>2020-10-17T11:03:35Z</time>
      </trkpt>
      <trkpt lat="46.20679" lon="4.54632">
        <ele>621.6</ele>
        <time>2020-10-17T11:03:36Z</time>
      </trkpt>
      <trkpt lat="46.20679" lon="4.54632">
        <ele>621.8</ele>
        <time>2020-10-17T11:03:37Z</time>
      </trkpt>
      <trkpt lat="46.20682" lon="4.54632">
        <ele>622</ele>
        <time>2020-10-17T11:03:38Z</time>
      </trkpt>
      <trkpt lat="46.20682" lon="4.54632">
        <ele>622.4</ele>
        <time>2020-10-17T11:03:39Z</time>
      </trkpt>
      <trkpt lat="46.20685" lon="4.54632">
        <ele>622.4</ele>
        <time>2020-10-17T11:03:40Z</time>
      </trkpt>
      <trkpt lat="46.20685" lon="4.54632">
        <ele>622.4</ele>
        <time>2020-10-17T11:03:41Z</time>
      </trkpt>
      <trkpt lat="46.20687" lon="4.54632">
        <ele>622.8</ele>
        <time>2020-10-17T11:03:42Z</time>
      </trkpt>
      <trkpt lat="46.20687" lon="4.54632">
        <ele>623</ele>
        <time>2020-10-17T11:03:43Z</time>
      </trkpt>
      <trkpt lat="46.2069" lon="4.54632">
        <ele>623.2</ele>
        <time>2020-10-17T11:03:44Z</time>
      </trkpt>
      <trkpt lat="46.2069" lon="4.54632">
        <ele>623.6</ele>
        <time>2020-10-17T11:03:45Z</time>
      </trkpt>
      <trkpt lat="46.20692" lon="4.54632">
        <ele>623.8</ele>
        <time>2020-10-17T11:03:46Z</time>
      </trkpt>
      <trkpt lat="46.20692" lon="4.54632">
        <ele>623.8</ele>
        <time>2020-10-17T11:03:47Z</time>
      </trkpt>
      <trkpt lat="46.20694" lon="4.54631">
        <ele>624.2</ele>
        <time>2020-10-17T11:03:48Z</time>
      </trkpt>
      <trkpt lat="46.20694" lon="4.54631">
        <ele>624.4</ele>
        <time>2020-10-17T11:03:49Z</time>
      </trkpt>
      <trkpt lat="46.20697" lon="4.54632">
        <ele>625</ele>
        <time>2020-10-17T11:03:50Z</time>
      </trkpt>
      <trkpt lat="46.20697" lon="4.54632">
        <ele>625.2</ele>
        <time>2020-10-17T11:03:51Z</time>
      </trkpt>
      <trkpt lat="46.20699" lon="4.54632">
        <ele>625.4</ele>
        <time>2020-10-17T11:03:52Z</time>
      </trkpt>
      <trkpt lat="46.20699" lon="4.54632">
        <ele>625.8</ele>
        <time>2020-10-17T11:03:53Z</time>
      </trkpt>
      <trkpt lat="46.20702" lon="4.54631">
        <ele>625.6</ele>
        <time>2020-10-17T11:03:54Z</time>
      </trkpt>
      <trkpt lat="46.20702" lon="4.54631">
        <ele>626.2</ele>
        <time>2020-10-17T11:03:55Z</time>
      </trkpt>
      <trkpt lat="46.20704" lon="4.54631">
        <ele>626.4</ele>
        <time>2020-10-17T11:03:56Z</time>
      </trkpt>
      <trkpt lat="46.20704" lon="4.54631">
        <ele>626.4</ele>
        <time>2020-10-17T11:03:57Z</time>
      </trkpt>
      <trkpt lat="46.20706" lon="4.5463">
        <ele>626.8</ele>
        <time>2020-10-17T11:03:58Z</time>
      </trkpt>
      <trkpt lat="46.20706" lon="4.5463">
        <ele>627.2</ele>
        <time>2020-10-17T11:03:59Z</time>
      </trkpt>
      <trkpt lat="46.20709" lon="4.5463">
        <ele>627.6</ele>
        <time>2020-10-17T11:04:00Z</time>
      </trkpt>
      <trkpt lat="46.20709" lon="4.5463">
        <ele>627.6</ele>
        <time>2020-10-17T11:04:01Z</time>
      </trkpt>
      <trkpt lat="46.20711" lon="4.5463">
        <ele>628</ele>
        <time>2020-10-17T11:04:02Z</time>
      </trkpt>
      <trkpt lat="46.20711" lon="4.5463">
        <ele>628</ele>
        <time>2020-10-17T11:04:03Z</time>
      </trkpt>
      <trkpt lat="46.20713" lon="4.5463">
        <ele>628.2</ele>
        <time>2020-10-17T11:04:04Z</time>
      </trkpt>
      <trkpt lat="46.20713" lon="4.5463">
        <ele>628.6</ele>
        <time>2020-10-17T11:04:05Z</time>
      </trkpt>
      <trkpt lat="46.20716" lon="4.5463">
        <ele>629</ele>
        <time>2020-10-17T11:04:06Z</time>
      </trkpt>
      <trkpt lat="46.20716" lon="4.5463">
        <ele>629.4</ele>
        <time>2020-10-17T11:04:07Z</time>
      </trkpt>
      <trkpt lat="46.20718" lon="4.5463">
        <ele>629.6</ele>
        <time>2020-10-17T11:04:08Z</time>
      </trkpt>
      <trkpt lat="46.20718" lon="4.5463">
        <ele>629.8</ele>
        <time>2020-10-17T11:04:09Z</time>
      </trkpt>
      <trkpt lat="46.20721" lon="4.54629">
        <ele>630.2</ele>
        <time>2020-10-17T11:04:10Z</time>
      </trkpt>
      <trkpt lat="46.20721" lon="4.54629">
        <ele>630.4</ele>
        <time>2020-10-17T11:04:11Z</time>
      </trkpt>
      <trkpt lat="46.20723" lon="4.54628">
        <ele>630.8</ele>
        <time>2020-10-17T11:04:12Z</time>
      </trkpt>
      <trkpt lat="46.20723" lon="4.54628">
        <ele>630.8</ele>
        <time>2020-10-17T11:04:13Z</time>
      </trkpt>
      <trkpt lat="46.20725" lon="4.54628">
        <ele>631.2</ele>
        <time>2020-10-17T11:04:14Z</time>
      </trkpt>
      <trkpt lat="46.20725" lon="4.54628">
        <ele>631.4</ele>
        <time>2020-10-17T11:04:15Z</time>
      </trkpt>
      <trkpt lat="46.20728" lon="4.54627">
        <ele>631.2</ele>
        <time>2020-10-17T11:04:16Z</time>
      </trkpt>
      <trkpt lat="46.20728" lon="4.54627">
        <ele>631.8</ele>
        <time>2020-10-17T11:04:17Z</time>
      </trkpt>
      <trkpt lat="46.20729" lon="4.54626">
        <ele>632</ele>
        <time>2020-10-17T11:04:18Z</time>
      </trkpt>
      <trkpt lat="46.20729" lon="4.54626">
        <ele>632.2</ele>
        <time>2020-10-17T11:04:19Z</time>
      </trkpt>
      <trkpt lat="46.20732" lon="4.54624">
        <ele>632.6</ele>
        <time>2020-10-17T11:04:20Z</time>
      </trkpt>
      <trkpt lat="46.20732" lon="4.54624">
        <ele>632.4</ele>
        <time>2020-10-17T11:04:21Z</time>
      </trkpt>
      <trkpt lat="46.20733" lon="4.54623">
        <ele>633</ele>
        <time>2020-10-17T11:04:22Z</time>
      </trkpt>
      <trkpt lat="46.20733" lon="4.54623">
        <ele>633.4</ele>
        <time>2020-10-17T11:04:23Z</time>
      </trkpt>
      <trkpt lat="46.20733" lon="4.54623">
        <ele>633.4</ele>
        <time>2020-10-17T11:04:24Z</time>
      </trkpt>
      <trkpt lat="46.20736" lon="4.54621">
        <ele>634</ele>
        <time>2020-10-17T11:04:25Z</time>
      </trkpt>
      <trkpt lat="46.20736" lon="4.54621">
        <ele>634.4</ele>
        <time>2020-10-17T11:04:26Z</time>
      </trkpt>
      <trkpt lat="46.20736" lon="4.54621">
        <ele>634.8</ele>
        <time>2020-10-17T11:04:27Z</time>
      </trkpt>
      <trkpt lat="46.20738" lon="4.54619">
        <ele>635</ele>
        <time>2020-10-17T11:04:28Z</time>
      </trkpt>
      <trkpt lat="46.20738" lon="4.54619">
        <ele>635.4</ele>
        <time>2020-10-17T11:04:29Z</time>
      </trkpt>
      <trkpt lat="46.2074" lon="4.54617">
        <ele>635.6</ele>
        <time>2020-10-17T11:04:30Z</time>
      </trkpt>
      <trkpt lat="46.2074" lon="4.54617">
        <ele>635.6</ele>
        <time>2020-10-17T11:04:31Z</time>
      </trkpt>
      <trkpt lat="46.20743" lon="4.54615">
        <ele>635.8</ele>
        <time>2020-10-17T11:04:32Z</time>
      </trkpt>
      <trkpt lat="46.20743" lon="4.54615">
        <ele>636</ele>
        <time>2020-10-17T11:04:33Z</time>
      </trkpt>
      <trkpt lat="46.20745" lon="4.54613">
        <ele>636</ele>
        <time>2020-10-17T11:04:34Z</time>
      </trkpt>
      <trkpt lat="46.20745" lon="4.54613">
        <ele>636.2</ele>
        <time>2020-10-17T11:04:35Z</time>
      </trkpt>
      <trkpt lat="46.20747" lon="4.5461">
        <ele>636.2</ele>
        <time>2020-10-17T11:04:36Z</time>
      </trkpt>
      <trkpt lat="46.20747" lon="4.5461">
        <ele>636.2</ele>
        <time>2020-10-17T11:04:37Z</time>
      </trkpt>
      <trkpt lat="46.20747" lon="4.54606">
        <ele>636.4</ele>
        <time>2020-10-17T11:04:38Z</time>
      </trkpt>
      <trkpt lat="46.20747" lon="4.54606">
        <ele>636.6</ele>
        <time>2020-10-17T11:04:39Z</time>
      </trkpt>
      <trkpt lat="46.20747" lon="4.54603">
        <ele>636.8</ele>
        <time>2020-10-17T11:04:40Z</time>
      </trkpt>
      <trkpt lat="46.20747" lon="4.54603">
        <ele>636.8</ele>
        <time>2020-10-17T11:04:41Z</time>
      </trkpt>
      <trkpt lat="46.20747" lon="4.54599">
        <ele>636.6</ele>
        <time>2020-10-17T11:04:42Z</time>
      </trkpt>
      <trkpt lat="46.20747" lon="4.54599">
        <ele>636.4</ele>
        <time>2020-10-17T11:04:43Z</time>
      </trkpt>
      <trkpt lat="46.20746" lon="4.54594">
        <ele>636.2</ele>
        <time>2020-10-17T11:04:44Z</time>
      </trkpt>
      <trkpt lat="46.20746" lon="4.54594">
        <ele>636.2</ele>
        <time>2020-10-17T11:04:45Z</time>
      </trkpt>
      <trkpt lat="46.20746" lon="4.54589">
        <ele>636.2</ele>
        <time>2020-10-17T11:04:46Z</time>
      </trkpt>
      <trkpt lat="46.20746" lon="4.54589">
        <ele>636.2</ele>
        <time>2020-10-17T11:04:47Z</time>
      </trkpt>
      <trkpt lat="46.20746" lon="4.54585">
        <ele>636</ele>
        <time>2020-10-17T11:04:48Z</time>
      </trkpt>
      <trkpt lat="46.20746" lon="4.54585">
        <ele>636</ele>
        <time>2020-10-17T11:04:49Z</time>
      </trkpt>
      <trkpt lat="46.20746" lon="4.54581">
        <ele>636</ele>
        <time>2020-10-17T11:04:50Z</time>
      </trkpt>
      <trkpt lat="46.20746" lon="4.54581">
        <ele>635.8</ele>
        <time>2020-10-17T11:04:51Z</time>
      </trkpt>
      <trkpt lat="46.20747" lon="4.54576">
        <ele>635.6</ele>
        <time>2020-10-17T11:04:52Z</time>
      </trkpt>
      <trkpt lat="46.20748" lon="4.54573">
        <ele>635.8</ele>
        <time>2020-10-17T11:04:53Z</time>
      </trkpt>
      <trkpt lat="46.20748" lon="4.5457">
        <ele>635.6</ele>
        <time>2020-10-17T11:04:54Z</time>
      </trkpt>
      <trkpt lat="46.20748" lon="4.54567">
        <ele>635.4</ele>
        <time>2020-10-17T11:04:55Z</time>
      </trkpt>
      <trkpt lat="46.20749" lon="4.54564">
        <ele>635.4</ele>
        <time>2020-10-17T11:04:56Z</time>
      </trkpt>
      <trkpt lat="46.2075" lon="4.54561">
        <ele>635.6</ele>
        <time>2020-10-17T11:04:57Z</time>
      </trkpt>
      <trkpt lat="46.2075" lon="4.54558">
        <ele>635.4</ele>
        <time>2020-10-17T11:04:58Z</time>
      </trkpt>
      <trkpt lat="46.2075" lon="4.54554">
        <ele>635.4</ele>
        <time>2020-10-17T11:04:59Z</time>
      </trkpt>
      <trkpt lat="46.20751" lon="4.54551">
        <ele>635.6</ele>
        <time>2020-10-17T11:05:00Z</time>
      </trkpt>
      <trkpt lat="46.20752" lon="4.54548">
        <ele>635.4</ele>
        <time>2020-10-17T11:05:01Z</time>
      </trkpt>
      <trkpt lat="46.20752" lon="4.54544">
        <ele>635.4</ele>
        <time>2020-10-17T11:05:02Z</time>
      </trkpt>
      <trkpt lat="46.20752" lon="4.54541">
        <ele>635.2</ele>
        <time>2020-10-17T11:05:03Z</time>
      </trkpt>
      <trkpt lat="46.20753" lon="4.54537">
        <ele>635.2</ele>
        <time>2020-10-17T11:05:04Z</time>
      </trkpt>
      <trkpt lat="46.20754" lon="4.54534">
        <ele>635.2</ele>
        <time>2020-10-17T11:05:05Z</time>
      </trkpt>
      <trkpt lat="46.20754" lon="4.54531">
        <ele>635</ele>
        <time>2020-10-17T11:05:06Z</time>
      </trkpt>
      <trkpt lat="46.20755" lon="4.54527">
        <ele>635</ele>
        <time>2020-10-17T11:05:07Z</time>
      </trkpt>
      <trkpt lat="46.20755" lon="4.54524">
        <ele>634.8</ele>
        <time>2020-10-17T11:05:08Z</time>
      </trkpt>
      <trkpt lat="46.20756" lon="4.54521">
        <ele>634.6</ele>
        <time>2020-10-17T11:05:09Z</time>
      </trkpt>
      <trkpt lat="46.20756" lon="4.54517">
        <ele>634.6</ele>
        <time>2020-10-17T11:05:10Z</time>
      </trkpt>
      <trkpt lat="46.20756" lon="4.54514">
        <ele>634.4</ele>
        <time>2020-10-17T11:05:11Z</time>
      </trkpt>
      <trkpt lat="46.20756" lon="4.5451">
        <ele>634.6</ele>
        <time>2020-10-17T11:05:12Z</time>
      </trkpt>
      <trkpt lat="46.20756" lon="4.54507">
        <ele>634.4</ele>
        <time>2020-10-17T11:05:13Z</time>
      </trkpt>
      <trkpt lat="46.20755" lon="4.54504">
        <ele>634</ele>
        <time>2020-10-17T11:05:14Z</time>
      </trkpt>
      <trkpt lat="46.20755" lon="4.54501">
        <ele>634.2</ele>
        <time>2020-10-17T11:05:15Z</time>
      </trkpt>
      <trkpt lat="46.20755" lon="4.54497">
        <ele>634.2</ele>
        <time>2020-10-17T11:05:16Z</time>
      </trkpt>
      <trkpt lat="46.20755" lon="4.54494">
        <ele>633.8</ele>
        <time>2020-10-17T11:05:17Z</time>
      </trkpt>
      <trkpt lat="46.20755" lon="4.54491">
        <ele>633.8</ele>
        <time>2020-10-17T11:05:18Z</time>
      </trkpt>
      <trkpt lat="46.20754" lon="4.54487">
        <ele>633.4</ele>
        <time>2020-10-17T11:05:19Z</time>
      </trkpt>
      <trkpt lat="46.20754" lon="4.54484">
        <ele>633.8</ele>
        <time>2020-10-17T11:05:20Z</time>
      </trkpt>
      <trkpt lat="46.20753" lon="4.5448">
        <ele>634</ele>
        <time>2020-10-17T11:05:21Z</time>
      </trkpt>
      <trkpt lat="46.20752" lon="4.54477">
        <ele>633.4</ele>
        <time>2020-10-17T11:05:22Z</time>
      </trkpt>
      <trkpt lat="46.20752" lon="4.54473">
        <ele>633</ele>
        <time>2020-10-17T11:05:23Z</time>
      </trkpt>
      <trkpt lat="46.20751" lon="4.54469">
        <ele>633.2</ele>
        <time>2020-10-17T11:05:24Z</time>
      </trkpt>
      <trkpt lat="46.20751" lon="4.54465">
        <ele>632.8</ele>
        <time>2020-10-17T11:05:25Z</time>
      </trkpt>
      <trkpt lat="46.2075" lon="4.54462">
        <ele>632.4</ele>
        <time>2020-10-17T11:05:26Z</time>
      </trkpt>
      <trkpt lat="46.20749" lon="4.54458">
        <ele>632.6</ele>
        <time>2020-10-17T11:05:27Z</time>
      </trkpt>
      <trkpt lat="46.20748" lon="4.54455">
        <ele>632.2</ele>
        <time>2020-10-17T11:05:28Z</time>
      </trkpt>
      <trkpt lat="46.20747" lon="4.54452">
        <ele>632</ele>
        <time>2020-10-17T11:05:29Z</time>
      </trkpt>
      <trkpt lat="46.20746" lon="4.54448">
        <ele>632.2</ele>
        <time>2020-10-17T11:05:30Z</time>
      </trkpt>
      <trkpt lat="46.20745" lon="4.54446">
        <ele>632</ele>
        <time>2020-10-17T11:05:31Z</time>
      </trkpt>
      <trkpt lat="46.20744" lon="4.54442">
        <ele>631.8</ele>
        <time>2020-10-17T11:05:32Z</time>
      </trkpt>
      <trkpt lat="46.20743" lon="4.54439">
        <ele>632</ele>
        <time>2020-10-17T11:05:33Z</time>
      </trkpt>
      <trkpt lat="46.20742" lon="4.54436">
        <ele>632</ele>
        <time>2020-10-17T11:05:34Z</time>
      </trkpt>
      <trkpt lat="46.20741" lon="4.54433">
        <ele>632</ele>
        <time>2020-10-17T11:05:35Z</time>
      </trkpt>
      <trkpt lat="46.20741" lon="4.54433">
        <ele>632</ele>
        <time>2020-10-17T11:05:36Z</time>
      </trkpt>
      <trkpt lat="46.2074" lon="4.54429">
        <ele>631.8</ele>
        <time>2020-10-17T11:05:37Z</time>
      </trkpt>
      <trkpt lat="46.2074" lon="4.54429">
        <ele>631.6</ele>
        <time>2020-10-17T11:05:38Z</time>
      </trkpt>
      <trkpt lat="46.2074" lon="4.54425">
        <ele>631.6</ele>
        <time>2020-10-17T11:05:39Z</time>
      </trkpt>
      <trkpt lat="46.2074" lon="4.54425">
        <ele>631.8</ele>
        <time>2020-10-17T11:05:40Z</time>
      </trkpt>
      <trkpt lat="46.20739" lon="4.54421">
        <ele>631.6</ele>
        <time>2020-10-17T11:05:41Z</time>
      </trkpt>
      <trkpt lat="46.20739" lon="4.54421">
        <ele>631.4</ele>
        <time>2020-10-17T11:05:42Z</time>
      </trkpt>
      <trkpt lat="46.20738" lon="4.54417">
        <ele>631.4</ele>
        <time>2020-10-17T11:05:43Z</time>
      </trkpt>
      <trkpt lat="46.20738" lon="4.54417">
        <ele>631.2</ele>
        <time>2020-10-17T11:05:44Z</time>
      </trkpt>
      <trkpt lat="46.20737" lon="4.54413">
        <ele>630.8</ele>
        <time>2020-10-17T11:05:45Z</time>
      </trkpt>
      <trkpt lat="46.20736" lon="4.5441">
        <ele>631</ele>
        <time>2020-10-17T11:05:46Z</time>
      </trkpt>
      <trkpt lat="46.20736" lon="4.54407">
        <ele>631</ele>
        <time>2020-10-17T11:05:47Z</time>
      </trkpt>
      <trkpt lat="46.20736" lon="4.54404">
        <ele>630.8</ele>
        <time>2020-10-17T11:05:48Z</time>
      </trkpt>
      <trkpt lat="46.20735" lon="4.544">
        <ele>631.2</ele>
        <time>2020-10-17T11:05:49Z</time>
      </trkpt>
      <trkpt lat="46.20735" lon="4.54396">
        <ele>631</ele>
        <time>2020-10-17T11:05:50Z</time>
      </trkpt>
      <trkpt lat="46.20734" lon="4.54393">
        <ele>630.8</ele>
        <time>2020-10-17T11:05:51Z</time>
      </trkpt>
      <trkpt lat="46.20734" lon="4.54389">
        <ele>630.8</ele>
        <time>2020-10-17T11:05:52Z</time>
      </trkpt>
      <trkpt lat="46.20734" lon="4.54385">
        <ele>630.2</ele>
        <time>2020-10-17T11:05:53Z</time>
      </trkpt>
      <trkpt lat="46.20734" lon="4.54381">
        <ele>630</ele>
        <time>2020-10-17T11:05:54Z</time>
      </trkpt>
      <trkpt lat="46.20734" lon="4.54378">
        <ele>629.8</ele>
        <time>2020-10-17T11:05:55Z</time>
      </trkpt>
      <trkpt lat="46.20734" lon="4.54374">
        <ele>629.6</ele>
        <time>2020-10-17T11:05:56Z</time>
      </trkpt>
      <trkpt lat="46.20733" lon="4.5437">
        <ele>629.6</ele>
        <time>2020-10-17T11:05:57Z</time>
      </trkpt>
      <trkpt lat="46.20733" lon="4.54366">
        <ele>629.6</ele>
        <time>2020-10-17T11:05:58Z</time>
      </trkpt>
      <trkpt lat="46.20733" lon="4.54362">
        <ele>629.8</ele>
        <time>2020-10-17T11:05:59Z</time>
      </trkpt>
      <trkpt lat="46.20733" lon="4.54358">
        <ele>629.4</ele>
        <time>2020-10-17T11:06:00Z</time>
      </trkpt>
      <trkpt lat="46.20733" lon="4.54355">
        <ele>629.6</ele>
        <time>2020-10-17T11:06:01Z</time>
      </trkpt>
      <trkpt lat="46.20733" lon="4.54351">
        <ele>629.4</ele>
        <time>2020-10-17T11:06:02Z</time>
      </trkpt>
      <trkpt lat="46.20733" lon="4.54347">
        <ele>629.4</ele>
        <time>2020-10-17T11:06:03Z</time>
      </trkpt>
      <trkpt lat="46.20733" lon="4.54344">
        <ele>629.4</ele>
        <time>2020-10-17T11:06:04Z</time>
      </trkpt>
      <trkpt lat="46.20733" lon="4.54341">
        <ele>629.2</ele>
        <time>2020-10-17T11:06:05Z</time>
      </trkpt>
      <trkpt lat="46.20734" lon="4.54337">
        <ele>629</ele>
        <time>2020-10-17T11:06:06Z</time>
      </trkpt>
      <trkpt lat="46.20734" lon="4.54333">
        <ele>629</ele>
        <time>2020-10-17T11:06:07Z</time>
      </trkpt>
      <trkpt lat="46.20734" lon="4.5433">
        <ele>628.8</ele>
        <time>2020-10-17T11:06:08Z</time>
      </trkpt>
      <trkpt lat="46.20734" lon="4.54326">
        <ele>628.4</ele>
        <time>2020-10-17T11:06:09Z</time>
      </trkpt>
      <trkpt lat="46.20734" lon="4.54322">
        <ele>628.2</ele>
        <time>2020-10-17T11:06:10Z</time>
      </trkpt>
      <trkpt lat="46.20734" lon="4.54319">
        <ele>628.2</ele>
        <time>2020-10-17T11:06:11Z</time>
      </trkpt>
      <trkpt lat="46.20735" lon="4.54315">
        <ele>628.2</ele>
        <time>2020-10-17T11:06:12Z</time>
      </trkpt>
      <trkpt lat="46.20735" lon="4.54312">
        <ele>627.8</ele>
        <time>2020-10-17T11:06:13Z</time>
      </trkpt>
      <trkpt lat="46.20735" lon="4.54308">
        <ele>628</ele>
        <time>2020-10-17T11:06:14Z</time>
      </trkpt>
      <trkpt lat="46.20735" lon="4.54304">
        <ele>627.6</ele>
        <time>2020-10-17T11:06:15Z</time>
      </trkpt>
      <trkpt lat="46.20735" lon="4.54301">
        <ele>627.2</ele>
        <time>2020-10-17T11:06:16Z</time>
      </trkpt>
      <trkpt lat="46.20735" lon="4.54297">
        <ele>627.4</ele>
        <time>2020-10-17T11:06:17Z</time>
      </trkpt>
      <trkpt lat="46.20735" lon="4.54294">
        <ele>627</ele>
        <time>2020-10-17T11:06:18Z</time>
      </trkpt>
      <trkpt lat="46.20735" lon="4.5429">
        <ele>626.8</ele>
        <time>2020-10-17T11:06:19Z</time>
      </trkpt>
      <trkpt lat="46.20735" lon="4.54287">
        <ele>627.2</ele>
        <time>2020-10-17T11:06:20Z</time>
      </trkpt>
      <trkpt lat="46.20735" lon="4.54284">
        <ele>626.8</ele>
        <time>2020-10-17T11:06:21Z</time>
      </trkpt>
      <trkpt lat="46.20735" lon="4.5428">
        <ele>627</ele>
        <time>2020-10-17T11:06:22Z</time>
      </trkpt>
      <trkpt lat="46.20735" lon="4.54276">
        <ele>627</ele>
        <time>2020-10-17T11:06:23Z</time>
      </trkpt>
      <trkpt lat="46.20735" lon="4.54273">
        <ele>627.2</ele>
        <time>2020-10-17T11:06:24Z</time>
      </trkpt>
      <trkpt lat="46.20736" lon="4.54269">
        <ele>626.8</ele>
        <time>2020-10-17T11:06:25Z</time>
      </trkpt>
      <trkpt lat="46.20736" lon="4.54266">
        <ele>626.8</ele>
        <time>2020-10-17T11:06:26Z</time>
      </trkpt>
      <trkpt lat="46.20737" lon="4.54263">
        <ele>626.4</ele>
        <time>2020-10-17T11:06:27Z</time>
      </trkpt>
      <trkpt lat="46.20738" lon="4.54259">
        <ele>626.2</ele>
        <time>2020-10-17T11:06:28Z</time>
      </trkpt>
      <trkpt lat="46.20738" lon="4.54256">
        <ele>626.4</ele>
        <time>2020-10-17T11:06:29Z</time>
      </trkpt>
      <trkpt lat="46.20738" lon="4.54252">
        <ele>626.2</ele>
        <time>2020-10-17T11:06:30Z</time>
      </trkpt>
      <trkpt lat="46.20738" lon="4.54248">
        <ele>626</ele>
        <time>2020-10-17T11:06:31Z</time>
      </trkpt>
      <trkpt lat="46.20738" lon="4.54245">
        <ele>626</ele>
        <time>2020-10-17T11:06:32Z</time>
      </trkpt>
      <trkpt lat="46.20738" lon="4.54241">
        <ele>625.8</ele>
        <time>2020-10-17T11:06:33Z</time>
      </trkpt>
      <trkpt lat="46.20738" lon="4.54237">
        <ele>625.6</ele>
        <time>2020-10-17T11:06:34Z</time>
      </trkpt>
      <trkpt lat="46.20738" lon="4.54234">
        <ele>625.6</ele>
        <time>2020-10-17T11:06:35Z</time>
      </trkpt>
      <trkpt lat="46.20738" lon="4.5423">
        <ele>625.6</ele>
        <time>2020-10-17T11:06:36Z</time>
      </trkpt>
      <trkpt lat="46.20738" lon="4.54226">
        <ele>625.6</ele>
        <time>2020-10-17T11:06:37Z</time>
      </trkpt>
      <trkpt lat="46.20739" lon="4.54222">
        <ele>625.2</ele>
        <time>2020-10-17T11:06:38Z</time>
      </trkpt>
      <trkpt lat="46.20739" lon="4.54219">
        <ele>625.4</ele>
        <time>2020-10-17T11:06:39Z</time>
      </trkpt>
      <trkpt lat="46.20739" lon="4.54215">
        <ele>625.2</ele>
        <time>2020-10-17T11:06:40Z</time>
      </trkpt>
      <trkpt lat="46.20739" lon="4.54211">
        <ele>624.6</ele>
        <time>2020-10-17T11:06:41Z</time>
      </trkpt>
      <trkpt lat="46.20739" lon="4.54207">
        <ele>624.8</ele>
        <time>2020-10-17T11:06:42Z</time>
      </trkpt>
      <trkpt lat="46.20739" lon="4.54204">
        <ele>624.8</ele>
        <time>2020-10-17T11:06:43Z</time>
      </trkpt>
      <trkpt lat="46.20739" lon="4.542">
        <ele>624.4</ele>
        <time>2020-10-17T11:06:44Z</time>
      </trkpt>
      <trkpt lat="46.20739" lon="4.54196">
        <ele>624.6</ele>
        <time>2020-10-17T11:06:45Z</time>
      </trkpt>
      <trkpt lat="46.20739" lon="4.54193">
        <ele>624.4</ele>
        <time>2020-10-17T11:06:46Z</time>
      </trkpt>
      <trkpt lat="46.20739" lon="4.54189">
        <ele>624.4</ele>
        <time>2020-10-17T11:06:47Z</time>
      </trkpt>
      <trkpt lat="46.20739" lon="4.54186">
        <ele>624.6</ele>
        <time>2020-10-17T11:06:48Z</time>
      </trkpt>
      <trkpt lat="46.2074" lon="4.54182">
        <ele>624.2</ele>
        <time>2020-10-17T11:06:49Z</time>
      </trkpt>
      <trkpt lat="46.20739" lon="4.54178">
        <ele>624</ele>
        <time>2020-10-17T11:06:50Z</time>
      </trkpt>
      <trkpt lat="46.2074" lon="4.54175">
        <ele>624</ele>
        <time>2020-10-17T11:06:51Z</time>
      </trkpt>
      <trkpt lat="46.2074" lon="4.54172">
        <ele>624</ele>
        <time>2020-10-17T11:06:52Z</time>
      </trkpt>
      <trkpt lat="46.2074" lon="4.54168">
        <ele>623.8</ele>
        <time>2020-10-17T11:06:53Z</time>
      </trkpt>
      <trkpt lat="46.2074" lon="4.54165">
        <ele>623.6</ele>
        <time>2020-10-17T11:06:54Z</time>
      </trkpt>
      <trkpt lat="46.2074" lon="4.54161">
        <ele>623.8</ele>
        <time>2020-10-17T11:06:55Z</time>
      </trkpt>
      <trkpt lat="46.20741" lon="4.54158">
        <ele>623.6</ele>
        <time>2020-10-17T11:06:56Z</time>
      </trkpt>
      <trkpt lat="46.20741" lon="4.54154">
        <ele>623.2</ele>
        <time>2020-10-17T11:06:57Z</time>
      </trkpt>
      <trkpt lat="46.20741" lon="4.54151">
        <ele>623.6</ele>
        <time>2020-10-17T11:06:58Z</time>
      </trkpt>
      <trkpt lat="46.20741" lon="4.54147">
        <ele>623.6</ele>
        <time>2020-10-17T11:06:59Z</time>
      </trkpt>
      <trkpt lat="46.20741" lon="4.54144">
        <ele>623.4</ele>
        <time>2020-10-17T11:07:00Z</time>
      </trkpt>
      <trkpt lat="46.20742" lon="4.5414">
        <ele>623.6</ele>
        <time>2020-10-17T11:07:01Z</time>
      </trkpt>
      <trkpt lat="46.20742" lon="4.54137">
        <ele>623.6</ele>
        <time>2020-10-17T11:07:02Z</time>
      </trkpt>
      <trkpt lat="46.20742" lon="4.54133">
        <ele>623</ele>
        <time>2020-10-17T11:07:03Z</time>
      </trkpt>
      <trkpt lat="46.20742" lon="4.54129">
        <ele>623.2</ele>
        <time>2020-10-17T11:07:04Z</time>
      </trkpt>
      <trkpt lat="46.20743" lon="4.54126">
        <ele>623</ele>
        <time>2020-10-17T11:07:05Z</time>
      </trkpt>
      <trkpt lat="46.20743" lon="4.54122">
        <ele>622.8</ele>
        <time>2020-10-17T11:07:06Z</time>
      </trkpt>
      <trkpt lat="46.20743" lon="4.54118">
        <ele>622.8</ele>
        <time>2020-10-17T11:07:07Z</time>
      </trkpt>
      <trkpt lat="46.20743" lon="4.54115">
        <ele>623</ele>
        <time>2020-10-17T11:07:08Z</time>
      </trkpt>
      <trkpt lat="46.20744" lon="4.54109">
        <ele>622.6</ele>
        <time>2020-10-17T11:07:09Z</time>
      </trkpt>
      <trkpt lat="46.20744" lon="4.54108">
        <ele>622.6</ele>
        <time>2020-10-17T11:07:10Z</time>
      </trkpt>
      <trkpt lat="46.20744" lon="4.54104">
        <ele>622.8</ele>
        <time>2020-10-17T11:07:11Z</time>
      </trkpt>
      <trkpt lat="46.20744" lon="4.541">
        <ele>622.4</ele>
        <time>2020-10-17T11:07:12Z</time>
      </trkpt>
      <trkpt lat="46.20744" lon="4.54097">
        <ele>622.2</ele>
        <time>2020-10-17T11:07:13Z</time>
      </trkpt>
      <trkpt lat="46.20745" lon="4.54093">
        <ele>622.6</ele>
        <time>2020-10-17T11:07:14Z</time>
      </trkpt>
      <trkpt lat="46.20745" lon="4.5409">
        <ele>622.2</ele>
        <time>2020-10-17T11:07:15Z</time>
      </trkpt>
      <trkpt lat="46.20745" lon="4.54086">
        <ele>621.8</ele>
        <time>2020-10-17T11:07:16Z</time>
      </trkpt>
      <trkpt lat="46.20745" lon="4.54083">
        <ele>622.2</ele>
        <time>2020-10-17T11:07:17Z</time>
      </trkpt>
      <trkpt lat="46.20745" lon="4.5408">
        <ele>622.2</ele>
        <time>2020-10-17T11:07:18Z</time>
      </trkpt>
      <trkpt lat="46.20745" lon="4.54076">
        <ele>621.8</ele>
        <time>2020-10-17T11:07:19Z</time>
      </trkpt>
      <trkpt lat="46.20745" lon="4.54073">
        <ele>622</ele>
        <time>2020-10-17T11:07:20Z</time>
      </trkpt>
      <trkpt lat="46.20746" lon="4.54069">
        <ele>622</ele>
        <time>2020-10-17T11:07:21Z</time>
      </trkpt>
      <trkpt lat="46.20746" lon="4.54065">
        <ele>621.8</ele>
        <time>2020-10-17T11:07:22Z</time>
      </trkpt>
      <trkpt lat="46.20746" lon="4.54062">
        <ele>621.8</ele>
        <time>2020-10-17T11:07:23Z</time>
      </trkpt>
      <trkpt lat="46.20746" lon="4.54059">
        <ele>621.8</ele>
        <time>2020-10-17T11:07:24Z</time>
      </trkpt>
      <trkpt lat="46.20746" lon="4.54055">
        <ele>621.6</ele>
        <time>2020-10-17T11:07:25Z</time>
      </trkpt>
      <trkpt lat="46.20746" lon="4.54051">
        <ele>621.4</ele>
        <time>2020-10-17T11:07:26Z</time>
      </trkpt>
      <trkpt lat="46.20746" lon="4.54048">
        <ele>621.6</ele>
        <time>2020-10-17T11:07:27Z</time>
      </trkpt>
      <trkpt lat="46.20747" lon="4.54045">
        <ele>621.4</ele>
        <time>2020-10-17T11:07:28Z</time>
      </trkpt>
      <trkpt lat="46.20747" lon="4.54041">
        <ele>621</ele>
        <time>2020-10-17T11:07:29Z</time>
      </trkpt>
      <trkpt lat="46.20747" lon="4.54038">
        <ele>621.2</ele>
        <time>2020-10-17T11:07:30Z</time>
      </trkpt>
      <trkpt lat="46.20747" lon="4.54034">
        <ele>621</ele>
        <time>2020-10-17T11:07:31Z</time>
      </trkpt>
      <trkpt lat="46.20747" lon="4.54031">
        <ele>620.6</ele>
        <time>2020-10-17T11:07:32Z</time>
      </trkpt>
      <trkpt lat="46.20747" lon="4.54027">
        <ele>620.8</ele>
        <time>2020-10-17T11:07:33Z</time>
      </trkpt>
      <trkpt lat="46.20747" lon="4.54024">
        <ele>621</ele>
        <time>2020-10-17T11:07:34Z</time>
      </trkpt>
      <trkpt lat="46.20747" lon="4.54021">
        <ele>620.8</ele>
        <time>2020-10-17T11:07:35Z</time>
      </trkpt>
      <trkpt lat="46.20747" lon="4.54017">
        <ele>620.6</ele>
        <time>2020-10-17T11:07:36Z</time>
      </trkpt>
      <trkpt lat="46.20747" lon="4.54013">
        <ele>620.8</ele>
        <time>2020-10-17T11:07:37Z</time>
      </trkpt>
      <trkpt lat="46.20747" lon="4.5401">
        <ele>620.6</ele>
        <time>2020-10-17T11:07:38Z</time>
      </trkpt>
      <trkpt lat="46.20747" lon="4.54006">
        <ele>620.4</ele>
        <time>2020-10-17T11:07:39Z</time>
      </trkpt>
      <trkpt lat="46.20747" lon="4.54003">
        <ele>620.8</ele>
        <time>2020-10-17T11:07:40Z</time>
      </trkpt>
      <trkpt lat="46.20747" lon="4.54">
        <ele>620.4</ele>
        <time>2020-10-17T11:07:41Z</time>
      </trkpt>
      <trkpt lat="46.20747" lon="4.53996">
        <ele>620.2</ele>
        <time>2020-10-17T11:07:42Z</time>
      </trkpt>
      <trkpt lat="46.20747" lon="4.53992">
        <ele>620.4</ele>
        <time>2020-10-17T11:07:43Z</time>
      </trkpt>
      <trkpt lat="46.20747" lon="4.53989">
        <ele>620.2</ele>
        <time>2020-10-17T11:07:44Z</time>
      </trkpt>
      <trkpt lat="46.20746" lon="4.53986">
        <ele>620</ele>
        <time>2020-10-17T11:07:45Z</time>
      </trkpt>
      <trkpt lat="46.20746" lon="4.53983">
        <ele>620</ele>
        <time>2020-10-17T11:07:46Z</time>
      </trkpt>
      <trkpt lat="46.20745" lon="4.53979">
        <ele>619.8</ele>
        <time>2020-10-17T11:07:47Z</time>
      </trkpt>
      <trkpt lat="46.20744" lon="4.53976">
        <ele>619.8</ele>
        <time>2020-10-17T11:07:48Z</time>
      </trkpt>
      <trkpt lat="46.20743" lon="4.53973">
        <ele>619.6</ele>
        <time>2020-10-17T11:07:49Z</time>
      </trkpt>
      <trkpt lat="46.20742" lon="4.53969">
        <ele>620</ele>
        <time>2020-10-17T11:07:50Z</time>
      </trkpt>
      <trkpt lat="46.20741" lon="4.53966">
        <ele>619.8</ele>
        <time>2020-10-17T11:07:51Z</time>
      </trkpt>
      <trkpt lat="46.20739" lon="4.53962">
        <ele>619.4</ele>
        <time>2020-10-17T11:07:52Z</time>
      </trkpt>
      <trkpt lat="46.20738" lon="4.53959">
        <ele>619.8</ele>
        <time>2020-10-17T11:07:53Z</time>
      </trkpt>
      <trkpt lat="46.20737" lon="4.53956">
        <ele>619.6</ele>
        <time>2020-10-17T11:07:54Z</time>
      </trkpt>
      <trkpt lat="46.20736" lon="4.53953">
        <ele>619.4</ele>
        <time>2020-10-17T11:07:55Z</time>
      </trkpt>
      <trkpt lat="46.20734" lon="4.5395">
        <ele>619.8</ele>
        <time>2020-10-17T11:07:56Z</time>
      </trkpt>
      <trkpt lat="46.20733" lon="4.53947">
        <ele>619.8</ele>
        <time>2020-10-17T11:07:57Z</time>
      </trkpt>
      <trkpt lat="46.20731" lon="4.53945">
        <ele>619.6</ele>
        <time>2020-10-17T11:07:58Z</time>
      </trkpt>
      <trkpt lat="46.20729" lon="4.53941">
        <ele>619.6</ele>
        <time>2020-10-17T11:07:59Z</time>
      </trkpt>
      <trkpt lat="46.20728" lon="4.53939">
        <ele>619.8</ele>
        <time>2020-10-17T11:08:00Z</time>
      </trkpt>
      <trkpt lat="46.20726" lon="4.53936">
        <ele>619.8</ele>
        <time>2020-10-17T11:08:01Z</time>
      </trkpt>
      <trkpt lat="46.20725" lon="4.53933">
        <ele>619.4</ele>
        <time>2020-10-17T11:08:02Z</time>
      </trkpt>
      <trkpt lat="46.20724" lon="4.5393">
        <ele>619.6</ele>
        <time>2020-10-17T11:08:03Z</time>
      </trkpt>
      <trkpt lat="46.20724" lon="4.5393">
        <ele>619.6</ele>
        <time>2020-10-17T11:08:04Z</time>
      </trkpt>
      <trkpt lat="46.20722" lon="4.53926">
        <ele>619.4</ele>
        <time>2020-10-17T11:08:05Z</time>
      </trkpt>
      <trkpt lat="46.20722" lon="4.53926">
        <ele>619.8</ele>
        <time>2020-10-17T11:08:06Z</time>
      </trkpt>
      <trkpt lat="46.20721" lon="4.53922">
        <ele>619.4</ele>
        <time>2020-10-17T11:08:07Z</time>
      </trkpt>
      <trkpt lat="46.20721" lon="4.53922">
        <ele>619</ele>
        <time>2020-10-17T11:08:08Z</time>
      </trkpt>
      <trkpt lat="46.20719" lon="4.53917">
        <ele>619</ele>
        <time>2020-10-17T11:08:09Z</time>
      </trkpt>
      <trkpt lat="46.20719" lon="4.53917">
        <ele>619</ele>
        <time>2020-10-17T11:08:10Z</time>
      </trkpt>
      <trkpt lat="46.20718" lon="4.53913">
        <ele>619.2</ele>
        <time>2020-10-17T11:08:11Z</time>
      </trkpt>
      <trkpt lat="46.20718" lon="4.53913">
        <ele>619.4</ele>
        <time>2020-10-17T11:08:12Z</time>
      </trkpt>
      <trkpt lat="46.20716" lon="4.53909">
        <ele>619.6</ele>
        <time>2020-10-17T11:08:13Z</time>
      </trkpt>
      <trkpt lat="46.20715" lon="4.53906">
        <ele>619.6</ele>
        <time>2020-10-17T11:08:14Z</time>
      </trkpt>
      <trkpt lat="46.20713" lon="4.53903">
        <ele>619.2</ele>
        <time>2020-10-17T11:08:15Z</time>
      </trkpt>
      <trkpt lat="46.20712" lon="4.539">
        <ele>619.2</ele>
        <time>2020-10-17T11:08:16Z</time>
      </trkpt>
      <trkpt lat="46.20711" lon="4.53896">
        <ele>619.2</ele>
        <time>2020-10-17T11:08:17Z</time>
      </trkpt>
      <trkpt lat="46.2071" lon="4.53893">
        <ele>619.4</ele>
        <time>2020-10-17T11:08:18Z</time>
      </trkpt>
      <trkpt lat="46.20709" lon="4.53889">
        <ele>619.2</ele>
        <time>2020-10-17T11:08:19Z</time>
      </trkpt>
      <trkpt lat="46.20708" lon="4.53886">
        <ele>619.6</ele>
        <time>2020-10-17T11:08:20Z</time>
      </trkpt>
      <trkpt lat="46.20707" lon="4.53882">
        <ele>619.8</ele>
        <time>2020-10-17T11:08:21Z</time>
      </trkpt>
      <trkpt lat="46.20706" lon="4.53879">
        <ele>619.6</ele>
        <time>2020-10-17T11:08:22Z</time>
      </trkpt>
      <trkpt lat="46.20705" lon="4.53875">
        <ele>619.6</ele>
        <time>2020-10-17T11:08:23Z</time>
      </trkpt>
      <trkpt lat="46.20704" lon="4.53872">
        <ele>619.8</ele>
        <time>2020-10-17T11:08:24Z</time>
      </trkpt>
      <trkpt lat="46.20703" lon="4.53868">
        <ele>619.6</ele>
        <time>2020-10-17T11:08:25Z</time>
      </trkpt>
      <trkpt lat="46.20702" lon="4.53864">
        <ele>619.4</ele>
        <time>2020-10-17T11:08:26Z</time>
      </trkpt>
      <trkpt lat="46.20702" lon="4.53861">
        <ele>619.6</ele>
        <time>2020-10-17T11:08:27Z</time>
      </trkpt>
      <trkpt lat="46.20701" lon="4.53858">
        <ele>619.4</ele>
        <time>2020-10-17T11:08:28Z</time>
      </trkpt>
      <trkpt lat="46.20701" lon="4.53854">
        <ele>619.2</ele>
        <time>2020-10-17T11:08:29Z</time>
      </trkpt>
      <trkpt lat="46.207" lon="4.53851">
        <ele>619.6</ele>
        <time>2020-10-17T11:08:30Z</time>
      </trkpt>
      <trkpt lat="46.207" lon="4.53848">
        <ele>619.4</ele>
        <time>2020-10-17T11:08:31Z</time>
      </trkpt>
      <trkpt lat="46.20699" lon="4.53844">
        <ele>619</ele>
        <time>2020-10-17T11:08:32Z</time>
      </trkpt>
      <trkpt lat="46.20699" lon="4.5384">
        <ele>619.6</ele>
        <time>2020-10-17T11:08:33Z</time>
      </trkpt>
      <trkpt lat="46.20699" lon="4.53836">
        <ele>619.4</ele>
        <time>2020-10-17T11:08:34Z</time>
      </trkpt>
      <trkpt lat="46.20699" lon="4.53832">
        <ele>619.4</ele>
        <time>2020-10-17T11:08:35Z</time>
      </trkpt>
      <trkpt lat="46.20699" lon="4.53828">
        <ele>619.6</ele>
        <time>2020-10-17T11:08:36Z</time>
      </trkpt>
      <trkpt lat="46.20699" lon="4.53824">
        <ele>619.6</ele>
        <time>2020-10-17T11:08:37Z</time>
      </trkpt>
      <trkpt lat="46.207" lon="4.53821">
        <ele>619.2</ele>
        <time>2020-10-17T11:08:38Z</time>
      </trkpt>
      <trkpt lat="46.207" lon="4.53817">
        <ele>619.2</ele>
        <time>2020-10-17T11:08:39Z</time>
      </trkpt>
      <trkpt lat="46.207" lon="4.53813">
        <ele>619.2</ele>
        <time>2020-10-17T11:08:40Z</time>
      </trkpt>
      <trkpt lat="46.207" lon="4.53809">
        <ele>619</ele>
        <time>2020-10-17T11:08:41Z</time>
      </trkpt>
      <trkpt lat="46.207" lon="4.53806">
        <ele>619.2</ele>
        <time>2020-10-17T11:08:42Z</time>
      </trkpt>
      <trkpt lat="46.20701" lon="4.53802">
        <ele>618.8</ele>
        <time>2020-10-17T11:08:43Z</time>
      </trkpt>
      <trkpt lat="46.20701" lon="4.53798">
        <ele>618.8</ele>
        <time>2020-10-17T11:08:44Z</time>
      </trkpt>
      <trkpt lat="46.20701" lon="4.53794">
        <ele>619</ele>
        <time>2020-10-17T11:08:45Z</time>
      </trkpt>
      <trkpt lat="46.20701" lon="4.53791">
        <ele>619</ele>
        <time>2020-10-17T11:08:46Z</time>
      </trkpt>
      <trkpt lat="46.20702" lon="4.53787">
        <ele>619</ele>
        <time>2020-10-17T11:08:47Z</time>
      </trkpt>
      <trkpt lat="46.20702" lon="4.53784">
        <ele>618.8</ele>
        <time>2020-10-17T11:08:48Z</time>
      </trkpt>
      <trkpt lat="46.20703" lon="4.53781">
        <ele>618.8</ele>
        <time>2020-10-17T11:08:49Z</time>
      </trkpt>
      <trkpt lat="46.20703" lon="4.53777">
        <ele>618.8</ele>
        <time>2020-10-17T11:08:50Z</time>
      </trkpt>
      <trkpt lat="46.20703" lon="4.53774">
        <ele>618.8</ele>
        <time>2020-10-17T11:08:51Z</time>
      </trkpt>
      <trkpt lat="46.20703" lon="4.5377">
        <ele>619</ele>
        <time>2020-10-17T11:08:52Z</time>
      </trkpt>
      <trkpt lat="46.20703" lon="4.53767">
        <ele>618.8</ele>
        <time>2020-10-17T11:08:53Z</time>
      </trkpt>
      <trkpt lat="46.20703" lon="4.53763">
        <ele>618.8</ele>
        <time>2020-10-17T11:08:54Z</time>
      </trkpt>
      <trkpt lat="46.20703" lon="4.5376">
        <ele>619.2</ele>
        <time>2020-10-17T11:08:55Z</time>
      </trkpt>
      <trkpt lat="46.20702" lon="4.53756">
        <ele>619</ele>
        <time>2020-10-17T11:08:56Z</time>
      </trkpt>
      <trkpt lat="46.20702" lon="4.53753">
        <ele>618.8</ele>
        <time>2020-10-17T11:08:57Z</time>
      </trkpt>
      <trkpt lat="46.207" lon="4.5375">
        <ele>619.2</ele>
        <time>2020-10-17T11:08:58Z</time>
      </trkpt>
      <trkpt lat="46.20699" lon="4.53747">
        <ele>619</ele>
        <time>2020-10-17T11:08:59Z</time>
      </trkpt>
      <trkpt lat="46.20698" lon="4.53744">
        <ele>619</ele>
        <time>2020-10-17T11:09:00Z</time>
      </trkpt>
      <trkpt lat="46.20696" lon="4.53742">
        <ele>619.2</ele>
        <time>2020-10-17T11:09:01Z</time>
      </trkpt>
      <trkpt lat="46.20694" lon="4.5374">
        <ele>619</ele>
        <time>2020-10-17T11:09:02Z</time>
      </trkpt>
      <trkpt lat="46.20693" lon="4.53737">
        <ele>618.8</ele>
        <time>2020-10-17T11:09:03Z</time>
      </trkpt>
      <trkpt lat="46.20693" lon="4.53737">
        <ele>619.2</ele>
        <time>2020-10-17T11:09:04Z</time>
      </trkpt>
      <trkpt lat="46.20692" lon="4.53733">
        <ele>619</ele>
        <time>2020-10-17T11:09:05Z</time>
      </trkpt>
      <trkpt lat="46.20692" lon="4.53733">
        <ele>618.8</ele>
        <time>2020-10-17T11:09:06Z</time>
      </trkpt>
      <trkpt lat="46.20691" lon="4.53729">
        <ele>618.8</ele>
        <time>2020-10-17T11:09:07Z</time>
      </trkpt>
      <trkpt lat="46.20691" lon="4.53729">
        <ele>618.8</ele>
        <time>2020-10-17T11:09:08Z</time>
      </trkpt>
      <trkpt lat="46.2069" lon="4.53725">
        <ele>618.6</ele>
        <time>2020-10-17T11:09:09Z</time>
      </trkpt>
      <trkpt lat="46.2069" lon="4.53725">
        <ele>618.6</ele>
        <time>2020-10-17T11:09:10Z</time>
      </trkpt>
      <trkpt lat="46.20689" lon="4.53722">
        <ele>618.8</ele>
        <time>2020-10-17T11:09:11Z</time>
      </trkpt>
      <trkpt lat="46.20689" lon="4.53722">
        <ele>618.6</ele>
        <time>2020-10-17T11:09:12Z</time>
      </trkpt>
      <trkpt lat="46.20687" lon="4.53718">
        <ele>618.8</ele>
        <time>2020-10-17T11:09:13Z</time>
      </trkpt>
      <trkpt lat="46.20687" lon="4.53718">
        <ele>618.8</ele>
        <time>2020-10-17T11:09:14Z</time>
      </trkpt>
      <trkpt lat="46.20685" lon="4.53714">
        <ele>618.8</ele>
        <time>2020-10-17T11:09:15Z</time>
      </trkpt>
      <trkpt lat="46.20685" lon="4.53714">
        <ele>618.8</ele>
        <time>2020-10-17T11:09:16Z</time>
      </trkpt>
      <trkpt lat="46.20683" lon="4.53709">
        <ele>619</ele>
        <time>2020-10-17T11:09:17Z</time>
      </trkpt>
      <trkpt lat="46.20682" lon="4.53706">
        <ele>619</ele>
        <time>2020-10-17T11:09:18Z</time>
      </trkpt>
      <trkpt lat="46.2068" lon="4.53703">
        <ele>619.2</ele>
        <time>2020-10-17T11:09:19Z</time>
      </trkpt>
      <trkpt lat="46.20678" lon="4.537">
        <ele>619.2</ele>
        <time>2020-10-17T11:09:20Z</time>
      </trkpt>
      <trkpt lat="46.20676" lon="4.53697">
        <ele>619.2</ele>
        <time>2020-10-17T11:09:21Z</time>
      </trkpt>
      <trkpt lat="46.20674" lon="4.53694">
        <ele>619.6</ele>
        <time>2020-10-17T11:09:22Z</time>
      </trkpt>
      <trkpt lat="46.20672" lon="4.53692">
        <ele>619.4</ele>
        <time>2020-10-17T11:09:23Z</time>
      </trkpt>
      <trkpt lat="46.2067" lon="4.53689">
        <ele>619.4</ele>
        <time>2020-10-17T11:09:24Z</time>
      </trkpt>
      <trkpt lat="46.20667" lon="4.53688">
        <ele>620</ele>
        <time>2020-10-17T11:09:25Z</time>
      </trkpt>
      <trkpt lat="46.20666" lon="4.53687">
        <ele>619.8</ele>
        <time>2020-10-17T11:09:26Z</time>
      </trkpt>
      <trkpt lat="46.20666" lon="4.53687">
        <ele>619.8</ele>
        <time>2020-10-17T11:09:27Z</time>
      </trkpt>
      <trkpt lat="46.20663" lon="4.53684">
        <ele>620</ele>
        <time>2020-10-17T11:09:28Z</time>
      </trkpt>
      <trkpt lat="46.20663" lon="4.53684">
        <ele>620</ele>
        <time>2020-10-17T11:09:29Z</time>
      </trkpt>
      <trkpt lat="46.20661" lon="4.53682">
        <ele>620</ele>
        <time>2020-10-17T11:09:30Z</time>
      </trkpt>
      <trkpt lat="46.20661" lon="4.53682">
        <ele>619.8</ele>
        <time>2020-10-17T11:09:31Z</time>
      </trkpt>
      <trkpt lat="46.20659" lon="4.5368">
        <ele>620</ele>
        <time>2020-10-17T11:09:32Z</time>
      </trkpt>
      <trkpt lat="46.20659" lon="4.5368">
        <ele>620</ele>
        <time>2020-10-17T11:09:33Z</time>
      </trkpt>
      <trkpt lat="46.20658" lon="4.53676">
        <ele>619.8</ele>
        <time>2020-10-17T11:09:34Z</time>
      </trkpt>
      <trkpt lat="46.20658" lon="4.53676">
        <ele>619.8</ele>
        <time>2020-10-17T11:09:35Z</time>
      </trkpt>
      <trkpt lat="46.20658" lon="4.53672">
        <ele>619.6</ele>
        <time>2020-10-17T11:09:36Z</time>
      </trkpt>
      <trkpt lat="46.20658" lon="4.53672">
        <ele>619.8</ele>
        <time>2020-10-17T11:09:37Z</time>
      </trkpt>
      <trkpt lat="46.20659" lon="4.53668">
        <ele>620</ele>
        <time>2020-10-17T11:09:38Z</time>
      </trkpt>
      <trkpt lat="46.20659" lon="4.53668">
        <ele>620.2</ele>
        <time>2020-10-17T11:09:39Z</time>
      </trkpt>
      <trkpt lat="46.20661" lon="4.53667">
        <ele>619.8</ele>
        <time>2020-10-17T11:09:40Z</time>
      </trkpt>
      <trkpt lat="46.20661" lon="4.53667">
        <ele>619.6</ele>
        <time>2020-10-17T11:09:41Z</time>
      </trkpt>
      <trkpt lat="46.20661" lon="4.53667">
        <ele>619.6</ele>
        <time>2020-10-17T11:09:42Z</time>
      </trkpt>
      <trkpt lat="46.20663" lon="4.53667">
        <ele>620</ele>
        <time>2020-10-17T11:09:43Z</time>
      </trkpt>
      <trkpt lat="46.20663" lon="4.53667">
        <ele>620.4</ele>
        <time>2020-10-17T11:09:44Z</time>
      </trkpt>
      <trkpt lat="46.20663" lon="4.53667">
        <ele>620.8</ele>
        <time>2020-10-17T11:09:45Z</time>
      </trkpt>
      <trkpt lat="46.20665" lon="4.53666">
        <ele>620.8</ele>
        <time>2020-10-17T11:09:46Z</time>
      </trkpt>
      <trkpt lat="46.20665" lon="4.53666">
        <ele>620.8</ele>
        <time>2020-10-17T11:09:47Z</time>
      </trkpt>
      <trkpt lat="46.20665" lon="4.53666">
        <ele>620.8</ele>
        <time>2020-10-17T11:09:48Z</time>
      </trkpt>
      <trkpt lat="46.20665" lon="4.53666">
        <ele>621</ele>
        <time>2020-10-17T11:09:49Z</time>
      </trkpt>
      <trkpt lat="46.20665" lon="4.53666">
        <ele>620.8</ele>
        <time>2020-10-17T11:09:50Z</time>
      </trkpt>
      <trkpt lat="46.20665" lon="4.53666">
        <ele>620.8</ele>
        <time>2020-10-17T11:09:51Z</time>
      </trkpt>
      <trkpt lat="46.20665" lon="4.53666">
        <ele>621</ele>
        <time>2020-10-17T11:09:52Z</time>
      </trkpt>
      <trkpt lat="46.20665" lon="4.53666">
        <ele>621</ele>
        <time>2020-10-17T11:09:53Z</time>
      </trkpt>
      <trkpt lat="46.20665" lon="4.53666">
        <ele>621.2</ele>
        <time>2020-10-17T11:09:54Z</time>
      </trkpt>
      <trkpt lat="46.20665" lon="4.53666">
        <ele>621.4</ele>
        <time>2020-10-17T11:09:55Z</time>
      </trkpt>
      <trkpt lat="46.20665" lon="4.53666">
        <ele>621.4</ele>
        <time>2020-10-17T11:09:56Z</time>
      </trkpt>
      <trkpt lat="46.20667" lon="4.53666">
        <ele>621.4</ele>
        <time>2020-10-17T11:09:57Z</time>
      </trkpt>
      <trkpt lat="46.20667" lon="4.53666">
        <ele>621.4</ele>
        <time>2020-10-17T11:09:58Z</time>
      </trkpt>
      <trkpt lat="46.20667" lon="4.53666">
        <ele>621.2</ele>
        <time>2020-10-17T11:09:59Z</time>
      </trkpt>
      <trkpt lat="46.20667" lon="4.53666">
        <ele>621.2</ele>
        <time>2020-10-17T11:10:00Z</time>
      </trkpt>
      <trkpt lat="46.20667" lon="4.53666">
        <ele>621.2</ele>
        <time>2020-10-17T11:10:01Z</time>
      </trkpt>
      <trkpt lat="46.20667" lon="4.53666">
        <ele>621</ele>
        <time>2020-10-17T11:10:02Z</time>
      </trkpt>
      <trkpt lat="46.20667" lon="4.53666">
        <ele>620.6</ele>
        <time>2020-10-17T11:10:03Z</time>
      </trkpt>
      <trkpt lat="46.20667" lon="4.53666">
        <ele>620.6</ele>
        <time>2020-10-17T11:10:04Z</time>
      </trkpt>
      <trkpt lat="46.20667" lon="4.53666">
        <ele>620.4</ele>
        <time>2020-10-17T11:10:05Z</time>
      </trkpt>
      <trkpt lat="46.20667" lon="4.53666">
        <ele>620.6</ele>
        <time>2020-10-17T11:10:06Z</time>
      </trkpt>
      <trkpt lat="46.20667" lon="4.53666">
        <ele>620.4</ele>
        <time>2020-10-17T11:10:07Z</time>
      </trkpt>
      <trkpt lat="46.20667" lon="4.53666">
        <ele>620.2</ele>
        <time>2020-10-17T11:10:08Z</time>
      </trkpt>
      <trkpt lat="46.20667" lon="4.53666">
        <ele>620.4</ele>
        <time>2020-10-17T11:10:09Z</time>
      </trkpt>
      <trkpt lat="46.20667" lon="4.53666">
        <ele>620.4</ele>
        <time>2020-10-17T11:10:10Z</time>
      </trkpt>
      <trkpt lat="46.20667" lon="4.53666">
        <ele>620.4</ele>
        <time>2020-10-17T11:10:11Z</time>
      </trkpt>
      <trkpt lat="46.20667" lon="4.53666">
        <ele>620.2</ele>
        <time>2020-10-17T11:10:12Z</time>
      </trkpt>
      <trkpt lat="46.20667" lon="4.53666">
        <ele>620.2</ele>
        <time>2020-10-17T11:10:13Z</time>
      </trkpt>
      <trkpt lat="46.20667" lon="4.53666">
        <ele>620.4</ele>
        <time>2020-10-17T11:10:14Z</time>
      </trkpt>
      <trkpt lat="46.20667" lon="4.53666">
        <ele>620.4</ele>
        <time>2020-10-17T11:10:15Z</time>
      </trkpt>
      <trkpt lat="46.20667" lon="4.53666">
        <ele>620.4</ele>
        <time>2020-10-17T11:10:16Z</time>
      </trkpt>
      <trkpt lat="46.20667" lon="4.53666">
        <ele>620.6</ele>
        <time>2020-10-17T11:10:17Z</time>
      </trkpt>
      <trkpt lat="46.20667" lon="4.53666">
        <ele>620.6</ele>
        <time>2020-10-17T11:10:18Z</time>
      </trkpt>
      <trkpt lat="46.20667" lon="4.53666">
        <ele>620.6</ele>
        <time>2020-10-17T11:10:19Z</time>
      </trkpt>
      <trkpt lat="46.20667" lon="4.53666">
        <ele>620.8</ele>
        <time>2020-10-17T11:10:20Z</time>
      </trkpt>
      <trkpt lat="46.20667" lon="4.53666">
        <ele>620.8</ele>
        <time>2020-10-17T11:10:21Z</time>
      </trkpt>
      <trkpt lat="46.20667" lon="4.53666">
        <ele>620.8</ele>
        <time>2020-10-17T11:10:22Z</time>
      </trkpt>
      <trkpt lat="46.20667" lon="4.53666">
        <ele>620.8</ele>
        <time>2020-10-17T11:10:23Z</time>
      </trkpt>
      <trkpt lat="46.20667" lon="4.53666">
        <ele>620.8</ele>
        <time>2020-10-17T11:10:24Z</time>
      </trkpt>
      <trkpt lat="46.20667" lon="4.53666">
        <ele>620.8</ele>
        <time>2020-10-17T11:10:25Z</time>
      </trkpt>
      <trkpt lat="46.20667" lon="4.53666">
        <ele>620.8</ele>
        <time>2020-10-17T11:10:26Z</time>
      </trkpt>
      <trkpt lat="46.20667" lon="4.53666">
        <ele>621</ele>
        <time>2020-10-17T11:10:27Z</time>
      </trkpt>
      <trkpt lat="46.20667" lon="4.53666">
        <ele>620.8</ele>
        <time>2020-10-17T11:10:28Z</time>
      </trkpt>
      <trkpt lat="46.20667" lon="4.53666">
        <ele>620.8</ele>
        <time>2020-10-17T11:10:29Z</time>
      </trkpt>
      <trkpt lat="46.20669" lon="4.53662">
        <ele>621</ele>
        <time>2020-10-17T11:10:30Z</time>
      </trkpt>
      <trkpt lat="46.20669" lon="4.53662">
        <ele>621.2</ele>
        <time>2020-10-17T11:10:31Z</time>
      </trkpt>
      <trkpt lat="46.2067" lon="4.53659">
        <ele>621.4</ele>
        <time>2020-10-17T11:10:32Z</time>
      </trkpt>
      <trkpt lat="46.2067" lon="4.53659">
        <ele>621.4</ele>
        <time>2020-10-17T11:10:33Z</time>
      </trkpt>
      <trkpt lat="46.20671" lon="4.53657">
        <ele>621.4</ele>
        <time>2020-10-17T11:10:34Z</time>
      </trkpt>
      <trkpt lat="46.20671" lon="4.53657">
        <ele>621.4</ele>
        <time>2020-10-17T11:10:35Z</time>
      </trkpt>
      <trkpt lat="46.20673" lon="4.53655">
        <ele>621.4</ele>
        <time>2020-10-17T11:10:36Z</time>
      </trkpt>
      <trkpt lat="46.20673" lon="4.53655">
        <ele>621.4</ele>
        <time>2020-10-17T11:10:37Z</time>
      </trkpt>
      <trkpt lat="46.20675" lon="4.53653">
        <ele>621.4</ele>
        <time>2020-10-17T11:10:38Z</time>
      </trkpt>
      <trkpt lat="46.20675" lon="4.53653">
        <ele>621.6</ele>
        <time>2020-10-17T11:10:39Z</time>
      </trkpt>
      <trkpt lat="46.20677" lon="4.53651">
        <ele>621.8</ele>
        <time>2020-10-17T11:10:40Z</time>
      </trkpt>
      <trkpt lat="46.20677" lon="4.53651">
        <ele>621.6</ele>
        <time>2020-10-17T11:10:41Z</time>
      </trkpt>
      <trkpt lat="46.20679" lon="4.5365">
        <ele>621.6</ele>
        <time>2020-10-17T11:10:42Z</time>
      </trkpt>
      <trkpt lat="46.20679" lon="4.5365">
        <ele>621.8</ele>
        <time>2020-10-17T11:10:43Z</time>
      </trkpt>
      <trkpt lat="46.20679" lon="4.5365">
        <ele>622</ele>
        <time>2020-10-17T11:10:44Z</time>
      </trkpt>
      <trkpt lat="46.20681" lon="4.53649">
        <ele>622</ele>
        <time>2020-10-17T11:10:45Z</time>
      </trkpt>
      <trkpt lat="46.20681" lon="4.53649">
        <ele>621.8</ele>
        <time>2020-10-17T11:10:46Z</time>
      </trkpt>
      <trkpt lat="46.20681" lon="4.53649">
        <ele>622.2</ele>
        <time>2020-10-17T11:10:47Z</time>
      </trkpt>
      <trkpt lat="46.20681" lon="4.53649">
        <ele>622.2</ele>
        <time>2020-10-17T11:10:48Z</time>
      </trkpt>
      <trkpt lat="46.20681" lon="4.53649">
        <ele>622</ele>
        <time>2020-10-17T11:10:49Z</time>
      </trkpt>
      <trkpt lat="46.20681" lon="4.53649">
        <ele>622.2</ele>
        <time>2020-10-17T11:10:50Z</time>
      </trkpt>
      <trkpt lat="46.20681" lon="4.53649">
        <ele>622.2</ele>
        <time>2020-10-17T11:10:51Z</time>
      </trkpt>
      <trkpt lat="46.20683" lon="4.5365">
        <ele>622</ele>
        <time>2020-10-17T11:10:52Z</time>
      </trkpt>
      <trkpt lat="46.20683" lon="4.5365">
        <ele>621.8</ele>
        <time>2020-10-17T11:10:53Z</time>
      </trkpt>
      <trkpt lat="46.20683" lon="4.5365">
        <ele>621.6</ele>
        <time>2020-10-17T11:10:54Z</time>
      </trkpt>
      <trkpt lat="46.20683" lon="4.5365">
        <ele>621.6</ele>
        <time>2020-10-17T11:10:55Z</time>
      </trkpt>
      <trkpt lat="46.20683" lon="4.5365">
        <ele>621.4</ele>
        <time>2020-10-17T11:10:56Z</time>
      </trkpt>
      <trkpt lat="46.20683" lon="4.5365">
        <ele>621.4</ele>
        <time>2020-10-17T11:10:57Z</time>
      </trkpt>
      <trkpt lat="46.20683" lon="4.5365">
        <ele>621.4</ele>
        <time>2020-10-17T11:10:58Z</time>
      </trkpt>
      <trkpt lat="46.20683" lon="4.5365">
        <ele>621.4</ele>
        <time>2020-10-17T11:10:59Z</time>
      </trkpt>
      <trkpt lat="46.20683" lon="4.5365">
        <ele>621.6</ele>
        <time>2020-10-17T11:11:00Z</time>
      </trkpt>
      <trkpt lat="46.20683" lon="4.5365">
        <ele>621.6</ele>
        <time>2020-10-17T11:11:01Z</time>
      </trkpt>
      <trkpt lat="46.20683" lon="4.5365">
        <ele>621.8</ele>
        <time>2020-10-17T11:11:02Z</time>
      </trkpt>
      <trkpt lat="46.20683" lon="4.5365">
        <ele>621.8</ele>
        <time>2020-10-17T11:11:03Z</time>
      </trkpt>
      <trkpt lat="46.20683" lon="4.5365">
        <ele>621.8</ele>
        <time>2020-10-17T11:11:04Z</time>
      </trkpt>
      <trkpt lat="46.20683" lon="4.5365">
        <ele>621.8</ele>
        <time>2020-10-17T11:11:05Z</time>
      </trkpt>
      <trkpt lat="46.20683" lon="4.5365">
        <ele>621.8</ele>
        <time>2020-10-17T11:11:06Z</time>
      </trkpt>
      <trkpt lat="46.20683" lon="4.5365">
        <ele>622</ele>
        <time>2020-10-17T11:11:07Z</time>
      </trkpt>
      <trkpt lat="46.20683" lon="4.5365">
        <ele>622</ele>
        <time>2020-10-17T11:11:08Z</time>
      </trkpt>
      <trkpt lat="46.20683" lon="4.5365">
        <ele>622</ele>
        <time>2020-10-17T11:11:09Z</time>
      </trkpt>
      <trkpt lat="46.20683" lon="4.5365">
        <ele>622</ele>
        <time>2020-10-17T11:11:10Z</time>
      </trkpt>
      <trkpt lat="46.20683" lon="4.5365">
        <ele>622</ele>
        <time>2020-10-17T11:11:11Z</time>
      </trkpt>
      <trkpt lat="46.20683" lon="4.5365">
        <ele>622</ele>
        <time>2020-10-17T11:11:12Z</time>
      </trkpt>
      <trkpt lat="46.20683" lon="4.5365">
        <ele>621.8</ele>
        <time>2020-10-17T11:11:13Z</time>
      </trkpt>
      <trkpt lat="46.20683" lon="4.5365">
        <ele>622</ele>
        <time>2020-10-17T11:11:14Z</time>
      </trkpt>
      <trkpt lat="46.20683" lon="4.5365">
        <ele>622.2</ele>
        <time>2020-10-17T11:11:15Z</time>
      </trkpt>
      <trkpt lat="46.20683" lon="4.5365">
        <ele>622.2</ele>
        <time>2020-10-17T11:11:16Z</time>
      </trkpt>
      <trkpt lat="46.20683" lon="4.5365">
        <ele>622.4</ele>
        <time>2020-10-17T11:11:17Z</time>
      </trkpt>
      <trkpt lat="46.20683" lon="4.5365">
        <ele>622.2</ele>
        <time>2020-10-17T11:11:18Z</time>
      </trkpt>
      <trkpt lat="46.20683" lon="4.5365">
        <ele>622.2</ele>
        <time>2020-10-17T11:11:19Z</time>
      </trkpt>
      <trkpt lat="46.20681" lon="4.53651">
        <ele>622.2</ele>
        <time>2020-10-17T11:11:20Z</time>
      </trkpt>
      <trkpt lat="46.20679" lon="4.53652">
        <ele>622.4</ele>
        <time>2020-10-17T11:11:21Z</time>
      </trkpt>
      <trkpt lat="46.20677" lon="4.53653">
        <ele>622</ele>
        <time>2020-10-17T11:11:22Z</time>
      </trkpt>
      <trkpt lat="46.20676" lon="4.53654">
        <ele>621.8</ele>
        <time>2020-10-17T11:11:23Z</time>
      </trkpt>
      <trkpt lat="46.20676" lon="4.53654">
        <ele>621.4</ele>
        <time>2020-10-17T11:11:24Z</time>
      </trkpt>
      <trkpt lat="46.20672" lon="4.53656">
        <ele>621.8</ele>
        <time>2020-10-17T11:11:25Z</time>
      </trkpt>
      <trkpt lat="46.20672" lon="4.53656">
        <ele>621.8</ele>
        <time>2020-10-17T11:11:26Z</time>
      </trkpt>
      <trkpt lat="46.20669" lon="4.53659">
        <ele>622</ele>
        <time>2020-10-17T11:11:27Z</time>
      </trkpt>
      <trkpt lat="46.20669" lon="4.53659">
        <ele>622.4</ele>
        <time>2020-10-17T11:11:28Z</time>
      </trkpt>
      <trkpt lat="46.20666" lon="4.53661">
        <ele>622.2</ele>
        <time>2020-10-17T11:11:29Z</time>
      </trkpt>
      <trkpt lat="46.20664" lon="4.53663">
        <ele>621.8</ele>
        <time>2020-10-17T11:11:30Z</time>
      </trkpt>
      <trkpt lat="46.20664" lon="4.53663">
        <ele>621.6</ele>
        <time>2020-10-17T11:11:31Z</time>
      </trkpt>
      <trkpt lat="46.20661" lon="4.53665">
        <ele>621.6</ele>
        <time>2020-10-17T11:11:32Z</time>
      </trkpt>
      <trkpt lat="46.2066" lon="4.53667">
        <ele>621.6</ele>
        <time>2020-10-17T11:11:33Z</time>
      </trkpt>
      <trkpt lat="46.2066" lon="4.53667">
        <ele>621.6</ele>
        <time>2020-10-17T11:11:34Z</time>
      </trkpt>
      <trkpt lat="46.20657" lon="4.5367">
        <ele>621.6</ele>
        <time>2020-10-17T11:11:35Z</time>
      </trkpt>
      <trkpt lat="46.20655" lon="4.53671">
        <ele>621.4</ele>
        <time>2020-10-17T11:11:36Z</time>
      </trkpt>
      <trkpt lat="46.20654" lon="4.53672">
        <ele>621.2</ele>
        <time>2020-10-17T11:11:37Z</time>
      </trkpt>
      <trkpt lat="46.20654" lon="4.53672">
        <ele>621.4</ele>
        <time>2020-10-17T11:11:38Z</time>
      </trkpt>
      <trkpt lat="46.20651" lon="4.53674">
        <ele>621.2</ele>
        <time>2020-10-17T11:11:39Z</time>
      </trkpt>
      <trkpt lat="46.20649" lon="4.53675">
        <ele>621.4</ele>
        <time>2020-10-17T11:11:40Z</time>
      </trkpt>
      <trkpt lat="46.20647" lon="4.53676">
        <ele>621.8</ele>
        <time>2020-10-17T11:11:41Z</time>
      </trkpt>
      <trkpt lat="46.20647" lon="4.53676">
        <ele>621.6</ele>
        <time>2020-10-17T11:11:42Z</time>
      </trkpt>
      <trkpt lat="46.20644" lon="4.53678">
        <ele>621.8</ele>
        <time>2020-10-17T11:11:43Z</time>
      </trkpt>
      <trkpt lat="46.20644" lon="4.53678">
        <ele>622</ele>
        <time>2020-10-17T11:11:44Z</time>
      </trkpt>
      <trkpt lat="46.20641" lon="4.53679">
        <ele>621.8</ele>
        <time>2020-10-17T11:11:45Z</time>
      </trkpt>
      <trkpt lat="46.20641" lon="4.53679">
        <ele>621.8</ele>
        <time>2020-10-17T11:11:46Z</time>
      </trkpt>
      <trkpt lat="46.20637" lon="4.53679">
        <ele>621.8</ele>
        <time>2020-10-17T11:11:47Z</time>
      </trkpt>
      <trkpt lat="46.20637" lon="4.53679">
        <ele>621.6</ele>
        <time>2020-10-17T11:11:48Z</time>
      </trkpt>
      <trkpt lat="46.20634" lon="4.5368">
        <ele>621.8</ele>
        <time>2020-10-17T11:11:49Z</time>
      </trkpt>
      <trkpt lat="46.20634" lon="4.5368">
        <ele>621.8</ele>
        <time>2020-10-17T11:11:50Z</time>
      </trkpt>
      <trkpt lat="46.20631" lon="4.5368">
        <ele>621.8</ele>
        <time>2020-10-17T11:11:51Z</time>
      </trkpt>
      <trkpt lat="46.20631" lon="4.5368">
        <ele>622</ele>
        <time>2020-10-17T11:11:52Z</time>
      </trkpt>
      <trkpt lat="46.20627" lon="4.53679">
        <ele>621.8</ele>
        <time>2020-10-17T11:11:53Z</time>
      </trkpt>
      <trkpt lat="46.20627" lon="4.53679">
        <ele>621.8</ele>
        <time>2020-10-17T11:11:54Z</time>
      </trkpt>
      <trkpt lat="46.20624" lon="4.53678">
        <ele>621.8</ele>
        <time>2020-10-17T11:11:55Z</time>
      </trkpt>
      <trkpt lat="46.20624" lon="4.53678">
        <ele>621.8</ele>
        <time>2020-10-17T11:11:56Z</time>
      </trkpt>
      <trkpt lat="46.20623" lon="4.53676">
        <ele>621.8</ele>
        <time>2020-10-17T11:11:57Z</time>
      </trkpt>
      <trkpt lat="46.20623" lon="4.53676">
        <ele>622</ele>
        <time>2020-10-17T11:11:58Z</time>
      </trkpt>
      <trkpt lat="46.20623" lon="4.53676">
        <ele>622</ele>
        <time>2020-10-17T11:11:59Z</time>
      </trkpt>
      <trkpt lat="46.20621" lon="4.53673">
        <ele>622.2</ele>
        <time>2020-10-17T11:12:00Z</time>
      </trkpt>
      <trkpt lat="46.20621" lon="4.53673">
        <ele>622.2</ele>
        <time>2020-10-17T11:12:01Z</time>
      </trkpt>
      <trkpt lat="46.20621" lon="4.53673">
        <ele>622.2</ele>
        <time>2020-10-17T11:12:02Z</time>
      </trkpt>
      <trkpt lat="46.20621" lon="4.53673">
        <ele>622.2</ele>
        <time>2020-10-17T11:12:03Z</time>
      </trkpt>
      <trkpt lat="46.20621" lon="4.53673">
        <ele>622.2</ele>
        <time>2020-10-17T11:12:04Z</time>
      </trkpt>
      <trkpt lat="46.20621" lon="4.53673">
        <ele>622.4</ele>
        <time>2020-10-17T11:12:05Z</time>
      </trkpt>
      <trkpt lat="46.20621" lon="4.53673">
        <ele>622.6</ele>
        <time>2020-10-17T11:12:06Z</time>
      </trkpt>
      <trkpt lat="46.20621" lon="4.53673">
        <ele>622.8</ele>
        <time>2020-10-17T11:12:07Z</time>
      </trkpt>
      <trkpt lat="46.20619" lon="4.53673">
        <ele>623</ele>
        <time>2020-10-17T11:12:08Z</time>
      </trkpt>
      <trkpt lat="46.20619" lon="4.53673">
        <ele>623</ele>
        <time>2020-10-17T11:12:09Z</time>
      </trkpt>
      <trkpt lat="46.20616" lon="4.53673">
        <ele>622.8</ele>
        <time>2020-10-17T11:12:10Z</time>
      </trkpt>
      <trkpt lat="46.20616" lon="4.53673">
        <ele>622.8</ele>
        <time>2020-10-17T11:12:11Z</time>
      </trkpt>
      <trkpt lat="46.20614" lon="4.53672">
        <ele>622.6</ele>
        <time>2020-10-17T11:12:12Z</time>
      </trkpt>
      <trkpt lat="46.20614" lon="4.53672">
        <ele>622.6</ele>
        <time>2020-10-17T11:12:13Z</time>
      </trkpt>
      <trkpt lat="46.20611" lon="4.53672">
        <ele>622.6</ele>
        <time>2020-10-17T11:12:14Z</time>
      </trkpt>
      <trkpt lat="46.20611" lon="4.53672">
        <ele>622.6</ele>
        <time>2020-10-17T11:12:15Z</time>
      </trkpt>
      <trkpt lat="46.20607" lon="4.53672">
        <ele>622.4</ele>
        <time>2020-10-17T11:12:16Z</time>
      </trkpt>
      <trkpt lat="46.20607" lon="4.53672">
        <ele>622.6</ele>
        <time>2020-10-17T11:12:17Z</time>
      </trkpt>
      <trkpt lat="46.20604" lon="4.53672">
        <ele>622.6</ele>
        <time>2020-10-17T11:12:18Z</time>
      </trkpt>
      <trkpt lat="46.20604" lon="4.53672">
        <ele>622.6</ele>
        <time>2020-10-17T11:12:19Z</time>
      </trkpt>
      <trkpt lat="46.20602" lon="4.53672">
        <ele>622.8</ele>
        <time>2020-10-17T11:12:20Z</time>
      </trkpt>
      <trkpt lat="46.20602" lon="4.53672">
        <ele>622.6</ele>
        <time>2020-10-17T11:12:21Z</time>
      </trkpt>
      <trkpt lat="46.20599" lon="4.53672">
        <ele>622.8</ele>
        <time>2020-10-17T11:12:22Z</time>
      </trkpt>
      <trkpt lat="46.20599" lon="4.53672">
        <ele>622.6</ele>
        <time>2020-10-17T11:12:23Z</time>
      </trkpt>
      <trkpt lat="46.20595" lon="4.53672">
        <ele>622.6</ele>
        <time>2020-10-17T11:12:24Z</time>
      </trkpt>
      <trkpt lat="46.20595" lon="4.53672">
        <ele>622.4</ele>
        <time>2020-10-17T11:12:25Z</time>
      </trkpt>
      <trkpt lat="46.20592" lon="4.53672">
        <ele>622.4</ele>
        <time>2020-10-17T11:12:26Z</time>
      </trkpt>
      <trkpt lat="46.2059" lon="4.53672">
        <ele>622.6</ele>
        <time>2020-10-17T11:12:27Z</time>
      </trkpt>
      <trkpt lat="46.20588" lon="4.53672">
        <ele>622.6</ele>
        <time>2020-10-17T11:12:28Z</time>
      </trkpt>
      <trkpt lat="46.20586" lon="4.53673">
        <ele>622.8</ele>
        <time>2020-10-17T11:12:29Z</time>
      </trkpt>
      <trkpt lat="46.20584" lon="4.53673">
        <ele>622.6</ele>
        <time>2020-10-17T11:12:30Z</time>
      </trkpt>
      <trkpt lat="46.20581" lon="4.53674">
        <ele>622.4</ele>
        <time>2020-10-17T11:12:31Z</time>
      </trkpt>
      <trkpt lat="46.20579" lon="4.53674">
        <ele>622.6</ele>
        <time>2020-10-17T11:12:32Z</time>
      </trkpt>
      <trkpt lat="46.20577" lon="4.53675">
        <ele>622.6</ele>
        <time>2020-10-17T11:12:33Z</time>
      </trkpt>
      <trkpt lat="46.20574" lon="4.53675">
        <ele>622</ele>
        <time>2020-10-17T11:12:34Z</time>
      </trkpt>
      <trkpt lat="46.20572" lon="4.53675">
        <ele>622.4</ele>
        <time>2020-10-17T11:12:35Z</time>
      </trkpt>
      <trkpt lat="46.20569" lon="4.53676">
        <ele>622.2</ele>
        <time>2020-10-17T11:12:36Z</time>
      </trkpt>
      <trkpt lat="46.20567" lon="4.53676">
        <ele>622.2</ele>
        <time>2020-10-17T11:12:37Z</time>
      </trkpt>
      <trkpt lat="46.20565" lon="4.53676">
        <ele>622.4</ele>
        <time>2020-10-17T11:12:38Z</time>
      </trkpt>
      <trkpt lat="46.20562" lon="4.53676">
        <ele>622.4</ele>
        <time>2020-10-17T11:12:39Z</time>
      </trkpt>
      <trkpt lat="46.2056" lon="4.53676">
        <ele>622.4</ele>
        <time>2020-10-17T11:12:40Z</time>
      </trkpt>
      <trkpt lat="46.20557" lon="4.53676">
        <ele>622.4</ele>
        <time>2020-10-17T11:12:41Z</time>
      </trkpt>
      <trkpt lat="46.20555" lon="4.53677">
        <ele>622.4</ele>
        <time>2020-10-17T11:12:42Z</time>
      </trkpt>
      <trkpt lat="46.20552" lon="4.53676">
        <ele>622.6</ele>
        <time>2020-10-17T11:12:43Z</time>
      </trkpt>
      <trkpt lat="46.2055" lon="4.53676">
        <ele>622.6</ele>
        <time>2020-10-17T11:12:44Z</time>
      </trkpt>
      <trkpt lat="46.20548" lon="4.53677">
        <ele>622.8</ele>
        <time>2020-10-17T11:12:45Z</time>
      </trkpt>
      <trkpt lat="46.20545" lon="4.53677">
        <ele>623</ele>
        <time>2020-10-17T11:12:46Z</time>
      </trkpt>
      <trkpt lat="46.20543" lon="4.53678">
        <ele>622.8</ele>
        <time>2020-10-17T11:12:47Z</time>
      </trkpt>
      <trkpt lat="46.2054" lon="4.53678">
        <ele>622.6</ele>
        <time>2020-10-17T11:12:48Z</time>
      </trkpt>
      <trkpt lat="46.20538" lon="4.53678">
        <ele>623</ele>
        <time>2020-10-17T11:12:49Z</time>
      </trkpt>
      <trkpt lat="46.20535" lon="4.53678">
        <ele>622.6</ele>
        <time>2020-10-17T11:12:50Z</time>
      </trkpt>
      <trkpt lat="46.20533" lon="4.53677">
        <ele>622.4</ele>
        <time>2020-10-17T11:12:51Z</time>
      </trkpt>
      <trkpt lat="46.2053" lon="4.53677">
        <ele>622.8</ele>
        <time>2020-10-17T11:12:52Z</time>
      </trkpt>
      <trkpt lat="46.20527" lon="4.53677">
        <ele>622.2</ele>
        <time>2020-10-17T11:12:53Z</time>
      </trkpt>
      <trkpt lat="46.20525" lon="4.53677">
        <ele>622</ele>
        <time>2020-10-17T11:12:54Z</time>
      </trkpt>
      <trkpt lat="46.20522" lon="4.53677">
        <ele>622.4</ele>
        <time>2020-10-17T11:12:55Z</time>
      </trkpt>
      <trkpt lat="46.2052" lon="4.53677">
        <ele>622</ele>
        <time>2020-10-17T11:12:56Z</time>
      </trkpt>
      <trkpt lat="46.20518" lon="4.53677">
        <ele>622</ele>
        <time>2020-10-17T11:12:57Z</time>
      </trkpt>
      <trkpt lat="46.20515" lon="4.53677">
        <ele>622.2</ele>
        <time>2020-10-17T11:12:58Z</time>
      </trkpt>
      <trkpt lat="46.20513" lon="4.53678">
        <ele>622</ele>
        <time>2020-10-17T11:12:59Z</time>
      </trkpt>
      <trkpt lat="46.20511" lon="4.53678">
        <ele>622</ele>
        <time>2020-10-17T11:13:00Z</time>
      </trkpt>
      <trkpt lat="46.20509" lon="4.53679">
        <ele>622.4</ele>
        <time>2020-10-17T11:13:01Z</time>
      </trkpt>
      <trkpt lat="46.20506" lon="4.5368">
        <ele>621.8</ele>
        <time>2020-10-17T11:13:02Z</time>
      </trkpt>
      <trkpt lat="46.20504" lon="4.53681">
        <ele>621.6</ele>
        <time>2020-10-17T11:13:03Z</time>
      </trkpt>
      <trkpt lat="46.20502" lon="4.53682">
        <ele>622</ele>
        <time>2020-10-17T11:13:04Z</time>
      </trkpt>
      <trkpt lat="46.20499" lon="4.53682">
        <ele>621.8</ele>
        <time>2020-10-17T11:13:05Z</time>
      </trkpt>
      <trkpt lat="46.20497" lon="4.53682">
        <ele>621.4</ele>
        <time>2020-10-17T11:13:06Z</time>
      </trkpt>
      <trkpt lat="46.20494" lon="4.53682">
        <ele>621.8</ele>
        <time>2020-10-17T11:13:07Z</time>
      </trkpt>
      <trkpt lat="46.20492" lon="4.53682">
        <ele>621.8</ele>
        <time>2020-10-17T11:13:08Z</time>
      </trkpt>
      <trkpt lat="46.20489" lon="4.53682">
        <ele>621.6</ele>
        <time>2020-10-17T11:13:09Z</time>
      </trkpt>
      <trkpt lat="46.20486" lon="4.53682">
        <ele>622</ele>
        <time>2020-10-17T11:13:10Z</time>
      </trkpt>
      <trkpt lat="46.20484" lon="4.53682">
        <ele>622.2</ele>
        <time>2020-10-17T11:13:11Z</time>
      </trkpt>
      <trkpt lat="46.20482" lon="4.53682">
        <ele>622</ele>
        <time>2020-10-17T11:13:12Z</time>
      </trkpt>
      <trkpt lat="46.20479" lon="4.53682">
        <ele>622.4</ele>
        <time>2020-10-17T11:13:13Z</time>
      </trkpt>
      <trkpt lat="46.20477" lon="4.53681">
        <ele>622.4</ele>
        <time>2020-10-17T11:13:14Z</time>
      </trkpt>
      <trkpt lat="46.20473" lon="4.53681">
        <ele>622</ele>
        <time>2020-10-17T11:13:15Z</time>
      </trkpt>
      <trkpt lat="46.20473" lon="4.53681">
        <ele>622.6</ele>
        <time>2020-10-17T11:13:16Z</time>
      </trkpt>
      <trkpt lat="46.20467" lon="4.5368">
        <ele>622.6</ele>
        <time>2020-10-17T11:13:17Z</time>
      </trkpt>
      <trkpt lat="46.20464" lon="4.5368">
        <ele>622</ele>
        <time>2020-10-17T11:13:18Z</time>
      </trkpt>
      <trkpt lat="46.20462" lon="4.53679">
        <ele>622.4</ele>
        <time>2020-10-17T11:13:19Z</time>
      </trkpt>
      <trkpt lat="46.20462" lon="4.53679">
        <ele>622.2</ele>
        <time>2020-10-17T11:13:20Z</time>
      </trkpt>
      <trkpt lat="46.20462" lon="4.53679">
        <ele>622</ele>
        <time>2020-10-17T11:13:21Z</time>
      </trkpt>
      <trkpt lat="46.20462" lon="4.53679">
        <ele>622.4</ele>
        <time>2020-10-17T11:13:22Z</time>
      </trkpt>
      <trkpt lat="46.20449" lon="4.53679">
        <ele>622.6</ele>
        <time>2020-10-17T11:13:23Z</time>
      </trkpt>
      <trkpt lat="46.20448" lon="4.53678">
        <ele>622.2</ele>
        <time>2020-10-17T11:13:24Z</time>
      </trkpt>
      <trkpt lat="46.20447" lon="4.53678">
        <ele>622.6</ele>
        <time>2020-10-17T11:13:25Z</time>
      </trkpt>
      <trkpt lat="46.20446" lon="4.53678">
        <ele>622.8</ele>
        <time>2020-10-17T11:13:26Z</time>
      </trkpt>
      <trkpt lat="46.20446" lon="4.53678">
        <ele>622.6</ele>
        <time>2020-10-17T11:13:27Z</time>
      </trkpt>
      <trkpt lat="46.20434" lon="4.53677">
        <ele>622.8</ele>
        <time>2020-10-17T11:13:28Z</time>
      </trkpt>
      <trkpt lat="46.20432" lon="4.53677">
        <ele>622.8</ele>
        <time>2020-10-17T11:13:29Z</time>
      </trkpt>
      <trkpt lat="46.20431" lon="4.53677">
        <ele>622.4</ele>
        <time>2020-10-17T11:13:30Z</time>
      </trkpt>
      <trkpt lat="46.2043" lon="4.53677">
        <ele>622.8</ele>
        <time>2020-10-17T11:13:31Z</time>
      </trkpt>
      <trkpt lat="46.20422" lon="4.53676">
        <ele>622.8</ele>
        <time>2020-10-17T11:13:32Z</time>
      </trkpt>
      <trkpt lat="46.2042" lon="4.53675">
        <ele>622.6</ele>
        <time>2020-10-17T11:13:33Z</time>
      </trkpt>
      <trkpt lat="46.20418" lon="4.53674">
        <ele>623</ele>
        <time>2020-10-17T11:13:34Z</time>
      </trkpt>
      <trkpt lat="46.20416" lon="4.53673">
        <ele>623.2</ele>
        <time>2020-10-17T11:13:35Z</time>
      </trkpt>
      <trkpt lat="46.20413" lon="4.53673">
        <ele>623.2</ele>
        <time>2020-10-17T11:13:36Z</time>
      </trkpt>
      <trkpt lat="46.20411" lon="4.53672">
        <ele>623.4</ele>
        <time>2020-10-17T11:13:37Z</time>
      </trkpt>
      <trkpt lat="46.20408" lon="4.53672">
        <ele>623.4</ele>
        <time>2020-10-17T11:13:38Z</time>
      </trkpt>
      <trkpt lat="46.20406" lon="4.53672">
        <ele>623</ele>
        <time>2020-10-17T11:13:39Z</time>
      </trkpt>
      <trkpt lat="46.20404" lon="4.53671">
        <ele>623.2</ele>
        <time>2020-10-17T11:13:40Z</time>
      </trkpt>
      <trkpt lat="46.20401" lon="4.53671">
        <ele>623.2</ele>
        <time>2020-10-17T11:13:41Z</time>
      </trkpt>
      <trkpt lat="46.20398" lon="4.53671">
        <ele>622.8</ele>
        <time>2020-10-17T11:13:42Z</time>
      </trkpt>
      <trkpt lat="46.20398" lon="4.53671">
        <ele>623.2</ele>
        <time>2020-10-17T11:13:43Z</time>
      </trkpt>
      <trkpt lat="46.20398" lon="4.53671">
        <ele>623.4</ele>
        <time>2020-10-17T11:13:44Z</time>
      </trkpt>
      <trkpt lat="46.20391" lon="4.53672">
        <ele>622.8</ele>
        <time>2020-10-17T11:13:45Z</time>
      </trkpt>
      <trkpt lat="46.20387" lon="4.53673">
        <ele>623.4</ele>
        <time>2020-10-17T11:13:46Z</time>
      </trkpt>
      <trkpt lat="46.20385" lon="4.53673">
        <ele>623.2</ele>
        <time>2020-10-17T11:13:47Z</time>
      </trkpt>
      <trkpt lat="46.20383" lon="4.53673">
        <ele>622.8</ele>
        <time>2020-10-17T11:13:48Z</time>
      </trkpt>
      <trkpt lat="46.20381" lon="4.53672">
        <ele>623.2</ele>
        <time>2020-10-17T11:13:49Z</time>
      </trkpt>
      <trkpt lat="46.20378" lon="4.53672">
        <ele>623.2</ele>
        <time>2020-10-17T11:13:50Z</time>
      </trkpt>
      <trkpt lat="46.20376" lon="4.53672">
        <ele>623</ele>
        <time>2020-10-17T11:13:51Z</time>
      </trkpt>
      <trkpt lat="46.20374" lon="4.53672">
        <ele>623.6</ele>
        <time>2020-10-17T11:13:52Z</time>
      </trkpt>
      <trkpt lat="46.20371" lon="4.53672">
        <ele>623.2</ele>
        <time>2020-10-17T11:13:53Z</time>
      </trkpt>
      <trkpt lat="46.20369" lon="4.53671">
        <ele>622.8</ele>
        <time>2020-10-17T11:13:54Z</time>
      </trkpt>
      <trkpt lat="46.20366" lon="4.53671">
        <ele>623.2</ele>
        <time>2020-10-17T11:13:55Z</time>
      </trkpt>
      <trkpt lat="46.20364" lon="4.53671">
        <ele>623</ele>
        <time>2020-10-17T11:13:56Z</time>
      </trkpt>
      <trkpt lat="46.20361" lon="4.53672">
        <ele>623.2</ele>
        <time>2020-10-17T11:13:57Z</time>
      </trkpt>
      <trkpt lat="46.20359" lon="4.53673">
        <ele>623.4</ele>
        <time>2020-10-17T11:13:58Z</time>
      </trkpt>
      <trkpt lat="46.20359" lon="4.53673">
        <ele>623</ele>
        <time>2020-10-17T11:13:59Z</time>
      </trkpt>
      <trkpt lat="46.20359" lon="4.53673">
        <ele>622.8</ele>
        <time>2020-10-17T11:14:00Z</time>
      </trkpt>
      <trkpt lat="46.20359" lon="4.53673">
        <ele>623.2</ele>
        <time>2020-10-17T11:14:01Z</time>
      </trkpt>
      <trkpt lat="46.20347" lon="4.5367">
        <ele>623</ele>
        <time>2020-10-17T11:14:02Z</time>
      </trkpt>
      <trkpt lat="46.20345" lon="4.53669">
        <ele>622.8</ele>
        <time>2020-10-17T11:14:03Z</time>
      </trkpt>
      <trkpt lat="46.20343" lon="4.53668">
        <ele>623</ele>
        <time>2020-10-17T11:14:04Z</time>
      </trkpt>
      <trkpt lat="46.20341" lon="4.53667">
        <ele>622.8</ele>
        <time>2020-10-17T11:14:05Z</time>
      </trkpt>
      <trkpt lat="46.20338" lon="4.53665">
        <ele>622.6</ele>
        <time>2020-10-17T11:14:06Z</time>
      </trkpt>
      <trkpt lat="46.20335" lon="4.53664">
        <ele>622.6</ele>
        <time>2020-10-17T11:14:07Z</time>
      </trkpt>
      <trkpt lat="46.20333" lon="4.53663">
        <ele>622.6</ele>
        <time>2020-10-17T11:14:08Z</time>
      </trkpt>
      <trkpt lat="46.2033" lon="4.53663">
        <ele>622.8</ele>
        <time>2020-10-17T11:14:09Z</time>
      </trkpt>
      <trkpt lat="46.2033" lon="4.53663">
        <ele>622.6</ele>
        <time>2020-10-17T11:14:10Z</time>
      </trkpt>
      <trkpt lat="46.20327" lon="4.53661">
        <ele>622.4</ele>
        <time>2020-10-17T11:14:11Z</time>
      </trkpt>
      <trkpt lat="46.20327" lon="4.53661">
        <ele>622.4</ele>
        <time>2020-10-17T11:14:12Z</time>
      </trkpt>
      <trkpt lat="46.20324" lon="4.5366">
        <ele>622.2</ele>
        <time>2020-10-17T11:14:13Z</time>
      </trkpt>
      <trkpt lat="46.20324" lon="4.5366">
        <ele>622.2</ele>
        <time>2020-10-17T11:14:14Z</time>
      </trkpt>
      <trkpt lat="46.2032" lon="4.53661">
        <ele>622.2</ele>
        <time>2020-10-17T11:14:15Z</time>
      </trkpt>
      <trkpt lat="46.2032" lon="4.53661">
        <ele>622.2</ele>
        <time>2020-10-17T11:14:16Z</time>
      </trkpt>
      <trkpt lat="46.20317" lon="4.5366">
        <ele>622.4</ele>
        <time>2020-10-17T11:14:17Z</time>
      </trkpt>
      <trkpt lat="46.20317" lon="4.5366">
        <ele>622.4</ele>
        <time>2020-10-17T11:14:18Z</time>
      </trkpt>
      <trkpt lat="46.20315" lon="4.5366">
        <ele>622.4</ele>
        <time>2020-10-17T11:14:19Z</time>
      </trkpt>
      <trkpt lat="46.20315" lon="4.5366">
        <ele>622.6</ele>
        <time>2020-10-17T11:14:20Z</time>
      </trkpt>
      <trkpt lat="46.20313" lon="4.53659">
        <ele>622.6</ele>
        <time>2020-10-17T11:14:21Z</time>
      </trkpt>
      <trkpt lat="46.20313" lon="4.53659">
        <ele>622.8</ele>
        <time>2020-10-17T11:14:22Z</time>
      </trkpt>
      <trkpt lat="46.20311" lon="4.53659">
        <ele>623</ele>
        <time>2020-10-17T11:14:23Z</time>
      </trkpt>
      <trkpt lat="46.20311" lon="4.53659">
        <ele>623</ele>
        <time>2020-10-17T11:14:24Z</time>
      </trkpt>
      <trkpt lat="46.20308" lon="4.53659">
        <ele>623.2</ele>
        <time>2020-10-17T11:14:25Z</time>
      </trkpt>
      <trkpt lat="46.20308" lon="4.53659">
        <ele>623.4</ele>
        <time>2020-10-17T11:14:26Z</time>
      </trkpt>
      <trkpt lat="46.20306" lon="4.53658">
        <ele>623.4</ele>
        <time>2020-10-17T11:14:27Z</time>
      </trkpt>
      <trkpt lat="46.20306" lon="4.53658">
        <ele>623.8</ele>
        <time>2020-10-17T11:14:28Z</time>
      </trkpt>
      <trkpt lat="46.20303" lon="4.53657">
        <ele>624</ele>
        <time>2020-10-17T11:14:29Z</time>
      </trkpt>
      <trkpt lat="46.20303" lon="4.53657">
        <ele>624.4</ele>
        <time>2020-10-17T11:14:30Z</time>
      </trkpt>
      <trkpt lat="46.203" lon="4.53656">
        <ele>624.6</ele>
        <time>2020-10-17T11:14:31Z</time>
      </trkpt>
      <trkpt lat="46.203" lon="4.53656">
        <ele>624.8</ele>
        <time>2020-10-17T11:14:32Z</time>
      </trkpt>
      <trkpt lat="46.20297" lon="4.53655">
        <ele>624.8</ele>
        <time>2020-10-17T11:14:33Z</time>
      </trkpt>
      <trkpt lat="46.20297" lon="4.53655">
        <ele>625</ele>
        <time>2020-10-17T11:14:34Z</time>
      </trkpt>
      <trkpt lat="46.20296" lon="4.53653">
        <ele>625</ele>
        <time>2020-10-17T11:14:35Z</time>
      </trkpt>
      <trkpt lat="46.20296" lon="4.53653">
        <ele>625.2</ele>
        <time>2020-10-17T11:14:36Z</time>
      </trkpt>
      <trkpt lat="46.20294" lon="4.53652">
        <ele>625.2</ele>
        <time>2020-10-17T11:14:37Z</time>
      </trkpt>
      <trkpt lat="46.20294" lon="4.53652">
        <ele>625.2</ele>
        <time>2020-10-17T11:14:38Z</time>
      </trkpt>
      <trkpt lat="46.20292" lon="4.5365">
        <ele>625.2</ele>
        <time>2020-10-17T11:14:39Z</time>
      </trkpt>
      <trkpt lat="46.20292" lon="4.5365">
        <ele>625.4</ele>
        <time>2020-10-17T11:14:40Z</time>
      </trkpt>
      <trkpt lat="46.20292" lon="4.5365">
        <ele>625.4</ele>
        <time>2020-10-17T11:14:41Z</time>
      </trkpt>
      <trkpt lat="46.20288" lon="4.53647">
        <ele>625.6</ele>
        <time>2020-10-17T11:14:42Z</time>
      </trkpt>
      <trkpt lat="46.20287" lon="4.53646">
        <ele>625.6</ele>
        <time>2020-10-17T11:14:43Z</time>
      </trkpt>
      <trkpt lat="46.20286" lon="4.53645">
        <ele>626</ele>
        <time>2020-10-17T11:14:44Z</time>
      </trkpt>
      <trkpt lat="46.20286" lon="4.53645">
        <ele>626.2</ele>
        <time>2020-10-17T11:14:45Z</time>
      </trkpt>
      <trkpt lat="46.20286" lon="4.53645">
        <ele>626.4</ele>
        <time>2020-10-17T11:14:46Z</time>
      </trkpt>
      <trkpt lat="46.20286" lon="4.53645">
        <ele>626.6</ele>
        <time>2020-10-17T11:14:47Z</time>
      </trkpt>
      <trkpt lat="46.20284" lon="4.53643">
        <ele>627</ele>
        <time>2020-10-17T11:14:48Z</time>
      </trkpt>
      <trkpt lat="46.20283" lon="4.53642">
        <ele>627</ele>
        <time>2020-10-17T11:14:49Z</time>
      </trkpt>
      <trkpt lat="46.20282" lon="4.5364">
        <ele>627.4</ele>
        <time>2020-10-17T11:14:50Z</time>
      </trkpt>
      <trkpt lat="46.20281" lon="4.53638">
        <ele>627.4</ele>
        <time>2020-10-17T11:14:51Z</time>
      </trkpt>
      <trkpt lat="46.2028" lon="4.53637">
        <ele>627.6</ele>
        <time>2020-10-17T11:14:52Z</time>
      </trkpt>
      <trkpt lat="46.20279" lon="4.53635">
        <ele>628</ele>
        <time>2020-10-17T11:14:53Z</time>
      </trkpt>
      <trkpt lat="46.20278" lon="4.53633">
        <ele>628.2</ele>
        <time>2020-10-17T11:14:54Z</time>
      </trkpt>
      <trkpt lat="46.20277" lon="4.53632">
        <ele>628.6</ele>
        <time>2020-10-17T11:14:55Z</time>
      </trkpt>
      <trkpt lat="46.20276" lon="4.5363">
        <ele>628.8</ele>
        <time>2020-10-17T11:14:56Z</time>
      </trkpt>
      <trkpt lat="46.20275" lon="4.53628">
        <ele>629.2</ele>
        <time>2020-10-17T11:14:57Z</time>
      </trkpt>
      <trkpt lat="46.20274" lon="4.53626">
        <ele>629.2</ele>
        <time>2020-10-17T11:14:58Z</time>
      </trkpt>
      <trkpt lat="46.20272" lon="4.53624">
        <ele>629.4</ele>
        <time>2020-10-17T11:14:59Z</time>
      </trkpt>
      <trkpt lat="46.20271" lon="4.53622">
        <ele>629.6</ele>
        <time>2020-10-17T11:15:00Z</time>
      </trkpt>
      <trkpt lat="46.2027" lon="4.5362">
        <ele>629.8</ele>
        <time>2020-10-17T11:15:01Z</time>
      </trkpt>
      <trkpt lat="46.20269" lon="4.53618">
        <ele>630</ele>
        <time>2020-10-17T11:15:02Z</time>
      </trkpt>
      <trkpt lat="46.20268" lon="4.53615">
        <ele>630.2</ele>
        <time>2020-10-17T11:15:03Z</time>
      </trkpt>
      <trkpt lat="46.20267" lon="4.53613">
        <ele>630.4</ele>
        <time>2020-10-17T11:15:04Z</time>
      </trkpt>
      <trkpt lat="46.20266" lon="4.53611">
        <ele>630.6</ele>
        <time>2020-10-17T11:15:05Z</time>
      </trkpt>
      <trkpt lat="46.20266" lon="4.53611">
        <ele>630.8</ele>
        <time>2020-10-17T11:15:06Z</time>
      </trkpt>
      <trkpt lat="46.20266" lon="4.53611">
        <ele>631.2</ele>
        <time>2020-10-17T11:15:07Z</time>
      </trkpt>
      <trkpt lat="46.20262" lon="4.53604">
        <ele>631.6</ele>
        <time>2020-10-17T11:15:08Z</time>
      </trkpt>
      <trkpt lat="46.20261" lon="4.53603">
        <ele>631.6</ele>
        <time>2020-10-17T11:15:09Z</time>
      </trkpt>
      <trkpt lat="46.20261" lon="4.53601">
        <ele>632</ele>
        <time>2020-10-17T11:15:10Z</time>
      </trkpt>
      <trkpt lat="46.2026" lon="4.536">
        <ele>632.2</ele>
        <time>2020-10-17T11:15:11Z</time>
      </trkpt>
      <trkpt lat="46.2026" lon="4.536">
        <ele>632.4</ele>
        <time>2020-10-17T11:15:12Z</time>
      </trkpt>
      <trkpt lat="46.2026" lon="4.536">
        <ele>632.2</ele>
        <time>2020-10-17T11:15:13Z</time>
      </trkpt>
      <trkpt lat="46.20258" lon="4.53596">
        <ele>632.2</ele>
        <time>2020-10-17T11:15:14Z</time>
      </trkpt>
      <trkpt lat="46.20257" lon="4.53594">
        <ele>632.4</ele>
        <time>2020-10-17T11:15:15Z</time>
      </trkpt>
      <trkpt lat="46.20257" lon="4.53594">
        <ele>632.6</ele>
        <time>2020-10-17T11:15:16Z</time>
      </trkpt>
      <trkpt lat="46.20257" lon="4.53594">
        <ele>632.8</ele>
        <time>2020-10-17T11:15:17Z</time>
      </trkpt>
      <trkpt lat="46.20257" lon="4.53594">
        <ele>633</ele>
        <time>2020-10-17T11:15:18Z</time>
      </trkpt>
      <trkpt lat="46.20255" lon="4.53593">
        <ele>633</ele>
        <time>2020-10-17T11:15:19Z</time>
      </trkpt>
      <trkpt lat="46.20254" lon="4.53591">
        <ele>633.4</ele>
        <time>2020-10-17T11:15:20Z</time>
      </trkpt>
      <trkpt lat="46.20252" lon="4.5359">
        <ele>633.6</ele>
        <time>2020-10-17T11:15:21Z</time>
      </trkpt>
      <trkpt lat="46.20251" lon="4.53589">
        <ele>634</ele>
        <time>2020-10-17T11:15:22Z</time>
      </trkpt>
      <trkpt lat="46.2025" lon="4.53587">
        <ele>634</ele>
        <time>2020-10-17T11:15:23Z</time>
      </trkpt>
      <trkpt lat="46.20248" lon="4.53586">
        <ele>634</ele>
        <time>2020-10-17T11:15:24Z</time>
      </trkpt>
      <trkpt lat="46.20246" lon="4.53583">
        <ele>633.8</ele>
        <time>2020-10-17T11:15:25Z</time>
      </trkpt>
      <trkpt lat="46.20244" lon="4.5358">
        <ele>634</ele>
        <time>2020-10-17T11:15:26Z</time>
      </trkpt>
      <trkpt lat="46.20242" lon="4.53577">
        <ele>634.4</ele>
        <time>2020-10-17T11:15:27Z</time>
      </trkpt>
      <trkpt lat="46.2024" lon="4.53575">
        <ele>634.6</ele>
        <time>2020-10-17T11:15:28Z</time>
      </trkpt>
      <trkpt lat="46.20238" lon="4.53572">
        <ele>635</ele>
        <time>2020-10-17T11:15:29Z</time>
      </trkpt>
      <trkpt lat="46.20236" lon="4.53569">
        <ele>635.2</ele>
        <time>2020-10-17T11:15:30Z</time>
      </trkpt>
      <trkpt lat="46.20236" lon="4.53569">
        <ele>635.4</ele>
        <time>2020-10-17T11:15:31Z</time>
      </trkpt>
      <trkpt lat="46.20235" lon="4.53565">
        <ele>635.6</ele>
        <time>2020-10-17T11:15:32Z</time>
      </trkpt>
      <trkpt lat="46.20235" lon="4.53565">
        <ele>635.6</ele>
        <time>2020-10-17T11:15:33Z</time>
      </trkpt>
      <trkpt lat="46.20233" lon="4.53561">
        <ele>635.8</ele>
        <time>2020-10-17T11:15:34Z</time>
      </trkpt>
      <trkpt lat="46.20233" lon="4.53561">
        <ele>636.2</ele>
        <time>2020-10-17T11:15:35Z</time>
      </trkpt>
      <trkpt lat="46.20231" lon="4.53558">
        <ele>635.8</ele>
        <time>2020-10-17T11:15:36Z</time>
      </trkpt>
      <trkpt lat="46.20231" lon="4.53558">
        <ele>636</ele>
        <time>2020-10-17T11:15:37Z</time>
      </trkpt>
      <trkpt lat="46.2023" lon="4.53555">
        <ele>636.2</ele>
        <time>2020-10-17T11:15:38Z</time>
      </trkpt>
      <trkpt lat="46.2023" lon="4.53555">
        <ele>636.6</ele>
        <time>2020-10-17T11:15:39Z</time>
      </trkpt>
      <trkpt lat="46.20227" lon="4.53553">
        <ele>636.8</ele>
        <time>2020-10-17T11:15:40Z</time>
      </trkpt>
      <trkpt lat="46.20227" lon="4.53553">
        <ele>636.8</ele>
        <time>2020-10-17T11:15:41Z</time>
      </trkpt>
      <trkpt lat="46.20226" lon="4.53551">
        <ele>636.8</ele>
        <time>2020-10-17T11:15:42Z</time>
      </trkpt>
      <trkpt lat="46.20226" lon="4.53551">
        <ele>637</ele>
        <time>2020-10-17T11:15:43Z</time>
      </trkpt>
      <trkpt lat="46.20224" lon="4.53548">
        <ele>637.4</ele>
        <time>2020-10-17T11:15:44Z</time>
      </trkpt>
      <trkpt lat="46.20224" lon="4.53548">
        <ele>637.4</ele>
        <time>2020-10-17T11:15:45Z</time>
      </trkpt>
      <trkpt lat="46.20222" lon="4.53545">
        <ele>637.8</ele>
        <time>2020-10-17T11:15:46Z</time>
      </trkpt>
      <trkpt lat="46.20222" lon="4.53545">
        <ele>638</ele>
        <time>2020-10-17T11:15:47Z</time>
      </trkpt>
      <trkpt lat="46.2022" lon="4.53541">
        <ele>638</ele>
        <time>2020-10-17T11:15:48Z</time>
      </trkpt>
      <trkpt lat="46.2022" lon="4.53541">
        <ele>638.2</ele>
        <time>2020-10-17T11:15:49Z</time>
      </trkpt>
      <trkpt lat="46.20219" lon="4.53537">
        <ele>638.4</ele>
        <time>2020-10-17T11:15:50Z</time>
      </trkpt>
      <trkpt lat="46.20219" lon="4.53537">
        <ele>638.2</ele>
        <time>2020-10-17T11:15:51Z</time>
      </trkpt>
      <trkpt lat="46.20217" lon="4.53533">
        <ele>638.6</ele>
        <time>2020-10-17T11:15:52Z</time>
      </trkpt>
      <trkpt lat="46.20217" lon="4.53533">
        <ele>639</ele>
        <time>2020-10-17T11:15:53Z</time>
      </trkpt>
      <trkpt lat="46.20215" lon="4.53529">
        <ele>639.2</ele>
        <time>2020-10-17T11:15:54Z</time>
      </trkpt>
      <trkpt lat="46.20215" lon="4.53529">
        <ele>639.4</ele>
        <time>2020-10-17T11:15:55Z</time>
      </trkpt>
      <trkpt lat="46.20214" lon="4.53525">
        <ele>639.6</ele>
        <time>2020-10-17T11:15:56Z</time>
      </trkpt>
      <trkpt lat="46.20214" lon="4.53525">
        <ele>639.6</ele>
        <time>2020-10-17T11:15:57Z</time>
      </trkpt>
      <trkpt lat="46.20213" lon="4.53521">
        <ele>639.8</ele>
        <time>2020-10-17T11:15:58Z</time>
      </trkpt>
      <trkpt lat="46.20213" lon="4.53521">
        <ele>640</ele>
        <time>2020-10-17T11:15:59Z</time>
      </trkpt>
      <trkpt lat="46.20212" lon="4.53518">
        <ele>640.6</ele>
        <time>2020-10-17T11:16:00Z</time>
      </trkpt>
      <trkpt lat="46.20212" lon="4.53518">
        <ele>640.6</ele>
        <time>2020-10-17T11:16:01Z</time>
      </trkpt>
      <trkpt lat="46.20211" lon="4.53515">
        <ele>641</ele>
        <time>2020-10-17T11:16:02Z</time>
      </trkpt>
      <trkpt lat="46.20211" lon="4.53515">
        <ele>641.2</ele>
        <time>2020-10-17T11:16:03Z</time>
      </trkpt>
      <trkpt lat="46.2021" lon="4.53512">
        <ele>641.2</ele>
        <time>2020-10-17T11:16:04Z</time>
      </trkpt>
      <trkpt lat="46.2021" lon="4.53512">
        <ele>641.2</ele>
        <time>2020-10-17T11:16:05Z</time>
      </trkpt>
      <trkpt lat="46.2021" lon="4.53512">
        <ele>641.6</ele>
        <time>2020-10-17T11:16:06Z</time>
      </trkpt>
      <trkpt lat="46.20207" lon="4.53507">
        <ele>641.8</ele>
        <time>2020-10-17T11:16:07Z</time>
      </trkpt>
      <trkpt lat="46.20206" lon="4.53506">
        <ele>642</ele>
        <time>2020-10-17T11:16:08Z</time>
      </trkpt>
      <trkpt lat="46.20206" lon="4.53505">
        <ele>642</ele>
        <time>2020-10-17T11:16:09Z</time>
      </trkpt>
      <trkpt lat="46.20205" lon="4.53504">
        <ele>642.4</ele>
        <time>2020-10-17T11:16:10Z</time>
      </trkpt>
      <trkpt lat="46.20203" lon="4.53501">
        <ele>642.6</ele>
        <time>2020-10-17T11:16:11Z</time>
      </trkpt>
      <trkpt lat="46.20203" lon="4.53501">
        <ele>642.8</ele>
        <time>2020-10-17T11:16:12Z</time>
      </trkpt>
      <trkpt lat="46.20201" lon="4.53498">
        <ele>643</ele>
        <time>2020-10-17T11:16:13Z</time>
      </trkpt>
      <trkpt lat="46.20201" lon="4.53498">
        <ele>643</ele>
        <time>2020-10-17T11:16:14Z</time>
      </trkpt>
      <trkpt lat="46.20201" lon="4.53498">
        <ele>643</ele>
        <time>2020-10-17T11:16:15Z</time>
      </trkpt>
      <trkpt lat="46.20201" lon="4.53498">
        <ele>643</ele>
        <time>2020-10-17T11:16:16Z</time>
      </trkpt>
      <trkpt lat="46.20203" lon="4.53497">
        <ele>643.2</ele>
        <time>2020-10-17T11:16:17Z</time>
      </trkpt>
      <trkpt lat="46.20203" lon="4.53497">
        <ele>643.4</ele>
        <time>2020-10-17T11:16:18Z</time>
      </trkpt>
      <trkpt lat="46.20203" lon="4.53497">
        <ele>643.6</ele>
        <time>2020-10-17T11:16:19Z</time>
      </trkpt>
      <trkpt lat="46.20203" lon="4.53497">
        <ele>643.6</ele>
        <time>2020-10-17T11:16:20Z</time>
      </trkpt>
      <trkpt lat="46.20203" lon="4.53497">
        <ele>643.6</ele>
        <time>2020-10-17T11:16:21Z</time>
      </trkpt>
      <trkpt lat="46.20203" lon="4.53497">
        <ele>643.6</ele>
        <time>2020-10-17T11:16:22Z</time>
      </trkpt>
      <trkpt lat="46.20203" lon="4.53497">
        <ele>643.6</ele>
        <time>2020-10-17T11:16:23Z</time>
      </trkpt>
      <trkpt lat="46.20203" lon="4.53497">
        <ele>643.6</ele>
        <time>2020-10-17T11:16:24Z</time>
      </trkpt>
      <trkpt lat="46.20203" lon="4.53497">
        <ele>643.4</ele>
        <time>2020-10-17T11:16:25Z</time>
      </trkpt>
      <trkpt lat="46.20203" lon="4.53497">
        <ele>643.6</ele>
        <time>2020-10-17T11:16:26Z</time>
      </trkpt>
      <trkpt lat="46.20203" lon="4.53497">
        <ele>643.6</ele>
        <time>2020-10-17T11:16:27Z</time>
      </trkpt>
      <trkpt lat="46.20203" lon="4.53497">
        <ele>643.8</ele>
        <time>2020-10-17T11:16:28Z</time>
      </trkpt>
      <trkpt lat="46.20203" lon="4.53494">
        <ele>643.8</ele>
        <time>2020-10-17T11:16:29Z</time>
      </trkpt>
      <trkpt lat="46.20203" lon="4.53494">
        <ele>643.8</ele>
        <time>2020-10-17T11:16:30Z</time>
      </trkpt>
      <trkpt lat="46.20203" lon="4.53494">
        <ele>643.8</ele>
        <time>2020-10-17T11:16:31Z</time>
      </trkpt>
      <trkpt lat="46.20203" lon="4.53494">
        <ele>643.8</ele>
        <time>2020-10-17T11:16:32Z</time>
      </trkpt>
      <trkpt lat="46.20203" lon="4.53494">
        <ele>643.8</ele>
        <time>2020-10-17T11:16:33Z</time>
      </trkpt>
      <trkpt lat="46.20204" lon="4.5349">
        <ele>643.8</ele>
        <time>2020-10-17T11:16:34Z</time>
      </trkpt>
      <trkpt lat="46.20204" lon="4.5349">
        <ele>643.8</ele>
        <time>2020-10-17T11:16:35Z</time>
      </trkpt>
      <trkpt lat="46.20204" lon="4.5349">
        <ele>643.8</ele>
        <time>2020-10-17T11:16:36Z</time>
      </trkpt>
      <trkpt lat="46.20204" lon="4.5349">
        <ele>643.8</ele>
        <time>2020-10-17T11:16:37Z</time>
      </trkpt>
      <trkpt lat="46.20201" lon="4.53488">
        <ele>643.6</ele>
        <time>2020-10-17T11:16:38Z</time>
      </trkpt>
      <trkpt lat="46.20201" lon="4.53488">
        <ele>643.4</ele>
        <time>2020-10-17T11:16:39Z</time>
      </trkpt>
      <trkpt lat="46.202" lon="4.53486">
        <ele>643.8</ele>
        <time>2020-10-17T11:16:40Z</time>
      </trkpt>
      <trkpt lat="46.202" lon="4.53486">
        <ele>643.8</ele>
        <time>2020-10-17T11:16:41Z</time>
      </trkpt>
      <trkpt lat="46.202" lon="4.53486">
        <ele>644</ele>
        <time>2020-10-17T11:16:42Z</time>
      </trkpt>
      <trkpt lat="46.20198" lon="4.53484">
        <ele>644</ele>
        <time>2020-10-17T11:16:43Z</time>
      </trkpt>
      <trkpt lat="46.20198" lon="4.53484">
        <ele>643.8</ele>
        <time>2020-10-17T11:16:44Z</time>
      </trkpt>
      <trkpt lat="46.20196" lon="4.53482">
        <ele>643.8</ele>
        <time>2020-10-17T11:16:45Z</time>
      </trkpt>
      <trkpt lat="46.20196" lon="4.53482">
        <ele>643.8</ele>
        <time>2020-10-17T11:16:46Z</time>
      </trkpt>
      <trkpt lat="46.20194" lon="4.53479">
        <ele>644</ele>
        <time>2020-10-17T11:16:47Z</time>
      </trkpt>
      <trkpt lat="46.20194" lon="4.53479">
        <ele>644.2</ele>
        <time>2020-10-17T11:16:48Z</time>
      </trkpt>
      <trkpt lat="46.20194" lon="4.53479">
        <ele>644.6</ele>
        <time>2020-10-17T11:16:49Z</time>
      </trkpt>
      <trkpt lat="46.20194" lon="4.53479">
        <ele>645</ele>
        <time>2020-10-17T11:16:50Z</time>
      </trkpt>
      <trkpt lat="46.20194" lon="4.53479">
        <ele>645</ele>
        <time>2020-10-17T11:16:51Z</time>
      </trkpt>
      <trkpt lat="46.20194" lon="4.53479">
        <ele>645.4</ele>
        <time>2020-10-17T11:16:52Z</time>
      </trkpt>
      <trkpt lat="46.20194" lon="4.53479">
        <ele>645.4</ele>
        <time>2020-10-17T11:16:53Z</time>
      </trkpt>
      <trkpt lat="46.20193" lon="4.53476">
        <ele>645.6</ele>
        <time>2020-10-17T11:16:54Z</time>
      </trkpt>
      <trkpt lat="46.20193" lon="4.53476">
        <ele>645.4</ele>
        <time>2020-10-17T11:16:55Z</time>
      </trkpt>
      <trkpt lat="46.20191" lon="4.53474">
        <ele>645.2</ele>
        <time>2020-10-17T11:16:56Z</time>
      </trkpt>
      <trkpt lat="46.20191" lon="4.53474">
        <ele>644.8</ele>
        <time>2020-10-17T11:16:57Z</time>
      </trkpt>
      <trkpt lat="46.20189" lon="4.53472">
        <ele>644.8</ele>
        <time>2020-10-17T11:16:58Z</time>
      </trkpt>
      <trkpt lat="46.20189" lon="4.53472">
        <ele>644.8</ele>
        <time>2020-10-17T11:16:59Z</time>
      </trkpt>
      <trkpt lat="46.20187" lon="4.53469">
        <ele>644.6</ele>
        <time>2020-10-17T11:17:00Z</time>
      </trkpt>
      <trkpt lat="46.20187" lon="4.53469">
        <ele>644.8</ele>
        <time>2020-10-17T11:17:01Z</time>
      </trkpt>
      <trkpt lat="46.20186" lon="4.53465">
        <ele>644.6</ele>
        <time>2020-10-17T11:17:02Z</time>
      </trkpt>
      <trkpt lat="46.20186" lon="4.53465">
        <ele>644.8</ele>
        <time>2020-10-17T11:17:03Z</time>
      </trkpt>
      <trkpt lat="46.20185" lon="4.53462">
        <ele>644.8</ele>
        <time>2020-10-17T11:17:04Z</time>
      </trkpt>
      <trkpt lat="46.20185" lon="4.53462">
        <ele>644.8</ele>
        <time>2020-10-17T11:17:05Z</time>
      </trkpt>
      <trkpt lat="46.20183" lon="4.53459">
        <ele>644.6</ele>
        <time>2020-10-17T11:17:06Z</time>
      </trkpt>
      <trkpt lat="46.20183" lon="4.53459">
        <ele>644.8</ele>
        <time>2020-10-17T11:17:07Z</time>
      </trkpt>
      <trkpt lat="46.20183" lon="4.53459">
        <ele>644.6</ele>
        <time>2020-10-17T11:17:08Z</time>
      </trkpt>
      <trkpt lat="46.20182" lon="4.53454">
        <ele>644.8</ele>
        <time>2020-10-17T11:17:09Z</time>
      </trkpt>
      <trkpt lat="46.20182" lon="4.53454">
        <ele>644.8</ele>
        <time>2020-10-17T11:17:10Z</time>
      </trkpt>
      <trkpt lat="46.20181" lon="4.53452">
        <ele>644.6</ele>
        <time>2020-10-17T11:17:11Z</time>
      </trkpt>
      <trkpt lat="46.20179" lon="4.53449">
        <ele>644.8</ele>
        <time>2020-10-17T11:17:12Z</time>
      </trkpt>
      <trkpt lat="46.20179" lon="4.53449">
        <ele>644.8</ele>
        <time>2020-10-17T11:17:13Z</time>
      </trkpt>
      <trkpt lat="46.20179" lon="4.53447">
        <ele>644.8</ele>
        <time>2020-10-17T11:17:14Z</time>
      </trkpt>
      <trkpt lat="46.20179" lon="4.53444">
        <ele>644.6</ele>
        <time>2020-10-17T11:17:15Z</time>
      </trkpt>
      <trkpt lat="46.20179" lon="4.53444">
        <ele>644.6</ele>
        <time>2020-10-17T11:17:16Z</time>
      </trkpt>
      <trkpt lat="46.20179" lon="4.53444">
        <ele>644.8</ele>
        <time>2020-10-17T11:17:17Z</time>
      </trkpt>
      <trkpt lat="46.20179" lon="4.53444">
        <ele>644.8</ele>
        <time>2020-10-17T11:17:18Z</time>
      </trkpt>
      <trkpt lat="46.20174" lon="4.53431">
        <ele>645</ele>
        <time>2020-10-17T11:17:19Z</time>
      </trkpt>
      <trkpt lat="46.20174" lon="4.5343">
        <ele>645</ele>
        <time>2020-10-17T11:17:20Z</time>
      </trkpt>
      <trkpt lat="46.20173" lon="4.53429">
        <ele>644.8</ele>
        <time>2020-10-17T11:17:21Z</time>
      </trkpt>
      <trkpt lat="46.20173" lon="4.53427">
        <ele>644.8</ele>
        <time>2020-10-17T11:17:22Z</time>
      </trkpt>
      <trkpt lat="46.20173" lon="4.53427">
        <ele>645</ele>
        <time>2020-10-17T11:17:23Z</time>
      </trkpt>
      <trkpt lat="46.20173" lon="4.53427">
        <ele>645</ele>
        <time>2020-10-17T11:17:24Z</time>
      </trkpt>
      <trkpt lat="46.20172" lon="4.53425">
        <ele>645.4</ele>
        <time>2020-10-17T11:17:25Z</time>
      </trkpt>
      <trkpt lat="46.20171" lon="4.53422">
        <ele>645.2</ele>
        <time>2020-10-17T11:17:26Z</time>
      </trkpt>
      <trkpt lat="46.2017" lon="4.53419">
        <ele>645.6</ele>
        <time>2020-10-17T11:17:27Z</time>
      </trkpt>
      <trkpt lat="46.20169" lon="4.53417">
        <ele>645.6</ele>
        <time>2020-10-17T11:17:28Z</time>
      </trkpt>
      <trkpt lat="46.20168" lon="4.53414">
        <ele>645.4</ele>
        <time>2020-10-17T11:17:29Z</time>
      </trkpt>
      <trkpt lat="46.20164" lon="4.53403">
        <ele>645.4</ele>
        <time>2020-10-17T11:17:30Z</time>
      </trkpt>
      <trkpt lat="46.20164" lon="4.53403">
        <ele>645.2</ele>
        <time>2020-10-17T11:17:31Z</time>
      </trkpt>
      <trkpt lat="46.20164" lon="4.53403">
        <ele>645.4</ele>
        <time>2020-10-17T11:17:32Z</time>
      </trkpt>
      <trkpt lat="46.20164" lon="4.53403">
        <ele>645.2</ele>
        <time>2020-10-17T11:17:33Z</time>
      </trkpt>
      <trkpt lat="46.20158" lon="4.53392">
        <ele>645.2</ele>
        <time>2020-10-17T11:17:34Z</time>
      </trkpt>
      <trkpt lat="46.20158" lon="4.53392">
        <ele>645.4</ele>
        <time>2020-10-17T11:17:35Z</time>
      </trkpt>
      <trkpt lat="46.20158" lon="4.53392">
        <ele>645.4</ele>
        <time>2020-10-17T11:17:36Z</time>
      </trkpt>
      <trkpt lat="46.20158" lon="4.53392">
        <ele>645.4</ele>
        <time>2020-10-17T11:17:37Z</time>
      </trkpt>
      <trkpt lat="46.20153" lon="4.53381">
        <ele>645.4</ele>
        <time>2020-10-17T11:17:38Z</time>
      </trkpt>
      <trkpt lat="46.20153" lon="4.53381">
        <ele>645.2</ele>
        <time>2020-10-17T11:17:39Z</time>
      </trkpt>
      <trkpt lat="46.20153" lon="4.53381">
        <ele>645.4</ele>
        <time>2020-10-17T11:17:40Z</time>
      </trkpt>
      <trkpt lat="46.20153" lon="4.53381">
        <ele>645.6</ele>
        <time>2020-10-17T11:17:41Z</time>
      </trkpt>
      <trkpt lat="46.20146" lon="4.53365">
        <ele>645.4</ele>
        <time>2020-10-17T11:17:42Z</time>
      </trkpt>
      <trkpt lat="46.20146" lon="4.53363">
        <ele>645.4</ele>
        <time>2020-10-17T11:17:43Z</time>
      </trkpt>
      <trkpt lat="46.20145" lon="4.53362">
        <ele>645</ele>
        <time>2020-10-17T11:17:44Z</time>
      </trkpt>
      <trkpt lat="46.20144" lon="4.5336">
        <ele>644.8</ele>
        <time>2020-10-17T11:17:45Z</time>
      </trkpt>
      <trkpt lat="46.20142" lon="4.53353">
        <ele>645</ele>
        <time>2020-10-17T11:17:46Z</time>
      </trkpt>
      <trkpt lat="46.20142" lon="4.53353">
        <ele>644.4</ele>
        <time>2020-10-17T11:17:47Z</time>
      </trkpt>
      <trkpt lat="46.20142" lon="4.53353">
        <ele>644.4</ele>
        <time>2020-10-17T11:17:48Z</time>
      </trkpt>
      <trkpt lat="46.20139" lon="4.53337">
        <ele>644.6</ele>
        <time>2020-10-17T11:17:49Z</time>
      </trkpt>
      <trkpt lat="46.20139" lon="4.53335">
        <ele>644.2</ele>
        <time>2020-10-17T11:17:50Z</time>
      </trkpt>
      <trkpt lat="46.20138" lon="4.53334">
        <ele>644.2</ele>
        <time>2020-10-17T11:17:51Z</time>
      </trkpt>
      <trkpt lat="46.20138" lon="4.53332">
        <ele>644.6</ele>
        <time>2020-10-17T11:17:52Z</time>
      </trkpt>
      <trkpt lat="46.20137" lon="4.53322">
        <ele>644.2</ele>
        <time>2020-10-17T11:17:53Z</time>
      </trkpt>
      <trkpt lat="46.20136" lon="4.53321">
        <ele>644.4</ele>
        <time>2020-10-17T11:17:54Z</time>
      </trkpt>
      <trkpt lat="46.20136" lon="4.53319">
        <ele>644.8</ele>
        <time>2020-10-17T11:17:55Z</time>
      </trkpt>
      <trkpt lat="46.20136" lon="4.53317">
        <ele>644.6</ele>
        <time>2020-10-17T11:17:56Z</time>
      </trkpt>
      <trkpt lat="46.20134" lon="4.53311">
        <ele>644.4</ele>
        <time>2020-10-17T11:17:57Z</time>
      </trkpt>
      <trkpt lat="46.20134" lon="4.53311">
        <ele>644.8</ele>
        <time>2020-10-17T11:17:58Z</time>
      </trkpt>
      <trkpt lat="46.20134" lon="4.53311">
        <ele>644.8</ele>
        <time>2020-10-17T11:17:59Z</time>
      </trkpt>
      <trkpt lat="46.20134" lon="4.53311">
        <ele>644.8</ele>
        <time>2020-10-17T11:18:00Z</time>
      </trkpt>
      <trkpt lat="46.20131" lon="4.53295">
        <ele>645.2</ele>
        <time>2020-10-17T11:18:01Z</time>
      </trkpt>
      <trkpt lat="46.2013" lon="4.53294">
        <ele>645.2</ele>
        <time>2020-10-17T11:18:02Z</time>
      </trkpt>
      <trkpt lat="46.2013" lon="4.53293">
        <ele>645.2</ele>
        <time>2020-10-17T11:18:03Z</time>
      </trkpt>
      <trkpt lat="46.20129" lon="4.53291">
        <ele>645.6</ele>
        <time>2020-10-17T11:18:04Z</time>
      </trkpt>
      <trkpt lat="46.20129" lon="4.53291">
        <ele>645.6</ele>
        <time>2020-10-17T11:18:05Z</time>
      </trkpt>
      <trkpt lat="46.20129" lon="4.53291">
        <ele>645.8</ele>
        <time>2020-10-17T11:18:06Z</time>
      </trkpt>
      <trkpt lat="46.20123" lon="4.53277">
        <ele>645.4</ele>
        <time>2020-10-17T11:18:07Z</time>
      </trkpt>
      <trkpt lat="46.20122" lon="4.53275">
        <ele>645.4</ele>
        <time>2020-10-17T11:18:08Z</time>
      </trkpt>
      <trkpt lat="46.20121" lon="4.53273">
        <ele>645.6</ele>
        <time>2020-10-17T11:18:09Z</time>
      </trkpt>
      <trkpt lat="46.20121" lon="4.53271">
        <ele>645.6</ele>
        <time>2020-10-17T11:18:10Z</time>
      </trkpt>
      <trkpt lat="46.20119" lon="4.53268">
        <ele>645.8</ele>
        <time>2020-10-17T11:18:11Z</time>
      </trkpt>
      <trkpt lat="46.20119" lon="4.53265">
        <ele>646</ele>
        <time>2020-10-17T11:18:12Z</time>
      </trkpt>
      <trkpt lat="46.20119" lon="4.53262">
        <ele>646.2</ele>
        <time>2020-10-17T11:18:13Z</time>
      </trkpt>
      <trkpt lat="46.20117" lon="4.53258">
        <ele>646.2</ele>
        <time>2020-10-17T11:18:14Z</time>
      </trkpt>
      <trkpt lat="46.20116" lon="4.53255">
        <ele>646.4</ele>
        <time>2020-10-17T11:18:15Z</time>
      </trkpt>
      <trkpt lat="46.20114" lon="4.53251">
        <ele>646.2</ele>
        <time>2020-10-17T11:18:16Z</time>
      </trkpt>
      <trkpt lat="46.20113" lon="4.53248">
        <ele>646.2</ele>
        <time>2020-10-17T11:18:17Z</time>
      </trkpt>
      <trkpt lat="46.20112" lon="4.53245">
        <ele>646.4</ele>
        <time>2020-10-17T11:18:18Z</time>
      </trkpt>
      <trkpt lat="46.20111" lon="4.53241">
        <ele>646.2</ele>
        <time>2020-10-17T11:18:19Z</time>
      </trkpt>
      <trkpt lat="46.20109" lon="4.53237">
        <ele>646.2</ele>
        <time>2020-10-17T11:18:20Z</time>
      </trkpt>
      <trkpt lat="46.20108" lon="4.53233">
        <ele>646.6</ele>
        <time>2020-10-17T11:18:21Z</time>
      </trkpt>
      <trkpt lat="46.20106" lon="4.5323">
        <ele>646.4</ele>
        <time>2020-10-17T11:18:22Z</time>
      </trkpt>
      <trkpt lat="46.20105" lon="4.53226">
        <ele>646.2</ele>
        <time>2020-10-17T11:18:23Z</time>
      </trkpt>
      <trkpt lat="46.20104" lon="4.53222">
        <ele>646.4</ele>
        <time>2020-10-17T11:18:24Z</time>
      </trkpt>
      <trkpt lat="46.20103" lon="4.53218">
        <ele>646.4</ele>
        <time>2020-10-17T11:18:25Z</time>
      </trkpt>
      <trkpt lat="46.20102" lon="4.53214">
        <ele>646.4</ele>
        <time>2020-10-17T11:18:26Z</time>
      </trkpt>
      <trkpt lat="46.20102" lon="4.53209">
        <ele>646.6</ele>
        <time>2020-10-17T11:18:27Z</time>
      </trkpt>
      <trkpt lat="46.20102" lon="4.53205">
        <ele>646.4</ele>
        <time>2020-10-17T11:18:28Z</time>
      </trkpt>
      <trkpt lat="46.20101" lon="4.53203">
        <ele>646.4</ele>
        <time>2020-10-17T11:18:29Z</time>
      </trkpt>
      <trkpt lat="46.201" lon="4.532">
        <ele>646.6</ele>
        <time>2020-10-17T11:18:30Z</time>
      </trkpt>
      <trkpt lat="46.20099" lon="4.53196">
        <ele>646.4</ele>
        <time>2020-10-17T11:18:31Z</time>
      </trkpt>
      <trkpt lat="46.20098" lon="4.53192">
        <ele>646.2</ele>
        <time>2020-10-17T11:18:32Z</time>
      </trkpt>
      <trkpt lat="46.20098" lon="4.53188">
        <ele>646.4</ele>
        <time>2020-10-17T11:18:33Z</time>
      </trkpt>
      <trkpt lat="46.20097" lon="4.53185">
        <ele>646.2</ele>
        <time>2020-10-17T11:18:34Z</time>
      </trkpt>
      <trkpt lat="46.20097" lon="4.53182">
        <ele>646.2</ele>
        <time>2020-10-17T11:18:35Z</time>
      </trkpt>
      <trkpt lat="46.20095" lon="4.53179">
        <ele>646.2</ele>
        <time>2020-10-17T11:18:36Z</time>
      </trkpt>
      <trkpt lat="46.20094" lon="4.53177">
        <ele>646.2</ele>
        <time>2020-10-17T11:18:37Z</time>
      </trkpt>
      <trkpt lat="46.20093" lon="4.53175">
        <ele>646.6</ele>
        <time>2020-10-17T11:18:38Z</time>
      </trkpt>
      <trkpt lat="46.20092" lon="4.53172">
        <ele>646.4</ele>
        <time>2020-10-17T11:18:39Z</time>
      </trkpt>
      <trkpt lat="46.20091" lon="4.5317">
        <ele>646.6</ele>
        <time>2020-10-17T11:18:40Z</time>
      </trkpt>
      <trkpt lat="46.20089" lon="4.53166">
        <ele>647</ele>
        <time>2020-10-17T11:18:41Z</time>
      </trkpt>
      <trkpt lat="46.20088" lon="4.53163">
        <ele>647.2</ele>
        <time>2020-10-17T11:18:42Z</time>
      </trkpt>
      <trkpt lat="46.20088" lon="4.53159">
        <ele>647.2</ele>
        <time>2020-10-17T11:18:43Z</time>
      </trkpt>
      <trkpt lat="46.20087" lon="4.53155">
        <ele>647.4</ele>
        <time>2020-10-17T11:18:44Z</time>
      </trkpt>
      <trkpt lat="46.20086" lon="4.53152">
        <ele>647.2</ele>
        <time>2020-10-17T11:18:45Z</time>
      </trkpt>
      <trkpt lat="46.20085" lon="4.53147">
        <ele>647</ele>
        <time>2020-10-17T11:18:46Z</time>
      </trkpt>
      <trkpt lat="46.20084" lon="4.53143">
        <ele>647.2</ele>
        <time>2020-10-17T11:18:47Z</time>
      </trkpt>
      <trkpt lat="46.20084" lon="4.5314">
        <ele>647.2</ele>
        <time>2020-10-17T11:18:48Z</time>
      </trkpt>
      <trkpt lat="46.20082" lon="4.53137">
        <ele>647.4</ele>
        <time>2020-10-17T11:18:49Z</time>
      </trkpt>
      <trkpt lat="46.20081" lon="4.53133">
        <ele>647.4</ele>
        <time>2020-10-17T11:18:50Z</time>
      </trkpt>
      <trkpt lat="46.2008" lon="4.5313">
        <ele>647.4</ele>
        <time>2020-10-17T11:18:51Z</time>
      </trkpt>
      <trkpt lat="46.2008" lon="4.5313">
        <ele>647.6</ele>
        <time>2020-10-17T11:18:52Z</time>
      </trkpt>
      <trkpt lat="46.20079" lon="4.53125">
        <ele>648</ele>
        <time>2020-10-17T11:18:53Z</time>
      </trkpt>
      <trkpt lat="46.20079" lon="4.53125">
        <ele>647.6</ele>
        <time>2020-10-17T11:18:54Z</time>
      </trkpt>
      <trkpt lat="46.20078" lon="4.5312">
        <ele>648</ele>
        <time>2020-10-17T11:18:55Z</time>
      </trkpt>
      <trkpt lat="46.20078" lon="4.5312">
        <ele>648.4</ele>
        <time>2020-10-17T11:18:56Z</time>
      </trkpt>
      <trkpt lat="46.20077" lon="4.53117">
        <ele>648.6</ele>
        <time>2020-10-17T11:18:57Z</time>
      </trkpt>
      <trkpt lat="46.20077" lon="4.53117">
        <ele>648.8</ele>
        <time>2020-10-17T11:18:58Z</time>
      </trkpt>
      <trkpt lat="46.20076" lon="4.53114">
        <ele>649</ele>
        <time>2020-10-17T11:18:59Z</time>
      </trkpt>
      <trkpt lat="46.20076" lon="4.53114">
        <ele>649.2</ele>
        <time>2020-10-17T11:19:00Z</time>
      </trkpt>
      <trkpt lat="46.20075" lon="4.53111">
        <ele>649.2</ele>
        <time>2020-10-17T11:19:01Z</time>
      </trkpt>
      <trkpt lat="46.20075" lon="4.53111">
        <ele>649.6</ele>
        <time>2020-10-17T11:19:02Z</time>
      </trkpt>
      <trkpt lat="46.20073" lon="4.53107">
        <ele>649.4</ele>
        <time>2020-10-17T11:19:03Z</time>
      </trkpt>
      <trkpt lat="46.20073" lon="4.53107">
        <ele>649.6</ele>
        <time>2020-10-17T11:19:04Z</time>
      </trkpt>
      <trkpt lat="46.20073" lon="4.53102">
        <ele>649.6</ele>
        <time>2020-10-17T11:19:05Z</time>
      </trkpt>
      <trkpt lat="46.20073" lon="4.53099">
        <ele>649.8</ele>
        <time>2020-10-17T11:19:06Z</time>
      </trkpt>
      <trkpt lat="46.20073" lon="4.53096">
        <ele>650</ele>
        <time>2020-10-17T11:19:07Z</time>
      </trkpt>
      <trkpt lat="46.20073" lon="4.53093">
        <ele>650.2</ele>
        <time>2020-10-17T11:19:08Z</time>
      </trkpt>
      <trkpt lat="46.20073" lon="4.53093">
        <ele>650.2</ele>
        <time>2020-10-17T11:19:09Z</time>
      </trkpt>
      <trkpt lat="46.20073" lon="4.53093">
        <ele>650.2</ele>
        <time>2020-10-17T11:19:10Z</time>
      </trkpt>
      <trkpt lat="46.20073" lon="4.53093">
        <ele>650.4</ele>
        <time>2020-10-17T11:19:11Z</time>
      </trkpt>
      <trkpt lat="46.20072" lon="4.53081">
        <ele>650.6</ele>
        <time>2020-10-17T11:19:12Z</time>
      </trkpt>
      <trkpt lat="46.20072" lon="4.53079">
        <ele>651</ele>
        <time>2020-10-17T11:19:13Z</time>
      </trkpt>
      <trkpt lat="46.20072" lon="4.53077">
        <ele>651.2</ele>
        <time>2020-10-17T11:19:14Z</time>
      </trkpt>
      <trkpt lat="46.20072" lon="4.53075">
        <ele>651.2</ele>
        <time>2020-10-17T11:19:15Z</time>
      </trkpt>
      <trkpt lat="46.20072" lon="4.53073">
        <ele>651.6</ele>
        <time>2020-10-17T11:19:16Z</time>
      </trkpt>
      <trkpt lat="46.20071" lon="4.53072">
        <ele>652</ele>
        <time>2020-10-17T11:19:17Z</time>
      </trkpt>
      <trkpt lat="46.20071" lon="4.5307">
        <ele>652.2</ele>
        <time>2020-10-17T11:19:18Z</time>
      </trkpt>
      <trkpt lat="46.20071" lon="4.5307">
        <ele>652</ele>
        <time>2020-10-17T11:19:19Z</time>
      </trkpt>
      <trkpt lat="46.2007" lon="4.53064">
        <ele>652.2</ele>
        <time>2020-10-17T11:19:20Z</time>
      </trkpt>
      <trkpt lat="46.20069" lon="4.53062">
        <ele>652.4</ele>
        <time>2020-10-17T11:19:21Z</time>
      </trkpt>
      <trkpt lat="46.20069" lon="4.53061">
        <ele>652.6</ele>
        <time>2020-10-17T11:19:22Z</time>
      </trkpt>
      <trkpt lat="46.20069" lon="4.5306">
        <ele>653</ele>
        <time>2020-10-17T11:19:23Z</time>
      </trkpt>
      <trkpt lat="46.20068" lon="4.53055">
        <ele>653</ele>
        <time>2020-10-17T11:19:24Z</time>
      </trkpt>
      <trkpt lat="46.20068" lon="4.53055">
        <ele>653</ele>
        <time>2020-10-17T11:19:25Z</time>
      </trkpt>
      <trkpt lat="46.20066" lon="4.53051">
        <ele>653.4</ele>
        <time>2020-10-17T11:19:26Z</time>
      </trkpt>
      <trkpt lat="46.20066" lon="4.53051">
        <ele>653.6</ele>
        <time>2020-10-17T11:19:27Z</time>
      </trkpt>
      <trkpt lat="46.20065" lon="4.53047">
        <ele>653.8</ele>
        <time>2020-10-17T11:19:28Z</time>
      </trkpt>
      <trkpt lat="46.20065" lon="4.53047">
        <ele>653.6</ele>
        <time>2020-10-17T11:19:29Z</time>
      </trkpt>
      <trkpt lat="46.20064" lon="4.53043">
        <ele>653.8</ele>
        <time>2020-10-17T11:19:30Z</time>
      </trkpt>
      <trkpt lat="46.20064" lon="4.53043">
        <ele>654.2</ele>
        <time>2020-10-17T11:19:31Z</time>
      </trkpt>
      <trkpt lat="46.20063" lon="4.53038">
        <ele>654</ele>
        <time>2020-10-17T11:19:32Z</time>
      </trkpt>
      <trkpt lat="46.20063" lon="4.53035">
        <ele>654.6</ele>
        <time>2020-10-17T11:19:33Z</time>
      </trkpt>
      <trkpt lat="46.20063" lon="4.53035">
        <ele>654.6</ele>
        <time>2020-10-17T11:19:34Z</time>
      </trkpt>
      <trkpt lat="46.20063" lon="4.53031">
        <ele>654.8</ele>
        <time>2020-10-17T11:19:35Z</time>
      </trkpt>
      <trkpt lat="46.20063" lon="4.53031">
        <ele>654.8</ele>
        <time>2020-10-17T11:19:36Z</time>
      </trkpt>
      <trkpt lat="46.20064" lon="4.53028">
        <ele>654.8</ele>
        <time>2020-10-17T11:19:37Z</time>
      </trkpt>
      <trkpt lat="46.20064" lon="4.53028">
        <ele>654.8</ele>
        <time>2020-10-17T11:19:38Z</time>
      </trkpt>
      <trkpt lat="46.20065" lon="4.53023">
        <ele>654.8</ele>
        <time>2020-10-17T11:19:39Z</time>
      </trkpt>
      <trkpt lat="46.20066" lon="4.53021">
        <ele>655.2</ele>
        <time>2020-10-17T11:19:40Z</time>
      </trkpt>
      <trkpt lat="46.20066" lon="4.53021">
        <ele>655.2</ele>
        <time>2020-10-17T11:19:41Z</time>
      </trkpt>
      <trkpt lat="46.20067" lon="4.53017">
        <ele>655.4</ele>
        <time>2020-10-17T11:19:42Z</time>
      </trkpt>
      <trkpt lat="46.20067" lon="4.53017">
        <ele>656</ele>
        <time>2020-10-17T11:19:43Z</time>
      </trkpt>
      <trkpt lat="46.20067" lon="4.53017">
        <ele>656.4</ele>
        <time>2020-10-17T11:19:44Z</time>
      </trkpt>
      <trkpt lat="46.20067" lon="4.53017">
        <ele>656.4</ele>
        <time>2020-10-17T11:19:45Z</time>
      </trkpt>
      <trkpt lat="46.20069" lon="4.53014">
        <ele>656.6</ele>
        <time>2020-10-17T11:19:46Z</time>
      </trkpt>
      <trkpt lat="46.2007" lon="4.5301">
        <ele>656.4</ele>
        <time>2020-10-17T11:19:47Z</time>
      </trkpt>
      <trkpt lat="46.20071" lon="4.53007">
        <ele>656.4</ele>
        <time>2020-10-17T11:19:48Z</time>
      </trkpt>
      <trkpt lat="46.20072" lon="4.53004">
        <ele>656.8</ele>
        <time>2020-10-17T11:19:49Z</time>
      </trkpt>
      <trkpt lat="46.20073" lon="4.53001">
        <ele>656.8</ele>
        <time>2020-10-17T11:19:50Z</time>
      </trkpt>
      <trkpt lat="46.20074" lon="4.52997">
        <ele>656.8</ele>
        <time>2020-10-17T11:19:51Z</time>
      </trkpt>
      <trkpt lat="46.20074" lon="4.52997">
        <ele>657</ele>
        <time>2020-10-17T11:19:52Z</time>
      </trkpt>
      <trkpt lat="46.20074" lon="4.52997">
        <ele>657</ele>
        <time>2020-10-17T11:19:53Z</time>
      </trkpt>
      <trkpt lat="46.20074" lon="4.52997">
        <ele>657.2</ele>
        <time>2020-10-17T11:19:54Z</time>
      </trkpt>
      <trkpt lat="46.20074" lon="4.52994">
        <ele>657.4</ele>
        <time>2020-10-17T11:19:55Z</time>
      </trkpt>
      <trkpt lat="46.20075" lon="4.52991">
        <ele>657.4</ele>
        <time>2020-10-17T11:19:56Z</time>
      </trkpt>
      <trkpt lat="46.20075" lon="4.52988">
        <ele>657.6</ele>
        <time>2020-10-17T11:19:57Z</time>
      </trkpt>
      <trkpt lat="46.20075" lon="4.52985">
        <ele>657.6</ele>
        <time>2020-10-17T11:19:58Z</time>
      </trkpt>
      <trkpt lat="46.20076" lon="4.52982">
        <ele>658.2</ele>
        <time>2020-10-17T11:19:59Z</time>
      </trkpt>
      <trkpt lat="46.20076" lon="4.52979">
        <ele>658.4</ele>
        <time>2020-10-17T11:20:00Z</time>
      </trkpt>
      <trkpt lat="46.20077" lon="4.52975">
        <ele>658.4</ele>
        <time>2020-10-17T11:20:01Z</time>
      </trkpt>
      <trkpt lat="46.20077" lon="4.52975">
        <ele>658.6</ele>
        <time>2020-10-17T11:20:02Z</time>
      </trkpt>
      <trkpt lat="46.20078" lon="4.52971">
        <ele>658.6</ele>
        <time>2020-10-17T11:20:03Z</time>
      </trkpt>
      <trkpt lat="46.20079" lon="4.52969">
        <ele>658.8</ele>
        <time>2020-10-17T11:20:04Z</time>
      </trkpt>
      <trkpt lat="46.20079" lon="4.52969">
        <ele>658.8</ele>
        <time>2020-10-17T11:20:05Z</time>
      </trkpt>
      <trkpt lat="46.2008" lon="4.52964">
        <ele>658.8</ele>
        <time>2020-10-17T11:20:06Z</time>
      </trkpt>
      <trkpt lat="46.2008" lon="4.52964">
        <ele>659.2</ele>
        <time>2020-10-17T11:20:07Z</time>
      </trkpt>
      <trkpt lat="46.20081" lon="4.5296">
        <ele>659.2</ele>
        <time>2020-10-17T11:20:08Z</time>
      </trkpt>
      <trkpt lat="46.20081" lon="4.5296">
        <ele>659.6</ele>
        <time>2020-10-17T11:20:09Z</time>
      </trkpt>
      <trkpt lat="46.20081" lon="4.52956">
        <ele>659.8</ele>
        <time>2020-10-17T11:20:10Z</time>
      </trkpt>
      <trkpt lat="46.20081" lon="4.52956">
        <ele>659.8</ele>
        <time>2020-10-17T11:20:11Z</time>
      </trkpt>
      <trkpt lat="46.2008" lon="4.52951">
        <ele>660.2</ele>
        <time>2020-10-17T11:20:12Z</time>
      </trkpt>
      <trkpt lat="46.2008" lon="4.52951">
        <ele>660.2</ele>
        <time>2020-10-17T11:20:13Z</time>
      </trkpt>
      <trkpt lat="46.2008" lon="4.52946">
        <ele>660.6</ele>
        <time>2020-10-17T11:20:14Z</time>
      </trkpt>
      <trkpt lat="46.2008" lon="4.52946">
        <ele>660.8</ele>
        <time>2020-10-17T11:20:15Z</time>
      </trkpt>
      <trkpt lat="46.2008" lon="4.52943">
        <ele>660.8</ele>
        <time>2020-10-17T11:20:16Z</time>
      </trkpt>
      <trkpt lat="46.2008" lon="4.52943">
        <ele>661</ele>
        <time>2020-10-17T11:20:17Z</time>
      </trkpt>
      <trkpt lat="46.20081" lon="4.52938">
        <ele>661.2</ele>
        <time>2020-10-17T11:20:18Z</time>
      </trkpt>
      <trkpt lat="46.20081" lon="4.52938">
        <ele>661.6</ele>
        <time>2020-10-17T11:20:19Z</time>
      </trkpt>
      <trkpt lat="46.20081" lon="4.52934">
        <ele>661.8</ele>
        <time>2020-10-17T11:20:20Z</time>
      </trkpt>
      <trkpt lat="46.20081" lon="4.52934">
        <ele>662</ele>
        <time>2020-10-17T11:20:21Z</time>
      </trkpt>
      <trkpt lat="46.2008" lon="4.5293">
        <ele>662.2</ele>
        <time>2020-10-17T11:20:22Z</time>
      </trkpt>
      <trkpt lat="46.2008" lon="4.5293">
        <ele>662.4</ele>
        <time>2020-10-17T11:20:23Z</time>
      </trkpt>
      <trkpt lat="46.2008" lon="4.52925">
        <ele>663</ele>
        <time>2020-10-17T11:20:24Z</time>
      </trkpt>
      <trkpt lat="46.2008" lon="4.52925">
        <ele>663</ele>
        <time>2020-10-17T11:20:25Z</time>
      </trkpt>
      <trkpt lat="46.2008" lon="4.5292">
        <ele>663</ele>
        <time>2020-10-17T11:20:26Z</time>
      </trkpt>
      <trkpt lat="46.2008" lon="4.5292">
        <ele>663.8</ele>
        <time>2020-10-17T11:20:27Z</time>
      </trkpt>
      <trkpt lat="46.2008" lon="4.52916">
        <ele>664.2</ele>
        <time>2020-10-17T11:20:28Z</time>
      </trkpt>
      <trkpt lat="46.2008" lon="4.52916">
        <ele>664.4</ele>
        <time>2020-10-17T11:20:29Z</time>
      </trkpt>
      <trkpt lat="46.2008" lon="4.52911">
        <ele>664.6</ele>
        <time>2020-10-17T11:20:30Z</time>
      </trkpt>
      <trkpt lat="46.2008" lon="4.52911">
        <ele>664.8</ele>
        <time>2020-10-17T11:20:31Z</time>
      </trkpt>
      <trkpt lat="46.20079" lon="4.52907">
        <ele>664.8</ele>
        <time>2020-10-17T11:20:32Z</time>
      </trkpt>
      <trkpt lat="46.20079" lon="4.52907">
        <ele>664.8</ele>
        <time>2020-10-17T11:20:33Z</time>
      </trkpt>
      <trkpt lat="46.20078" lon="4.52903">
        <ele>665</ele>
        <time>2020-10-17T11:20:34Z</time>
      </trkpt>
      <trkpt lat="46.20078" lon="4.52903">
        <ele>665.2</ele>
        <time>2020-10-17T11:20:35Z</time>
      </trkpt>
      <trkpt lat="46.20077" lon="4.52898">
        <ele>665.2</ele>
        <time>2020-10-17T11:20:36Z</time>
      </trkpt>
      <trkpt lat="46.20076" lon="4.52896">
        <ele>665.6</ele>
        <time>2020-10-17T11:20:37Z</time>
      </trkpt>
      <trkpt lat="46.20076" lon="4.52896">
        <ele>665.8</ele>
        <time>2020-10-17T11:20:38Z</time>
      </trkpt>
      <trkpt lat="46.20075" lon="4.52891">
        <ele>665.8</ele>
        <time>2020-10-17T11:20:39Z</time>
      </trkpt>
      <trkpt lat="46.20075" lon="4.52888">
        <ele>665.8</ele>
        <time>2020-10-17T11:20:40Z</time>
      </trkpt>
      <trkpt lat="46.20075" lon="4.52888">
        <ele>666.2</ele>
        <time>2020-10-17T11:20:41Z</time>
      </trkpt>
      <trkpt lat="46.20074" lon="4.52884">
        <ele>666</ele>
        <time>2020-10-17T11:20:42Z</time>
      </trkpt>
      <trkpt lat="46.20073" lon="4.52881">
        <ele>666.2</ele>
        <time>2020-10-17T11:20:43Z</time>
      </trkpt>
      <trkpt lat="46.20072" lon="4.52878">
        <ele>666.4</ele>
        <time>2020-10-17T11:20:44Z</time>
      </trkpt>
      <trkpt lat="46.20071" lon="4.52876">
        <ele>666.4</ele>
        <time>2020-10-17T11:20:45Z</time>
      </trkpt>
      <trkpt lat="46.2007" lon="4.52873">
        <ele>666.4</ele>
        <time>2020-10-17T11:20:46Z</time>
      </trkpt>
      <trkpt lat="46.2007" lon="4.5287">
        <ele>666.6</ele>
        <time>2020-10-17T11:20:47Z</time>
      </trkpt>
      <trkpt lat="46.20068" lon="4.52868">
        <ele>666.6</ele>
        <time>2020-10-17T11:20:48Z</time>
      </trkpt>
      <trkpt lat="46.20067" lon="4.52865">
        <ele>666.6</ele>
        <time>2020-10-17T11:20:49Z</time>
      </trkpt>
      <trkpt lat="46.20066" lon="4.52863">
        <ele>666</ele>
        <time>2020-10-17T11:20:50Z</time>
      </trkpt>
      <trkpt lat="46.20065" lon="4.52859">
        <ele>666</ele>
        <time>2020-10-17T11:20:51Z</time>
      </trkpt>
      <trkpt lat="46.20064" lon="4.52857">
        <ele>666.2</ele>
        <time>2020-10-17T11:20:52Z</time>
      </trkpt>
      <trkpt lat="46.20063" lon="4.52854">
        <ele>665.8</ele>
        <time>2020-10-17T11:20:53Z</time>
      </trkpt>
      <trkpt lat="46.20062" lon="4.52851">
        <ele>666.2</ele>
        <time>2020-10-17T11:20:54Z</time>
      </trkpt>
      <trkpt lat="46.20062" lon="4.52848">
        <ele>666.4</ele>
        <time>2020-10-17T11:20:55Z</time>
      </trkpt>
      <trkpt lat="46.20061" lon="4.52846">
        <ele>666.4</ele>
        <time>2020-10-17T11:20:56Z</time>
      </trkpt>
      <trkpt lat="46.20061" lon="4.52843">
        <ele>666.8</ele>
        <time>2020-10-17T11:20:57Z</time>
      </trkpt>
      <trkpt lat="46.20061" lon="4.52839">
        <ele>666.8</ele>
        <time>2020-10-17T11:20:58Z</time>
      </trkpt>
      <trkpt lat="46.20061" lon="4.52839">
        <ele>666.8</ele>
        <time>2020-10-17T11:20:59Z</time>
      </trkpt>
      <trkpt lat="46.2006" lon="4.52833">
        <ele>667</ele>
        <time>2020-10-17T11:21:00Z</time>
      </trkpt>
      <trkpt lat="46.2006" lon="4.52833">
        <ele>666.8</ele>
        <time>2020-10-17T11:21:01Z</time>
      </trkpt>
      <trkpt lat="46.20059" lon="4.52828">
        <ele>666.8</ele>
        <time>2020-10-17T11:21:02Z</time>
      </trkpt>
      <trkpt lat="46.20059" lon="4.52828">
        <ele>667</ele>
        <time>2020-10-17T11:21:03Z</time>
      </trkpt>
      <trkpt lat="46.20057" lon="4.52824">
        <ele>667.2</ele>
        <time>2020-10-17T11:21:04Z</time>
      </trkpt>
      <trkpt lat="46.20057" lon="4.52824">
        <ele>667.2</ele>
        <time>2020-10-17T11:21:05Z</time>
      </trkpt>
      <trkpt lat="46.20054" lon="4.52818">
        <ele>667.4</ele>
        <time>2020-10-17T11:21:06Z</time>
      </trkpt>
      <trkpt lat="46.20053" lon="4.52815">
        <ele>667.4</ele>
        <time>2020-10-17T11:21:07Z</time>
      </trkpt>
      <trkpt lat="46.20053" lon="4.52812">
        <ele>667.4</ele>
        <time>2020-10-17T11:21:08Z</time>
      </trkpt>
      <trkpt lat="46.20052" lon="4.5281">
        <ele>667.8</ele>
        <time>2020-10-17T11:21:09Z</time>
      </trkpt>
      <trkpt lat="46.20052" lon="4.52806">
        <ele>667.4</ele>
        <time>2020-10-17T11:21:10Z</time>
      </trkpt>
      <trkpt lat="46.20052" lon="4.52806">
        <ele>667.4</ele>
        <time>2020-10-17T11:21:11Z</time>
      </trkpt>
      <trkpt lat="46.20052" lon="4.52806">
        <ele>667.6</ele>
        <time>2020-10-17T11:21:12Z</time>
      </trkpt>
      <trkpt lat="46.20052" lon="4.52806">
        <ele>667.4</ele>
        <time>2020-10-17T11:21:13Z</time>
      </trkpt>
      <trkpt lat="46.20052" lon="4.52801">
        <ele>667.4</ele>
        <time>2020-10-17T11:21:14Z</time>
      </trkpt>
      <trkpt lat="46.20052" lon="4.52796">
        <ele>667.8</ele>
        <time>2020-10-17T11:21:15Z</time>
      </trkpt>
      <trkpt lat="46.20052" lon="4.52791">
        <ele>667.8</ele>
        <time>2020-10-17T11:21:16Z</time>
      </trkpt>
      <trkpt lat="46.20052" lon="4.52786">
        <ele>667.8</ele>
        <time>2020-10-17T11:21:17Z</time>
      </trkpt>
      <trkpt lat="46.20052" lon="4.5278">
        <ele>668.4</ele>
        <time>2020-10-17T11:21:18Z</time>
      </trkpt>
      <trkpt lat="46.20051" lon="4.52779">
        <ele>668.2</ele>
        <time>2020-10-17T11:21:19Z</time>
      </trkpt>
      <trkpt lat="46.20051" lon="4.52779">
        <ele>668.4</ele>
        <time>2020-10-17T11:21:20Z</time>
      </trkpt>
      <trkpt lat="46.20051" lon="4.52779">
        <ele>668.8</ele>
        <time>2020-10-17T11:21:21Z</time>
      </trkpt>
      <trkpt lat="46.20049" lon="4.52763">
        <ele>669</ele>
        <time>2020-10-17T11:21:22Z</time>
      </trkpt>
      <trkpt lat="46.20049" lon="4.52761">
        <ele>668.8</ele>
        <time>2020-10-17T11:21:23Z</time>
      </trkpt>
      <trkpt lat="46.20048" lon="4.52759">
        <ele>669.4</ele>
        <time>2020-10-17T11:21:24Z</time>
      </trkpt>
      <trkpt lat="46.20047" lon="4.52757">
        <ele>669.2</ele>
        <time>2020-10-17T11:21:25Z</time>
      </trkpt>
      <trkpt lat="46.20047" lon="4.52754">
        <ele>669.4</ele>
        <time>2020-10-17T11:21:26Z</time>
      </trkpt>
      <trkpt lat="46.20047" lon="4.52751">
        <ele>669.8</ele>
        <time>2020-10-17T11:21:27Z</time>
      </trkpt>
      <trkpt lat="46.20047" lon="4.52751">
        <ele>669.2</ele>
        <time>2020-10-17T11:21:28Z</time>
      </trkpt>
      <trkpt lat="46.20047" lon="4.52746">
        <ele>669.6</ele>
        <time>2020-10-17T11:21:29Z</time>
      </trkpt>
      <trkpt lat="46.20047" lon="4.52746">
        <ele>670</ele>
        <time>2020-10-17T11:21:30Z</time>
      </trkpt>
      <trkpt lat="46.20047" lon="4.52746">
        <ele>669.8</ele>
        <time>2020-10-17T11:21:31Z</time>
      </trkpt>
      <trkpt lat="46.20047" lon="4.52746">
        <ele>670</ele>
        <time>2020-10-17T11:21:32Z</time>
      </trkpt>
      <trkpt lat="46.20048" lon="4.52742">
        <ele>670.4</ele>
        <time>2020-10-17T11:21:33Z</time>
      </trkpt>
      <trkpt lat="46.20049" lon="4.52738">
        <ele>670</ele>
        <time>2020-10-17T11:21:34Z</time>
      </trkpt>
      <trkpt lat="46.2005" lon="4.52733">
        <ele>670</ele>
        <time>2020-10-17T11:21:35Z</time>
      </trkpt>
      <trkpt lat="46.20052" lon="4.52729">
        <ele>670.4</ele>
        <time>2020-10-17T11:21:36Z</time>
      </trkpt>
      <trkpt lat="46.20053" lon="4.52725">
        <ele>670.2</ele>
        <time>2020-10-17T11:21:37Z</time>
      </trkpt>
      <trkpt lat="46.20053" lon="4.52718">
        <ele>670.4</ele>
        <time>2020-10-17T11:21:38Z</time>
      </trkpt>
      <trkpt lat="46.20053" lon="4.52718">
        <ele>670.6</ele>
        <time>2020-10-17T11:21:39Z</time>
      </trkpt>
      <trkpt lat="46.20053" lon="4.52718">
        <ele>670.4</ele>
        <time>2020-10-17T11:21:40Z</time>
      </trkpt>
      <trkpt lat="46.20053" lon="4.52718">
        <ele>670.4</ele>
        <time>2020-10-17T11:21:41Z</time>
      </trkpt>
      <trkpt lat="46.20055" lon="4.52701">
        <ele>670.8</ele>
        <time>2020-10-17T11:21:42Z</time>
      </trkpt>
      <trkpt lat="46.20055" lon="4.52699">
        <ele>671.2</ele>
        <time>2020-10-17T11:21:43Z</time>
      </trkpt>
      <trkpt lat="46.20056" lon="4.52697">
        <ele>671.2</ele>
        <time>2020-10-17T11:21:44Z</time>
      </trkpt>
      <trkpt lat="46.20056" lon="4.52696">
        <ele>671.4</ele>
        <time>2020-10-17T11:21:45Z</time>
      </trkpt>
      <trkpt lat="46.20056" lon="4.52689">
        <ele>670.8</ele>
        <time>2020-10-17T11:21:46Z</time>
      </trkpt>
      <trkpt lat="46.20056" lon="4.52689">
        <ele>670.8</ele>
        <time>2020-10-17T11:21:47Z</time>
      </trkpt>
      <trkpt lat="46.20056" lon="4.52689">
        <ele>671</ele>
        <time>2020-10-17T11:21:48Z</time>
      </trkpt>
      <trkpt lat="46.20056" lon="4.52684">
        <ele>671.6</ele>
        <time>2020-10-17T11:21:49Z</time>
      </trkpt>
      <trkpt lat="46.20057" lon="4.5268">
        <ele>671.6</ele>
        <time>2020-10-17T11:21:50Z</time>
      </trkpt>
      <trkpt lat="46.20057" lon="4.52675">
        <ele>671.8</ele>
        <time>2020-10-17T11:21:51Z</time>
      </trkpt>
      <trkpt lat="46.20058" lon="4.52671">
        <ele>671.2</ele>
        <time>2020-10-17T11:21:52Z</time>
      </trkpt>
      <trkpt lat="46.20058" lon="4.52666">
        <ele>671.2</ele>
        <time>2020-10-17T11:21:53Z</time>
      </trkpt>
      <trkpt lat="46.20058" lon="4.52659">
        <ele>671.6</ele>
        <time>2020-10-17T11:21:54Z</time>
      </trkpt>
      <trkpt lat="46.20058" lon="4.52659">
        <ele>671</ele>
        <time>2020-10-17T11:21:55Z</time>
      </trkpt>
      <trkpt lat="46.20058" lon="4.52659">
        <ele>671</ele>
        <time>2020-10-17T11:21:56Z</time>
      </trkpt>
      <trkpt lat="46.20058" lon="4.52659">
        <ele>671.2</ele>
        <time>2020-10-17T11:21:57Z</time>
      </trkpt>
      <trkpt lat="46.20058" lon="4.52656">
        <ele>671</ele>
        <time>2020-10-17T11:21:58Z</time>
      </trkpt>
      <trkpt lat="46.20059" lon="4.52653">
        <ele>671</ele>
        <time>2020-10-17T11:21:59Z</time>
      </trkpt>
      <trkpt lat="46.20059" lon="4.5265">
        <ele>671.4</ele>
        <time>2020-10-17T11:22:00Z</time>
      </trkpt>
      <trkpt lat="46.20059" lon="4.52647">
        <ele>671.4</ele>
        <time>2020-10-17T11:22:01Z</time>
      </trkpt>
      <trkpt lat="46.2006" lon="4.52644">
        <ele>671.6</ele>
        <time>2020-10-17T11:22:02Z</time>
      </trkpt>
      <trkpt lat="46.2006" lon="4.5264">
        <ele>672</ele>
        <time>2020-10-17T11:22:03Z</time>
      </trkpt>
      <trkpt lat="46.2006" lon="4.52635">
        <ele>672</ele>
        <time>2020-10-17T11:22:04Z</time>
      </trkpt>
      <trkpt lat="46.2006" lon="4.52631">
        <ele>671.8</ele>
        <time>2020-10-17T11:22:05Z</time>
      </trkpt>
      <trkpt lat="46.20061" lon="4.52626">
        <ele>672.4</ele>
        <time>2020-10-17T11:22:06Z</time>
      </trkpt>
      <trkpt lat="46.20061" lon="4.52622">
        <ele>672</ele>
        <time>2020-10-17T11:22:07Z</time>
      </trkpt>
      <trkpt lat="46.20061" lon="4.52621">
        <ele>671.8</ele>
        <time>2020-10-17T11:22:08Z</time>
      </trkpt>
      <trkpt lat="46.20061" lon="4.52621">
        <ele>672.2</ele>
        <time>2020-10-17T11:22:09Z</time>
      </trkpt>
      <trkpt lat="46.20061" lon="4.52621">
        <ele>672</ele>
        <time>2020-10-17T11:22:10Z</time>
      </trkpt>
      <trkpt lat="46.20062" lon="4.52618">
        <ele>672</ele>
        <time>2020-10-17T11:22:11Z</time>
      </trkpt>
      <trkpt lat="46.20063" lon="4.52616">
        <ele>672.4</ele>
        <time>2020-10-17T11:22:12Z</time>
      </trkpt>
      <trkpt lat="46.20064" lon="4.52614">
        <ele>672.2</ele>
        <time>2020-10-17T11:22:13Z</time>
      </trkpt>
      <trkpt lat="46.20064" lon="4.52612">
        <ele>671.6</ele>
        <time>2020-10-17T11:22:14Z</time>
      </trkpt>
      <trkpt lat="46.20065" lon="4.5261">
        <ele>672</ele>
        <time>2020-10-17T11:22:15Z</time>
      </trkpt>
      <trkpt lat="46.20066" lon="4.52607">
        <ele>672</ele>
        <time>2020-10-17T11:22:16Z</time>
      </trkpt>
      <trkpt lat="46.20067" lon="4.52605">
        <ele>671.8</ele>
        <time>2020-10-17T11:22:17Z</time>
      </trkpt>
      <trkpt lat="46.20068" lon="4.52602">
        <ele>672.2</ele>
        <time>2020-10-17T11:22:18Z</time>
      </trkpt>
      <trkpt lat="46.20069" lon="4.526">
        <ele>672</ele>
        <time>2020-10-17T11:22:19Z</time>
      </trkpt>
      <trkpt lat="46.2007" lon="4.52598">
        <ele>672.2</ele>
        <time>2020-10-17T11:22:20Z</time>
      </trkpt>
      <trkpt lat="46.20071" lon="4.52595">
        <ele>672.6</ele>
        <time>2020-10-17T11:22:21Z</time>
      </trkpt>
      <trkpt lat="46.20076" lon="4.52584">
        <ele>672.6</ele>
        <time>2020-10-17T11:22:22Z</time>
      </trkpt>
      <trkpt lat="46.20076" lon="4.52584">
        <ele>672.4</ele>
        <time>2020-10-17T11:22:23Z</time>
      </trkpt>
      <trkpt lat="46.20076" lon="4.52584">
        <ele>672.8</ele>
        <time>2020-10-17T11:22:24Z</time>
      </trkpt>
      <trkpt lat="46.20076" lon="4.52584">
        <ele>673</ele>
        <time>2020-10-17T11:22:25Z</time>
      </trkpt>
      <trkpt lat="46.20076" lon="4.5257">
        <ele>672.6</ele>
        <time>2020-10-17T11:22:26Z</time>
      </trkpt>
      <trkpt lat="46.20076" lon="4.5257">
        <ele>673</ele>
        <time>2020-10-17T11:22:27Z</time>
      </trkpt>
      <trkpt lat="46.20076" lon="4.5257">
        <ele>673</ele>
        <time>2020-10-17T11:22:28Z</time>
      </trkpt>
      <trkpt lat="46.20076" lon="4.5257">
        <ele>673</ele>
        <time>2020-10-17T11:22:29Z</time>
      </trkpt>
      <trkpt lat="46.20079" lon="4.52557">
        <ele>673.4</ele>
        <time>2020-10-17T11:22:30Z</time>
      </trkpt>
      <trkpt lat="46.20079" lon="4.52557">
        <ele>673.4</ele>
        <time>2020-10-17T11:22:31Z</time>
      </trkpt>
      <trkpt lat="46.20079" lon="4.52557">
        <ele>673.4</ele>
        <time>2020-10-17T11:22:32Z</time>
      </trkpt>
      <trkpt lat="46.20079" lon="4.52557">
        <ele>674</ele>
        <time>2020-10-17T11:22:33Z</time>
      </trkpt>
      <trkpt lat="46.2008" lon="4.52555">
        <ele>673.8</ele>
        <time>2020-10-17T11:22:34Z</time>
      </trkpt>
      <trkpt lat="46.20081" lon="4.52552">
        <ele>674</ele>
        <time>2020-10-17T11:22:35Z</time>
      </trkpt>
      <trkpt lat="46.20082" lon="4.52549">
        <ele>674.6</ele>
        <time>2020-10-17T11:22:36Z</time>
      </trkpt>
      <trkpt lat="46.20083" lon="4.52547">
        <ele>674.4</ele>
        <time>2020-10-17T11:22:37Z</time>
      </trkpt>
      <trkpt lat="46.20084" lon="4.52544">
        <ele>674.2</ele>
        <time>2020-10-17T11:22:38Z</time>
      </trkpt>
      <trkpt lat="46.20085" lon="4.5254">
        <ele>674.8</ele>
        <time>2020-10-17T11:22:39Z</time>
      </trkpt>
      <trkpt lat="46.20087" lon="4.52537">
        <ele>674.4</ele>
        <time>2020-10-17T11:22:40Z</time>
      </trkpt>
      <trkpt lat="46.20089" lon="4.52533">
        <ele>674.6</ele>
        <time>2020-10-17T11:22:41Z</time>
      </trkpt>
      <trkpt lat="46.20091" lon="4.52529">
        <ele>675</ele>
        <time>2020-10-17T11:22:42Z</time>
      </trkpt>
      <trkpt lat="46.20093" lon="4.52525">
        <ele>674.6</ele>
        <time>2020-10-17T11:22:43Z</time>
      </trkpt>
      <trkpt lat="46.20095" lon="4.52519">
        <ele>675.2</ele>
        <time>2020-10-17T11:22:44Z</time>
      </trkpt>
      <trkpt lat="46.20095" lon="4.52519">
        <ele>675.8</ele>
        <time>2020-10-17T11:22:45Z</time>
      </trkpt>
      <trkpt lat="46.20095" lon="4.52519">
        <ele>675.6</ele>
        <time>2020-10-17T11:22:46Z</time>
      </trkpt>
      <trkpt lat="46.20095" lon="4.52519">
        <ele>675.6</ele>
        <time>2020-10-17T11:22:47Z</time>
      </trkpt>
      <trkpt lat="46.20102" lon="4.52504">
        <ele>676.2</ele>
        <time>2020-10-17T11:22:48Z</time>
      </trkpt>
      <trkpt lat="46.20103" lon="4.52502">
        <ele>676</ele>
        <time>2020-10-17T11:22:49Z</time>
      </trkpt>
      <trkpt lat="46.20103" lon="4.525">
        <ele>676</ele>
        <time>2020-10-17T11:22:50Z</time>
      </trkpt>
      <trkpt lat="46.20103" lon="4.52499">
        <ele>676.2</ele>
        <time>2020-10-17T11:22:51Z</time>
      </trkpt>
      <trkpt lat="46.20105" lon="4.52492">
        <ele>676.4</ele>
        <time>2020-10-17T11:22:52Z</time>
      </trkpt>
      <trkpt lat="46.20105" lon="4.52492">
        <ele>676.2</ele>
        <time>2020-10-17T11:22:53Z</time>
      </trkpt>
      <trkpt lat="46.20105" lon="4.52492">
        <ele>676.2</ele>
        <time>2020-10-17T11:22:54Z</time>
      </trkpt>
      <trkpt lat="46.20106" lon="4.52479">
        <ele>676.2</ele>
        <time>2020-10-17T11:22:55Z</time>
      </trkpt>
      <trkpt lat="46.20106" lon="4.52479">
        <ele>675.8</ele>
        <time>2020-10-17T11:22:56Z</time>
      </trkpt>
      <trkpt lat="46.20106" lon="4.52479">
        <ele>675.6</ele>
        <time>2020-10-17T11:22:57Z</time>
      </trkpt>
      <trkpt lat="46.20106" lon="4.52479">
        <ele>675.8</ele>
        <time>2020-10-17T11:22:58Z</time>
      </trkpt>
      <trkpt lat="46.20107" lon="4.52475">
        <ele>675.4</ele>
        <time>2020-10-17T11:22:59Z</time>
      </trkpt>
      <trkpt lat="46.20108" lon="4.52471">
        <ele>674.8</ele>
        <time>2020-10-17T11:23:00Z</time>
      </trkpt>
      <trkpt lat="46.20109" lon="4.52467">
        <ele>674.8</ele>
        <time>2020-10-17T11:23:01Z</time>
      </trkpt>
      <trkpt lat="46.2011" lon="4.52463">
        <ele>674.4</ele>
        <time>2020-10-17T11:23:02Z</time>
      </trkpt>
      <trkpt lat="46.20111" lon="4.52458">
        <ele>674.2</ele>
        <time>2020-10-17T11:23:03Z</time>
      </trkpt>
      <trkpt lat="46.20113" lon="4.52449">
        <ele>674.2</ele>
        <time>2020-10-17T11:23:04Z</time>
      </trkpt>
      <trkpt lat="46.20114" lon="4.52446">
        <ele>673.8</ele>
        <time>2020-10-17T11:23:05Z</time>
      </trkpt>
      <trkpt lat="46.20115" lon="4.52443">
        <ele>673.6</ele>
        <time>2020-10-17T11:23:06Z</time>
      </trkpt>
      <trkpt lat="46.20117" lon="4.52437">
        <ele>673.8</ele>
        <time>2020-10-17T11:23:07Z</time>
      </trkpt>
      <trkpt lat="46.20118" lon="4.52431">
        <ele>673.4</ele>
        <time>2020-10-17T11:23:08Z</time>
      </trkpt>
      <trkpt lat="46.2012" lon="4.52426">
        <ele>673.2</ele>
        <time>2020-10-17T11:23:09Z</time>
      </trkpt>
      <trkpt lat="46.20122" lon="4.52422">
        <ele>673.6</ele>
        <time>2020-10-17T11:23:10Z</time>
      </trkpt>
      <trkpt lat="46.20123" lon="4.52417">
        <ele>673.4</ele>
        <time>2020-10-17T11:23:11Z</time>
      </trkpt>
      <trkpt lat="46.20123" lon="4.52417">
        <ele>673.4</ele>
        <time>2020-10-17T11:23:12Z</time>
      </trkpt>
      <trkpt lat="46.20123" lon="4.52417">
        <ele>673.8</ele>
        <time>2020-10-17T11:23:13Z</time>
      </trkpt>
      <trkpt lat="46.20123" lon="4.52417">
        <ele>673.4</ele>
        <time>2020-10-17T11:23:14Z</time>
      </trkpt>
      <trkpt lat="46.20126" lon="4.52404">
        <ele>673.4</ele>
        <time>2020-10-17T11:23:15Z</time>
      </trkpt>
      <trkpt lat="46.20126" lon="4.52404">
        <ele>673.8</ele>
        <time>2020-10-17T11:23:16Z</time>
      </trkpt>
      <trkpt lat="46.20126" lon="4.52404">
        <ele>673.4</ele>
        <time>2020-10-17T11:23:17Z</time>
      </trkpt>
      <trkpt lat="46.20126" lon="4.52404">
        <ele>673.6</ele>
        <time>2020-10-17T11:23:18Z</time>
      </trkpt>
      <trkpt lat="46.20128" lon="4.52387">
        <ele>674</ele>
        <time>2020-10-17T11:23:19Z</time>
      </trkpt>
      <trkpt lat="46.20128" lon="4.52387">
        <ele>673.6</ele>
        <time>2020-10-17T11:23:20Z</time>
      </trkpt>
      <trkpt lat="46.20128" lon="4.52387">
        <ele>673.6</ele>
        <time>2020-10-17T11:23:21Z</time>
      </trkpt>
      <trkpt lat="46.20128" lon="4.52387">
        <ele>674</ele>
        <time>2020-10-17T11:23:22Z</time>
      </trkpt>
      <trkpt lat="46.20128" lon="4.52384">
        <ele>673.2</ele>
        <time>2020-10-17T11:23:23Z</time>
      </trkpt>
      <trkpt lat="46.20128" lon="4.5238">
        <ele>673.4</ele>
        <time>2020-10-17T11:23:24Z</time>
      </trkpt>
      <trkpt lat="46.20128" lon="4.52377">
        <ele>673.8</ele>
        <time>2020-10-17T11:23:25Z</time>
      </trkpt>
      <trkpt lat="46.20128" lon="4.52374">
        <ele>673.6</ele>
        <time>2020-10-17T11:23:26Z</time>
      </trkpt>
      <trkpt lat="46.20128" lon="4.52371">
        <ele>673.6</ele>
        <time>2020-10-17T11:23:27Z</time>
      </trkpt>
      <trkpt lat="46.20128" lon="4.52368">
        <ele>673.8</ele>
        <time>2020-10-17T11:23:28Z</time>
      </trkpt>
      <trkpt lat="46.20128" lon="4.52365">
        <ele>673.2</ele>
        <time>2020-10-17T11:23:29Z</time>
      </trkpt>
      <trkpt lat="46.20128" lon="4.52362">
        <ele>673.4</ele>
        <time>2020-10-17T11:23:30Z</time>
      </trkpt>
      <trkpt lat="46.20128" lon="4.52359">
        <ele>673.8</ele>
        <time>2020-10-17T11:23:31Z</time>
      </trkpt>
      <trkpt lat="46.20128" lon="4.52356">
        <ele>673.4</ele>
        <time>2020-10-17T11:23:32Z</time>
      </trkpt>
      <trkpt lat="46.20133" lon="4.5234">
        <ele>673.8</ele>
        <time>2020-10-17T11:23:33Z</time>
      </trkpt>
      <trkpt lat="46.20133" lon="4.52338">
        <ele>674.2</ele>
        <time>2020-10-17T11:23:34Z</time>
      </trkpt>
      <trkpt lat="46.20134" lon="4.52335">
        <ele>674.2</ele>
        <time>2020-10-17T11:23:35Z</time>
      </trkpt>
      <trkpt lat="46.20135" lon="4.52333">
        <ele>674.6</ele>
        <time>2020-10-17T11:23:36Z</time>
      </trkpt>
      <trkpt lat="46.20136" lon="4.52329">
        <ele>674.8</ele>
        <time>2020-10-17T11:23:37Z</time>
      </trkpt>
      <trkpt lat="46.20136" lon="4.52329">
        <ele>674.8</ele>
        <time>2020-10-17T11:23:38Z</time>
      </trkpt>
      <trkpt lat="46.20137" lon="4.52323">
        <ele>675</ele>
        <time>2020-10-17T11:23:39Z</time>
      </trkpt>
      <trkpt lat="46.20138" lon="4.5232">
        <ele>675</ele>
        <time>2020-10-17T11:23:40Z</time>
      </trkpt>
      <trkpt lat="46.20138" lon="4.52317">
        <ele>675.4</ele>
        <time>2020-10-17T11:23:41Z</time>
      </trkpt>
      <trkpt lat="46.20138" lon="4.52314">
        <ele>675.2</ele>
        <time>2020-10-17T11:23:42Z</time>
      </trkpt>
      <trkpt lat="46.20138" lon="4.52311">
        <ele>674.6</ele>
        <time>2020-10-17T11:23:43Z</time>
      </trkpt>
      <trkpt lat="46.20138" lon="4.52308">
        <ele>674.8</ele>
        <time>2020-10-17T11:23:44Z</time>
      </trkpt>
      <trkpt lat="46.20138" lon="4.52305">
        <ele>674.4</ele>
        <time>2020-10-17T11:23:45Z</time>
      </trkpt>
      <trkpt lat="46.20139" lon="4.52302">
        <ele>674</ele>
        <time>2020-10-17T11:23:46Z</time>
      </trkpt>
      <trkpt lat="46.20139" lon="4.52302">
        <ele>674.2</ele>
        <time>2020-10-17T11:23:47Z</time>
      </trkpt>
      <trkpt lat="46.20139" lon="4.52302">
        <ele>673.6</ele>
        <time>2020-10-17T11:23:48Z</time>
      </trkpt>
      <trkpt lat="46.20139" lon="4.52302">
        <ele>673.2</ele>
        <time>2020-10-17T11:23:49Z</time>
      </trkpt>
      <trkpt lat="46.20141" lon="4.52285">
        <ele>673.2</ele>
        <time>2020-10-17T11:23:50Z</time>
      </trkpt>
      <trkpt lat="46.20141" lon="4.52283">
        <ele>673.2</ele>
        <time>2020-10-17T11:23:51Z</time>
      </trkpt>
      <trkpt lat="46.20142" lon="4.52281">
        <ele>672.8</ele>
        <time>2020-10-17T11:23:52Z</time>
      </trkpt>
      <trkpt lat="46.20142" lon="4.52279">
        <ele>672.4</ele>
        <time>2020-10-17T11:23:53Z</time>
      </trkpt>
      <trkpt lat="46.20142" lon="4.52269">
        <ele>672.8</ele>
        <time>2020-10-17T11:23:54Z</time>
      </trkpt>
      <trkpt lat="46.20142" lon="4.52266">
        <ele>672.4</ele>
        <time>2020-10-17T11:23:55Z</time>
      </trkpt>
      <trkpt lat="46.20142" lon="4.52263">
        <ele>671.6</ele>
        <time>2020-10-17T11:23:56Z</time>
      </trkpt>
      <trkpt lat="46.20142" lon="4.52261">
        <ele>672.2</ele>
        <time>2020-10-17T11:23:57Z</time>
      </trkpt>
      <trkpt lat="46.20142" lon="4.52257">
        <ele>671.6</ele>
        <time>2020-10-17T11:23:58Z</time>
      </trkpt>
      <trkpt lat="46.20143" lon="4.52252">
        <ele>671.2</ele>
        <time>2020-10-17T11:23:59Z</time>
      </trkpt>
      <trkpt lat="46.20143" lon="4.52248">
        <ele>671.2</ele>
        <time>2020-10-17T11:24:00Z</time>
      </trkpt>
      <trkpt lat="46.20143" lon="4.52245">
        <ele>670.8</ele>
        <time>2020-10-17T11:24:01Z</time>
      </trkpt>
      <trkpt lat="46.20143" lon="4.52242">
        <ele>670.4</ele>
        <time>2020-10-17T11:24:02Z</time>
      </trkpt>
      <trkpt lat="46.20143" lon="4.52242">
        <ele>670.4</ele>
        <time>2020-10-17T11:24:03Z</time>
      </trkpt>
      <trkpt lat="46.20143" lon="4.52242">
        <ele>670.4</ele>
        <time>2020-10-17T11:24:04Z</time>
      </trkpt>
      <trkpt lat="46.20143" lon="4.52242">
        <ele>670.2</ele>
        <time>2020-10-17T11:24:05Z</time>
      </trkpt>
      <trkpt lat="46.20145" lon="4.52224">
        <ele>670.2</ele>
        <time>2020-10-17T11:24:06Z</time>
      </trkpt>
      <trkpt lat="46.20145" lon="4.5222">
        <ele>670.2</ele>
        <time>2020-10-17T11:24:07Z</time>
      </trkpt>
      <trkpt lat="46.20145" lon="4.52216">
        <ele>670</ele>
        <time>2020-10-17T11:24:08Z</time>
      </trkpt>
      <trkpt lat="46.20145" lon="4.52212">
        <ele>669.8</ele>
        <time>2020-10-17T11:24:09Z</time>
      </trkpt>
      <trkpt lat="46.20146" lon="4.52208">
        <ele>670</ele>
        <time>2020-10-17T11:24:10Z</time>
      </trkpt>
      <trkpt lat="46.20146" lon="4.52203">
        <ele>669.4</ele>
        <time>2020-10-17T11:24:11Z</time>
      </trkpt>
      <trkpt lat="46.20146" lon="4.52197">
        <ele>669.2</ele>
        <time>2020-10-17T11:24:12Z</time>
      </trkpt>
      <trkpt lat="46.20146" lon="4.52191">
        <ele>669.4</ele>
        <time>2020-10-17T11:24:13Z</time>
      </trkpt>
      <trkpt lat="46.20145" lon="4.52185">
        <ele>668.8</ele>
        <time>2020-10-17T11:24:14Z</time>
      </trkpt>
      <trkpt lat="46.20146" lon="4.5218">
        <ele>668.6</ele>
        <time>2020-10-17T11:24:15Z</time>
      </trkpt>
      <trkpt lat="46.20147" lon="4.52174">
        <ele>668.6</ele>
        <time>2020-10-17T11:24:16Z</time>
      </trkpt>
      <trkpt lat="46.20147" lon="4.5217">
        <ele>668.4</ele>
        <time>2020-10-17T11:24:17Z</time>
      </trkpt>
      <trkpt lat="46.20148" lon="4.52165">
        <ele>668</ele>
        <time>2020-10-17T11:24:18Z</time>
      </trkpt>
      <trkpt lat="46.20149" lon="4.52161">
        <ele>668</ele>
        <time>2020-10-17T11:24:19Z</time>
      </trkpt>
      <trkpt lat="46.20151" lon="4.52157">
        <ele>668</ele>
        <time>2020-10-17T11:24:20Z</time>
      </trkpt>
      <trkpt lat="46.20152" lon="4.52153">
        <ele>668</ele>
        <time>2020-10-17T11:24:21Z</time>
      </trkpt>
      <trkpt lat="46.20153" lon="4.52149">
        <ele>667.8</ele>
        <time>2020-10-17T11:24:22Z</time>
      </trkpt>
      <trkpt lat="46.20154" lon="4.52146">
        <ele>668.2</ele>
        <time>2020-10-17T11:24:23Z</time>
      </trkpt>
      <trkpt lat="46.20156" lon="4.52143">
        <ele>667.8</ele>
        <time>2020-10-17T11:24:24Z</time>
      </trkpt>
      <trkpt lat="46.20157" lon="4.52139">
        <ele>667.6</ele>
        <time>2020-10-17T11:24:25Z</time>
      </trkpt>
      <trkpt lat="46.20158" lon="4.52136">
        <ele>668</ele>
        <time>2020-10-17T11:24:26Z</time>
      </trkpt>
      <trkpt lat="46.20158" lon="4.52132">
        <ele>667.8</ele>
        <time>2020-10-17T11:24:27Z</time>
      </trkpt>
      <trkpt lat="46.20159" lon="4.52127">
        <ele>667.8</ele>
        <time>2020-10-17T11:24:28Z</time>
      </trkpt>
      <trkpt lat="46.2016" lon="4.52125">
        <ele>668</ele>
        <time>2020-10-17T11:24:29Z</time>
      </trkpt>
      <trkpt lat="46.2016" lon="4.52125">
        <ele>668</ele>
        <time>2020-10-17T11:24:30Z</time>
      </trkpt>
      <trkpt lat="46.20161" lon="4.5212">
        <ele>668</ele>
        <time>2020-10-17T11:24:31Z</time>
      </trkpt>
      <trkpt lat="46.20162" lon="4.52117">
        <ele>668.2</ele>
        <time>2020-10-17T11:24:32Z</time>
      </trkpt>
      <trkpt lat="46.20163" lon="4.52114">
        <ele>668.2</ele>
        <time>2020-10-17T11:24:33Z</time>
      </trkpt>
      <trkpt lat="46.20163" lon="4.5211">
        <ele>668</ele>
        <time>2020-10-17T11:24:34Z</time>
      </trkpt>
      <trkpt lat="46.20164" lon="4.52107">
        <ele>668.4</ele>
        <time>2020-10-17T11:24:35Z</time>
      </trkpt>
      <trkpt lat="46.20164" lon="4.52105">
        <ele>668.8</ele>
        <time>2020-10-17T11:24:36Z</time>
      </trkpt>
      <trkpt lat="46.20164" lon="4.52105">
        <ele>668.8</ele>
        <time>2020-10-17T11:24:37Z</time>
      </trkpt>
      <trkpt lat="46.20165" lon="4.521">
        <ele>668.6</ele>
        <time>2020-10-17T11:24:38Z</time>
      </trkpt>
      <trkpt lat="46.20165" lon="4.521">
        <ele>668.4</ele>
        <time>2020-10-17T11:24:39Z</time>
      </trkpt>
      <trkpt lat="46.20167" lon="4.52096">
        <ele>668.4</ele>
        <time>2020-10-17T11:24:40Z</time>
      </trkpt>
      <trkpt lat="46.20167" lon="4.52096">
        <ele>668</ele>
        <time>2020-10-17T11:24:41Z</time>
      </trkpt>
      <trkpt lat="46.20168" lon="4.52092">
        <ele>668.2</ele>
        <time>2020-10-17T11:24:42Z</time>
      </trkpt>
      <trkpt lat="46.20168" lon="4.52092">
        <ele>668.6</ele>
        <time>2020-10-17T11:24:43Z</time>
      </trkpt>
      <trkpt lat="46.20168" lon="4.52089">
        <ele>669</ele>
        <time>2020-10-17T11:24:44Z</time>
      </trkpt>
      <trkpt lat="46.20168" lon="4.52089">
        <ele>669</ele>
        <time>2020-10-17T11:24:45Z</time>
      </trkpt>
      <trkpt lat="46.20168" lon="4.52089">
        <ele>669</ele>
        <time>2020-10-17T11:24:46Z</time>
      </trkpt>
      <trkpt lat="46.20168" lon="4.52089">
        <ele>669.2</ele>
        <time>2020-10-17T11:24:47Z</time>
      </trkpt>
      <trkpt lat="46.20168" lon="4.52089">
        <ele>669</ele>
        <time>2020-10-17T11:24:48Z</time>
      </trkpt>
      <trkpt lat="46.20168" lon="4.52089">
        <ele>669</ele>
        <time>2020-10-17T11:24:49Z</time>
      </trkpt>
      <trkpt lat="46.20168" lon="4.52089">
        <ele>669</ele>
        <time>2020-10-17T11:24:50Z</time>
      </trkpt>
      <trkpt lat="46.20168" lon="4.52089">
        <ele>669</ele>
        <time>2020-10-17T11:24:51Z</time>
      </trkpt>
      <trkpt lat="46.20168" lon="4.52089">
        <ele>669</ele>
        <time>2020-10-17T11:24:52Z</time>
      </trkpt>
      <trkpt lat="46.20168" lon="4.52089">
        <ele>668.8</ele>
        <time>2020-10-17T11:24:53Z</time>
      </trkpt>
      <trkpt lat="46.20168" lon="4.52089">
        <ele>669</ele>
        <time>2020-10-17T11:24:54Z</time>
      </trkpt>
      <trkpt lat="46.20168" lon="4.52089">
        <ele>668.8</ele>
        <time>2020-10-17T11:24:55Z</time>
      </trkpt>
      <trkpt lat="46.20168" lon="4.52089">
        <ele>668.8</ele>
        <time>2020-10-17T11:24:56Z</time>
      </trkpt>
      <trkpt lat="46.20168" lon="4.52089">
        <ele>668.8</ele>
        <time>2020-10-17T11:24:57Z</time>
      </trkpt>
      <trkpt lat="46.20168" lon="4.52089">
        <ele>668.8</ele>
        <time>2020-10-17T11:24:58Z</time>
      </trkpt>
      <trkpt lat="46.20168" lon="4.52089">
        <ele>668.8</ele>
        <time>2020-10-17T11:24:59Z</time>
      </trkpt>
      <trkpt lat="46.20168" lon="4.52089">
        <ele>668.8</ele>
        <time>2020-10-17T11:25:00Z</time>
      </trkpt>
      <trkpt lat="46.20168" lon="4.52089">
        <ele>668.8</ele>
        <time>2020-10-17T11:25:01Z</time>
      </trkpt>
      <trkpt lat="46.20168" lon="4.52089">
        <ele>668.6</ele>
        <time>2020-10-17T11:25:02Z</time>
      </trkpt>
      <trkpt lat="46.20168" lon="4.52089">
        <ele>668.6</ele>
        <time>2020-10-17T11:25:03Z</time>
      </trkpt>
      <trkpt lat="46.20168" lon="4.52089">
        <ele>668.6</ele>
        <time>2020-10-17T11:25:04Z</time>
      </trkpt>
      <trkpt lat="46.20168" lon="4.52089">
        <ele>668.4</ele>
        <time>2020-10-17T11:25:05Z</time>
      </trkpt>
      <trkpt lat="46.20168" lon="4.52089">
        <ele>668.2</ele>
        <time>2020-10-17T11:25:06Z</time>
      </trkpt>
      <trkpt lat="46.20168" lon="4.52089">
        <ele>668.2</ele>
        <time>2020-10-17T11:25:07Z</time>
      </trkpt>
      <trkpt lat="46.20168" lon="4.52089">
        <ele>668.4</ele>
        <time>2020-10-17T11:25:08Z</time>
      </trkpt>
      <trkpt lat="46.20168" lon="4.52089">
        <ele>668.4</ele>
        <time>2020-10-17T11:25:09Z</time>
      </trkpt>
      <trkpt lat="46.20168" lon="4.52089">
        <ele>668.2</ele>
        <time>2020-10-17T11:25:10Z</time>
      </trkpt>
      <trkpt lat="46.20168" lon="4.52089">
        <ele>668.2</ele>
        <time>2020-10-17T11:25:11Z</time>
      </trkpt>
      <trkpt lat="46.20168" lon="4.52089">
        <ele>668.4</ele>
        <time>2020-10-17T11:25:12Z</time>
      </trkpt>
      <trkpt lat="46.20166" lon="4.52088">
        <ele>668.4</ele>
        <time>2020-10-17T11:25:13Z</time>
      </trkpt>
      <trkpt lat="46.20166" lon="4.52088">
        <ele>668.4</ele>
        <time>2020-10-17T11:25:14Z</time>
      </trkpt>
      <trkpt lat="46.20166" lon="4.52088">
        <ele>668.4</ele>
        <time>2020-10-17T11:25:15Z</time>
      </trkpt>
      <trkpt lat="46.20166" lon="4.52088">
        <ele>668.4</ele>
        <time>2020-10-17T11:25:16Z</time>
      </trkpt>
      <trkpt lat="46.20166" lon="4.52088">
        <ele>668.4</ele>
        <time>2020-10-17T11:25:17Z</time>
      </trkpt>
      <trkpt lat="46.20166" lon="4.52088">
        <ele>668.6</ele>
        <time>2020-10-17T11:25:18Z</time>
      </trkpt>
      <trkpt lat="46.20166" lon="4.52088">
        <ele>668.8</ele>
        <time>2020-10-17T11:25:19Z</time>
      </trkpt>
      <trkpt lat="46.20166" lon="4.52088">
        <ele>668.4</ele>
        <time>2020-10-17T11:25:20Z</time>
      </trkpt>
      <trkpt lat="46.20166" lon="4.52088">
        <ele>668.2</ele>
        <time>2020-10-17T11:25:21Z</time>
      </trkpt>
      <trkpt lat="46.20166" lon="4.52088">
        <ele>668</ele>
        <time>2020-10-17T11:25:22Z</time>
      </trkpt>
      <trkpt lat="46.20166" lon="4.52088">
        <ele>668</ele>
        <time>2020-10-17T11:25:23Z</time>
      </trkpt>
      <trkpt lat="46.20166" lon="4.52088">
        <ele>667.8</ele>
        <time>2020-10-17T11:25:24Z</time>
      </trkpt>
      <trkpt lat="46.20166" lon="4.52088">
        <ele>667.8</ele>
        <time>2020-10-17T11:25:25Z</time>
      </trkpt>
      <trkpt lat="46.20166" lon="4.52088">
        <ele>667.8</ele>
        <time>2020-10-17T11:25:26Z</time>
      </trkpt>
      <trkpt lat="46.20166" lon="4.52088">
        <ele>667.8</ele>
        <time>2020-10-17T11:25:27Z</time>
      </trkpt>
      <trkpt lat="46.20166" lon="4.52088">
        <ele>667.8</ele>
        <time>2020-10-17T11:25:28Z</time>
      </trkpt>
      <trkpt lat="46.20166" lon="4.52088">
        <ele>667.8</ele>
        <time>2020-10-17T11:25:29Z</time>
      </trkpt>
      <trkpt lat="46.20166" lon="4.52088">
        <ele>667.6</ele>
        <time>2020-10-17T11:25:30Z</time>
      </trkpt>
      <trkpt lat="46.20166" lon="4.52088">
        <ele>667.4</ele>
        <time>2020-10-17T11:25:31Z</time>
      </trkpt>
      <trkpt lat="46.20166" lon="4.52088">
        <ele>667.4</ele>
        <time>2020-10-17T11:25:32Z</time>
      </trkpt>
      <trkpt lat="46.20166" lon="4.52088">
        <ele>667.4</ele>
        <time>2020-10-17T11:25:33Z</time>
      </trkpt>
      <trkpt lat="46.20166" lon="4.52088">
        <ele>667.4</ele>
        <time>2020-10-17T11:25:34Z</time>
      </trkpt>
      <trkpt lat="46.20166" lon="4.52088">
        <ele>667.4</ele>
        <time>2020-10-17T11:25:35Z</time>
      </trkpt>
      <trkpt lat="46.20166" lon="4.52088">
        <ele>667.2</ele>
        <time>2020-10-17T11:25:36Z</time>
      </trkpt>
      <trkpt lat="46.20166" lon="4.52088">
        <ele>667.2</ele>
        <time>2020-10-17T11:25:37Z</time>
      </trkpt>
      <trkpt lat="46.20166" lon="4.52088">
        <ele>667.2</ele>
        <time>2020-10-17T11:25:38Z</time>
      </trkpt>
      <trkpt lat="46.20166" lon="4.52088">
        <ele>667.4</ele>
        <time>2020-10-17T11:25:39Z</time>
      </trkpt>
      <trkpt lat="46.20166" lon="4.52088">
        <ele>667.6</ele>
        <time>2020-10-17T11:25:40Z</time>
      </trkpt>
      <trkpt lat="46.20166" lon="4.52088">
        <ele>667.4</ele>
        <time>2020-10-17T11:25:41Z</time>
      </trkpt>
      <trkpt lat="46.20166" lon="4.52088">
        <ele>667.4</ele>
        <time>2020-10-17T11:25:42Z</time>
      </trkpt>
      <trkpt lat="46.20166" lon="4.52088">
        <ele>667.6</ele>
        <time>2020-10-17T11:25:43Z</time>
      </trkpt>
      <trkpt lat="46.20166" lon="4.52088">
        <ele>667.4</ele>
        <time>2020-10-17T11:25:44Z</time>
      </trkpt>
      <trkpt lat="46.20166" lon="4.52088">
        <ele>667.4</ele>
        <time>2020-10-17T11:25:45Z</time>
      </trkpt>
      <trkpt lat="46.20166" lon="4.52088">
        <ele>667.4</ele>
        <time>2020-10-17T11:25:46Z</time>
      </trkpt>
      <trkpt lat="46.20166" lon="4.52088">
        <ele>667.4</ele>
        <time>2020-10-17T11:25:47Z</time>
      </trkpt>
      <trkpt lat="46.20166" lon="4.52088">
        <ele>667.4</ele>
        <time>2020-10-17T11:25:48Z</time>
      </trkpt>
      <trkpt lat="46.20165" lon="4.52085">
        <ele>667.6</ele>
        <time>2020-10-17T11:25:49Z</time>
      </trkpt>
      <trkpt lat="46.20165" lon="4.52085">
        <ele>667.8</ele>
        <time>2020-10-17T11:25:50Z</time>
      </trkpt>
      <trkpt lat="46.20165" lon="4.52085">
        <ele>667.8</ele>
        <time>2020-10-17T11:25:51Z</time>
      </trkpt>
      <trkpt lat="46.20165" lon="4.52085">
        <ele>667.6</ele>
        <time>2020-10-17T11:25:52Z</time>
      </trkpt>
      <trkpt lat="46.20165" lon="4.52085">
        <ele>667.6</ele>
        <time>2020-10-17T11:25:53Z</time>
      </trkpt>
      <trkpt lat="46.20165" lon="4.52085">
        <ele>667.6</ele>
        <time>2020-10-17T11:25:54Z</time>
      </trkpt>
      <trkpt lat="46.20165" lon="4.52085">
        <ele>667.6</ele>
        <time>2020-10-17T11:25:55Z</time>
      </trkpt>
      <trkpt lat="46.20165" lon="4.52085">
        <ele>667.4</ele>
        <time>2020-10-17T11:25:56Z</time>
      </trkpt>
      <trkpt lat="46.20165" lon="4.52085">
        <ele>667.6</ele>
        <time>2020-10-17T11:25:57Z</time>
      </trkpt>
      <trkpt lat="46.20165" lon="4.52085">
        <ele>667.4</ele>
        <time>2020-10-17T11:25:58Z</time>
      </trkpt>
      <trkpt lat="46.20165" lon="4.52085">
        <ele>667.4</ele>
        <time>2020-10-17T11:25:59Z</time>
      </trkpt>
      <trkpt lat="46.20165" lon="4.52085">
        <ele>667.4</ele>
        <time>2020-10-17T11:26:00Z</time>
      </trkpt>
      <trkpt lat="46.20165" lon="4.52085">
        <ele>667.6</ele>
        <time>2020-10-17T11:26:01Z</time>
      </trkpt>
      <trkpt lat="46.20165" lon="4.52085">
        <ele>667.2</ele>
        <time>2020-10-17T11:26:02Z</time>
      </trkpt>
      <trkpt lat="46.20165" lon="4.52085">
        <ele>667.4</ele>
        <time>2020-10-17T11:26:03Z</time>
      </trkpt>
      <trkpt lat="46.20165" lon="4.52085">
        <ele>667.4</ele>
        <time>2020-10-17T11:26:04Z</time>
      </trkpt>
      <trkpt lat="46.20165" lon="4.52085">
        <ele>667.4</ele>
        <time>2020-10-17T11:26:05Z</time>
      </trkpt>
      <trkpt lat="46.20165" lon="4.52085">
        <ele>667.2</ele>
        <time>2020-10-17T11:26:06Z</time>
      </trkpt>
      <trkpt lat="46.20165" lon="4.52085">
        <ele>667.2</ele>
        <time>2020-10-17T11:26:07Z</time>
      </trkpt>
      <trkpt lat="46.20165" lon="4.52085">
        <ele>667.2</ele>
        <time>2020-10-17T11:26:08Z</time>
      </trkpt>
      <trkpt lat="46.20165" lon="4.52085">
        <ele>667.2</ele>
        <time>2020-10-17T11:26:09Z</time>
      </trkpt>
      <trkpt lat="46.20165" lon="4.52085">
        <ele>667</ele>
        <time>2020-10-17T11:26:10Z</time>
      </trkpt>
      <trkpt lat="46.20165" lon="4.52085">
        <ele>667</ele>
        <time>2020-10-17T11:26:11Z</time>
      </trkpt>
      <trkpt lat="46.20165" lon="4.52085">
        <ele>667</ele>
        <time>2020-10-17T11:26:12Z</time>
      </trkpt>
      <trkpt lat="46.20166" lon="4.52082">
        <ele>667</ele>
        <time>2020-10-17T11:26:13Z</time>
      </trkpt>
      <trkpt lat="46.20166" lon="4.52082">
        <ele>666.6</ele>
        <time>2020-10-17T11:26:14Z</time>
      </trkpt>
      <trkpt lat="46.20166" lon="4.52082">
        <ele>666.6</ele>
        <time>2020-10-17T11:26:15Z</time>
      </trkpt>
      <trkpt lat="46.20168" lon="4.52079">
        <ele>666.6</ele>
        <time>2020-10-17T11:26:16Z</time>
      </trkpt>
      <trkpt lat="46.20168" lon="4.52079">
        <ele>666.6</ele>
        <time>2020-10-17T11:26:17Z</time>
      </trkpt>
      <trkpt lat="46.20168" lon="4.52079">
        <ele>666.4</ele>
        <time>2020-10-17T11:26:18Z</time>
      </trkpt>
      <trkpt lat="46.20171" lon="4.52076">
        <ele>666.6</ele>
        <time>2020-10-17T11:26:19Z</time>
      </trkpt>
      <trkpt lat="46.20171" lon="4.52076">
        <ele>666.4</ele>
        <time>2020-10-17T11:26:20Z</time>
      </trkpt>
      <trkpt lat="46.20172" lon="4.52073">
        <ele>666.6</ele>
        <time>2020-10-17T11:26:21Z</time>
      </trkpt>
      <trkpt lat="46.20172" lon="4.52073">
        <ele>666.4</ele>
        <time>2020-10-17T11:26:22Z</time>
      </trkpt>
      <trkpt lat="46.20174" lon="4.5207">
        <ele>666.4</ele>
        <time>2020-10-17T11:26:23Z</time>
      </trkpt>
      <trkpt lat="46.20174" lon="4.5207">
        <ele>666.6</ele>
        <time>2020-10-17T11:26:24Z</time>
      </trkpt>
      <trkpt lat="46.20176" lon="4.52067">
        <ele>666.6</ele>
        <time>2020-10-17T11:26:25Z</time>
      </trkpt>
      <trkpt lat="46.20176" lon="4.52067">
        <ele>666.8</ele>
        <time>2020-10-17T11:26:26Z</time>
      </trkpt>
      <trkpt lat="46.20177" lon="4.52064">
        <ele>666.8</ele>
        <time>2020-10-17T11:26:27Z</time>
      </trkpt>
      <trkpt lat="46.20177" lon="4.52064">
        <ele>666.8</ele>
        <time>2020-10-17T11:26:28Z</time>
      </trkpt>
      <trkpt lat="46.2018" lon="4.52061">
        <ele>666.8</ele>
        <time>2020-10-17T11:26:29Z</time>
      </trkpt>
      <trkpt lat="46.2018" lon="4.52061">
        <ele>666.8</ele>
        <time>2020-10-17T11:26:30Z</time>
      </trkpt>
      <trkpt lat="46.20181" lon="4.52058">
        <ele>666.8</ele>
        <time>2020-10-17T11:26:31Z</time>
      </trkpt>
      <trkpt lat="46.20181" lon="4.52058">
        <ele>666.8</ele>
        <time>2020-10-17T11:26:32Z</time>
      </trkpt>
      <trkpt lat="46.20183" lon="4.52055">
        <ele>667.2</ele>
        <time>2020-10-17T11:26:33Z</time>
      </trkpt>
      <trkpt lat="46.20183" lon="4.52055">
        <ele>667.4</ele>
        <time>2020-10-17T11:26:34Z</time>
      </trkpt>
      <trkpt lat="46.20183" lon="4.52052">
        <ele>667.6</ele>
        <time>2020-10-17T11:26:35Z</time>
      </trkpt>
      <trkpt lat="46.20183" lon="4.52052">
        <ele>667.6</ele>
        <time>2020-10-17T11:26:36Z</time>
      </trkpt>
      <trkpt lat="46.20184" lon="4.52049">
        <ele>667.8</ele>
        <time>2020-10-17T11:26:37Z</time>
      </trkpt>
      <trkpt lat="46.20184" lon="4.52049">
        <ele>668</ele>
        <time>2020-10-17T11:26:38Z</time>
      </trkpt>
      <trkpt lat="46.20186" lon="4.52046">
        <ele>668</ele>
        <time>2020-10-17T11:26:39Z</time>
      </trkpt>
      <trkpt lat="46.20187" lon="4.52044">
        <ele>668.2</ele>
        <time>2020-10-17T11:26:40Z</time>
      </trkpt>
      <trkpt lat="46.20188" lon="4.52042">
        <ele>668.2</ele>
        <time>2020-10-17T11:26:41Z</time>
      </trkpt>
      <trkpt lat="46.20188" lon="4.52042">
        <ele>668.6</ele>
        <time>2020-10-17T11:26:42Z</time>
      </trkpt>
      <trkpt lat="46.2019" lon="4.52038">
        <ele>669</ele>
        <time>2020-10-17T11:26:43Z</time>
      </trkpt>
      <trkpt lat="46.20192" lon="4.52036">
        <ele>669.2</ele>
        <time>2020-10-17T11:26:44Z</time>
      </trkpt>
      <trkpt lat="46.20193" lon="4.52034">
        <ele>669.2</ele>
        <time>2020-10-17T11:26:45Z</time>
      </trkpt>
      <trkpt lat="46.20193" lon="4.52034">
        <ele>669.4</ele>
        <time>2020-10-17T11:26:46Z</time>
      </trkpt>
      <trkpt lat="46.20194" lon="4.52029">
        <ele>669.4</ele>
        <time>2020-10-17T11:26:47Z</time>
      </trkpt>
      <trkpt lat="46.20194" lon="4.52029">
        <ele>669.4</ele>
        <time>2020-10-17T11:26:48Z</time>
      </trkpt>
      <trkpt lat="46.20195" lon="4.52025">
        <ele>669.4</ele>
        <time>2020-10-17T11:26:49Z</time>
      </trkpt>
      <trkpt lat="46.20195" lon="4.52025">
        <ele>669.6</ele>
        <time>2020-10-17T11:26:50Z</time>
      </trkpt>
      <trkpt lat="46.20197" lon="4.52022">
        <ele>669.6</ele>
        <time>2020-10-17T11:26:51Z</time>
      </trkpt>
      <trkpt lat="46.20197" lon="4.52022">
        <ele>669.8</ele>
        <time>2020-10-17T11:26:52Z</time>
      </trkpt>
      <trkpt lat="46.20199" lon="4.52018">
        <ele>669.8</ele>
        <time>2020-10-17T11:26:53Z</time>
      </trkpt>
      <trkpt lat="46.20201" lon="4.52016">
        <ele>669.6</ele>
        <time>2020-10-17T11:26:54Z</time>
      </trkpt>
      <trkpt lat="46.20202" lon="4.52014">
        <ele>669.8</ele>
        <time>2020-10-17T11:26:55Z</time>
      </trkpt>
      <trkpt lat="46.20203" lon="4.52011">
        <ele>670</ele>
        <time>2020-10-17T11:26:56Z</time>
      </trkpt>
      <trkpt lat="46.20203" lon="4.52011">
        <ele>670.2</ele>
        <time>2020-10-17T11:26:57Z</time>
      </trkpt>
      <trkpt lat="46.20206" lon="4.52007">
        <ele>670.4</ele>
        <time>2020-10-17T11:26:58Z</time>
      </trkpt>
      <trkpt lat="46.20206" lon="4.52007">
        <ele>670.4</ele>
        <time>2020-10-17T11:26:59Z</time>
      </trkpt>
      <trkpt lat="46.20208" lon="4.52003">
        <ele>670.6</ele>
        <time>2020-10-17T11:27:00Z</time>
      </trkpt>
      <trkpt lat="46.20208" lon="4.52003">
        <ele>670.8</ele>
        <time>2020-10-17T11:27:01Z</time>
      </trkpt>
      <trkpt lat="46.2021" lon="4.52">
        <ele>670.4</ele>
        <time>2020-10-17T11:27:02Z</time>
      </trkpt>
      <trkpt lat="46.2021" lon="4.52">
        <ele>670.6</ele>
        <time>2020-10-17T11:27:03Z</time>
      </trkpt>
      <trkpt lat="46.20212" lon="4.51997">
        <ele>670.8</ele>
        <time>2020-10-17T11:27:04Z</time>
      </trkpt>
      <trkpt lat="46.20212" lon="4.51997">
        <ele>670.8</ele>
        <time>2020-10-17T11:27:05Z</time>
      </trkpt>
      <trkpt lat="46.20215" lon="4.51994">
        <ele>670.8</ele>
        <time>2020-10-17T11:27:06Z</time>
      </trkpt>
      <trkpt lat="46.20215" lon="4.51994">
        <ele>670.6</ele>
        <time>2020-10-17T11:27:07Z</time>
      </trkpt>
      <trkpt lat="46.20217" lon="4.51991">
        <ele>670.6</ele>
        <time>2020-10-17T11:27:08Z</time>
      </trkpt>
      <trkpt lat="46.20219" lon="4.51989">
        <ele>670.8</ele>
        <time>2020-10-17T11:27:09Z</time>
      </trkpt>
      <trkpt lat="46.2022" lon="4.51987">
        <ele>670.6</ele>
        <time>2020-10-17T11:27:10Z</time>
      </trkpt>
      <trkpt lat="46.2022" lon="4.51987">
        <ele>670.8</ele>
        <time>2020-10-17T11:27:11Z</time>
      </trkpt>
      <trkpt lat="46.20222" lon="4.51983">
        <ele>670.8</ele>
        <time>2020-10-17T11:27:12Z</time>
      </trkpt>
      <trkpt lat="46.20223" lon="4.51981">
        <ele>670.8</ele>
        <time>2020-10-17T11:27:13Z</time>
      </trkpt>
      <trkpt lat="46.20225" lon="4.51979">
        <ele>671</ele>
        <time>2020-10-17T11:27:14Z</time>
      </trkpt>
      <trkpt lat="46.20226" lon="4.51977">
        <ele>671.2</ele>
        <time>2020-10-17T11:27:15Z</time>
      </trkpt>
      <trkpt lat="46.20227" lon="4.51975">
        <ele>671.4</ele>
        <time>2020-10-17T11:27:16Z</time>
      </trkpt>
      <trkpt lat="46.20228" lon="4.51972">
        <ele>671.4</ele>
        <time>2020-10-17T11:27:17Z</time>
      </trkpt>
      <trkpt lat="46.20228" lon="4.51972">
        <ele>671.4</ele>
        <time>2020-10-17T11:27:18Z</time>
      </trkpt>
      <trkpt lat="46.2023" lon="4.51968">
        <ele>671.4</ele>
        <time>2020-10-17T11:27:19Z</time>
      </trkpt>
      <trkpt lat="46.2023" lon="4.51968">
        <ele>671.6</ele>
        <time>2020-10-17T11:27:20Z</time>
      </trkpt>
      <trkpt lat="46.20232" lon="4.51965">
        <ele>671.8</ele>
        <time>2020-10-17T11:27:21Z</time>
      </trkpt>
      <trkpt lat="46.20232" lon="4.51965">
        <ele>672</ele>
        <time>2020-10-17T11:27:22Z</time>
      </trkpt>
      <trkpt lat="46.20234" lon="4.51962">
        <ele>671.8</ele>
        <time>2020-10-17T11:27:23Z</time>
      </trkpt>
      <trkpt lat="46.20236" lon="4.5196">
        <ele>671.6</ele>
        <time>2020-10-17T11:27:24Z</time>
      </trkpt>
      <trkpt lat="46.20237" lon="4.51959">
        <ele>671.8</ele>
        <time>2020-10-17T11:27:25Z</time>
      </trkpt>
      <trkpt lat="46.20237" lon="4.51959">
        <ele>671.6</ele>
        <time>2020-10-17T11:27:26Z</time>
      </trkpt>
      <trkpt lat="46.2024" lon="4.51956">
        <ele>671.6</ele>
        <time>2020-10-17T11:27:27Z</time>
      </trkpt>
      <trkpt lat="46.2024" lon="4.51956">
        <ele>671.4</ele>
        <time>2020-10-17T11:27:28Z</time>
      </trkpt>
      <trkpt lat="46.20242" lon="4.51953">
        <ele>671.4</ele>
        <time>2020-10-17T11:27:29Z</time>
      </trkpt>
      <trkpt lat="46.20242" lon="4.51953">
        <ele>671.2</ele>
        <time>2020-10-17T11:27:30Z</time>
      </trkpt>
      <trkpt lat="46.20244" lon="4.5195">
        <ele>671.2</ele>
        <time>2020-10-17T11:27:31Z</time>
      </trkpt>
      <trkpt lat="46.20244" lon="4.5195">
        <ele>671.8</ele>
        <time>2020-10-17T11:27:32Z</time>
      </trkpt>
      <trkpt lat="46.20246" lon="4.51946">
        <ele>672.2</ele>
        <time>2020-10-17T11:27:33Z</time>
      </trkpt>
      <trkpt lat="46.20246" lon="4.51946">
        <ele>672.4</ele>
        <time>2020-10-17T11:27:34Z</time>
      </trkpt>
      <trkpt lat="46.20247" lon="4.51942">
        <ele>672.2</ele>
        <time>2020-10-17T11:27:35Z</time>
      </trkpt>
      <trkpt lat="46.20247" lon="4.51942">
        <ele>672</ele>
        <time>2020-10-17T11:27:36Z</time>
      </trkpt>
      <trkpt lat="46.20249" lon="4.51938">
        <ele>672</ele>
        <time>2020-10-17T11:27:37Z</time>
      </trkpt>
      <trkpt lat="46.2025" lon="4.51935">
        <ele>672</ele>
        <time>2020-10-17T11:27:38Z</time>
      </trkpt>
      <trkpt lat="46.20251" lon="4.51933">
        <ele>672</ele>
        <time>2020-10-17T11:27:39Z</time>
      </trkpt>
      <trkpt lat="46.20252" lon="4.5193">
        <ele>672</ele>
        <time>2020-10-17T11:27:40Z</time>
      </trkpt>
      <trkpt lat="46.20253" lon="4.51927">
        <ele>672.2</ele>
        <time>2020-10-17T11:27:41Z</time>
      </trkpt>
      <trkpt lat="46.20254" lon="4.51924">
        <ele>672.2</ele>
        <time>2020-10-17T11:27:42Z</time>
      </trkpt>
      <trkpt lat="46.20255" lon="4.51921">
        <ele>672.2</ele>
        <time>2020-10-17T11:27:43Z</time>
      </trkpt>
      <trkpt lat="46.20256" lon="4.51918">
        <ele>671.8</ele>
        <time>2020-10-17T11:27:44Z</time>
      </trkpt>
      <trkpt lat="46.20257" lon="4.51915">
        <ele>671.6</ele>
        <time>2020-10-17T11:27:45Z</time>
      </trkpt>
      <trkpt lat="46.20257" lon="4.51915">
        <ele>671.8</ele>
        <time>2020-10-17T11:27:46Z</time>
      </trkpt>
      <trkpt lat="46.20257" lon="4.51915">
        <ele>671.6</ele>
        <time>2020-10-17T11:27:47Z</time>
      </trkpt>
      <trkpt lat="46.20257" lon="4.51915">
        <ele>671.8</ele>
        <time>2020-10-17T11:27:48Z</time>
      </trkpt>
      <trkpt lat="46.20259" lon="4.51911">
        <ele>672</ele>
        <time>2020-10-17T11:27:49Z</time>
      </trkpt>
      <trkpt lat="46.2026" lon="4.51906">
        <ele>672</ele>
        <time>2020-10-17T11:27:50Z</time>
      </trkpt>
      <trkpt lat="46.20261" lon="4.51902">
        <ele>671.8</ele>
        <time>2020-10-17T11:27:51Z</time>
      </trkpt>
      <trkpt lat="46.20263" lon="4.51898">
        <ele>672</ele>
        <time>2020-10-17T11:27:52Z</time>
      </trkpt>
      <trkpt lat="46.20264" lon="4.51893">
        <ele>671.8</ele>
        <time>2020-10-17T11:27:53Z</time>
      </trkpt>
      <trkpt lat="46.20265" lon="4.5189">
        <ele>671.8</ele>
        <time>2020-10-17T11:27:54Z</time>
      </trkpt>
      <trkpt lat="46.20267" lon="4.51887">
        <ele>672</ele>
        <time>2020-10-17T11:27:55Z</time>
      </trkpt>
      <trkpt lat="46.20267" lon="4.51887">
        <ele>671.8</ele>
        <time>2020-10-17T11:27:56Z</time>
      </trkpt>
      <trkpt lat="46.20268" lon="4.51883">
        <ele>671.8</ele>
        <time>2020-10-17T11:27:57Z</time>
      </trkpt>
      <trkpt lat="46.20268" lon="4.51883">
        <ele>672.2</ele>
        <time>2020-10-17T11:27:58Z</time>
      </trkpt>
      <trkpt lat="46.20269" lon="4.51879">
        <ele>672</ele>
        <time>2020-10-17T11:27:59Z</time>
      </trkpt>
      <trkpt lat="46.20269" lon="4.51879">
        <ele>672</ele>
        <time>2020-10-17T11:28:00Z</time>
      </trkpt>
      <trkpt lat="46.20271" lon="4.51875">
        <ele>672.4</ele>
        <time>2020-10-17T11:28:01Z</time>
      </trkpt>
      <trkpt lat="46.20273" lon="4.51873">
        <ele>672.4</ele>
        <time>2020-10-17T11:28:02Z</time>
      </trkpt>
      <trkpt lat="46.20275" lon="4.51871">
        <ele>672.4</ele>
        <time>2020-10-17T11:28:03Z</time>
      </trkpt>
      <trkpt lat="46.20277" lon="4.51869">
        <ele>672.6</ele>
        <time>2020-10-17T11:28:04Z</time>
      </trkpt>
      <trkpt lat="46.20279" lon="4.51866">
        <ele>673</ele>
        <time>2020-10-17T11:28:05Z</time>
      </trkpt>
      <trkpt lat="46.20281" lon="4.51864">
        <ele>673</ele>
        <time>2020-10-17T11:28:06Z</time>
      </trkpt>
      <trkpt lat="46.20282" lon="4.51861">
        <ele>673.4</ele>
        <time>2020-10-17T11:28:07Z</time>
      </trkpt>
      <trkpt lat="46.20283" lon="4.51857">
        <ele>673.8</ele>
        <time>2020-10-17T11:28:08Z</time>
      </trkpt>
      <trkpt lat="46.20283" lon="4.51855">
        <ele>673.6</ele>
        <time>2020-10-17T11:28:09Z</time>
      </trkpt>
      <trkpt lat="46.20284" lon="4.51852">
        <ele>673.4</ele>
        <time>2020-10-17T11:28:10Z</time>
      </trkpt>
      <trkpt lat="46.20285" lon="4.5185">
        <ele>673.8</ele>
        <time>2020-10-17T11:28:11Z</time>
      </trkpt>
      <trkpt lat="46.20287" lon="4.51848">
        <ele>673.8</ele>
        <time>2020-10-17T11:28:12Z</time>
      </trkpt>
      <trkpt lat="46.20287" lon="4.51848">
        <ele>673.8</ele>
        <time>2020-10-17T11:28:13Z</time>
      </trkpt>
      <trkpt lat="46.20288" lon="4.51844">
        <ele>673.6</ele>
        <time>2020-10-17T11:28:14Z</time>
      </trkpt>
      <trkpt lat="46.20288" lon="4.51844">
        <ele>674</ele>
        <time>2020-10-17T11:28:15Z</time>
      </trkpt>
      <trkpt lat="46.20289" lon="4.51839">
        <ele>674.2</ele>
        <time>2020-10-17T11:28:16Z</time>
      </trkpt>
      <trkpt lat="46.20291" lon="4.51837">
        <ele>674.2</ele>
        <time>2020-10-17T11:28:17Z</time>
      </trkpt>
      <trkpt lat="46.20291" lon="4.51834">
        <ele>674.4</ele>
        <time>2020-10-17T11:28:18Z</time>
      </trkpt>
      <trkpt lat="46.20291" lon="4.51834">
        <ele>674.4</ele>
        <time>2020-10-17T11:28:19Z</time>
      </trkpt>
      <trkpt lat="46.20293" lon="4.51831">
        <ele>674.2</ele>
        <time>2020-10-17T11:28:20Z</time>
      </trkpt>
      <trkpt lat="46.20293" lon="4.51831">
        <ele>674.2</ele>
        <time>2020-10-17T11:28:21Z</time>
      </trkpt>
      <trkpt lat="46.20294" lon="4.51827">
        <ele>674.2</ele>
        <time>2020-10-17T11:28:22Z</time>
      </trkpt>
      <trkpt lat="46.20294" lon="4.51827">
        <ele>674.2</ele>
        <time>2020-10-17T11:28:23Z</time>
      </trkpt>
      <trkpt lat="46.20296" lon="4.51824">
        <ele>674.2</ele>
        <time>2020-10-17T11:28:24Z</time>
      </trkpt>
      <trkpt lat="46.20296" lon="4.51824">
        <ele>674.2</ele>
        <time>2020-10-17T11:28:25Z</time>
      </trkpt>
      <trkpt lat="46.20298" lon="4.51821">
        <ele>674.4</ele>
        <time>2020-10-17T11:28:26Z</time>
      </trkpt>
      <trkpt lat="46.20298" lon="4.51821">
        <ele>675</ele>
        <time>2020-10-17T11:28:27Z</time>
      </trkpt>
      <trkpt lat="46.20299" lon="4.51818">
        <ele>675.2</ele>
        <time>2020-10-17T11:28:28Z</time>
      </trkpt>
      <trkpt lat="46.20299" lon="4.51818">
        <ele>675.2</ele>
        <time>2020-10-17T11:28:29Z</time>
      </trkpt>
      <trkpt lat="46.20301" lon="4.51816">
        <ele>675.2</ele>
        <time>2020-10-17T11:28:30Z</time>
      </trkpt>
      <trkpt lat="46.20301" lon="4.51816">
        <ele>675.4</ele>
        <time>2020-10-17T11:28:31Z</time>
      </trkpt>
      <trkpt lat="46.20304" lon="4.51813">
        <ele>675.8</ele>
        <time>2020-10-17T11:28:32Z</time>
      </trkpt>
      <trkpt lat="46.20305" lon="4.51811">
        <ele>675.8</ele>
        <time>2020-10-17T11:28:33Z</time>
      </trkpt>
      <trkpt lat="46.20306" lon="4.51808">
        <ele>676.2</ele>
        <time>2020-10-17T11:28:34Z</time>
      </trkpt>
      <trkpt lat="46.20306" lon="4.51808">
        <ele>676.2</ele>
        <time>2020-10-17T11:28:35Z</time>
      </trkpt>
      <trkpt lat="46.20307" lon="4.51804">
        <ele>676.4</ele>
        <time>2020-10-17T11:28:36Z</time>
      </trkpt>
      <trkpt lat="46.20307" lon="4.51804">
        <ele>676.6</ele>
        <time>2020-10-17T11:28:37Z</time>
      </trkpt>
      <trkpt lat="46.20309" lon="4.518">
        <ele>676.8</ele>
        <time>2020-10-17T11:28:38Z</time>
      </trkpt>
      <trkpt lat="46.20309" lon="4.518">
        <ele>676.8</ele>
        <time>2020-10-17T11:28:39Z</time>
      </trkpt>
      <trkpt lat="46.20311" lon="4.51797">
        <ele>677</ele>
        <time>2020-10-17T11:28:40Z</time>
      </trkpt>
      <trkpt lat="46.20311" lon="4.51797">
        <ele>677</ele>
        <time>2020-10-17T11:28:41Z</time>
      </trkpt>
      <trkpt lat="46.20313" lon="4.51793">
        <ele>677.8</ele>
        <time>2020-10-17T11:28:42Z</time>
      </trkpt>
      <trkpt lat="46.20313" lon="4.51793">
        <ele>677.8</ele>
        <time>2020-10-17T11:28:43Z</time>
      </trkpt>
      <trkpt lat="46.20314" lon="4.51789">
        <ele>678</ele>
        <time>2020-10-17T11:28:44Z</time>
      </trkpt>
      <trkpt lat="46.20314" lon="4.51789">
        <ele>678.4</ele>
        <time>2020-10-17T11:28:45Z</time>
      </trkpt>
      <trkpt lat="46.20315" lon="4.51784">
        <ele>678.6</ele>
        <time>2020-10-17T11:28:46Z</time>
      </trkpt>
      <trkpt lat="46.20315" lon="4.51784">
        <ele>678.6</ele>
        <time>2020-10-17T11:28:47Z</time>
      </trkpt>
      <trkpt lat="46.20316" lon="4.5178">
        <ele>678.6</ele>
        <time>2020-10-17T11:28:48Z</time>
      </trkpt>
      <trkpt lat="46.20316" lon="4.5178">
        <ele>678.8</ele>
        <time>2020-10-17T11:28:49Z</time>
      </trkpt>
      <trkpt lat="46.20317" lon="4.51776">
        <ele>679</ele>
        <time>2020-10-17T11:28:50Z</time>
      </trkpt>
      <trkpt lat="46.20317" lon="4.51776">
        <ele>679.2</ele>
        <time>2020-10-17T11:28:51Z</time>
      </trkpt>
      <trkpt lat="46.20318" lon="4.51772">
        <ele>679.2</ele>
        <time>2020-10-17T11:28:52Z</time>
      </trkpt>
      <trkpt lat="46.20318" lon="4.51769">
        <ele>679.4</ele>
        <time>2020-10-17T11:28:53Z</time>
      </trkpt>
      <trkpt lat="46.20318" lon="4.51769">
        <ele>679.4</ele>
        <time>2020-10-17T11:28:54Z</time>
      </trkpt>
      <trkpt lat="46.2032" lon="4.51765">
        <ele>679.8</ele>
        <time>2020-10-17T11:28:55Z</time>
      </trkpt>
      <trkpt lat="46.2032" lon="4.51765">
        <ele>679.6</ele>
        <time>2020-10-17T11:28:56Z</time>
      </trkpt>
      <trkpt lat="46.2032" lon="4.51761">
        <ele>679.8</ele>
        <time>2020-10-17T11:28:57Z</time>
      </trkpt>
      <trkpt lat="46.2032" lon="4.51761">
        <ele>680</ele>
        <time>2020-10-17T11:28:58Z</time>
      </trkpt>
      <trkpt lat="46.2032" lon="4.51758">
        <ele>680</ele>
        <time>2020-10-17T11:28:59Z</time>
      </trkpt>
      <trkpt lat="46.2032" lon="4.51758">
        <ele>680.2</ele>
        <time>2020-10-17T11:29:00Z</time>
      </trkpt>
      <trkpt lat="46.20322" lon="4.51754">
        <ele>680.2</ele>
        <time>2020-10-17T11:29:01Z</time>
      </trkpt>
      <trkpt lat="46.20322" lon="4.51754">
        <ele>680.2</ele>
        <time>2020-10-17T11:29:02Z</time>
      </trkpt>
      <trkpt lat="46.20323" lon="4.5175">
        <ele>680.6</ele>
        <time>2020-10-17T11:29:03Z</time>
      </trkpt>
      <trkpt lat="46.20323" lon="4.5175">
        <ele>680.6</ele>
        <time>2020-10-17T11:29:04Z</time>
      </trkpt>
      <trkpt lat="46.20324" lon="4.51746">
        <ele>681</ele>
        <time>2020-10-17T11:29:05Z</time>
      </trkpt>
      <trkpt lat="46.20324" lon="4.51746">
        <ele>681.2</ele>
        <time>2020-10-17T11:29:06Z</time>
      </trkpt>
      <trkpt lat="46.20326" lon="4.51742">
        <ele>681.2</ele>
        <time>2020-10-17T11:29:07Z</time>
      </trkpt>
      <trkpt lat="46.20326" lon="4.51742">
        <ele>681.4</ele>
        <time>2020-10-17T11:29:08Z</time>
      </trkpt>
      <trkpt lat="46.20328" lon="4.51739">
        <ele>681.8</ele>
        <time>2020-10-17T11:29:09Z</time>
      </trkpt>
      <trkpt lat="46.20328" lon="4.51739">
        <ele>682</ele>
        <time>2020-10-17T11:29:10Z</time>
      </trkpt>
      <trkpt lat="46.20329" lon="4.51736">
        <ele>682.4</ele>
        <time>2020-10-17T11:29:11Z</time>
      </trkpt>
      <trkpt lat="46.20329" lon="4.51736">
        <ele>682.4</ele>
        <time>2020-10-17T11:29:12Z</time>
      </trkpt>
      <trkpt lat="46.2033" lon="4.51732">
        <ele>682.6</ele>
        <time>2020-10-17T11:29:13Z</time>
      </trkpt>
      <trkpt lat="46.2033" lon="4.51732">
        <ele>682.6</ele>
        <time>2020-10-17T11:29:14Z</time>
      </trkpt>
      <trkpt lat="46.20332" lon="4.51729">
        <ele>682.6</ele>
        <time>2020-10-17T11:29:15Z</time>
      </trkpt>
      <trkpt lat="46.20332" lon="4.51729">
        <ele>682.4</ele>
        <time>2020-10-17T11:29:16Z</time>
      </trkpt>
      <trkpt lat="46.20333" lon="4.51726">
        <ele>682.8</ele>
        <time>2020-10-17T11:29:17Z</time>
      </trkpt>
      <trkpt lat="46.20333" lon="4.51726">
        <ele>683</ele>
        <time>2020-10-17T11:29:18Z</time>
      </trkpt>
      <trkpt lat="46.20334" lon="4.51723">
        <ele>683.2</ele>
        <time>2020-10-17T11:29:19Z</time>
      </trkpt>
      <trkpt lat="46.20334" lon="4.51723">
        <ele>683.2</ele>
        <time>2020-10-17T11:29:20Z</time>
      </trkpt>
      <trkpt lat="46.20334" lon="4.5172">
        <ele>683.6</ele>
        <time>2020-10-17T11:29:21Z</time>
      </trkpt>
      <trkpt lat="46.20334" lon="4.5172">
        <ele>683.6</ele>
        <time>2020-10-17T11:29:22Z</time>
      </trkpt>
      <trkpt lat="46.20336" lon="4.51717">
        <ele>684</ele>
        <time>2020-10-17T11:29:23Z</time>
      </trkpt>
      <trkpt lat="46.20337" lon="4.51716">
        <ele>684.2</ele>
        <time>2020-10-17T11:29:24Z</time>
      </trkpt>
      <trkpt lat="46.20337" lon="4.51716">
        <ele>684.2</ele>
        <time>2020-10-17T11:29:25Z</time>
      </trkpt>
      <trkpt lat="46.20339" lon="4.51712">
        <ele>684.6</ele>
        <time>2020-10-17T11:29:26Z</time>
      </trkpt>
      <trkpt lat="46.20339" lon="4.51712">
        <ele>684.8</ele>
        <time>2020-10-17T11:29:27Z</time>
      </trkpt>
      <trkpt lat="46.20341" lon="4.5171">
        <ele>685.2</ele>
        <time>2020-10-17T11:29:28Z</time>
      </trkpt>
      <trkpt lat="46.20341" lon="4.5171">
        <ele>685.6</ele>
        <time>2020-10-17T11:29:29Z</time>
      </trkpt>
      <trkpt lat="46.20342" lon="4.51707">
        <ele>685.8</ele>
        <time>2020-10-17T11:29:30Z</time>
      </trkpt>
      <trkpt lat="46.20342" lon="4.51707">
        <ele>686</ele>
        <time>2020-10-17T11:29:31Z</time>
      </trkpt>
      <trkpt lat="46.20344" lon="4.51704">
        <ele>686.4</ele>
        <time>2020-10-17T11:29:32Z</time>
      </trkpt>
      <trkpt lat="46.20344" lon="4.51704">
        <ele>686.6</ele>
        <time>2020-10-17T11:29:33Z</time>
      </trkpt>
      <trkpt lat="46.20345" lon="4.51701">
        <ele>687</ele>
        <time>2020-10-17T11:29:34Z</time>
      </trkpt>
      <trkpt lat="46.20345" lon="4.51701">
        <ele>687</ele>
        <time>2020-10-17T11:29:35Z</time>
      </trkpt>
      <trkpt lat="46.20347" lon="4.51697">
        <ele>687.4</ele>
        <time>2020-10-17T11:29:36Z</time>
      </trkpt>
      <trkpt lat="46.20347" lon="4.51697">
        <ele>687.6</ele>
        <time>2020-10-17T11:29:37Z</time>
      </trkpt>
      <trkpt lat="46.20348" lon="4.51695">
        <ele>687.8</ele>
        <time>2020-10-17T11:29:38Z</time>
      </trkpt>
      <trkpt lat="46.20348" lon="4.51695">
        <ele>687.8</ele>
        <time>2020-10-17T11:29:39Z</time>
      </trkpt>
      <trkpt lat="46.20351" lon="4.51692">
        <ele>688</ele>
        <time>2020-10-17T11:29:40Z</time>
      </trkpt>
      <trkpt lat="46.20351" lon="4.51692">
        <ele>688.2</ele>
        <time>2020-10-17T11:29:41Z</time>
      </trkpt>
      <trkpt lat="46.20354" lon="4.5169">
        <ele>688.2</ele>
        <time>2020-10-17T11:29:42Z</time>
      </trkpt>
      <trkpt lat="46.20354" lon="4.5169">
        <ele>688</ele>
        <time>2020-10-17T11:29:43Z</time>
      </trkpt>
      <trkpt lat="46.20354" lon="4.5169">
        <ele>688.2</ele>
        <time>2020-10-17T11:29:44Z</time>
      </trkpt>
      <trkpt lat="46.20354" lon="4.5169">
        <ele>688.6</ele>
        <time>2020-10-17T11:29:45Z</time>
      </trkpt>
      <trkpt lat="46.20356" lon="4.51689">
        <ele>689</ele>
        <time>2020-10-17T11:29:46Z</time>
      </trkpt>
      <trkpt lat="46.20359" lon="4.51688">
        <ele>689.2</ele>
        <time>2020-10-17T11:29:47Z</time>
      </trkpt>
      <trkpt lat="46.20361" lon="4.51687">
        <ele>689.6</ele>
        <time>2020-10-17T11:29:48Z</time>
      </trkpt>
      <trkpt lat="46.20364" lon="4.51686">
        <ele>689.6</ele>
        <time>2020-10-17T11:29:49Z</time>
      </trkpt>
      <trkpt lat="46.20367" lon="4.51686">
        <ele>690</ele>
        <time>2020-10-17T11:29:50Z</time>
      </trkpt>
      <trkpt lat="46.20369" lon="4.51685">
        <ele>690.6</ele>
        <time>2020-10-17T11:29:51Z</time>
      </trkpt>
      <trkpt lat="46.20371" lon="4.51684">
        <ele>691</ele>
        <time>2020-10-17T11:29:52Z</time>
      </trkpt>
      <trkpt lat="46.20371" lon="4.51684">
        <ele>691.2</ele>
        <time>2020-10-17T11:29:53Z</time>
      </trkpt>
      <trkpt lat="46.20374" lon="4.51682">
        <ele>691.6</ele>
        <time>2020-10-17T11:29:54Z</time>
      </trkpt>
      <trkpt lat="46.20374" lon="4.51682">
        <ele>691.4</ele>
        <time>2020-10-17T11:29:55Z</time>
      </trkpt>
      <trkpt lat="46.20376" lon="4.51681">
        <ele>691.6</ele>
        <time>2020-10-17T11:29:56Z</time>
      </trkpt>
      <trkpt lat="46.20376" lon="4.51681">
        <ele>692</ele>
        <time>2020-10-17T11:29:57Z</time>
      </trkpt>
      <trkpt lat="46.20376" lon="4.51681">
        <ele>692</ele>
        <time>2020-10-17T11:29:58Z</time>
      </trkpt>
      <trkpt lat="46.20378" lon="4.51679">
        <ele>692.2</ele>
        <time>2020-10-17T11:29:59Z</time>
      </trkpt>
      <trkpt lat="46.20378" lon="4.51679">
        <ele>692.2</ele>
        <time>2020-10-17T11:30:00Z</time>
      </trkpt>
      <trkpt lat="46.20378" lon="4.51679">
        <ele>692</ele>
        <time>2020-10-17T11:30:01Z</time>
      </trkpt>
      <trkpt lat="46.2038" lon="4.51678">
        <ele>692.2</ele>
        <time>2020-10-17T11:30:02Z</time>
      </trkpt>
      <trkpt lat="46.2038" lon="4.51678">
        <ele>692.6</ele>
        <time>2020-10-17T11:30:03Z</time>
      </trkpt>
      <trkpt lat="46.20382" lon="4.51677">
        <ele>692.8</ele>
        <time>2020-10-17T11:30:04Z</time>
      </trkpt>
      <trkpt lat="46.20382" lon="4.51677">
        <ele>693</ele>
        <time>2020-10-17T11:30:05Z</time>
      </trkpt>
      <trkpt lat="46.20385" lon="4.51677">
        <ele>693.2</ele>
        <time>2020-10-17T11:30:06Z</time>
      </trkpt>
      <trkpt lat="46.20385" lon="4.51677">
        <ele>693.6</ele>
        <time>2020-10-17T11:30:07Z</time>
      </trkpt>
      <trkpt lat="46.20388" lon="4.51675">
        <ele>693.8</ele>
        <time>2020-10-17T11:30:08Z</time>
      </trkpt>
      <trkpt lat="46.20388" lon="4.51675">
        <ele>694</ele>
        <time>2020-10-17T11:30:09Z</time>
      </trkpt>
      <trkpt lat="46.2039" lon="4.51674">
        <ele>694</ele>
        <time>2020-10-17T11:30:10Z</time>
      </trkpt>
      <trkpt lat="46.2039" lon="4.51674">
        <ele>694.2</ele>
        <time>2020-10-17T11:30:11Z</time>
      </trkpt>
      <trkpt lat="46.20392" lon="4.51673">
        <ele>694.2</ele>
        <time>2020-10-17T11:30:12Z</time>
      </trkpt>
      <trkpt lat="46.20392" lon="4.51673">
        <ele>694.2</ele>
        <time>2020-10-17T11:30:13Z</time>
      </trkpt>
      <trkpt lat="46.20395" lon="4.51672">
        <ele>694.2</ele>
        <time>2020-10-17T11:30:14Z</time>
      </trkpt>
      <trkpt lat="46.20395" lon="4.51672">
        <ele>694.2</ele>
        <time>2020-10-17T11:30:15Z</time>
      </trkpt>
      <trkpt lat="46.20398" lon="4.5167">
        <ele>694.2</ele>
        <time>2020-10-17T11:30:16Z</time>
      </trkpt>
      <trkpt lat="46.204" lon="4.51669">
        <ele>694.6</ele>
        <time>2020-10-17T11:30:17Z</time>
      </trkpt>
      <trkpt lat="46.204" lon="4.51669">
        <ele>695</ele>
        <time>2020-10-17T11:30:18Z</time>
      </trkpt>
      <trkpt lat="46.20402" lon="4.51667">
        <ele>695.2</ele>
        <time>2020-10-17T11:30:19Z</time>
      </trkpt>
      <trkpt lat="46.20404" lon="4.51665">
        <ele>695.6</ele>
        <time>2020-10-17T11:30:20Z</time>
      </trkpt>
      <trkpt lat="46.20404" lon="4.51665">
        <ele>695.6</ele>
        <time>2020-10-17T11:30:21Z</time>
      </trkpt>
      <trkpt lat="46.20406" lon="4.51661">
        <ele>695.8</ele>
        <time>2020-10-17T11:30:22Z</time>
      </trkpt>
      <trkpt lat="46.20407" lon="4.51659">
        <ele>696</ele>
        <time>2020-10-17T11:30:23Z</time>
      </trkpt>
      <trkpt lat="46.20409" lon="4.51657">
        <ele>696</ele>
        <time>2020-10-17T11:30:24Z</time>
      </trkpt>
      <trkpt lat="46.20411" lon="4.51656">
        <ele>696.2</ele>
        <time>2020-10-17T11:30:25Z</time>
      </trkpt>
      <trkpt lat="46.20413" lon="4.51655">
        <ele>696.4</ele>
        <time>2020-10-17T11:30:26Z</time>
      </trkpt>
      <trkpt lat="46.20414" lon="4.51653">
        <ele>696.4</ele>
        <time>2020-10-17T11:30:27Z</time>
      </trkpt>
      <trkpt lat="46.20416" lon="4.51651">
        <ele>696.6</ele>
        <time>2020-10-17T11:30:28Z</time>
      </trkpt>
      <trkpt lat="46.20416" lon="4.51651">
        <ele>696.8</ele>
        <time>2020-10-17T11:30:29Z</time>
      </trkpt>
      <trkpt lat="46.20417" lon="4.51648">
        <ele>697</ele>
        <time>2020-10-17T11:30:30Z</time>
      </trkpt>
      <trkpt lat="46.20417" lon="4.51648">
        <ele>697.2</ele>
        <time>2020-10-17T11:30:31Z</time>
      </trkpt>
      <trkpt lat="46.20419" lon="4.51645">
        <ele>697.4</ele>
        <time>2020-10-17T11:30:32Z</time>
      </trkpt>
      <trkpt lat="46.20419" lon="4.51645">
        <ele>697.4</ele>
        <time>2020-10-17T11:30:33Z</time>
      </trkpt>
      <trkpt lat="46.2042" lon="4.51642">
        <ele>697.4</ele>
        <time>2020-10-17T11:30:34Z</time>
      </trkpt>
      <trkpt lat="46.2042" lon="4.51642">
        <ele>697.6</ele>
        <time>2020-10-17T11:30:35Z</time>
      </trkpt>
      <trkpt lat="46.2042" lon="4.51638">
        <ele>697.6</ele>
        <time>2020-10-17T11:30:36Z</time>
      </trkpt>
      <trkpt lat="46.2042" lon="4.51638">
        <ele>698</ele>
        <time>2020-10-17T11:30:37Z</time>
      </trkpt>
      <trkpt lat="46.2042" lon="4.51635">
        <ele>698</ele>
        <time>2020-10-17T11:30:38Z</time>
      </trkpt>
      <trkpt lat="46.2042" lon="4.51635">
        <ele>698.2</ele>
        <time>2020-10-17T11:30:39Z</time>
      </trkpt>
      <trkpt lat="46.2042" lon="4.51632">
        <ele>698.6</ele>
        <time>2020-10-17T11:30:40Z</time>
      </trkpt>
      <trkpt lat="46.2042" lon="4.51632">
        <ele>698.6</ele>
        <time>2020-10-17T11:30:41Z</time>
      </trkpt>
      <trkpt lat="46.2042" lon="4.51628">
        <ele>698.8</ele>
        <time>2020-10-17T11:30:42Z</time>
      </trkpt>
      <trkpt lat="46.2042" lon="4.51628">
        <ele>699</ele>
        <time>2020-10-17T11:30:43Z</time>
      </trkpt>
      <trkpt lat="46.2042" lon="4.51624">
        <ele>699</ele>
        <time>2020-10-17T11:30:44Z</time>
      </trkpt>
      <trkpt lat="46.2042" lon="4.51624">
        <ele>699</ele>
        <time>2020-10-17T11:30:45Z</time>
      </trkpt>
      <trkpt lat="46.2042" lon="4.51621">
        <ele>699</ele>
        <time>2020-10-17T11:30:46Z</time>
      </trkpt>
      <trkpt lat="46.2042" lon="4.51621">
        <ele>699.2</ele>
        <time>2020-10-17T11:30:47Z</time>
      </trkpt>
      <trkpt lat="46.2042" lon="4.51618">
        <ele>699.4</ele>
        <time>2020-10-17T11:30:48Z</time>
      </trkpt>
      <trkpt lat="46.2042" lon="4.51618">
        <ele>699.6</ele>
        <time>2020-10-17T11:30:49Z</time>
      </trkpt>
      <trkpt lat="46.20421" lon="4.51615">
        <ele>700</ele>
        <time>2020-10-17T11:30:50Z</time>
      </trkpt>
      <trkpt lat="46.20421" lon="4.51615">
        <ele>699.8</ele>
        <time>2020-10-17T11:30:51Z</time>
      </trkpt>
      <trkpt lat="46.20421" lon="4.51615">
        <ele>700.2</ele>
        <time>2020-10-17T11:30:52Z</time>
      </trkpt>
      <trkpt lat="46.20421" lon="4.51611">
        <ele>700.4</ele>
        <time>2020-10-17T11:30:53Z</time>
      </trkpt>
      <trkpt lat="46.20421" lon="4.51611">
        <ele>700.6</ele>
        <time>2020-10-17T11:30:54Z</time>
      </trkpt>
      <trkpt lat="46.2042" lon="4.51608">
        <ele>701</ele>
        <time>2020-10-17T11:30:55Z</time>
      </trkpt>
      <trkpt lat="46.20419" lon="4.51605">
        <ele>701</ele>
        <time>2020-10-17T11:30:56Z</time>
      </trkpt>
      <trkpt lat="46.20419" lon="4.51605">
        <ele>701.2</ele>
        <time>2020-10-17T11:30:57Z</time>
      </trkpt>
      <trkpt lat="46.20417" lon="4.51601">
        <ele>701.6</ele>
        <time>2020-10-17T11:30:58Z</time>
      </trkpt>
      <trkpt lat="46.20417" lon="4.51601">
        <ele>701.6</ele>
        <time>2020-10-17T11:30:59Z</time>
      </trkpt>
      <trkpt lat="46.20417" lon="4.51596">
        <ele>701.8</ele>
        <time>2020-10-17T11:31:00Z</time>
      </trkpt>
      <trkpt lat="46.20417" lon="4.51596">
        <ele>701.8</ele>
        <time>2020-10-17T11:31:01Z</time>
      </trkpt>
      <trkpt lat="46.20415" lon="4.51591">
        <ele>702</ele>
        <time>2020-10-17T11:31:02Z</time>
      </trkpt>
      <trkpt lat="46.20415" lon="4.51591">
        <ele>702.2</ele>
        <time>2020-10-17T11:31:03Z</time>
      </trkpt>
      <trkpt lat="46.20414" lon="4.51587">
        <ele>702.2</ele>
        <time>2020-10-17T11:31:04Z</time>
      </trkpt>
      <trkpt lat="46.20414" lon="4.51587">
        <ele>702.8</ele>
        <time>2020-10-17T11:31:05Z</time>
      </trkpt>
      <trkpt lat="46.20413" lon="4.51584">
        <ele>703</ele>
        <time>2020-10-17T11:31:06Z</time>
      </trkpt>
      <trkpt lat="46.20413" lon="4.51584">
        <ele>703</ele>
        <time>2020-10-17T11:31:07Z</time>
      </trkpt>
      <trkpt lat="46.20412" lon="4.5158">
        <ele>703.2</ele>
        <time>2020-10-17T11:31:08Z</time>
      </trkpt>
      <trkpt lat="46.20412" lon="4.5158">
        <ele>703.4</ele>
        <time>2020-10-17T11:31:09Z</time>
      </trkpt>
      <trkpt lat="46.2041" lon="4.51577">
        <ele>703.8</ele>
        <time>2020-10-17T11:31:10Z</time>
      </trkpt>
      <trkpt lat="46.2041" lon="4.51577">
        <ele>703.8</ele>
        <time>2020-10-17T11:31:11Z</time>
      </trkpt>
      <trkpt lat="46.20409" lon="4.51574">
        <ele>703.8</ele>
        <time>2020-10-17T11:31:12Z</time>
      </trkpt>
      <trkpt lat="46.20408" lon="4.51571">
        <ele>704.6</ele>
        <time>2020-10-17T11:31:13Z</time>
      </trkpt>
      <trkpt lat="46.20408" lon="4.51571">
        <ele>704.8</ele>
        <time>2020-10-17T11:31:14Z</time>
      </trkpt>
      <trkpt lat="46.20407" lon="4.51568">
        <ele>705</ele>
        <time>2020-10-17T11:31:15Z</time>
      </trkpt>
      <trkpt lat="46.20406" lon="4.51565">
        <ele>705.2</ele>
        <time>2020-10-17T11:31:16Z</time>
      </trkpt>
      <trkpt lat="46.20405" lon="4.51563">
        <ele>705.4</ele>
        <time>2020-10-17T11:31:17Z</time>
      </trkpt>
      <trkpt lat="46.20405" lon="4.51563">
        <ele>705.8</ele>
        <time>2020-10-17T11:31:18Z</time>
      </trkpt>
      <trkpt lat="46.20403" lon="4.5156">
        <ele>705.6</ele>
        <time>2020-10-17T11:31:19Z</time>
      </trkpt>
      <trkpt lat="46.20403" lon="4.5156">
        <ele>705.6</ele>
        <time>2020-10-17T11:31:20Z</time>
      </trkpt>
      <trkpt lat="46.20402" lon="4.51555">
        <ele>706.2</ele>
        <time>2020-10-17T11:31:21Z</time>
      </trkpt>
      <trkpt lat="46.20402" lon="4.51555">
        <ele>706.4</ele>
        <time>2020-10-17T11:31:22Z</time>
      </trkpt>
      <trkpt lat="46.20401" lon="4.51552">
        <ele>706.8</ele>
        <time>2020-10-17T11:31:23Z</time>
      </trkpt>
      <trkpt lat="46.20401" lon="4.51552">
        <ele>707</ele>
        <time>2020-10-17T11:31:24Z</time>
      </trkpt>
      <trkpt lat="46.204" lon="4.5155">
        <ele>707.2</ele>
        <time>2020-10-17T11:31:25Z</time>
      </trkpt>
      <trkpt lat="46.204" lon="4.5155">
        <ele>707.8</ele>
        <time>2020-10-17T11:31:26Z</time>
      </trkpt>
      <trkpt lat="46.20398" lon="4.51548">
        <ele>708</ele>
        <time>2020-10-17T11:31:27Z</time>
      </trkpt>
      <trkpt lat="46.20398" lon="4.51548">
        <ele>708</ele>
        <time>2020-10-17T11:31:28Z</time>
      </trkpt>
      <trkpt lat="46.20396" lon="4.51545">
        <ele>708.4</ele>
        <time>2020-10-17T11:31:29Z</time>
      </trkpt>
      <trkpt lat="46.20396" lon="4.51545">
        <ele>708.6</ele>
        <time>2020-10-17T11:31:30Z</time>
      </trkpt>
      <trkpt lat="46.20395" lon="4.51542">
        <ele>708.6</ele>
        <time>2020-10-17T11:31:31Z</time>
      </trkpt>
      <trkpt lat="46.20395" lon="4.51542">
        <ele>708.8</ele>
        <time>2020-10-17T11:31:32Z</time>
      </trkpt>
      <trkpt lat="46.20393" lon="4.51539">
        <ele>709</ele>
        <time>2020-10-17T11:31:33Z</time>
      </trkpt>
      <trkpt lat="46.20392" lon="4.51538">
        <ele>709</ele>
        <time>2020-10-17T11:31:34Z</time>
      </trkpt>
      <trkpt lat="46.20392" lon="4.51538">
        <ele>709.2</ele>
        <time>2020-10-17T11:31:35Z</time>
      </trkpt>
      <trkpt lat="46.20387" lon="4.51532">
        <ele>709.4</ele>
        <time>2020-10-17T11:31:36Z</time>
      </trkpt>
      <trkpt lat="46.20386" lon="4.5153">
        <ele>709.6</ele>
        <time>2020-10-17T11:31:37Z</time>
      </trkpt>
      <trkpt lat="46.20385" lon="4.51528">
        <ele>709.6</ele>
        <time>2020-10-17T11:31:38Z</time>
      </trkpt>
      <trkpt lat="46.20384" lon="4.51526">
        <ele>709.8</ele>
        <time>2020-10-17T11:31:39Z</time>
      </trkpt>
      <trkpt lat="46.20384" lon="4.51526">
        <ele>710.2</ele>
        <time>2020-10-17T11:31:40Z</time>
      </trkpt>
      <trkpt lat="46.20381" lon="4.51524">
        <ele>710.4</ele>
        <time>2020-10-17T11:31:41Z</time>
      </trkpt>
      <trkpt lat="46.20381" lon="4.51524">
        <ele>711</ele>
        <time>2020-10-17T11:31:42Z</time>
      </trkpt>
      <trkpt lat="46.20378" lon="4.51521">
        <ele>711.2</ele>
        <time>2020-10-17T11:31:43Z</time>
      </trkpt>
      <trkpt lat="46.20378" lon="4.51521">
        <ele>711.6</ele>
        <time>2020-10-17T11:31:44Z</time>
      </trkpt>
      <trkpt lat="46.20376" lon="4.51518">
        <ele>712</ele>
        <time>2020-10-17T11:31:45Z</time>
      </trkpt>
      <trkpt lat="46.20376" lon="4.51518">
        <ele>711.8</ele>
        <time>2020-10-17T11:31:46Z</time>
      </trkpt>
      <trkpt lat="46.20375" lon="4.51514">
        <ele>711.8</ele>
        <time>2020-10-17T11:31:47Z</time>
      </trkpt>
      <trkpt lat="46.20375" lon="4.51514">
        <ele>711.6</ele>
        <time>2020-10-17T11:31:48Z</time>
      </trkpt>
      <trkpt lat="46.20373" lon="4.51511">
        <ele>711.8</ele>
        <time>2020-10-17T11:31:49Z</time>
      </trkpt>
      <trkpt lat="46.20373" lon="4.51511">
        <ele>712.2</ele>
        <time>2020-10-17T11:31:50Z</time>
      </trkpt>
      <trkpt lat="46.20372" lon="4.51507">
        <ele>712.6</ele>
        <time>2020-10-17T11:31:51Z</time>
      </trkpt>
      <trkpt lat="46.20372" lon="4.51507">
        <ele>712.8</ele>
        <time>2020-10-17T11:31:52Z</time>
      </trkpt>
      <trkpt lat="46.2037" lon="4.51503">
        <ele>712.8</ele>
        <time>2020-10-17T11:31:53Z</time>
      </trkpt>
      <trkpt lat="46.2037" lon="4.51503">
        <ele>713.2</ele>
        <time>2020-10-17T11:31:54Z</time>
      </trkpt>
      <trkpt lat="46.2037" lon="4.51503">
        <ele>713.2</ele>
        <time>2020-10-17T11:31:55Z</time>
      </trkpt>
      <trkpt lat="46.20366" lon="4.51498">
        <ele>713.4</ele>
        <time>2020-10-17T11:31:56Z</time>
      </trkpt>
      <trkpt lat="46.20366" lon="4.51497">
        <ele>713.4</ele>
        <time>2020-10-17T11:31:57Z</time>
      </trkpt>
      <trkpt lat="46.20366" lon="4.51496">
        <ele>713.8</ele>
        <time>2020-10-17T11:31:58Z</time>
      </trkpt>
      <trkpt lat="46.20365" lon="4.51494">
        <ele>713.8</ele>
        <time>2020-10-17T11:31:59Z</time>
      </trkpt>
      <trkpt lat="46.20364" lon="4.51491">
        <ele>713.8</ele>
        <time>2020-10-17T11:32:00Z</time>
      </trkpt>
      <trkpt lat="46.20364" lon="4.51491">
        <ele>714.2</ele>
        <time>2020-10-17T11:32:01Z</time>
      </trkpt>
      <trkpt lat="46.20364" lon="4.51491">
        <ele>714.4</ele>
        <time>2020-10-17T11:32:02Z</time>
      </trkpt>
      <trkpt lat="46.20364" lon="4.51491">
        <ele>714.2</ele>
        <time>2020-10-17T11:32:03Z</time>
      </trkpt>
      <trkpt lat="46.20362" lon="4.51484">
        <ele>714.4</ele>
        <time>2020-10-17T11:32:04Z</time>
      </trkpt>
      <trkpt lat="46.20361" lon="4.51483">
        <ele>715</ele>
        <time>2020-10-17T11:32:05Z</time>
      </trkpt>
      <trkpt lat="46.20361" lon="4.51482">
        <ele>715.6</ele>
        <time>2020-10-17T11:32:06Z</time>
      </trkpt>
      <trkpt lat="46.20361" lon="4.51481">
        <ele>715.6</ele>
        <time>2020-10-17T11:32:07Z</time>
      </trkpt>
      <trkpt lat="46.20358" lon="4.51477">
        <ele>715.8</ele>
        <time>2020-10-17T11:32:08Z</time>
      </trkpt>
      <trkpt lat="46.20358" lon="4.51477">
        <ele>716</ele>
        <time>2020-10-17T11:32:09Z</time>
      </trkpt>
      <trkpt lat="46.20357" lon="4.51474">
        <ele>716</ele>
        <time>2020-10-17T11:32:10Z</time>
      </trkpt>
      <trkpt lat="46.20357" lon="4.51474">
        <ele>716.2</ele>
        <time>2020-10-17T11:32:11Z</time>
      </trkpt>
      <trkpt lat="46.20356" lon="4.5147">
        <ele>716</ele>
        <time>2020-10-17T11:32:12Z</time>
      </trkpt>
      <trkpt lat="46.20356" lon="4.5147">
        <ele>716.4</ele>
        <time>2020-10-17T11:32:13Z</time>
      </trkpt>
      <trkpt lat="46.20355" lon="4.51467">
        <ele>716.8</ele>
        <time>2020-10-17T11:32:14Z</time>
      </trkpt>
      <trkpt lat="46.20355" lon="4.51467">
        <ele>717</ele>
        <time>2020-10-17T11:32:15Z</time>
      </trkpt>
      <trkpt lat="46.20354" lon="4.51463">
        <ele>717</ele>
        <time>2020-10-17T11:32:16Z</time>
      </trkpt>
      <trkpt lat="46.20354" lon="4.51463">
        <ele>717</ele>
        <time>2020-10-17T11:32:17Z</time>
      </trkpt>
      <trkpt lat="46.20353" lon="4.5146">
        <ele>717.2</ele>
        <time>2020-10-17T11:32:18Z</time>
      </trkpt>
      <trkpt lat="46.20353" lon="4.5146">
        <ele>717.2</ele>
        <time>2020-10-17T11:32:19Z</time>
      </trkpt>
      <trkpt lat="46.20352" lon="4.51456">
        <ele>717.4</ele>
        <time>2020-10-17T11:32:20Z</time>
      </trkpt>
      <trkpt lat="46.20352" lon="4.51456">
        <ele>717.6</ele>
        <time>2020-10-17T11:32:21Z</time>
      </trkpt>
      <trkpt lat="46.20351" lon="4.51453">
        <ele>717.6</ele>
        <time>2020-10-17T11:32:22Z</time>
      </trkpt>
      <trkpt lat="46.20351" lon="4.51453">
        <ele>717.8</ele>
        <time>2020-10-17T11:32:23Z</time>
      </trkpt>
      <trkpt lat="46.20351" lon="4.5145">
        <ele>718</ele>
        <time>2020-10-17T11:32:24Z</time>
      </trkpt>
      <trkpt lat="46.20351" lon="4.5145">
        <ele>718.2</ele>
        <time>2020-10-17T11:32:25Z</time>
      </trkpt>
      <trkpt lat="46.20351" lon="4.51447">
        <ele>718.4</ele>
        <time>2020-10-17T11:32:26Z</time>
      </trkpt>
      <trkpt lat="46.20351" lon="4.51447">
        <ele>718.6</ele>
        <time>2020-10-17T11:32:27Z</time>
      </trkpt>
      <trkpt lat="46.20351" lon="4.51447">
        <ele>718.6</ele>
        <time>2020-10-17T11:32:28Z</time>
      </trkpt>
      <trkpt lat="46.2035" lon="4.51444">
        <ele>719</ele>
        <time>2020-10-17T11:32:29Z</time>
      </trkpt>
      <trkpt lat="46.20348" lon="4.51443">
        <ele>719</ele>
        <time>2020-10-17T11:32:30Z</time>
      </trkpt>
      <trkpt lat="46.20348" lon="4.51443">
        <ele>719</ele>
        <time>2020-10-17T11:32:31Z</time>
      </trkpt>
      <trkpt lat="46.20346" lon="4.51439">
        <ele>719.2</ele>
        <time>2020-10-17T11:32:32Z</time>
      </trkpt>
      <trkpt lat="46.20346" lon="4.51439">
        <ele>719.4</ele>
        <time>2020-10-17T11:32:33Z</time>
      </trkpt>
      <trkpt lat="46.20345" lon="4.51436">
        <ele>719.8</ele>
        <time>2020-10-17T11:32:34Z</time>
      </trkpt>
      <trkpt lat="46.20345" lon="4.51436">
        <ele>720</ele>
        <time>2020-10-17T11:32:35Z</time>
      </trkpt>
      <trkpt lat="46.20345" lon="4.51431">
        <ele>720.4</ele>
        <time>2020-10-17T11:32:36Z</time>
      </trkpt>
      <trkpt lat="46.20343" lon="4.5143">
        <ele>720.6</ele>
        <time>2020-10-17T11:32:37Z</time>
      </trkpt>
      <trkpt lat="46.20343" lon="4.5143">
        <ele>720.6</ele>
        <time>2020-10-17T11:32:38Z</time>
      </trkpt>
      <trkpt lat="46.20342" lon="4.51426">
        <ele>720.8</ele>
        <time>2020-10-17T11:32:39Z</time>
      </trkpt>
      <trkpt lat="46.2034" lon="4.51425">
        <ele>721</ele>
        <time>2020-10-17T11:32:40Z</time>
      </trkpt>
      <trkpt lat="46.2034" lon="4.51425">
        <ele>721.4</ele>
        <time>2020-10-17T11:32:41Z</time>
      </trkpt>
      <trkpt lat="46.20338" lon="4.51421">
        <ele>721.8</ele>
        <time>2020-10-17T11:32:42Z</time>
      </trkpt>
      <trkpt lat="46.20338" lon="4.51421">
        <ele>721.6</ele>
        <time>2020-10-17T11:32:43Z</time>
      </trkpt>
      <trkpt lat="46.20338" lon="4.51418">
        <ele>722</ele>
        <time>2020-10-17T11:32:44Z</time>
      </trkpt>
      <trkpt lat="46.20338" lon="4.51418">
        <ele>722.2</ele>
        <time>2020-10-17T11:32:45Z</time>
      </trkpt>
      <trkpt lat="46.20337" lon="4.51415">
        <ele>722.2</ele>
        <time>2020-10-17T11:32:46Z</time>
      </trkpt>
      <trkpt lat="46.20337" lon="4.51415">
        <ele>722.6</ele>
        <time>2020-10-17T11:32:47Z</time>
      </trkpt>
      <trkpt lat="46.20336" lon="4.51412">
        <ele>722.8</ele>
        <time>2020-10-17T11:32:48Z</time>
      </trkpt>
      <trkpt lat="46.20336" lon="4.51412">
        <ele>723.2</ele>
        <time>2020-10-17T11:32:49Z</time>
      </trkpt>
      <trkpt lat="46.20335" lon="4.51409">
        <ele>723.2</ele>
        <time>2020-10-17T11:32:50Z</time>
      </trkpt>
      <trkpt lat="46.20335" lon="4.51409">
        <ele>723.2</ele>
        <time>2020-10-17T11:32:51Z</time>
      </trkpt>
      <trkpt lat="46.20334" lon="4.51406">
        <ele>723.4</ele>
        <time>2020-10-17T11:32:52Z</time>
      </trkpt>
      <trkpt lat="46.20334" lon="4.51406">
        <ele>723.2</ele>
        <time>2020-10-17T11:32:53Z</time>
      </trkpt>
      <trkpt lat="46.20333" lon="4.51403">
        <ele>723.6</ele>
        <time>2020-10-17T11:32:54Z</time>
      </trkpt>
      <trkpt lat="46.20333" lon="4.51403">
        <ele>724</ele>
        <time>2020-10-17T11:32:55Z</time>
      </trkpt>
      <trkpt lat="46.20333" lon="4.514">
        <ele>724.2</ele>
        <time>2020-10-17T11:32:56Z</time>
      </trkpt>
      <trkpt lat="46.20333" lon="4.514">
        <ele>724.6</ele>
        <time>2020-10-17T11:32:57Z</time>
      </trkpt>
      <trkpt lat="46.20333" lon="4.51395">
        <ele>724.6</ele>
        <time>2020-10-17T11:32:58Z</time>
      </trkpt>
      <trkpt lat="46.20333" lon="4.51395">
        <ele>724.8</ele>
        <time>2020-10-17T11:32:59Z</time>
      </trkpt>
      <trkpt lat="46.20334" lon="4.5139">
        <ele>725.2</ele>
        <time>2020-10-17T11:33:00Z</time>
      </trkpt>
      <trkpt lat="46.20334" lon="4.5139">
        <ele>725.2</ele>
        <time>2020-10-17T11:33:01Z</time>
      </trkpt>
      <trkpt lat="46.20334" lon="4.51384">
        <ele>725.6</ele>
        <time>2020-10-17T11:33:02Z</time>
      </trkpt>
      <trkpt lat="46.20334" lon="4.51383">
        <ele>725.6</ele>
        <time>2020-10-17T11:33:03Z</time>
      </trkpt>
      <trkpt lat="46.20334" lon="4.51383">
        <ele>725.8</ele>
        <time>2020-10-17T11:33:04Z</time>
      </trkpt>
      <trkpt lat="46.20335" lon="4.51378">
        <ele>726.2</ele>
        <time>2020-10-17T11:33:05Z</time>
      </trkpt>
      <trkpt lat="46.20335" lon="4.51378">
        <ele>726.4</ele>
        <time>2020-10-17T11:33:06Z</time>
      </trkpt>
      <trkpt lat="46.20334" lon="4.51376">
        <ele>726.6</ele>
        <time>2020-10-17T11:33:07Z</time>
      </trkpt>
      <trkpt lat="46.20334" lon="4.51376">
        <ele>727</ele>
        <time>2020-10-17T11:33:08Z</time>
      </trkpt>
      <trkpt lat="46.20334" lon="4.51372">
        <ele>727</ele>
        <time>2020-10-17T11:33:09Z</time>
      </trkpt>
      <trkpt lat="46.20334" lon="4.51372">
        <ele>727.4</ele>
        <time>2020-10-17T11:33:10Z</time>
      </trkpt>
      <trkpt lat="46.20334" lon="4.51368">
        <ele>727.4</ele>
        <time>2020-10-17T11:33:11Z</time>
      </trkpt>
      <trkpt lat="46.20334" lon="4.51368">
        <ele>727.6</ele>
        <time>2020-10-17T11:33:12Z</time>
      </trkpt>
      <trkpt lat="46.20335" lon="4.51363">
        <ele>728</ele>
        <time>2020-10-17T11:33:13Z</time>
      </trkpt>
      <trkpt lat="46.20335" lon="4.51359">
        <ele>728.2</ele>
        <time>2020-10-17T11:33:14Z</time>
      </trkpt>
      <trkpt lat="46.20335" lon="4.51359">
        <ele>728.6</ele>
        <time>2020-10-17T11:33:15Z</time>
      </trkpt>
      <trkpt lat="46.20334" lon="4.51356">
        <ele>729</ele>
        <time>2020-10-17T11:33:16Z</time>
      </trkpt>
      <trkpt lat="46.20334" lon="4.51356">
        <ele>729</ele>
        <time>2020-10-17T11:33:17Z</time>
      </trkpt>
      <trkpt lat="46.20333" lon="4.51353">
        <ele>729</ele>
        <time>2020-10-17T11:33:18Z</time>
      </trkpt>
      <trkpt lat="46.20333" lon="4.51353">
        <ele>729.2</ele>
        <time>2020-10-17T11:33:19Z</time>
      </trkpt>
      <trkpt lat="46.20333" lon="4.51353">
        <ele>729.2</ele>
        <time>2020-10-17T11:33:20Z</time>
      </trkpt>
      <trkpt lat="46.20334" lon="4.51349">
        <ele>729.4</ele>
        <time>2020-10-17T11:33:21Z</time>
      </trkpt>
      <trkpt lat="46.20334" lon="4.51349">
        <ele>729.6</ele>
        <time>2020-10-17T11:33:22Z</time>
      </trkpt>
      <trkpt lat="46.20334" lon="4.51346">
        <ele>730</ele>
        <time>2020-10-17T11:33:23Z</time>
      </trkpt>
      <trkpt lat="46.20334" lon="4.51346">
        <ele>730</ele>
        <time>2020-10-17T11:33:24Z</time>
      </trkpt>
      <trkpt lat="46.20335" lon="4.51343">
        <ele>730</ele>
        <time>2020-10-17T11:33:25Z</time>
      </trkpt>
      <trkpt lat="46.20335" lon="4.51343">
        <ele>730.2</ele>
        <time>2020-10-17T11:33:26Z</time>
      </trkpt>
      <trkpt lat="46.20335" lon="4.51339">
        <ele>730.6</ele>
        <time>2020-10-17T11:33:27Z</time>
      </trkpt>
      <trkpt lat="46.20335" lon="4.51339">
        <ele>731</ele>
        <time>2020-10-17T11:33:28Z</time>
      </trkpt>
      <trkpt lat="46.20335" lon="4.51334">
        <ele>731.4</ele>
        <time>2020-10-17T11:33:29Z</time>
      </trkpt>
      <trkpt lat="46.20335" lon="4.51334">
        <ele>731.8</ele>
        <time>2020-10-17T11:33:30Z</time>
      </trkpt>
      <trkpt lat="46.20334" lon="4.5133">
        <ele>731.8</ele>
        <time>2020-10-17T11:33:31Z</time>
      </trkpt>
      <trkpt lat="46.20334" lon="4.5133">
        <ele>732.2</ele>
        <time>2020-10-17T11:33:32Z</time>
      </trkpt>
      <trkpt lat="46.20333" lon="4.51327">
        <ele>732.2</ele>
        <time>2020-10-17T11:33:33Z</time>
      </trkpt>
      <trkpt lat="46.20333" lon="4.51327">
        <ele>732.2</ele>
        <time>2020-10-17T11:33:34Z</time>
      </trkpt>
      <trkpt lat="46.20333" lon="4.51324">
        <ele>732.4</ele>
        <time>2020-10-17T11:33:35Z</time>
      </trkpt>
      <trkpt lat="46.20333" lon="4.51324">
        <ele>732.8</ele>
        <time>2020-10-17T11:33:36Z</time>
      </trkpt>
      <trkpt lat="46.20333" lon="4.51321">
        <ele>732.8</ele>
        <time>2020-10-17T11:33:37Z</time>
      </trkpt>
      <trkpt lat="46.20333" lon="4.51321">
        <ele>732.8</ele>
        <time>2020-10-17T11:33:38Z</time>
      </trkpt>
      <trkpt lat="46.20333" lon="4.51317">
        <ele>732.8</ele>
        <time>2020-10-17T11:33:39Z</time>
      </trkpt>
      <trkpt lat="46.20333" lon="4.51317">
        <ele>733.2</ele>
        <time>2020-10-17T11:33:40Z</time>
      </trkpt>
      <trkpt lat="46.20333" lon="4.51312">
        <ele>733.4</ele>
        <time>2020-10-17T11:33:41Z</time>
      </trkpt>
      <trkpt lat="46.20333" lon="4.51312">
        <ele>733.4</ele>
        <time>2020-10-17T11:33:42Z</time>
      </trkpt>
      <trkpt lat="46.20333" lon="4.51308">
        <ele>733.8</ele>
        <time>2020-10-17T11:33:43Z</time>
      </trkpt>
      <trkpt lat="46.20333" lon="4.51308">
        <ele>734.2</ele>
        <time>2020-10-17T11:33:44Z</time>
      </trkpt>
      <trkpt lat="46.20332" lon="4.51304">
        <ele>734.4</ele>
        <time>2020-10-17T11:33:45Z</time>
      </trkpt>
      <trkpt lat="46.20332" lon="4.51304">
        <ele>734.4</ele>
        <time>2020-10-17T11:33:46Z</time>
      </trkpt>
      <trkpt lat="46.2033" lon="4.513">
        <ele>734.8</ele>
        <time>2020-10-17T11:33:47Z</time>
      </trkpt>
      <trkpt lat="46.2033" lon="4.513">
        <ele>735</ele>
        <time>2020-10-17T11:33:48Z</time>
      </trkpt>
      <trkpt lat="46.20329" lon="4.51296">
        <ele>734.8</ele>
        <time>2020-10-17T11:33:49Z</time>
      </trkpt>
      <trkpt lat="46.20329" lon="4.51296">
        <ele>735.2</ele>
        <time>2020-10-17T11:33:50Z</time>
      </trkpt>
      <trkpt lat="46.20328" lon="4.51293">
        <ele>735.2</ele>
        <time>2020-10-17T11:33:51Z</time>
      </trkpt>
      <trkpt lat="46.20328" lon="4.51293">
        <ele>735.6</ele>
        <time>2020-10-17T11:33:52Z</time>
      </trkpt>
      <trkpt lat="46.20328" lon="4.5129">
        <ele>735.8</ele>
        <time>2020-10-17T11:33:53Z</time>
      </trkpt>
      <trkpt lat="46.20328" lon="4.5129">
        <ele>736.2</ele>
        <time>2020-10-17T11:33:54Z</time>
      </trkpt>
      <trkpt lat="46.20328" lon="4.51287">
        <ele>736.4</ele>
        <time>2020-10-17T11:33:55Z</time>
      </trkpt>
      <trkpt lat="46.20328" lon="4.51287">
        <ele>736.6</ele>
        <time>2020-10-17T11:33:56Z</time>
      </trkpt>
      <trkpt lat="46.20328" lon="4.51283">
        <ele>736.6</ele>
        <time>2020-10-17T11:33:57Z</time>
      </trkpt>
      <trkpt lat="46.20328" lon="4.51283">
        <ele>736.6</ele>
        <time>2020-10-17T11:33:58Z</time>
      </trkpt>
      <trkpt lat="46.20329" lon="4.51279">
        <ele>736.6</ele>
        <time>2020-10-17T11:33:59Z</time>
      </trkpt>
      <trkpt lat="46.20329" lon="4.51279">
        <ele>737</ele>
        <time>2020-10-17T11:34:00Z</time>
      </trkpt>
      <trkpt lat="46.2033" lon="4.51275">
        <ele>737</ele>
        <time>2020-10-17T11:34:01Z</time>
      </trkpt>
      <trkpt lat="46.2033" lon="4.51275">
        <ele>737.2</ele>
        <time>2020-10-17T11:34:02Z</time>
      </trkpt>
      <trkpt lat="46.2033" lon="4.5127">
        <ele>737.4</ele>
        <time>2020-10-17T11:34:03Z</time>
      </trkpt>
      <trkpt lat="46.2033" lon="4.5127">
        <ele>737.6</ele>
        <time>2020-10-17T11:34:04Z</time>
      </trkpt>
      <trkpt lat="46.2033" lon="4.5127">
        <ele>737.6</ele>
        <time>2020-10-17T11:34:05Z</time>
      </trkpt>
      <trkpt lat="46.2033" lon="4.5127">
        <ele>737.8</ele>
        <time>2020-10-17T11:34:06Z</time>
      </trkpt>
      <trkpt lat="46.2033" lon="4.51268">
        <ele>738</ele>
        <time>2020-10-17T11:34:07Z</time>
      </trkpt>
      <trkpt lat="46.2033" lon="4.51265">
        <ele>738.2</ele>
        <time>2020-10-17T11:34:08Z</time>
      </trkpt>
      <trkpt lat="46.2033" lon="4.51263">
        <ele>738.4</ele>
        <time>2020-10-17T11:34:09Z</time>
      </trkpt>
      <trkpt lat="46.2033" lon="4.51261">
        <ele>738.2</ele>
        <time>2020-10-17T11:34:10Z</time>
      </trkpt>
      <trkpt lat="46.2033" lon="4.51258">
        <ele>738.4</ele>
        <time>2020-10-17T11:34:11Z</time>
      </trkpt>
      <trkpt lat="46.2033" lon="4.51256">
        <ele>738.4</ele>
        <time>2020-10-17T11:34:12Z</time>
      </trkpt>
      <trkpt lat="46.20332" lon="4.51248">
        <ele>738.4</ele>
        <time>2020-10-17T11:34:13Z</time>
      </trkpt>
      <trkpt lat="46.20332" lon="4.51246">
        <ele>738.4</ele>
        <time>2020-10-17T11:34:14Z</time>
      </trkpt>
      <trkpt lat="46.20332" lon="4.51245">
        <ele>738.8</ele>
        <time>2020-10-17T11:34:15Z</time>
      </trkpt>
      <trkpt lat="46.20331" lon="4.51244">
        <ele>738.8</ele>
        <time>2020-10-17T11:34:16Z</time>
      </trkpt>
      <trkpt lat="46.20333" lon="4.51239">
        <ele>739</ele>
        <time>2020-10-17T11:34:17Z</time>
      </trkpt>
      <trkpt lat="46.20333" lon="4.51239">
        <ele>739.2</ele>
        <time>2020-10-17T11:34:18Z</time>
      </trkpt>
      <trkpt lat="46.20334" lon="4.51232">
        <ele>739.4</ele>
        <time>2020-10-17T11:34:19Z</time>
      </trkpt>
      <trkpt lat="46.20334" lon="4.5123">
        <ele>739.6</ele>
        <time>2020-10-17T11:34:20Z</time>
      </trkpt>
      <trkpt lat="46.20333" lon="4.51227">
        <ele>739.6</ele>
        <time>2020-10-17T11:34:21Z</time>
      </trkpt>
      <trkpt lat="46.20333" lon="4.51225">
        <ele>739.6</ele>
        <time>2020-10-17T11:34:22Z</time>
      </trkpt>
      <trkpt lat="46.20333" lon="4.51222">
        <ele>739.8</ele>
        <time>2020-10-17T11:34:23Z</time>
      </trkpt>
      <trkpt lat="46.20334" lon="4.51219">
        <ele>739.4</ele>
        <time>2020-10-17T11:34:24Z</time>
      </trkpt>
      <trkpt lat="46.20334" lon="4.51216">
        <ele>739.6</ele>
        <time>2020-10-17T11:34:25Z</time>
      </trkpt>
      <trkpt lat="46.20334" lon="4.51216">
        <ele>739.6</ele>
        <time>2020-10-17T11:34:26Z</time>
      </trkpt>
      <trkpt lat="46.20334" lon="4.51212">
        <ele>739.6</ele>
        <time>2020-10-17T11:34:27Z</time>
      </trkpt>
      <trkpt lat="46.20334" lon="4.51212">
        <ele>739.6</ele>
        <time>2020-10-17T11:34:28Z</time>
      </trkpt>
      <trkpt lat="46.20334" lon="4.51207">
        <ele>739.8</ele>
        <time>2020-10-17T11:34:29Z</time>
      </trkpt>
      <trkpt lat="46.20334" lon="4.51207">
        <ele>740</ele>
        <time>2020-10-17T11:34:30Z</time>
      </trkpt>
      <trkpt lat="46.20335" lon="4.51203">
        <ele>740.2</ele>
        <time>2020-10-17T11:34:31Z</time>
      </trkpt>
      <trkpt lat="46.20335" lon="4.51203">
        <ele>740.2</ele>
        <time>2020-10-17T11:34:32Z</time>
      </trkpt>
      <trkpt lat="46.20334" lon="4.512">
        <ele>740.4</ele>
        <time>2020-10-17T11:34:33Z</time>
      </trkpt>
      <trkpt lat="46.20334" lon="4.512">
        <ele>740.2</ele>
        <time>2020-10-17T11:34:34Z</time>
      </trkpt>
      <trkpt lat="46.20334" lon="4.512">
        <ele>740.2</ele>
        <time>2020-10-17T11:34:35Z</time>
      </trkpt>
      <trkpt lat="46.20334" lon="4.512">
        <ele>740.2</ele>
        <time>2020-10-17T11:34:36Z</time>
      </trkpt>
      <trkpt lat="46.20332" lon="4.51197">
        <ele>740.2</ele>
        <time>2020-10-17T11:34:37Z</time>
      </trkpt>
      <trkpt lat="46.20332" lon="4.51197">
        <ele>740.2</ele>
        <time>2020-10-17T11:34:38Z</time>
      </trkpt>
      <trkpt lat="46.20332" lon="4.51197">
        <ele>740.4</ele>
        <time>2020-10-17T11:34:39Z</time>
      </trkpt>
      <trkpt lat="46.20331" lon="4.51193">
        <ele>740.4</ele>
        <time>2020-10-17T11:34:40Z</time>
      </trkpt>
      <trkpt lat="46.20331" lon="4.51193">
        <ele>740.4</ele>
        <time>2020-10-17T11:34:41Z</time>
      </trkpt>
      <trkpt lat="46.20331" lon="4.51193">
        <ele>740.4</ele>
        <time>2020-10-17T11:34:42Z</time>
      </trkpt>
      <trkpt lat="46.2033" lon="4.51191">
        <ele>740.2</ele>
        <time>2020-10-17T11:34:43Z</time>
      </trkpt>
      <trkpt lat="46.2033" lon="4.51191">
        <ele>740.4</ele>
        <time>2020-10-17T11:34:44Z</time>
      </trkpt>
      <trkpt lat="46.2033" lon="4.51188">
        <ele>740.4</ele>
        <time>2020-10-17T11:34:45Z</time>
      </trkpt>
      <trkpt lat="46.2033" lon="4.51185">
        <ele>740.6</ele>
        <time>2020-10-17T11:34:46Z</time>
      </trkpt>
      <trkpt lat="46.2033" lon="4.51185">
        <ele>740.8</ele>
        <time>2020-10-17T11:34:47Z</time>
      </trkpt>
      <trkpt lat="46.20328" lon="4.51181">
        <ele>740.8</ele>
        <time>2020-10-17T11:34:48Z</time>
      </trkpt>
      <trkpt lat="46.20328" lon="4.51181">
        <ele>740.6</ele>
        <time>2020-10-17T11:34:49Z</time>
      </trkpt>
      <trkpt lat="46.20327" lon="4.51178">
        <ele>740.6</ele>
        <time>2020-10-17T11:34:50Z</time>
      </trkpt>
      <trkpt lat="46.20327" lon="4.51178">
        <ele>740.6</ele>
        <time>2020-10-17T11:34:51Z</time>
      </trkpt>
      <trkpt lat="46.20325" lon="4.51174">
        <ele>740.6</ele>
        <time>2020-10-17T11:34:52Z</time>
      </trkpt>
      <trkpt lat="46.20325" lon="4.51172">
        <ele>740.8</ele>
        <time>2020-10-17T11:34:53Z</time>
      </trkpt>
      <trkpt lat="46.20324" lon="4.51169">
        <ele>740.6</ele>
        <time>2020-10-17T11:34:54Z</time>
      </trkpt>
      <trkpt lat="46.20323" lon="4.51166">
        <ele>740.4</ele>
        <time>2020-10-17T11:34:55Z</time>
      </trkpt>
      <trkpt lat="46.20322" lon="4.51163">
        <ele>740.6</ele>
        <time>2020-10-17T11:34:56Z</time>
      </trkpt>
      <trkpt lat="46.20322" lon="4.5116">
        <ele>740.8</ele>
        <time>2020-10-17T11:34:57Z</time>
      </trkpt>
      <trkpt lat="46.20322" lon="4.5116">
        <ele>740.4</ele>
        <time>2020-10-17T11:34:58Z</time>
      </trkpt>
      <trkpt lat="46.20321" lon="4.51156">
        <ele>740.8</ele>
        <time>2020-10-17T11:34:59Z</time>
      </trkpt>
      <trkpt lat="46.20321" lon="4.51156">
        <ele>740.8</ele>
        <time>2020-10-17T11:35:00Z</time>
      </trkpt>
      <trkpt lat="46.2032" lon="4.51152">
        <ele>740.8</ele>
        <time>2020-10-17T11:35:01Z</time>
      </trkpt>
      <trkpt lat="46.20321" lon="4.51144">
        <ele>740.8</ele>
        <time>2020-10-17T11:35:02Z</time>
      </trkpt>
      <trkpt lat="46.20321" lon="4.51144">
        <ele>740.8</ele>
        <time>2020-10-17T11:35:03Z</time>
      </trkpt>
      <trkpt lat="46.2032" lon="4.51139">
        <ele>741.2</ele>
        <time>2020-10-17T11:35:04Z</time>
      </trkpt>
      <trkpt lat="46.20319" lon="4.51137">
        <ele>741</ele>
        <time>2020-10-17T11:35:05Z</time>
      </trkpt>
      <trkpt lat="46.20318" lon="4.51134">
        <ele>741</ele>
        <time>2020-10-17T11:35:06Z</time>
      </trkpt>
      <trkpt lat="46.20317" lon="4.51131">
        <ele>741.2</ele>
        <time>2020-10-17T11:35:07Z</time>
      </trkpt>
      <trkpt lat="46.20316" lon="4.51126">
        <ele>741</ele>
        <time>2020-10-17T11:35:08Z</time>
      </trkpt>
      <trkpt lat="46.20315" lon="4.51123">
        <ele>741.6</ele>
        <time>2020-10-17T11:35:09Z</time>
      </trkpt>
      <trkpt lat="46.20315" lon="4.51121">
        <ele>741.6</ele>
        <time>2020-10-17T11:35:10Z</time>
      </trkpt>
      <trkpt lat="46.20315" lon="4.51121">
        <ele>741.6</ele>
        <time>2020-10-17T11:35:11Z</time>
      </trkpt>
      <trkpt lat="46.20314" lon="4.51117">
        <ele>741.8</ele>
        <time>2020-10-17T11:35:12Z</time>
      </trkpt>
      <trkpt lat="46.20314" lon="4.51117">
        <ele>742.2</ele>
        <time>2020-10-17T11:35:13Z</time>
      </trkpt>
      <trkpt lat="46.20314" lon="4.51113">
        <ele>742.4</ele>
        <time>2020-10-17T11:35:14Z</time>
      </trkpt>
      <trkpt lat="46.20314" lon="4.51113">
        <ele>742.4</ele>
        <time>2020-10-17T11:35:15Z</time>
      </trkpt>
      <trkpt lat="46.20314" lon="4.51109">
        <ele>742.2</ele>
        <time>2020-10-17T11:35:16Z</time>
      </trkpt>
      <trkpt lat="46.20314" lon="4.51109">
        <ele>742.8</ele>
        <time>2020-10-17T11:35:17Z</time>
      </trkpt>
      <trkpt lat="46.20313" lon="4.51105">
        <ele>743</ele>
        <time>2020-10-17T11:35:18Z</time>
      </trkpt>
      <trkpt lat="46.20313" lon="4.51105">
        <ele>743.2</ele>
        <time>2020-10-17T11:35:19Z</time>
      </trkpt>
      <trkpt lat="46.20312" lon="4.51101">
        <ele>743.2</ele>
        <time>2020-10-17T11:35:20Z</time>
      </trkpt>
      <trkpt lat="46.20312" lon="4.51101">
        <ele>743.2</ele>
        <time>2020-10-17T11:35:21Z</time>
      </trkpt>
      <trkpt lat="46.20312" lon="4.51097">
        <ele>743.2</ele>
        <time>2020-10-17T11:35:22Z</time>
      </trkpt>
      <trkpt lat="46.20312" lon="4.51097">
        <ele>743.2</ele>
        <time>2020-10-17T11:35:23Z</time>
      </trkpt>
      <trkpt lat="46.20312" lon="4.51093">
        <ele>743.4</ele>
        <time>2020-10-17T11:35:24Z</time>
      </trkpt>
      <trkpt lat="46.20312" lon="4.51093">
        <ele>743.6</ele>
        <time>2020-10-17T11:35:25Z</time>
      </trkpt>
      <trkpt lat="46.20311" lon="4.5109">
        <ele>743.8</ele>
        <time>2020-10-17T11:35:26Z</time>
      </trkpt>
      <trkpt lat="46.20311" lon="4.5109">
        <ele>744</ele>
        <time>2020-10-17T11:35:27Z</time>
      </trkpt>
      <trkpt lat="46.20309" lon="4.51087">
        <ele>743.8</ele>
        <time>2020-10-17T11:35:28Z</time>
      </trkpt>
      <trkpt lat="46.20309" lon="4.51087">
        <ele>744.2</ele>
        <time>2020-10-17T11:35:29Z</time>
      </trkpt>
      <trkpt lat="46.20307" lon="4.51083">
        <ele>744.6</ele>
        <time>2020-10-17T11:35:30Z</time>
      </trkpt>
      <trkpt lat="46.20307" lon="4.51083">
        <ele>744.6</ele>
        <time>2020-10-17T11:35:31Z</time>
      </trkpt>
      <trkpt lat="46.20305" lon="4.5108">
        <ele>744.8</ele>
        <time>2020-10-17T11:35:32Z</time>
      </trkpt>
      <trkpt lat="46.20305" lon="4.5108">
        <ele>744.8</ele>
        <time>2020-10-17T11:35:33Z</time>
      </trkpt>
      <trkpt lat="46.20303" lon="4.51077">
        <ele>744.8</ele>
        <time>2020-10-17T11:35:34Z</time>
      </trkpt>
      <trkpt lat="46.20303" lon="4.51077">
        <ele>744.6</ele>
        <time>2020-10-17T11:35:35Z</time>
      </trkpt>
      <trkpt lat="46.20301" lon="4.51074">
        <ele>744.8</ele>
        <time>2020-10-17T11:35:36Z</time>
      </trkpt>
      <trkpt lat="46.20301" lon="4.51074">
        <ele>744.8</ele>
        <time>2020-10-17T11:35:37Z</time>
      </trkpt>
      <trkpt lat="46.203" lon="4.51071">
        <ele>745</ele>
        <time>2020-10-17T11:35:38Z</time>
      </trkpt>
      <trkpt lat="46.203" lon="4.51071">
        <ele>745.2</ele>
        <time>2020-10-17T11:35:39Z</time>
      </trkpt>
      <trkpt lat="46.20298" lon="4.51068">
        <ele>745.4</ele>
        <time>2020-10-17T11:35:40Z</time>
      </trkpt>
      <trkpt lat="46.20298" lon="4.51068">
        <ele>745.6</ele>
        <time>2020-10-17T11:35:41Z</time>
      </trkpt>
      <trkpt lat="46.20296" lon="4.51065">
        <ele>745.6</ele>
        <time>2020-10-17T11:35:42Z</time>
      </trkpt>
      <trkpt lat="46.20296" lon="4.51065">
        <ele>745.6</ele>
        <time>2020-10-17T11:35:43Z</time>
      </trkpt>
      <trkpt lat="46.20294" lon="4.51062">
        <ele>745.6</ele>
        <time>2020-10-17T11:35:44Z</time>
      </trkpt>
      <trkpt lat="46.20294" lon="4.51062">
        <ele>746.2</ele>
        <time>2020-10-17T11:35:45Z</time>
      </trkpt>
      <trkpt lat="46.20293" lon="4.5106">
        <ele>746.4</ele>
        <time>2020-10-17T11:35:46Z</time>
      </trkpt>
      <trkpt lat="46.20293" lon="4.5106">
        <ele>746.6</ele>
        <time>2020-10-17T11:35:47Z</time>
      </trkpt>
      <trkpt lat="46.2029" lon="4.51057">
        <ele>746.6</ele>
        <time>2020-10-17T11:35:48Z</time>
      </trkpt>
      <trkpt lat="46.2029" lon="4.51057">
        <ele>746.8</ele>
        <time>2020-10-17T11:35:49Z</time>
      </trkpt>
      <trkpt lat="46.20288" lon="4.51054">
        <ele>746.8</ele>
        <time>2020-10-17T11:35:50Z</time>
      </trkpt>
      <trkpt lat="46.20288" lon="4.51054">
        <ele>746.6</ele>
        <time>2020-10-17T11:35:51Z</time>
      </trkpt>
      <trkpt lat="46.20287" lon="4.51051">
        <ele>747</ele>
        <time>2020-10-17T11:35:52Z</time>
      </trkpt>
      <trkpt lat="46.20287" lon="4.51051">
        <ele>747</ele>
        <time>2020-10-17T11:35:53Z</time>
      </trkpt>
      <trkpt lat="46.20286" lon="4.51048">
        <ele>747.2</ele>
        <time>2020-10-17T11:35:54Z</time>
      </trkpt>
      <trkpt lat="46.20286" lon="4.51048">
        <ele>747.2</ele>
        <time>2020-10-17T11:35:55Z</time>
      </trkpt>
      <trkpt lat="46.20284" lon="4.51044">
        <ele>747.4</ele>
        <time>2020-10-17T11:35:56Z</time>
      </trkpt>
      <trkpt lat="46.20284" lon="4.51044">
        <ele>747.2</ele>
        <time>2020-10-17T11:35:57Z</time>
      </trkpt>
      <trkpt lat="46.20282" lon="4.51042">
        <ele>747.6</ele>
        <time>2020-10-17T11:35:58Z</time>
      </trkpt>
      <trkpt lat="46.20282" lon="4.51042">
        <ele>747.8</ele>
        <time>2020-10-17T11:35:59Z</time>
      </trkpt>
      <trkpt lat="46.20282" lon="4.51039">
        <ele>747.8</ele>
        <time>2020-10-17T11:36:00Z</time>
      </trkpt>
      <trkpt lat="46.20282" lon="4.51039">
        <ele>748</ele>
        <time>2020-10-17T11:36:01Z</time>
      </trkpt>
      <trkpt lat="46.20281" lon="4.51036">
        <ele>748</ele>
        <time>2020-10-17T11:36:02Z</time>
      </trkpt>
      <trkpt lat="46.20281" lon="4.51036">
        <ele>748</ele>
        <time>2020-10-17T11:36:03Z</time>
      </trkpt>
      <trkpt lat="46.20279" lon="4.51033">
        <ele>748.4</ele>
        <time>2020-10-17T11:36:04Z</time>
      </trkpt>
      <trkpt lat="46.20279" lon="4.51033">
        <ele>748.2</ele>
        <time>2020-10-17T11:36:05Z</time>
      </trkpt>
      <trkpt lat="46.20278" lon="4.51029">
        <ele>748.2</ele>
        <time>2020-10-17T11:36:06Z</time>
      </trkpt>
      <trkpt lat="46.20278" lon="4.51029">
        <ele>748.2</ele>
        <time>2020-10-17T11:36:07Z</time>
      </trkpt>
      <trkpt lat="46.20276" lon="4.51026">
        <ele>748.4</ele>
        <time>2020-10-17T11:36:08Z</time>
      </trkpt>
      <trkpt lat="46.20276" lon="4.51026">
        <ele>748.6</ele>
        <time>2020-10-17T11:36:09Z</time>
      </trkpt>
      <trkpt lat="46.20275" lon="4.51022">
        <ele>748.8</ele>
        <time>2020-10-17T11:36:10Z</time>
      </trkpt>
      <trkpt lat="46.20275" lon="4.51022">
        <ele>748.8</ele>
        <time>2020-10-17T11:36:11Z</time>
      </trkpt>
      <trkpt lat="46.20275" lon="4.51018">
        <ele>749</ele>
        <time>2020-10-17T11:36:12Z</time>
      </trkpt>
      <trkpt lat="46.20275" lon="4.51018">
        <ele>749.2</ele>
        <time>2020-10-17T11:36:13Z</time>
      </trkpt>
      <trkpt lat="46.20274" lon="4.51015">
        <ele>749.4</ele>
        <time>2020-10-17T11:36:14Z</time>
      </trkpt>
      <trkpt lat="46.20274" lon="4.51015">
        <ele>749.6</ele>
        <time>2020-10-17T11:36:15Z</time>
      </trkpt>
      <trkpt lat="46.20274" lon="4.51011">
        <ele>749.8</ele>
        <time>2020-10-17T11:36:16Z</time>
      </trkpt>
      <trkpt lat="46.20274" lon="4.51011">
        <ele>750.2</ele>
        <time>2020-10-17T11:36:17Z</time>
      </trkpt>
      <trkpt lat="46.20273" lon="4.51008">
        <ele>750.4</ele>
        <time>2020-10-17T11:36:18Z</time>
      </trkpt>
      <trkpt lat="46.20273" lon="4.51008">
        <ele>750.4</ele>
        <time>2020-10-17T11:36:19Z</time>
      </trkpt>
      <trkpt lat="46.20272" lon="4.51005">
        <ele>750.8</ele>
        <time>2020-10-17T11:36:20Z</time>
      </trkpt>
      <trkpt lat="46.20272" lon="4.51005">
        <ele>750.8</ele>
        <time>2020-10-17T11:36:21Z</time>
      </trkpt>
      <trkpt lat="46.20269" lon="4.51002">
        <ele>751</ele>
        <time>2020-10-17T11:36:22Z</time>
      </trkpt>
      <trkpt lat="46.20269" lon="4.50999">
        <ele>751.4</ele>
        <time>2020-10-17T11:36:23Z</time>
      </trkpt>
      <trkpt lat="46.20269" lon="4.50999">
        <ele>751.6</ele>
        <time>2020-10-17T11:36:24Z</time>
      </trkpt>
      <trkpt lat="46.20267" lon="4.50995">
        <ele>752</ele>
        <time>2020-10-17T11:36:25Z</time>
      </trkpt>
      <trkpt lat="46.20266" lon="4.50993">
        <ele>752</ele>
        <time>2020-10-17T11:36:26Z</time>
      </trkpt>
      <trkpt lat="46.20265" lon="4.50991">
        <ele>752.2</ele>
        <time>2020-10-17T11:36:27Z</time>
      </trkpt>
      <trkpt lat="46.20264" lon="4.50988">
        <ele>752.4</ele>
        <time>2020-10-17T11:36:28Z</time>
      </trkpt>
      <trkpt lat="46.20264" lon="4.50988">
        <ele>752.6</ele>
        <time>2020-10-17T11:36:29Z</time>
      </trkpt>
      <trkpt lat="46.20263" lon="4.50984">
        <ele>752.6</ele>
        <time>2020-10-17T11:36:30Z</time>
      </trkpt>
      <trkpt lat="46.20263" lon="4.50982">
        <ele>753</ele>
        <time>2020-10-17T11:36:31Z</time>
      </trkpt>
      <trkpt lat="46.20263" lon="4.50982">
        <ele>752.8</ele>
        <time>2020-10-17T11:36:32Z</time>
      </trkpt>
      <trkpt lat="46.20263" lon="4.50978">
        <ele>753.2</ele>
        <time>2020-10-17T11:36:33Z</time>
      </trkpt>
      <trkpt lat="46.20263" lon="4.50978">
        <ele>753.6</ele>
        <time>2020-10-17T11:36:34Z</time>
      </trkpt>
      <trkpt lat="46.20262" lon="4.50976">
        <ele>753.6</ele>
        <time>2020-10-17T11:36:35Z</time>
      </trkpt>
      <trkpt lat="46.20262" lon="4.50976">
        <ele>754</ele>
        <time>2020-10-17T11:36:36Z</time>
      </trkpt>
      <trkpt lat="46.2026" lon="4.50973">
        <ele>754.2</ele>
        <time>2020-10-17T11:36:37Z</time>
      </trkpt>
      <trkpt lat="46.20259" lon="4.5097">
        <ele>754.2</ele>
        <time>2020-10-17T11:36:38Z</time>
      </trkpt>
      <trkpt lat="46.20259" lon="4.5097">
        <ele>754.6</ele>
        <time>2020-10-17T11:36:39Z</time>
      </trkpt>
      <trkpt lat="46.20258" lon="4.50968">
        <ele>754.6</ele>
        <time>2020-10-17T11:36:40Z</time>
      </trkpt>
      <trkpt lat="46.20258" lon="4.50968">
        <ele>754.8</ele>
        <time>2020-10-17T11:36:41Z</time>
      </trkpt>
      <trkpt lat="46.20256" lon="4.50965">
        <ele>755.2</ele>
        <time>2020-10-17T11:36:42Z</time>
      </trkpt>
      <trkpt lat="46.20256" lon="4.50965">
        <ele>755.2</ele>
        <time>2020-10-17T11:36:43Z</time>
      </trkpt>
      <trkpt lat="46.20254" lon="4.50962">
        <ele>755.6</ele>
        <time>2020-10-17T11:36:44Z</time>
      </trkpt>
      <trkpt lat="46.20254" lon="4.50962">
        <ele>756</ele>
        <time>2020-10-17T11:36:45Z</time>
      </trkpt>
      <trkpt lat="46.20252" lon="4.50959">
        <ele>755.8</ele>
        <time>2020-10-17T11:36:46Z</time>
      </trkpt>
      <trkpt lat="46.20252" lon="4.50959">
        <ele>756.2</ele>
        <time>2020-10-17T11:36:47Z</time>
      </trkpt>
      <trkpt lat="46.2025" lon="4.50956">
        <ele>756.2</ele>
        <time>2020-10-17T11:36:48Z</time>
      </trkpt>
      <trkpt lat="46.2025" lon="4.50956">
        <ele>756.2</ele>
        <time>2020-10-17T11:36:49Z</time>
      </trkpt>
      <trkpt lat="46.2025" lon="4.50956">
        <ele>756.6</ele>
        <time>2020-10-17T11:36:50Z</time>
      </trkpt>
      <trkpt lat="46.20248" lon="4.50952">
        <ele>756.8</ele>
        <time>2020-10-17T11:36:51Z</time>
      </trkpt>
      <trkpt lat="46.20248" lon="4.50952">
        <ele>757</ele>
        <time>2020-10-17T11:36:52Z</time>
      </trkpt>
      <trkpt lat="46.20247" lon="4.50949">
        <ele>757.4</ele>
        <time>2020-10-17T11:36:53Z</time>
      </trkpt>
      <trkpt lat="46.20247" lon="4.50949">
        <ele>757.4</ele>
        <time>2020-10-17T11:36:54Z</time>
      </trkpt>
      <trkpt lat="46.20246" lon="4.50945">
        <ele>758</ele>
        <time>2020-10-17T11:36:55Z</time>
      </trkpt>
      <trkpt lat="46.20246" lon="4.50945">
        <ele>758</ele>
        <time>2020-10-17T11:36:56Z</time>
      </trkpt>
      <trkpt lat="46.20243" lon="4.50942">
        <ele>758.2</ele>
        <time>2020-10-17T11:36:57Z</time>
      </trkpt>
      <trkpt lat="46.20241" lon="4.50941">
        <ele>758.4</ele>
        <time>2020-10-17T11:36:58Z</time>
      </trkpt>
      <trkpt lat="46.2024" lon="4.50939">
        <ele>758.4</ele>
        <time>2020-10-17T11:36:59Z</time>
      </trkpt>
      <trkpt lat="46.2024" lon="4.50939">
        <ele>758.2</ele>
        <time>2020-10-17T11:37:00Z</time>
      </trkpt>
      <trkpt lat="46.20238" lon="4.50936">
        <ele>758.6</ele>
        <time>2020-10-17T11:37:01Z</time>
      </trkpt>
      <trkpt lat="46.20238" lon="4.50936">
        <ele>758.4</ele>
        <time>2020-10-17T11:37:02Z</time>
      </trkpt>
      <trkpt lat="46.20236" lon="4.50933">
        <ele>758.6</ele>
        <time>2020-10-17T11:37:03Z</time>
      </trkpt>
      <trkpt lat="46.20236" lon="4.50933">
        <ele>758.8</ele>
        <time>2020-10-17T11:37:04Z</time>
      </trkpt>
      <trkpt lat="46.20235" lon="4.5093">
        <ele>759</ele>
        <time>2020-10-17T11:37:05Z</time>
      </trkpt>
      <trkpt lat="46.20233" lon="4.50928">
        <ele>759.2</ele>
        <time>2020-10-17T11:37:06Z</time>
      </trkpt>
      <trkpt lat="46.20233" lon="4.50928">
        <ele>759.2</ele>
        <time>2020-10-17T11:37:07Z</time>
      </trkpt>
      <trkpt lat="46.20231" lon="4.50926">
        <ele>759.2</ele>
        <time>2020-10-17T11:37:08Z</time>
      </trkpt>
      <trkpt lat="46.20231" lon="4.50926">
        <ele>759.4</ele>
        <time>2020-10-17T11:37:09Z</time>
      </trkpt>
      <trkpt lat="46.20231" lon="4.50926">
        <ele>759.2</ele>
        <time>2020-10-17T11:37:10Z</time>
      </trkpt>
      <trkpt lat="46.20227" lon="4.50923">
        <ele>759.2</ele>
        <time>2020-10-17T11:37:11Z</time>
      </trkpt>
      <trkpt lat="46.20227" lon="4.50923">
        <ele>759.2</ele>
        <time>2020-10-17T11:37:12Z</time>
      </trkpt>
      <trkpt lat="46.20223" lon="4.50921">
        <ele>759</ele>
        <time>2020-10-17T11:37:13Z</time>
      </trkpt>
      <trkpt lat="46.20223" lon="4.50921">
        <ele>759.2</ele>
        <time>2020-10-17T11:37:14Z</time>
      </trkpt>
      <trkpt lat="46.2022" lon="4.50919">
        <ele>759.2</ele>
        <time>2020-10-17T11:37:15Z</time>
      </trkpt>
      <trkpt lat="46.2022" lon="4.50919">
        <ele>759.4</ele>
        <time>2020-10-17T11:37:16Z</time>
      </trkpt>
      <trkpt lat="46.20219" lon="4.50916">
        <ele>759.6</ele>
        <time>2020-10-17T11:37:17Z</time>
      </trkpt>
      <trkpt lat="46.20219" lon="4.50916">
        <ele>759.6</ele>
        <time>2020-10-17T11:37:18Z</time>
      </trkpt>
      <trkpt lat="46.20217" lon="4.50914">
        <ele>759.8</ele>
        <time>2020-10-17T11:37:19Z</time>
      </trkpt>
      <trkpt lat="46.20217" lon="4.50914">
        <ele>759.4</ele>
        <time>2020-10-17T11:37:20Z</time>
      </trkpt>
      <trkpt lat="46.20215" lon="4.50912">
        <ele>759.6</ele>
        <time>2020-10-17T11:37:21Z</time>
      </trkpt>
      <trkpt lat="46.20215" lon="4.50912">
        <ele>759.6</ele>
        <time>2020-10-17T11:37:22Z</time>
      </trkpt>
      <trkpt lat="46.20212" lon="4.50909">
        <ele>759.6</ele>
        <time>2020-10-17T11:37:23Z</time>
      </trkpt>
      <trkpt lat="46.20212" lon="4.50909">
        <ele>759.6</ele>
        <time>2020-10-17T11:37:24Z</time>
      </trkpt>
      <trkpt lat="46.20212" lon="4.50909">
        <ele>760.2</ele>
        <time>2020-10-17T11:37:25Z</time>
      </trkpt>
      <trkpt lat="46.20212" lon="4.50909">
        <ele>760.2</ele>
        <time>2020-10-17T11:37:26Z</time>
      </trkpt>
      <trkpt lat="46.20211" lon="4.50907">
        <ele>760.2</ele>
        <time>2020-10-17T11:37:27Z</time>
      </trkpt>
      <trkpt lat="46.20209" lon="4.50904">
        <ele>760.6</ele>
        <time>2020-10-17T11:37:28Z</time>
      </trkpt>
      <trkpt lat="46.20208" lon="4.50902">
        <ele>760.6</ele>
        <time>2020-10-17T11:37:29Z</time>
      </trkpt>
      <trkpt lat="46.20206" lon="4.509">
        <ele>760.8</ele>
        <time>2020-10-17T11:37:30Z</time>
      </trkpt>
      <trkpt lat="46.20205" lon="4.50898">
        <ele>760.6</ele>
        <time>2020-10-17T11:37:31Z</time>
      </trkpt>
      <trkpt lat="46.20203" lon="4.50896">
        <ele>760.6</ele>
        <time>2020-10-17T11:37:32Z</time>
      </trkpt>
      <trkpt lat="46.20202" lon="4.50892">
        <ele>760.6</ele>
        <time>2020-10-17T11:37:33Z</time>
      </trkpt>
      <trkpt lat="46.20202" lon="4.50891">
        <ele>760.8</ele>
        <time>2020-10-17T11:37:34Z</time>
      </trkpt>
      <trkpt lat="46.20202" lon="4.50889">
        <ele>761</ele>
        <time>2020-10-17T11:37:35Z</time>
      </trkpt>
      <trkpt lat="46.20202" lon="4.50889">
        <ele>760.8</ele>
        <time>2020-10-17T11:37:36Z</time>
      </trkpt>
      <trkpt lat="46.20202" lon="4.50885">
        <ele>760.8</ele>
        <time>2020-10-17T11:37:37Z</time>
      </trkpt>
      <trkpt lat="46.20202" lon="4.50885">
        <ele>761</ele>
        <time>2020-10-17T11:37:38Z</time>
      </trkpt>
      <trkpt lat="46.20201" lon="4.50881">
        <ele>761</ele>
        <time>2020-10-17T11:37:39Z</time>
      </trkpt>
      <trkpt lat="46.20201" lon="4.50881">
        <ele>761.2</ele>
        <time>2020-10-17T11:37:40Z</time>
      </trkpt>
      <trkpt lat="46.202" lon="4.50878">
        <ele>761.2</ele>
        <time>2020-10-17T11:37:41Z</time>
      </trkpt>
      <trkpt lat="46.202" lon="4.50875">
        <ele>761.4</ele>
        <time>2020-10-17T11:37:42Z</time>
      </trkpt>
      <trkpt lat="46.202" lon="4.50875">
        <ele>761.4</ele>
        <time>2020-10-17T11:37:43Z</time>
      </trkpt>
      <trkpt lat="46.202" lon="4.50875">
        <ele>761.6</ele>
        <time>2020-10-17T11:37:44Z</time>
      </trkpt>
      <trkpt lat="46.202" lon="4.50875">
        <ele>761.8</ele>
        <time>2020-10-17T11:37:45Z</time>
      </trkpt>
      <trkpt lat="46.20199" lon="4.50873">
        <ele>762.2</ele>
        <time>2020-10-17T11:37:46Z</time>
      </trkpt>
      <trkpt lat="46.20199" lon="4.50871">
        <ele>762.2</ele>
        <time>2020-10-17T11:37:47Z</time>
      </trkpt>
      <trkpt lat="46.20198" lon="4.50869">
        <ele>762.6</ele>
        <time>2020-10-17T11:37:48Z</time>
      </trkpt>
      <trkpt lat="46.20198" lon="4.50867">
        <ele>762.4</ele>
        <time>2020-10-17T11:37:49Z</time>
      </trkpt>
      <trkpt lat="46.20197" lon="4.50865">
        <ele>762.4</ele>
        <time>2020-10-17T11:37:50Z</time>
      </trkpt>
      <trkpt lat="46.20197" lon="4.50863">
        <ele>762.4</ele>
        <time>2020-10-17T11:37:51Z</time>
      </trkpt>
      <trkpt lat="46.20196" lon="4.50861">
        <ele>762.4</ele>
        <time>2020-10-17T11:37:52Z</time>
      </trkpt>
      <trkpt lat="46.20195" lon="4.50859">
        <ele>762.4</ele>
        <time>2020-10-17T11:37:53Z</time>
      </trkpt>
      <trkpt lat="46.20195" lon="4.50857">
        <ele>762.2</ele>
        <time>2020-10-17T11:37:54Z</time>
      </trkpt>
      <trkpt lat="46.20194" lon="4.50856">
        <ele>762.4</ele>
        <time>2020-10-17T11:37:55Z</time>
      </trkpt>
      <trkpt lat="46.20193" lon="4.50854">
        <ele>762.4</ele>
        <time>2020-10-17T11:37:56Z</time>
      </trkpt>
      <trkpt lat="46.20193" lon="4.50852">
        <ele>762.4</ele>
        <time>2020-10-17T11:37:57Z</time>
      </trkpt>
      <trkpt lat="46.20192" lon="4.5085">
        <ele>762.6</ele>
        <time>2020-10-17T11:37:58Z</time>
      </trkpt>
      <trkpt lat="46.20192" lon="4.50848">
        <ele>762.8</ele>
        <time>2020-10-17T11:37:59Z</time>
      </trkpt>
      <trkpt lat="46.20191" lon="4.50846">
        <ele>763</ele>
        <time>2020-10-17T11:38:00Z</time>
      </trkpt>
      <trkpt lat="46.2019" lon="4.50845">
        <ele>763</ele>
        <time>2020-10-17T11:38:01Z</time>
      </trkpt>
      <trkpt lat="46.20188" lon="4.50843">
        <ele>763</ele>
        <time>2020-10-17T11:38:02Z</time>
      </trkpt>
      <trkpt lat="46.20187" lon="4.50842">
        <ele>763.2</ele>
        <time>2020-10-17T11:38:03Z</time>
      </trkpt>
      <trkpt lat="46.20186" lon="4.5084">
        <ele>763.4</ele>
        <time>2020-10-17T11:38:04Z</time>
      </trkpt>
      <trkpt lat="46.20185" lon="4.50839">
        <ele>763.6</ele>
        <time>2020-10-17T11:38:05Z</time>
      </trkpt>
      <trkpt lat="46.20184" lon="4.50837">
        <ele>763.6</ele>
        <time>2020-10-17T11:38:06Z</time>
      </trkpt>
      <trkpt lat="46.20182" lon="4.50835">
        <ele>763.6</ele>
        <time>2020-10-17T11:38:07Z</time>
      </trkpt>
      <trkpt lat="46.20181" lon="4.50834">
        <ele>763.6</ele>
        <time>2020-10-17T11:38:08Z</time>
      </trkpt>
      <trkpt lat="46.20179" lon="4.50832">
        <ele>763.6</ele>
        <time>2020-10-17T11:38:09Z</time>
      </trkpt>
      <trkpt lat="46.20178" lon="4.50831">
        <ele>763.4</ele>
        <time>2020-10-17T11:38:10Z</time>
      </trkpt>
      <trkpt lat="46.20176" lon="4.50827">
        <ele>763.4</ele>
        <time>2020-10-17T11:38:11Z</time>
      </trkpt>
      <trkpt lat="46.20174" lon="4.50824">
        <ele>763.4</ele>
        <time>2020-10-17T11:38:12Z</time>
      </trkpt>
      <trkpt lat="46.20173" lon="4.5082">
        <ele>763.2</ele>
        <time>2020-10-17T11:38:13Z</time>
      </trkpt>
      <trkpt lat="46.20171" lon="4.50817">
        <ele>763.2</ele>
        <time>2020-10-17T11:38:14Z</time>
      </trkpt>
      <trkpt lat="46.20169" lon="4.50814">
        <ele>763.2</ele>
        <time>2020-10-17T11:38:15Z</time>
      </trkpt>
      <trkpt lat="46.20169" lon="4.50814">
        <ele>763.4</ele>
        <time>2020-10-17T11:38:16Z</time>
      </trkpt>
      <trkpt lat="46.20167" lon="4.5081">
        <ele>763.6</ele>
        <time>2020-10-17T11:38:17Z</time>
      </trkpt>
      <trkpt lat="46.20167" lon="4.5081">
        <ele>763.6</ele>
        <time>2020-10-17T11:38:18Z</time>
      </trkpt>
      <trkpt lat="46.20166" lon="4.50808">
        <ele>763.6</ele>
        <time>2020-10-17T11:38:19Z</time>
      </trkpt>
      <trkpt lat="46.20164" lon="4.50806">
        <ele>764</ele>
        <time>2020-10-17T11:38:20Z</time>
      </trkpt>
      <trkpt lat="46.20164" lon="4.50806">
        <ele>764</ele>
        <time>2020-10-17T11:38:21Z</time>
      </trkpt>
      <trkpt lat="46.20163" lon="4.50802">
        <ele>764.4</ele>
        <time>2020-10-17T11:38:22Z</time>
      </trkpt>
      <trkpt lat="46.20163" lon="4.50802">
        <ele>764.2</ele>
        <time>2020-10-17T11:38:23Z</time>
      </trkpt>
      <trkpt lat="46.20161" lon="4.50797">
        <ele>764.6</ele>
        <time>2020-10-17T11:38:24Z</time>
      </trkpt>
      <trkpt lat="46.20161" lon="4.50797">
        <ele>764.4</ele>
        <time>2020-10-17T11:38:25Z</time>
      </trkpt>
      <trkpt lat="46.2016" lon="4.50792">
        <ele>764.6</ele>
        <time>2020-10-17T11:38:26Z</time>
      </trkpt>
      <trkpt lat="46.2016" lon="4.50792">
        <ele>764.6</ele>
        <time>2020-10-17T11:38:27Z</time>
      </trkpt>
      <trkpt lat="46.20157" lon="4.5079">
        <ele>764.8</ele>
        <time>2020-10-17T11:38:28Z</time>
      </trkpt>
      <trkpt lat="46.20157" lon="4.5079">
        <ele>764.8</ele>
        <time>2020-10-17T11:38:29Z</time>
      </trkpt>
      <trkpt lat="46.20156" lon="4.50787">
        <ele>764.8</ele>
        <time>2020-10-17T11:38:30Z</time>
      </trkpt>
      <trkpt lat="46.20156" lon="4.50787">
        <ele>765</ele>
        <time>2020-10-17T11:38:31Z</time>
      </trkpt>
      <trkpt lat="46.20154" lon="4.50785">
        <ele>765.2</ele>
        <time>2020-10-17T11:38:32Z</time>
      </trkpt>
      <trkpt lat="46.20154" lon="4.50785">
        <ele>765.6</ele>
        <time>2020-10-17T11:38:33Z</time>
      </trkpt>
      <trkpt lat="46.20152" lon="4.50783">
        <ele>765.6</ele>
        <time>2020-10-17T11:38:34Z</time>
      </trkpt>
      <trkpt lat="46.20152" lon="4.50783">
        <ele>765.8</ele>
        <time>2020-10-17T11:38:35Z</time>
      </trkpt>
      <trkpt lat="46.20151" lon="4.50781">
        <ele>765.8</ele>
        <time>2020-10-17T11:38:36Z</time>
      </trkpt>
      <trkpt lat="46.20151" lon="4.50781">
        <ele>766.4</ele>
        <time>2020-10-17T11:38:37Z</time>
      </trkpt>
      <trkpt lat="46.20149" lon="4.50778">
        <ele>766.2</ele>
        <time>2020-10-17T11:38:38Z</time>
      </trkpt>
      <trkpt lat="46.20149" lon="4.50778">
        <ele>766.6</ele>
        <time>2020-10-17T11:38:39Z</time>
      </trkpt>
      <trkpt lat="46.20148" lon="4.50775">
        <ele>766.6</ele>
        <time>2020-10-17T11:38:40Z</time>
      </trkpt>
      <trkpt lat="46.20148" lon="4.50775">
        <ele>766.8</ele>
        <time>2020-10-17T11:38:41Z</time>
      </trkpt>
      <trkpt lat="46.20147" lon="4.50772">
        <ele>766.8</ele>
        <time>2020-10-17T11:38:42Z</time>
      </trkpt>
      <trkpt lat="46.20147" lon="4.50772">
        <ele>767</ele>
        <time>2020-10-17T11:38:43Z</time>
      </trkpt>
      <trkpt lat="46.20146" lon="4.5077">
        <ele>767</ele>
        <time>2020-10-17T11:38:44Z</time>
      </trkpt>
      <trkpt lat="46.20146" lon="4.5077">
        <ele>767.4</ele>
        <time>2020-10-17T11:38:45Z</time>
      </trkpt>
      <trkpt lat="46.20145" lon="4.50767">
        <ele>767.6</ele>
        <time>2020-10-17T11:38:46Z</time>
      </trkpt>
      <trkpt lat="46.20145" lon="4.50767">
        <ele>767.8</ele>
        <time>2020-10-17T11:38:47Z</time>
      </trkpt>
      <trkpt lat="46.20145" lon="4.50767">
        <ele>767.8</ele>
        <time>2020-10-17T11:38:48Z</time>
      </trkpt>
      <trkpt lat="46.20145" lon="4.50767">
        <ele>768.2</ele>
        <time>2020-10-17T11:38:49Z</time>
      </trkpt>
      <trkpt lat="46.20144" lon="4.50766">
        <ele>768.2</ele>
        <time>2020-10-17T11:38:50Z</time>
      </trkpt>
      <trkpt lat="46.20143" lon="4.50764">
        <ele>768.2</ele>
        <time>2020-10-17T11:38:51Z</time>
      </trkpt>
      <trkpt lat="46.20142" lon="4.50762">
        <ele>768.6</ele>
        <time>2020-10-17T11:38:52Z</time>
      </trkpt>
      <trkpt lat="46.20141" lon="4.50761">
        <ele>768.8</ele>
        <time>2020-10-17T11:38:53Z</time>
      </trkpt>
      <trkpt lat="46.20139" lon="4.50759">
        <ele>768.8</ele>
        <time>2020-10-17T11:38:54Z</time>
      </trkpt>
      <trkpt lat="46.20137" lon="4.50756">
        <ele>769.2</ele>
        <time>2020-10-17T11:38:55Z</time>
      </trkpt>
      <trkpt lat="46.20137" lon="4.50756">
        <ele>769.2</ele>
        <time>2020-10-17T11:38:56Z</time>
      </trkpt>
      <trkpt lat="46.20135" lon="4.50752">
        <ele>769.4</ele>
        <time>2020-10-17T11:38:57Z</time>
      </trkpt>
      <trkpt lat="46.20135" lon="4.50752">
        <ele>769.6</ele>
        <time>2020-10-17T11:38:58Z</time>
      </trkpt>
      <trkpt lat="46.20133" lon="4.5075">
        <ele>769.8</ele>
        <time>2020-10-17T11:38:59Z</time>
      </trkpt>
      <trkpt lat="46.20133" lon="4.5075">
        <ele>770.2</ele>
        <time>2020-10-17T11:39:00Z</time>
      </trkpt>
      <trkpt lat="46.2013" lon="4.50747">
        <ele>770.2</ele>
        <time>2020-10-17T11:39:01Z</time>
      </trkpt>
      <trkpt lat="46.2013" lon="4.50747">
        <ele>770.2</ele>
        <time>2020-10-17T11:39:02Z</time>
      </trkpt>
      <trkpt lat="46.20127" lon="4.50743">
        <ele>770.6</ele>
        <time>2020-10-17T11:39:03Z</time>
      </trkpt>
      <trkpt lat="46.20125" lon="4.50742">
        <ele>770.4</ele>
        <time>2020-10-17T11:39:04Z</time>
      </trkpt>
      <trkpt lat="46.20125" lon="4.50742">
        <ele>770.8</ele>
        <time>2020-10-17T11:39:05Z</time>
      </trkpt>
      <trkpt lat="46.20125" lon="4.50742">
        <ele>771</ele>
        <time>2020-10-17T11:39:06Z</time>
      </trkpt>
      <trkpt lat="46.20125" lon="4.50742">
        <ele>771</ele>
        <time>2020-10-17T11:39:07Z</time>
      </trkpt>
      <trkpt lat="46.20119" lon="4.50738">
        <ele>771.4</ele>
        <time>2020-10-17T11:39:08Z</time>
      </trkpt>
      <trkpt lat="46.20119" lon="4.50738">
        <ele>771.4</ele>
        <time>2020-10-17T11:39:09Z</time>
      </trkpt>
      <trkpt lat="46.20119" lon="4.50738">
        <ele>771.4</ele>
        <time>2020-10-17T11:39:10Z</time>
      </trkpt>
      <trkpt lat="46.20119" lon="4.50738">
        <ele>772</ele>
        <time>2020-10-17T11:39:11Z</time>
      </trkpt>
      <trkpt lat="46.20118" lon="4.50736">
        <ele>771.8</ele>
        <time>2020-10-17T11:39:12Z</time>
      </trkpt>
      <trkpt lat="46.20116" lon="4.50734">
        <ele>772.2</ele>
        <time>2020-10-17T11:39:13Z</time>
      </trkpt>
      <trkpt lat="46.20115" lon="4.50732">
        <ele>772.4</ele>
        <time>2020-10-17T11:39:14Z</time>
      </trkpt>
      <trkpt lat="46.20114" lon="4.5073">
        <ele>772.4</ele>
        <time>2020-10-17T11:39:15Z</time>
      </trkpt>
      <trkpt lat="46.20113" lon="4.50728">
        <ele>772.6</ele>
        <time>2020-10-17T11:39:16Z</time>
      </trkpt>
      <trkpt lat="46.20112" lon="4.50726">
        <ele>772.6</ele>
        <time>2020-10-17T11:39:17Z</time>
      </trkpt>
      <trkpt lat="46.2011" lon="4.50723">
        <ele>773.2</ele>
        <time>2020-10-17T11:39:18Z</time>
      </trkpt>
      <trkpt lat="46.20109" lon="4.50721">
        <ele>773</ele>
        <time>2020-10-17T11:39:19Z</time>
      </trkpt>
      <trkpt lat="46.20108" lon="4.50719">
        <ele>773.2</ele>
        <time>2020-10-17T11:39:20Z</time>
      </trkpt>
      <trkpt lat="46.20107" lon="4.50717">
        <ele>773.2</ele>
        <time>2020-10-17T11:39:21Z</time>
      </trkpt>
      <trkpt lat="46.20105" lon="4.50715">
        <ele>773</ele>
        <time>2020-10-17T11:39:22Z</time>
      </trkpt>
      <trkpt lat="46.20104" lon="4.50713">
        <ele>773.4</ele>
        <time>2020-10-17T11:39:23Z</time>
      </trkpt>
      <trkpt lat="46.20102" lon="4.50711">
        <ele>773.4</ele>
        <time>2020-10-17T11:39:24Z</time>
      </trkpt>
      <trkpt lat="46.20101" lon="4.50709">
        <ele>773.6</ele>
        <time>2020-10-17T11:39:25Z</time>
      </trkpt>
      <trkpt lat="46.20099" lon="4.50707">
        <ele>773.6</ele>
        <time>2020-10-17T11:39:26Z</time>
      </trkpt>
      <trkpt lat="46.20098" lon="4.50705">
        <ele>773.8</ele>
        <time>2020-10-17T11:39:27Z</time>
      </trkpt>
      <trkpt lat="46.20097" lon="4.50703">
        <ele>773.6</ele>
        <time>2020-10-17T11:39:28Z</time>
      </trkpt>
      <trkpt lat="46.20096" lon="4.50701">
        <ele>773.6</ele>
        <time>2020-10-17T11:39:29Z</time>
      </trkpt>
      <trkpt lat="46.20095" lon="4.50699">
        <ele>773.6</ele>
        <time>2020-10-17T11:39:30Z</time>
      </trkpt>
      <trkpt lat="46.20093" lon="4.50697">
        <ele>773.6</ele>
        <time>2020-10-17T11:39:31Z</time>
      </trkpt>
      <trkpt lat="46.20092" lon="4.50696">
        <ele>774</ele>
        <time>2020-10-17T11:39:32Z</time>
      </trkpt>
      <trkpt lat="46.20092" lon="4.50696">
        <ele>774.2</ele>
        <time>2020-10-17T11:39:33Z</time>
      </trkpt>
      <trkpt lat="46.20092" lon="4.50696">
        <ele>774.4</ele>
        <time>2020-10-17T11:39:34Z</time>
      </trkpt>
      <trkpt lat="46.20091" lon="4.50694">
        <ele>774.2</ele>
        <time>2020-10-17T11:39:35Z</time>
      </trkpt>
      <trkpt lat="46.2009" lon="4.50692">
        <ele>774.4</ele>
        <time>2020-10-17T11:39:36Z</time>
      </trkpt>
      <trkpt lat="46.20088" lon="4.5069">
        <ele>774.4</ele>
        <time>2020-10-17T11:39:37Z</time>
      </trkpt>
      <trkpt lat="46.20087" lon="4.50688">
        <ele>774.4</ele>
        <time>2020-10-17T11:39:38Z</time>
      </trkpt>
      <trkpt lat="46.20086" lon="4.50686">
        <ele>774.2</ele>
        <time>2020-10-17T11:39:39Z</time>
      </trkpt>
      <trkpt lat="46.20085" lon="4.50684">
        <ele>774</ele>
        <time>2020-10-17T11:39:40Z</time>
      </trkpt>
      <trkpt lat="46.20083" lon="4.50684">
        <ele>774.2</ele>
        <time>2020-10-17T11:39:41Z</time>
      </trkpt>
      <trkpt lat="46.20082" lon="4.50683">
        <ele>774</ele>
        <time>2020-10-17T11:39:42Z</time>
      </trkpt>
      <trkpt lat="46.20081" lon="4.50682">
        <ele>774</ele>
        <time>2020-10-17T11:39:43Z</time>
      </trkpt>
      <trkpt lat="46.2008" lon="4.50681">
        <ele>774</ele>
        <time>2020-10-17T11:39:44Z</time>
      </trkpt>
      <trkpt lat="46.20078" lon="4.5068">
        <ele>774</ele>
        <time>2020-10-17T11:39:45Z</time>
      </trkpt>
      <trkpt lat="46.20077" lon="4.50679">
        <ele>774</ele>
        <time>2020-10-17T11:39:46Z</time>
      </trkpt>
      <trkpt lat="46.20076" lon="4.50679">
        <ele>774.2</ele>
        <time>2020-10-17T11:39:47Z</time>
      </trkpt>
      <trkpt lat="46.20075" lon="4.50679">
        <ele>774.4</ele>
        <time>2020-10-17T11:39:48Z</time>
      </trkpt>
      <trkpt lat="46.20074" lon="4.50679">
        <ele>774.4</ele>
        <time>2020-10-17T11:39:49Z</time>
      </trkpt>
      <trkpt lat="46.20073" lon="4.50679">
        <ele>774.6</ele>
        <time>2020-10-17T11:39:50Z</time>
      </trkpt>
      <trkpt lat="46.20072" lon="4.50679">
        <ele>774.6</ele>
        <time>2020-10-17T11:39:51Z</time>
      </trkpt>
      <trkpt lat="46.20071" lon="4.50679">
        <ele>774.8</ele>
        <time>2020-10-17T11:39:52Z</time>
      </trkpt>
      <trkpt lat="46.2007" lon="4.50679">
        <ele>775</ele>
        <time>2020-10-17T11:39:53Z</time>
      </trkpt>
      <trkpt lat="46.20069" lon="4.50679">
        <ele>775.2</ele>
        <time>2020-10-17T11:39:54Z</time>
      </trkpt>
      <trkpt lat="46.20069" lon="4.50679">
        <ele>775.2</ele>
        <time>2020-10-17T11:39:55Z</time>
      </trkpt>
      <trkpt lat="46.20068" lon="4.50679">
        <ele>775.2</ele>
        <time>2020-10-17T11:39:56Z</time>
      </trkpt>
      <trkpt lat="46.20067" lon="4.50679">
        <ele>775.6</ele>
        <time>2020-10-17T11:39:57Z</time>
      </trkpt>
      <trkpt lat="46.20066" lon="4.50679">
        <ele>775.4</ele>
        <time>2020-10-17T11:39:58Z</time>
      </trkpt>
      <trkpt lat="46.20065" lon="4.50679">
        <ele>775.6</ele>
        <time>2020-10-17T11:39:59Z</time>
      </trkpt>
      <trkpt lat="46.20064" lon="4.50679">
        <ele>775.4</ele>
        <time>2020-10-17T11:40:00Z</time>
      </trkpt>
      <trkpt lat="46.20063" lon="4.50678">
        <ele>775.8</ele>
        <time>2020-10-17T11:40:01Z</time>
      </trkpt>
      <trkpt lat="46.20062" lon="4.50678">
        <ele>775.6</ele>
        <time>2020-10-17T11:40:02Z</time>
      </trkpt>
      <trkpt lat="46.20062" lon="4.50678">
        <ele>775.6</ele>
        <time>2020-10-17T11:40:03Z</time>
      </trkpt>
      <trkpt lat="46.20061" lon="4.50678">
        <ele>775.8</ele>
        <time>2020-10-17T11:40:04Z</time>
      </trkpt>
      <trkpt lat="46.2006" lon="4.50678">
        <ele>775.8</ele>
        <time>2020-10-17T11:40:05Z</time>
      </trkpt>
      <trkpt lat="46.20059" lon="4.50678">
        <ele>776</ele>
        <time>2020-10-17T11:40:06Z</time>
      </trkpt>
      <trkpt lat="46.20058" lon="4.50677">
        <ele>776</ele>
        <time>2020-10-17T11:40:07Z</time>
      </trkpt>
      <trkpt lat="46.20057" lon="4.50677">
        <ele>776</ele>
        <time>2020-10-17T11:40:08Z</time>
      </trkpt>
      <trkpt lat="46.20056" lon="4.50677">
        <ele>775.8</ele>
        <time>2020-10-17T11:40:09Z</time>
      </trkpt>
      <trkpt lat="46.20055" lon="4.50677">
        <ele>776</ele>
        <time>2020-10-17T11:40:10Z</time>
      </trkpt>
      <trkpt lat="46.20055" lon="4.50678">
        <ele>776</ele>
        <time>2020-10-17T11:40:11Z</time>
      </trkpt>
      <trkpt lat="46.20054" lon="4.50678">
        <ele>776.2</ele>
        <time>2020-10-17T11:40:12Z</time>
      </trkpt>
      <trkpt lat="46.20053" lon="4.50678">
        <ele>776</ele>
        <time>2020-10-17T11:40:13Z</time>
      </trkpt>
      <trkpt lat="46.20052" lon="4.50678">
        <ele>776</ele>
        <time>2020-10-17T11:40:14Z</time>
      </trkpt>
      <trkpt lat="46.20051" lon="4.50678">
        <ele>776.2</ele>
        <time>2020-10-17T11:40:15Z</time>
      </trkpt>
      <trkpt lat="46.2005" lon="4.50678">
        <ele>776.2</ele>
        <time>2020-10-17T11:40:16Z</time>
      </trkpt>
      <trkpt lat="46.20049" lon="4.50678">
        <ele>776.4</ele>
        <time>2020-10-17T11:40:17Z</time>
      </trkpt>
      <trkpt lat="46.20048" lon="4.50678">
        <ele>776.4</ele>
        <time>2020-10-17T11:40:18Z</time>
      </trkpt>
      <trkpt lat="46.20047" lon="4.50677">
        <ele>776.2</ele>
        <time>2020-10-17T11:40:19Z</time>
      </trkpt>
      <trkpt lat="46.20046" lon="4.50677">
        <ele>776.4</ele>
        <time>2020-10-17T11:40:20Z</time>
      </trkpt>
      <trkpt lat="46.20046" lon="4.50677">
        <ele>776.4</ele>
        <time>2020-10-17T11:40:21Z</time>
      </trkpt>
      <trkpt lat="46.20045" lon="4.50676">
        <ele>776.8</ele>
        <time>2020-10-17T11:40:22Z</time>
      </trkpt>
      <trkpt lat="46.20044" lon="4.50676">
        <ele>776.6</ele>
        <time>2020-10-17T11:40:23Z</time>
      </trkpt>
      <trkpt lat="46.20043" lon="4.50675">
        <ele>776.6</ele>
        <time>2020-10-17T11:40:24Z</time>
      </trkpt>
      <trkpt lat="46.20043" lon="4.50675">
        <ele>777</ele>
        <time>2020-10-17T11:40:25Z</time>
      </trkpt>
      <trkpt lat="46.20042" lon="4.50674">
        <ele>777</ele>
        <time>2020-10-17T11:40:26Z</time>
      </trkpt>
      <trkpt lat="46.20041" lon="4.50674">
        <ele>777</ele>
        <time>2020-10-17T11:40:27Z</time>
      </trkpt>
      <trkpt lat="46.20041" lon="4.50673">
        <ele>777.2</ele>
        <time>2020-10-17T11:40:28Z</time>
      </trkpt>
      <trkpt lat="46.2004" lon="4.50673">
        <ele>777.2</ele>
        <time>2020-10-17T11:40:29Z</time>
      </trkpt>
      <trkpt lat="46.20039" lon="4.50673">
        <ele>777.6</ele>
        <time>2020-10-17T11:40:30Z</time>
      </trkpt>
      <trkpt lat="46.20038" lon="4.50672">
        <ele>777.6</ele>
        <time>2020-10-17T11:40:31Z</time>
      </trkpt>
      <trkpt lat="46.20036" lon="4.50672">
        <ele>777.4</ele>
        <time>2020-10-17T11:40:32Z</time>
      </trkpt>
      <trkpt lat="46.20035" lon="4.50672">
        <ele>777.6</ele>
        <time>2020-10-17T11:40:33Z</time>
      </trkpt>
      <trkpt lat="46.20034" lon="4.50672">
        <ele>777.8</ele>
        <time>2020-10-17T11:40:34Z</time>
      </trkpt>
      <trkpt lat="46.20032" lon="4.50672">
        <ele>778</ele>
        <time>2020-10-17T11:40:35Z</time>
      </trkpt>
      <trkpt lat="46.20031" lon="4.50672">
        <ele>778.2</ele>
        <time>2020-10-17T11:40:36Z</time>
      </trkpt>
      <trkpt lat="46.2003" lon="4.50672">
        <ele>778.2</ele>
        <time>2020-10-17T11:40:37Z</time>
      </trkpt>
      <trkpt lat="46.20028" lon="4.50673">
        <ele>778.6</ele>
        <time>2020-10-17T11:40:38Z</time>
      </trkpt>
      <trkpt lat="46.20027" lon="4.50673">
        <ele>778.6</ele>
        <time>2020-10-17T11:40:39Z</time>
      </trkpt>
      <trkpt lat="46.20025" lon="4.50673">
        <ele>778.4</ele>
        <time>2020-10-17T11:40:40Z</time>
      </trkpt>
      <trkpt lat="46.20023" lon="4.50674">
        <ele>778.8</ele>
        <time>2020-10-17T11:40:41Z</time>
      </trkpt>
      <trkpt lat="46.20022" lon="4.50674">
        <ele>778.6</ele>
        <time>2020-10-17T11:40:42Z</time>
      </trkpt>
      <trkpt lat="46.2002" lon="4.50674">
        <ele>779</ele>
        <time>2020-10-17T11:40:43Z</time>
      </trkpt>
      <trkpt lat="46.20019" lon="4.50675">
        <ele>779</ele>
        <time>2020-10-17T11:40:44Z</time>
      </trkpt>
      <trkpt lat="46.20017" lon="4.50675">
        <ele>779.2</ele>
        <time>2020-10-17T11:40:45Z</time>
      </trkpt>
      <trkpt lat="46.20015" lon="4.50675">
        <ele>779.4</ele>
        <time>2020-10-17T11:40:46Z</time>
      </trkpt>
      <trkpt lat="46.20014" lon="4.50676">
        <ele>779.6</ele>
        <time>2020-10-17T11:40:47Z</time>
      </trkpt>
      <trkpt lat="46.20012" lon="4.50676">
        <ele>779.8</ele>
        <time>2020-10-17T11:40:48Z</time>
      </trkpt>
      <trkpt lat="46.2001" lon="4.50676">
        <ele>779.6</ele>
        <time>2020-10-17T11:40:49Z</time>
      </trkpt>
      <trkpt lat="46.20001" lon="4.50677">
        <ele>779.6</ele>
        <time>2020-10-17T11:40:50Z</time>
      </trkpt>
      <trkpt lat="46.20001" lon="4.50677">
        <ele>779.6</ele>
        <time>2020-10-17T11:40:51Z</time>
      </trkpt>
      <trkpt lat="46.20001" lon="4.50677">
        <ele>779.6</ele>
        <time>2020-10-17T11:40:52Z</time>
      </trkpt>
      <trkpt lat="46.20001" lon="4.50677">
        <ele>779.6</ele>
        <time>2020-10-17T11:40:53Z</time>
      </trkpt>
      <trkpt lat="46.19991" lon="4.50677">
        <ele>779.4</ele>
        <time>2020-10-17T11:40:54Z</time>
      </trkpt>
      <trkpt lat="46.19991" lon="4.50677">
        <ele>779.6</ele>
        <time>2020-10-17T11:40:55Z</time>
      </trkpt>
      <trkpt lat="46.19991" lon="4.50677">
        <ele>779.6</ele>
        <time>2020-10-17T11:40:56Z</time>
      </trkpt>
      <trkpt lat="46.19991" lon="4.50677">
        <ele>779.8</ele>
        <time>2020-10-17T11:40:57Z</time>
      </trkpt>
      <trkpt lat="46.19989" lon="4.50678">
        <ele>780</ele>
        <time>2020-10-17T11:40:58Z</time>
      </trkpt>
      <trkpt lat="46.19987" lon="4.50678">
        <ele>780</ele>
        <time>2020-10-17T11:40:59Z</time>
      </trkpt>
      <trkpt lat="46.19985" lon="4.50679">
        <ele>780</ele>
        <time>2020-10-17T11:41:00Z</time>
      </trkpt>
      <trkpt lat="46.19983" lon="4.50679">
        <ele>780.2</ele>
        <time>2020-10-17T11:41:01Z</time>
      </trkpt>
      <trkpt lat="46.19981" lon="4.50679">
        <ele>780.2</ele>
        <time>2020-10-17T11:41:02Z</time>
      </trkpt>
      <trkpt lat="46.19979" lon="4.50679">
        <ele>780.2</ele>
        <time>2020-10-17T11:41:03Z</time>
      </trkpt>
      <trkpt lat="46.19977" lon="4.5068">
        <ele>780.4</ele>
        <time>2020-10-17T11:41:04Z</time>
      </trkpt>
      <trkpt lat="46.19975" lon="4.5068">
        <ele>780.2</ele>
        <time>2020-10-17T11:41:05Z</time>
      </trkpt>
      <trkpt lat="46.19973" lon="4.5068">
        <ele>780</ele>
        <time>2020-10-17T11:41:06Z</time>
      </trkpt>
      <trkpt lat="46.19971" lon="4.5068">
        <ele>780.2</ele>
        <time>2020-10-17T11:41:07Z</time>
      </trkpt>
      <trkpt lat="46.1997" lon="4.50679">
        <ele>780</ele>
        <time>2020-10-17T11:41:08Z</time>
      </trkpt>
      <trkpt lat="46.19969" lon="4.50679">
        <ele>780.2</ele>
        <time>2020-10-17T11:41:09Z</time>
      </trkpt>
      <trkpt lat="46.19967" lon="4.50679">
        <ele>780</ele>
        <time>2020-10-17T11:41:10Z</time>
      </trkpt>
      <trkpt lat="46.19966" lon="4.50679">
        <ele>780.2</ele>
        <time>2020-10-17T11:41:11Z</time>
      </trkpt>
      <trkpt lat="46.19965" lon="4.50678">
        <ele>780.2</ele>
        <time>2020-10-17T11:41:12Z</time>
      </trkpt>
      <trkpt lat="46.19964" lon="4.50678">
        <ele>780.4</ele>
        <time>2020-10-17T11:41:13Z</time>
      </trkpt>
      <trkpt lat="46.19962" lon="4.50678">
        <ele>780.2</ele>
        <time>2020-10-17T11:41:14Z</time>
      </trkpt>
      <trkpt lat="46.19961" lon="4.50677">
        <ele>780.4</ele>
        <time>2020-10-17T11:41:15Z</time>
      </trkpt>
      <trkpt lat="46.1996" lon="4.50676">
        <ele>780.2</ele>
        <time>2020-10-17T11:41:16Z</time>
      </trkpt>
      <trkpt lat="46.19959" lon="4.50675">
        <ele>780.2</ele>
        <time>2020-10-17T11:41:17Z</time>
      </trkpt>
      <trkpt lat="46.19958" lon="4.50673">
        <ele>780.2</ele>
        <time>2020-10-17T11:41:18Z</time>
      </trkpt>
      <trkpt lat="46.19958" lon="4.50672">
        <ele>780.2</ele>
        <time>2020-10-17T11:41:19Z</time>
      </trkpt>
      <trkpt lat="46.19957" lon="4.5067">
        <ele>780.2</ele>
        <time>2020-10-17T11:41:20Z</time>
      </trkpt>
      <trkpt lat="46.19956" lon="4.50669">
        <ele>780.4</ele>
        <time>2020-10-17T11:41:21Z</time>
      </trkpt>
      <trkpt lat="46.19955" lon="4.50667">
        <ele>780.4</ele>
        <time>2020-10-17T11:41:22Z</time>
      </trkpt>
      <trkpt lat="46.19953" lon="4.50667">
        <ele>780.2</ele>
        <time>2020-10-17T11:41:23Z</time>
      </trkpt>
      <trkpt lat="46.19952" lon="4.50666">
        <ele>780.2</ele>
        <time>2020-10-17T11:41:24Z</time>
      </trkpt>
      <trkpt lat="46.19951" lon="4.50665">
        <ele>780</ele>
        <time>2020-10-17T11:41:25Z</time>
      </trkpt>
      <trkpt lat="46.19949" lon="4.50664">
        <ele>779.8</ele>
        <time>2020-10-17T11:41:26Z</time>
      </trkpt>
      <trkpt lat="46.19948" lon="4.50663">
        <ele>780</ele>
        <time>2020-10-17T11:41:27Z</time>
      </trkpt>
      <trkpt lat="46.19946" lon="4.50662">
        <ele>779.8</ele>
        <time>2020-10-17T11:41:28Z</time>
      </trkpt>
      <trkpt lat="46.19945" lon="4.50661">
        <ele>780.2</ele>
        <time>2020-10-17T11:41:29Z</time>
      </trkpt>
      <trkpt lat="46.19944" lon="4.5066">
        <ele>780</ele>
        <time>2020-10-17T11:41:30Z</time>
      </trkpt>
      <trkpt lat="46.19943" lon="4.50659">
        <ele>780.2</ele>
        <time>2020-10-17T11:41:31Z</time>
      </trkpt>
      <trkpt lat="46.19941" lon="4.50658">
        <ele>780</ele>
        <time>2020-10-17T11:41:32Z</time>
      </trkpt>
      <trkpt lat="46.1994" lon="4.50657">
        <ele>780</ele>
        <time>2020-10-17T11:41:33Z</time>
      </trkpt>
      <trkpt lat="46.19939" lon="4.50655">
        <ele>779.8</ele>
        <time>2020-10-17T11:41:34Z</time>
      </trkpt>
      <trkpt lat="46.19938" lon="4.50654">
        <ele>780</ele>
        <time>2020-10-17T11:41:35Z</time>
      </trkpt>
      <trkpt lat="46.19932" lon="4.50649">
        <ele>779.8</ele>
        <time>2020-10-17T11:41:36Z</time>
      </trkpt>
      <trkpt lat="46.19932" lon="4.50649">
        <ele>779.8</ele>
        <time>2020-10-17T11:41:37Z</time>
      </trkpt>
      <trkpt lat="46.19932" lon="4.50649">
        <ele>779.6</ele>
        <time>2020-10-17T11:41:38Z</time>
      </trkpt>
      <trkpt lat="46.19932" lon="4.50649">
        <ele>779.6</ele>
        <time>2020-10-17T11:41:39Z</time>
      </trkpt>
      <trkpt lat="46.19922" lon="4.50646">
        <ele>779.6</ele>
        <time>2020-10-17T11:41:40Z</time>
      </trkpt>
      <trkpt lat="46.19922" lon="4.50645">
        <ele>779.6</ele>
        <time>2020-10-17T11:41:41Z</time>
      </trkpt>
      <trkpt lat="46.19921" lon="4.50645">
        <ele>779.2</ele>
        <time>2020-10-17T11:41:42Z</time>
      </trkpt>
      <trkpt lat="46.19921" lon="4.50645">
        <ele>779.2</ele>
        <time>2020-10-17T11:41:43Z</time>
      </trkpt>
      <trkpt lat="46.19921" lon="4.50645">
        <ele>779.6</ele>
        <time>2020-10-17T11:41:44Z</time>
      </trkpt>
      <trkpt lat="46.19919" lon="4.50644">
        <ele>779.8</ele>
        <time>2020-10-17T11:41:45Z</time>
      </trkpt>
      <trkpt lat="46.19917" lon="4.50643">
        <ele>779.8</ele>
        <time>2020-10-17T11:41:46Z</time>
      </trkpt>
      <trkpt lat="46.19916" lon="4.50642">
        <ele>779.8</ele>
        <time>2020-10-17T11:41:47Z</time>
      </trkpt>
      <trkpt lat="46.19914" lon="4.50641">
        <ele>780</ele>
        <time>2020-10-17T11:41:48Z</time>
      </trkpt>
      <trkpt lat="46.19912" lon="4.5064">
        <ele>780</ele>
        <time>2020-10-17T11:41:49Z</time>
      </trkpt>
      <trkpt lat="46.19909" lon="4.50638">
        <ele>780</ele>
        <time>2020-10-17T11:41:50Z</time>
      </trkpt>
      <trkpt lat="46.19905" lon="4.50637">
        <ele>779.8</ele>
        <time>2020-10-17T11:41:51Z</time>
      </trkpt>
      <trkpt lat="46.19902" lon="4.50635">
        <ele>780.2</ele>
        <time>2020-10-17T11:41:52Z</time>
      </trkpt>
      <trkpt lat="46.19898" lon="4.50633">
        <ele>780</ele>
        <time>2020-10-17T11:41:53Z</time>
      </trkpt>
      <trkpt lat="46.19895" lon="4.50632">
        <ele>780.2</ele>
        <time>2020-10-17T11:41:54Z</time>
      </trkpt>
      <trkpt lat="46.19894" lon="4.50631">
        <ele>780.2</ele>
        <time>2020-10-17T11:41:55Z</time>
      </trkpt>
      <trkpt lat="46.19894" lon="4.50631">
        <ele>780.8</ele>
        <time>2020-10-17T11:41:56Z</time>
      </trkpt>
      <trkpt lat="46.19888" lon="4.5063">
        <ele>780.8</ele>
        <time>2020-10-17T11:41:57Z</time>
      </trkpt>
      <trkpt lat="46.19887" lon="4.50629">
        <ele>780.6</ele>
        <time>2020-10-17T11:41:58Z</time>
      </trkpt>
      <trkpt lat="46.19886" lon="4.50629">
        <ele>780.8</ele>
        <time>2020-10-17T11:41:59Z</time>
      </trkpt>
      <trkpt lat="46.19885" lon="4.50629">
        <ele>780.4</ele>
        <time>2020-10-17T11:42:00Z</time>
      </trkpt>
      <trkpt lat="46.19883" lon="4.50627">
        <ele>780.2</ele>
        <time>2020-10-17T11:42:01Z</time>
      </trkpt>
      <trkpt lat="46.19881" lon="4.50626">
        <ele>780.2</ele>
        <time>2020-10-17T11:42:02Z</time>
      </trkpt>
      <trkpt lat="46.19881" lon="4.50626">
        <ele>780.2</ele>
        <time>2020-10-17T11:42:03Z</time>
      </trkpt>
      <trkpt lat="46.19881" lon="4.50626">
        <ele>780.2</ele>
        <time>2020-10-17T11:42:04Z</time>
      </trkpt>
      <trkpt lat="46.19881" lon="4.50626">
        <ele>780.2</ele>
        <time>2020-10-17T11:42:05Z</time>
      </trkpt>
      <trkpt lat="46.19879" lon="4.50625">
        <ele>780.4</ele>
        <time>2020-10-17T11:42:06Z</time>
      </trkpt>
      <trkpt lat="46.19877" lon="4.50625">
        <ele>780.4</ele>
        <time>2020-10-17T11:42:07Z</time>
      </trkpt>
      <trkpt lat="46.19875" lon="4.50624">
        <ele>780.4</ele>
        <time>2020-10-17T11:42:08Z</time>
      </trkpt>
      <trkpt lat="46.19873" lon="4.50623">
        <ele>780.8</ele>
        <time>2020-10-17T11:42:09Z</time>
      </trkpt>
      <trkpt lat="46.19871" lon="4.50623">
        <ele>780.8</ele>
        <time>2020-10-17T11:42:10Z</time>
      </trkpt>
      <trkpt lat="46.19869" lon="4.50622">
        <ele>780.8</ele>
        <time>2020-10-17T11:42:11Z</time>
      </trkpt>
      <trkpt lat="46.19866" lon="4.50621">
        <ele>780.8</ele>
        <time>2020-10-17T11:42:12Z</time>
      </trkpt>
      <trkpt lat="46.19864" lon="4.5062">
        <ele>780.6</ele>
        <time>2020-10-17T11:42:13Z</time>
      </trkpt>
      <trkpt lat="46.19861" lon="4.50619">
        <ele>780.4</ele>
        <time>2020-10-17T11:42:14Z</time>
      </trkpt>
      <trkpt lat="46.19859" lon="4.50618">
        <ele>780.6</ele>
        <time>2020-10-17T11:42:15Z</time>
      </trkpt>
      <trkpt lat="46.19859" lon="4.50618">
        <ele>780.6</ele>
        <time>2020-10-17T11:42:16Z</time>
      </trkpt>
      <trkpt lat="46.19859" lon="4.50618">
        <ele>780.8</ele>
        <time>2020-10-17T11:42:17Z</time>
      </trkpt>
      <trkpt lat="46.19849" lon="4.50615">
        <ele>780.8</ele>
        <time>2020-10-17T11:42:18Z</time>
      </trkpt>
      <trkpt lat="46.19849" lon="4.50615">
        <ele>780.8</ele>
        <time>2020-10-17T11:42:19Z</time>
      </trkpt>
      <trkpt lat="46.19849" lon="4.50615">
        <ele>780.8</ele>
        <time>2020-10-17T11:42:20Z</time>
      </trkpt>
      <trkpt lat="46.19849" lon="4.50615">
        <ele>781.2</ele>
        <time>2020-10-17T11:42:21Z</time>
      </trkpt>
      <trkpt lat="46.19847" lon="4.50615">
        <ele>781.4</ele>
        <time>2020-10-17T11:42:22Z</time>
      </trkpt>
      <trkpt lat="46.19845" lon="4.50614">
        <ele>781.4</ele>
        <time>2020-10-17T11:42:23Z</time>
      </trkpt>
      <trkpt lat="46.19843" lon="4.50614">
        <ele>781.6</ele>
        <time>2020-10-17T11:42:24Z</time>
      </trkpt>
      <trkpt lat="46.19841" lon="4.50614">
        <ele>781.6</ele>
        <time>2020-10-17T11:42:25Z</time>
      </trkpt>
      <trkpt lat="46.19839" lon="4.50613">
        <ele>781.6</ele>
        <time>2020-10-17T11:42:26Z</time>
      </trkpt>
      <trkpt lat="46.19833" lon="4.50608">
        <ele>781.4</ele>
        <time>2020-10-17T11:42:27Z</time>
      </trkpt>
      <trkpt lat="46.19833" lon="4.50608">
        <ele>781.4</ele>
        <time>2020-10-17T11:42:28Z</time>
      </trkpt>
      <trkpt lat="46.19832" lon="4.50607">
        <ele>781.6</ele>
        <time>2020-10-17T11:42:29Z</time>
      </trkpt>
      <trkpt lat="46.19832" lon="4.50607">
        <ele>781.6</ele>
        <time>2020-10-17T11:42:30Z</time>
      </trkpt>
      <trkpt lat="46.19829" lon="4.50605">
        <ele>781.8</ele>
        <time>2020-10-17T11:42:31Z</time>
      </trkpt>
      <trkpt lat="46.19829" lon="4.50605">
        <ele>781.8</ele>
        <time>2020-10-17T11:42:32Z</time>
      </trkpt>
      <trkpt lat="46.19827" lon="4.50603">
        <ele>781.8</ele>
        <time>2020-10-17T11:42:33Z</time>
      </trkpt>
      <trkpt lat="46.19827" lon="4.50603">
        <ele>782</ele>
        <time>2020-10-17T11:42:34Z</time>
      </trkpt>
      <trkpt lat="46.19827" lon="4.50603">
        <ele>782.2</ele>
        <time>2020-10-17T11:42:35Z</time>
      </trkpt>
      <trkpt lat="46.19823" lon="4.506">
        <ele>782.2</ele>
        <time>2020-10-17T11:42:36Z</time>
      </trkpt>
      <trkpt lat="46.19823" lon="4.506">
        <ele>782.2</ele>
        <time>2020-10-17T11:42:37Z</time>
      </trkpt>
      <trkpt lat="46.19821" lon="4.50597">
        <ele>782.2</ele>
        <time>2020-10-17T11:42:38Z</time>
      </trkpt>
      <trkpt lat="46.19821" lon="4.50597">
        <ele>782.2</ele>
        <time>2020-10-17T11:42:39Z</time>
      </trkpt>
      <trkpt lat="46.19819" lon="4.50596">
        <ele>782.2</ele>
        <time>2020-10-17T11:42:40Z</time>
      </trkpt>
      <trkpt lat="46.19817" lon="4.50595">
        <ele>782.4</ele>
        <time>2020-10-17T11:42:41Z</time>
      </trkpt>
      <trkpt lat="46.19814" lon="4.50593">
        <ele>782.4</ele>
        <time>2020-10-17T11:42:42Z</time>
      </trkpt>
      <trkpt lat="46.19811" lon="4.50592">
        <ele>782.2</ele>
        <time>2020-10-17T11:42:43Z</time>
      </trkpt>
      <trkpt lat="46.19811" lon="4.50592">
        <ele>782.2</ele>
        <time>2020-10-17T11:42:44Z</time>
      </trkpt>
      <trkpt lat="46.19808" lon="4.50592">
        <ele>782</ele>
        <time>2020-10-17T11:42:45Z</time>
      </trkpt>
      <trkpt lat="46.19808" lon="4.50592">
        <ele>782</ele>
        <time>2020-10-17T11:42:46Z</time>
      </trkpt>
      <trkpt lat="46.19805" lon="4.50591">
        <ele>782</ele>
        <time>2020-10-17T11:42:47Z</time>
      </trkpt>
      <trkpt lat="46.19805" lon="4.50591">
        <ele>781.6</ele>
        <time>2020-10-17T11:42:48Z</time>
      </trkpt>
      <trkpt lat="46.19802" lon="4.5059">
        <ele>781.2</ele>
        <time>2020-10-17T11:42:49Z</time>
      </trkpt>
      <trkpt lat="46.19802" lon="4.5059">
        <ele>781</ele>
        <time>2020-10-17T11:42:50Z</time>
      </trkpt>
      <trkpt lat="46.19799" lon="4.50589">
        <ele>781</ele>
        <time>2020-10-17T11:42:51Z</time>
      </trkpt>
      <trkpt lat="46.19799" lon="4.50589">
        <ele>780.6</ele>
        <time>2020-10-17T11:42:52Z</time>
      </trkpt>
      <trkpt lat="46.19797" lon="4.50588">
        <ele>780.2</ele>
        <time>2020-10-17T11:42:53Z</time>
      </trkpt>
      <trkpt lat="46.19797" lon="4.50588">
        <ele>780.2</ele>
        <time>2020-10-17T11:42:54Z</time>
      </trkpt>
      <trkpt lat="46.19794" lon="4.50587">
        <ele>780</ele>
        <time>2020-10-17T11:42:55Z</time>
      </trkpt>
      <trkpt lat="46.19794" lon="4.50587">
        <ele>779.4</ele>
        <time>2020-10-17T11:42:56Z</time>
      </trkpt>
      <trkpt lat="46.1979" lon="4.50586">
        <ele>779.2</ele>
        <time>2020-10-17T11:42:57Z</time>
      </trkpt>
      <trkpt lat="46.19788" lon="4.50586">
        <ele>778.8</ele>
        <time>2020-10-17T11:42:58Z</time>
      </trkpt>
      <trkpt lat="46.19788" lon="4.50586">
        <ele>778.2</ele>
        <time>2020-10-17T11:42:59Z</time>
      </trkpt>
      <trkpt lat="46.19785" lon="4.50585">
        <ele>778.2</ele>
        <time>2020-10-17T11:43:00Z</time>
      </trkpt>
      <trkpt lat="46.19785" lon="4.50585">
        <ele>778</ele>
        <time>2020-10-17T11:43:01Z</time>
      </trkpt>
      <trkpt lat="46.19783" lon="4.50582">
        <ele>777.4</ele>
        <time>2020-10-17T11:43:02Z</time>
      </trkpt>
      <trkpt lat="46.19783" lon="4.50582">
        <ele>777.4</ele>
        <time>2020-10-17T11:43:03Z</time>
      </trkpt>
      <trkpt lat="46.19781" lon="4.5058">
        <ele>776.8</ele>
        <time>2020-10-17T11:43:04Z</time>
      </trkpt>
      <trkpt lat="46.19779" lon="4.50578">
        <ele>776.2</ele>
        <time>2020-10-17T11:43:05Z</time>
      </trkpt>
      <trkpt lat="46.19777" lon="4.50576">
        <ele>776</ele>
        <time>2020-10-17T11:43:06Z</time>
      </trkpt>
      <trkpt lat="46.19776" lon="4.50575">
        <ele>775.2</ele>
        <time>2020-10-17T11:43:07Z</time>
      </trkpt>
      <trkpt lat="46.19774" lon="4.50573">
        <ele>774.8</ele>
        <time>2020-10-17T11:43:08Z</time>
      </trkpt>
      <trkpt lat="46.19772" lon="4.50572">
        <ele>774.6</ele>
        <time>2020-10-17T11:43:09Z</time>
      </trkpt>
      <trkpt lat="46.19772" lon="4.50572">
        <ele>773.8</ele>
        <time>2020-10-17T11:43:10Z</time>
      </trkpt>
      <trkpt lat="46.19769" lon="4.5057">
        <ele>773.4</ele>
        <time>2020-10-17T11:43:11Z</time>
      </trkpt>
      <trkpt lat="46.19769" lon="4.5057">
        <ele>773.4</ele>
        <time>2020-10-17T11:43:12Z</time>
      </trkpt>
      <trkpt lat="46.19766" lon="4.5057">
        <ele>773.2</ele>
        <time>2020-10-17T11:43:13Z</time>
      </trkpt>
      <trkpt lat="46.19763" lon="4.50569">
        <ele>772.8</ele>
        <time>2020-10-17T11:43:14Z</time>
      </trkpt>
      <trkpt lat="46.19761" lon="4.50569">
        <ele>772.4</ele>
        <time>2020-10-17T11:43:15Z</time>
      </trkpt>
      <trkpt lat="46.19759" lon="4.5057">
        <ele>772.2</ele>
        <time>2020-10-17T11:43:16Z</time>
      </trkpt>
      <trkpt lat="46.19756" lon="4.5057">
        <ele>772</ele>
        <time>2020-10-17T11:43:17Z</time>
      </trkpt>
      <trkpt lat="46.19753" lon="4.5057">
        <ele>771.4</ele>
        <time>2020-10-17T11:43:18Z</time>
      </trkpt>
      <trkpt lat="46.1975" lon="4.50569">
        <ele>771.2</ele>
        <time>2020-10-17T11:43:19Z</time>
      </trkpt>
      <trkpt lat="46.19748" lon="4.50569">
        <ele>770.8</ele>
        <time>2020-10-17T11:43:20Z</time>
      </trkpt>
      <trkpt lat="46.19745" lon="4.50569">
        <ele>770.2</ele>
        <time>2020-10-17T11:43:21Z</time>
      </trkpt>
      <trkpt lat="46.19742" lon="4.50567">
        <ele>769.8</ele>
        <time>2020-10-17T11:43:22Z</time>
      </trkpt>
      <trkpt lat="46.1974" lon="4.50566">
        <ele>769.2</ele>
        <time>2020-10-17T11:43:23Z</time>
      </trkpt>
      <trkpt lat="46.19737" lon="4.50564">
        <ele>768.6</ele>
        <time>2020-10-17T11:43:24Z</time>
      </trkpt>
      <trkpt lat="46.19735" lon="4.50563">
        <ele>768.2</ele>
        <time>2020-10-17T11:43:25Z</time>
      </trkpt>
      <trkpt lat="46.19732" lon="4.50562">
        <ele>767.6</ele>
        <time>2020-10-17T11:43:26Z</time>
      </trkpt>
      <trkpt lat="46.19729" lon="4.50561">
        <ele>767</ele>
        <time>2020-10-17T11:43:27Z</time>
      </trkpt>
      <trkpt lat="46.19726" lon="4.5056">
        <ele>766.6</ele>
        <time>2020-10-17T11:43:28Z</time>
      </trkpt>
      <trkpt lat="46.19724" lon="4.50559">
        <ele>766.2</ele>
        <time>2020-10-17T11:43:29Z</time>
      </trkpt>
      <trkpt lat="46.19721" lon="4.50558">
        <ele>765.6</ele>
        <time>2020-10-17T11:43:30Z</time>
      </trkpt>
      <trkpt lat="46.19718" lon="4.50557">
        <ele>765.2</ele>
        <time>2020-10-17T11:43:31Z</time>
      </trkpt>
      <trkpt lat="46.19715" lon="4.50556">
        <ele>764.8</ele>
        <time>2020-10-17T11:43:32Z</time>
      </trkpt>
      <trkpt lat="46.19712" lon="4.50555">
        <ele>764.4</ele>
        <time>2020-10-17T11:43:33Z</time>
      </trkpt>
      <trkpt lat="46.1971" lon="4.50555">
        <ele>763.8</ele>
        <time>2020-10-17T11:43:34Z</time>
      </trkpt>
      <trkpt lat="46.19706" lon="4.50555">
        <ele>763.6</ele>
        <time>2020-10-17T11:43:35Z</time>
      </trkpt>
      <trkpt lat="46.19703" lon="4.50554">
        <ele>763.4</ele>
        <time>2020-10-17T11:43:36Z</time>
      </trkpt>
      <trkpt lat="46.19701" lon="4.50553">
        <ele>762.6</ele>
        <time>2020-10-17T11:43:37Z</time>
      </trkpt>
      <trkpt lat="46.19698" lon="4.50552">
        <ele>762.4</ele>
        <time>2020-10-17T11:43:38Z</time>
      </trkpt>
      <trkpt lat="46.19695" lon="4.50552">
        <ele>762</ele>
        <time>2020-10-17T11:43:39Z</time>
      </trkpt>
      <trkpt lat="46.19693" lon="4.50552">
        <ele>762</ele>
        <time>2020-10-17T11:43:40Z</time>
      </trkpt>
      <trkpt lat="46.19691" lon="4.50552">
        <ele>761.8</ele>
        <time>2020-10-17T11:43:41Z</time>
      </trkpt>
      <trkpt lat="46.19691" lon="4.50552">
        <ele>761</ele>
        <time>2020-10-17T11:43:42Z</time>
      </trkpt>
      <trkpt lat="46.19688" lon="4.50553">
        <ele>760.8</ele>
        <time>2020-10-17T11:43:43Z</time>
      </trkpt>
      <trkpt lat="46.19686" lon="4.50553">
        <ele>760.4</ele>
        <time>2020-10-17T11:43:44Z</time>
      </trkpt>
      <trkpt lat="46.19683" lon="4.50554">
        <ele>760.2</ele>
        <time>2020-10-17T11:43:45Z</time>
      </trkpt>
      <trkpt lat="46.19679" lon="4.50555">
        <ele>759.6</ele>
        <time>2020-10-17T11:43:46Z</time>
      </trkpt>
      <trkpt lat="46.19676" lon="4.50556">
        <ele>759</ele>
        <time>2020-10-17T11:43:47Z</time>
      </trkpt>
      <trkpt lat="46.19673" lon="4.50557">
        <ele>759.2</ele>
        <time>2020-10-17T11:43:48Z</time>
      </trkpt>
      <trkpt lat="46.1967" lon="4.50558">
        <ele>758.6</ele>
        <time>2020-10-17T11:43:49Z</time>
      </trkpt>
      <trkpt lat="46.19666" lon="4.5056">
        <ele>758.2</ele>
        <time>2020-10-17T11:43:50Z</time>
      </trkpt>
      <trkpt lat="46.19663" lon="4.50561">
        <ele>758.2</ele>
        <time>2020-10-17T11:43:51Z</time>
      </trkpt>
      <trkpt lat="46.1966" lon="4.50561">
        <ele>757.4</ele>
        <time>2020-10-17T11:43:52Z</time>
      </trkpt>
      <trkpt lat="46.19657" lon="4.50562">
        <ele>756.8</ele>
        <time>2020-10-17T11:43:53Z</time>
      </trkpt>
      <trkpt lat="46.19654" lon="4.50564">
        <ele>756.6</ele>
        <time>2020-10-17T11:43:54Z</time>
      </trkpt>
      <trkpt lat="46.19651" lon="4.50565">
        <ele>756.4</ele>
        <time>2020-10-17T11:43:55Z</time>
      </trkpt>
      <trkpt lat="46.19648" lon="4.50567">
        <ele>756</ele>
        <time>2020-10-17T11:43:56Z</time>
      </trkpt>
      <trkpt lat="46.19645" lon="4.50569">
        <ele>755.6</ele>
        <time>2020-10-17T11:43:57Z</time>
      </trkpt>
      <trkpt lat="46.19643" lon="4.50569">
        <ele>755.6</ele>
        <time>2020-10-17T11:43:58Z</time>
      </trkpt>
      <trkpt lat="46.1964" lon="4.5057">
        <ele>755.2</ele>
        <time>2020-10-17T11:43:59Z</time>
      </trkpt>
      <trkpt lat="46.19638" lon="4.50572">
        <ele>754.4</ele>
        <time>2020-10-17T11:44:00Z</time>
      </trkpt>
      <trkpt lat="46.19635" lon="4.50573">
        <ele>754.2</ele>
        <time>2020-10-17T11:44:01Z</time>
      </trkpt>
      <trkpt lat="46.19632" lon="4.50573">
        <ele>753.6</ele>
        <time>2020-10-17T11:44:02Z</time>
      </trkpt>
      <trkpt lat="46.19629" lon="4.50573">
        <ele>753.2</ele>
        <time>2020-10-17T11:44:03Z</time>
      </trkpt>
      <trkpt lat="46.19626" lon="4.50573">
        <ele>753</ele>
        <time>2020-10-17T11:44:04Z</time>
      </trkpt>
      <trkpt lat="46.19623" lon="4.50573">
        <ele>752.2</ele>
        <time>2020-10-17T11:44:05Z</time>
      </trkpt>
      <trkpt lat="46.1962" lon="4.50573">
        <ele>752</ele>
        <time>2020-10-17T11:44:06Z</time>
      </trkpt>
      <trkpt lat="46.19617" lon="4.50574">
        <ele>751.2</ele>
        <time>2020-10-17T11:44:07Z</time>
      </trkpt>
      <trkpt lat="46.19615" lon="4.50574">
        <ele>750.6</ele>
        <time>2020-10-17T11:44:08Z</time>
      </trkpt>
      <trkpt lat="46.19612" lon="4.50574">
        <ele>750</ele>
        <time>2020-10-17T11:44:09Z</time>
      </trkpt>
      <trkpt lat="46.19609" lon="4.50576">
        <ele>749.2</ele>
        <time>2020-10-17T11:44:10Z</time>
      </trkpt>
      <trkpt lat="46.19607" lon="4.50577">
        <ele>749</ele>
        <time>2020-10-17T11:44:11Z</time>
      </trkpt>
      <trkpt lat="46.19605" lon="4.50578">
        <ele>748.6</ele>
        <time>2020-10-17T11:44:12Z</time>
      </trkpt>
      <trkpt lat="46.19603" lon="4.50579">
        <ele>747.8</ele>
        <time>2020-10-17T11:44:13Z</time>
      </trkpt>
      <trkpt lat="46.196" lon="4.50579">
        <ele>747.6</ele>
        <time>2020-10-17T11:44:14Z</time>
      </trkpt>
      <trkpt lat="46.19598" lon="4.5058">
        <ele>746.4</ele>
        <time>2020-10-17T11:44:15Z</time>
      </trkpt>
      <trkpt lat="46.19595" lon="4.50581">
        <ele>745.8</ele>
        <time>2020-10-17T11:44:16Z</time>
      </trkpt>
      <trkpt lat="46.19593" lon="4.50582">
        <ele>745.6</ele>
        <time>2020-10-17T11:44:17Z</time>
      </trkpt>
      <trkpt lat="46.19591" lon="4.50584">
        <ele>745.2</ele>
        <time>2020-10-17T11:44:18Z</time>
      </trkpt>
      <trkpt lat="46.19588" lon="4.50585">
        <ele>744.6</ele>
        <time>2020-10-17T11:44:19Z</time>
      </trkpt>
      <trkpt lat="46.19585" lon="4.50587">
        <ele>744.4</ele>
        <time>2020-10-17T11:44:20Z</time>
      </trkpt>
      <trkpt lat="46.19583" lon="4.50588">
        <ele>743.6</ele>
        <time>2020-10-17T11:44:21Z</time>
      </trkpt>
      <trkpt lat="46.1958" lon="4.50589">
        <ele>743</ele>
        <time>2020-10-17T11:44:22Z</time>
      </trkpt>
      <trkpt lat="46.19578" lon="4.50591">
        <ele>743</ele>
        <time>2020-10-17T11:44:23Z</time>
      </trkpt>
      <trkpt lat="46.19576" lon="4.50592">
        <ele>742.4</ele>
        <time>2020-10-17T11:44:24Z</time>
      </trkpt>
      <trkpt lat="46.19574" lon="4.50593">
        <ele>742</ele>
        <time>2020-10-17T11:44:25Z</time>
      </trkpt>
      <trkpt lat="46.19572" lon="4.50594">
        <ele>741.8</ele>
        <time>2020-10-17T11:44:26Z</time>
      </trkpt>
      <trkpt lat="46.1957" lon="4.50595">
        <ele>741.6</ele>
        <time>2020-10-17T11:44:27Z</time>
      </trkpt>
      <trkpt lat="46.19567" lon="4.50596">
        <ele>741</ele>
        <time>2020-10-17T11:44:28Z</time>
      </trkpt>
      <trkpt lat="46.19565" lon="4.50598">
        <ele>740.8</ele>
        <time>2020-10-17T11:44:29Z</time>
      </trkpt>
      <trkpt lat="46.19563" lon="4.50599">
        <ele>740.4</ele>
        <time>2020-10-17T11:44:30Z</time>
      </trkpt>
      <trkpt lat="46.19561" lon="4.50601">
        <ele>739.8</ele>
        <time>2020-10-17T11:44:31Z</time>
      </trkpt>
      <trkpt lat="46.19559" lon="4.50602">
        <ele>739.4</ele>
        <time>2020-10-17T11:44:32Z</time>
      </trkpt>
      <trkpt lat="46.19556" lon="4.50604">
        <ele>739.2</ele>
        <time>2020-10-17T11:44:33Z</time>
      </trkpt>
      <trkpt lat="46.19554" lon="4.50604">
        <ele>738.6</ele>
        <time>2020-10-17T11:44:34Z</time>
      </trkpt>
      <trkpt lat="46.19551" lon="4.50605">
        <ele>738.2</ele>
        <time>2020-10-17T11:44:35Z</time>
      </trkpt>
      <trkpt lat="46.19549" lon="4.50605">
        <ele>738</ele>
        <time>2020-10-17T11:44:36Z</time>
      </trkpt>
      <trkpt lat="46.19546" lon="4.50606">
        <ele>737.6</ele>
        <time>2020-10-17T11:44:37Z</time>
      </trkpt>
      <trkpt lat="46.19543" lon="4.50608">
        <ele>737.2</ele>
        <time>2020-10-17T11:44:38Z</time>
      </trkpt>
      <trkpt lat="46.1954" lon="4.50609">
        <ele>736.4</ele>
        <time>2020-10-17T11:44:39Z</time>
      </trkpt>
      <trkpt lat="46.19537" lon="4.5061">
        <ele>736.2</ele>
        <time>2020-10-17T11:44:40Z</time>
      </trkpt>
      <trkpt lat="46.19534" lon="4.50611">
        <ele>735.2</ele>
        <time>2020-10-17T11:44:41Z</time>
      </trkpt>
      <trkpt lat="46.19531" lon="4.50612">
        <ele>734.4</ele>
        <time>2020-10-17T11:44:42Z</time>
      </trkpt>
      <trkpt lat="46.19528" lon="4.50612">
        <ele>733.4</ele>
        <time>2020-10-17T11:44:43Z</time>
      </trkpt>
      <trkpt lat="46.19525" lon="4.50613">
        <ele>733</ele>
        <time>2020-10-17T11:44:44Z</time>
      </trkpt>
      <trkpt lat="46.19523" lon="4.50614">
        <ele>732.8</ele>
        <time>2020-10-17T11:44:45Z</time>
      </trkpt>
      <trkpt lat="46.1952" lon="4.50615">
        <ele>731.8</ele>
        <time>2020-10-17T11:44:46Z</time>
      </trkpt>
      <trkpt lat="46.19518" lon="4.50617">
        <ele>731.4</ele>
        <time>2020-10-17T11:44:47Z</time>
      </trkpt>
      <trkpt lat="46.19516" lon="4.50618">
        <ele>731.2</ele>
        <time>2020-10-17T11:44:48Z</time>
      </trkpt>
      <trkpt lat="46.19513" lon="4.50619">
        <ele>730.6</ele>
        <time>2020-10-17T11:44:49Z</time>
      </trkpt>
      <trkpt lat="46.19511" lon="4.5062">
        <ele>730</ele>
        <time>2020-10-17T11:44:50Z</time>
      </trkpt>
      <trkpt lat="46.19509" lon="4.50622">
        <ele>729.8</ele>
        <time>2020-10-17T11:44:51Z</time>
      </trkpt>
      <trkpt lat="46.19507" lon="4.50622">
        <ele>729.6</ele>
        <time>2020-10-17T11:44:52Z</time>
      </trkpt>
      <trkpt lat="46.19505" lon="4.50623">
        <ele>728.8</ele>
        <time>2020-10-17T11:44:53Z</time>
      </trkpt>
      <trkpt lat="46.19503" lon="4.50623">
        <ele>728.8</ele>
        <time>2020-10-17T11:44:54Z</time>
      </trkpt>
      <trkpt lat="46.19501" lon="4.50623">
        <ele>728.2</ele>
        <time>2020-10-17T11:44:55Z</time>
      </trkpt>
      <trkpt lat="46.19499" lon="4.50623">
        <ele>727.6</ele>
        <time>2020-10-17T11:44:56Z</time>
      </trkpt>
      <trkpt lat="46.19497" lon="4.50621">
        <ele>727.6</ele>
        <time>2020-10-17T11:44:57Z</time>
      </trkpt>
      <trkpt lat="46.19495" lon="4.5062">
        <ele>727.2</ele>
        <time>2020-10-17T11:44:58Z</time>
      </trkpt>
      <trkpt lat="46.19493" lon="4.50618">
        <ele>726.6</ele>
        <time>2020-10-17T11:44:59Z</time>
      </trkpt>
      <trkpt lat="46.1949" lon="4.50615">
        <ele>726.6</ele>
        <time>2020-10-17T11:45:00Z</time>
      </trkpt>
      <trkpt lat="46.19489" lon="4.50613">
        <ele>726</ele>
        <time>2020-10-17T11:45:01Z</time>
      </trkpt>
      <trkpt lat="46.19486" lon="4.50612">
        <ele>725.6</ele>
        <time>2020-10-17T11:45:02Z</time>
      </trkpt>
      <trkpt lat="46.19484" lon="4.5061">
        <ele>725.4</ele>
        <time>2020-10-17T11:45:03Z</time>
      </trkpt>
      <trkpt lat="46.19482" lon="4.50608">
        <ele>724.8</ele>
        <time>2020-10-17T11:45:04Z</time>
      </trkpt>
      <trkpt lat="46.1948" lon="4.50607">
        <ele>724.2</ele>
        <time>2020-10-17T11:45:05Z</time>
      </trkpt>
      <trkpt lat="46.19478" lon="4.50606">
        <ele>724</ele>
        <time>2020-10-17T11:45:06Z</time>
      </trkpt>
      <trkpt lat="46.19476" lon="4.50605">
        <ele>723.4</ele>
        <time>2020-10-17T11:45:07Z</time>
      </trkpt>
      <trkpt lat="46.19473" lon="4.50603">
        <ele>723</ele>
        <time>2020-10-17T11:45:08Z</time>
      </trkpt>
      <trkpt lat="46.19471" lon="4.50601">
        <ele>722.8</ele>
        <time>2020-10-17T11:45:09Z</time>
      </trkpt>
      <trkpt lat="46.19468" lon="4.50599">
        <ele>722</ele>
        <time>2020-10-17T11:45:10Z</time>
      </trkpt>
      <trkpt lat="46.19466" lon="4.50598">
        <ele>721.4</ele>
        <time>2020-10-17T11:45:11Z</time>
      </trkpt>
      <trkpt lat="46.19466" lon="4.50598">
        <ele>721</ele>
        <time>2020-10-17T11:45:12Z</time>
      </trkpt>
      <trkpt lat="46.19461" lon="4.50596">
        <ele>721</ele>
        <time>2020-10-17T11:45:13Z</time>
      </trkpt>
      <trkpt lat="46.19459" lon="4.50596">
        <ele>720.6</ele>
        <time>2020-10-17T11:45:14Z</time>
      </trkpt>
      <trkpt lat="46.19459" lon="4.50596">
        <ele>720.6</ele>
        <time>2020-10-17T11:45:15Z</time>
      </trkpt>
      <trkpt lat="46.19459" lon="4.50596">
        <ele>720.6</ele>
        <time>2020-10-17T11:45:16Z</time>
      </trkpt>
      <trkpt lat="46.19459" lon="4.50596">
        <ele>720</ele>
        <time>2020-10-17T11:45:17Z</time>
      </trkpt>
      <trkpt lat="46.19445" lon="4.50596">
        <ele>719.4</ele>
        <time>2020-10-17T11:45:18Z</time>
      </trkpt>
      <trkpt lat="46.19443" lon="4.50596">
        <ele>719.2</ele>
        <time>2020-10-17T11:45:19Z</time>
      </trkpt>
      <trkpt lat="46.19441" lon="4.50596">
        <ele>718.6</ele>
        <time>2020-10-17T11:45:20Z</time>
      </trkpt>
      <trkpt lat="46.19438" lon="4.50596">
        <ele>718.4</ele>
        <time>2020-10-17T11:45:21Z</time>
      </trkpt>
      <trkpt lat="46.19435" lon="4.50596">
        <ele>717.8</ele>
        <time>2020-10-17T11:45:22Z</time>
      </trkpt>
      <trkpt lat="46.19434" lon="4.50597">
        <ele>717.2</ele>
        <time>2020-10-17T11:45:23Z</time>
      </trkpt>
      <trkpt lat="46.19434" lon="4.50597">
        <ele>717.2</ele>
        <time>2020-10-17T11:45:24Z</time>
      </trkpt>
      <trkpt lat="46.19431" lon="4.50597">
        <ele>716.6</ele>
        <time>2020-10-17T11:45:25Z</time>
      </trkpt>
      <trkpt lat="46.19431" lon="4.50597">
        <ele>716.4</ele>
        <time>2020-10-17T11:45:26Z</time>
      </trkpt>
      <trkpt lat="46.19431" lon="4.50597">
        <ele>715.8</ele>
        <time>2020-10-17T11:45:27Z</time>
      </trkpt>
      <trkpt lat="46.19431" lon="4.50597">
        <ele>715.4</ele>
        <time>2020-10-17T11:45:28Z</time>
      </trkpt>
      <trkpt lat="46.19431" lon="4.50597">
        <ele>715.4</ele>
        <time>2020-10-17T11:45:29Z</time>
      </trkpt>
      <trkpt lat="46.19431" lon="4.50597">
        <ele>715.2</ele>
        <time>2020-10-17T11:45:30Z</time>
      </trkpt>
      <trkpt lat="46.19431" lon="4.50597">
        <ele>715.2</ele>
        <time>2020-10-17T11:45:31Z</time>
      </trkpt>
      <trkpt lat="46.19429" lon="4.50599">
        <ele>715.2</ele>
        <time>2020-10-17T11:45:32Z</time>
      </trkpt>
      <trkpt lat="46.19429" lon="4.50599">
        <ele>715</ele>
        <time>2020-10-17T11:45:33Z</time>
      </trkpt>
      <trkpt lat="46.19427" lon="4.50598">
        <ele>715</ele>
        <time>2020-10-17T11:45:34Z</time>
      </trkpt>
      <trkpt lat="46.19427" lon="4.50598">
        <ele>714.6</ele>
        <time>2020-10-17T11:45:35Z</time>
      </trkpt>
      <trkpt lat="46.19425" lon="4.50595">
        <ele>714.4</ele>
        <time>2020-10-17T11:45:36Z</time>
      </trkpt>
      <trkpt lat="46.19423" lon="4.50594">
        <ele>714.4</ele>
        <time>2020-10-17T11:45:37Z</time>
      </trkpt>
      <trkpt lat="46.19421" lon="4.50594">
        <ele>714.2</ele>
        <time>2020-10-17T11:45:38Z</time>
      </trkpt>
      <trkpt lat="46.19421" lon="4.50594">
        <ele>714.2</ele>
        <time>2020-10-17T11:45:39Z</time>
      </trkpt>
      <trkpt lat="46.19417" lon="4.50594">
        <ele>713.8</ele>
        <time>2020-10-17T11:45:40Z</time>
      </trkpt>
      <trkpt lat="46.19417" lon="4.50594">
        <ele>713.6</ele>
        <time>2020-10-17T11:45:41Z</time>
      </trkpt>
      <trkpt lat="46.19414" lon="4.50594">
        <ele>713.6</ele>
        <time>2020-10-17T11:45:42Z</time>
      </trkpt>
      <trkpt lat="46.19414" lon="4.50594">
        <ele>713</ele>
        <time>2020-10-17T11:45:43Z</time>
      </trkpt>
      <trkpt lat="46.19412" lon="4.50594">
        <ele>712.4</ele>
        <time>2020-10-17T11:45:44Z</time>
      </trkpt>
      <trkpt lat="46.19409" lon="4.50595">
        <ele>712.4</ele>
        <time>2020-10-17T11:45:45Z</time>
      </trkpt>
      <trkpt lat="46.19409" lon="4.50595">
        <ele>711.8</ele>
        <time>2020-10-17T11:45:46Z</time>
      </trkpt>
      <trkpt lat="46.19406" lon="4.50594">
        <ele>711.4</ele>
        <time>2020-10-17T11:45:47Z</time>
      </trkpt>
      <trkpt lat="46.19406" lon="4.50594">
        <ele>710.4</ele>
        <time>2020-10-17T11:45:48Z</time>
      </trkpt>
      <trkpt lat="46.19402" lon="4.50594">
        <ele>710.2</ele>
        <time>2020-10-17T11:45:49Z</time>
      </trkpt>
      <trkpt lat="46.19399" lon="4.50594">
        <ele>710.2</ele>
        <time>2020-10-17T11:45:50Z</time>
      </trkpt>
      <trkpt lat="46.19397" lon="4.50595">
        <ele>709.6</ele>
        <time>2020-10-17T11:45:51Z</time>
      </trkpt>
      <trkpt lat="46.19397" lon="4.50595">
        <ele>709</ele>
        <time>2020-10-17T11:45:52Z</time>
      </trkpt>
      <trkpt lat="46.19393" lon="4.50596">
        <ele>708.4</ele>
        <time>2020-10-17T11:45:53Z</time>
      </trkpt>
      <trkpt lat="46.19391" lon="4.50596">
        <ele>707.6</ele>
        <time>2020-10-17T11:45:54Z</time>
      </trkpt>
      <trkpt lat="46.19386" lon="4.50596">
        <ele>707.2</ele>
        <time>2020-10-17T11:45:55Z</time>
      </trkpt>
      <trkpt lat="46.19385" lon="4.50596">
        <ele>706.6</ele>
        <time>2020-10-17T11:45:56Z</time>
      </trkpt>
      <trkpt lat="46.19381" lon="4.50596">
        <ele>706.4</ele>
        <time>2020-10-17T11:45:57Z</time>
      </trkpt>
      <trkpt lat="46.19378" lon="4.50597">
        <ele>706</ele>
        <time>2020-10-17T11:45:58Z</time>
      </trkpt>
      <trkpt lat="46.19375" lon="4.50598">
        <ele>705.4</ele>
        <time>2020-10-17T11:45:59Z</time>
      </trkpt>
      <trkpt lat="46.19373" lon="4.50599">
        <ele>705.2</ele>
        <time>2020-10-17T11:46:00Z</time>
      </trkpt>
      <trkpt lat="46.19373" lon="4.50599">
        <ele>704.6</ele>
        <time>2020-10-17T11:46:01Z</time>
      </trkpt>
      <trkpt lat="46.19371" lon="4.50603">
        <ele>703.8</ele>
        <time>2020-10-17T11:46:02Z</time>
      </trkpt>
      <trkpt lat="46.19371" lon="4.50603">
        <ele>703.8</ele>
        <time>2020-10-17T11:46:03Z</time>
      </trkpt>
      <trkpt lat="46.19369" lon="4.50608">
        <ele>703.4</ele>
        <time>2020-10-17T11:46:04Z</time>
      </trkpt>
      <trkpt lat="46.19369" lon="4.50608">
        <ele>703.2</ele>
        <time>2020-10-17T11:46:05Z</time>
      </trkpt>
      <trkpt lat="46.19368" lon="4.50613">
        <ele>703.2</ele>
        <time>2020-10-17T11:46:06Z</time>
      </trkpt>
      <trkpt lat="46.19368" lon="4.50616">
        <ele>702.4</ele>
        <time>2020-10-17T11:46:07Z</time>
      </trkpt>
      <trkpt lat="46.19367" lon="4.50618">
        <ele>702.2</ele>
        <time>2020-10-17T11:46:08Z</time>
      </trkpt>
      <trkpt lat="46.19367" lon="4.50618">
        <ele>702.2</ele>
        <time>2020-10-17T11:46:09Z</time>
      </trkpt>
      <trkpt lat="46.19366" lon="4.50622">
        <ele>701.8</ele>
        <time>2020-10-17T11:46:10Z</time>
      </trkpt>
      <trkpt lat="46.19365" lon="4.50626">
        <ele>701.4</ele>
        <time>2020-10-17T11:46:11Z</time>
      </trkpt>
      <trkpt lat="46.19364" lon="4.50629">
        <ele>701.4</ele>
        <time>2020-10-17T11:46:12Z</time>
      </trkpt>
      <trkpt lat="46.19362" lon="4.50631">
        <ele>701</ele>
        <time>2020-10-17T11:46:13Z</time>
      </trkpt>
      <trkpt lat="46.19361" lon="4.50634">
        <ele>700.6</ele>
        <time>2020-10-17T11:46:14Z</time>
      </trkpt>
      <trkpt lat="46.19358" lon="4.50635">
        <ele>700.6</ele>
        <time>2020-10-17T11:46:15Z</time>
      </trkpt>
      <trkpt lat="46.19357" lon="4.50637">
        <ele>700.4</ele>
        <time>2020-10-17T11:46:16Z</time>
      </trkpt>
      <trkpt lat="46.19355" lon="4.50639">
        <ele>699.8</ele>
        <time>2020-10-17T11:46:17Z</time>
      </trkpt>
      <trkpt lat="46.19353" lon="4.50641">
        <ele>699.6</ele>
        <time>2020-10-17T11:46:18Z</time>
      </trkpt>
      <trkpt lat="46.19352" lon="4.50643">
        <ele>699</ele>
        <time>2020-10-17T11:46:19Z</time>
      </trkpt>
      <trkpt lat="46.19352" lon="4.50643">
        <ele>698.6</ele>
        <time>2020-10-17T11:46:20Z</time>
      </trkpt>
      <trkpt lat="46.19349" lon="4.50646">
        <ele>698.2</ele>
        <time>2020-10-17T11:46:21Z</time>
      </trkpt>
      <trkpt lat="46.19347" lon="4.50648">
        <ele>697.6</ele>
        <time>2020-10-17T11:46:22Z</time>
      </trkpt>
      <trkpt lat="46.19346" lon="4.50649">
        <ele>697</ele>
        <time>2020-10-17T11:46:23Z</time>
      </trkpt>
      <trkpt lat="46.19344" lon="4.5065">
        <ele>696.8</ele>
        <time>2020-10-17T11:46:24Z</time>
      </trkpt>
      <trkpt lat="46.19342" lon="4.50652">
        <ele>696.2</ele>
        <time>2020-10-17T11:46:25Z</time>
      </trkpt>
      <trkpt lat="46.1934" lon="4.50653">
        <ele>695.6</ele>
        <time>2020-10-17T11:46:26Z</time>
      </trkpt>
      <trkpt lat="46.19338" lon="4.50655">
        <ele>695.6</ele>
        <time>2020-10-17T11:46:27Z</time>
      </trkpt>
      <trkpt lat="46.19335" lon="4.50658">
        <ele>695</ele>
        <time>2020-10-17T11:46:28Z</time>
      </trkpt>
      <trkpt lat="46.19332" lon="4.50661">
        <ele>694.4</ele>
        <time>2020-10-17T11:46:29Z</time>
      </trkpt>
      <trkpt lat="46.1933" lon="4.50662">
        <ele>694.4</ele>
        <time>2020-10-17T11:46:30Z</time>
      </trkpt>
      <trkpt lat="46.19327" lon="4.50664">
        <ele>694.2</ele>
        <time>2020-10-17T11:46:31Z</time>
      </trkpt>
      <trkpt lat="46.19325" lon="4.50666">
        <ele>693.8</ele>
        <time>2020-10-17T11:46:32Z</time>
      </trkpt>
      <trkpt lat="46.19322" lon="4.50667">
        <ele>693.4</ele>
        <time>2020-10-17T11:46:33Z</time>
      </trkpt>
      <trkpt lat="46.1932" lon="4.50668">
        <ele>693.2</ele>
        <time>2020-10-17T11:46:34Z</time>
      </trkpt>
      <trkpt lat="46.19317" lon="4.50669">
        <ele>693</ele>
        <time>2020-10-17T11:46:35Z</time>
      </trkpt>
      <trkpt lat="46.19315" lon="4.5067">
        <ele>692.8</ele>
        <time>2020-10-17T11:46:36Z</time>
      </trkpt>
      <trkpt lat="46.19312" lon="4.50671">
        <ele>693</ele>
        <time>2020-10-17T11:46:37Z</time>
      </trkpt>
      <trkpt lat="46.19309" lon="4.50672">
        <ele>692.6</ele>
        <time>2020-10-17T11:46:38Z</time>
      </trkpt>
      <trkpt lat="46.19307" lon="4.50673">
        <ele>692</ele>
        <time>2020-10-17T11:46:39Z</time>
      </trkpt>
      <trkpt lat="46.19305" lon="4.50673">
        <ele>692.2</ele>
        <time>2020-10-17T11:46:40Z</time>
      </trkpt>
      <trkpt lat="46.19303" lon="4.50674">
        <ele>692</ele>
        <time>2020-10-17T11:46:41Z</time>
      </trkpt>
      <trkpt lat="46.19301" lon="4.50675">
        <ele>691.8</ele>
        <time>2020-10-17T11:46:42Z</time>
      </trkpt>
      <trkpt lat="46.19298" lon="4.50676">
        <ele>691.6</ele>
        <time>2020-10-17T11:46:43Z</time>
      </trkpt>
      <trkpt lat="46.19296" lon="4.50678">
        <ele>691.6</ele>
        <time>2020-10-17T11:46:44Z</time>
      </trkpt>
      <trkpt lat="46.19293" lon="4.50678">
        <ele>691.6</ele>
        <time>2020-10-17T11:46:45Z</time>
      </trkpt>
      <trkpt lat="46.19291" lon="4.50678">
        <ele>691.6</ele>
        <time>2020-10-17T11:46:46Z</time>
      </trkpt>
      <trkpt lat="46.19289" lon="4.50679">
        <ele>691.6</ele>
        <time>2020-10-17T11:46:47Z</time>
      </trkpt>
      <trkpt lat="46.19287" lon="4.50679">
        <ele>691.2</ele>
        <time>2020-10-17T11:46:48Z</time>
      </trkpt>
      <trkpt lat="46.19285" lon="4.50679">
        <ele>690.8</ele>
        <time>2020-10-17T11:46:49Z</time>
      </trkpt>
      <trkpt lat="46.19283" lon="4.50679">
        <ele>690.8</ele>
        <time>2020-10-17T11:46:50Z</time>
      </trkpt>
      <trkpt lat="46.19281" lon="4.5068">
        <ele>690.6</ele>
        <time>2020-10-17T11:46:51Z</time>
      </trkpt>
      <trkpt lat="46.19279" lon="4.5068">
        <ele>690</ele>
        <time>2020-10-17T11:46:52Z</time>
      </trkpt>
      <trkpt lat="46.19276" lon="4.5068">
        <ele>690</ele>
        <time>2020-10-17T11:46:53Z</time>
      </trkpt>
      <trkpt lat="46.19274" lon="4.5068">
        <ele>689.4</ele>
        <time>2020-10-17T11:46:54Z</time>
      </trkpt>
      <trkpt lat="46.19272" lon="4.50679">
        <ele>689.2</ele>
        <time>2020-10-17T11:46:55Z</time>
      </trkpt>
      <trkpt lat="46.1927" lon="4.50679">
        <ele>689.4</ele>
        <time>2020-10-17T11:46:56Z</time>
      </trkpt>
      <trkpt lat="46.19267" lon="4.50678">
        <ele>689.2</ele>
        <time>2020-10-17T11:46:57Z</time>
      </trkpt>
      <trkpt lat="46.19265" lon="4.50678">
        <ele>688.8</ele>
        <time>2020-10-17T11:46:58Z</time>
      </trkpt>
      <trkpt lat="46.19262" lon="4.50678">
        <ele>688.8</ele>
        <time>2020-10-17T11:46:59Z</time>
      </trkpt>
      <trkpt lat="46.1926" lon="4.50677">
        <ele>689</ele>
        <time>2020-10-17T11:47:00Z</time>
      </trkpt>
      <trkpt lat="46.19258" lon="4.50677">
        <ele>688.4</ele>
        <time>2020-10-17T11:47:01Z</time>
      </trkpt>
      <trkpt lat="46.19256" lon="4.50677">
        <ele>687.8</ele>
        <time>2020-10-17T11:47:02Z</time>
      </trkpt>
      <trkpt lat="46.19254" lon="4.50677">
        <ele>687.8</ele>
        <time>2020-10-17T11:47:03Z</time>
      </trkpt>
      <trkpt lat="46.19252" lon="4.50677">
        <ele>687.4</ele>
        <time>2020-10-17T11:47:04Z</time>
      </trkpt>
      <trkpt lat="46.19248" lon="4.50676">
        <ele>687</ele>
        <time>2020-10-17T11:47:05Z</time>
      </trkpt>
      <trkpt lat="46.19245" lon="4.50676">
        <ele>687</ele>
        <time>2020-10-17T11:47:06Z</time>
      </trkpt>
      <trkpt lat="46.19241" lon="4.50677">
        <ele>686.6</ele>
        <time>2020-10-17T11:47:07Z</time>
      </trkpt>
      <trkpt lat="46.19237" lon="4.50677">
        <ele>686.2</ele>
        <time>2020-10-17T11:47:08Z</time>
      </trkpt>
      <trkpt lat="46.19234" lon="4.50677">
        <ele>686</ele>
        <time>2020-10-17T11:47:09Z</time>
      </trkpt>
      <trkpt lat="46.19234" lon="4.50677">
        <ele>686</ele>
        <time>2020-10-17T11:47:10Z</time>
      </trkpt>
      <trkpt lat="46.19227" lon="4.50678">
        <ele>685.4</ele>
        <time>2020-10-17T11:47:11Z</time>
      </trkpt>
      <trkpt lat="46.19223" lon="4.50678">
        <ele>685</ele>
        <time>2020-10-17T11:47:12Z</time>
      </trkpt>
      <trkpt lat="46.19216" lon="4.50677">
        <ele>685.2</ele>
        <time>2020-10-17T11:47:13Z</time>
      </trkpt>
      <trkpt lat="46.19214" lon="4.50677">
        <ele>684.8</ele>
        <time>2020-10-17T11:47:14Z</time>
      </trkpt>
      <trkpt lat="46.1921" lon="4.50674">
        <ele>684.6</ele>
        <time>2020-10-17T11:47:15Z</time>
      </trkpt>
      <trkpt lat="46.19208" lon="4.50672">
        <ele>684.6</ele>
        <time>2020-10-17T11:47:16Z</time>
      </trkpt>
      <trkpt lat="46.19208" lon="4.50672">
        <ele>684.2</ele>
        <time>2020-10-17T11:47:17Z</time>
      </trkpt>
      <trkpt lat="46.19208" lon="4.50672">
        <ele>684</ele>
        <time>2020-10-17T11:47:18Z</time>
      </trkpt>
      <trkpt lat="46.19208" lon="4.50672">
        <ele>683.8</ele>
        <time>2020-10-17T11:47:19Z</time>
      </trkpt>
      <trkpt lat="46.19208" lon="4.50672">
        <ele>683.8</ele>
        <time>2020-10-17T11:47:20Z</time>
      </trkpt>
      <trkpt lat="46.19208" lon="4.50672">
        <ele>683.8</ele>
        <time>2020-10-17T11:47:21Z</time>
      </trkpt>
      <trkpt lat="46.19208" lon="4.50672">
        <ele>683.6</ele>
        <time>2020-10-17T11:47:22Z</time>
      </trkpt>
      <trkpt lat="46.19209" lon="4.50675">
        <ele>683.6</ele>
        <time>2020-10-17T11:47:23Z</time>
      </trkpt>
      <trkpt lat="46.19209" lon="4.50675">
        <ele>683.6</ele>
        <time>2020-10-17T11:47:24Z</time>
      </trkpt>
      <trkpt lat="46.19209" lon="4.50675">
        <ele>683.4</ele>
        <time>2020-10-17T11:47:25Z</time>
      </trkpt>
      <trkpt lat="46.19209" lon="4.50675">
        <ele>683.6</ele>
        <time>2020-10-17T11:47:26Z</time>
      </trkpt>
      <trkpt lat="46.19209" lon="4.50675">
        <ele>683.4</ele>
        <time>2020-10-17T11:47:27Z</time>
      </trkpt>
      <trkpt lat="46.19209" lon="4.50675">
        <ele>683.2</ele>
        <time>2020-10-17T11:47:28Z</time>
      </trkpt>
      <trkpt lat="46.19209" lon="4.50675">
        <ele>683.2</ele>
        <time>2020-10-17T11:47:29Z</time>
      </trkpt>
      <trkpt lat="46.19209" lon="4.50675">
        <ele>683.2</ele>
        <time>2020-10-17T11:47:30Z</time>
      </trkpt>
      <trkpt lat="46.19209" lon="4.50671">
        <ele>683.2</ele>
        <time>2020-10-17T11:47:31Z</time>
      </trkpt>
      <trkpt lat="46.19209" lon="4.50671">
        <ele>683</ele>
        <time>2020-10-17T11:47:32Z</time>
      </trkpt>
      <trkpt lat="46.19209" lon="4.50668">
        <ele>683.2</ele>
        <time>2020-10-17T11:47:33Z</time>
      </trkpt>
      <trkpt lat="46.19209" lon="4.50668">
        <ele>683.2</ele>
        <time>2020-10-17T11:47:34Z</time>
      </trkpt>
      <trkpt lat="46.1921" lon="4.50664">
        <ele>683.2</ele>
        <time>2020-10-17T11:47:35Z</time>
      </trkpt>
      <trkpt lat="46.1921" lon="4.50664">
        <ele>683.2</ele>
        <time>2020-10-17T11:47:36Z</time>
      </trkpt>
      <trkpt lat="46.1921" lon="4.50659">
        <ele>683</ele>
        <time>2020-10-17T11:47:37Z</time>
      </trkpt>
      <trkpt lat="46.1921" lon="4.50659">
        <ele>682.8</ele>
        <time>2020-10-17T11:47:38Z</time>
      </trkpt>
      <trkpt lat="46.19211" lon="4.50654">
        <ele>682.8</ele>
        <time>2020-10-17T11:47:39Z</time>
      </trkpt>
      <trkpt lat="46.19211" lon="4.50652">
        <ele>682.4</ele>
        <time>2020-10-17T11:47:40Z</time>
      </trkpt>
      <trkpt lat="46.19211" lon="4.50652">
        <ele>682.2</ele>
        <time>2020-10-17T11:47:41Z</time>
      </trkpt>
      <trkpt lat="46.1921" lon="4.50647">
        <ele>682</ele>
        <time>2020-10-17T11:47:42Z</time>
      </trkpt>
      <trkpt lat="46.1921" lon="4.50647">
        <ele>682.4</ele>
        <time>2020-10-17T11:47:43Z</time>
      </trkpt>
      <trkpt lat="46.1921" lon="4.50642">
        <ele>682.6</ele>
        <time>2020-10-17T11:47:44Z</time>
      </trkpt>
      <trkpt lat="46.1921" lon="4.50642">
        <ele>682.6</ele>
        <time>2020-10-17T11:47:45Z</time>
      </trkpt>
      <trkpt lat="46.19209" lon="4.50638">
        <ele>682.4</ele>
        <time>2020-10-17T11:47:46Z</time>
      </trkpt>
      <trkpt lat="46.19209" lon="4.50635">
        <ele>682.2</ele>
        <time>2020-10-17T11:47:47Z</time>
      </trkpt>
      <trkpt lat="46.19209" lon="4.50635">
        <ele>682.2</ele>
        <time>2020-10-17T11:47:48Z</time>
      </trkpt>
      <trkpt lat="46.1921" lon="4.5063">
        <ele>682.2</ele>
        <time>2020-10-17T11:47:49Z</time>
      </trkpt>
      <trkpt lat="46.1921" lon="4.50627">
        <ele>682.2</ele>
        <time>2020-10-17T11:47:50Z</time>
      </trkpt>
      <trkpt lat="46.1921" lon="4.50627">
        <ele>682.2</ele>
        <time>2020-10-17T11:47:51Z</time>
      </trkpt>
      <trkpt lat="46.19212" lon="4.50623">
        <ele>682.4</ele>
        <time>2020-10-17T11:47:52Z</time>
      </trkpt>
      <trkpt lat="46.19212" lon="4.50623">
        <ele>682.6</ele>
        <time>2020-10-17T11:47:53Z</time>
      </trkpt>
      <trkpt lat="46.19213" lon="4.50619">
        <ele>682.6</ele>
        <time>2020-10-17T11:47:54Z</time>
      </trkpt>
      <trkpt lat="46.19213" lon="4.50619">
        <ele>682.6</ele>
        <time>2020-10-17T11:47:55Z</time>
      </trkpt>
      <trkpt lat="46.19213" lon="4.50614">
        <ele>682.6</ele>
        <time>2020-10-17T11:47:56Z</time>
      </trkpt>
      <trkpt lat="46.19213" lon="4.50614">
        <ele>682.4</ele>
        <time>2020-10-17T11:47:57Z</time>
      </trkpt>
      <trkpt lat="46.19213" lon="4.5061">
        <ele>682.6</ele>
        <time>2020-10-17T11:47:58Z</time>
      </trkpt>
      <trkpt lat="46.19213" lon="4.5061">
        <ele>682.4</ele>
        <time>2020-10-17T11:47:59Z</time>
      </trkpt>
      <trkpt lat="46.19214" lon="4.50606">
        <ele>682.2</ele>
        <time>2020-10-17T11:48:00Z</time>
      </trkpt>
      <trkpt lat="46.19214" lon="4.50606">
        <ele>682.2</ele>
        <time>2020-10-17T11:48:01Z</time>
      </trkpt>
      <trkpt lat="46.19215" lon="4.50602">
        <ele>682.2</ele>
        <time>2020-10-17T11:48:02Z</time>
      </trkpt>
      <trkpt lat="46.19215" lon="4.50602">
        <ele>682</ele>
        <time>2020-10-17T11:48:03Z</time>
      </trkpt>
      <trkpt lat="46.19216" lon="4.50599">
        <ele>682.2</ele>
        <time>2020-10-17T11:48:04Z</time>
      </trkpt>
      <trkpt lat="46.19216" lon="4.50599">
        <ele>682</ele>
        <time>2020-10-17T11:48:05Z</time>
      </trkpt>
      <trkpt lat="46.19215" lon="4.50595">
        <ele>682</ele>
        <time>2020-10-17T11:48:06Z</time>
      </trkpt>
      <trkpt lat="46.19215" lon="4.50595">
        <ele>681.8</ele>
        <time>2020-10-17T11:48:07Z</time>
      </trkpt>
      <trkpt lat="46.19214" lon="4.50591">
        <ele>681.4</ele>
        <time>2020-10-17T11:48:08Z</time>
      </trkpt>
      <trkpt lat="46.19214" lon="4.50591">
        <ele>681.4</ele>
        <time>2020-10-17T11:48:09Z</time>
      </trkpt>
      <trkpt lat="46.19213" lon="4.50587">
        <ele>681.6</ele>
        <time>2020-10-17T11:48:10Z</time>
      </trkpt>
      <trkpt lat="46.19213" lon="4.50587">
        <ele>681.2</ele>
        <time>2020-10-17T11:48:11Z</time>
      </trkpt>
      <trkpt lat="46.19211" lon="4.50583">
        <ele>681.4</ele>
        <time>2020-10-17T11:48:12Z</time>
      </trkpt>
      <trkpt lat="46.1921" lon="4.50579">
        <ele>681.2</ele>
        <time>2020-10-17T11:48:13Z</time>
      </trkpt>
      <trkpt lat="46.19209" lon="4.50576">
        <ele>681.2</ele>
        <time>2020-10-17T11:48:14Z</time>
      </trkpt>
      <trkpt lat="46.19208" lon="4.50573">
        <ele>681</ele>
        <time>2020-10-17T11:48:15Z</time>
      </trkpt>
      <trkpt lat="46.19208" lon="4.50573">
        <ele>680.8</ele>
        <time>2020-10-17T11:48:16Z</time>
      </trkpt>
      <trkpt lat="46.19207" lon="4.50569">
        <ele>680.8</ele>
        <time>2020-10-17T11:48:17Z</time>
      </trkpt>
      <trkpt lat="46.19207" lon="4.50569">
        <ele>680.4</ele>
        <time>2020-10-17T11:48:18Z</time>
      </trkpt>
      <trkpt lat="46.19206" lon="4.50566">
        <ele>680.2</ele>
        <time>2020-10-17T11:48:19Z</time>
      </trkpt>
      <trkpt lat="46.19206" lon="4.50566">
        <ele>680</ele>
        <time>2020-10-17T11:48:20Z</time>
      </trkpt>
      <trkpt lat="46.19204" lon="4.50562">
        <ele>680</ele>
        <time>2020-10-17T11:48:21Z</time>
      </trkpt>
      <trkpt lat="46.19204" lon="4.50562">
        <ele>679.8</ele>
        <time>2020-10-17T11:48:22Z</time>
      </trkpt>
      <trkpt lat="46.19201" lon="4.50561">
        <ele>679.6</ele>
        <time>2020-10-17T11:48:23Z</time>
      </trkpt>
      <trkpt lat="46.19201" lon="4.50561">
        <ele>679.4</ele>
        <time>2020-10-17T11:48:24Z</time>
      </trkpt>
      <trkpt lat="46.19199" lon="4.50559">
        <ele>679</ele>
        <time>2020-10-17T11:48:25Z</time>
      </trkpt>
      <trkpt lat="46.19199" lon="4.50559">
        <ele>679</ele>
        <time>2020-10-17T11:48:26Z</time>
      </trkpt>
      <trkpt lat="46.19196" lon="4.50557">
        <ele>678.8</ele>
        <time>2020-10-17T11:48:27Z</time>
      </trkpt>
      <trkpt lat="46.19194" lon="4.50556">
        <ele>678.8</ele>
        <time>2020-10-17T11:48:28Z</time>
      </trkpt>
      <trkpt lat="46.19191" lon="4.50554">
        <ele>678.8</ele>
        <time>2020-10-17T11:48:29Z</time>
      </trkpt>
      <trkpt lat="46.19189" lon="4.50553">
        <ele>678.4</ele>
        <time>2020-10-17T11:48:30Z</time>
      </trkpt>
      <trkpt lat="46.19186" lon="4.50552">
        <ele>678</ele>
        <time>2020-10-17T11:48:31Z</time>
      </trkpt>
      <trkpt lat="46.19183" lon="4.50551">
        <ele>678</ele>
        <time>2020-10-17T11:48:32Z</time>
      </trkpt>
      <trkpt lat="46.19181" lon="4.50551">
        <ele>678</ele>
        <time>2020-10-17T11:48:33Z</time>
      </trkpt>
      <trkpt lat="46.19179" lon="4.50551">
        <ele>678</ele>
        <time>2020-10-17T11:48:34Z</time>
      </trkpt>
      <trkpt lat="46.19177" lon="4.5055">
        <ele>677.4</ele>
        <time>2020-10-17T11:48:35Z</time>
      </trkpt>
      <trkpt lat="46.19174" lon="4.50549">
        <ele>677.4</ele>
        <time>2020-10-17T11:48:36Z</time>
      </trkpt>
      <trkpt lat="46.19171" lon="4.50548">
        <ele>677.2</ele>
        <time>2020-10-17T11:48:37Z</time>
      </trkpt>
      <trkpt lat="46.19169" lon="4.50547">
        <ele>677.2</ele>
        <time>2020-10-17T11:48:38Z</time>
      </trkpt>
      <trkpt lat="46.19166" lon="4.50546">
        <ele>677.2</ele>
        <time>2020-10-17T11:48:39Z</time>
      </trkpt>
      <trkpt lat="46.19164" lon="4.50545">
        <ele>676.8</ele>
        <time>2020-10-17T11:48:40Z</time>
      </trkpt>
      <trkpt lat="46.19162" lon="4.50544">
        <ele>676.4</ele>
        <time>2020-10-17T11:48:41Z</time>
      </trkpt>
      <trkpt lat="46.19159" lon="4.50543">
        <ele>676</ele>
        <time>2020-10-17T11:48:42Z</time>
      </trkpt>
      <trkpt lat="46.19157" lon="4.50542">
        <ele>675.4</ele>
        <time>2020-10-17T11:48:43Z</time>
      </trkpt>
      <trkpt lat="46.19155" lon="4.50541">
        <ele>675.2</ele>
        <time>2020-10-17T11:48:44Z</time>
      </trkpt>
      <trkpt lat="46.19152" lon="4.5054">
        <ele>674.8</ele>
        <time>2020-10-17T11:48:45Z</time>
      </trkpt>
      <trkpt lat="46.1915" lon="4.50539">
        <ele>674.4</ele>
        <time>2020-10-17T11:48:46Z</time>
      </trkpt>
      <trkpt lat="46.19148" lon="4.50537">
        <ele>673.8</ele>
        <time>2020-10-17T11:48:47Z</time>
      </trkpt>
      <trkpt lat="46.19145" lon="4.50536">
        <ele>673</ele>
        <time>2020-10-17T11:48:48Z</time>
      </trkpt>
      <trkpt lat="46.19143" lon="4.50534">
        <ele>672.6</ele>
        <time>2020-10-17T11:48:49Z</time>
      </trkpt>
      <trkpt lat="46.19141" lon="4.50532">
        <ele>672</ele>
        <time>2020-10-17T11:48:50Z</time>
      </trkpt>
      <trkpt lat="46.19139" lon="4.50529">
        <ele>671.8</ele>
        <time>2020-10-17T11:48:51Z</time>
      </trkpt>
      <trkpt lat="46.19137" lon="4.50526">
        <ele>671.4</ele>
        <time>2020-10-17T11:48:52Z</time>
      </trkpt>
      <trkpt lat="46.19136" lon="4.50522">
        <ele>671</ele>
        <time>2020-10-17T11:48:53Z</time>
      </trkpt>
      <trkpt lat="46.19136" lon="4.50518">
        <ele>670.6</ele>
        <time>2020-10-17T11:48:54Z</time>
      </trkpt>
      <trkpt lat="46.19135" lon="4.50514">
        <ele>669.8</ele>
        <time>2020-10-17T11:48:55Z</time>
      </trkpt>
      <trkpt lat="46.19135" lon="4.5051">
        <ele>669.4</ele>
        <time>2020-10-17T11:48:56Z</time>
      </trkpt>
      <trkpt lat="46.19136" lon="4.50506">
        <ele>669.2</ele>
        <time>2020-10-17T11:48:57Z</time>
      </trkpt>
      <trkpt lat="46.19137" lon="4.50502">
        <ele>668.6</ele>
        <time>2020-10-17T11:48:58Z</time>
      </trkpt>
      <trkpt lat="46.19138" lon="4.50498">
        <ele>668.2</ele>
        <time>2020-10-17T11:48:59Z</time>
      </trkpt>
      <trkpt lat="46.19138" lon="4.50494">
        <ele>668</ele>
        <time>2020-10-17T11:49:00Z</time>
      </trkpt>
      <trkpt lat="46.1914" lon="4.50492">
        <ele>667.6</ele>
        <time>2020-10-17T11:49:01Z</time>
      </trkpt>
      <trkpt lat="46.1914" lon="4.50489">
        <ele>667</ele>
        <time>2020-10-17T11:49:02Z</time>
      </trkpt>
      <trkpt lat="46.19141" lon="4.50486">
        <ele>667</ele>
        <time>2020-10-17T11:49:03Z</time>
      </trkpt>
      <trkpt lat="46.19141" lon="4.50483">
        <ele>666.4</ele>
        <time>2020-10-17T11:49:04Z</time>
      </trkpt>
      <trkpt lat="46.19142" lon="4.5048">
        <ele>665.8</ele>
        <time>2020-10-17T11:49:05Z</time>
      </trkpt>
      <trkpt lat="46.19142" lon="4.50477">
        <ele>665.8</ele>
        <time>2020-10-17T11:49:06Z</time>
      </trkpt>
      <trkpt lat="46.19142" lon="4.50474">
        <ele>665.2</ele>
        <time>2020-10-17T11:49:07Z</time>
      </trkpt>
      <trkpt lat="46.19143" lon="4.50471">
        <ele>665</ele>
        <time>2020-10-17T11:49:08Z</time>
      </trkpt>
      <trkpt lat="46.19142" lon="4.50467">
        <ele>664.2</ele>
        <time>2020-10-17T11:49:09Z</time>
      </trkpt>
      <trkpt lat="46.19142" lon="4.50463">
        <ele>663.6</ele>
        <time>2020-10-17T11:49:10Z</time>
      </trkpt>
      <trkpt lat="46.19143" lon="4.50459">
        <ele>662.8</ele>
        <time>2020-10-17T11:49:11Z</time>
      </trkpt>
      <trkpt lat="46.19142" lon="4.50455">
        <ele>662.6</ele>
        <time>2020-10-17T11:49:12Z</time>
      </trkpt>
      <trkpt lat="46.19141" lon="4.50451">
        <ele>662.6</ele>
        <time>2020-10-17T11:49:13Z</time>
      </trkpt>
      <trkpt lat="46.19141" lon="4.50448">
        <ele>662</ele>
        <time>2020-10-17T11:49:14Z</time>
      </trkpt>
      <trkpt lat="46.1914" lon="4.50444">
        <ele>661.6</ele>
        <time>2020-10-17T11:49:15Z</time>
      </trkpt>
      <trkpt lat="46.1914" lon="4.5044">
        <ele>660.8</ele>
        <time>2020-10-17T11:49:16Z</time>
      </trkpt>
      <trkpt lat="46.19139" lon="4.50436">
        <ele>660.2</ele>
        <time>2020-10-17T11:49:17Z</time>
      </trkpt>
      <trkpt lat="46.19139" lon="4.50432">
        <ele>659.6</ele>
        <time>2020-10-17T11:49:18Z</time>
      </trkpt>
      <trkpt lat="46.19139" lon="4.50428">
        <ele>659</ele>
        <time>2020-10-17T11:49:19Z</time>
      </trkpt>
      <trkpt lat="46.19139" lon="4.50424">
        <ele>658.4</ele>
        <time>2020-10-17T11:49:20Z</time>
      </trkpt>
      <trkpt lat="46.19141" lon="4.50421">
        <ele>657.6</ele>
        <time>2020-10-17T11:49:21Z</time>
      </trkpt>
      <trkpt lat="46.19142" lon="4.50418">
        <ele>657.4</ele>
        <time>2020-10-17T11:49:22Z</time>
      </trkpt>
      <trkpt lat="46.19144" lon="4.50415">
        <ele>656.8</ele>
        <time>2020-10-17T11:49:23Z</time>
      </trkpt>
      <trkpt lat="46.19146" lon="4.50412">
        <ele>656.2</ele>
        <time>2020-10-17T11:49:24Z</time>
      </trkpt>
      <trkpt lat="46.19148" lon="4.5041">
        <ele>656</ele>
        <time>2020-10-17T11:49:25Z</time>
      </trkpt>
      <trkpt lat="46.1915" lon="4.50407">
        <ele>655.4</ele>
        <time>2020-10-17T11:49:26Z</time>
      </trkpt>
      <trkpt lat="46.19152" lon="4.50404">
        <ele>655</ele>
        <time>2020-10-17T11:49:27Z</time>
      </trkpt>
      <trkpt lat="46.19153" lon="4.50401">
        <ele>655</ele>
        <time>2020-10-17T11:49:28Z</time>
      </trkpt>
      <trkpt lat="46.19155" lon="4.50397">
        <ele>654.6</ele>
        <time>2020-10-17T11:49:29Z</time>
      </trkpt>
      <trkpt lat="46.19156" lon="4.50394">
        <ele>654.4</ele>
        <time>2020-10-17T11:49:30Z</time>
      </trkpt>
      <trkpt lat="46.19157" lon="4.50391">
        <ele>654</ele>
        <time>2020-10-17T11:49:31Z</time>
      </trkpt>
      <trkpt lat="46.19159" lon="4.50388">
        <ele>653.8</ele>
        <time>2020-10-17T11:49:32Z</time>
      </trkpt>
      <trkpt lat="46.1916" lon="4.50385">
        <ele>653.4</ele>
        <time>2020-10-17T11:49:33Z</time>
      </trkpt>
      <trkpt lat="46.19161" lon="4.50382">
        <ele>653.2</ele>
        <time>2020-10-17T11:49:34Z</time>
      </trkpt>
      <trkpt lat="46.19163" lon="4.50379">
        <ele>653.6</ele>
        <time>2020-10-17T11:49:35Z</time>
      </trkpt>
      <trkpt lat="46.19164" lon="4.50376">
        <ele>653</ele>
        <time>2020-10-17T11:49:36Z</time>
      </trkpt>
      <trkpt lat="46.19166" lon="4.50373">
        <ele>652.8</ele>
        <time>2020-10-17T11:49:37Z</time>
      </trkpt>
      <trkpt lat="46.19167" lon="4.50369">
        <ele>652.8</ele>
        <time>2020-10-17T11:49:38Z</time>
      </trkpt>
      <trkpt lat="46.19169" lon="4.50366">
        <ele>652.4</ele>
        <time>2020-10-17T11:49:39Z</time>
      </trkpt>
      <trkpt lat="46.19171" lon="4.50362">
        <ele>652</ele>
        <time>2020-10-17T11:49:40Z</time>
      </trkpt>
      <trkpt lat="46.19172" lon="4.50359">
        <ele>652.2</ele>
        <time>2020-10-17T11:49:41Z</time>
      </trkpt>
      <trkpt lat="46.19173" lon="4.50356">
        <ele>651.8</ele>
        <time>2020-10-17T11:49:42Z</time>
      </trkpt>
      <trkpt lat="46.19174" lon="4.50353">
        <ele>651.4</ele>
        <time>2020-10-17T11:49:43Z</time>
      </trkpt>
      <trkpt lat="46.19175" lon="4.5035">
        <ele>651.4</ele>
        <time>2020-10-17T11:49:44Z</time>
      </trkpt>
      <trkpt lat="46.19175" lon="4.50347">
        <ele>651</ele>
        <time>2020-10-17T11:49:45Z</time>
      </trkpt>
      <trkpt lat="46.19176" lon="4.50344">
        <ele>650.8</ele>
        <time>2020-10-17T11:49:46Z</time>
      </trkpt>
      <trkpt lat="46.19176" lon="4.50341">
        <ele>650.6</ele>
        <time>2020-10-17T11:49:47Z</time>
      </trkpt>
      <trkpt lat="46.19176" lon="4.50341">
        <ele>650.2</ele>
        <time>2020-10-17T11:49:48Z</time>
      </trkpt>
      <trkpt lat="46.19173" lon="4.50336">
        <ele>649.8</ele>
        <time>2020-10-17T11:49:49Z</time>
      </trkpt>
      <trkpt lat="46.19171" lon="4.50333">
        <ele>649.8</ele>
        <time>2020-10-17T11:49:50Z</time>
      </trkpt>
      <trkpt lat="46.19169" lon="4.50332">
        <ele>649.8</ele>
        <time>2020-10-17T11:49:51Z</time>
      </trkpt>
      <trkpt lat="46.19167" lon="4.5033">
        <ele>649.6</ele>
        <time>2020-10-17T11:49:52Z</time>
      </trkpt>
      <trkpt lat="46.19165" lon="4.50329">
        <ele>649.2</ele>
        <time>2020-10-17T11:49:53Z</time>
      </trkpt>
      <trkpt lat="46.19163" lon="4.50328">
        <ele>649.4</ele>
        <time>2020-10-17T11:49:54Z</time>
      </trkpt>
      <trkpt lat="46.19161" lon="4.50327">
        <ele>649.2</ele>
        <time>2020-10-17T11:49:55Z</time>
      </trkpt>
      <trkpt lat="46.19159" lon="4.50326">
        <ele>648.8</ele>
        <time>2020-10-17T11:49:56Z</time>
      </trkpt>
      <trkpt lat="46.19157" lon="4.50326">
        <ele>648.8</ele>
        <time>2020-10-17T11:49:57Z</time>
      </trkpt>
      <trkpt lat="46.19155" lon="4.50326">
        <ele>648.4</ele>
        <time>2020-10-17T11:49:58Z</time>
      </trkpt>
      <trkpt lat="46.19152" lon="4.50326">
        <ele>648.4</ele>
        <time>2020-10-17T11:49:59Z</time>
      </trkpt>
      <trkpt lat="46.19149" lon="4.50326">
        <ele>648.4</ele>
        <time>2020-10-17T11:50:00Z</time>
      </trkpt>
      <trkpt lat="46.19147" lon="4.50326">
        <ele>648.2</ele>
        <time>2020-10-17T11:50:01Z</time>
      </trkpt>
      <trkpt lat="46.19144" lon="4.50326">
        <ele>647.6</ele>
        <time>2020-10-17T11:50:02Z</time>
      </trkpt>
      <trkpt lat="46.19141" lon="4.50326">
        <ele>647.4</ele>
        <time>2020-10-17T11:50:03Z</time>
      </trkpt>
      <trkpt lat="46.19138" lon="4.50326">
        <ele>647.4</ele>
        <time>2020-10-17T11:50:04Z</time>
      </trkpt>
      <trkpt lat="46.19136" lon="4.50326">
        <ele>647</ele>
        <time>2020-10-17T11:50:05Z</time>
      </trkpt>
      <trkpt lat="46.19133" lon="4.50326">
        <ele>646.6</ele>
        <time>2020-10-17T11:50:06Z</time>
      </trkpt>
      <trkpt lat="46.1913" lon="4.50326">
        <ele>646.8</ele>
        <time>2020-10-17T11:50:07Z</time>
      </trkpt>
      <trkpt lat="46.19128" lon="4.50326">
        <ele>646.4</ele>
        <time>2020-10-17T11:50:08Z</time>
      </trkpt>
      <trkpt lat="46.19126" lon="4.50326">
        <ele>645.8</ele>
        <time>2020-10-17T11:50:09Z</time>
      </trkpt>
      <trkpt lat="46.19123" lon="4.50326">
        <ele>645.8</ele>
        <time>2020-10-17T11:50:10Z</time>
      </trkpt>
      <trkpt lat="46.19121" lon="4.50326">
        <ele>645.4</ele>
        <time>2020-10-17T11:50:11Z</time>
      </trkpt>
      <trkpt lat="46.19118" lon="4.50325">
        <ele>645</ele>
        <time>2020-10-17T11:50:12Z</time>
      </trkpt>
      <trkpt lat="46.19116" lon="4.50325">
        <ele>645.2</ele>
        <time>2020-10-17T11:50:13Z</time>
      </trkpt>
      <trkpt lat="46.19114" lon="4.50325">
        <ele>644.8</ele>
        <time>2020-10-17T11:50:14Z</time>
      </trkpt>
      <trkpt lat="46.19111" lon="4.50325">
        <ele>644.4</ele>
        <time>2020-10-17T11:50:15Z</time>
      </trkpt>
      <trkpt lat="46.19109" lon="4.50325">
        <ele>644</ele>
        <time>2020-10-17T11:50:16Z</time>
      </trkpt>
      <trkpt lat="46.19106" lon="4.50325">
        <ele>643.8</ele>
        <time>2020-10-17T11:50:17Z</time>
      </trkpt>
      <trkpt lat="46.19104" lon="4.50326">
        <ele>643.4</ele>
        <time>2020-10-17T11:50:18Z</time>
      </trkpt>
      <trkpt lat="46.19101" lon="4.50326">
        <ele>643.4</ele>
        <time>2020-10-17T11:50:19Z</time>
      </trkpt>
      <trkpt lat="46.19099" lon="4.50326">
        <ele>643</ele>
        <time>2020-10-17T11:50:20Z</time>
      </trkpt>
      <trkpt lat="46.19097" lon="4.50327">
        <ele>642.8</ele>
        <time>2020-10-17T11:50:21Z</time>
      </trkpt>
      <trkpt lat="46.19094" lon="4.50327">
        <ele>642.4</ele>
        <time>2020-10-17T11:50:22Z</time>
      </trkpt>
      <trkpt lat="46.19092" lon="4.50327">
        <ele>642.2</ele>
        <time>2020-10-17T11:50:23Z</time>
      </trkpt>
      <trkpt lat="46.19089" lon="4.50327">
        <ele>642</ele>
        <time>2020-10-17T11:50:24Z</time>
      </trkpt>
      <trkpt lat="46.19087" lon="4.50327">
        <ele>641.4</ele>
        <time>2020-10-17T11:50:25Z</time>
      </trkpt>
      <trkpt lat="46.19085" lon="4.50327">
        <ele>641.6</ele>
        <time>2020-10-17T11:50:26Z</time>
      </trkpt>
      <trkpt lat="46.19082" lon="4.50327">
        <ele>641.2</ele>
        <time>2020-10-17T11:50:27Z</time>
      </trkpt>
      <trkpt lat="46.1908" lon="4.50328">
        <ele>641</ele>
        <time>2020-10-17T11:50:28Z</time>
      </trkpt>
      <trkpt lat="46.19077" lon="4.50328">
        <ele>641</ele>
        <time>2020-10-17T11:50:29Z</time>
      </trkpt>
      <trkpt lat="46.19075" lon="4.50328">
        <ele>640.8</ele>
        <time>2020-10-17T11:50:30Z</time>
      </trkpt>
      <trkpt lat="46.19072" lon="4.50328">
        <ele>640.4</ele>
        <time>2020-10-17T11:50:31Z</time>
      </trkpt>
      <trkpt lat="46.1907" lon="4.50327">
        <ele>640.2</ele>
        <time>2020-10-17T11:50:32Z</time>
      </trkpt>
      <trkpt lat="46.19067" lon="4.50328">
        <ele>640.4</ele>
        <time>2020-10-17T11:50:33Z</time>
      </trkpt>
      <trkpt lat="46.19065" lon="4.50328">
        <ele>640.2</ele>
        <time>2020-10-17T11:50:34Z</time>
      </trkpt>
      <trkpt lat="46.19062" lon="4.50328">
        <ele>639.8</ele>
        <time>2020-10-17T11:50:35Z</time>
      </trkpt>
      <trkpt lat="46.1906" lon="4.50328">
        <ele>639.6</ele>
        <time>2020-10-17T11:50:36Z</time>
      </trkpt>
      <trkpt lat="46.19058" lon="4.50327">
        <ele>639.4</ele>
        <time>2020-10-17T11:50:37Z</time>
      </trkpt>
      <trkpt lat="46.19056" lon="4.50327">
        <ele>639</ele>
        <time>2020-10-17T11:50:38Z</time>
      </trkpt>
      <trkpt lat="46.19054" lon="4.50327">
        <ele>639</ele>
        <time>2020-10-17T11:50:39Z</time>
      </trkpt>
      <trkpt lat="46.19051" lon="4.50328">
        <ele>638.6</ele>
        <time>2020-10-17T11:50:40Z</time>
      </trkpt>
      <trkpt lat="46.19049" lon="4.50327">
        <ele>638.4</ele>
        <time>2020-10-17T11:50:41Z</time>
      </trkpt>
      <trkpt lat="46.19047" lon="4.50327">
        <ele>638.2</ele>
        <time>2020-10-17T11:50:42Z</time>
      </trkpt>
      <trkpt lat="46.19045" lon="4.50327">
        <ele>637.8</ele>
        <time>2020-10-17T11:50:43Z</time>
      </trkpt>
      <trkpt lat="46.19042" lon="4.50327">
        <ele>637.6</ele>
        <time>2020-10-17T11:50:44Z</time>
      </trkpt>
      <trkpt lat="46.1904" lon="4.50327">
        <ele>637.4</ele>
        <time>2020-10-17T11:50:45Z</time>
      </trkpt>
      <trkpt lat="46.19038" lon="4.50327">
        <ele>637.4</ele>
        <time>2020-10-17T11:50:46Z</time>
      </trkpt>
      <trkpt lat="46.19036" lon="4.50327">
        <ele>637</ele>
        <time>2020-10-17T11:50:47Z</time>
      </trkpt>
      <trkpt lat="46.19034" lon="4.50327">
        <ele>636.4</ele>
        <time>2020-10-17T11:50:48Z</time>
      </trkpt>
      <trkpt lat="46.19034" lon="4.50327">
        <ele>636.6</ele>
        <time>2020-10-17T11:50:49Z</time>
      </trkpt>
      <trkpt lat="46.1903" lon="4.50327">
        <ele>636.2</ele>
        <time>2020-10-17T11:50:50Z</time>
      </trkpt>
      <trkpt lat="46.19028" lon="4.50328">
        <ele>635.8</ele>
        <time>2020-10-17T11:50:51Z</time>
      </trkpt>
      <trkpt lat="46.19026" lon="4.50329">
        <ele>635.8</ele>
        <time>2020-10-17T11:50:52Z</time>
      </trkpt>
      <trkpt lat="46.19023" lon="4.5033">
        <ele>635.4</ele>
        <time>2020-10-17T11:50:53Z</time>
      </trkpt>
      <trkpt lat="46.19021" lon="4.50332">
        <ele>635.2</ele>
        <time>2020-10-17T11:50:54Z</time>
      </trkpt>
      <trkpt lat="46.19019" lon="4.50334">
        <ele>635</ele>
        <time>2020-10-17T11:50:55Z</time>
      </trkpt>
      <trkpt lat="46.19017" lon="4.50335">
        <ele>635</ele>
        <time>2020-10-17T11:50:56Z</time>
      </trkpt>
      <trkpt lat="46.19015" lon="4.50337">
        <ele>634.8</ele>
        <time>2020-10-17T11:50:57Z</time>
      </trkpt>
      <trkpt lat="46.19013" lon="4.50339">
        <ele>634.6</ele>
        <time>2020-10-17T11:50:58Z</time>
      </trkpt>
      <trkpt lat="46.19011" lon="4.50341">
        <ele>634.6</ele>
        <time>2020-10-17T11:50:59Z</time>
      </trkpt>
      <trkpt lat="46.19009" lon="4.50343">
        <ele>634.2</ele>
        <time>2020-10-17T11:51:00Z</time>
      </trkpt>
      <trkpt lat="46.19007" lon="4.50345">
        <ele>633.8</ele>
        <time>2020-10-17T11:51:01Z</time>
      </trkpt>
      <trkpt lat="46.19005" lon="4.50346">
        <ele>633.6</ele>
        <time>2020-10-17T11:51:02Z</time>
      </trkpt>
      <trkpt lat="46.19003" lon="4.50348">
        <ele>633.6</ele>
        <time>2020-10-17T11:51:03Z</time>
      </trkpt>
      <trkpt lat="46.19" lon="4.5035">
        <ele>633.2</ele>
        <time>2020-10-17T11:51:04Z</time>
      </trkpt>
      <trkpt lat="46.18998" lon="4.50352">
        <ele>632.8</ele>
        <time>2020-10-17T11:51:05Z</time>
      </trkpt>
      <trkpt lat="46.18995" lon="4.50353">
        <ele>632.6</ele>
        <time>2020-10-17T11:51:06Z</time>
      </trkpt>
      <trkpt lat="46.18993" lon="4.50355">
        <ele>632.2</ele>
        <time>2020-10-17T11:51:07Z</time>
      </trkpt>
      <trkpt lat="46.18991" lon="4.50357">
        <ele>631.8</ele>
        <time>2020-10-17T11:51:08Z</time>
      </trkpt>
      <trkpt lat="46.18989" lon="4.50359">
        <ele>631.8</ele>
        <time>2020-10-17T11:51:09Z</time>
      </trkpt>
      <trkpt lat="46.18987" lon="4.5036">
        <ele>631.4</ele>
        <time>2020-10-17T11:51:10Z</time>
      </trkpt>
      <trkpt lat="46.18984" lon="4.50362">
        <ele>631</ele>
        <time>2020-10-17T11:51:11Z</time>
      </trkpt>
      <trkpt lat="46.18982" lon="4.50364">
        <ele>630.8</ele>
        <time>2020-10-17T11:51:12Z</time>
      </trkpt>
      <trkpt lat="46.1898" lon="4.50366">
        <ele>630.6</ele>
        <time>2020-10-17T11:51:13Z</time>
      </trkpt>
      <trkpt lat="46.18978" lon="4.50368">
        <ele>630.6</ele>
        <time>2020-10-17T11:51:14Z</time>
      </trkpt>
      <trkpt lat="46.18976" lon="4.5037">
        <ele>630</ele>
        <time>2020-10-17T11:51:15Z</time>
      </trkpt>
      <trkpt lat="46.18974" lon="4.50372">
        <ele>629.8</ele>
        <time>2020-10-17T11:51:16Z</time>
      </trkpt>
      <trkpt lat="46.18972" lon="4.50375">
        <ele>629.2</ele>
        <time>2020-10-17T11:51:17Z</time>
      </trkpt>
      <trkpt lat="46.18969" lon="4.50377">
        <ele>628.8</ele>
        <time>2020-10-17T11:51:18Z</time>
      </trkpt>
      <trkpt lat="46.18967" lon="4.50379">
        <ele>628.8</ele>
        <time>2020-10-17T11:51:19Z</time>
      </trkpt>
      <trkpt lat="46.18965" lon="4.50381">
        <ele>628.8</ele>
        <time>2020-10-17T11:51:20Z</time>
      </trkpt>
      <trkpt lat="46.18963" lon="4.50383">
        <ele>628.4</ele>
        <time>2020-10-17T11:51:21Z</time>
      </trkpt>
      <trkpt lat="46.18961" lon="4.50385">
        <ele>628.2</ele>
        <time>2020-10-17T11:51:22Z</time>
      </trkpt>
      <trkpt lat="46.18959" lon="4.50387">
        <ele>628.2</ele>
        <time>2020-10-17T11:51:23Z</time>
      </trkpt>
      <trkpt lat="46.18957" lon="4.50389">
        <ele>627.6</ele>
        <time>2020-10-17T11:51:24Z</time>
      </trkpt>
      <trkpt lat="46.18955" lon="4.50391">
        <ele>627.2</ele>
        <time>2020-10-17T11:51:25Z</time>
      </trkpt>
      <trkpt lat="46.18953" lon="4.50392">
        <ele>627.2</ele>
        <time>2020-10-17T11:51:26Z</time>
      </trkpt>
      <trkpt lat="46.18951" lon="4.50394">
        <ele>626.8</ele>
        <time>2020-10-17T11:51:27Z</time>
      </trkpt>
      <trkpt lat="46.18949" lon="4.50396">
        <ele>626.4</ele>
        <time>2020-10-17T11:51:28Z</time>
      </trkpt>
      <trkpt lat="46.18947" lon="4.50397">
        <ele>626.2</ele>
        <time>2020-10-17T11:51:29Z</time>
      </trkpt>
      <trkpt lat="46.18945" lon="4.50399">
        <ele>625.8</ele>
        <time>2020-10-17T11:51:30Z</time>
      </trkpt>
      <trkpt lat="46.18943" lon="4.50401">
        <ele>625.6</ele>
        <time>2020-10-17T11:51:31Z</time>
      </trkpt>
      <trkpt lat="46.18941" lon="4.50402">
        <ele>625.2</ele>
        <time>2020-10-17T11:51:32Z</time>
      </trkpt>
      <trkpt lat="46.18939" lon="4.50404">
        <ele>625.2</ele>
        <time>2020-10-17T11:51:33Z</time>
      </trkpt>
      <trkpt lat="46.18937" lon="4.50406">
        <ele>625</ele>
        <time>2020-10-17T11:51:34Z</time>
      </trkpt>
      <trkpt lat="46.18935" lon="4.50408">
        <ele>624.8</ele>
        <time>2020-10-17T11:51:35Z</time>
      </trkpt>
      <trkpt lat="46.18933" lon="4.50409">
        <ele>624.4</ele>
        <time>2020-10-17T11:51:36Z</time>
      </trkpt>
      <trkpt lat="46.18931" lon="4.5041">
        <ele>624.2</ele>
        <time>2020-10-17T11:51:37Z</time>
      </trkpt>
      <trkpt lat="46.18929" lon="4.50412">
        <ele>624</ele>
        <time>2020-10-17T11:51:38Z</time>
      </trkpt>
      <trkpt lat="46.18927" lon="4.50413">
        <ele>623.6</ele>
        <time>2020-10-17T11:51:39Z</time>
      </trkpt>
      <trkpt lat="46.18925" lon="4.50414">
        <ele>623.4</ele>
        <time>2020-10-17T11:51:40Z</time>
      </trkpt>
      <trkpt lat="46.18923" lon="4.50416">
        <ele>623</ele>
        <time>2020-10-17T11:51:41Z</time>
      </trkpt>
      <trkpt lat="46.1892" lon="4.50417">
        <ele>622.6</ele>
        <time>2020-10-17T11:51:42Z</time>
      </trkpt>
      <trkpt lat="46.18918" lon="4.50418">
        <ele>622.6</ele>
        <time>2020-10-17T11:51:43Z</time>
      </trkpt>
      <trkpt lat="46.18916" lon="4.50419">
        <ele>622.2</ele>
        <time>2020-10-17T11:51:44Z</time>
      </trkpt>
      <trkpt lat="46.18914" lon="4.5042">
        <ele>621.8</ele>
        <time>2020-10-17T11:51:45Z</time>
      </trkpt>
      <trkpt lat="46.18912" lon="4.50421">
        <ele>621.6</ele>
        <time>2020-10-17T11:51:46Z</time>
      </trkpt>
      <trkpt lat="46.18909" lon="4.50423">
        <ele>621.6</ele>
        <time>2020-10-17T11:51:47Z</time>
      </trkpt>
      <trkpt lat="46.18907" lon="4.50424">
        <ele>621.2</ele>
        <time>2020-10-17T11:51:48Z</time>
      </trkpt>
      <trkpt lat="46.18905" lon="4.50426">
        <ele>620.8</ele>
        <time>2020-10-17T11:51:49Z</time>
      </trkpt>
      <trkpt lat="46.18903" lon="4.50427">
        <ele>620.6</ele>
        <time>2020-10-17T11:51:50Z</time>
      </trkpt>
      <trkpt lat="46.18901" lon="4.50429">
        <ele>620.4</ele>
        <time>2020-10-17T11:51:51Z</time>
      </trkpt>
      <trkpt lat="46.18899" lon="4.5043">
        <ele>620.2</ele>
        <time>2020-10-17T11:51:52Z</time>
      </trkpt>
      <trkpt lat="46.18896" lon="4.50432">
        <ele>620</ele>
        <time>2020-10-17T11:51:53Z</time>
      </trkpt>
      <trkpt lat="46.18894" lon="4.50433">
        <ele>619.8</ele>
        <time>2020-10-17T11:51:54Z</time>
      </trkpt>
      <trkpt lat="46.18892" lon="4.50435">
        <ele>619.6</ele>
        <time>2020-10-17T11:51:55Z</time>
      </trkpt>
      <trkpt lat="46.1889" lon="4.50438">
        <ele>619</ele>
        <time>2020-10-17T11:51:56Z</time>
      </trkpt>
      <trkpt lat="46.18888" lon="4.5044">
        <ele>619</ele>
        <time>2020-10-17T11:51:57Z</time>
      </trkpt>
      <trkpt lat="46.18886" lon="4.50442">
        <ele>618.6</ele>
        <time>2020-10-17T11:51:58Z</time>
      </trkpt>
      <trkpt lat="46.18884" lon="4.50444">
        <ele>618.4</ele>
        <time>2020-10-17T11:51:59Z</time>
      </trkpt>
      <trkpt lat="46.18883" lon="4.50446">
        <ele>618</ele>
        <time>2020-10-17T11:52:00Z</time>
      </trkpt>
      <trkpt lat="46.18881" lon="4.50448">
        <ele>618</ele>
        <time>2020-10-17T11:52:01Z</time>
      </trkpt>
      <trkpt lat="46.18879" lon="4.50451">
        <ele>617.8</ele>
        <time>2020-10-17T11:52:02Z</time>
      </trkpt>
      <trkpt lat="46.18877" lon="4.50453">
        <ele>617.4</ele>
        <time>2020-10-17T11:52:03Z</time>
      </trkpt>
      <trkpt lat="46.18875" lon="4.50455">
        <ele>617.4</ele>
        <time>2020-10-17T11:52:04Z</time>
      </trkpt>
      <trkpt lat="46.18874" lon="4.50457">
        <ele>617</ele>
        <time>2020-10-17T11:52:05Z</time>
      </trkpt>
      <trkpt lat="46.18872" lon="4.50459">
        <ele>616.8</ele>
        <time>2020-10-17T11:52:06Z</time>
      </trkpt>
      <trkpt lat="46.1887" lon="4.50462">
        <ele>616.6</ele>
        <time>2020-10-17T11:52:07Z</time>
      </trkpt>
      <trkpt lat="46.18868" lon="4.50464">
        <ele>616.4</ele>
        <time>2020-10-17T11:52:08Z</time>
      </trkpt>
      <trkpt lat="46.18866" lon="4.50465">
        <ele>616</ele>
        <time>2020-10-17T11:52:09Z</time>
      </trkpt>
      <trkpt lat="46.18864" lon="4.50467">
        <ele>616</ele>
        <time>2020-10-17T11:52:10Z</time>
      </trkpt>
      <trkpt lat="46.18862" lon="4.50469">
        <ele>616</ele>
        <time>2020-10-17T11:52:11Z</time>
      </trkpt>
      <trkpt lat="46.1886" lon="4.50471">
        <ele>615.8</ele>
        <time>2020-10-17T11:52:12Z</time>
      </trkpt>
      <trkpt lat="46.18858" lon="4.50473">
        <ele>615.2</ele>
        <time>2020-10-17T11:52:13Z</time>
      </trkpt>
      <trkpt lat="46.18856" lon="4.50476">
        <ele>615.2</ele>
        <time>2020-10-17T11:52:14Z</time>
      </trkpt>
      <trkpt lat="46.18854" lon="4.50478">
        <ele>615</ele>
        <time>2020-10-17T11:52:15Z</time>
      </trkpt>
      <trkpt lat="46.18853" lon="4.5048">
        <ele>614.6</ele>
        <time>2020-10-17T11:52:16Z</time>
      </trkpt>
      <trkpt lat="46.18851" lon="4.50482">
        <ele>614.8</ele>
        <time>2020-10-17T11:52:17Z</time>
      </trkpt>
      <trkpt lat="46.1885" lon="4.50485">
        <ele>614.8</ele>
        <time>2020-10-17T11:52:18Z</time>
      </trkpt>
      <trkpt lat="46.18847" lon="4.50487">
        <ele>614.8</ele>
        <time>2020-10-17T11:52:19Z</time>
      </trkpt>
      <trkpt lat="46.18845" lon="4.5049">
        <ele>614.4</ele>
        <time>2020-10-17T11:52:20Z</time>
      </trkpt>
      <trkpt lat="46.18843" lon="4.50492">
        <ele>614.6</ele>
        <time>2020-10-17T11:52:21Z</time>
      </trkpt>
      <trkpt lat="46.18842" lon="4.50494">
        <ele>614.4</ele>
        <time>2020-10-17T11:52:22Z</time>
      </trkpt>
      <trkpt lat="46.1884" lon="4.50496">
        <ele>614</ele>
        <time>2020-10-17T11:52:23Z</time>
      </trkpt>
      <trkpt lat="46.18838" lon="4.50499">
        <ele>614</ele>
        <time>2020-10-17T11:52:24Z</time>
      </trkpt>
      <trkpt lat="46.18836" lon="4.50501">
        <ele>614</ele>
        <time>2020-10-17T11:52:25Z</time>
      </trkpt>
      <trkpt lat="46.18834" lon="4.50504">
        <ele>613.8</ele>
        <time>2020-10-17T11:52:26Z</time>
      </trkpt>
      <trkpt lat="46.18832" lon="4.50506">
        <ele>613.4</ele>
        <time>2020-10-17T11:52:27Z</time>
      </trkpt>
      <trkpt lat="46.1883" lon="4.50508">
        <ele>613.4</ele>
        <time>2020-10-17T11:52:28Z</time>
      </trkpt>
      <trkpt lat="46.18829" lon="4.50511">
        <ele>613.4</ele>
        <time>2020-10-17T11:52:29Z</time>
      </trkpt>
      <trkpt lat="46.18827" lon="4.50513">
        <ele>612.8</ele>
        <time>2020-10-17T11:52:30Z</time>
      </trkpt>
      <trkpt lat="46.18825" lon="4.50516">
        <ele>613</ele>
        <time>2020-10-17T11:52:31Z</time>
      </trkpt>
      <trkpt lat="46.18824" lon="4.50518">
        <ele>612.8</ele>
        <time>2020-10-17T11:52:32Z</time>
      </trkpt>
      <trkpt lat="46.18823" lon="4.50521">
        <ele>612.4</ele>
        <time>2020-10-17T11:52:33Z</time>
      </trkpt>
      <trkpt lat="46.18822" lon="4.50523">
        <ele>612.4</ele>
        <time>2020-10-17T11:52:34Z</time>
      </trkpt>
      <trkpt lat="46.18821" lon="4.50526">
        <ele>612.4</ele>
        <time>2020-10-17T11:52:35Z</time>
      </trkpt>
      <trkpt lat="46.1882" lon="4.50529">
        <ele>612.2</ele>
        <time>2020-10-17T11:52:36Z</time>
      </trkpt>
      <trkpt lat="46.18819" lon="4.50531">
        <ele>611.8</ele>
        <time>2020-10-17T11:52:37Z</time>
      </trkpt>
      <trkpt lat="46.18818" lon="4.50534">
        <ele>612</ele>
        <time>2020-10-17T11:52:38Z</time>
      </trkpt>
      <trkpt lat="46.18817" lon="4.50537">
        <ele>612</ele>
        <time>2020-10-17T11:52:39Z</time>
      </trkpt>
      <trkpt lat="46.18816" lon="4.5054">
        <ele>611.6</ele>
        <time>2020-10-17T11:52:40Z</time>
      </trkpt>
      <trkpt lat="46.18815" lon="4.50543">
        <ele>611.8</ele>
        <time>2020-10-17T11:52:41Z</time>
      </trkpt>
      <trkpt lat="46.18813" lon="4.50546">
        <ele>611.6</ele>
        <time>2020-10-17T11:52:42Z</time>
      </trkpt>
      <trkpt lat="46.18812" lon="4.50549">
        <ele>611.4</ele>
        <time>2020-10-17T11:52:43Z</time>
      </trkpt>
      <trkpt lat="46.1881" lon="4.50552">
        <ele>611</ele>
        <time>2020-10-17T11:52:44Z</time>
      </trkpt>
      <trkpt lat="46.18809" lon="4.50556">
        <ele>611.4</ele>
        <time>2020-10-17T11:52:45Z</time>
      </trkpt>
      <trkpt lat="46.18808" lon="4.50559">
        <ele>611.2</ele>
        <time>2020-10-17T11:52:46Z</time>
      </trkpt>
      <trkpt lat="46.18806" lon="4.50562">
        <ele>611</ele>
        <time>2020-10-17T11:52:47Z</time>
      </trkpt>
      <trkpt lat="46.18804" lon="4.50565">
        <ele>611</ele>
        <time>2020-10-17T11:52:48Z</time>
      </trkpt>
      <trkpt lat="46.18803" lon="4.50568">
        <ele>611.2</ele>
        <time>2020-10-17T11:52:49Z</time>
      </trkpt>
      <trkpt lat="46.18803" lon="4.50571">
        <ele>611</ele>
        <time>2020-10-17T11:52:50Z</time>
      </trkpt>
      <trkpt lat="46.18801" lon="4.50574">
        <ele>610.4</ele>
        <time>2020-10-17T11:52:51Z</time>
      </trkpt>
      <trkpt lat="46.188" lon="4.50577">
        <ele>610.6</ele>
        <time>2020-10-17T11:52:52Z</time>
      </trkpt>
      <trkpt lat="46.18799" lon="4.5058">
        <ele>610.4</ele>
        <time>2020-10-17T11:52:53Z</time>
      </trkpt>
      <trkpt lat="46.18798" lon="4.50583">
        <ele>610.2</ele>
        <time>2020-10-17T11:52:54Z</time>
      </trkpt>
      <trkpt lat="46.18797" lon="4.50586">
        <ele>610</ele>
        <time>2020-10-17T11:52:55Z</time>
      </trkpt>
      <trkpt lat="46.18796" lon="4.50589">
        <ele>610.4</ele>
        <time>2020-10-17T11:52:56Z</time>
      </trkpt>
      <trkpt lat="46.18795" lon="4.50592">
        <ele>610.2</ele>
        <time>2020-10-17T11:52:57Z</time>
      </trkpt>
      <trkpt lat="46.18794" lon="4.50595">
        <ele>609.6</ele>
        <time>2020-10-17T11:52:58Z</time>
      </trkpt>
      <trkpt lat="46.18793" lon="4.50599">
        <ele>610</ele>
        <time>2020-10-17T11:52:59Z</time>
      </trkpt>
      <trkpt lat="46.18791" lon="4.50602">
        <ele>609.8</ele>
        <time>2020-10-17T11:53:00Z</time>
      </trkpt>
      <trkpt lat="46.1879" lon="4.50605">
        <ele>609.6</ele>
        <time>2020-10-17T11:53:01Z</time>
      </trkpt>
      <trkpt lat="46.18789" lon="4.50609">
        <ele>609.6</ele>
        <time>2020-10-17T11:53:02Z</time>
      </trkpt>
      <trkpt lat="46.18788" lon="4.50612">
        <ele>609.6</ele>
        <time>2020-10-17T11:53:03Z</time>
      </trkpt>
      <trkpt lat="46.18787" lon="4.50615">
        <ele>609.4</ele>
        <time>2020-10-17T11:53:04Z</time>
      </trkpt>
      <trkpt lat="46.18786" lon="4.50619">
        <ele>609.4</ele>
        <time>2020-10-17T11:53:05Z</time>
      </trkpt>
      <trkpt lat="46.18785" lon="4.50622">
        <ele>609.6</ele>
        <time>2020-10-17T11:53:06Z</time>
      </trkpt>
      <trkpt lat="46.18785" lon="4.50626">
        <ele>609.2</ele>
        <time>2020-10-17T11:53:07Z</time>
      </trkpt>
      <trkpt lat="46.18784" lon="4.50629">
        <ele>609.2</ele>
        <time>2020-10-17T11:53:08Z</time>
      </trkpt>
      <trkpt lat="46.18784" lon="4.50633">
        <ele>609.4</ele>
        <time>2020-10-17T11:53:09Z</time>
      </trkpt>
      <trkpt lat="46.18783" lon="4.50636">
        <ele>609.2</ele>
        <time>2020-10-17T11:53:10Z</time>
      </trkpt>
      <trkpt lat="46.18783" lon="4.5064">
        <ele>608.8</ele>
        <time>2020-10-17T11:53:11Z</time>
      </trkpt>
      <trkpt lat="46.18782" lon="4.50644">
        <ele>608.8</ele>
        <time>2020-10-17T11:53:12Z</time>
      </trkpt>
      <trkpt lat="46.18781" lon="4.50647">
        <ele>609</ele>
        <time>2020-10-17T11:53:13Z</time>
      </trkpt>
      <trkpt lat="46.18781" lon="4.5065">
        <ele>608.8</ele>
        <time>2020-10-17T11:53:14Z</time>
      </trkpt>
      <trkpt lat="46.1878" lon="4.50654">
        <ele>608.6</ele>
        <time>2020-10-17T11:53:15Z</time>
      </trkpt>
      <trkpt lat="46.18779" lon="4.50657">
        <ele>609</ele>
        <time>2020-10-17T11:53:16Z</time>
      </trkpt>
      <trkpt lat="46.18778" lon="4.50661">
        <ele>608.8</ele>
        <time>2020-10-17T11:53:17Z</time>
      </trkpt>
      <trkpt lat="46.18777" lon="4.50664">
        <ele>608.6</ele>
        <time>2020-10-17T11:53:18Z</time>
      </trkpt>
      <trkpt lat="46.18777" lon="4.50668">
        <ele>608.8</ele>
        <time>2020-10-17T11:53:19Z</time>
      </trkpt>
      <trkpt lat="46.18776" lon="4.50671">
        <ele>608.8</ele>
        <time>2020-10-17T11:53:20Z</time>
      </trkpt>
      <trkpt lat="46.18776" lon="4.50674">
        <ele>608.8</ele>
        <time>2020-10-17T11:53:21Z</time>
      </trkpt>
      <trkpt lat="46.18776" lon="4.50678">
        <ele>608.6</ele>
        <time>2020-10-17T11:53:22Z</time>
      </trkpt>
      <trkpt lat="46.18775" lon="4.50681">
        <ele>608.6</ele>
        <time>2020-10-17T11:53:23Z</time>
      </trkpt>
      <trkpt lat="46.18775" lon="4.50685">
        <ele>608.4</ele>
        <time>2020-10-17T11:53:24Z</time>
      </trkpt>
      <trkpt lat="46.18774" lon="4.50688">
        <ele>608</ele>
        <time>2020-10-17T11:53:25Z</time>
      </trkpt>
      <trkpt lat="46.18773" lon="4.50691">
        <ele>608</ele>
        <time>2020-10-17T11:53:26Z</time>
      </trkpt>
      <trkpt lat="46.18772" lon="4.50694">
        <ele>607.8</ele>
        <time>2020-10-17T11:53:27Z</time>
      </trkpt>
      <trkpt lat="46.18772" lon="4.50697">
        <ele>607.4</ele>
        <time>2020-10-17T11:53:28Z</time>
      </trkpt>
      <trkpt lat="46.18772" lon="4.507">
        <ele>607.2</ele>
        <time>2020-10-17T11:53:29Z</time>
      </trkpt>
      <trkpt lat="46.18772" lon="4.50703">
        <ele>607.4</ele>
        <time>2020-10-17T11:53:30Z</time>
      </trkpt>
      <trkpt lat="46.18771" lon="4.50706">
        <ele>607</ele>
        <time>2020-10-17T11:53:31Z</time>
      </trkpt>
      <trkpt lat="46.18771" lon="4.50709">
        <ele>606.6</ele>
        <time>2020-10-17T11:53:32Z</time>
      </trkpt>
      <trkpt lat="46.1877" lon="4.50713">
        <ele>606.8</ele>
        <time>2020-10-17T11:53:33Z</time>
      </trkpt>
      <trkpt lat="46.1877" lon="4.50716">
        <ele>606.6</ele>
        <time>2020-10-17T11:53:34Z</time>
      </trkpt>
      <trkpt lat="46.1877" lon="4.5072">
        <ele>606.2</ele>
        <time>2020-10-17T11:53:35Z</time>
      </trkpt>
      <trkpt lat="46.18769" lon="4.50723">
        <ele>606.4</ele>
        <time>2020-10-17T11:53:36Z</time>
      </trkpt>
      <trkpt lat="46.18769" lon="4.50726">
        <ele>606.6</ele>
        <time>2020-10-17T11:53:37Z</time>
      </trkpt>
      <trkpt lat="46.18769" lon="4.5073">
        <ele>606.2</ele>
        <time>2020-10-17T11:53:38Z</time>
      </trkpt>
      <trkpt lat="46.18769" lon="4.50733">
        <ele>605.8</ele>
        <time>2020-10-17T11:53:39Z</time>
      </trkpt>
      <trkpt lat="46.18768" lon="4.50736">
        <ele>606</ele>
        <time>2020-10-17T11:53:40Z</time>
      </trkpt>
      <trkpt lat="46.18768" lon="4.5074">
        <ele>605.8</ele>
        <time>2020-10-17T11:53:41Z</time>
      </trkpt>
      <trkpt lat="46.18768" lon="4.50744">
        <ele>605.4</ele>
        <time>2020-10-17T11:53:42Z</time>
      </trkpt>
      <trkpt lat="46.18768" lon="4.50747">
        <ele>605.4</ele>
        <time>2020-10-17T11:53:43Z</time>
      </trkpt>
      <trkpt lat="46.18769" lon="4.50751">
        <ele>605.4</ele>
        <time>2020-10-17T11:53:44Z</time>
      </trkpt>
      <trkpt lat="46.18769" lon="4.50755">
        <ele>604.8</ele>
        <time>2020-10-17T11:53:45Z</time>
      </trkpt>
      <trkpt lat="46.18769" lon="4.50759">
        <ele>604.2</ele>
        <time>2020-10-17T11:53:46Z</time>
      </trkpt>
      <trkpt lat="46.18769" lon="4.50762">
        <ele>604.2</ele>
        <time>2020-10-17T11:53:47Z</time>
      </trkpt>
      <trkpt lat="46.18769" lon="4.50765">
        <ele>603.8</ele>
        <time>2020-10-17T11:53:48Z</time>
      </trkpt>
      <trkpt lat="46.18769" lon="4.50768">
        <ele>603.4</ele>
        <time>2020-10-17T11:53:49Z</time>
      </trkpt>
      <trkpt lat="46.18768" lon="4.50771">
        <ele>603.4</ele>
        <time>2020-10-17T11:53:50Z</time>
      </trkpt>
      <trkpt lat="46.18768" lon="4.50774">
        <ele>603.4</ele>
        <time>2020-10-17T11:53:51Z</time>
      </trkpt>
      <trkpt lat="46.18768" lon="4.50777">
        <ele>603</ele>
        <time>2020-10-17T11:53:52Z</time>
      </trkpt>
      <trkpt lat="46.18767" lon="4.50781">
        <ele>602.4</ele>
        <time>2020-10-17T11:53:53Z</time>
      </trkpt>
      <trkpt lat="46.18766" lon="4.50785">
        <ele>602.2</ele>
        <time>2020-10-17T11:53:54Z</time>
      </trkpt>
      <trkpt lat="46.18766" lon="4.50789">
        <ele>602</ele>
        <time>2020-10-17T11:53:55Z</time>
      </trkpt>
      <trkpt lat="46.18766" lon="4.50793">
        <ele>601.6</ele>
        <time>2020-10-17T11:53:56Z</time>
      </trkpt>
      <trkpt lat="46.18765" lon="4.50797">
        <ele>601.2</ele>
        <time>2020-10-17T11:53:57Z</time>
      </trkpt>
      <trkpt lat="46.18765" lon="4.50801">
        <ele>601.2</ele>
        <time>2020-10-17T11:53:58Z</time>
      </trkpt>
      <trkpt lat="46.18764" lon="4.50805">
        <ele>600.8</ele>
        <time>2020-10-17T11:53:59Z</time>
      </trkpt>
      <trkpt lat="46.18764" lon="4.50808">
        <ele>600.2</ele>
        <time>2020-10-17T11:54:00Z</time>
      </trkpt>
      <trkpt lat="46.18764" lon="4.50811">
        <ele>600.4</ele>
        <time>2020-10-17T11:54:01Z</time>
      </trkpt>
      <trkpt lat="46.18764" lon="4.50814">
        <ele>600</ele>
        <time>2020-10-17T11:54:02Z</time>
      </trkpt>
      <trkpt lat="46.18763" lon="4.50817">
        <ele>599.4</ele>
        <time>2020-10-17T11:54:03Z</time>
      </trkpt>
      <trkpt lat="46.18763" lon="4.50821">
        <ele>599.4</ele>
        <time>2020-10-17T11:54:04Z</time>
      </trkpt>
      <trkpt lat="46.18762" lon="4.50825">
        <ele>599.4</ele>
        <time>2020-10-17T11:54:05Z</time>
      </trkpt>
      <trkpt lat="46.18761" lon="4.50828">
        <ele>599</ele>
        <time>2020-10-17T11:54:06Z</time>
      </trkpt>
      <trkpt lat="46.1876" lon="4.50832">
        <ele>598.2</ele>
        <time>2020-10-17T11:54:07Z</time>
      </trkpt>
      <trkpt lat="46.1876" lon="4.50837">
        <ele>598.4</ele>
        <time>2020-10-17T11:54:08Z</time>
      </trkpt>
      <trkpt lat="46.1876" lon="4.5084">
        <ele>598</ele>
        <time>2020-10-17T11:54:09Z</time>
      </trkpt>
      <trkpt lat="46.1876" lon="4.50844">
        <ele>597.6</ele>
        <time>2020-10-17T11:54:10Z</time>
      </trkpt>
      <trkpt lat="46.1876" lon="4.50848">
        <ele>597.2</ele>
        <time>2020-10-17T11:54:11Z</time>
      </trkpt>
      <trkpt lat="46.1876" lon="4.50853">
        <ele>597.2</ele>
        <time>2020-10-17T11:54:12Z</time>
      </trkpt>
      <trkpt lat="46.1876" lon="4.50857">
        <ele>597</ele>
        <time>2020-10-17T11:54:13Z</time>
      </trkpt>
      <trkpt lat="46.1876" lon="4.50861">
        <ele>596.6</ele>
        <time>2020-10-17T11:54:14Z</time>
      </trkpt>
      <trkpt lat="46.18761" lon="4.50865">
        <ele>596.8</ele>
        <time>2020-10-17T11:54:15Z</time>
      </trkpt>
      <trkpt lat="46.18761" lon="4.50868">
        <ele>596.6</ele>
        <time>2020-10-17T11:54:16Z</time>
      </trkpt>
      <trkpt lat="46.18761" lon="4.50868">
        <ele>596</ele>
        <time>2020-10-17T11:54:17Z</time>
      </trkpt>
      <trkpt lat="46.18762" lon="4.50875">
        <ele>596.4</ele>
        <time>2020-10-17T11:54:18Z</time>
      </trkpt>
      <trkpt lat="46.18762" lon="4.50875">
        <ele>596.2</ele>
        <time>2020-10-17T11:54:19Z</time>
      </trkpt>
      <trkpt lat="46.18764" lon="4.50883">
        <ele>595.8</ele>
        <time>2020-10-17T11:54:20Z</time>
      </trkpt>
      <trkpt lat="46.18764" lon="4.50885">
        <ele>595.6</ele>
        <time>2020-10-17T11:54:21Z</time>
      </trkpt>
      <trkpt lat="46.18764" lon="4.5089">
        <ele>595.8</ele>
        <time>2020-10-17T11:54:22Z</time>
      </trkpt>
      <trkpt lat="46.18764" lon="4.50891">
        <ele>595.4</ele>
        <time>2020-10-17T11:54:23Z</time>
      </trkpt>
      <trkpt lat="46.18765" lon="4.50895">
        <ele>595</ele>
        <time>2020-10-17T11:54:24Z</time>
      </trkpt>
      <trkpt lat="46.18766" lon="4.50898">
        <ele>595</ele>
        <time>2020-10-17T11:54:25Z</time>
      </trkpt>
      <trkpt lat="46.18767" lon="4.50901">
        <ele>594.6</ele>
        <time>2020-10-17T11:54:26Z</time>
      </trkpt>
      <trkpt lat="46.18768" lon="4.50904">
        <ele>594</ele>
        <time>2020-10-17T11:54:27Z</time>
      </trkpt>
      <trkpt lat="46.18769" lon="4.50906">
        <ele>593.6</ele>
        <time>2020-10-17T11:54:28Z</time>
      </trkpt>
      <trkpt lat="46.18771" lon="4.50909">
        <ele>593.6</ele>
        <time>2020-10-17T11:54:29Z</time>
      </trkpt>
      <trkpt lat="46.18772" lon="4.50911">
        <ele>593.2</ele>
        <time>2020-10-17T11:54:30Z</time>
      </trkpt>
      <trkpt lat="46.18773" lon="4.50914">
        <ele>592.6</ele>
        <time>2020-10-17T11:54:31Z</time>
      </trkpt>
      <trkpt lat="46.18775" lon="4.50917">
        <ele>592.6</ele>
        <time>2020-10-17T11:54:32Z</time>
      </trkpt>
      <trkpt lat="46.18776" lon="4.50921">
        <ele>592.2</ele>
        <time>2020-10-17T11:54:33Z</time>
      </trkpt>
      <trkpt lat="46.18777" lon="4.50925">
        <ele>592</ele>
        <time>2020-10-17T11:54:34Z</time>
      </trkpt>
      <trkpt lat="46.18778" lon="4.50928">
        <ele>591.8</ele>
        <time>2020-10-17T11:54:35Z</time>
      </trkpt>
      <trkpt lat="46.18778" lon="4.50928">
        <ele>591.6</ele>
        <time>2020-10-17T11:54:36Z</time>
      </trkpt>
      <trkpt lat="46.18778" lon="4.50928">
        <ele>591.2</ele>
        <time>2020-10-17T11:54:37Z</time>
      </trkpt>
      <trkpt lat="46.18778" lon="4.50928">
        <ele>590.6</ele>
        <time>2020-10-17T11:54:38Z</time>
      </trkpt>
      <trkpt lat="46.18783" lon="4.50946">
        <ele>590.4</ele>
        <time>2020-10-17T11:54:39Z</time>
      </trkpt>
      <trkpt lat="46.18784" lon="4.50949">
        <ele>590</ele>
        <time>2020-10-17T11:54:40Z</time>
      </trkpt>
      <trkpt lat="46.18785" lon="4.50951">
        <ele>589.4</ele>
        <time>2020-10-17T11:54:41Z</time>
      </trkpt>
      <trkpt lat="46.18785" lon="4.50954">
        <ele>589</ele>
        <time>2020-10-17T11:54:42Z</time>
      </trkpt>
      <trkpt lat="46.18786" lon="4.50957">
        <ele>589</ele>
        <time>2020-10-17T11:54:43Z</time>
      </trkpt>
      <trkpt lat="46.18788" lon="4.5096">
        <ele>588.6</ele>
        <time>2020-10-17T11:54:44Z</time>
      </trkpt>
      <trkpt lat="46.18789" lon="4.50963">
        <ele>588</ele>
        <time>2020-10-17T11:54:45Z</time>
      </trkpt>
      <trkpt lat="46.1879" lon="4.50967">
        <ele>588</ele>
        <time>2020-10-17T11:54:46Z</time>
      </trkpt>
      <trkpt lat="46.18791" lon="4.5097">
        <ele>587.8</ele>
        <time>2020-10-17T11:54:47Z</time>
      </trkpt>
      <trkpt lat="46.18792" lon="4.50973">
        <ele>587.2</ele>
        <time>2020-10-17T11:54:48Z</time>
      </trkpt>
      <trkpt lat="46.18793" lon="4.50976">
        <ele>586.8</ele>
        <time>2020-10-17T11:54:49Z</time>
      </trkpt>
      <trkpt lat="46.18794" lon="4.5098">
        <ele>586.8</ele>
        <time>2020-10-17T11:54:50Z</time>
      </trkpt>
      <trkpt lat="46.18795" lon="4.50983">
        <ele>586.4</ele>
        <time>2020-10-17T11:54:51Z</time>
      </trkpt>
      <trkpt lat="46.18796" lon="4.50987">
        <ele>585.6</ele>
        <time>2020-10-17T11:54:52Z</time>
      </trkpt>
      <trkpt lat="46.18797" lon="4.50991">
        <ele>585.4</ele>
        <time>2020-10-17T11:54:53Z</time>
      </trkpt>
      <trkpt lat="46.18798" lon="4.50995">
        <ele>585</ele>
        <time>2020-10-17T11:54:54Z</time>
      </trkpt>
      <trkpt lat="46.18799" lon="4.50998">
        <ele>584.4</ele>
        <time>2020-10-17T11:54:55Z</time>
      </trkpt>
      <trkpt lat="46.188" lon="4.51002">
        <ele>584</ele>
        <time>2020-10-17T11:54:56Z</time>
      </trkpt>
      <trkpt lat="46.18801" lon="4.51005">
        <ele>583.8</ele>
        <time>2020-10-17T11:54:57Z</time>
      </trkpt>
      <trkpt lat="46.18802" lon="4.51007">
        <ele>583.4</ele>
        <time>2020-10-17T11:54:58Z</time>
      </trkpt>
      <trkpt lat="46.18802" lon="4.51007">
        <ele>582.8</ele>
        <time>2020-10-17T11:54:59Z</time>
      </trkpt>
      <trkpt lat="46.18804" lon="4.51012">
        <ele>582.8</ele>
        <time>2020-10-17T11:55:00Z</time>
      </trkpt>
      <trkpt lat="46.18805" lon="4.51015">
        <ele>582.4</ele>
        <time>2020-10-17T11:55:01Z</time>
      </trkpt>
      <trkpt lat="46.18806" lon="4.51018">
        <ele>581.8</ele>
        <time>2020-10-17T11:55:02Z</time>
      </trkpt>
      <trkpt lat="46.18807" lon="4.51021">
        <ele>581.6</ele>
        <time>2020-10-17T11:55:03Z</time>
      </trkpt>
      <trkpt lat="46.18808" lon="4.51024">
        <ele>581.2</ele>
        <time>2020-10-17T11:55:04Z</time>
      </trkpt>
      <trkpt lat="46.18809" lon="4.51027">
        <ele>580.8</ele>
        <time>2020-10-17T11:55:05Z</time>
      </trkpt>
      <trkpt lat="46.18809" lon="4.5103">
        <ele>580.4</ele>
        <time>2020-10-17T11:55:06Z</time>
      </trkpt>
      <trkpt lat="46.1881" lon="4.51032">
        <ele>580.6</ele>
        <time>2020-10-17T11:55:07Z</time>
      </trkpt>
      <trkpt lat="46.18811" lon="4.51035">
        <ele>580.2</ele>
        <time>2020-10-17T11:55:08Z</time>
      </trkpt>
      <trkpt lat="46.18811" lon="4.51038">
        <ele>579.6</ele>
        <time>2020-10-17T11:55:09Z</time>
      </trkpt>
      <trkpt lat="46.18812" lon="4.51041">
        <ele>579.6</ele>
        <time>2020-10-17T11:55:10Z</time>
      </trkpt>
      <trkpt lat="46.18813" lon="4.51044">
        <ele>579.2</ele>
        <time>2020-10-17T11:55:11Z</time>
      </trkpt>
      <trkpt lat="46.18814" lon="4.51047">
        <ele>578.8</ele>
        <time>2020-10-17T11:55:12Z</time>
      </trkpt>
      <trkpt lat="46.18815" lon="4.5105">
        <ele>578.8</ele>
        <time>2020-10-17T11:55:13Z</time>
      </trkpt>
      <trkpt lat="46.18816" lon="4.51053">
        <ele>578.6</ele>
        <time>2020-10-17T11:55:14Z</time>
      </trkpt>
      <trkpt lat="46.18817" lon="4.51057">
        <ele>578.2</ele>
        <time>2020-10-17T11:55:15Z</time>
      </trkpt>
      <trkpt lat="46.18818" lon="4.5106">
        <ele>577.8</ele>
        <time>2020-10-17T11:55:16Z</time>
      </trkpt>
      <trkpt lat="46.18819" lon="4.51063">
        <ele>577.8</ele>
        <time>2020-10-17T11:55:17Z</time>
      </trkpt>
      <trkpt lat="46.1882" lon="4.51067">
        <ele>577.4</ele>
        <time>2020-10-17T11:55:18Z</time>
      </trkpt>
      <trkpt lat="46.1882" lon="4.5107">
        <ele>577.2</ele>
        <time>2020-10-17T11:55:19Z</time>
      </trkpt>
      <trkpt lat="46.1882" lon="4.51073">
        <ele>577</ele>
        <time>2020-10-17T11:55:20Z</time>
      </trkpt>
      <trkpt lat="46.1882" lon="4.51077">
        <ele>577</ele>
        <time>2020-10-17T11:55:21Z</time>
      </trkpt>
      <trkpt lat="46.18821" lon="4.51081">
        <ele>576.8</ele>
        <time>2020-10-17T11:55:22Z</time>
      </trkpt>
      <trkpt lat="46.18821" lon="4.51084">
        <ele>576.6</ele>
        <time>2020-10-17T11:55:23Z</time>
      </trkpt>
      <trkpt lat="46.18822" lon="4.51087">
        <ele>576.6</ele>
        <time>2020-10-17T11:55:24Z</time>
      </trkpt>
      <trkpt lat="46.18822" lon="4.5109">
        <ele>576.4</ele>
        <time>2020-10-17T11:55:25Z</time>
      </trkpt>
      <trkpt lat="46.18823" lon="4.51093">
        <ele>576</ele>
        <time>2020-10-17T11:55:26Z</time>
      </trkpt>
      <trkpt lat="46.18824" lon="4.51097">
        <ele>576.2</ele>
        <time>2020-10-17T11:55:27Z</time>
      </trkpt>
      <trkpt lat="46.18825" lon="4.511">
        <ele>575.8</ele>
        <time>2020-10-17T11:55:28Z</time>
      </trkpt>
      <trkpt lat="46.18825" lon="4.51104">
        <ele>575.8</ele>
        <time>2020-10-17T11:55:29Z</time>
      </trkpt>
      <trkpt lat="46.18827" lon="4.51108">
        <ele>576</ele>
        <time>2020-10-17T11:55:30Z</time>
      </trkpt>
      <trkpt lat="46.18827" lon="4.51111">
        <ele>575.6</ele>
        <time>2020-10-17T11:55:31Z</time>
      </trkpt>
      <trkpt lat="46.18828" lon="4.51115">
        <ele>575.6</ele>
        <time>2020-10-17T11:55:32Z</time>
      </trkpt>
      <trkpt lat="46.18829" lon="4.51119">
        <ele>575.4</ele>
        <time>2020-10-17T11:55:33Z</time>
      </trkpt>
      <trkpt lat="46.1883" lon="4.51123">
        <ele>575.4</ele>
        <time>2020-10-17T11:55:34Z</time>
      </trkpt>
      <trkpt lat="46.1883" lon="4.51127">
        <ele>575.4</ele>
        <time>2020-10-17T11:55:35Z</time>
      </trkpt>
      <trkpt lat="46.18831" lon="4.5113">
        <ele>575</ele>
        <time>2020-10-17T11:55:36Z</time>
      </trkpt>
      <trkpt lat="46.18832" lon="4.51133">
        <ele>575.4</ele>
        <time>2020-10-17T11:55:37Z</time>
      </trkpt>
      <trkpt lat="46.18833" lon="4.51136">
        <ele>575</ele>
        <time>2020-10-17T11:55:38Z</time>
      </trkpt>
      <trkpt lat="46.18833" lon="4.51139">
        <ele>574.6</ele>
        <time>2020-10-17T11:55:39Z</time>
      </trkpt>
      <trkpt lat="46.18834" lon="4.51142">
        <ele>574.8</ele>
        <time>2020-10-17T11:55:40Z</time>
      </trkpt>
      <trkpt lat="46.18835" lon="4.51146">
        <ele>574.6</ele>
        <time>2020-10-17T11:55:41Z</time>
      </trkpt>
      <trkpt lat="46.18835" lon="4.5115">
        <ele>574.2</ele>
        <time>2020-10-17T11:55:42Z</time>
      </trkpt>
      <trkpt lat="46.18836" lon="4.51154">
        <ele>574.4</ele>
        <time>2020-10-17T11:55:43Z</time>
      </trkpt>
      <trkpt lat="46.18837" lon="4.51157">
        <ele>574.2</ele>
        <time>2020-10-17T11:55:44Z</time>
      </trkpt>
      <trkpt lat="46.18838" lon="4.51161">
        <ele>574</ele>
        <time>2020-10-17T11:55:45Z</time>
      </trkpt>
      <trkpt lat="46.18839" lon="4.51164">
        <ele>574</ele>
        <time>2020-10-17T11:55:46Z</time>
      </trkpt>
      <trkpt lat="46.18839" lon="4.51168">
        <ele>574.4</ele>
        <time>2020-10-17T11:55:47Z</time>
      </trkpt>
      <trkpt lat="46.1884" lon="4.51172">
        <ele>574</ele>
        <time>2020-10-17T11:55:48Z</time>
      </trkpt>
      <trkpt lat="46.18841" lon="4.51175">
        <ele>573.6</ele>
        <time>2020-10-17T11:55:49Z</time>
      </trkpt>
      <trkpt lat="46.18842" lon="4.51179">
        <ele>574</ele>
        <time>2020-10-17T11:55:50Z</time>
      </trkpt>
      <trkpt lat="46.18843" lon="4.51183">
        <ele>573.6</ele>
        <time>2020-10-17T11:55:51Z</time>
      </trkpt>
      <trkpt lat="46.18844" lon="4.51186">
        <ele>573.4</ele>
        <time>2020-10-17T11:55:52Z</time>
      </trkpt>
      <trkpt lat="46.18846" lon="4.51189">
        <ele>573.4</ele>
        <time>2020-10-17T11:55:53Z</time>
      </trkpt>
      <trkpt lat="46.18849" lon="4.51192">
        <ele>573.4</ele>
        <time>2020-10-17T11:55:54Z</time>
      </trkpt>
      <trkpt lat="46.1885" lon="4.51195">
        <ele>573</ele>
        <time>2020-10-17T11:55:55Z</time>
      </trkpt>
      <trkpt lat="46.1885" lon="4.51199">
        <ele>572.8</ele>
        <time>2020-10-17T11:55:56Z</time>
      </trkpt>
      <trkpt lat="46.1885" lon="4.51203">
        <ele>573</ele>
        <time>2020-10-17T11:55:57Z</time>
      </trkpt>
      <trkpt lat="46.18851" lon="4.51206">
        <ele>572.8</ele>
        <time>2020-10-17T11:55:58Z</time>
      </trkpt>
      <trkpt lat="46.18851" lon="4.51209">
        <ele>572.4</ele>
        <time>2020-10-17T11:55:59Z</time>
      </trkpt>
      <trkpt lat="46.18853" lon="4.51212">
        <ele>572.4</ele>
        <time>2020-10-17T11:56:00Z</time>
      </trkpt>
      <trkpt lat="46.18854" lon="4.51215">
        <ele>572.4</ele>
        <time>2020-10-17T11:56:01Z</time>
      </trkpt>
      <trkpt lat="46.18856" lon="4.51218">
        <ele>571.8</ele>
        <time>2020-10-17T11:56:02Z</time>
      </trkpt>
      <trkpt lat="46.18857" lon="4.51222">
        <ele>571.2</ele>
        <time>2020-10-17T11:56:03Z</time>
      </trkpt>
      <trkpt lat="46.18858" lon="4.51225">
        <ele>571.2</ele>
        <time>2020-10-17T11:56:04Z</time>
      </trkpt>
      <trkpt lat="46.1886" lon="4.51228">
        <ele>570.8</ele>
        <time>2020-10-17T11:56:05Z</time>
      </trkpt>
      <trkpt lat="46.18861" lon="4.51231">
        <ele>570.4</ele>
        <time>2020-10-17T11:56:06Z</time>
      </trkpt>
      <trkpt lat="46.18863" lon="4.51234">
        <ele>570.2</ele>
        <time>2020-10-17T11:56:07Z</time>
      </trkpt>
      <trkpt lat="46.18864" lon="4.51237">
        <ele>570</ele>
        <time>2020-10-17T11:56:08Z</time>
      </trkpt>
      <trkpt lat="46.18866" lon="4.5124">
        <ele>569.6</ele>
        <time>2020-10-17T11:56:09Z</time>
      </trkpt>
      <trkpt lat="46.18867" lon="4.51243">
        <ele>569.2</ele>
        <time>2020-10-17T11:56:10Z</time>
      </trkpt>
      <trkpt lat="46.18868" lon="4.51245">
        <ele>569</ele>
        <time>2020-10-17T11:56:11Z</time>
      </trkpt>
      <trkpt lat="46.1887" lon="4.51247">
        <ele>568.6</ele>
        <time>2020-10-17T11:56:12Z</time>
      </trkpt>
      <trkpt lat="46.18871" lon="4.5125">
        <ele>568.2</ele>
        <time>2020-10-17T11:56:13Z</time>
      </trkpt>
      <trkpt lat="46.18872" lon="4.51253">
        <ele>568</ele>
        <time>2020-10-17T11:56:14Z</time>
      </trkpt>
      <trkpt lat="46.18874" lon="4.51255">
        <ele>568</ele>
        <time>2020-10-17T11:56:15Z</time>
      </trkpt>
      <trkpt lat="46.18875" lon="4.51258">
        <ele>567.4</ele>
        <time>2020-10-17T11:56:16Z</time>
      </trkpt>
      <trkpt lat="46.18877" lon="4.51261">
        <ele>567.2</ele>
        <time>2020-10-17T11:56:17Z</time>
      </trkpt>
      <trkpt lat="46.18879" lon="4.51263">
        <ele>567.4</ele>
        <time>2020-10-17T11:56:18Z</time>
      </trkpt>
      <trkpt lat="46.1888" lon="4.51266">
        <ele>567</ele>
        <time>2020-10-17T11:56:19Z</time>
      </trkpt>
      <trkpt lat="46.18881" lon="4.5127">
        <ele>566.6</ele>
        <time>2020-10-17T11:56:20Z</time>
      </trkpt>
      <trkpt lat="46.18882" lon="4.51273">
        <ele>566.6</ele>
        <time>2020-10-17T11:56:21Z</time>
      </trkpt>
      <trkpt lat="46.18884" lon="4.51276">
        <ele>566.4</ele>
        <time>2020-10-17T11:56:22Z</time>
      </trkpt>
      <trkpt lat="46.18884" lon="4.51279">
        <ele>566</ele>
        <time>2020-10-17T11:56:23Z</time>
      </trkpt>
      <trkpt lat="46.18885" lon="4.51283">
        <ele>566.2</ele>
        <time>2020-10-17T11:56:24Z</time>
      </trkpt>
      <trkpt lat="46.18886" lon="4.51287">
        <ele>566.2</ele>
        <time>2020-10-17T11:56:25Z</time>
      </trkpt>
      <trkpt lat="46.18887" lon="4.5129">
        <ele>566</ele>
        <time>2020-10-17T11:56:26Z</time>
      </trkpt>
      <trkpt lat="46.18889" lon="4.51293">
        <ele>565.8</ele>
        <time>2020-10-17T11:56:27Z</time>
      </trkpt>
      <trkpt lat="46.1889" lon="4.51296">
        <ele>565.8</ele>
        <time>2020-10-17T11:56:28Z</time>
      </trkpt>
      <trkpt lat="46.18891" lon="4.513">
        <ele>565.6</ele>
        <time>2020-10-17T11:56:29Z</time>
      </trkpt>
      <trkpt lat="46.18892" lon="4.51303">
        <ele>565</ele>
        <time>2020-10-17T11:56:30Z</time>
      </trkpt>
      <trkpt lat="46.18893" lon="4.51306">
        <ele>565.4</ele>
        <time>2020-10-17T11:56:31Z</time>
      </trkpt>
      <trkpt lat="46.18895" lon="4.51309">
        <ele>565.2</ele>
        <time>2020-10-17T11:56:32Z</time>
      </trkpt>
      <trkpt lat="46.18896" lon="4.51312">
        <ele>565.2</ele>
        <time>2020-10-17T11:56:33Z</time>
      </trkpt>
      <trkpt lat="46.18897" lon="4.51314">
        <ele>565.4</ele>
        <time>2020-10-17T11:56:34Z</time>
      </trkpt>
      <trkpt lat="46.18898" lon="4.51317">
        <ele>565.4</ele>
        <time>2020-10-17T11:56:35Z</time>
      </trkpt>
      <trkpt lat="46.18899" lon="4.51319">
        <ele>565.4</ele>
        <time>2020-10-17T11:56:36Z</time>
      </trkpt>
      <trkpt lat="46.18901" lon="4.51322">
        <ele>565.2</ele>
        <time>2020-10-17T11:56:37Z</time>
      </trkpt>
      <trkpt lat="46.18901" lon="4.51322">
        <ele>565</ele>
        <time>2020-10-17T11:56:38Z</time>
      </trkpt>
      <trkpt lat="46.18902" lon="4.51325">
        <ele>565</ele>
        <time>2020-10-17T11:56:39Z</time>
      </trkpt>
      <trkpt lat="46.18902" lon="4.51325">
        <ele>565.2</ele>
        <time>2020-10-17T11:56:40Z</time>
      </trkpt>
      <trkpt lat="46.18904" lon="4.51329">
        <ele>565.4</ele>
        <time>2020-10-17T11:56:41Z</time>
      </trkpt>
      <trkpt lat="46.18904" lon="4.51329">
        <ele>565.4</ele>
        <time>2020-10-17T11:56:42Z</time>
      </trkpt>
      <trkpt lat="46.18906" lon="4.51332">
        <ele>565.2</ele>
        <time>2020-10-17T11:56:43Z</time>
      </trkpt>
      <trkpt lat="46.18906" lon="4.51332">
        <ele>565.2</ele>
        <time>2020-10-17T11:56:44Z</time>
      </trkpt>
      <trkpt lat="46.18908" lon="4.51335">
        <ele>565</ele>
        <time>2020-10-17T11:56:45Z</time>
      </trkpt>
      <trkpt lat="46.18908" lon="4.51335">
        <ele>564.8</ele>
        <time>2020-10-17T11:56:46Z</time>
      </trkpt>
      <trkpt lat="46.1891" lon="4.51338">
        <ele>564.8</ele>
        <time>2020-10-17T11:56:47Z</time>
      </trkpt>
      <trkpt lat="46.1891" lon="4.51338">
        <ele>564.8</ele>
        <time>2020-10-17T11:56:48Z</time>
      </trkpt>
      <trkpt lat="46.18912" lon="4.51341">
        <ele>565</ele>
        <time>2020-10-17T11:56:49Z</time>
      </trkpt>
      <trkpt lat="46.18912" lon="4.51341">
        <ele>565</ele>
        <time>2020-10-17T11:56:50Z</time>
      </trkpt>
      <trkpt lat="46.18913" lon="4.51344">
        <ele>565</ele>
        <time>2020-10-17T11:56:51Z</time>
      </trkpt>
      <trkpt lat="46.18913" lon="4.51344">
        <ele>564.8</ele>
        <time>2020-10-17T11:56:52Z</time>
      </trkpt>
      <trkpt lat="46.18914" lon="4.51347">
        <ele>564.6</ele>
        <time>2020-10-17T11:56:53Z</time>
      </trkpt>
      <trkpt lat="46.18914" lon="4.51347">
        <ele>564.6</ele>
        <time>2020-10-17T11:56:54Z</time>
      </trkpt>
      <trkpt lat="46.18914" lon="4.51347">
        <ele>564.4</ele>
        <time>2020-10-17T11:56:55Z</time>
      </trkpt>
      <trkpt lat="46.18915" lon="4.5135">
        <ele>564.2</ele>
        <time>2020-10-17T11:56:56Z</time>
      </trkpt>
      <trkpt lat="46.18915" lon="4.5135">
        <ele>564.2</ele>
        <time>2020-10-17T11:56:57Z</time>
      </trkpt>
      <trkpt lat="46.18916" lon="4.51352">
        <ele>564.2</ele>
        <time>2020-10-17T11:56:58Z</time>
      </trkpt>
      <trkpt lat="46.18916" lon="4.51352">
        <ele>564.2</ele>
        <time>2020-10-17T11:56:59Z</time>
      </trkpt>
      <trkpt lat="46.18918" lon="4.51355">
        <ele>564.2</ele>
        <time>2020-10-17T11:57:00Z</time>
      </trkpt>
      <trkpt lat="46.18918" lon="4.51355">
        <ele>564.2</ele>
        <time>2020-10-17T11:57:01Z</time>
      </trkpt>
      <trkpt lat="46.18919" lon="4.51357">
        <ele>564.2</ele>
        <time>2020-10-17T11:57:02Z</time>
      </trkpt>
      <trkpt lat="46.18919" lon="4.51357">
        <ele>564</ele>
        <time>2020-10-17T11:57:03Z</time>
      </trkpt>
      <trkpt lat="46.18921" lon="4.51361">
        <ele>564</ele>
        <time>2020-10-17T11:57:04Z</time>
      </trkpt>
      <trkpt lat="46.18921" lon="4.51361">
        <ele>563.6</ele>
        <time>2020-10-17T11:57:05Z</time>
      </trkpt>
      <trkpt lat="46.18923" lon="4.51365">
        <ele>563.4</ele>
        <time>2020-10-17T11:57:06Z</time>
      </trkpt>
      <trkpt lat="46.18924" lon="4.51367">
        <ele>563</ele>
        <time>2020-10-17T11:57:07Z</time>
      </trkpt>
      <trkpt lat="46.18924" lon="4.51367">
        <ele>562.8</ele>
        <time>2020-10-17T11:57:08Z</time>
      </trkpt>
      <trkpt lat="46.18926" lon="4.51371">
        <ele>562.6</ele>
        <time>2020-10-17T11:57:09Z</time>
      </trkpt>
      <trkpt lat="46.18926" lon="4.51371">
        <ele>562.4</ele>
        <time>2020-10-17T11:57:10Z</time>
      </trkpt>
      <trkpt lat="46.18927" lon="4.51374">
        <ele>562.2</ele>
        <time>2020-10-17T11:57:11Z</time>
      </trkpt>
      <trkpt lat="46.18927" lon="4.51374">
        <ele>561.8</ele>
        <time>2020-10-17T11:57:12Z</time>
      </trkpt>
      <trkpt lat="46.18928" lon="4.51377">
        <ele>561.4</ele>
        <time>2020-10-17T11:57:13Z</time>
      </trkpt>
      <trkpt lat="46.18928" lon="4.51377">
        <ele>561</ele>
        <time>2020-10-17T11:57:14Z</time>
      </trkpt>
      <trkpt lat="46.18929" lon="4.5138">
        <ele>561</ele>
        <time>2020-10-17T11:57:15Z</time>
      </trkpt>
      <trkpt lat="46.18931" lon="4.51382">
        <ele>560.6</ele>
        <time>2020-10-17T11:57:16Z</time>
      </trkpt>
      <trkpt lat="46.18931" lon="4.51382">
        <ele>560.4</ele>
        <time>2020-10-17T11:57:17Z</time>
      </trkpt>
      <trkpt lat="46.18933" lon="4.51385">
        <ele>560.2</ele>
        <time>2020-10-17T11:57:18Z</time>
      </trkpt>
      <trkpt lat="46.18935" lon="4.51387">
        <ele>559.8</ele>
        <time>2020-10-17T11:57:19Z</time>
      </trkpt>
      <trkpt lat="46.18936" lon="4.5139">
        <ele>559.4</ele>
        <time>2020-10-17T11:57:20Z</time>
      </trkpt>
      <trkpt lat="46.18936" lon="4.5139">
        <ele>559.4</ele>
        <time>2020-10-17T11:57:21Z</time>
      </trkpt>
      <trkpt lat="46.18938" lon="4.51394">
        <ele>559.2</ele>
        <time>2020-10-17T11:57:22Z</time>
      </trkpt>
      <trkpt lat="46.18939" lon="4.51396">
        <ele>559.2</ele>
        <time>2020-10-17T11:57:23Z</time>
      </trkpt>
      <trkpt lat="46.18939" lon="4.51396">
        <ele>559</ele>
        <time>2020-10-17T11:57:24Z</time>
      </trkpt>
      <trkpt lat="46.18943" lon="4.51399">
        <ele>558.8</ele>
        <time>2020-10-17T11:57:25Z</time>
      </trkpt>
      <trkpt lat="46.18943" lon="4.51399">
        <ele>558.6</ele>
        <time>2020-10-17T11:57:26Z</time>
      </trkpt>
      <trkpt lat="46.18944" lon="4.51403">
        <ele>558.4</ele>
        <time>2020-10-17T11:57:27Z</time>
      </trkpt>
      <trkpt lat="46.18944" lon="4.51403">
        <ele>558.2</ele>
        <time>2020-10-17T11:57:28Z</time>
      </trkpt>
      <trkpt lat="46.18947" lon="4.51407">
        <ele>558.2</ele>
        <time>2020-10-17T11:57:29Z</time>
      </trkpt>
      <trkpt lat="46.18947" lon="4.51409">
        <ele>558</ele>
        <time>2020-10-17T11:57:30Z</time>
      </trkpt>
      <trkpt lat="46.18949" lon="4.51411">
        <ele>557.8</ele>
        <time>2020-10-17T11:57:31Z</time>
      </trkpt>
      <trkpt lat="46.18949" lon="4.51411">
        <ele>557.6</ele>
        <time>2020-10-17T11:57:32Z</time>
      </trkpt>
      <trkpt lat="46.1895" lon="4.51414">
        <ele>557.2</ele>
        <time>2020-10-17T11:57:33Z</time>
      </trkpt>
      <trkpt lat="46.1895" lon="4.51414">
        <ele>557.2</ele>
        <time>2020-10-17T11:57:34Z</time>
      </trkpt>
      <trkpt lat="46.18952" lon="4.51417">
        <ele>557.2</ele>
        <time>2020-10-17T11:57:35Z</time>
      </trkpt>
      <trkpt lat="46.18952" lon="4.51417">
        <ele>557.2</ele>
        <time>2020-10-17T11:57:36Z</time>
      </trkpt>
      <trkpt lat="46.18954" lon="4.5142">
        <ele>557</ele>
        <time>2020-10-17T11:57:37Z</time>
      </trkpt>
      <trkpt lat="46.18954" lon="4.5142">
        <ele>556.8</ele>
        <time>2020-10-17T11:57:38Z</time>
      </trkpt>
      <trkpt lat="46.18956" lon="4.51421">
        <ele>556.6</ele>
        <time>2020-10-17T11:57:39Z</time>
      </trkpt>
      <trkpt lat="46.18956" lon="4.51421">
        <ele>556.6</ele>
        <time>2020-10-17T11:57:40Z</time>
      </trkpt>
      <trkpt lat="46.18958" lon="4.51423">
        <ele>556.8</ele>
        <time>2020-10-17T11:57:41Z</time>
      </trkpt>
      <trkpt lat="46.18958" lon="4.51423">
        <ele>557</ele>
        <time>2020-10-17T11:57:42Z</time>
      </trkpt>
      <trkpt lat="46.18961" lon="4.51423">
        <ele>557</ele>
        <time>2020-10-17T11:57:43Z</time>
      </trkpt>
      <trkpt lat="46.18961" lon="4.51423">
        <ele>556.8</ele>
        <time>2020-10-17T11:57:44Z</time>
      </trkpt>
      <trkpt lat="46.18963" lon="4.51422">
        <ele>556.8</ele>
        <time>2020-10-17T11:57:45Z</time>
      </trkpt>
      <trkpt lat="46.18963" lon="4.51422">
        <ele>557</ele>
        <time>2020-10-17T11:57:46Z</time>
      </trkpt>
      <trkpt lat="46.18966" lon="4.51423">
        <ele>557</ele>
        <time>2020-10-17T11:57:47Z</time>
      </trkpt>
      <trkpt lat="46.18966" lon="4.51423">
        <ele>557</ele>
        <time>2020-10-17T11:57:48Z</time>
      </trkpt>
      <trkpt lat="46.18968" lon="4.51422">
        <ele>556.8</ele>
        <time>2020-10-17T11:57:49Z</time>
      </trkpt>
      <trkpt lat="46.18968" lon="4.51422">
        <ele>557</ele>
        <time>2020-10-17T11:57:50Z</time>
      </trkpt>
      <trkpt lat="46.1897" lon="4.51422">
        <ele>557</ele>
        <time>2020-10-17T11:57:51Z</time>
      </trkpt>
      <trkpt lat="46.1897" lon="4.51422">
        <ele>556.8</ele>
        <time>2020-10-17T11:57:52Z</time>
      </trkpt>
      <trkpt lat="46.18973" lon="4.51422">
        <ele>557</ele>
        <time>2020-10-17T11:57:53Z</time>
      </trkpt>
      <trkpt lat="46.18973" lon="4.51422">
        <ele>557</ele>
        <time>2020-10-17T11:57:54Z</time>
      </trkpt>
      <trkpt lat="46.18976" lon="4.51422">
        <ele>557.2</ele>
        <time>2020-10-17T11:57:55Z</time>
      </trkpt>
      <trkpt lat="46.18976" lon="4.51422">
        <ele>557</ele>
        <time>2020-10-17T11:57:56Z</time>
      </trkpt>
      <trkpt lat="46.18978" lon="4.51421">
        <ele>556.8</ele>
        <time>2020-10-17T11:57:57Z</time>
      </trkpt>
      <trkpt lat="46.18978" lon="4.51421">
        <ele>556.8</ele>
        <time>2020-10-17T11:57:58Z</time>
      </trkpt>
      <trkpt lat="46.18981" lon="4.5142">
        <ele>556.8</ele>
        <time>2020-10-17T11:57:59Z</time>
      </trkpt>
      <trkpt lat="46.18981" lon="4.5142">
        <ele>556.4</ele>
        <time>2020-10-17T11:58:00Z</time>
      </trkpt>
      <trkpt lat="46.18984" lon="4.5142">
        <ele>556.4</ele>
        <time>2020-10-17T11:58:01Z</time>
      </trkpt>
      <trkpt lat="46.18984" lon="4.5142">
        <ele>556.4</ele>
        <time>2020-10-17T11:58:02Z</time>
      </trkpt>
      <trkpt lat="46.18987" lon="4.51421">
        <ele>556.2</ele>
        <time>2020-10-17T11:58:03Z</time>
      </trkpt>
      <trkpt lat="46.18987" lon="4.51421">
        <ele>556.4</ele>
        <time>2020-10-17T11:58:04Z</time>
      </trkpt>
      <trkpt lat="46.18989" lon="4.51423">
        <ele>556.4</ele>
        <time>2020-10-17T11:58:05Z</time>
      </trkpt>
      <trkpt lat="46.18991" lon="4.51424">
        <ele>556.2</ele>
        <time>2020-10-17T11:58:06Z</time>
      </trkpt>
      <trkpt lat="46.18993" lon="4.51425">
        <ele>556</ele>
        <time>2020-10-17T11:58:07Z</time>
      </trkpt>
      <trkpt lat="46.18993" lon="4.51425">
        <ele>555.8</ele>
        <time>2020-10-17T11:58:08Z</time>
      </trkpt>
      <trkpt lat="46.18995" lon="4.51428">
        <ele>555.8</ele>
        <time>2020-10-17T11:58:09Z</time>
      </trkpt>
      <trkpt lat="46.18996" lon="4.5143">
        <ele>555.6</ele>
        <time>2020-10-17T11:58:10Z</time>
      </trkpt>
      <trkpt lat="46.18996" lon="4.5143">
        <ele>555.2</ele>
        <time>2020-10-17T11:58:11Z</time>
      </trkpt>
      <trkpt lat="46.18997" lon="4.51435">
        <ele>555.2</ele>
        <time>2020-10-17T11:58:12Z</time>
      </trkpt>
      <trkpt lat="46.18998" lon="4.51439">
        <ele>555</ele>
        <time>2020-10-17T11:58:13Z</time>
      </trkpt>
      <trkpt lat="46.18998" lon="4.51439">
        <ele>554.8</ele>
        <time>2020-10-17T11:58:14Z</time>
      </trkpt>
      <trkpt lat="46.18998" lon="4.51444">
        <ele>554.6</ele>
        <time>2020-10-17T11:58:15Z</time>
      </trkpt>
      <trkpt lat="46.18998" lon="4.51446">
        <ele>554.4</ele>
        <time>2020-10-17T11:58:16Z</time>
      </trkpt>
      <trkpt lat="46.18998" lon="4.51449">
        <ele>554.2</ele>
        <time>2020-10-17T11:58:17Z</time>
      </trkpt>
      <trkpt lat="46.18998" lon="4.51452">
        <ele>554.4</ele>
        <time>2020-10-17T11:58:18Z</time>
      </trkpt>
      <trkpt lat="46.18998" lon="4.51455">
        <ele>554.4</ele>
        <time>2020-10-17T11:58:19Z</time>
      </trkpt>
      <trkpt lat="46.18998" lon="4.51455">
        <ele>554</ele>
        <time>2020-10-17T11:58:20Z</time>
      </trkpt>
      <trkpt lat="46.18996" lon="4.51459">
        <ele>554</ele>
        <time>2020-10-17T11:58:21Z</time>
      </trkpt>
      <trkpt lat="46.18996" lon="4.51459">
        <ele>554.2</ele>
        <time>2020-10-17T11:58:22Z</time>
      </trkpt>
      <trkpt lat="46.18994" lon="4.51463">
        <ele>554.4</ele>
        <time>2020-10-17T11:58:23Z</time>
      </trkpt>
      <trkpt lat="46.18994" lon="4.51463">
        <ele>554.6</ele>
        <time>2020-10-17T11:58:24Z</time>
      </trkpt>
      <trkpt lat="46.18991" lon="4.51466">
        <ele>554.6</ele>
        <time>2020-10-17T11:58:25Z</time>
      </trkpt>
      <trkpt lat="46.18991" lon="4.51466">
        <ele>554.8</ele>
        <time>2020-10-17T11:58:26Z</time>
      </trkpt>
      <trkpt lat="46.18988" lon="4.51469">
        <ele>554.8</ele>
        <time>2020-10-17T11:58:27Z</time>
      </trkpt>
      <trkpt lat="46.18988" lon="4.51469">
        <ele>554.8</ele>
        <time>2020-10-17T11:58:28Z</time>
      </trkpt>
      <trkpt lat="46.18986" lon="4.51471">
        <ele>554.8</ele>
        <time>2020-10-17T11:58:29Z</time>
      </trkpt>
      <trkpt lat="46.18986" lon="4.51471">
        <ele>554.8</ele>
        <time>2020-10-17T11:58:30Z</time>
      </trkpt>
      <trkpt lat="46.18983" lon="4.51472">
        <ele>554.6</ele>
        <time>2020-10-17T11:58:31Z</time>
      </trkpt>
      <trkpt lat="46.18983" lon="4.51472">
        <ele>554</ele>
        <time>2020-10-17T11:58:32Z</time>
      </trkpt>
      <trkpt lat="46.1898" lon="4.51474">
        <ele>553.4</ele>
        <time>2020-10-17T11:58:33Z</time>
      </trkpt>
      <trkpt lat="46.1898" lon="4.51474">
        <ele>553</ele>
        <time>2020-10-17T11:58:34Z</time>
      </trkpt>
      <trkpt lat="46.18977" lon="4.51475">
        <ele>552.6</ele>
        <time>2020-10-17T11:58:35Z</time>
      </trkpt>
      <trkpt lat="46.18977" lon="4.51475">
        <ele>552.4</ele>
        <time>2020-10-17T11:58:36Z</time>
      </trkpt>
      <trkpt lat="46.18974" lon="4.51477">
        <ele>552.2</ele>
        <time>2020-10-17T11:58:37Z</time>
      </trkpt>
      <trkpt lat="46.18972" lon="4.51478">
        <ele>552</ele>
        <time>2020-10-17T11:58:38Z</time>
      </trkpt>
      <trkpt lat="46.18972" lon="4.51478">
        <ele>551.6</ele>
        <time>2020-10-17T11:58:39Z</time>
      </trkpt>
      <trkpt lat="46.18969" lon="4.51479">
        <ele>551.4</ele>
        <time>2020-10-17T11:58:40Z</time>
      </trkpt>
      <trkpt lat="46.18969" lon="4.51479">
        <ele>551</ele>
        <time>2020-10-17T11:58:41Z</time>
      </trkpt>
      <trkpt lat="46.18966" lon="4.51479">
        <ele>551</ele>
        <time>2020-10-17T11:58:42Z</time>
      </trkpt>
      <trkpt lat="46.18966" lon="4.51479">
        <ele>551</ele>
        <time>2020-10-17T11:58:43Z</time>
      </trkpt>
      <trkpt lat="46.18963" lon="4.51481">
        <ele>550.8</ele>
        <time>2020-10-17T11:58:44Z</time>
      </trkpt>
      <trkpt lat="46.18963" lon="4.51481">
        <ele>550.6</ele>
        <time>2020-10-17T11:58:45Z</time>
      </trkpt>
      <trkpt lat="46.18961" lon="4.51483">
        <ele>550.6</ele>
        <time>2020-10-17T11:58:46Z</time>
      </trkpt>
      <trkpt lat="46.18961" lon="4.51483">
        <ele>550.6</ele>
        <time>2020-10-17T11:58:47Z</time>
      </trkpt>
      <trkpt lat="46.18959" lon="4.51485">
        <ele>550.4</ele>
        <time>2020-10-17T11:58:48Z</time>
      </trkpt>
      <trkpt lat="46.18959" lon="4.51485">
        <ele>550.4</ele>
        <time>2020-10-17T11:58:49Z</time>
      </trkpt>
      <trkpt lat="46.18956" lon="4.51488">
        <ele>550.2</ele>
        <time>2020-10-17T11:58:50Z</time>
      </trkpt>
      <trkpt lat="46.18956" lon="4.51488">
        <ele>550.2</ele>
        <time>2020-10-17T11:58:51Z</time>
      </trkpt>
      <trkpt lat="46.18955" lon="4.51491">
        <ele>549.8</ele>
        <time>2020-10-17T11:58:52Z</time>
      </trkpt>
      <trkpt lat="46.18955" lon="4.51491">
        <ele>549.6</ele>
        <time>2020-10-17T11:58:53Z</time>
      </trkpt>
      <trkpt lat="46.18953" lon="4.51495">
        <ele>549.6</ele>
        <time>2020-10-17T11:58:54Z</time>
      </trkpt>
      <trkpt lat="46.18953" lon="4.51495">
        <ele>549.4</ele>
        <time>2020-10-17T11:58:55Z</time>
      </trkpt>
      <trkpt lat="46.18952" lon="4.51498">
        <ele>549.4</ele>
        <time>2020-10-17T11:58:56Z</time>
      </trkpt>
      <trkpt lat="46.18952" lon="4.51498">
        <ele>549.2</ele>
        <time>2020-10-17T11:58:57Z</time>
      </trkpt>
      <trkpt lat="46.18951" lon="4.51503">
        <ele>549</ele>
        <time>2020-10-17T11:58:58Z</time>
      </trkpt>
      <trkpt lat="46.18951" lon="4.51503">
        <ele>549</ele>
        <time>2020-10-17T11:58:59Z</time>
      </trkpt>
      <trkpt lat="46.1895" lon="4.51507">
        <ele>549</ele>
        <time>2020-10-17T11:59:00Z</time>
      </trkpt>
      <trkpt lat="46.1895" lon="4.51507">
        <ele>548.8</ele>
        <time>2020-10-17T11:59:01Z</time>
      </trkpt>
      <trkpt lat="46.18949" lon="4.51511">
        <ele>548.6</ele>
        <time>2020-10-17T11:59:02Z</time>
      </trkpt>
      <trkpt lat="46.18949" lon="4.51511">
        <ele>548.6</ele>
        <time>2020-10-17T11:59:03Z</time>
      </trkpt>
      <trkpt lat="46.18949" lon="4.51515">
        <ele>548.4</ele>
        <time>2020-10-17T11:59:04Z</time>
      </trkpt>
      <trkpt lat="46.18949" lon="4.51515">
        <ele>548.2</ele>
        <time>2020-10-17T11:59:05Z</time>
      </trkpt>
      <trkpt lat="46.18948" lon="4.51519">
        <ele>548</ele>
        <time>2020-10-17T11:59:06Z</time>
      </trkpt>
      <trkpt lat="46.18948" lon="4.51519">
        <ele>548</ele>
        <time>2020-10-17T11:59:07Z</time>
      </trkpt>
      <trkpt lat="46.18948" lon="4.51524">
        <ele>548</ele>
        <time>2020-10-17T11:59:08Z</time>
      </trkpt>
      <trkpt lat="46.18948" lon="4.51524">
        <ele>548</ele>
        <time>2020-10-17T11:59:09Z</time>
      </trkpt>
      <trkpt lat="46.18949" lon="4.51527">
        <ele>547.8</ele>
        <time>2020-10-17T11:59:10Z</time>
      </trkpt>
      <trkpt lat="46.18949" lon="4.51527">
        <ele>547.6</ele>
        <time>2020-10-17T11:59:11Z</time>
      </trkpt>
      <trkpt lat="46.18948" lon="4.51531">
        <ele>547.6</ele>
        <time>2020-10-17T11:59:12Z</time>
      </trkpt>
      <trkpt lat="46.18948" lon="4.51531">
        <ele>547.4</ele>
        <time>2020-10-17T11:59:13Z</time>
      </trkpt>
      <trkpt lat="46.18947" lon="4.51535">
        <ele>547.4</ele>
        <time>2020-10-17T11:59:14Z</time>
      </trkpt>
      <trkpt lat="46.18947" lon="4.51535">
        <ele>547.2</ele>
        <time>2020-10-17T11:59:15Z</time>
      </trkpt>
      <trkpt lat="46.18946" lon="4.51539">
        <ele>547</ele>
        <time>2020-10-17T11:59:16Z</time>
      </trkpt>
      <trkpt lat="46.18946" lon="4.51539">
        <ele>547</ele>
        <time>2020-10-17T11:59:17Z</time>
      </trkpt>
      <trkpt lat="46.18945" lon="4.51542">
        <ele>546.8</ele>
        <time>2020-10-17T11:59:18Z</time>
      </trkpt>
      <trkpt lat="46.18945" lon="4.51542">
        <ele>546.6</ele>
        <time>2020-10-17T11:59:19Z</time>
      </trkpt>
      <trkpt lat="46.18943" lon="4.51545">
        <ele>546.4</ele>
        <time>2020-10-17T11:59:20Z</time>
      </trkpt>
      <trkpt lat="46.18943" lon="4.51545">
        <ele>546.2</ele>
        <time>2020-10-17T11:59:21Z</time>
      </trkpt>
      <trkpt lat="46.18942" lon="4.51548">
        <ele>546</ele>
        <time>2020-10-17T11:59:22Z</time>
      </trkpt>
      <trkpt lat="46.18942" lon="4.51548">
        <ele>546</ele>
        <time>2020-10-17T11:59:23Z</time>
      </trkpt>
      <trkpt lat="46.18941" lon="4.51552">
        <ele>545.8</ele>
        <time>2020-10-17T11:59:24Z</time>
      </trkpt>
      <trkpt lat="46.18941" lon="4.51552">
        <ele>545.6</ele>
        <time>2020-10-17T11:59:25Z</time>
      </trkpt>
      <trkpt lat="46.18939" lon="4.51556">
        <ele>545.4</ele>
        <time>2020-10-17T11:59:26Z</time>
      </trkpt>
      <trkpt lat="46.18937" lon="4.51557">
        <ele>544.8</ele>
        <time>2020-10-17T11:59:27Z</time>
      </trkpt>
      <trkpt lat="46.18935" lon="4.51559">
        <ele>544.4</ele>
        <time>2020-10-17T11:59:28Z</time>
      </trkpt>
      <trkpt lat="46.18933" lon="4.51559">
        <ele>544.4</ele>
        <time>2020-10-17T11:59:29Z</time>
      </trkpt>
      <trkpt lat="46.18932" lon="4.5156">
        <ele>544.2</ele>
        <time>2020-10-17T11:59:30Z</time>
      </trkpt>
      <trkpt lat="46.18929" lon="4.5156">
        <ele>544.2</ele>
        <time>2020-10-17T11:59:31Z</time>
      </trkpt>
      <trkpt lat="46.18927" lon="4.5156">
        <ele>544.2</ele>
        <time>2020-10-17T11:59:32Z</time>
      </trkpt>
      <trkpt lat="46.18925" lon="4.5156">
        <ele>544.2</ele>
        <time>2020-10-17T11:59:33Z</time>
      </trkpt>
      <trkpt lat="46.18923" lon="4.5156">
        <ele>544.2</ele>
        <time>2020-10-17T11:59:34Z</time>
      </trkpt>
      <trkpt lat="46.18922" lon="4.5156">
        <ele>544</ele>
        <time>2020-10-17T11:59:35Z</time>
      </trkpt>
      <trkpt lat="46.1892" lon="4.51559">
        <ele>544</ele>
        <time>2020-10-17T11:59:36Z</time>
      </trkpt>
      <trkpt lat="46.18918" lon="4.51559">
        <ele>544</ele>
        <time>2020-10-17T11:59:37Z</time>
      </trkpt>
      <trkpt lat="46.18918" lon="4.51559">
        <ele>543.6</ele>
        <time>2020-10-17T11:59:38Z</time>
      </trkpt>
      <trkpt lat="46.18914" lon="4.51559">
        <ele>543.6</ele>
        <time>2020-10-17T11:59:39Z</time>
      </trkpt>
      <trkpt lat="46.18914" lon="4.51559">
        <ele>543.8</ele>
        <time>2020-10-17T11:59:40Z</time>
      </trkpt>
      <trkpt lat="46.18911" lon="4.51558">
        <ele>543.6</ele>
        <time>2020-10-17T11:59:41Z</time>
      </trkpt>
      <trkpt lat="46.18911" lon="4.51558">
        <ele>543.6</ele>
        <time>2020-10-17T11:59:42Z</time>
      </trkpt>
      <trkpt lat="46.18908" lon="4.51558">
        <ele>543.8</ele>
        <time>2020-10-17T11:59:43Z</time>
      </trkpt>
      <trkpt lat="46.18908" lon="4.51558">
        <ele>543.8</ele>
        <time>2020-10-17T11:59:44Z</time>
      </trkpt>
      <trkpt lat="46.18904" lon="4.51557">
        <ele>543.8</ele>
        <time>2020-10-17T11:59:45Z</time>
      </trkpt>
      <trkpt lat="46.18904" lon="4.51557">
        <ele>543.6</ele>
        <time>2020-10-17T11:59:46Z</time>
      </trkpt>
      <trkpt lat="46.18901" lon="4.51557">
        <ele>543.4</ele>
        <time>2020-10-17T11:59:47Z</time>
      </trkpt>
      <trkpt lat="46.18899" lon="4.51556">
        <ele>543.2</ele>
        <time>2020-10-17T11:59:48Z</time>
      </trkpt>
      <trkpt lat="46.18897" lon="4.51556">
        <ele>543</ele>
        <time>2020-10-17T11:59:49Z</time>
      </trkpt>
      <trkpt lat="46.18897" lon="4.51556">
        <ele>543</ele>
        <time>2020-10-17T11:59:50Z</time>
      </trkpt>
      <trkpt lat="46.18894" lon="4.51556">
        <ele>542.8</ele>
        <time>2020-10-17T11:59:51Z</time>
      </trkpt>
      <trkpt lat="46.18894" lon="4.51556">
        <ele>542.6</ele>
        <time>2020-10-17T11:59:52Z</time>
      </trkpt>
      <trkpt lat="46.18891" lon="4.51554">
        <ele>542.6</ele>
        <time>2020-10-17T11:59:53Z</time>
      </trkpt>
      <trkpt lat="46.18891" lon="4.51554">
        <ele>542.4</ele>
        <time>2020-10-17T11:59:54Z</time>
      </trkpt>
      <trkpt lat="46.18888" lon="4.51553">
        <ele>542.6</ele>
        <time>2020-10-17T11:59:55Z</time>
      </trkpt>
      <trkpt lat="46.18888" lon="4.51553">
        <ele>542.8</ele>
        <time>2020-10-17T11:59:56Z</time>
      </trkpt>
      <trkpt lat="46.18885" lon="4.51552">
        <ele>542.8</ele>
        <time>2020-10-17T11:59:57Z</time>
      </trkpt>
      <trkpt lat="46.18885" lon="4.51552">
        <ele>542.6</ele>
        <time>2020-10-17T11:59:58Z</time>
      </trkpt>
      <trkpt lat="46.18882" lon="4.51551">
        <ele>542.6</ele>
        <time>2020-10-17T11:59:59Z</time>
      </trkpt>
      <trkpt lat="46.18882" lon="4.51551">
        <ele>542.2</ele>
        <time>2020-10-17T12:00:00Z</time>
      </trkpt>
      <trkpt lat="46.18878" lon="4.51551">
        <ele>542.2</ele>
        <time>2020-10-17T12:00:01Z</time>
      </trkpt>
      <trkpt lat="46.18878" lon="4.51551">
        <ele>542.2</ele>
        <time>2020-10-17T12:00:02Z</time>
      </trkpt>
      <trkpt lat="46.18875" lon="4.51551">
        <ele>542</ele>
        <time>2020-10-17T12:00:03Z</time>
      </trkpt>
      <trkpt lat="46.18875" lon="4.51551">
        <ele>541.6</ele>
        <time>2020-10-17T12:00:04Z</time>
      </trkpt>
      <trkpt lat="46.18872" lon="4.51549">
        <ele>541.4</ele>
        <time>2020-10-17T12:00:05Z</time>
      </trkpt>
      <trkpt lat="46.18872" lon="4.51549">
        <ele>541.4</ele>
        <time>2020-10-17T12:00:06Z</time>
      </trkpt>
      <trkpt lat="46.18869" lon="4.51548">
        <ele>541.2</ele>
        <time>2020-10-17T12:00:07Z</time>
      </trkpt>
      <trkpt lat="46.18869" lon="4.51548">
        <ele>541.2</ele>
        <time>2020-10-17T12:00:08Z</time>
      </trkpt>
      <trkpt lat="46.18866" lon="4.51548">
        <ele>541.4</ele>
        <time>2020-10-17T12:00:09Z</time>
      </trkpt>
      <trkpt lat="46.18866" lon="4.51548">
        <ele>541.4</ele>
        <time>2020-10-17T12:00:10Z</time>
      </trkpt>
      <trkpt lat="46.18863" lon="4.51548">
        <ele>541.2</ele>
        <time>2020-10-17T12:00:11Z</time>
      </trkpt>
      <trkpt lat="46.18863" lon="4.51548">
        <ele>541</ele>
        <time>2020-10-17T12:00:12Z</time>
      </trkpt>
      <trkpt lat="46.1886" lon="4.51546">
        <ele>541</ele>
        <time>2020-10-17T12:00:13Z</time>
      </trkpt>
      <trkpt lat="46.1886" lon="4.51546">
        <ele>541.4</ele>
        <time>2020-10-17T12:00:14Z</time>
      </trkpt>
      <trkpt lat="46.18857" lon="4.51544">
        <ele>541.2</ele>
        <time>2020-10-17T12:00:15Z</time>
      </trkpt>
      <trkpt lat="46.18857" lon="4.51544">
        <ele>541.2</ele>
        <time>2020-10-17T12:00:16Z</time>
      </trkpt>
      <trkpt lat="46.18853" lon="4.51544">
        <ele>541.2</ele>
        <time>2020-10-17T12:00:17Z</time>
      </trkpt>
      <trkpt lat="46.18853" lon="4.51544">
        <ele>541</ele>
        <time>2020-10-17T12:00:18Z</time>
      </trkpt>
      <trkpt lat="46.1885" lon="4.51544">
        <ele>541</ele>
        <time>2020-10-17T12:00:19Z</time>
      </trkpt>
      <trkpt lat="46.18848" lon="4.51544">
        <ele>540.8</ele>
        <time>2020-10-17T12:00:20Z</time>
      </trkpt>
      <trkpt lat="46.18846" lon="4.51544">
        <ele>540.6</ele>
        <time>2020-10-17T12:00:21Z</time>
      </trkpt>
      <trkpt lat="46.18844" lon="4.51543">
        <ele>540.4</ele>
        <time>2020-10-17T12:00:22Z</time>
      </trkpt>
      <trkpt lat="46.18844" lon="4.51543">
        <ele>540.4</ele>
        <time>2020-10-17T12:00:23Z</time>
      </trkpt>
      <trkpt lat="46.18841" lon="4.51543">
        <ele>540.4</ele>
        <time>2020-10-17T12:00:24Z</time>
      </trkpt>
      <trkpt lat="46.18841" lon="4.51543">
        <ele>540.4</ele>
        <time>2020-10-17T12:00:25Z</time>
      </trkpt>
      <trkpt lat="46.18837" lon="4.51542">
        <ele>540</ele>
        <time>2020-10-17T12:00:26Z</time>
      </trkpt>
      <trkpt lat="46.18837" lon="4.51542">
        <ele>540.2</ele>
        <time>2020-10-17T12:00:27Z</time>
      </trkpt>
      <trkpt lat="46.18834" lon="4.51541">
        <ele>540</ele>
        <time>2020-10-17T12:00:28Z</time>
      </trkpt>
      <trkpt lat="46.18834" lon="4.51541">
        <ele>540</ele>
        <time>2020-10-17T12:00:29Z</time>
      </trkpt>
      <trkpt lat="46.1883" lon="4.5154">
        <ele>539.8</ele>
        <time>2020-10-17T12:00:30Z</time>
      </trkpt>
      <trkpt lat="46.1883" lon="4.5154">
        <ele>539.6</ele>
        <time>2020-10-17T12:00:31Z</time>
      </trkpt>
      <trkpt lat="46.18827" lon="4.51539">
        <ele>539.4</ele>
        <time>2020-10-17T12:00:32Z</time>
      </trkpt>
      <trkpt lat="46.18827" lon="4.51539">
        <ele>539.2</ele>
        <time>2020-10-17T12:00:33Z</time>
      </trkpt>
      <trkpt lat="46.18824" lon="4.51538">
        <ele>539.2</ele>
        <time>2020-10-17T12:00:34Z</time>
      </trkpt>
      <trkpt lat="46.18824" lon="4.51538">
        <ele>539</ele>
        <time>2020-10-17T12:00:35Z</time>
      </trkpt>
      <trkpt lat="46.18821" lon="4.51536">
        <ele>539</ele>
        <time>2020-10-17T12:00:36Z</time>
      </trkpt>
      <trkpt lat="46.18821" lon="4.51536">
        <ele>539</ele>
        <time>2020-10-17T12:00:37Z</time>
      </trkpt>
      <trkpt lat="46.18818" lon="4.51534">
        <ele>539</ele>
        <time>2020-10-17T12:00:38Z</time>
      </trkpt>
      <trkpt lat="46.18818" lon="4.51534">
        <ele>538.6</ele>
        <time>2020-10-17T12:00:39Z</time>
      </trkpt>
      <trkpt lat="46.18815" lon="4.51532">
        <ele>538.8</ele>
        <time>2020-10-17T12:00:40Z</time>
      </trkpt>
      <trkpt lat="46.18815" lon="4.51532">
        <ele>539.2</ele>
        <time>2020-10-17T12:00:41Z</time>
      </trkpt>
      <trkpt lat="46.18812" lon="4.5153">
        <ele>539.2</ele>
        <time>2020-10-17T12:00:42Z</time>
      </trkpt>
      <trkpt lat="46.18812" lon="4.5153">
        <ele>539.4</ele>
        <time>2020-10-17T12:00:43Z</time>
      </trkpt>
      <trkpt lat="46.18809" lon="4.51528">
        <ele>539.6</ele>
        <time>2020-10-17T12:00:44Z</time>
      </trkpt>
      <trkpt lat="46.18809" lon="4.51528">
        <ele>539.6</ele>
        <time>2020-10-17T12:00:45Z</time>
      </trkpt>
      <trkpt lat="46.18806" lon="4.51527">
        <ele>539.2</ele>
        <time>2020-10-17T12:00:46Z</time>
      </trkpt>
      <trkpt lat="46.18806" lon="4.51527">
        <ele>539.4</ele>
        <time>2020-10-17T12:00:47Z</time>
      </trkpt>
      <trkpt lat="46.18803" lon="4.51525">
        <ele>539.4</ele>
        <time>2020-10-17T12:00:48Z</time>
      </trkpt>
      <trkpt lat="46.18803" lon="4.51525">
        <ele>539.2</ele>
        <time>2020-10-17T12:00:49Z</time>
      </trkpt>
      <trkpt lat="46.188" lon="4.51523">
        <ele>539.2</ele>
        <time>2020-10-17T12:00:50Z</time>
      </trkpt>
      <trkpt lat="46.188" lon="4.51523">
        <ele>539</ele>
        <time>2020-10-17T12:00:51Z</time>
      </trkpt>
      <trkpt lat="46.18797" lon="4.51521">
        <ele>538.8</ele>
        <time>2020-10-17T12:00:52Z</time>
      </trkpt>
      <trkpt lat="46.18797" lon="4.51521">
        <ele>539</ele>
        <time>2020-10-17T12:00:53Z</time>
      </trkpt>
      <trkpt lat="46.18794" lon="4.51519">
        <ele>538.8</ele>
        <time>2020-10-17T12:00:54Z</time>
      </trkpt>
      <trkpt lat="46.18794" lon="4.51519">
        <ele>539.2</ele>
        <time>2020-10-17T12:00:55Z</time>
      </trkpt>
      <trkpt lat="46.18791" lon="4.51517">
        <ele>539.4</ele>
        <time>2020-10-17T12:00:56Z</time>
      </trkpt>
      <trkpt lat="46.18791" lon="4.51517">
        <ele>539.2</ele>
        <time>2020-10-17T12:00:57Z</time>
      </trkpt>
      <trkpt lat="46.18788" lon="4.51515">
        <ele>539.4</ele>
        <time>2020-10-17T12:00:58Z</time>
      </trkpt>
      <trkpt lat="46.18788" lon="4.51515">
        <ele>539.4</ele>
        <time>2020-10-17T12:00:59Z</time>
      </trkpt>
      <trkpt lat="46.18785" lon="4.51513">
        <ele>539.2</ele>
        <time>2020-10-17T12:01:00Z</time>
      </trkpt>
      <trkpt lat="46.18785" lon="4.51513">
        <ele>539.4</ele>
        <time>2020-10-17T12:01:01Z</time>
      </trkpt>
      <trkpt lat="46.18782" lon="4.51511">
        <ele>539.4</ele>
        <time>2020-10-17T12:01:02Z</time>
      </trkpt>
      <trkpt lat="46.18782" lon="4.51511">
        <ele>539.2</ele>
        <time>2020-10-17T12:01:03Z</time>
      </trkpt>
      <trkpt lat="46.18779" lon="4.51511">
        <ele>539.4</ele>
        <time>2020-10-17T12:01:04Z</time>
      </trkpt>
      <trkpt lat="46.18779" lon="4.51511">
        <ele>539.4</ele>
        <time>2020-10-17T12:01:05Z</time>
      </trkpt>
      <trkpt lat="46.18779" lon="4.51511">
        <ele>539.4</ele>
        <time>2020-10-17T12:01:06Z</time>
      </trkpt>
      <trkpt lat="46.18779" lon="4.51511">
        <ele>539.2</ele>
        <time>2020-10-17T12:01:07Z</time>
      </trkpt>
      <trkpt lat="46.18779" lon="4.51511">
        <ele>539.2</ele>
        <time>2020-10-17T12:01:08Z</time>
      </trkpt>
      <trkpt lat="46.18779" lon="4.51511">
        <ele>539.2</ele>
        <time>2020-10-17T12:01:09Z</time>
      </trkpt>
      <trkpt lat="46.18779" lon="4.51511">
        <ele>539.2</ele>
        <time>2020-10-17T12:01:10Z</time>
      </trkpt>
      <trkpt lat="46.18779" lon="4.51511">
        <ele>539</ele>
        <time>2020-10-17T12:01:11Z</time>
      </trkpt>
      <trkpt lat="46.18779" lon="4.51511">
        <ele>539</ele>
        <time>2020-10-17T12:01:12Z</time>
      </trkpt>
      <trkpt lat="46.18779" lon="4.51511">
        <ele>539</ele>
        <time>2020-10-17T12:01:13Z</time>
      </trkpt>
      <trkpt lat="46.18779" lon="4.51511">
        <ele>539.2</ele>
        <time>2020-10-17T12:01:14Z</time>
      </trkpt>
      <trkpt lat="46.18779" lon="4.51511">
        <ele>539</ele>
        <time>2020-10-17T12:01:15Z</time>
      </trkpt>
      <trkpt lat="46.18779" lon="4.51511">
        <ele>538.8</ele>
        <time>2020-10-17T12:01:16Z</time>
      </trkpt>
      <trkpt lat="46.18779" lon="4.51511">
        <ele>538.8</ele>
        <time>2020-10-17T12:01:17Z</time>
      </trkpt>
      <trkpt lat="46.18779" lon="4.51511">
        <ele>538.8</ele>
        <time>2020-10-17T12:01:18Z</time>
      </trkpt>
      <trkpt lat="46.18779" lon="4.51511">
        <ele>539</ele>
        <time>2020-10-17T12:01:19Z</time>
      </trkpt>
      <trkpt lat="46.18777" lon="4.5151">
        <ele>539</ele>
        <time>2020-10-17T12:01:20Z</time>
      </trkpt>
      <trkpt lat="46.18777" lon="4.5151">
        <ele>539</ele>
        <time>2020-10-17T12:01:21Z</time>
      </trkpt>
      <trkpt lat="46.18775" lon="4.51507">
        <ele>539</ele>
        <time>2020-10-17T12:01:22Z</time>
      </trkpt>
      <trkpt lat="46.18775" lon="4.51507">
        <ele>539</ele>
        <time>2020-10-17T12:01:23Z</time>
      </trkpt>
      <trkpt lat="46.18772" lon="4.51505">
        <ele>539</ele>
        <time>2020-10-17T12:01:24Z</time>
      </trkpt>
      <trkpt lat="46.18772" lon="4.51505">
        <ele>538.8</ele>
        <time>2020-10-17T12:01:25Z</time>
      </trkpt>
      <trkpt lat="46.18769" lon="4.51503">
        <ele>538.8</ele>
        <time>2020-10-17T12:01:26Z</time>
      </trkpt>
      <trkpt lat="46.18769" lon="4.51503">
        <ele>538.8</ele>
        <time>2020-10-17T12:01:27Z</time>
      </trkpt>
      <trkpt lat="46.18767" lon="4.51501">
        <ele>539.2</ele>
        <time>2020-10-17T12:01:28Z</time>
      </trkpt>
      <trkpt lat="46.18767" lon="4.51501">
        <ele>539</ele>
        <time>2020-10-17T12:01:29Z</time>
      </trkpt>
      <trkpt lat="46.18764" lon="4.51498">
        <ele>539.2</ele>
        <time>2020-10-17T12:01:30Z</time>
      </trkpt>
      <trkpt lat="46.18764" lon="4.51498">
        <ele>539.6</ele>
        <time>2020-10-17T12:01:31Z</time>
      </trkpt>
      <trkpt lat="46.18761" lon="4.51496">
        <ele>539.4</ele>
        <time>2020-10-17T12:01:32Z</time>
      </trkpt>
      <trkpt lat="46.18761" lon="4.51496">
        <ele>539.2</ele>
        <time>2020-10-17T12:01:33Z</time>
      </trkpt>
      <trkpt lat="46.18758" lon="4.51494">
        <ele>539</ele>
        <time>2020-10-17T12:01:34Z</time>
      </trkpt>
      <trkpt lat="46.18758" lon="4.51494">
        <ele>539</ele>
        <time>2020-10-17T12:01:35Z</time>
      </trkpt>
      <trkpt lat="46.18756" lon="4.51492">
        <ele>539</ele>
        <time>2020-10-17T12:01:36Z</time>
      </trkpt>
      <trkpt lat="46.18756" lon="4.51492">
        <ele>539</ele>
        <time>2020-10-17T12:01:37Z</time>
      </trkpt>
      <trkpt lat="46.18753" lon="4.5149">
        <ele>539.2</ele>
        <time>2020-10-17T12:01:38Z</time>
      </trkpt>
      <trkpt lat="46.18753" lon="4.5149">
        <ele>539</ele>
        <time>2020-10-17T12:01:39Z</time>
      </trkpt>
      <trkpt lat="46.1875" lon="4.51488">
        <ele>539.2</ele>
        <time>2020-10-17T12:01:40Z</time>
      </trkpt>
      <trkpt lat="46.18748" lon="4.51487">
        <ele>539</ele>
        <time>2020-10-17T12:01:41Z</time>
      </trkpt>
      <trkpt lat="46.18748" lon="4.51487">
        <ele>539.2</ele>
        <time>2020-10-17T12:01:42Z</time>
      </trkpt>
      <trkpt lat="46.18745" lon="4.51485">
        <ele>539.2</ele>
        <time>2020-10-17T12:01:43Z</time>
      </trkpt>
      <trkpt lat="46.18745" lon="4.51485">
        <ele>539</ele>
        <time>2020-10-17T12:01:44Z</time>
      </trkpt>
      <trkpt lat="46.18742" lon="4.51483">
        <ele>538.8</ele>
        <time>2020-10-17T12:01:45Z</time>
      </trkpt>
      <trkpt lat="46.18742" lon="4.51483">
        <ele>539</ele>
        <time>2020-10-17T12:01:46Z</time>
      </trkpt>
      <trkpt lat="46.1874" lon="4.51481">
        <ele>539</ele>
        <time>2020-10-17T12:01:47Z</time>
      </trkpt>
      <trkpt lat="46.1874" lon="4.51481">
        <ele>539</ele>
        <time>2020-10-17T12:01:48Z</time>
      </trkpt>
      <trkpt lat="46.18737" lon="4.5148">
        <ele>539</ele>
        <time>2020-10-17T12:01:49Z</time>
      </trkpt>
      <trkpt lat="46.18737" lon="4.5148">
        <ele>538.8</ele>
        <time>2020-10-17T12:01:50Z</time>
      </trkpt>
      <trkpt lat="46.18734" lon="4.51478">
        <ele>538.8</ele>
        <time>2020-10-17T12:01:51Z</time>
      </trkpt>
      <trkpt lat="46.18734" lon="4.51478">
        <ele>538.6</ele>
        <time>2020-10-17T12:01:52Z</time>
      </trkpt>
      <trkpt lat="46.18732" lon="4.51475">
        <ele>538.6</ele>
        <time>2020-10-17T12:01:53Z</time>
      </trkpt>
      <trkpt lat="46.18732" lon="4.51475">
        <ele>538.4</ele>
        <time>2020-10-17T12:01:54Z</time>
      </trkpt>
      <trkpt lat="46.18729" lon="4.51472">
        <ele>538.4</ele>
        <time>2020-10-17T12:01:55Z</time>
      </trkpt>
      <trkpt lat="46.18729" lon="4.51472">
        <ele>538.4</ele>
        <time>2020-10-17T12:01:56Z</time>
      </trkpt>
      <trkpt lat="46.18727" lon="4.51471">
        <ele>538.4</ele>
        <time>2020-10-17T12:01:57Z</time>
      </trkpt>
      <trkpt lat="46.18727" lon="4.51471">
        <ele>538.4</ele>
        <time>2020-10-17T12:01:58Z</time>
      </trkpt>
      <trkpt lat="46.18725" lon="4.51469">
        <ele>538.4</ele>
        <time>2020-10-17T12:01:59Z</time>
      </trkpt>
      <trkpt lat="46.18725" lon="4.51469">
        <ele>538.4</ele>
        <time>2020-10-17T12:02:00Z</time>
      </trkpt>
      <trkpt lat="46.18722" lon="4.51467">
        <ele>538.4</ele>
        <time>2020-10-17T12:02:01Z</time>
      </trkpt>
      <trkpt lat="46.1872" lon="4.51467">
        <ele>538.4</ele>
        <time>2020-10-17T12:02:02Z</time>
      </trkpt>
      <trkpt lat="46.18718" lon="4.51465">
        <ele>538.2</ele>
        <time>2020-10-17T12:02:03Z</time>
      </trkpt>
      <trkpt lat="46.18716" lon="4.51464">
        <ele>538.2</ele>
        <time>2020-10-17T12:02:04Z</time>
      </trkpt>
      <trkpt lat="46.18714" lon="4.51463">
        <ele>538.2</ele>
        <time>2020-10-17T12:02:05Z</time>
      </trkpt>
      <trkpt lat="46.18714" lon="4.51463">
        <ele>538.2</ele>
        <time>2020-10-17T12:02:06Z</time>
      </trkpt>
      <trkpt lat="46.18711" lon="4.5146">
        <ele>538</ele>
        <time>2020-10-17T12:02:07Z</time>
      </trkpt>
      <trkpt lat="46.18711" lon="4.5146">
        <ele>538</ele>
        <time>2020-10-17T12:02:08Z</time>
      </trkpt>
      <trkpt lat="46.18708" lon="4.51459">
        <ele>538</ele>
        <time>2020-10-17T12:02:09Z</time>
      </trkpt>
      <trkpt lat="46.18708" lon="4.51459">
        <ele>537.8</ele>
        <time>2020-10-17T12:02:10Z</time>
      </trkpt>
      <trkpt lat="46.18705" lon="4.51456">
        <ele>537.6</ele>
        <time>2020-10-17T12:02:11Z</time>
      </trkpt>
      <trkpt lat="46.18705" lon="4.51456">
        <ele>537.6</ele>
        <time>2020-10-17T12:02:12Z</time>
      </trkpt>
      <trkpt lat="46.18702" lon="4.51453">
        <ele>537.4</ele>
        <time>2020-10-17T12:02:13Z</time>
      </trkpt>
      <trkpt lat="46.187" lon="4.51452">
        <ele>537.2</ele>
        <time>2020-10-17T12:02:14Z</time>
      </trkpt>
      <trkpt lat="46.187" lon="4.51452">
        <ele>537.2</ele>
        <time>2020-10-17T12:02:15Z</time>
      </trkpt>
      <trkpt lat="46.18698" lon="4.51449">
        <ele>537.2</ele>
        <time>2020-10-17T12:02:16Z</time>
      </trkpt>
      <trkpt lat="46.18698" lon="4.51449">
        <ele>537.2</ele>
        <time>2020-10-17T12:02:17Z</time>
      </trkpt>
      <trkpt lat="46.18695" lon="4.51447">
        <ele>537.2</ele>
        <time>2020-10-17T12:02:18Z</time>
      </trkpt>
      <trkpt lat="46.18695" lon="4.51447">
        <ele>537.4</ele>
        <time>2020-10-17T12:02:19Z</time>
      </trkpt>
      <trkpt lat="46.18692" lon="4.51445">
        <ele>537.2</ele>
        <time>2020-10-17T12:02:20Z</time>
      </trkpt>
      <trkpt lat="46.18692" lon="4.51445">
        <ele>537.2</ele>
        <time>2020-10-17T12:02:21Z</time>
      </trkpt>
      <trkpt lat="46.18689" lon="4.51443">
        <ele>537.4</ele>
        <time>2020-10-17T12:02:22Z</time>
      </trkpt>
      <trkpt lat="46.18689" lon="4.51443">
        <ele>537.6</ele>
        <time>2020-10-17T12:02:23Z</time>
      </trkpt>
      <trkpt lat="46.18686" lon="4.51441">
        <ele>537.4</ele>
        <time>2020-10-17T12:02:24Z</time>
      </trkpt>
      <trkpt lat="46.18686" lon="4.51441">
        <ele>537.2</ele>
        <time>2020-10-17T12:02:25Z</time>
      </trkpt>
      <trkpt lat="46.18683" lon="4.51439">
        <ele>537</ele>
        <time>2020-10-17T12:02:26Z</time>
      </trkpt>
      <trkpt lat="46.18683" lon="4.51439">
        <ele>536.8</ele>
        <time>2020-10-17T12:02:27Z</time>
      </trkpt>
      <trkpt lat="46.18681" lon="4.51437">
        <ele>537</ele>
        <time>2020-10-17T12:02:28Z</time>
      </trkpt>
      <trkpt lat="46.18681" lon="4.51437">
        <ele>537.2</ele>
        <time>2020-10-17T12:02:29Z</time>
      </trkpt>
      <trkpt lat="46.18678" lon="4.51436">
        <ele>537.2</ele>
        <time>2020-10-17T12:02:30Z</time>
      </trkpt>
      <trkpt lat="46.18676" lon="4.51435">
        <ele>537.4</ele>
        <time>2020-10-17T12:02:31Z</time>
      </trkpt>
      <trkpt lat="46.18676" lon="4.51435">
        <ele>537.4</ele>
        <time>2020-10-17T12:02:32Z</time>
      </trkpt>
      <trkpt lat="46.18673" lon="4.51434">
        <ele>537.4</ele>
        <time>2020-10-17T12:02:33Z</time>
      </trkpt>
      <trkpt lat="46.18673" lon="4.51434">
        <ele>537.2</ele>
        <time>2020-10-17T12:02:34Z</time>
      </trkpt>
      <trkpt lat="46.18669" lon="4.51432">
        <ele>537.4</ele>
        <time>2020-10-17T12:02:35Z</time>
      </trkpt>
      <trkpt lat="46.18669" lon="4.51432">
        <ele>537.2</ele>
        <time>2020-10-17T12:02:36Z</time>
      </trkpt>
      <trkpt lat="46.18666" lon="4.51431">
        <ele>537</ele>
        <time>2020-10-17T12:02:37Z</time>
      </trkpt>
      <trkpt lat="46.18666" lon="4.51431">
        <ele>536.6</ele>
        <time>2020-10-17T12:02:38Z</time>
      </trkpt>
      <trkpt lat="46.18664" lon="4.51431">
        <ele>536.2</ele>
        <time>2020-10-17T12:02:39Z</time>
      </trkpt>
      <trkpt lat="46.18664" lon="4.51431">
        <ele>536.2</ele>
        <time>2020-10-17T12:02:40Z</time>
      </trkpt>
      <trkpt lat="46.18661" lon="4.5143">
        <ele>536</ele>
        <time>2020-10-17T12:02:41Z</time>
      </trkpt>
      <trkpt lat="46.1866" lon="4.51429">
        <ele>536</ele>
        <time>2020-10-17T12:02:42Z</time>
      </trkpt>
      <trkpt lat="46.1866" lon="4.51429">
        <ele>536</ele>
        <time>2020-10-17T12:02:43Z</time>
      </trkpt>
      <trkpt lat="46.18657" lon="4.51428">
        <ele>535.8</ele>
        <time>2020-10-17T12:02:44Z</time>
      </trkpt>
      <trkpt lat="46.18657" lon="4.51428">
        <ele>536</ele>
        <time>2020-10-17T12:02:45Z</time>
      </trkpt>
      <trkpt lat="46.18655" lon="4.51427">
        <ele>535.8</ele>
        <time>2020-10-17T12:02:46Z</time>
      </trkpt>
      <trkpt lat="46.18653" lon="4.51426">
        <ele>536.2</ele>
        <time>2020-10-17T12:02:47Z</time>
      </trkpt>
      <trkpt lat="46.18653" lon="4.51426">
        <ele>536.2</ele>
        <time>2020-10-17T12:02:48Z</time>
      </trkpt>
      <trkpt lat="46.1865" lon="4.51425">
        <ele>535.8</ele>
        <time>2020-10-17T12:02:49Z</time>
      </trkpt>
      <trkpt lat="46.1865" lon="4.51425">
        <ele>535.4</ele>
        <time>2020-10-17T12:02:50Z</time>
      </trkpt>
      <trkpt lat="46.18647" lon="4.51425">
        <ele>535.4</ele>
        <time>2020-10-17T12:02:51Z</time>
      </trkpt>
      <trkpt lat="46.18647" lon="4.51425">
        <ele>535.4</ele>
        <time>2020-10-17T12:02:52Z</time>
      </trkpt>
      <trkpt lat="46.18644" lon="4.51424">
        <ele>535.4</ele>
        <time>2020-10-17T12:02:53Z</time>
      </trkpt>
      <trkpt lat="46.18644" lon="4.51424">
        <ele>535.2</ele>
        <time>2020-10-17T12:02:54Z</time>
      </trkpt>
      <trkpt lat="46.18642" lon="4.51423">
        <ele>535.2</ele>
        <time>2020-10-17T12:02:55Z</time>
      </trkpt>
      <trkpt lat="46.18642" lon="4.51423">
        <ele>535.2</ele>
        <time>2020-10-17T12:02:56Z</time>
      </trkpt>
      <trkpt lat="46.18639" lon="4.51422">
        <ele>535.4</ele>
        <time>2020-10-17T12:02:57Z</time>
      </trkpt>
      <trkpt lat="46.18637" lon="4.51421">
        <ele>535.2</ele>
        <time>2020-10-17T12:02:58Z</time>
      </trkpt>
      <trkpt lat="46.18637" lon="4.51421">
        <ele>535.2</ele>
        <time>2020-10-17T12:02:59Z</time>
      </trkpt>
      <trkpt lat="46.18634" lon="4.5142">
        <ele>535.2</ele>
        <time>2020-10-17T12:03:00Z</time>
      </trkpt>
      <trkpt lat="46.18634" lon="4.5142">
        <ele>535</ele>
        <time>2020-10-17T12:03:01Z</time>
      </trkpt>
      <trkpt lat="46.18631" lon="4.51417">
        <ele>535</ele>
        <time>2020-10-17T12:03:02Z</time>
      </trkpt>
      <trkpt lat="46.18629" lon="4.51416">
        <ele>535.2</ele>
        <time>2020-10-17T12:03:03Z</time>
      </trkpt>
      <trkpt lat="46.18629" lon="4.51416">
        <ele>535.2</ele>
        <time>2020-10-17T12:03:04Z</time>
      </trkpt>
      <trkpt lat="46.18626" lon="4.51415">
        <ele>535.6</ele>
        <time>2020-10-17T12:03:05Z</time>
      </trkpt>
      <trkpt lat="46.18626" lon="4.51415">
        <ele>535.4</ele>
        <time>2020-10-17T12:03:06Z</time>
      </trkpt>
      <trkpt lat="46.18624" lon="4.51414">
        <ele>535.2</ele>
        <time>2020-10-17T12:03:07Z</time>
      </trkpt>
      <trkpt lat="46.18622" lon="4.51413">
        <ele>535</ele>
        <time>2020-10-17T12:03:08Z</time>
      </trkpt>
      <trkpt lat="46.18622" lon="4.51413">
        <ele>534.8</ele>
        <time>2020-10-17T12:03:09Z</time>
      </trkpt>
      <trkpt lat="46.18619" lon="4.51413">
        <ele>534.6</ele>
        <time>2020-10-17T12:03:10Z</time>
      </trkpt>
      <trkpt lat="46.18617" lon="4.51412">
        <ele>534.8</ele>
        <time>2020-10-17T12:03:11Z</time>
      </trkpt>
      <trkpt lat="46.18615" lon="4.51412">
        <ele>534.6</ele>
        <time>2020-10-17T12:03:12Z</time>
      </trkpt>
      <trkpt lat="46.18612" lon="4.51412">
        <ele>534.6</ele>
        <time>2020-10-17T12:03:13Z</time>
      </trkpt>
      <trkpt lat="46.1861" lon="4.51411">
        <ele>534.4</ele>
        <time>2020-10-17T12:03:14Z</time>
      </trkpt>
      <trkpt lat="46.18608" lon="4.51411">
        <ele>534.2</ele>
        <time>2020-10-17T12:03:15Z</time>
      </trkpt>
      <trkpt lat="46.18608" lon="4.51411">
        <ele>534.4</ele>
        <time>2020-10-17T12:03:16Z</time>
      </trkpt>
      <trkpt lat="46.18606" lon="4.51409">
        <ele>534.4</ele>
        <time>2020-10-17T12:03:17Z</time>
      </trkpt>
      <trkpt lat="46.18606" lon="4.51409">
        <ele>534.2</ele>
        <time>2020-10-17T12:03:18Z</time>
      </trkpt>
      <trkpt lat="46.18603" lon="4.51409">
        <ele>534.6</ele>
        <time>2020-10-17T12:03:19Z</time>
      </trkpt>
      <trkpt lat="46.18603" lon="4.51409">
        <ele>534.6</ele>
        <time>2020-10-17T12:03:20Z</time>
      </trkpt>
      <trkpt lat="46.18599" lon="4.51409">
        <ele>534.4</ele>
        <time>2020-10-17T12:03:21Z</time>
      </trkpt>
      <trkpt lat="46.18597" lon="4.51409">
        <ele>534.4</ele>
        <time>2020-10-17T12:03:22Z</time>
      </trkpt>
      <trkpt lat="46.18597" lon="4.51409">
        <ele>534.2</ele>
        <time>2020-10-17T12:03:23Z</time>
      </trkpt>
      <trkpt lat="46.18594" lon="4.51409">
        <ele>534.2</ele>
        <time>2020-10-17T12:03:24Z</time>
      </trkpt>
      <trkpt lat="46.18591" lon="4.51408">
        <ele>534.2</ele>
        <time>2020-10-17T12:03:25Z</time>
      </trkpt>
      <trkpt lat="46.18589" lon="4.51408">
        <ele>534.2</ele>
        <time>2020-10-17T12:03:26Z</time>
      </trkpt>
      <trkpt lat="46.18587" lon="4.51408">
        <ele>534.2</ele>
        <time>2020-10-17T12:03:27Z</time>
      </trkpt>
      <trkpt lat="46.18587" lon="4.51408">
        <ele>534.6</ele>
        <time>2020-10-17T12:03:28Z</time>
      </trkpt>
      <trkpt lat="46.18584" lon="4.51409">
        <ele>534.6</ele>
        <time>2020-10-17T12:03:29Z</time>
      </trkpt>
      <trkpt lat="46.18584" lon="4.51409">
        <ele>534.6</ele>
        <time>2020-10-17T12:03:30Z</time>
      </trkpt>
      <trkpt lat="46.1858" lon="4.51409">
        <ele>534.4</ele>
        <time>2020-10-17T12:03:31Z</time>
      </trkpt>
      <trkpt lat="46.18578" lon="4.51408">
        <ele>534.4</ele>
        <time>2020-10-17T12:03:32Z</time>
      </trkpt>
      <trkpt lat="46.18578" lon="4.51408">
        <ele>534.2</ele>
        <time>2020-10-17T12:03:33Z</time>
      </trkpt>
      <trkpt lat="46.18575" lon="4.51409">
        <ele>534.2</ele>
        <time>2020-10-17T12:03:34Z</time>
      </trkpt>
      <trkpt lat="46.18573" lon="4.51409">
        <ele>534</ele>
        <time>2020-10-17T12:03:35Z</time>
      </trkpt>
      <trkpt lat="46.18571" lon="4.51409">
        <ele>534</ele>
        <time>2020-10-17T12:03:36Z</time>
      </trkpt>
      <trkpt lat="46.18571" lon="4.51409">
        <ele>534</ele>
        <time>2020-10-17T12:03:37Z</time>
      </trkpt>
      <trkpt lat="46.18568" lon="4.51408">
        <ele>534</ele>
        <time>2020-10-17T12:03:38Z</time>
      </trkpt>
      <trkpt lat="46.18568" lon="4.51408">
        <ele>533.8</ele>
        <time>2020-10-17T12:03:39Z</time>
      </trkpt>
      <trkpt lat="46.18564" lon="4.51409">
        <ele>533.8</ele>
        <time>2020-10-17T12:03:40Z</time>
      </trkpt>
      <trkpt lat="46.18562" lon="4.51409">
        <ele>533.8</ele>
        <time>2020-10-17T12:03:41Z</time>
      </trkpt>
      <trkpt lat="46.1856" lon="4.51409">
        <ele>534</ele>
        <time>2020-10-17T12:03:42Z</time>
      </trkpt>
      <trkpt lat="46.18558" lon="4.5141">
        <ele>534</ele>
        <time>2020-10-17T12:03:43Z</time>
      </trkpt>
      <trkpt lat="46.18556" lon="4.5141">
        <ele>534</ele>
        <time>2020-10-17T12:03:44Z</time>
      </trkpt>
      <trkpt lat="46.18556" lon="4.5141">
        <ele>533.8</ele>
        <time>2020-10-17T12:03:45Z</time>
      </trkpt>
      <trkpt lat="46.18552" lon="4.51409">
        <ele>534</ele>
        <time>2020-10-17T12:03:46Z</time>
      </trkpt>
      <trkpt lat="46.18552" lon="4.51409">
        <ele>534</ele>
        <time>2020-10-17T12:03:47Z</time>
      </trkpt>
      <trkpt lat="46.18549" lon="4.5141">
        <ele>534</ele>
        <time>2020-10-17T12:03:48Z</time>
      </trkpt>
      <trkpt lat="46.18549" lon="4.5141">
        <ele>534</ele>
        <time>2020-10-17T12:03:49Z</time>
      </trkpt>
      <trkpt lat="46.18546" lon="4.5141">
        <ele>534</ele>
        <time>2020-10-17T12:03:50Z</time>
      </trkpt>
      <trkpt lat="46.18546" lon="4.5141">
        <ele>534</ele>
        <time>2020-10-17T12:03:51Z</time>
      </trkpt>
      <trkpt lat="46.18543" lon="4.5141">
        <ele>533.8</ele>
        <time>2020-10-17T12:03:52Z</time>
      </trkpt>
      <trkpt lat="46.18543" lon="4.5141">
        <ele>533.6</ele>
        <time>2020-10-17T12:03:53Z</time>
      </trkpt>
      <trkpt lat="46.1854" lon="4.5141">
        <ele>533.6</ele>
        <time>2020-10-17T12:03:54Z</time>
      </trkpt>
      <trkpt lat="46.1854" lon="4.5141">
        <ele>533.4</ele>
        <time>2020-10-17T12:03:55Z</time>
      </trkpt>
      <trkpt lat="46.18537" lon="4.5141">
        <ele>533.6</ele>
        <time>2020-10-17T12:03:56Z</time>
      </trkpt>
      <trkpt lat="46.18537" lon="4.5141">
        <ele>533.4</ele>
        <time>2020-10-17T12:03:57Z</time>
      </trkpt>
      <trkpt lat="46.18534" lon="4.51411">
        <ele>533.4</ele>
        <time>2020-10-17T12:03:58Z</time>
      </trkpt>
      <trkpt lat="46.18534" lon="4.51411">
        <ele>533.2</ele>
        <time>2020-10-17T12:03:59Z</time>
      </trkpt>
      <trkpt lat="46.18531" lon="4.51411">
        <ele>533.4</ele>
        <time>2020-10-17T12:04:00Z</time>
      </trkpt>
      <trkpt lat="46.18531" lon="4.51411">
        <ele>533.2</ele>
        <time>2020-10-17T12:04:01Z</time>
      </trkpt>
      <trkpt lat="46.18528" lon="4.51411">
        <ele>533.2</ele>
        <time>2020-10-17T12:04:02Z</time>
      </trkpt>
      <trkpt lat="46.18526" lon="4.51411">
        <ele>533.2</ele>
        <time>2020-10-17T12:04:03Z</time>
      </trkpt>
      <trkpt lat="46.18526" lon="4.51411">
        <ele>533</ele>
        <time>2020-10-17T12:04:04Z</time>
      </trkpt>
      <trkpt lat="46.18522" lon="4.51411">
        <ele>533</ele>
        <time>2020-10-17T12:04:05Z</time>
      </trkpt>
      <trkpt lat="46.18522" lon="4.51411">
        <ele>533.6</ele>
        <time>2020-10-17T12:04:06Z</time>
      </trkpt>
      <trkpt lat="46.18519" lon="4.5141">
        <ele>534</ele>
        <time>2020-10-17T12:04:07Z</time>
      </trkpt>
      <trkpt lat="46.18517" lon="4.5141">
        <ele>534.2</ele>
        <time>2020-10-17T12:04:08Z</time>
      </trkpt>
      <trkpt lat="46.18515" lon="4.5141">
        <ele>534</ele>
        <time>2020-10-17T12:04:09Z</time>
      </trkpt>
      <trkpt lat="46.18513" lon="4.5141">
        <ele>534</ele>
        <time>2020-10-17T12:04:10Z</time>
      </trkpt>
      <trkpt lat="46.1851" lon="4.5141">
        <ele>534</ele>
        <time>2020-10-17T12:04:11Z</time>
      </trkpt>
      <trkpt lat="46.18508" lon="4.5141">
        <ele>533.8</ele>
        <time>2020-10-17T12:04:12Z</time>
      </trkpt>
      <trkpt lat="46.18506" lon="4.5141">
        <ele>533.6</ele>
        <time>2020-10-17T12:04:13Z</time>
      </trkpt>
      <trkpt lat="46.18504" lon="4.5141">
        <ele>533.6</ele>
        <time>2020-10-17T12:04:14Z</time>
      </trkpt>
      <trkpt lat="46.18502" lon="4.5141">
        <ele>533.4</ele>
        <time>2020-10-17T12:04:15Z</time>
      </trkpt>
      <trkpt lat="46.18499" lon="4.5141">
        <ele>533.2</ele>
        <time>2020-10-17T12:04:16Z</time>
      </trkpt>
      <trkpt lat="46.18497" lon="4.5141">
        <ele>533.4</ele>
        <time>2020-10-17T12:04:17Z</time>
      </trkpt>
      <trkpt lat="46.18494" lon="4.5141">
        <ele>532.8</ele>
        <time>2020-10-17T12:04:18Z</time>
      </trkpt>
      <trkpt lat="46.18492" lon="4.5141">
        <ele>533</ele>
        <time>2020-10-17T12:04:19Z</time>
      </trkpt>
      <trkpt lat="46.1849" lon="4.5141">
        <ele>533.2</ele>
        <time>2020-10-17T12:04:20Z</time>
      </trkpt>
      <trkpt lat="46.18488" lon="4.5141">
        <ele>533.2</ele>
        <time>2020-10-17T12:04:21Z</time>
      </trkpt>
      <trkpt lat="46.18486" lon="4.5141">
        <ele>533.2</ele>
        <time>2020-10-17T12:04:22Z</time>
      </trkpt>
      <trkpt lat="46.18484" lon="4.5141">
        <ele>533.2</ele>
        <time>2020-10-17T12:04:23Z</time>
      </trkpt>
      <trkpt lat="46.18481" lon="4.51411">
        <ele>533</ele>
        <time>2020-10-17T12:04:24Z</time>
      </trkpt>
      <trkpt lat="46.18479" lon="4.51411">
        <ele>532.8</ele>
        <time>2020-10-17T12:04:25Z</time>
      </trkpt>
      <trkpt lat="46.18476" lon="4.51411">
        <ele>533.2</ele>
        <time>2020-10-17T12:04:26Z</time>
      </trkpt>
      <trkpt lat="46.18474" lon="4.51411">
        <ele>533</ele>
        <time>2020-10-17T12:04:27Z</time>
      </trkpt>
      <trkpt lat="46.18472" lon="4.51411">
        <ele>533</ele>
        <time>2020-10-17T12:04:28Z</time>
      </trkpt>
      <trkpt lat="46.1847" lon="4.51411">
        <ele>533</ele>
        <time>2020-10-17T12:04:29Z</time>
      </trkpt>
      <trkpt lat="46.18468" lon="4.51411">
        <ele>532.8</ele>
        <time>2020-10-17T12:04:30Z</time>
      </trkpt>
      <trkpt lat="46.18465" lon="4.51411">
        <ele>532.2</ele>
        <time>2020-10-17T12:04:31Z</time>
      </trkpt>
      <trkpt lat="46.18463" lon="4.51411">
        <ele>532.4</ele>
        <time>2020-10-17T12:04:32Z</time>
      </trkpt>
      <trkpt lat="46.1846" lon="4.51411">
        <ele>532.2</ele>
        <time>2020-10-17T12:04:33Z</time>
      </trkpt>
      <trkpt lat="46.18458" lon="4.51411">
        <ele>532</ele>
        <time>2020-10-17T12:04:34Z</time>
      </trkpt>
      <trkpt lat="46.18456" lon="4.51411">
        <ele>532.2</ele>
        <time>2020-10-17T12:04:35Z</time>
      </trkpt>
      <trkpt lat="46.18454" lon="4.51411">
        <ele>532</ele>
        <time>2020-10-17T12:04:36Z</time>
      </trkpt>
      <trkpt lat="46.18451" lon="4.51412">
        <ele>531.6</ele>
        <time>2020-10-17T12:04:37Z</time>
      </trkpt>
      <trkpt lat="46.18449" lon="4.51412">
        <ele>532.2</ele>
        <time>2020-10-17T12:04:38Z</time>
      </trkpt>
      <trkpt lat="46.18447" lon="4.51412">
        <ele>532</ele>
        <time>2020-10-17T12:04:39Z</time>
      </trkpt>
      <trkpt lat="46.18445" lon="4.51412">
        <ele>531.8</ele>
        <time>2020-10-17T12:04:40Z</time>
      </trkpt>
      <trkpt lat="46.18442" lon="4.51412">
        <ele>531.8</ele>
        <time>2020-10-17T12:04:41Z</time>
      </trkpt>
      <trkpt lat="46.1844" lon="4.51413">
        <ele>531.4</ele>
        <time>2020-10-17T12:04:42Z</time>
      </trkpt>
      <trkpt lat="46.18438" lon="4.51413">
        <ele>531.4</ele>
        <time>2020-10-17T12:04:43Z</time>
      </trkpt>
      <trkpt lat="46.18436" lon="4.51413">
        <ele>531.2</ele>
        <time>2020-10-17T12:04:44Z</time>
      </trkpt>
      <trkpt lat="46.18434" lon="4.51413">
        <ele>531</ele>
        <time>2020-10-17T12:04:45Z</time>
      </trkpt>
      <trkpt lat="46.18432" lon="4.51413">
        <ele>531.2</ele>
        <time>2020-10-17T12:04:46Z</time>
      </trkpt>
      <trkpt lat="46.18429" lon="4.51413">
        <ele>531</ele>
        <time>2020-10-17T12:04:47Z</time>
      </trkpt>
      <trkpt lat="46.18427" lon="4.51413">
        <ele>531</ele>
        <time>2020-10-17T12:04:48Z</time>
      </trkpt>
      <trkpt lat="46.18424" lon="4.51414">
        <ele>531</ele>
        <time>2020-10-17T12:04:49Z</time>
      </trkpt>
      <trkpt lat="46.18421" lon="4.51414">
        <ele>530.8</ele>
        <time>2020-10-17T12:04:50Z</time>
      </trkpt>
      <trkpt lat="46.18418" lon="4.51414">
        <ele>530.8</ele>
        <time>2020-10-17T12:04:51Z</time>
      </trkpt>
      <trkpt lat="46.18416" lon="4.51414">
        <ele>531</ele>
        <time>2020-10-17T12:04:52Z</time>
      </trkpt>
      <trkpt lat="46.18413" lon="4.51414">
        <ele>530.8</ele>
        <time>2020-10-17T12:04:53Z</time>
      </trkpt>
      <trkpt lat="46.1841" lon="4.51414">
        <ele>530.6</ele>
        <time>2020-10-17T12:04:54Z</time>
      </trkpt>
      <trkpt lat="46.18408" lon="4.51414">
        <ele>530.4</ele>
        <time>2020-10-17T12:04:55Z</time>
      </trkpt>
      <trkpt lat="46.18405" lon="4.51414">
        <ele>530.2</ele>
        <time>2020-10-17T12:04:56Z</time>
      </trkpt>
      <trkpt lat="46.18403" lon="4.51415">
        <ele>530.4</ele>
        <time>2020-10-17T12:04:57Z</time>
      </trkpt>
      <trkpt lat="46.184" lon="4.51415">
        <ele>530.4</ele>
        <time>2020-10-17T12:04:58Z</time>
      </trkpt>
      <trkpt lat="46.18398" lon="4.51415">
        <ele>530.4</ele>
        <time>2020-10-17T12:04:59Z</time>
      </trkpt>
      <trkpt lat="46.18396" lon="4.51416">
        <ele>530.6</ele>
        <time>2020-10-17T12:05:00Z</time>
      </trkpt>
      <trkpt lat="46.18393" lon="4.51417">
        <ele>530.4</ele>
        <time>2020-10-17T12:05:01Z</time>
      </trkpt>
      <trkpt lat="46.18391" lon="4.51417">
        <ele>530.4</ele>
        <time>2020-10-17T12:05:02Z</time>
      </trkpt>
      <trkpt lat="46.18389" lon="4.51418">
        <ele>530.4</ele>
        <time>2020-10-17T12:05:03Z</time>
      </trkpt>
      <trkpt lat="46.18386" lon="4.51419">
        <ele>529.8</ele>
        <time>2020-10-17T12:05:04Z</time>
      </trkpt>
      <trkpt lat="46.18384" lon="4.5142">
        <ele>529.8</ele>
        <time>2020-10-17T12:05:05Z</time>
      </trkpt>
      <trkpt lat="46.18382" lon="4.51421">
        <ele>530</ele>
        <time>2020-10-17T12:05:06Z</time>
      </trkpt>
      <trkpt lat="46.1838" lon="4.51422">
        <ele>529.6</ele>
        <time>2020-10-17T12:05:07Z</time>
      </trkpt>
      <trkpt lat="46.18377" lon="4.51423">
        <ele>529.6</ele>
        <time>2020-10-17T12:05:08Z</time>
      </trkpt>
      <trkpt lat="46.18374" lon="4.51425">
        <ele>529.8</ele>
        <time>2020-10-17T12:05:09Z</time>
      </trkpt>
      <trkpt lat="46.18372" lon="4.51426">
        <ele>528.8</ele>
        <time>2020-10-17T12:05:10Z</time>
      </trkpt>
      <trkpt lat="46.1837" lon="4.51427">
        <ele>529</ele>
        <time>2020-10-17T12:05:11Z</time>
      </trkpt>
      <trkpt lat="46.18368" lon="4.51429">
        <ele>529.2</ele>
        <time>2020-10-17T12:05:12Z</time>
      </trkpt>
      <trkpt lat="46.18368" lon="4.51429">
        <ele>528.6</ele>
        <time>2020-10-17T12:05:13Z</time>
      </trkpt>
      <trkpt lat="46.18365" lon="4.51432">
        <ele>528.8</ele>
        <time>2020-10-17T12:05:14Z</time>
      </trkpt>
      <trkpt lat="46.18363" lon="4.51433">
        <ele>528.8</ele>
        <time>2020-10-17T12:05:15Z</time>
      </trkpt>
      <trkpt lat="46.18361" lon="4.51435">
        <ele>528.2</ele>
        <time>2020-10-17T12:05:16Z</time>
      </trkpt>
      <trkpt lat="46.18361" lon="4.51435">
        <ele>528.2</ele>
        <time>2020-10-17T12:05:17Z</time>
      </trkpt>
      <trkpt lat="46.18359" lon="4.51438">
        <ele>528.4</ele>
        <time>2020-10-17T12:05:18Z</time>
      </trkpt>
      <trkpt lat="46.18359" lon="4.51438">
        <ele>528.2</ele>
        <time>2020-10-17T12:05:19Z</time>
      </trkpt>
      <trkpt lat="46.18356" lon="4.51442">
        <ele>528</ele>
        <time>2020-10-17T12:05:20Z</time>
      </trkpt>
      <trkpt lat="46.18354" lon="4.51445">
        <ele>528.4</ele>
        <time>2020-10-17T12:05:21Z</time>
      </trkpt>
      <trkpt lat="46.18352" lon="4.51447">
        <ele>528.2</ele>
        <time>2020-10-17T12:05:22Z</time>
      </trkpt>
      <trkpt lat="46.18349" lon="4.5145">
        <ele>528</ele>
        <time>2020-10-17T12:05:23Z</time>
      </trkpt>
      <trkpt lat="46.18348" lon="4.51453">
        <ele>528.2</ele>
        <time>2020-10-17T12:05:24Z</time>
      </trkpt>
      <trkpt lat="46.18346" lon="4.51457">
        <ele>527.6</ele>
        <time>2020-10-17T12:05:25Z</time>
      </trkpt>
      <trkpt lat="46.18344" lon="4.5146">
        <ele>527.8</ele>
        <time>2020-10-17T12:05:26Z</time>
      </trkpt>
      <trkpt lat="46.18343" lon="4.51463">
        <ele>528</ele>
        <time>2020-10-17T12:05:27Z</time>
      </trkpt>
      <trkpt lat="46.18341" lon="4.51466">
        <ele>527.4</ele>
        <time>2020-10-17T12:05:28Z</time>
      </trkpt>
      <trkpt lat="46.1834" lon="4.5147">
        <ele>527.4</ele>
        <time>2020-10-17T12:05:29Z</time>
      </trkpt>
      <trkpt lat="46.18339" lon="4.51473">
        <ele>527.8</ele>
        <time>2020-10-17T12:05:30Z</time>
      </trkpt>
      <trkpt lat="46.18338" lon="4.51476">
        <ele>527.4</ele>
        <time>2020-10-17T12:05:31Z</time>
      </trkpt>
      <trkpt lat="46.18338" lon="4.51479">
        <ele>527.4</ele>
        <time>2020-10-17T12:05:32Z</time>
      </trkpt>
      <trkpt lat="46.18338" lon="4.51483">
        <ele>527.8</ele>
        <time>2020-10-17T12:05:33Z</time>
      </trkpt>
      <trkpt lat="46.18338" lon="4.51486">
        <ele>527.6</ele>
        <time>2020-10-17T12:05:34Z</time>
      </trkpt>
      <trkpt lat="46.18338" lon="4.51489">
        <ele>527.6</ele>
        <time>2020-10-17T12:05:35Z</time>
      </trkpt>
      <trkpt lat="46.18338" lon="4.51492">
        <ele>527.6</ele>
        <time>2020-10-17T12:05:36Z</time>
      </trkpt>
      <trkpt lat="46.18338" lon="4.51496">
        <ele>527.2</ele>
        <time>2020-10-17T12:05:37Z</time>
      </trkpt>
      <trkpt lat="46.18337" lon="4.51499">
        <ele>527.4</ele>
        <time>2020-10-17T12:05:38Z</time>
      </trkpt>
      <trkpt lat="46.18337" lon="4.51502">
        <ele>527.6</ele>
        <time>2020-10-17T12:05:39Z</time>
      </trkpt>
      <trkpt lat="46.18337" lon="4.51505">
        <ele>527</ele>
        <time>2020-10-17T12:05:40Z</time>
      </trkpt>
      <trkpt lat="46.18337" lon="4.5151">
        <ele>527</ele>
        <time>2020-10-17T12:05:41Z</time>
      </trkpt>
      <trkpt lat="46.18337" lon="4.51513">
        <ele>527.4</ele>
        <time>2020-10-17T12:05:42Z</time>
      </trkpt>
      <trkpt lat="46.18337" lon="4.51517">
        <ele>527</ele>
        <time>2020-10-17T12:05:43Z</time>
      </trkpt>
      <trkpt lat="46.18337" lon="4.51521">
        <ele>527</ele>
        <time>2020-10-17T12:05:44Z</time>
      </trkpt>
      <trkpt lat="46.18336" lon="4.51525">
        <ele>527</ele>
        <time>2020-10-17T12:05:45Z</time>
      </trkpt>
      <trkpt lat="46.18336" lon="4.51528">
        <ele>526.6</ele>
        <time>2020-10-17T12:05:46Z</time>
      </trkpt>
      <trkpt lat="46.18336" lon="4.51532">
        <ele>526.8</ele>
        <time>2020-10-17T12:05:47Z</time>
      </trkpt>
      <trkpt lat="46.18336" lon="4.51535">
        <ele>527</ele>
        <time>2020-10-17T12:05:48Z</time>
      </trkpt>
      <trkpt lat="46.18335" lon="4.51539">
        <ele>526.4</ele>
        <time>2020-10-17T12:05:49Z</time>
      </trkpt>
      <trkpt lat="46.18335" lon="4.51542">
        <ele>526.6</ele>
        <time>2020-10-17T12:05:50Z</time>
      </trkpt>
      <trkpt lat="46.18335" lon="4.51546">
        <ele>526.8</ele>
        <time>2020-10-17T12:05:51Z</time>
      </trkpt>
      <trkpt lat="46.18335" lon="4.5155">
        <ele>526</ele>
        <time>2020-10-17T12:05:52Z</time>
      </trkpt>
      <trkpt lat="46.18335" lon="4.51553">
        <ele>526</ele>
        <time>2020-10-17T12:05:53Z</time>
      </trkpt>
      <trkpt lat="46.18334" lon="4.51557">
        <ele>526.4</ele>
        <time>2020-10-17T12:05:54Z</time>
      </trkpt>
      <trkpt lat="46.18335" lon="4.51561">
        <ele>525.8</ele>
        <time>2020-10-17T12:05:55Z</time>
      </trkpt>
      <trkpt lat="46.18335" lon="4.51565">
        <ele>526</ele>
        <time>2020-10-17T12:05:56Z</time>
      </trkpt>
      <trkpt lat="46.18335" lon="4.51569">
        <ele>526.2</ele>
        <time>2020-10-17T12:05:57Z</time>
      </trkpt>
      <trkpt lat="46.18335" lon="4.51572">
        <ele>525.8</ele>
        <time>2020-10-17T12:05:58Z</time>
      </trkpt>
      <trkpt lat="46.18335" lon="4.51576">
        <ele>526</ele>
        <time>2020-10-17T12:05:59Z</time>
      </trkpt>
      <trkpt lat="46.18335" lon="4.51579">
        <ele>526.2</ele>
        <time>2020-10-17T12:06:00Z</time>
      </trkpt>
      <trkpt lat="46.18335" lon="4.51582">
        <ele>525.6</ele>
        <time>2020-10-17T12:06:01Z</time>
      </trkpt>
      <trkpt lat="46.18335" lon="4.51586">
        <ele>525.6</ele>
        <time>2020-10-17T12:06:02Z</time>
      </trkpt>
      <trkpt lat="46.18335" lon="4.51589">
        <ele>526</ele>
        <time>2020-10-17T12:06:03Z</time>
      </trkpt>
      <trkpt lat="46.18335" lon="4.51592">
        <ele>525.4</ele>
        <time>2020-10-17T12:06:04Z</time>
      </trkpt>
      <trkpt lat="46.18335" lon="4.51596">
        <ele>525.2</ele>
        <time>2020-10-17T12:06:05Z</time>
      </trkpt>
      <trkpt lat="46.18335" lon="4.51599">
        <ele>525.6</ele>
        <time>2020-10-17T12:06:06Z</time>
      </trkpt>
      <trkpt lat="46.18335" lon="4.51602">
        <ele>525.4</ele>
        <time>2020-10-17T12:06:07Z</time>
      </trkpt>
      <trkpt lat="46.18335" lon="4.51605">
        <ele>525.4</ele>
        <time>2020-10-17T12:06:08Z</time>
      </trkpt>
      <trkpt lat="46.18336" lon="4.51608">
        <ele>525.6</ele>
        <time>2020-10-17T12:06:09Z</time>
      </trkpt>
      <trkpt lat="46.18337" lon="4.51611">
        <ele>525</ele>
        <time>2020-10-17T12:06:10Z</time>
      </trkpt>
      <trkpt lat="46.18338" lon="4.51614">
        <ele>525</ele>
        <time>2020-10-17T12:06:11Z</time>
      </trkpt>
      <trkpt lat="46.18338" lon="4.51616">
        <ele>525.2</ele>
        <time>2020-10-17T12:06:12Z</time>
      </trkpt>
      <trkpt lat="46.18339" lon="4.51619">
        <ele>524.8</ele>
        <time>2020-10-17T12:06:13Z</time>
      </trkpt>
      <trkpt lat="46.18339" lon="4.51623">
        <ele>524.8</ele>
        <time>2020-10-17T12:06:14Z</time>
      </trkpt>
      <trkpt lat="46.18339" lon="4.51626">
        <ele>525</ele>
        <time>2020-10-17T12:06:15Z</time>
      </trkpt>
      <trkpt lat="46.1834" lon="4.51629">
        <ele>524.8</ele>
        <time>2020-10-17T12:06:16Z</time>
      </trkpt>
      <trkpt lat="46.1834" lon="4.51632">
        <ele>524.8</ele>
        <time>2020-10-17T12:06:17Z</time>
      </trkpt>
      <trkpt lat="46.18341" lon="4.51635">
        <ele>525.2</ele>
        <time>2020-10-17T12:06:18Z</time>
      </trkpt>
      <trkpt lat="46.18343" lon="4.51637">
        <ele>524.8</ele>
        <time>2020-10-17T12:06:19Z</time>
      </trkpt>
      <trkpt lat="46.18343" lon="4.5164">
        <ele>524.8</ele>
        <time>2020-10-17T12:06:20Z</time>
      </trkpt>
      <trkpt lat="46.18344" lon="4.51643">
        <ele>525</ele>
        <time>2020-10-17T12:06:21Z</time>
      </trkpt>
      <trkpt lat="46.18344" lon="4.51646">
        <ele>524.6</ele>
        <time>2020-10-17T12:06:22Z</time>
      </trkpt>
      <trkpt lat="46.18345" lon="4.51649">
        <ele>524.6</ele>
        <time>2020-10-17T12:06:23Z</time>
      </trkpt>
      <trkpt lat="46.18345" lon="4.51652">
        <ele>524.8</ele>
        <time>2020-10-17T12:06:24Z</time>
      </trkpt>
      <trkpt lat="46.18345" lon="4.51655">
        <ele>524.2</ele>
        <time>2020-10-17T12:06:25Z</time>
      </trkpt>
      <trkpt lat="46.18346" lon="4.51658">
        <ele>524.4</ele>
        <time>2020-10-17T12:06:26Z</time>
      </trkpt>
      <trkpt lat="46.18347" lon="4.51661">
        <ele>524.6</ele>
        <time>2020-10-17T12:06:27Z</time>
      </trkpt>
      <trkpt lat="46.18347" lon="4.51664">
        <ele>524</ele>
        <time>2020-10-17T12:06:28Z</time>
      </trkpt>
      <trkpt lat="46.18347" lon="4.51667">
        <ele>524</ele>
        <time>2020-10-17T12:06:29Z</time>
      </trkpt>
      <trkpt lat="46.18347" lon="4.5167">
        <ele>524.2</ele>
        <time>2020-10-17T12:06:30Z</time>
      </trkpt>
      <trkpt lat="46.18348" lon="4.51674">
        <ele>524.4</ele>
        <time>2020-10-17T12:06:31Z</time>
      </trkpt>
      <trkpt lat="46.18349" lon="4.51677">
        <ele>524.4</ele>
        <time>2020-10-17T12:06:32Z</time>
      </trkpt>
      <trkpt lat="46.18349" lon="4.5168">
        <ele>524.6</ele>
        <time>2020-10-17T12:06:33Z</time>
      </trkpt>
      <trkpt lat="46.18349" lon="4.51683">
        <ele>524.4</ele>
        <time>2020-10-17T12:06:34Z</time>
      </trkpt>
      <trkpt lat="46.1835" lon="4.51686">
        <ele>524.6</ele>
        <time>2020-10-17T12:06:35Z</time>
      </trkpt>
      <trkpt lat="46.1835" lon="4.5169">
        <ele>524.8</ele>
        <time>2020-10-17T12:06:36Z</time>
      </trkpt>
      <trkpt lat="46.1835" lon="4.5169">
        <ele>524.4</ele>
        <time>2020-10-17T12:06:37Z</time>
      </trkpt>
      <trkpt lat="46.1835" lon="4.5169">
        <ele>524.4</ele>
        <time>2020-10-17T12:06:38Z</time>
      </trkpt>
      <trkpt lat="46.1835" lon="4.5169">
        <ele>524.6</ele>
        <time>2020-10-17T12:06:39Z</time>
      </trkpt>
      <trkpt lat="46.18355" lon="4.51706">
        <ele>524.4</ele>
        <time>2020-10-17T12:06:40Z</time>
      </trkpt>
      <trkpt lat="46.18357" lon="4.51709">
        <ele>524.4</ele>
        <time>2020-10-17T12:06:41Z</time>
      </trkpt>
      <trkpt lat="46.18358" lon="4.51712">
        <ele>524.4</ele>
        <time>2020-10-17T12:06:42Z</time>
      </trkpt>
      <trkpt lat="46.1836" lon="4.51714">
        <ele>524.4</ele>
        <time>2020-10-17T12:06:43Z</time>
      </trkpt>
      <trkpt lat="46.1836" lon="4.51714">
        <ele>524.2</ele>
        <time>2020-10-17T12:06:44Z</time>
      </trkpt>
      <trkpt lat="46.1836" lon="4.51714">
        <ele>524.4</ele>
        <time>2020-10-17T12:06:45Z</time>
      </trkpt>
      <trkpt lat="46.1836" lon="4.51714">
        <ele>524.2</ele>
        <time>2020-10-17T12:06:46Z</time>
      </trkpt>
      <trkpt lat="46.18364" lon="4.5173">
        <ele>524.2</ele>
        <time>2020-10-17T12:06:47Z</time>
      </trkpt>
      <trkpt lat="46.18365" lon="4.51731">
        <ele>524.2</ele>
        <time>2020-10-17T12:06:48Z</time>
      </trkpt>
      <trkpt lat="46.18366" lon="4.51733">
        <ele>524</ele>
        <time>2020-10-17T12:06:49Z</time>
      </trkpt>
      <trkpt lat="46.18367" lon="4.51734">
        <ele>523.8</ele>
        <time>2020-10-17T12:06:50Z</time>
      </trkpt>
      <trkpt lat="46.1837" lon="4.5174">
        <ele>523.6</ele>
        <time>2020-10-17T12:06:51Z</time>
      </trkpt>
      <trkpt lat="46.1837" lon="4.5174">
        <ele>523.6</ele>
        <time>2020-10-17T12:06:52Z</time>
      </trkpt>
      <trkpt lat="46.1837" lon="4.5174">
        <ele>523.6</ele>
        <time>2020-10-17T12:06:53Z</time>
      </trkpt>
      <trkpt lat="46.18377" lon="4.51753">
        <ele>522.8</ele>
        <time>2020-10-17T12:06:54Z</time>
      </trkpt>
      <trkpt lat="46.18378" lon="4.51755">
        <ele>523.2</ele>
        <time>2020-10-17T12:06:55Z</time>
      </trkpt>
      <trkpt lat="46.18379" lon="4.51756">
        <ele>523</ele>
        <time>2020-10-17T12:06:56Z</time>
      </trkpt>
      <trkpt lat="46.18379" lon="4.51757">
        <ele>522.8</ele>
        <time>2020-10-17T12:06:57Z</time>
      </trkpt>
      <trkpt lat="46.18383" lon="4.51765">
        <ele>523</ele>
        <time>2020-10-17T12:06:58Z</time>
      </trkpt>
      <trkpt lat="46.18384" lon="4.51766">
        <ele>522.8</ele>
        <time>2020-10-17T12:06:59Z</time>
      </trkpt>
      <trkpt lat="46.18385" lon="4.51768">
        <ele>522.6</ele>
        <time>2020-10-17T12:07:00Z</time>
      </trkpt>
      <trkpt lat="46.18386" lon="4.5177">
        <ele>522.8</ele>
        <time>2020-10-17T12:07:01Z</time>
      </trkpt>
      <trkpt lat="46.18386" lon="4.51774">
        <ele>522.6</ele>
        <time>2020-10-17T12:07:02Z</time>
      </trkpt>
      <trkpt lat="46.18387" lon="4.51778">
        <ele>522.6</ele>
        <time>2020-10-17T12:07:03Z</time>
      </trkpt>
      <trkpt lat="46.18388" lon="4.51782">
        <ele>522.6</ele>
        <time>2020-10-17T12:07:04Z</time>
      </trkpt>
      <trkpt lat="46.18389" lon="4.51785">
        <ele>522.4</ele>
        <time>2020-10-17T12:07:05Z</time>
      </trkpt>
      <trkpt lat="46.18389" lon="4.51789">
        <ele>522.2</ele>
        <time>2020-10-17T12:07:06Z</time>
      </trkpt>
      <trkpt lat="46.1839" lon="4.51792">
        <ele>522.2</ele>
        <time>2020-10-17T12:07:07Z</time>
      </trkpt>
      <trkpt lat="46.18391" lon="4.51796">
        <ele>522.4</ele>
        <time>2020-10-17T12:07:08Z</time>
      </trkpt>
      <trkpt lat="46.18392" lon="4.51799">
        <ele>522</ele>
        <time>2020-10-17T12:07:09Z</time>
      </trkpt>
      <trkpt lat="46.18393" lon="4.51802">
        <ele>522</ele>
        <time>2020-10-17T12:07:10Z</time>
      </trkpt>
      <trkpt lat="46.18395" lon="4.51804">
        <ele>522.2</ele>
        <time>2020-10-17T12:07:11Z</time>
      </trkpt>
      <trkpt lat="46.18396" lon="4.51807">
        <ele>522</ele>
        <time>2020-10-17T12:07:12Z</time>
      </trkpt>
      <trkpt lat="46.18398" lon="4.5181">
        <ele>521.6</ele>
        <time>2020-10-17T12:07:13Z</time>
      </trkpt>
      <trkpt lat="46.18399" lon="4.51812">
        <ele>522</ele>
        <time>2020-10-17T12:07:14Z</time>
      </trkpt>
      <trkpt lat="46.18401" lon="4.51814">
        <ele>522</ele>
        <time>2020-10-17T12:07:15Z</time>
      </trkpt>
      <trkpt lat="46.18402" lon="4.51816">
        <ele>521.4</ele>
        <time>2020-10-17T12:07:16Z</time>
      </trkpt>
      <trkpt lat="46.18404" lon="4.51818">
        <ele>521.8</ele>
        <time>2020-10-17T12:07:17Z</time>
      </trkpt>
      <trkpt lat="46.18406" lon="4.5182">
        <ele>521.8</ele>
        <time>2020-10-17T12:07:18Z</time>
      </trkpt>
      <trkpt lat="46.18407" lon="4.51821">
        <ele>521.4</ele>
        <time>2020-10-17T12:07:19Z</time>
      </trkpt>
      <trkpt lat="46.18409" lon="4.51823">
        <ele>521.8</ele>
        <time>2020-10-17T12:07:20Z</time>
      </trkpt>
      <trkpt lat="46.18411" lon="4.51825">
        <ele>521.8</ele>
        <time>2020-10-17T12:07:21Z</time>
      </trkpt>
      <trkpt lat="46.18413" lon="4.51827">
        <ele>521.6</ele>
        <time>2020-10-17T12:07:22Z</time>
      </trkpt>
      <trkpt lat="46.18415" lon="4.51829">
        <ele>521.6</ele>
        <time>2020-10-17T12:07:23Z</time>
      </trkpt>
      <trkpt lat="46.18417" lon="4.51831">
        <ele>521.8</ele>
        <time>2020-10-17T12:07:24Z</time>
      </trkpt>
      <trkpt lat="46.18418" lon="4.51833">
        <ele>521.8</ele>
        <time>2020-10-17T12:07:25Z</time>
      </trkpt>
      <trkpt lat="46.18421" lon="4.51834">
        <ele>521.6</ele>
        <time>2020-10-17T12:07:26Z</time>
      </trkpt>
      <trkpt lat="46.18423" lon="4.51836">
        <ele>521.8</ele>
        <time>2020-10-17T12:07:27Z</time>
      </trkpt>
      <trkpt lat="46.18425" lon="4.51838">
        <ele>521.8</ele>
        <time>2020-10-17T12:07:28Z</time>
      </trkpt>
      <trkpt lat="46.18426" lon="4.51841">
        <ele>521.4</ele>
        <time>2020-10-17T12:07:29Z</time>
      </trkpt>
      <trkpt lat="46.18426" lon="4.51844">
        <ele>521.6</ele>
        <time>2020-10-17T12:07:30Z</time>
      </trkpt>
      <trkpt lat="46.18427" lon="4.51847">
        <ele>521.4</ele>
        <time>2020-10-17T12:07:31Z</time>
      </trkpt>
      <trkpt lat="46.18427" lon="4.51851">
        <ele>521.2</ele>
        <time>2020-10-17T12:07:32Z</time>
      </trkpt>
      <trkpt lat="46.18428" lon="4.51854">
        <ele>521.4</ele>
        <time>2020-10-17T12:07:33Z</time>
      </trkpt>
      <trkpt lat="46.18428" lon="4.51856">
        <ele>521.2</ele>
        <time>2020-10-17T12:07:34Z</time>
      </trkpt>
      <trkpt lat="46.1843" lon="4.51859">
        <ele>521.2</ele>
        <time>2020-10-17T12:07:35Z</time>
      </trkpt>
      <trkpt lat="46.18431" lon="4.51861">
        <ele>521.6</ele>
        <time>2020-10-17T12:07:36Z</time>
      </trkpt>
      <trkpt lat="46.18433" lon="4.51864">
        <ele>521.6</ele>
        <time>2020-10-17T12:07:37Z</time>
      </trkpt>
      <trkpt lat="46.18435" lon="4.51868">
        <ele>521.4</ele>
        <time>2020-10-17T12:07:38Z</time>
      </trkpt>
      <trkpt lat="46.18436" lon="4.51871">
        <ele>521.8</ele>
        <time>2020-10-17T12:07:39Z</time>
      </trkpt>
      <trkpt lat="46.18437" lon="4.51874">
        <ele>521.8</ele>
        <time>2020-10-17T12:07:40Z</time>
      </trkpt>
      <trkpt lat="46.18438" lon="4.51877">
        <ele>521.6</ele>
        <time>2020-10-17T12:07:41Z</time>
      </trkpt>
      <trkpt lat="46.18438" lon="4.5188">
        <ele>521.6</ele>
        <time>2020-10-17T12:07:42Z</time>
      </trkpt>
      <trkpt lat="46.18439" lon="4.51883">
        <ele>521.8</ele>
        <time>2020-10-17T12:07:43Z</time>
      </trkpt>
      <trkpt lat="46.1844" lon="4.51885">
        <ele>521.6</ele>
        <time>2020-10-17T12:07:44Z</time>
      </trkpt>
      <trkpt lat="46.18441" lon="4.51889">
        <ele>521.4</ele>
        <time>2020-10-17T12:07:45Z</time>
      </trkpt>
      <trkpt lat="46.18441" lon="4.51893">
        <ele>521.6</ele>
        <time>2020-10-17T12:07:46Z</time>
      </trkpt>
      <trkpt lat="46.18442" lon="4.51896">
        <ele>521.4</ele>
        <time>2020-10-17T12:07:47Z</time>
      </trkpt>
      <trkpt lat="46.18443" lon="4.51898">
        <ele>521</ele>
        <time>2020-10-17T12:07:48Z</time>
      </trkpt>
      <trkpt lat="46.18445" lon="4.51901">
        <ele>521.4</ele>
        <time>2020-10-17T12:07:49Z</time>
      </trkpt>
      <trkpt lat="46.18447" lon="4.51903">
        <ele>521.4</ele>
        <time>2020-10-17T12:07:50Z</time>
      </trkpt>
      <trkpt lat="46.18448" lon="4.51905">
        <ele>521.4</ele>
        <time>2020-10-17T12:07:51Z</time>
      </trkpt>
      <trkpt lat="46.1845" lon="4.51908">
        <ele>521.8</ele>
        <time>2020-10-17T12:07:52Z</time>
      </trkpt>
      <trkpt lat="46.1845" lon="4.51908">
        <ele>521.6</ele>
        <time>2020-10-17T12:07:53Z</time>
      </trkpt>
      <trkpt lat="46.1845" lon="4.51908">
        <ele>521.2</ele>
        <time>2020-10-17T12:07:54Z</time>
      </trkpt>
      <trkpt lat="46.18456" lon="4.51918">
        <ele>521.6</ele>
        <time>2020-10-17T12:07:55Z</time>
      </trkpt>
      <trkpt lat="46.18456" lon="4.51918">
        <ele>521.4</ele>
        <time>2020-10-17T12:07:56Z</time>
      </trkpt>
      <trkpt lat="46.18456" lon="4.51918">
        <ele>521.2</ele>
        <time>2020-10-17T12:07:57Z</time>
      </trkpt>
      <trkpt lat="46.18456" lon="4.51918">
        <ele>521.4</ele>
        <time>2020-10-17T12:07:58Z</time>
      </trkpt>
      <trkpt lat="46.18462" lon="4.5193">
        <ele>521.2</ele>
        <time>2020-10-17T12:07:59Z</time>
      </trkpt>
      <trkpt lat="46.18462" lon="4.5193">
        <ele>521</ele>
        <time>2020-10-17T12:08:00Z</time>
      </trkpt>
      <trkpt lat="46.18462" lon="4.5193">
        <ele>521.4</ele>
        <time>2020-10-17T12:08:01Z</time>
      </trkpt>
      <trkpt lat="46.18462" lon="4.5193">
        <ele>521.4</ele>
        <time>2020-10-17T12:08:02Z</time>
      </trkpt>
      <trkpt lat="46.1847" lon="4.51937">
        <ele>521.4</ele>
        <time>2020-10-17T12:08:03Z</time>
      </trkpt>
      <trkpt lat="46.1847" lon="4.51937">
        <ele>521.2</ele>
        <time>2020-10-17T12:08:04Z</time>
      </trkpt>
      <trkpt lat="46.1847" lon="4.51937">
        <ele>521.2</ele>
        <time>2020-10-17T12:08:05Z</time>
      </trkpt>
      <trkpt lat="46.1847" lon="4.51937">
        <ele>521.2</ele>
        <time>2020-10-17T12:08:06Z</time>
      </trkpt>
      <trkpt lat="46.18477" lon="4.51942">
        <ele>521.2</ele>
        <time>2020-10-17T12:08:07Z</time>
      </trkpt>
      <trkpt lat="46.18477" lon="4.51943">
        <ele>521.4</ele>
        <time>2020-10-17T12:08:08Z</time>
      </trkpt>
      <trkpt lat="46.18478" lon="4.51944">
        <ele>521.4</ele>
        <time>2020-10-17T12:08:09Z</time>
      </trkpt>
      <trkpt lat="46.18478" lon="4.51945">
        <ele>521.6</ele>
        <time>2020-10-17T12:08:10Z</time>
      </trkpt>
      <trkpt lat="46.18481" lon="4.51948">
        <ele>521.6</ele>
        <time>2020-10-17T12:08:11Z</time>
      </trkpt>
      <trkpt lat="46.18483" lon="4.51949">
        <ele>521.4</ele>
        <time>2020-10-17T12:08:12Z</time>
      </trkpt>
      <trkpt lat="46.18485" lon="4.51951">
        <ele>521.2</ele>
        <time>2020-10-17T12:08:13Z</time>
      </trkpt>
      <trkpt lat="46.18487" lon="4.51953">
        <ele>521.6</ele>
        <time>2020-10-17T12:08:14Z</time>
      </trkpt>
      <trkpt lat="46.18487" lon="4.51953">
        <ele>521.8</ele>
        <time>2020-10-17T12:08:15Z</time>
      </trkpt>
      <trkpt lat="46.18489" lon="4.51956">
        <ele>521.8</ele>
        <time>2020-10-17T12:08:16Z</time>
      </trkpt>
      <trkpt lat="46.18489" lon="4.51956">
        <ele>521.6</ele>
        <time>2020-10-17T12:08:17Z</time>
      </trkpt>
      <trkpt lat="46.18492" lon="4.51959">
        <ele>521.4</ele>
        <time>2020-10-17T12:08:18Z</time>
      </trkpt>
      <trkpt lat="46.18494" lon="4.51959">
        <ele>521.4</ele>
        <time>2020-10-17T12:08:19Z</time>
      </trkpt>
      <trkpt lat="46.18496" lon="4.5196">
        <ele>521.2</ele>
        <time>2020-10-17T12:08:20Z</time>
      </trkpt>
      <trkpt lat="46.18496" lon="4.5196">
        <ele>521.2</ele>
        <time>2020-10-17T12:08:21Z</time>
      </trkpt>
      <trkpt lat="46.18499" lon="4.51962">
        <ele>521</ele>
        <time>2020-10-17T12:08:22Z</time>
      </trkpt>
      <trkpt lat="46.18499" lon="4.51962">
        <ele>521</ele>
        <time>2020-10-17T12:08:23Z</time>
      </trkpt>
      <trkpt lat="46.18501" lon="4.51965">
        <ele>520.8</ele>
        <time>2020-10-17T12:08:24Z</time>
      </trkpt>
      <trkpt lat="46.18501" lon="4.51965">
        <ele>520.8</ele>
        <time>2020-10-17T12:08:25Z</time>
      </trkpt>
      <trkpt lat="46.18504" lon="4.51968">
        <ele>521.2</ele>
        <time>2020-10-17T12:08:26Z</time>
      </trkpt>
      <trkpt lat="46.18504" lon="4.51968">
        <ele>521</ele>
        <time>2020-10-17T12:08:27Z</time>
      </trkpt>
      <trkpt lat="46.18507" lon="4.5197">
        <ele>521</ele>
        <time>2020-10-17T12:08:28Z</time>
      </trkpt>
      <trkpt lat="46.18507" lon="4.5197">
        <ele>520.8</ele>
        <time>2020-10-17T12:08:29Z</time>
      </trkpt>
      <trkpt lat="46.1851" lon="4.51972">
        <ele>521</ele>
        <time>2020-10-17T12:08:30Z</time>
      </trkpt>
      <trkpt lat="46.1851" lon="4.51972">
        <ele>521</ele>
        <time>2020-10-17T12:08:31Z</time>
      </trkpt>
      <trkpt lat="46.1851" lon="4.51972">
        <ele>520.8</ele>
        <time>2020-10-17T12:08:32Z</time>
      </trkpt>
      <trkpt lat="46.1851" lon="4.51972">
        <ele>520.8</ele>
        <time>2020-10-17T12:08:33Z</time>
      </trkpt>
      <trkpt lat="46.18521" lon="4.51974">
        <ele>520.8</ele>
        <time>2020-10-17T12:08:34Z</time>
      </trkpt>
      <trkpt lat="46.18522" lon="4.51975">
        <ele>520.6</ele>
        <time>2020-10-17T12:08:35Z</time>
      </trkpt>
      <trkpt lat="46.18523" lon="4.51976">
        <ele>520.6</ele>
        <time>2020-10-17T12:08:36Z</time>
      </trkpt>
      <trkpt lat="46.18525" lon="4.51977">
        <ele>520.6</ele>
        <time>2020-10-17T12:08:37Z</time>
      </trkpt>
      <trkpt lat="46.18527" lon="4.51978">
        <ele>520.6</ele>
        <time>2020-10-17T12:08:38Z</time>
      </trkpt>
      <trkpt lat="46.18529" lon="4.51979">
        <ele>521</ele>
        <time>2020-10-17T12:08:39Z</time>
      </trkpt>
      <trkpt lat="46.18531" lon="4.5198">
        <ele>521.2</ele>
        <time>2020-10-17T12:08:40Z</time>
      </trkpt>
      <trkpt lat="46.18533" lon="4.51981">
        <ele>521.6</ele>
        <time>2020-10-17T12:08:41Z</time>
      </trkpt>
      <trkpt lat="46.18533" lon="4.51981">
        <ele>521.8</ele>
        <time>2020-10-17T12:08:42Z</time>
      </trkpt>
      <trkpt lat="46.18536" lon="4.51983">
        <ele>521.4</ele>
        <time>2020-10-17T12:08:43Z</time>
      </trkpt>
      <trkpt lat="46.18536" lon="4.51983">
        <ele>521.2</ele>
        <time>2020-10-17T12:08:44Z</time>
      </trkpt>
      <trkpt lat="46.18539" lon="4.51984">
        <ele>521</ele>
        <time>2020-10-17T12:08:45Z</time>
      </trkpt>
      <trkpt lat="46.18539" lon="4.51984">
        <ele>520.8</ele>
        <time>2020-10-17T12:08:46Z</time>
      </trkpt>
      <trkpt lat="46.18542" lon="4.51987">
        <ele>520.6</ele>
        <time>2020-10-17T12:08:47Z</time>
      </trkpt>
      <trkpt lat="46.18544" lon="4.51989">
        <ele>520.6</ele>
        <time>2020-10-17T12:08:48Z</time>
      </trkpt>
      <trkpt lat="46.18546" lon="4.51991">
        <ele>520.6</ele>
        <time>2020-10-17T12:08:49Z</time>
      </trkpt>
      <trkpt lat="46.18547" lon="4.51994">
        <ele>520.6</ele>
        <time>2020-10-17T12:08:50Z</time>
      </trkpt>
      <trkpt lat="46.18549" lon="4.51995">
        <ele>520.8</ele>
        <time>2020-10-17T12:08:51Z</time>
      </trkpt>
      <trkpt lat="46.18551" lon="4.51996">
        <ele>521.2</ele>
        <time>2020-10-17T12:08:52Z</time>
      </trkpt>
      <trkpt lat="46.18552" lon="4.51998">
        <ele>521</ele>
        <time>2020-10-17T12:08:53Z</time>
      </trkpt>
      <trkpt lat="46.18554" lon="4.51999">
        <ele>521</ele>
        <time>2020-10-17T12:08:54Z</time>
      </trkpt>
      <trkpt lat="46.18556" lon="4.52">
        <ele>521</ele>
        <time>2020-10-17T12:08:55Z</time>
      </trkpt>
      <trkpt lat="46.18558" lon="4.52001">
        <ele>520.8</ele>
        <time>2020-10-17T12:08:56Z</time>
      </trkpt>
      <trkpt lat="46.18558" lon="4.52001">
        <ele>520.8</ele>
        <time>2020-10-17T12:08:57Z</time>
      </trkpt>
      <trkpt lat="46.18559" lon="4.52004">
        <ele>520.6</ele>
        <time>2020-10-17T12:08:58Z</time>
      </trkpt>
      <trkpt lat="46.18561" lon="4.52005">
        <ele>520.6</ele>
        <time>2020-10-17T12:08:59Z</time>
      </trkpt>
      <trkpt lat="46.18561" lon="4.52005">
        <ele>520.4</ele>
        <time>2020-10-17T12:09:00Z</time>
      </trkpt>
      <trkpt lat="46.18564" lon="4.52009">
        <ele>520.4</ele>
        <time>2020-10-17T12:09:01Z</time>
      </trkpt>
      <trkpt lat="46.18564" lon="4.52009">
        <ele>520.4</ele>
        <time>2020-10-17T12:09:02Z</time>
      </trkpt>
      <trkpt lat="46.18566" lon="4.52012">
        <ele>520.4</ele>
        <time>2020-10-17T12:09:03Z</time>
      </trkpt>
      <trkpt lat="46.18566" lon="4.52012">
        <ele>520.4</ele>
        <time>2020-10-17T12:09:04Z</time>
      </trkpt>
      <trkpt lat="46.1857" lon="4.52015">
        <ele>520.4</ele>
        <time>2020-10-17T12:09:05Z</time>
      </trkpt>
      <trkpt lat="46.1857" lon="4.52015">
        <ele>520.4</ele>
        <time>2020-10-17T12:09:06Z</time>
      </trkpt>
      <trkpt lat="46.18572" lon="4.52018">
        <ele>520</ele>
        <time>2020-10-17T12:09:07Z</time>
      </trkpt>
      <trkpt lat="46.18574" lon="4.52019">
        <ele>520.2</ele>
        <time>2020-10-17T12:09:08Z</time>
      </trkpt>
      <trkpt lat="46.18574" lon="4.52019">
        <ele>520.2</ele>
        <time>2020-10-17T12:09:09Z</time>
      </trkpt>
      <trkpt lat="46.18576" lon="4.52022">
        <ele>520.2</ele>
        <time>2020-10-17T12:09:10Z</time>
      </trkpt>
      <trkpt lat="46.18576" lon="4.52022">
        <ele>520.2</ele>
        <time>2020-10-17T12:09:11Z</time>
      </trkpt>
      <trkpt lat="46.18578" lon="4.52026">
        <ele>520.2</ele>
        <time>2020-10-17T12:09:12Z</time>
      </trkpt>
      <trkpt lat="46.18578" lon="4.52026">
        <ele>520.2</ele>
        <time>2020-10-17T12:09:13Z</time>
      </trkpt>
      <trkpt lat="46.18579" lon="4.5203">
        <ele>520.2</ele>
        <time>2020-10-17T12:09:14Z</time>
      </trkpt>
      <trkpt lat="46.18579" lon="4.5203">
        <ele>520.2</ele>
        <time>2020-10-17T12:09:15Z</time>
      </trkpt>
      <trkpt lat="46.1858" lon="4.52034">
        <ele>520.2</ele>
        <time>2020-10-17T12:09:16Z</time>
      </trkpt>
      <trkpt lat="46.1858" lon="4.52034">
        <ele>520.2</ele>
        <time>2020-10-17T12:09:17Z</time>
      </trkpt>
      <trkpt lat="46.18582" lon="4.52038">
        <ele>520</ele>
        <time>2020-10-17T12:09:18Z</time>
      </trkpt>
      <trkpt lat="46.18582" lon="4.52038">
        <ele>520</ele>
        <time>2020-10-17T12:09:19Z</time>
      </trkpt>
      <trkpt lat="46.18583" lon="4.52041">
        <ele>520</ele>
        <time>2020-10-17T12:09:20Z</time>
      </trkpt>
      <trkpt lat="46.18583" lon="4.52041">
        <ele>520</ele>
        <time>2020-10-17T12:09:21Z</time>
      </trkpt>
      <trkpt lat="46.18585" lon="4.52044">
        <ele>520</ele>
        <time>2020-10-17T12:09:22Z</time>
      </trkpt>
      <trkpt lat="46.18585" lon="4.52044">
        <ele>520</ele>
        <time>2020-10-17T12:09:23Z</time>
      </trkpt>
      <trkpt lat="46.18587" lon="4.52047">
        <ele>519.8</ele>
        <time>2020-10-17T12:09:24Z</time>
      </trkpt>
      <trkpt lat="46.18587" lon="4.52047">
        <ele>519.8</ele>
        <time>2020-10-17T12:09:25Z</time>
      </trkpt>
      <trkpt lat="46.18589" lon="4.52051">
        <ele>520</ele>
        <time>2020-10-17T12:09:26Z</time>
      </trkpt>
      <trkpt lat="46.1859" lon="4.52053">
        <ele>519.8</ele>
        <time>2020-10-17T12:09:27Z</time>
      </trkpt>
      <trkpt lat="46.18592" lon="4.52055">
        <ele>519.8</ele>
        <time>2020-10-17T12:09:28Z</time>
      </trkpt>
      <trkpt lat="46.18593" lon="4.52056">
        <ele>519.8</ele>
        <time>2020-10-17T12:09:29Z</time>
      </trkpt>
      <trkpt lat="46.18593" lon="4.52056">
        <ele>519.8</ele>
        <time>2020-10-17T12:09:30Z</time>
      </trkpt>
      <trkpt lat="46.18596" lon="4.52059">
        <ele>519.8</ele>
        <time>2020-10-17T12:09:31Z</time>
      </trkpt>
      <trkpt lat="46.18596" lon="4.52059">
        <ele>519.8</ele>
        <time>2020-10-17T12:09:32Z</time>
      </trkpt>
      <trkpt lat="46.18597" lon="4.52063">
        <ele>519.8</ele>
        <time>2020-10-17T12:09:33Z</time>
      </trkpt>
      <trkpt lat="46.18597" lon="4.52063">
        <ele>519.8</ele>
        <time>2020-10-17T12:09:34Z</time>
      </trkpt>
      <trkpt lat="46.186" lon="4.52067">
        <ele>520</ele>
        <time>2020-10-17T12:09:35Z</time>
      </trkpt>
      <trkpt lat="46.18601" lon="4.52069">
        <ele>520</ele>
        <time>2020-10-17T12:09:36Z</time>
      </trkpt>
      <trkpt lat="46.18602" lon="4.52071">
        <ele>520</ele>
        <time>2020-10-17T12:09:37Z</time>
      </trkpt>
      <trkpt lat="46.18603" lon="4.52074">
        <ele>520</ele>
        <time>2020-10-17T12:09:38Z</time>
      </trkpt>
      <trkpt lat="46.18603" lon="4.52074">
        <ele>520</ele>
        <time>2020-10-17T12:09:39Z</time>
      </trkpt>
      <trkpt lat="46.18606" lon="4.52077">
        <ele>520</ele>
        <time>2020-10-17T12:09:40Z</time>
      </trkpt>
      <trkpt lat="46.18606" lon="4.52077">
        <ele>520.2</ele>
        <time>2020-10-17T12:09:41Z</time>
      </trkpt>
      <trkpt lat="46.18608" lon="4.5208">
        <ele>520</ele>
        <time>2020-10-17T12:09:42Z</time>
      </trkpt>
      <trkpt lat="46.18608" lon="4.5208">
        <ele>520</ele>
        <time>2020-10-17T12:09:43Z</time>
      </trkpt>
      <trkpt lat="46.18611" lon="4.52082">
        <ele>520</ele>
        <time>2020-10-17T12:09:44Z</time>
      </trkpt>
      <trkpt lat="46.18612" lon="4.52085">
        <ele>520</ele>
        <time>2020-10-17T12:09:45Z</time>
      </trkpt>
      <trkpt lat="46.18613" lon="4.52086">
        <ele>520</ele>
        <time>2020-10-17T12:09:46Z</time>
      </trkpt>
      <trkpt lat="46.18615" lon="4.52089">
        <ele>519.8</ele>
        <time>2020-10-17T12:09:47Z</time>
      </trkpt>
      <trkpt lat="46.18616" lon="4.52091">
        <ele>519.8</ele>
        <time>2020-10-17T12:09:48Z</time>
      </trkpt>
      <trkpt lat="46.18617" lon="4.52094">
        <ele>519.8</ele>
        <time>2020-10-17T12:09:49Z</time>
      </trkpt>
      <trkpt lat="46.18618" lon="4.52096">
        <ele>519.8</ele>
        <time>2020-10-17T12:09:50Z</time>
      </trkpt>
      <trkpt lat="46.18618" lon="4.52099">
        <ele>519.8</ele>
        <time>2020-10-17T12:09:51Z</time>
      </trkpt>
      <trkpt lat="46.18619" lon="4.52102">
        <ele>519.6</ele>
        <time>2020-10-17T12:09:52Z</time>
      </trkpt>
      <trkpt lat="46.18619" lon="4.52106">
        <ele>519.8</ele>
        <time>2020-10-17T12:09:53Z</time>
      </trkpt>
      <trkpt lat="46.18619" lon="4.5211">
        <ele>519.8</ele>
        <time>2020-10-17T12:09:54Z</time>
      </trkpt>
      <trkpt lat="46.18618" lon="4.52114">
        <ele>519.8</ele>
        <time>2020-10-17T12:09:55Z</time>
      </trkpt>
      <trkpt lat="46.18617" lon="4.52117">
        <ele>520</ele>
        <time>2020-10-17T12:09:56Z</time>
      </trkpt>
      <trkpt lat="46.18617" lon="4.52117">
        <ele>520</ele>
        <time>2020-10-17T12:09:57Z</time>
      </trkpt>
      <trkpt lat="46.18617" lon="4.52122">
        <ele>520</ele>
        <time>2020-10-17T12:09:58Z</time>
      </trkpt>
      <trkpt lat="46.18617" lon="4.52122">
        <ele>519.8</ele>
        <time>2020-10-17T12:09:59Z</time>
      </trkpt>
      <trkpt lat="46.18616" lon="4.52127">
        <ele>519.4</ele>
        <time>2020-10-17T12:10:00Z</time>
      </trkpt>
      <trkpt lat="46.18616" lon="4.52127">
        <ele>519.4</ele>
        <time>2020-10-17T12:10:01Z</time>
      </trkpt>
      <trkpt lat="46.18616" lon="4.52132">
        <ele>519</ele>
        <time>2020-10-17T12:10:02Z</time>
      </trkpt>
      <trkpt lat="46.18616" lon="4.52135">
        <ele>519.2</ele>
        <time>2020-10-17T12:10:03Z</time>
      </trkpt>
      <trkpt lat="46.18616" lon="4.52135">
        <ele>519.2</ele>
        <time>2020-10-17T12:10:04Z</time>
      </trkpt>
      <trkpt lat="46.18617" lon="4.52139">
        <ele>519</ele>
        <time>2020-10-17T12:10:05Z</time>
      </trkpt>
      <trkpt lat="46.18617" lon="4.52142">
        <ele>519.2</ele>
        <time>2020-10-17T12:10:06Z</time>
      </trkpt>
      <trkpt lat="46.18617" lon="4.52142">
        <ele>519</ele>
        <time>2020-10-17T12:10:07Z</time>
      </trkpt>
      <trkpt lat="46.18617" lon="4.52147">
        <ele>519</ele>
        <time>2020-10-17T12:10:08Z</time>
      </trkpt>
      <trkpt lat="46.18617" lon="4.52147">
        <ele>519.2</ele>
        <time>2020-10-17T12:10:09Z</time>
      </trkpt>
      <trkpt lat="46.18617" lon="4.52152">
        <ele>519.2</ele>
        <time>2020-10-17T12:10:10Z</time>
      </trkpt>
      <trkpt lat="46.18616" lon="4.52155">
        <ele>519</ele>
        <time>2020-10-17T12:10:11Z</time>
      </trkpt>
      <trkpt lat="46.18616" lon="4.52155">
        <ele>518.8</ele>
        <time>2020-10-17T12:10:12Z</time>
      </trkpt>
      <trkpt lat="46.18616" lon="4.52161">
        <ele>518.8</ele>
        <time>2020-10-17T12:10:13Z</time>
      </trkpt>
      <trkpt lat="46.18616" lon="4.52164">
        <ele>518.8</ele>
        <time>2020-10-17T12:10:14Z</time>
      </trkpt>
      <trkpt lat="46.18616" lon="4.5217">
        <ele>518.6</ele>
        <time>2020-10-17T12:10:15Z</time>
      </trkpt>
      <trkpt lat="46.18615" lon="4.52171">
        <ele>518.6</ele>
        <time>2020-10-17T12:10:16Z</time>
      </trkpt>
      <trkpt lat="46.18614" lon="4.52174">
        <ele>518.6</ele>
        <time>2020-10-17T12:10:17Z</time>
      </trkpt>
      <trkpt lat="46.18614" lon="4.52176">
        <ele>518.6</ele>
        <time>2020-10-17T12:10:18Z</time>
      </trkpt>
      <trkpt lat="46.18613" lon="4.52179">
        <ele>518.6</ele>
        <time>2020-10-17T12:10:19Z</time>
      </trkpt>
      <trkpt lat="46.18612" lon="4.52182">
        <ele>518.6</ele>
        <time>2020-10-17T12:10:20Z</time>
      </trkpt>
      <trkpt lat="46.18612" lon="4.52185">
        <ele>518.6</ele>
        <time>2020-10-17T12:10:21Z</time>
      </trkpt>
      <trkpt lat="46.18611" lon="4.52188">
        <ele>518.8</ele>
        <time>2020-10-17T12:10:22Z</time>
      </trkpt>
      <trkpt lat="46.1861" lon="4.52191">
        <ele>518.6</ele>
        <time>2020-10-17T12:10:23Z</time>
      </trkpt>
      <trkpt lat="46.18609" lon="4.52193">
        <ele>518.4</ele>
        <time>2020-10-17T12:10:24Z</time>
      </trkpt>
      <trkpt lat="46.18608" lon="4.52196">
        <ele>518.6</ele>
        <time>2020-10-17T12:10:25Z</time>
      </trkpt>
      <trkpt lat="46.18607" lon="4.522">
        <ele>518.4</ele>
        <time>2020-10-17T12:10:26Z</time>
      </trkpt>
      <trkpt lat="46.18607" lon="4.52202">
        <ele>518.2</ele>
        <time>2020-10-17T12:10:27Z</time>
      </trkpt>
      <trkpt lat="46.18606" lon="4.52205">
        <ele>518.4</ele>
        <time>2020-10-17T12:10:28Z</time>
      </trkpt>
      <trkpt lat="46.18605" lon="4.52208">
        <ele>518.4</ele>
        <time>2020-10-17T12:10:29Z</time>
      </trkpt>
      <trkpt lat="46.18604" lon="4.52211">
        <ele>518.2</ele>
        <time>2020-10-17T12:10:30Z</time>
      </trkpt>
      <trkpt lat="46.18603" lon="4.52214">
        <ele>518.4</ele>
        <time>2020-10-17T12:10:31Z</time>
      </trkpt>
      <trkpt lat="46.18602" lon="4.52217">
        <ele>518</ele>
        <time>2020-10-17T12:10:32Z</time>
      </trkpt>
      <trkpt lat="46.18601" lon="4.5222">
        <ele>517.8</ele>
        <time>2020-10-17T12:10:33Z</time>
      </trkpt>
      <trkpt lat="46.186" lon="4.52222">
        <ele>518</ele>
        <time>2020-10-17T12:10:34Z</time>
      </trkpt>
      <trkpt lat="46.18599" lon="4.52225">
        <ele>517.8</ele>
        <time>2020-10-17T12:10:35Z</time>
      </trkpt>
      <trkpt lat="46.18598" lon="4.52229">
        <ele>517.6</ele>
        <time>2020-10-17T12:10:36Z</time>
      </trkpt>
      <trkpt lat="46.18597" lon="4.52231">
        <ele>517.8</ele>
        <time>2020-10-17T12:10:37Z</time>
      </trkpt>
      <trkpt lat="46.18596" lon="4.52234">
        <ele>517.8</ele>
        <time>2020-10-17T12:10:38Z</time>
      </trkpt>
      <trkpt lat="46.18595" lon="4.52238">
        <ele>517.4</ele>
        <time>2020-10-17T12:10:39Z</time>
      </trkpt>
      <trkpt lat="46.18595" lon="4.5224">
        <ele>517.6</ele>
        <time>2020-10-17T12:10:40Z</time>
      </trkpt>
      <trkpt lat="46.18594" lon="4.52243">
        <ele>517.2</ele>
        <time>2020-10-17T12:10:41Z</time>
      </trkpt>
      <trkpt lat="46.18594" lon="4.52246">
        <ele>516.8</ele>
        <time>2020-10-17T12:10:42Z</time>
      </trkpt>
      <trkpt lat="46.18593" lon="4.52249">
        <ele>517.2</ele>
        <time>2020-10-17T12:10:43Z</time>
      </trkpt>
      <trkpt lat="46.18592" lon="4.52252">
        <ele>517</ele>
        <time>2020-10-17T12:10:44Z</time>
      </trkpt>
      <trkpt lat="46.18592" lon="4.52255">
        <ele>517</ele>
        <time>2020-10-17T12:10:45Z</time>
      </trkpt>
      <trkpt lat="46.18592" lon="4.52255">
        <ele>517</ele>
        <time>2020-10-17T12:10:46Z</time>
      </trkpt>
      <trkpt lat="46.18593" lon="4.5226">
        <ele>517</ele>
        <time>2020-10-17T12:10:47Z</time>
      </trkpt>
      <trkpt lat="46.18592" lon="4.52262">
        <ele>516.8</ele>
        <time>2020-10-17T12:10:48Z</time>
      </trkpt>
      <trkpt lat="46.18592" lon="4.52262">
        <ele>516.6</ele>
        <time>2020-10-17T12:10:49Z</time>
      </trkpt>
      <trkpt lat="46.18593" lon="4.52266">
        <ele>516.2</ele>
        <time>2020-10-17T12:10:50Z</time>
      </trkpt>
      <trkpt lat="46.18593" lon="4.52266">
        <ele>516.2</ele>
        <time>2020-10-17T12:10:51Z</time>
      </trkpt>
      <trkpt lat="46.18593" lon="4.5227">
        <ele>516</ele>
        <time>2020-10-17T12:10:52Z</time>
      </trkpt>
      <trkpt lat="46.18593" lon="4.5227">
        <ele>515.8</ele>
        <time>2020-10-17T12:10:53Z</time>
      </trkpt>
      <trkpt lat="46.18595" lon="4.52274">
        <ele>515.8</ele>
        <time>2020-10-17T12:10:54Z</time>
      </trkpt>
      <trkpt lat="46.18596" lon="4.52276">
        <ele>515.4</ele>
        <time>2020-10-17T12:10:55Z</time>
      </trkpt>
      <trkpt lat="46.18596" lon="4.52279">
        <ele>515.6</ele>
        <time>2020-10-17T12:10:56Z</time>
      </trkpt>
      <trkpt lat="46.18596" lon="4.52279">
        <ele>515.4</ele>
        <time>2020-10-17T12:10:57Z</time>
      </trkpt>
      <trkpt lat="46.18597" lon="4.52284">
        <ele>515.6</ele>
        <time>2020-10-17T12:10:58Z</time>
      </trkpt>
      <trkpt lat="46.18597" lon="4.52284">
        <ele>515.4</ele>
        <time>2020-10-17T12:10:59Z</time>
      </trkpt>
      <trkpt lat="46.18597" lon="4.52289">
        <ele>515.2</ele>
        <time>2020-10-17T12:11:00Z</time>
      </trkpt>
      <trkpt lat="46.18597" lon="4.52289">
        <ele>515.4</ele>
        <time>2020-10-17T12:11:01Z</time>
      </trkpt>
      <trkpt lat="46.18599" lon="4.52292">
        <ele>515.4</ele>
        <time>2020-10-17T12:11:02Z</time>
      </trkpt>
      <trkpt lat="46.18599" lon="4.52292">
        <ele>515.2</ele>
        <time>2020-10-17T12:11:03Z</time>
      </trkpt>
      <trkpt lat="46.186" lon="4.52295">
        <ele>515.2</ele>
        <time>2020-10-17T12:11:04Z</time>
      </trkpt>
      <trkpt lat="46.186" lon="4.52295">
        <ele>515.6</ele>
        <time>2020-10-17T12:11:05Z</time>
      </trkpt>
      <trkpt lat="46.186" lon="4.52295">
        <ele>515.4</ele>
        <time>2020-10-17T12:11:06Z</time>
      </trkpt>
      <trkpt lat="46.18602" lon="4.52297">
        <ele>515</ele>
        <time>2020-10-17T12:11:07Z</time>
      </trkpt>
      <trkpt lat="46.18602" lon="4.52297">
        <ele>514.8</ele>
        <time>2020-10-17T12:11:08Z</time>
      </trkpt>
      <trkpt lat="46.18602" lon="4.52301">
        <ele>514.8</ele>
        <time>2020-10-17T12:11:09Z</time>
      </trkpt>
      <trkpt lat="46.18601" lon="4.52304">
        <ele>514.6</ele>
        <time>2020-10-17T12:11:10Z</time>
      </trkpt>
      <trkpt lat="46.18601" lon="4.52304">
        <ele>514.6</ele>
        <time>2020-10-17T12:11:11Z</time>
      </trkpt>
      <trkpt lat="46.18602" lon="4.52308">
        <ele>514.6</ele>
        <time>2020-10-17T12:11:12Z</time>
      </trkpt>
      <trkpt lat="46.18602" lon="4.52308">
        <ele>514.2</ele>
        <time>2020-10-17T12:11:13Z</time>
      </trkpt>
      <trkpt lat="46.18602" lon="4.52312">
        <ele>514</ele>
        <time>2020-10-17T12:11:14Z</time>
      </trkpt>
      <trkpt lat="46.18602" lon="4.52312">
        <ele>514.2</ele>
        <time>2020-10-17T12:11:15Z</time>
      </trkpt>
      <trkpt lat="46.18602" lon="4.52316">
        <ele>514.2</ele>
        <time>2020-10-17T12:11:16Z</time>
      </trkpt>
      <trkpt lat="46.18602" lon="4.52319">
        <ele>514.4</ele>
        <time>2020-10-17T12:11:17Z</time>
      </trkpt>
      <trkpt lat="46.18602" lon="4.52319">
        <ele>514.4</ele>
        <time>2020-10-17T12:11:18Z</time>
      </trkpt>
      <trkpt lat="46.18602" lon="4.52324">
        <ele>514.2</ele>
        <time>2020-10-17T12:11:19Z</time>
      </trkpt>
      <trkpt lat="46.18602" lon="4.52326">
        <ele>514.2</ele>
        <time>2020-10-17T12:11:20Z</time>
      </trkpt>
      <trkpt lat="46.18602" lon="4.52326">
        <ele>514.2</ele>
        <time>2020-10-17T12:11:21Z</time>
      </trkpt>
      <trkpt lat="46.18604" lon="4.52331">
        <ele>514.2</ele>
        <time>2020-10-17T12:11:22Z</time>
      </trkpt>
      <trkpt lat="46.18604" lon="4.52331">
        <ele>514</ele>
        <time>2020-10-17T12:11:23Z</time>
      </trkpt>
      <trkpt lat="46.18603" lon="4.52335">
        <ele>514</ele>
        <time>2020-10-17T12:11:24Z</time>
      </trkpt>
      <trkpt lat="46.18603" lon="4.52335">
        <ele>514</ele>
        <time>2020-10-17T12:11:25Z</time>
      </trkpt>
      <trkpt lat="46.18603" lon="4.5234">
        <ele>514</ele>
        <time>2020-10-17T12:11:26Z</time>
      </trkpt>
      <trkpt lat="46.18603" lon="4.52342">
        <ele>514</ele>
        <time>2020-10-17T12:11:27Z</time>
      </trkpt>
      <trkpt lat="46.18604" lon="4.52345">
        <ele>513.8</ele>
        <time>2020-10-17T12:11:28Z</time>
      </trkpt>
      <trkpt lat="46.18604" lon="4.52345">
        <ele>514</ele>
        <time>2020-10-17T12:11:29Z</time>
      </trkpt>
      <trkpt lat="46.18604" lon="4.52345">
        <ele>513.8</ele>
        <time>2020-10-17T12:11:30Z</time>
      </trkpt>
      <trkpt lat="46.18604" lon="4.52345">
        <ele>513.8</ele>
        <time>2020-10-17T12:11:31Z</time>
      </trkpt>
      <trkpt lat="46.18604" lon="4.52347">
        <ele>513.8</ele>
        <time>2020-10-17T12:11:32Z</time>
      </trkpt>
      <trkpt lat="46.18604" lon="4.5235">
        <ele>513.8</ele>
        <time>2020-10-17T12:11:33Z</time>
      </trkpt>
      <trkpt lat="46.18604" lon="4.52352">
        <ele>513.6</ele>
        <time>2020-10-17T12:11:34Z</time>
      </trkpt>
      <trkpt lat="46.18604" lon="4.52354">
        <ele>513.6</ele>
        <time>2020-10-17T12:11:35Z</time>
      </trkpt>
      <trkpt lat="46.18604" lon="4.52357">
        <ele>513.6</ele>
        <time>2020-10-17T12:11:36Z</time>
      </trkpt>
      <trkpt lat="46.18604" lon="4.52359">
        <ele>513.4</ele>
        <time>2020-10-17T12:11:37Z</time>
      </trkpt>
      <trkpt lat="46.18605" lon="4.52361">
        <ele>513.6</ele>
        <time>2020-10-17T12:11:38Z</time>
      </trkpt>
      <trkpt lat="46.18606" lon="4.52362">
        <ele>513.4</ele>
        <time>2020-10-17T12:11:39Z</time>
      </trkpt>
      <trkpt lat="46.18607" lon="4.52364">
        <ele>513.2</ele>
        <time>2020-10-17T12:11:40Z</time>
      </trkpt>
      <trkpt lat="46.18607" lon="4.52366">
        <ele>513.2</ele>
        <time>2020-10-17T12:11:41Z</time>
      </trkpt>
      <trkpt lat="46.18608" lon="4.52368">
        <ele>513.2</ele>
        <time>2020-10-17T12:11:42Z</time>
      </trkpt>
      <trkpt lat="46.18609" lon="4.52369">
        <ele>513</ele>
        <time>2020-10-17T12:11:43Z</time>
      </trkpt>
      <trkpt lat="46.1861" lon="4.52371">
        <ele>513</ele>
        <time>2020-10-17T12:11:44Z</time>
      </trkpt>
      <trkpt lat="46.18611" lon="4.52373">
        <ele>512.6</ele>
        <time>2020-10-17T12:11:45Z</time>
      </trkpt>
      <trkpt lat="46.18612" lon="4.52374">
        <ele>512.6</ele>
        <time>2020-10-17T12:11:46Z</time>
      </trkpt>
      <trkpt lat="46.18613" lon="4.52375">
        <ele>512.6</ele>
        <time>2020-10-17T12:11:47Z</time>
      </trkpt>
      <trkpt lat="46.18614" lon="4.52377">
        <ele>512.6</ele>
        <time>2020-10-17T12:11:48Z</time>
      </trkpt>
      <trkpt lat="46.18615" lon="4.52378">
        <ele>512.6</ele>
        <time>2020-10-17T12:11:49Z</time>
      </trkpt>
      <trkpt lat="46.18617" lon="4.5238">
        <ele>512.6</ele>
        <time>2020-10-17T12:11:50Z</time>
      </trkpt>
      <trkpt lat="46.18618" lon="4.52381">
        <ele>512.4</ele>
        <time>2020-10-17T12:11:51Z</time>
      </trkpt>
      <trkpt lat="46.18617" lon="4.52382">
        <ele>512.4</ele>
        <time>2020-10-17T12:11:52Z</time>
      </trkpt>
      <trkpt lat="46.18617" lon="4.52383">
        <ele>512.6</ele>
        <time>2020-10-17T12:11:53Z</time>
      </trkpt>
      <trkpt lat="46.18617" lon="4.52384">
        <ele>512.4</ele>
        <time>2020-10-17T12:11:54Z</time>
      </trkpt>
      <trkpt lat="46.18617" lon="4.52386">
        <ele>512.4</ele>
        <time>2020-10-17T12:11:55Z</time>
      </trkpt>
      <trkpt lat="46.18616" lon="4.52387">
        <ele>512.4</ele>
        <time>2020-10-17T12:11:56Z</time>
      </trkpt>
      <trkpt lat="46.18616" lon="4.52388">
        <ele>512.4</ele>
        <time>2020-10-17T12:11:57Z</time>
      </trkpt>
      <trkpt lat="46.18616" lon="4.52389">
        <ele>512.4</ele>
        <time>2020-10-17T12:11:58Z</time>
      </trkpt>
      <trkpt lat="46.18616" lon="4.5239">
        <ele>512.2</ele>
        <time>2020-10-17T12:11:59Z</time>
      </trkpt>
      <trkpt lat="46.18615" lon="4.52391">
        <ele>512</ele>
        <time>2020-10-17T12:12:00Z</time>
      </trkpt>
      <trkpt lat="46.18615" lon="4.52392">
        <ele>512</ele>
        <time>2020-10-17T12:12:01Z</time>
      </trkpt>
      <trkpt lat="46.18615" lon="4.52392">
        <ele>512</ele>
        <time>2020-10-17T12:12:02Z</time>
      </trkpt>
      <trkpt lat="46.18615" lon="4.52392">
        <ele>512.2</ele>
        <time>2020-10-17T12:12:03Z</time>
      </trkpt>
      <trkpt lat="46.18615" lon="4.52392">
        <ele>512.2</ele>
        <time>2020-10-17T12:12:04Z</time>
      </trkpt>
      <trkpt lat="46.18615" lon="4.52392">
        <ele>512.2</ele>
        <time>2020-10-17T12:12:05Z</time>
      </trkpt>
      <trkpt lat="46.18615" lon="4.52392">
        <ele>512.2</ele>
        <time>2020-10-17T12:12:06Z</time>
      </trkpt>
      <trkpt lat="46.18615" lon="4.52392">
        <ele>512.4</ele>
        <time>2020-10-17T12:12:07Z</time>
      </trkpt>
      <trkpt lat="46.18615" lon="4.52392">
        <ele>512.4</ele>
        <time>2020-10-17T12:12:08Z</time>
      </trkpt>
      <trkpt lat="46.18615" lon="4.52392">
        <ele>512.4</ele>
        <time>2020-10-17T12:12:09Z</time>
      </trkpt>
      <trkpt lat="46.18615" lon="4.52392">
        <ele>512.2</ele>
        <time>2020-10-17T12:12:10Z</time>
      </trkpt>
      <trkpt lat="46.18615" lon="4.52392">
        <ele>512.2</ele>
        <time>2020-10-17T12:12:11Z</time>
      </trkpt>
      <trkpt lat="46.18615" lon="4.52392">
        <ele>512.2</ele>
        <time>2020-10-17T12:12:12Z</time>
      </trkpt>
      <trkpt lat="46.18615" lon="4.52392">
        <ele>512.2</ele>
        <time>2020-10-17T12:12:13Z</time>
      </trkpt>
      <trkpt lat="46.18615" lon="4.52392">
        <ele>512.4</ele>
        <time>2020-10-17T12:12:14Z</time>
      </trkpt>
      <trkpt lat="46.18615" lon="4.52392">
        <ele>512.4</ele>
        <time>2020-10-17T12:12:15Z</time>
      </trkpt>
      <trkpt lat="46.18615" lon="4.52392">
        <ele>512.4</ele>
        <time>2020-10-17T12:12:16Z</time>
      </trkpt>
      <trkpt lat="46.18614" lon="4.52395">
        <ele>512.2</ele>
        <time>2020-10-17T12:12:17Z</time>
      </trkpt>
      <trkpt lat="46.18614" lon="4.52395">
        <ele>512.4</ele>
        <time>2020-10-17T12:12:18Z</time>
      </trkpt>
      <trkpt lat="46.18614" lon="4.52395">
        <ele>512.4</ele>
        <time>2020-10-17T12:12:19Z</time>
      </trkpt>
      <trkpt lat="46.18614" lon="4.52398">
        <ele>512.4</ele>
        <time>2020-10-17T12:12:20Z</time>
      </trkpt>
      <trkpt lat="46.18614" lon="4.52398">
        <ele>512.6</ele>
        <time>2020-10-17T12:12:21Z</time>
      </trkpt>
      <trkpt lat="46.18614" lon="4.52398">
        <ele>512.6</ele>
        <time>2020-10-17T12:12:22Z</time>
      </trkpt>
      <trkpt lat="46.18615" lon="4.52402">
        <ele>512.4</ele>
        <time>2020-10-17T12:12:23Z</time>
      </trkpt>
      <trkpt lat="46.18615" lon="4.52402">
        <ele>512.4</ele>
        <time>2020-10-17T12:12:24Z</time>
      </trkpt>
      <trkpt lat="46.18615" lon="4.52402">
        <ele>512.2</ele>
        <time>2020-10-17T12:12:25Z</time>
      </trkpt>
      <trkpt lat="46.18617" lon="4.52404">
        <ele>512.2</ele>
        <time>2020-10-17T12:12:26Z</time>
      </trkpt>
      <trkpt lat="46.18617" lon="4.52404">
        <ele>512</ele>
        <time>2020-10-17T12:12:27Z</time>
      </trkpt>
      <trkpt lat="46.18617" lon="4.52404">
        <ele>512</ele>
        <time>2020-10-17T12:12:28Z</time>
      </trkpt>
      <trkpt lat="46.18617" lon="4.52404">
        <ele>511.8</ele>
        <time>2020-10-17T12:12:29Z</time>
      </trkpt>
      <trkpt lat="46.18618" lon="4.52405">
        <ele>511.6</ele>
        <time>2020-10-17T12:12:30Z</time>
      </trkpt>
      <trkpt lat="46.1862" lon="4.52406">
        <ele>511.6</ele>
        <time>2020-10-17T12:12:31Z</time>
      </trkpt>
      <trkpt lat="46.18621" lon="4.52407">
        <ele>511.6</ele>
        <time>2020-10-17T12:12:32Z</time>
      </trkpt>
      <trkpt lat="46.18623" lon="4.52408">
        <ele>511.6</ele>
        <time>2020-10-17T12:12:33Z</time>
      </trkpt>
      <trkpt lat="46.18624" lon="4.52409">
        <ele>511.6</ele>
        <time>2020-10-17T12:12:34Z</time>
      </trkpt>
      <trkpt lat="46.18626" lon="4.5241">
        <ele>511.8</ele>
        <time>2020-10-17T12:12:35Z</time>
      </trkpt>
      <trkpt lat="46.18627" lon="4.52411">
        <ele>511.6</ele>
        <time>2020-10-17T12:12:36Z</time>
      </trkpt>
      <trkpt lat="46.18629" lon="4.52415">
        <ele>511.6</ele>
        <time>2020-10-17T12:12:37Z</time>
      </trkpt>
      <trkpt lat="46.1863" lon="4.52417">
        <ele>511.6</ele>
        <time>2020-10-17T12:12:38Z</time>
      </trkpt>
      <trkpt lat="46.18631" lon="4.5242">
        <ele>511.8</ele>
        <time>2020-10-17T12:12:39Z</time>
      </trkpt>
      <trkpt lat="46.18631" lon="4.5242">
        <ele>511.6</ele>
        <time>2020-10-17T12:12:40Z</time>
      </trkpt>
      <trkpt lat="46.18631" lon="4.52424">
        <ele>511.6</ele>
        <time>2020-10-17T12:12:41Z</time>
      </trkpt>
      <trkpt lat="46.18631" lon="4.52424">
        <ele>511.4</ele>
        <time>2020-10-17T12:12:42Z</time>
      </trkpt>
      <trkpt lat="46.18633" lon="4.52428">
        <ele>511.6</ele>
        <time>2020-10-17T12:12:43Z</time>
      </trkpt>
      <trkpt lat="46.18634" lon="4.5243">
        <ele>511.6</ele>
        <time>2020-10-17T12:12:44Z</time>
      </trkpt>
      <trkpt lat="46.18635" lon="4.52433">
        <ele>511.6</ele>
        <time>2020-10-17T12:12:45Z</time>
      </trkpt>
      <trkpt lat="46.18635" lon="4.52433">
        <ele>511.6</ele>
        <time>2020-10-17T12:12:46Z</time>
      </trkpt>
      <trkpt lat="46.18636" lon="4.52438">
        <ele>511.8</ele>
        <time>2020-10-17T12:12:47Z</time>
      </trkpt>
      <trkpt lat="46.18636" lon="4.52438">
        <ele>511.8</ele>
        <time>2020-10-17T12:12:48Z</time>
      </trkpt>
      <trkpt lat="46.18637" lon="4.52443">
        <ele>511.8</ele>
        <time>2020-10-17T12:12:49Z</time>
      </trkpt>
      <trkpt lat="46.18638" lon="4.52445">
        <ele>511.8</ele>
        <time>2020-10-17T12:12:50Z</time>
      </trkpt>
      <trkpt lat="46.18639" lon="4.52448">
        <ele>512</ele>
        <time>2020-10-17T12:12:51Z</time>
      </trkpt>
      <trkpt lat="46.18639" lon="4.52448">
        <ele>512.2</ele>
        <time>2020-10-17T12:12:52Z</time>
      </trkpt>
      <trkpt lat="46.1864" lon="4.52452">
        <ele>512.4</ele>
        <time>2020-10-17T12:12:53Z</time>
      </trkpt>
      <trkpt lat="46.1864" lon="4.52452">
        <ele>512.4</ele>
        <time>2020-10-17T12:12:54Z</time>
      </trkpt>
      <trkpt lat="46.18642" lon="4.52457">
        <ele>512.6</ele>
        <time>2020-10-17T12:12:55Z</time>
      </trkpt>
      <trkpt lat="46.18643" lon="4.52459">
        <ele>512.8</ele>
        <time>2020-10-17T12:12:56Z</time>
      </trkpt>
      <trkpt lat="46.18643" lon="4.52462">
        <ele>513</ele>
        <time>2020-10-17T12:12:57Z</time>
      </trkpt>
      <trkpt lat="46.18644" lon="4.52464">
        <ele>513.2</ele>
        <time>2020-10-17T12:12:58Z</time>
      </trkpt>
      <trkpt lat="46.18644" lon="4.52464">
        <ele>513.2</ele>
        <time>2020-10-17T12:12:59Z</time>
      </trkpt>
      <trkpt lat="46.18646" lon="4.52468">
        <ele>513.6</ele>
        <time>2020-10-17T12:13:00Z</time>
      </trkpt>
      <trkpt lat="46.18646" lon="4.52468">
        <ele>513.6</ele>
        <time>2020-10-17T12:13:01Z</time>
      </trkpt>
      <trkpt lat="46.18647" lon="4.52471">
        <ele>513.6</ele>
        <time>2020-10-17T12:13:02Z</time>
      </trkpt>
      <trkpt lat="46.18647" lon="4.52471">
        <ele>513.8</ele>
        <time>2020-10-17T12:13:03Z</time>
      </trkpt>
      <trkpt lat="46.18649" lon="4.52474">
        <ele>513.8</ele>
        <time>2020-10-17T12:13:04Z</time>
      </trkpt>
      <trkpt lat="46.18649" lon="4.52474">
        <ele>514</ele>
        <time>2020-10-17T12:13:05Z</time>
      </trkpt>
      <trkpt lat="46.1865" lon="4.52479">
        <ele>514</ele>
        <time>2020-10-17T12:13:06Z</time>
      </trkpt>
      <trkpt lat="46.1865" lon="4.52479">
        <ele>514.2</ele>
        <time>2020-10-17T12:13:07Z</time>
      </trkpt>
      <trkpt lat="46.18651" lon="4.52483">
        <ele>514.2</ele>
        <time>2020-10-17T12:13:08Z</time>
      </trkpt>
      <trkpt lat="46.18652" lon="4.52485">
        <ele>514.2</ele>
        <time>2020-10-17T12:13:09Z</time>
      </trkpt>
      <trkpt lat="46.18653" lon="4.52489">
        <ele>514.2</ele>
        <time>2020-10-17T12:13:10Z</time>
      </trkpt>
      <trkpt lat="46.18652" lon="4.52492">
        <ele>514.4</ele>
        <time>2020-10-17T12:13:11Z</time>
      </trkpt>
      <trkpt lat="46.18652" lon="4.52494">
        <ele>514.2</ele>
        <time>2020-10-17T12:13:12Z</time>
      </trkpt>
      <trkpt lat="46.18652" lon="4.52494">
        <ele>514.4</ele>
        <time>2020-10-17T12:13:13Z</time>
      </trkpt>
      <trkpt lat="46.18652" lon="4.52499">
        <ele>514.8</ele>
        <time>2020-10-17T12:13:14Z</time>
      </trkpt>
      <trkpt lat="46.18652" lon="4.52499">
        <ele>514.8</ele>
        <time>2020-10-17T12:13:15Z</time>
      </trkpt>
      <trkpt lat="46.18653" lon="4.52504">
        <ele>514.8</ele>
        <time>2020-10-17T12:13:16Z</time>
      </trkpt>
      <trkpt lat="46.18653" lon="4.52504">
        <ele>514.8</ele>
        <time>2020-10-17T12:13:17Z</time>
      </trkpt>
      <trkpt lat="46.18654" lon="4.52509">
        <ele>515</ele>
        <time>2020-10-17T12:13:18Z</time>
      </trkpt>
      <trkpt lat="46.18653" lon="4.52511">
        <ele>515.2</ele>
        <time>2020-10-17T12:13:19Z</time>
      </trkpt>
      <trkpt lat="46.18653" lon="4.52511">
        <ele>515.4</ele>
        <time>2020-10-17T12:13:20Z</time>
      </trkpt>
      <trkpt lat="46.18653" lon="4.52516">
        <ele>515.6</ele>
        <time>2020-10-17T12:13:21Z</time>
      </trkpt>
      <trkpt lat="46.18653" lon="4.52516">
        <ele>515.6</ele>
        <time>2020-10-17T12:13:22Z</time>
      </trkpt>
      <trkpt lat="46.18653" lon="4.52521">
        <ele>516</ele>
        <time>2020-10-17T12:13:23Z</time>
      </trkpt>
      <trkpt lat="46.18653" lon="4.52521">
        <ele>516</ele>
        <time>2020-10-17T12:13:24Z</time>
      </trkpt>
      <trkpt lat="46.18653" lon="4.52525">
        <ele>516</ele>
        <time>2020-10-17T12:13:25Z</time>
      </trkpt>
      <trkpt lat="46.18653" lon="4.52525">
        <ele>516</ele>
        <time>2020-10-17T12:13:26Z</time>
      </trkpt>
      <trkpt lat="46.18652" lon="4.5253">
        <ele>516</ele>
        <time>2020-10-17T12:13:27Z</time>
      </trkpt>
      <trkpt lat="46.18652" lon="4.5253">
        <ele>516</ele>
        <time>2020-10-17T12:13:28Z</time>
      </trkpt>
      <trkpt lat="46.18651" lon="4.52534">
        <ele>516.2</ele>
        <time>2020-10-17T12:13:29Z</time>
      </trkpt>
      <trkpt lat="46.18651" lon="4.52537">
        <ele>516.2</ele>
        <time>2020-10-17T12:13:30Z</time>
      </trkpt>
      <trkpt lat="46.18651" lon="4.52537">
        <ele>516.2</ele>
        <time>2020-10-17T12:13:31Z</time>
      </trkpt>
      <trkpt lat="46.18649" lon="4.52541">
        <ele>516</ele>
        <time>2020-10-17T12:13:32Z</time>
      </trkpt>
      <trkpt lat="46.18649" lon="4.52544">
        <ele>516.2</ele>
        <time>2020-10-17T12:13:33Z</time>
      </trkpt>
      <trkpt lat="46.18649" lon="4.52544">
        <ele>516.4</ele>
        <time>2020-10-17T12:13:34Z</time>
      </trkpt>
      <trkpt lat="46.18648" lon="4.52549">
        <ele>516.6</ele>
        <time>2020-10-17T12:13:35Z</time>
      </trkpt>
      <trkpt lat="46.18648" lon="4.52549">
        <ele>516.6</ele>
        <time>2020-10-17T12:13:36Z</time>
      </trkpt>
      <trkpt lat="46.18647" lon="4.52553">
        <ele>516.4</ele>
        <time>2020-10-17T12:13:37Z</time>
      </trkpt>
      <trkpt lat="46.18647" lon="4.52553">
        <ele>516.6</ele>
        <time>2020-10-17T12:13:38Z</time>
      </trkpt>
      <trkpt lat="46.18645" lon="4.52557">
        <ele>516.8</ele>
        <time>2020-10-17T12:13:39Z</time>
      </trkpt>
      <trkpt lat="46.18645" lon="4.52557">
        <ele>516.8</ele>
        <time>2020-10-17T12:13:40Z</time>
      </trkpt>
      <trkpt lat="46.18644" lon="4.52561">
        <ele>517</ele>
        <time>2020-10-17T12:13:41Z</time>
      </trkpt>
      <trkpt lat="46.18644" lon="4.52561">
        <ele>517.2</ele>
        <time>2020-10-17T12:13:42Z</time>
      </trkpt>
      <trkpt lat="46.18642" lon="4.52565">
        <ele>517.2</ele>
        <time>2020-10-17T12:13:43Z</time>
      </trkpt>
      <trkpt lat="46.18641" lon="4.52567">
        <ele>517.2</ele>
        <time>2020-10-17T12:13:44Z</time>
      </trkpt>
      <trkpt lat="46.18639" lon="4.52569">
        <ele>517.4</ele>
        <time>2020-10-17T12:13:45Z</time>
      </trkpt>
      <trkpt lat="46.18639" lon="4.52569">
        <ele>517.4</ele>
        <time>2020-10-17T12:13:46Z</time>
      </trkpt>
      <trkpt lat="46.18637" lon="4.52572">
        <ele>517.4</ele>
        <time>2020-10-17T12:13:47Z</time>
      </trkpt>
      <trkpt lat="46.18637" lon="4.52572">
        <ele>517.4</ele>
        <time>2020-10-17T12:13:48Z</time>
      </trkpt>
      <trkpt lat="46.18635" lon="4.52575">
        <ele>517.6</ele>
        <time>2020-10-17T12:13:49Z</time>
      </trkpt>
      <trkpt lat="46.18635" lon="4.52575">
        <ele>517.6</ele>
        <time>2020-10-17T12:13:50Z</time>
      </trkpt>
      <trkpt lat="46.18633" lon="4.52578">
        <ele>517.6</ele>
        <time>2020-10-17T12:13:51Z</time>
      </trkpt>
      <trkpt lat="46.18633" lon="4.52578">
        <ele>517.6</ele>
        <time>2020-10-17T12:13:52Z</time>
      </trkpt>
      <trkpt lat="46.18632" lon="4.52581">
        <ele>518</ele>
        <time>2020-10-17T12:13:53Z</time>
      </trkpt>
      <trkpt lat="46.18632" lon="4.52581">
        <ele>518</ele>
        <time>2020-10-17T12:13:54Z</time>
      </trkpt>
      <trkpt lat="46.1863" lon="4.52584">
        <ele>518.2</ele>
        <time>2020-10-17T12:13:55Z</time>
      </trkpt>
      <trkpt lat="46.1863" lon="4.52584">
        <ele>518.4</ele>
        <time>2020-10-17T12:13:56Z</time>
      </trkpt>
      <trkpt lat="46.18629" lon="4.52588">
        <ele>518.6</ele>
        <time>2020-10-17T12:13:57Z</time>
      </trkpt>
      <trkpt lat="46.18626" lon="4.52589">
        <ele>518.6</ele>
        <time>2020-10-17T12:13:58Z</time>
      </trkpt>
      <trkpt lat="46.18625" lon="4.5259">
        <ele>518.8</ele>
        <time>2020-10-17T12:13:59Z</time>
      </trkpt>
      <trkpt lat="46.18625" lon="4.5259">
        <ele>518.8</ele>
        <time>2020-10-17T12:14:00Z</time>
      </trkpt>
      <trkpt lat="46.18622" lon="4.52593">
        <ele>518.8</ele>
        <time>2020-10-17T12:14:01Z</time>
      </trkpt>
      <trkpt lat="46.18622" lon="4.52593">
        <ele>519</ele>
        <time>2020-10-17T12:14:02Z</time>
      </trkpt>
      <trkpt lat="46.1862" lon="4.52597">
        <ele>519</ele>
        <time>2020-10-17T12:14:03Z</time>
      </trkpt>
      <trkpt lat="46.1862" lon="4.52597">
        <ele>519.2</ele>
        <time>2020-10-17T12:14:04Z</time>
      </trkpt>
      <trkpt lat="46.18617" lon="4.526">
        <ele>519.2</ele>
        <time>2020-10-17T12:14:05Z</time>
      </trkpt>
      <trkpt lat="46.18617" lon="4.526">
        <ele>519.4</ele>
        <time>2020-10-17T12:14:06Z</time>
      </trkpt>
      <trkpt lat="46.18615" lon="4.52603">
        <ele>519.6</ele>
        <time>2020-10-17T12:14:07Z</time>
      </trkpt>
      <trkpt lat="46.18615" lon="4.52603">
        <ele>519.8</ele>
        <time>2020-10-17T12:14:08Z</time>
      </trkpt>
      <trkpt lat="46.18613" lon="4.52607">
        <ele>520</ele>
        <time>2020-10-17T12:14:09Z</time>
      </trkpt>
      <trkpt lat="46.18613" lon="4.52607">
        <ele>520</ele>
        <time>2020-10-17T12:14:10Z</time>
      </trkpt>
      <trkpt lat="46.1861" lon="4.52609">
        <ele>520</ele>
        <time>2020-10-17T12:14:11Z</time>
      </trkpt>
      <trkpt lat="46.1861" lon="4.52609">
        <ele>520.2</ele>
        <time>2020-10-17T12:14:12Z</time>
      </trkpt>
      <trkpt lat="46.18608" lon="4.52611">
        <ele>520.6</ele>
        <time>2020-10-17T12:14:13Z</time>
      </trkpt>
      <trkpt lat="46.18608" lon="4.52611">
        <ele>520.6</ele>
        <time>2020-10-17T12:14:14Z</time>
      </trkpt>
      <trkpt lat="46.18605" lon="4.52613">
        <ele>520.6</ele>
        <time>2020-10-17T12:14:15Z</time>
      </trkpt>
      <trkpt lat="46.18605" lon="4.52613">
        <ele>520.8</ele>
        <time>2020-10-17T12:14:16Z</time>
      </trkpt>
      <trkpt lat="46.18603" lon="4.52616">
        <ele>520.8</ele>
        <time>2020-10-17T12:14:17Z</time>
      </trkpt>
      <trkpt lat="46.18603" lon="4.52616">
        <ele>520.8</ele>
        <time>2020-10-17T12:14:18Z</time>
      </trkpt>
      <trkpt lat="46.186" lon="4.52619">
        <ele>520.8</ele>
        <time>2020-10-17T12:14:19Z</time>
      </trkpt>
      <trkpt lat="46.186" lon="4.52619">
        <ele>520.8</ele>
        <time>2020-10-17T12:14:20Z</time>
      </trkpt>
      <trkpt lat="46.18598" lon="4.52622">
        <ele>520.8</ele>
        <time>2020-10-17T12:14:21Z</time>
      </trkpt>
      <trkpt lat="46.18598" lon="4.52622">
        <ele>520.6</ele>
        <time>2020-10-17T12:14:22Z</time>
      </trkpt>
      <trkpt lat="46.18595" lon="4.52624">
        <ele>520.8</ele>
        <time>2020-10-17T12:14:23Z</time>
      </trkpt>
      <trkpt lat="46.18595" lon="4.52624">
        <ele>520.8</ele>
        <time>2020-10-17T12:14:24Z</time>
      </trkpt>
      <trkpt lat="46.18593" lon="4.52627">
        <ele>520.8</ele>
        <time>2020-10-17T12:14:25Z</time>
      </trkpt>
      <trkpt lat="46.18593" lon="4.52627">
        <ele>520.8</ele>
        <time>2020-10-17T12:14:26Z</time>
      </trkpt>
      <trkpt lat="46.18591" lon="4.52629">
        <ele>521</ele>
        <time>2020-10-17T12:14:27Z</time>
      </trkpt>
      <trkpt lat="46.18591" lon="4.52629">
        <ele>521</ele>
        <time>2020-10-17T12:14:28Z</time>
      </trkpt>
      <trkpt lat="46.18588" lon="4.52632">
        <ele>521.2</ele>
        <time>2020-10-17T12:14:29Z</time>
      </trkpt>
      <trkpt lat="46.18588" lon="4.52632">
        <ele>521.4</ele>
        <time>2020-10-17T12:14:30Z</time>
      </trkpt>
      <trkpt lat="46.18586" lon="4.52634">
        <ele>521.6</ele>
        <time>2020-10-17T12:14:31Z</time>
      </trkpt>
      <trkpt lat="46.18586" lon="4.52634">
        <ele>521.8</ele>
        <time>2020-10-17T12:14:32Z</time>
      </trkpt>
      <trkpt lat="46.18583" lon="4.52636">
        <ele>521.8</ele>
        <time>2020-10-17T12:14:33Z</time>
      </trkpt>
      <trkpt lat="46.18583" lon="4.52636">
        <ele>522</ele>
        <time>2020-10-17T12:14:34Z</time>
      </trkpt>
      <trkpt lat="46.1858" lon="4.52638">
        <ele>521.8</ele>
        <time>2020-10-17T12:14:35Z</time>
      </trkpt>
      <trkpt lat="46.1858" lon="4.52638">
        <ele>521.8</ele>
        <time>2020-10-17T12:14:36Z</time>
      </trkpt>
      <trkpt lat="46.18578" lon="4.52638">
        <ele>521.6</ele>
        <time>2020-10-17T12:14:37Z</time>
      </trkpt>
      <trkpt lat="46.18578" lon="4.52638">
        <ele>521.8</ele>
        <time>2020-10-17T12:14:38Z</time>
      </trkpt>
      <trkpt lat="46.18576" lon="4.52635">
        <ele>521.8</ele>
        <time>2020-10-17T12:14:39Z</time>
      </trkpt>
      <trkpt lat="46.18576" lon="4.52635">
        <ele>522</ele>
        <time>2020-10-17T12:14:40Z</time>
      </trkpt>
      <trkpt lat="46.18575" lon="4.52632">
        <ele>522.2</ele>
        <time>2020-10-17T12:14:41Z</time>
      </trkpt>
      <trkpt lat="46.18575" lon="4.52632">
        <ele>522.4</ele>
        <time>2020-10-17T12:14:42Z</time>
      </trkpt>
      <trkpt lat="46.18574" lon="4.52629">
        <ele>522.4</ele>
        <time>2020-10-17T12:14:43Z</time>
      </trkpt>
      <trkpt lat="46.18574" lon="4.52629">
        <ele>522.6</ele>
        <time>2020-10-17T12:14:44Z</time>
      </trkpt>
      <trkpt lat="46.18572" lon="4.52626">
        <ele>522.8</ele>
        <time>2020-10-17T12:14:45Z</time>
      </trkpt>
      <trkpt lat="46.18572" lon="4.52626">
        <ele>523</ele>
        <time>2020-10-17T12:14:46Z</time>
      </trkpt>
      <trkpt lat="46.1857" lon="4.52625">
        <ele>523</ele>
        <time>2020-10-17T12:14:47Z</time>
      </trkpt>
      <trkpt lat="46.1857" lon="4.52625">
        <ele>523.2</ele>
        <time>2020-10-17T12:14:48Z</time>
      </trkpt>
      <trkpt lat="46.18568" lon="4.52624">
        <ele>523.4</ele>
        <time>2020-10-17T12:14:49Z</time>
      </trkpt>
      <trkpt lat="46.18568" lon="4.52624">
        <ele>523.4</ele>
        <time>2020-10-17T12:14:50Z</time>
      </trkpt>
      <trkpt lat="46.18565" lon="4.52623">
        <ele>523.6</ele>
        <time>2020-10-17T12:14:51Z</time>
      </trkpt>
      <trkpt lat="46.18565" lon="4.52623">
        <ele>523.6</ele>
        <time>2020-10-17T12:14:52Z</time>
      </trkpt>
      <trkpt lat="46.18562" lon="4.52623">
        <ele>523.8</ele>
        <time>2020-10-17T12:14:53Z</time>
      </trkpt>
      <trkpt lat="46.18562" lon="4.52623">
        <ele>524</ele>
        <time>2020-10-17T12:14:54Z</time>
      </trkpt>
      <trkpt lat="46.1856" lon="4.52624">
        <ele>524.4</ele>
        <time>2020-10-17T12:14:55Z</time>
      </trkpt>
      <trkpt lat="46.1856" lon="4.52624">
        <ele>524.6</ele>
        <time>2020-10-17T12:14:56Z</time>
      </trkpt>
      <trkpt lat="46.18557" lon="4.52624">
        <ele>524.4</ele>
        <time>2020-10-17T12:14:57Z</time>
      </trkpt>
      <trkpt lat="46.18557" lon="4.52624">
        <ele>524.6</ele>
        <time>2020-10-17T12:14:58Z</time>
      </trkpt>
      <trkpt lat="46.18554" lon="4.52623">
        <ele>524.8</ele>
        <time>2020-10-17T12:14:59Z</time>
      </trkpt>
      <trkpt lat="46.18554" lon="4.52623">
        <ele>525</ele>
        <time>2020-10-17T12:15:00Z</time>
      </trkpt>
      <trkpt lat="46.18551" lon="4.52624">
        <ele>525.2</ele>
        <time>2020-10-17T12:15:01Z</time>
      </trkpt>
      <trkpt lat="46.18551" lon="4.52624">
        <ele>525.4</ele>
        <time>2020-10-17T12:15:02Z</time>
      </trkpt>
      <trkpt lat="46.18548" lon="4.52624">
        <ele>525.4</ele>
        <time>2020-10-17T12:15:03Z</time>
      </trkpt>
      <trkpt lat="46.18548" lon="4.52624">
        <ele>525.6</ele>
        <time>2020-10-17T12:15:04Z</time>
      </trkpt>
      <trkpt lat="46.18545" lon="4.52624">
        <ele>525.8</ele>
        <time>2020-10-17T12:15:05Z</time>
      </trkpt>
      <trkpt lat="46.18545" lon="4.52624">
        <ele>525.8</ele>
        <time>2020-10-17T12:15:06Z</time>
      </trkpt>
      <trkpt lat="46.18542" lon="4.52624">
        <ele>525.8</ele>
        <time>2020-10-17T12:15:07Z</time>
      </trkpt>
      <trkpt lat="46.18542" lon="4.52624">
        <ele>526</ele>
        <time>2020-10-17T12:15:08Z</time>
      </trkpt>
      <trkpt lat="46.1854" lon="4.52624">
        <ele>526</ele>
        <time>2020-10-17T12:15:09Z</time>
      </trkpt>
      <trkpt lat="46.1854" lon="4.52624">
        <ele>526.2</ele>
        <time>2020-10-17T12:15:10Z</time>
      </trkpt>
      <trkpt lat="46.1854" lon="4.52624">
        <ele>526.2</ele>
        <time>2020-10-17T12:15:11Z</time>
      </trkpt>
      <trkpt lat="46.1854" lon="4.52624">
        <ele>526.4</ele>
        <time>2020-10-17T12:15:12Z</time>
      </trkpt>
      <trkpt lat="46.1854" lon="4.52624">
        <ele>526.8</ele>
        <time>2020-10-17T12:15:13Z</time>
      </trkpt>
      <trkpt lat="46.1854" lon="4.52624">
        <ele>526.8</ele>
        <time>2020-10-17T12:15:14Z</time>
      </trkpt>
      <trkpt lat="46.1854" lon="4.52624">
        <ele>527</ele>
        <time>2020-10-17T12:15:15Z</time>
      </trkpt>
      <trkpt lat="46.1854" lon="4.52624">
        <ele>527</ele>
        <time>2020-10-17T12:15:16Z</time>
      </trkpt>
      <trkpt lat="46.1854" lon="4.52624">
        <ele>527.2</ele>
        <time>2020-10-17T12:15:17Z</time>
      </trkpt>
      <trkpt lat="46.1854" lon="4.52624">
        <ele>527.2</ele>
        <time>2020-10-17T12:15:18Z</time>
      </trkpt>
      <trkpt lat="46.1854" lon="4.52624">
        <ele>527.2</ele>
        <time>2020-10-17T12:15:19Z</time>
      </trkpt>
      <trkpt lat="46.1854" lon="4.52624">
        <ele>527.2</ele>
        <time>2020-10-17T12:15:20Z</time>
      </trkpt>
      <trkpt lat="46.18538" lon="4.52624">
        <ele>527.6</ele>
        <time>2020-10-17T12:15:21Z</time>
      </trkpt>
      <trkpt lat="46.18538" lon="4.52624">
        <ele>527.6</ele>
        <time>2020-10-17T12:15:22Z</time>
      </trkpt>
      <trkpt lat="46.18536" lon="4.52623">
        <ele>527.4</ele>
        <time>2020-10-17T12:15:23Z</time>
      </trkpt>
      <trkpt lat="46.18536" lon="4.52623">
        <ele>527.4</ele>
        <time>2020-10-17T12:15:24Z</time>
      </trkpt>
      <trkpt lat="46.18533" lon="4.52623">
        <ele>527.2</ele>
        <time>2020-10-17T12:15:25Z</time>
      </trkpt>
      <trkpt lat="46.18533" lon="4.52623">
        <ele>527.2</ele>
        <time>2020-10-17T12:15:26Z</time>
      </trkpt>
      <trkpt lat="46.18529" lon="4.52623">
        <ele>526.8</ele>
        <time>2020-10-17T12:15:27Z</time>
      </trkpt>
      <trkpt lat="46.18529" lon="4.52623">
        <ele>526.8</ele>
        <time>2020-10-17T12:15:28Z</time>
      </trkpt>
      <trkpt lat="46.18526" lon="4.52623">
        <ele>526.6</ele>
        <time>2020-10-17T12:15:29Z</time>
      </trkpt>
      <trkpt lat="46.18526" lon="4.52623">
        <ele>526.2</ele>
        <time>2020-10-17T12:15:30Z</time>
      </trkpt>
      <trkpt lat="46.18523" lon="4.52623">
        <ele>526.2</ele>
        <time>2020-10-17T12:15:31Z</time>
      </trkpt>
      <trkpt lat="46.18523" lon="4.52623">
        <ele>526</ele>
        <time>2020-10-17T12:15:32Z</time>
      </trkpt>
      <trkpt lat="46.1852" lon="4.52623">
        <ele>526</ele>
        <time>2020-10-17T12:15:33Z</time>
      </trkpt>
      <trkpt lat="46.1852" lon="4.52623">
        <ele>526</ele>
        <time>2020-10-17T12:15:34Z</time>
      </trkpt>
      <trkpt lat="46.18516" lon="4.52623">
        <ele>525.8</ele>
        <time>2020-10-17T12:15:35Z</time>
      </trkpt>
      <trkpt lat="46.18516" lon="4.52623">
        <ele>526</ele>
        <time>2020-10-17T12:15:36Z</time>
      </trkpt>
      <trkpt lat="46.18513" lon="4.52623">
        <ele>526</ele>
        <time>2020-10-17T12:15:37Z</time>
      </trkpt>
      <trkpt lat="46.18513" lon="4.52623">
        <ele>526.2</ele>
        <time>2020-10-17T12:15:38Z</time>
      </trkpt>
      <trkpt lat="46.1851" lon="4.52622">
        <ele>526.2</ele>
        <time>2020-10-17T12:15:39Z</time>
      </trkpt>
      <trkpt lat="46.1851" lon="4.52622">
        <ele>526.4</ele>
        <time>2020-10-17T12:15:40Z</time>
      </trkpt>
      <trkpt lat="46.18507" lon="4.52622">
        <ele>526.2</ele>
        <time>2020-10-17T12:15:41Z</time>
      </trkpt>
      <trkpt lat="46.18507" lon="4.52622">
        <ele>526.2</ele>
        <time>2020-10-17T12:15:42Z</time>
      </trkpt>
      <trkpt lat="46.18503" lon="4.52622">
        <ele>526.4</ele>
        <time>2020-10-17T12:15:43Z</time>
      </trkpt>
      <trkpt lat="46.18503" lon="4.52622">
        <ele>526.2</ele>
        <time>2020-10-17T12:15:44Z</time>
      </trkpt>
      <trkpt lat="46.185" lon="4.52621">
        <ele>526</ele>
        <time>2020-10-17T12:15:45Z</time>
      </trkpt>
      <trkpt lat="46.185" lon="4.52621">
        <ele>526.2</ele>
        <time>2020-10-17T12:15:46Z</time>
      </trkpt>
      <trkpt lat="46.18498" lon="4.5262">
        <ele>526.6</ele>
        <time>2020-10-17T12:15:47Z</time>
      </trkpt>
      <trkpt lat="46.18498" lon="4.5262">
        <ele>526.8</ele>
        <time>2020-10-17T12:15:48Z</time>
      </trkpt>
      <trkpt lat="46.18495" lon="4.52619">
        <ele>526.8</ele>
        <time>2020-10-17T12:15:49Z</time>
      </trkpt>
      <trkpt lat="46.18495" lon="4.52619">
        <ele>526.8</ele>
        <time>2020-10-17T12:15:50Z</time>
      </trkpt>
      <trkpt lat="46.18492" lon="4.52619">
        <ele>527</ele>
        <time>2020-10-17T12:15:51Z</time>
      </trkpt>
      <trkpt lat="46.18492" lon="4.52619">
        <ele>527</ele>
        <time>2020-10-17T12:15:52Z</time>
      </trkpt>
      <trkpt lat="46.18489" lon="4.52618">
        <ele>527</ele>
        <time>2020-10-17T12:15:53Z</time>
      </trkpt>
      <trkpt lat="46.18489" lon="4.52618">
        <ele>527</ele>
        <time>2020-10-17T12:15:54Z</time>
      </trkpt>
      <trkpt lat="46.18486" lon="4.52618">
        <ele>526.6</ele>
        <time>2020-10-17T12:15:55Z</time>
      </trkpt>
      <trkpt lat="46.18486" lon="4.52618">
        <ele>526.4</ele>
        <time>2020-10-17T12:15:56Z</time>
      </trkpt>
      <trkpt lat="46.18483" lon="4.52617">
        <ele>526.4</ele>
        <time>2020-10-17T12:15:57Z</time>
      </trkpt>
      <trkpt lat="46.18483" lon="4.52617">
        <ele>526.2</ele>
        <time>2020-10-17T12:15:58Z</time>
      </trkpt>
      <trkpt lat="46.1848" lon="4.52616">
        <ele>526.2</ele>
        <time>2020-10-17T12:15:59Z</time>
      </trkpt>
      <trkpt lat="46.1848" lon="4.52616">
        <ele>526.2</ele>
        <time>2020-10-17T12:16:00Z</time>
      </trkpt>
      <trkpt lat="46.18477" lon="4.52615">
        <ele>526.4</ele>
        <time>2020-10-17T12:16:01Z</time>
      </trkpt>
      <trkpt lat="46.18477" lon="4.52615">
        <ele>526.2</ele>
        <time>2020-10-17T12:16:02Z</time>
      </trkpt>
      <trkpt lat="46.18473" lon="4.52614">
        <ele>526.2</ele>
        <time>2020-10-17T12:16:03Z</time>
      </trkpt>
      <trkpt lat="46.18473" lon="4.52614">
        <ele>526</ele>
        <time>2020-10-17T12:16:04Z</time>
      </trkpt>
      <trkpt lat="46.1847" lon="4.52613">
        <ele>525.8</ele>
        <time>2020-10-17T12:16:05Z</time>
      </trkpt>
      <trkpt lat="46.1847" lon="4.52613">
        <ele>525.4</ele>
        <time>2020-10-17T12:16:06Z</time>
      </trkpt>
      <trkpt lat="46.18467" lon="4.52612">
        <ele>525.2</ele>
        <time>2020-10-17T12:16:07Z</time>
      </trkpt>
      <trkpt lat="46.18467" lon="4.52612">
        <ele>525.2</ele>
        <time>2020-10-17T12:16:08Z</time>
      </trkpt>
      <trkpt lat="46.18464" lon="4.52611">
        <ele>525.2</ele>
        <time>2020-10-17T12:16:09Z</time>
      </trkpt>
      <trkpt lat="46.18464" lon="4.52611">
        <ele>525</ele>
        <time>2020-10-17T12:16:10Z</time>
      </trkpt>
      <trkpt lat="46.18462" lon="4.5261">
        <ele>525</ele>
        <time>2020-10-17T12:16:11Z</time>
      </trkpt>
      <trkpt lat="46.18462" lon="4.5261">
        <ele>525</ele>
        <time>2020-10-17T12:16:12Z</time>
      </trkpt>
      <trkpt lat="46.18459" lon="4.52609">
        <ele>525</ele>
        <time>2020-10-17T12:16:13Z</time>
      </trkpt>
      <trkpt lat="46.18459" lon="4.52609">
        <ele>525</ele>
        <time>2020-10-17T12:16:14Z</time>
      </trkpt>
      <trkpt lat="46.18456" lon="4.52607">
        <ele>525</ele>
        <time>2020-10-17T12:16:15Z</time>
      </trkpt>
      <trkpt lat="46.18456" lon="4.52607">
        <ele>525</ele>
        <time>2020-10-17T12:16:16Z</time>
      </trkpt>
      <trkpt lat="46.18453" lon="4.52606">
        <ele>525</ele>
        <time>2020-10-17T12:16:17Z</time>
      </trkpt>
      <trkpt lat="46.18453" lon="4.52606">
        <ele>524.8</ele>
        <time>2020-10-17T12:16:18Z</time>
      </trkpt>
      <trkpt lat="46.1845" lon="4.52605">
        <ele>524.8</ele>
        <time>2020-10-17T12:16:19Z</time>
      </trkpt>
      <trkpt lat="46.1845" lon="4.52605">
        <ele>524.8</ele>
        <time>2020-10-17T12:16:20Z</time>
      </trkpt>
      <trkpt lat="46.18448" lon="4.52604">
        <ele>524.6</ele>
        <time>2020-10-17T12:16:21Z</time>
      </trkpt>
      <trkpt lat="46.18448" lon="4.52604">
        <ele>524.6</ele>
        <time>2020-10-17T12:16:22Z</time>
      </trkpt>
      <trkpt lat="46.18445" lon="4.52603">
        <ele>524.4</ele>
        <time>2020-10-17T12:16:23Z</time>
      </trkpt>
      <trkpt lat="46.18445" lon="4.52603">
        <ele>524.2</ele>
        <time>2020-10-17T12:16:24Z</time>
      </trkpt>
      <trkpt lat="46.18443" lon="4.52602">
        <ele>524</ele>
        <time>2020-10-17T12:16:25Z</time>
      </trkpt>
      <trkpt lat="46.18443" lon="4.52602">
        <ele>523.8</ele>
        <time>2020-10-17T12:16:26Z</time>
      </trkpt>
      <trkpt lat="46.1844" lon="4.52601">
        <ele>523.4</ele>
        <time>2020-10-17T12:16:27Z</time>
      </trkpt>
      <trkpt lat="46.1844" lon="4.52601">
        <ele>523.6</ele>
        <time>2020-10-17T12:16:28Z</time>
      </trkpt>
      <trkpt lat="46.18437" lon="4.526">
        <ele>523.6</ele>
        <time>2020-10-17T12:16:29Z</time>
      </trkpt>
      <trkpt lat="46.18437" lon="4.526">
        <ele>523.8</ele>
        <time>2020-10-17T12:16:30Z</time>
      </trkpt>
      <trkpt lat="46.18434" lon="4.52599">
        <ele>523.8</ele>
        <time>2020-10-17T12:16:31Z</time>
      </trkpt>
      <trkpt lat="46.18434" lon="4.52599">
        <ele>523.6</ele>
        <time>2020-10-17T12:16:32Z</time>
      </trkpt>
      <trkpt lat="46.18431" lon="4.52598">
        <ele>523.4</ele>
        <time>2020-10-17T12:16:33Z</time>
      </trkpt>
      <trkpt lat="46.18431" lon="4.52598">
        <ele>523.2</ele>
        <time>2020-10-17T12:16:34Z</time>
      </trkpt>
      <trkpt lat="46.18428" lon="4.52596">
        <ele>523.4</ele>
        <time>2020-10-17T12:16:35Z</time>
      </trkpt>
      <trkpt lat="46.18428" lon="4.52596">
        <ele>523.4</ele>
        <time>2020-10-17T12:16:36Z</time>
      </trkpt>
      <trkpt lat="46.18425" lon="4.52594">
        <ele>523.2</ele>
        <time>2020-10-17T12:16:37Z</time>
      </trkpt>
      <trkpt lat="46.18425" lon="4.52594">
        <ele>523</ele>
        <time>2020-10-17T12:16:38Z</time>
      </trkpt>
      <trkpt lat="46.18422" lon="4.52592">
        <ele>523</ele>
        <time>2020-10-17T12:16:39Z</time>
      </trkpt>
      <trkpt lat="46.18422" lon="4.52592">
        <ele>523</ele>
        <time>2020-10-17T12:16:40Z</time>
      </trkpt>
      <trkpt lat="46.18419" lon="4.52589">
        <ele>523</ele>
        <time>2020-10-17T12:16:41Z</time>
      </trkpt>
      <trkpt lat="46.18419" lon="4.52589">
        <ele>522.8</ele>
        <time>2020-10-17T12:16:42Z</time>
      </trkpt>
      <trkpt lat="46.18417" lon="4.52588">
        <ele>522.8</ele>
        <time>2020-10-17T12:16:43Z</time>
      </trkpt>
      <trkpt lat="46.18417" lon="4.52588">
        <ele>523</ele>
        <time>2020-10-17T12:16:44Z</time>
      </trkpt>
      <trkpt lat="46.18414" lon="4.52586">
        <ele>522.8</ele>
        <time>2020-10-17T12:16:45Z</time>
      </trkpt>
      <trkpt lat="46.18414" lon="4.52586">
        <ele>522.6</ele>
        <time>2020-10-17T12:16:46Z</time>
      </trkpt>
      <trkpt lat="46.1841" lon="4.52584">
        <ele>522.8</ele>
        <time>2020-10-17T12:16:47Z</time>
      </trkpt>
      <trkpt lat="46.18408" lon="4.52583">
        <ele>522.8</ele>
        <time>2020-10-17T12:16:48Z</time>
      </trkpt>
      <trkpt lat="46.18407" lon="4.52582">
        <ele>522.8</ele>
        <time>2020-10-17T12:16:49Z</time>
      </trkpt>
      <trkpt lat="46.18405" lon="4.52582">
        <ele>522.8</ele>
        <time>2020-10-17T12:16:50Z</time>
      </trkpt>
      <trkpt lat="46.18405" lon="4.52582">
        <ele>522.6</ele>
        <time>2020-10-17T12:16:51Z</time>
      </trkpt>
      <trkpt lat="46.18402" lon="4.5258">
        <ele>522.8</ele>
        <time>2020-10-17T12:16:52Z</time>
      </trkpt>
      <trkpt lat="46.18402" lon="4.5258">
        <ele>522.8</ele>
        <time>2020-10-17T12:16:53Z</time>
      </trkpt>
      <trkpt lat="46.18399" lon="4.52578">
        <ele>522.6</ele>
        <time>2020-10-17T12:16:54Z</time>
      </trkpt>
      <trkpt lat="46.18399" lon="4.52578">
        <ele>522.4</ele>
        <time>2020-10-17T12:16:55Z</time>
      </trkpt>
      <trkpt lat="46.18396" lon="4.52576">
        <ele>522.4</ele>
        <time>2020-10-17T12:16:56Z</time>
      </trkpt>
      <trkpt lat="46.18396" lon="4.52576">
        <ele>522.4</ele>
        <time>2020-10-17T12:16:57Z</time>
      </trkpt>
      <trkpt lat="46.18393" lon="4.52574">
        <ele>522.4</ele>
        <time>2020-10-17T12:16:58Z</time>
      </trkpt>
      <trkpt lat="46.18393" lon="4.52574">
        <ele>522.4</ele>
        <time>2020-10-17T12:16:59Z</time>
      </trkpt>
      <trkpt lat="46.1839" lon="4.52572">
        <ele>522.2</ele>
        <time>2020-10-17T12:17:00Z</time>
      </trkpt>
      <trkpt lat="46.1839" lon="4.52572">
        <ele>522.2</ele>
        <time>2020-10-17T12:17:01Z</time>
      </trkpt>
      <trkpt lat="46.18388" lon="4.52571">
        <ele>522.4</ele>
        <time>2020-10-17T12:17:02Z</time>
      </trkpt>
      <trkpt lat="46.18388" lon="4.52571">
        <ele>522.4</ele>
        <time>2020-10-17T12:17:03Z</time>
      </trkpt>
      <trkpt lat="46.18385" lon="4.52569">
        <ele>522.2</ele>
        <time>2020-10-17T12:17:04Z</time>
      </trkpt>
      <trkpt lat="46.18385" lon="4.52569">
        <ele>522.4</ele>
        <time>2020-10-17T12:17:05Z</time>
      </trkpt>
      <trkpt lat="46.18382" lon="4.52567">
        <ele>522.4</ele>
        <time>2020-10-17T12:17:06Z</time>
      </trkpt>
      <trkpt lat="46.18382" lon="4.52567">
        <ele>522.2</ele>
        <time>2020-10-17T12:17:07Z</time>
      </trkpt>
      <trkpt lat="46.18379" lon="4.52565">
        <ele>522.4</ele>
        <time>2020-10-17T12:17:08Z</time>
      </trkpt>
      <trkpt lat="46.18379" lon="4.52565">
        <ele>522.4</ele>
        <time>2020-10-17T12:17:09Z</time>
      </trkpt>
      <trkpt lat="46.18376" lon="4.52564">
        <ele>522.4</ele>
        <time>2020-10-17T12:17:10Z</time>
      </trkpt>
      <trkpt lat="46.18374" lon="4.52563">
        <ele>522.6</ele>
        <time>2020-10-17T12:17:11Z</time>
      </trkpt>
      <trkpt lat="46.18372" lon="4.52562">
        <ele>522.4</ele>
        <time>2020-10-17T12:17:12Z</time>
      </trkpt>
      <trkpt lat="46.18371" lon="4.52561">
        <ele>522.4</ele>
        <time>2020-10-17T12:17:13Z</time>
      </trkpt>
      <trkpt lat="46.18371" lon="4.52561">
        <ele>522.4</ele>
        <time>2020-10-17T12:17:14Z</time>
      </trkpt>
      <trkpt lat="46.18367" lon="4.52559">
        <ele>522.2</ele>
        <time>2020-10-17T12:17:15Z</time>
      </trkpt>
      <trkpt lat="46.18367" lon="4.52559">
        <ele>522.4</ele>
        <time>2020-10-17T12:17:16Z</time>
      </trkpt>
      <trkpt lat="46.18365" lon="4.52557">
        <ele>522.4</ele>
        <time>2020-10-17T12:17:17Z</time>
      </trkpt>
      <trkpt lat="46.18365" lon="4.52557">
        <ele>522.6</ele>
        <time>2020-10-17T12:17:18Z</time>
      </trkpt>
      <trkpt lat="46.18362" lon="4.52554">
        <ele>522.4</ele>
        <time>2020-10-17T12:17:19Z</time>
      </trkpt>
      <trkpt lat="46.18362" lon="4.52554">
        <ele>522.4</ele>
        <time>2020-10-17T12:17:20Z</time>
      </trkpt>
      <trkpt lat="46.18359" lon="4.52552">
        <ele>522.4</ele>
        <time>2020-10-17T12:17:21Z</time>
      </trkpt>
      <trkpt lat="46.18359" lon="4.52552">
        <ele>522.2</ele>
        <time>2020-10-17T12:17:22Z</time>
      </trkpt>
      <trkpt lat="46.18356" lon="4.52549">
        <ele>522.2</ele>
        <time>2020-10-17T12:17:23Z</time>
      </trkpt>
      <trkpt lat="46.18356" lon="4.52549">
        <ele>522.2</ele>
        <time>2020-10-17T12:17:24Z</time>
      </trkpt>
      <trkpt lat="46.18353" lon="4.52547">
        <ele>522.2</ele>
        <time>2020-10-17T12:17:25Z</time>
      </trkpt>
      <trkpt lat="46.18353" lon="4.52547">
        <ele>522.2</ele>
        <time>2020-10-17T12:17:26Z</time>
      </trkpt>
      <trkpt lat="46.18351" lon="4.52544">
        <ele>522.4</ele>
        <time>2020-10-17T12:17:27Z</time>
      </trkpt>
      <trkpt lat="46.18351" lon="4.52544">
        <ele>522.4</ele>
        <time>2020-10-17T12:17:28Z</time>
      </trkpt>
      <trkpt lat="46.18348" lon="4.52542">
        <ele>522.4</ele>
        <time>2020-10-17T12:17:29Z</time>
      </trkpt>
      <trkpt lat="46.18348" lon="4.52542">
        <ele>522.2</ele>
        <time>2020-10-17T12:17:30Z</time>
      </trkpt>
      <trkpt lat="46.18345" lon="4.52539">
        <ele>522.2</ele>
        <time>2020-10-17T12:17:31Z</time>
      </trkpt>
      <trkpt lat="46.18345" lon="4.52539">
        <ele>522.2</ele>
        <time>2020-10-17T12:17:32Z</time>
      </trkpt>
      <trkpt lat="46.18342" lon="4.52536">
        <ele>522.2</ele>
        <time>2020-10-17T12:17:33Z</time>
      </trkpt>
      <trkpt lat="46.18342" lon="4.52536">
        <ele>522.2</ele>
        <time>2020-10-17T12:17:34Z</time>
      </trkpt>
      <trkpt lat="46.18339" lon="4.52534">
        <ele>522.2</ele>
        <time>2020-10-17T12:17:35Z</time>
      </trkpt>
      <trkpt lat="46.18339" lon="4.52534">
        <ele>522.2</ele>
        <time>2020-10-17T12:17:36Z</time>
      </trkpt>
      <trkpt lat="46.18337" lon="4.52532">
        <ele>522.4</ele>
        <time>2020-10-17T12:17:37Z</time>
      </trkpt>
      <trkpt lat="46.18337" lon="4.52532">
        <ele>522.2</ele>
        <time>2020-10-17T12:17:38Z</time>
      </trkpt>
      <trkpt lat="46.18334" lon="4.52529">
        <ele>522.4</ele>
        <time>2020-10-17T12:17:39Z</time>
      </trkpt>
      <trkpt lat="46.18334" lon="4.52529">
        <ele>522.4</ele>
        <time>2020-10-17T12:17:40Z</time>
      </trkpt>
      <trkpt lat="46.18332" lon="4.52526">
        <ele>522.4</ele>
        <time>2020-10-17T12:17:41Z</time>
      </trkpt>
      <trkpt lat="46.18332" lon="4.52526">
        <ele>522.4</ele>
        <time>2020-10-17T12:17:42Z</time>
      </trkpt>
      <trkpt lat="46.18329" lon="4.52524">
        <ele>522.2</ele>
        <time>2020-10-17T12:17:43Z</time>
      </trkpt>
      <trkpt lat="46.18329" lon="4.52524">
        <ele>522.2</ele>
        <time>2020-10-17T12:17:44Z</time>
      </trkpt>
      <trkpt lat="46.18327" lon="4.52521">
        <ele>522.2</ele>
        <time>2020-10-17T12:17:45Z</time>
      </trkpt>
      <trkpt lat="46.18327" lon="4.52521">
        <ele>522.2</ele>
        <time>2020-10-17T12:17:46Z</time>
      </trkpt>
      <trkpt lat="46.18324" lon="4.52517">
        <ele>522</ele>
        <time>2020-10-17T12:17:47Z</time>
      </trkpt>
      <trkpt lat="46.18323" lon="4.52516">
        <ele>522.4</ele>
        <time>2020-10-17T12:17:48Z</time>
      </trkpt>
      <trkpt lat="46.18323" lon="4.52516">
        <ele>522.2</ele>
        <time>2020-10-17T12:17:49Z</time>
      </trkpt>
      <trkpt lat="46.1832" lon="4.52513">
        <ele>522.4</ele>
        <time>2020-10-17T12:17:50Z</time>
      </trkpt>
      <trkpt lat="46.1832" lon="4.52513">
        <ele>522.2</ele>
        <time>2020-10-17T12:17:51Z</time>
      </trkpt>
      <trkpt lat="46.18318" lon="4.5251">
        <ele>522.4</ele>
        <time>2020-10-17T12:17:52Z</time>
      </trkpt>
      <trkpt lat="46.18318" lon="4.5251">
        <ele>522.2</ele>
        <time>2020-10-17T12:17:53Z</time>
      </trkpt>
      <trkpt lat="46.18315" lon="4.52507">
        <ele>522.4</ele>
        <time>2020-10-17T12:17:54Z</time>
      </trkpt>
      <trkpt lat="46.18315" lon="4.52507">
        <ele>522.2</ele>
        <time>2020-10-17T12:17:55Z</time>
      </trkpt>
      <trkpt lat="46.18312" lon="4.52504">
        <ele>522.2</ele>
        <time>2020-10-17T12:17:56Z</time>
      </trkpt>
      <trkpt lat="46.18312" lon="4.52504">
        <ele>522.4</ele>
        <time>2020-10-17T12:17:57Z</time>
      </trkpt>
      <trkpt lat="46.1831" lon="4.52501">
        <ele>522.4</ele>
        <time>2020-10-17T12:17:58Z</time>
      </trkpt>
      <trkpt lat="46.1831" lon="4.52501">
        <ele>522.4</ele>
        <time>2020-10-17T12:17:59Z</time>
      </trkpt>
      <trkpt lat="46.18307" lon="4.52499">
        <ele>522.4</ele>
        <time>2020-10-17T12:18:00Z</time>
      </trkpt>
      <trkpt lat="46.18307" lon="4.52499">
        <ele>522.6</ele>
        <time>2020-10-17T12:18:01Z</time>
      </trkpt>
      <trkpt lat="46.18305" lon="4.52496">
        <ele>522.8</ele>
        <time>2020-10-17T12:18:02Z</time>
      </trkpt>
      <trkpt lat="46.18305" lon="4.52496">
        <ele>522.6</ele>
        <time>2020-10-17T12:18:03Z</time>
      </trkpt>
      <trkpt lat="46.18302" lon="4.52494">
        <ele>522.6</ele>
        <time>2020-10-17T12:18:04Z</time>
      </trkpt>
      <trkpt lat="46.18302" lon="4.52494">
        <ele>522.8</ele>
        <time>2020-10-17T12:18:05Z</time>
      </trkpt>
      <trkpt lat="46.183" lon="4.52491">
        <ele>522.8</ele>
        <time>2020-10-17T12:18:06Z</time>
      </trkpt>
      <trkpt lat="46.183" lon="4.52491">
        <ele>522.6</ele>
        <time>2020-10-17T12:18:07Z</time>
      </trkpt>
      <trkpt lat="46.18297" lon="4.52488">
        <ele>522.8</ele>
        <time>2020-10-17T12:18:08Z</time>
      </trkpt>
      <trkpt lat="46.18295" lon="4.52487">
        <ele>522.8</ele>
        <time>2020-10-17T12:18:09Z</time>
      </trkpt>
      <trkpt lat="46.18295" lon="4.52487">
        <ele>523</ele>
        <time>2020-10-17T12:18:10Z</time>
      </trkpt>
      <trkpt lat="46.18292" lon="4.52484">
        <ele>523</ele>
        <time>2020-10-17T12:18:11Z</time>
      </trkpt>
      <trkpt lat="46.18292" lon="4.52484">
        <ele>523.2</ele>
        <time>2020-10-17T12:18:12Z</time>
      </trkpt>
      <trkpt lat="46.1829" lon="4.52481">
        <ele>523.2</ele>
        <time>2020-10-17T12:18:13Z</time>
      </trkpt>
      <trkpt lat="46.1829" lon="4.52481">
        <ele>523.2</ele>
        <time>2020-10-17T12:18:14Z</time>
      </trkpt>
      <trkpt lat="46.18288" lon="4.52478">
        <ele>523.2</ele>
        <time>2020-10-17T12:18:15Z</time>
      </trkpt>
      <trkpt lat="46.18288" lon="4.52478">
        <ele>523.4</ele>
        <time>2020-10-17T12:18:16Z</time>
      </trkpt>
      <trkpt lat="46.18285" lon="4.52475">
        <ele>523.2</ele>
        <time>2020-10-17T12:18:17Z</time>
      </trkpt>
      <trkpt lat="46.18285" lon="4.52475">
        <ele>523.2</ele>
        <time>2020-10-17T12:18:18Z</time>
      </trkpt>
      <trkpt lat="46.18282" lon="4.52472">
        <ele>523</ele>
        <time>2020-10-17T12:18:19Z</time>
      </trkpt>
      <trkpt lat="46.18282" lon="4.52472">
        <ele>523.2</ele>
        <time>2020-10-17T12:18:20Z</time>
      </trkpt>
      <trkpt lat="46.1828" lon="4.52469">
        <ele>523.2</ele>
        <time>2020-10-17T12:18:21Z</time>
      </trkpt>
      <trkpt lat="46.1828" lon="4.52469">
        <ele>523.4</ele>
        <time>2020-10-17T12:18:22Z</time>
      </trkpt>
      <trkpt lat="46.18277" lon="4.52466">
        <ele>523.4</ele>
        <time>2020-10-17T12:18:23Z</time>
      </trkpt>
      <trkpt lat="46.18277" lon="4.52466">
        <ele>523.2</ele>
        <time>2020-10-17T12:18:24Z</time>
      </trkpt>
      <trkpt lat="46.18275" lon="4.52463">
        <ele>523.2</ele>
        <time>2020-10-17T12:18:25Z</time>
      </trkpt>
      <trkpt lat="46.18275" lon="4.52463">
        <ele>523</ele>
        <time>2020-10-17T12:18:26Z</time>
      </trkpt>
      <trkpt lat="46.18273" lon="4.5246">
        <ele>523.2</ele>
        <time>2020-10-17T12:18:27Z</time>
      </trkpt>
      <trkpt lat="46.18273" lon="4.5246">
        <ele>523.2</ele>
        <time>2020-10-17T12:18:28Z</time>
      </trkpt>
      <trkpt lat="46.1827" lon="4.52458">
        <ele>523.2</ele>
        <time>2020-10-17T12:18:29Z</time>
      </trkpt>
      <trkpt lat="46.1827" lon="4.52458">
        <ele>523.4</ele>
        <time>2020-10-17T12:18:30Z</time>
      </trkpt>
      <trkpt lat="46.18268" lon="4.52455">
        <ele>523.4</ele>
        <time>2020-10-17T12:18:31Z</time>
      </trkpt>
      <trkpt lat="46.18268" lon="4.52455">
        <ele>523.4</ele>
        <time>2020-10-17T12:18:32Z</time>
      </trkpt>
      <trkpt lat="46.18265" lon="4.52453">
        <ele>523.4</ele>
        <time>2020-10-17T12:18:33Z</time>
      </trkpt>
      <trkpt lat="46.18265" lon="4.52453">
        <ele>523.8</ele>
        <time>2020-10-17T12:18:34Z</time>
      </trkpt>
      <trkpt lat="46.18262" lon="4.52451">
        <ele>523.4</ele>
        <time>2020-10-17T12:18:35Z</time>
      </trkpt>
      <trkpt lat="46.18262" lon="4.52451">
        <ele>523.4</ele>
        <time>2020-10-17T12:18:36Z</time>
      </trkpt>
      <trkpt lat="46.1826" lon="4.52449">
        <ele>523.4</ele>
        <time>2020-10-17T12:18:37Z</time>
      </trkpt>
      <trkpt lat="46.1826" lon="4.52449">
        <ele>523.4</ele>
        <time>2020-10-17T12:18:38Z</time>
      </trkpt>
      <trkpt lat="46.18257" lon="4.52447">
        <ele>523.6</ele>
        <time>2020-10-17T12:18:39Z</time>
      </trkpt>
      <trkpt lat="46.18257" lon="4.52447">
        <ele>523.6</ele>
        <time>2020-10-17T12:18:40Z</time>
      </trkpt>
      <trkpt lat="46.18255" lon="4.52446">
        <ele>523.6</ele>
        <time>2020-10-17T12:18:41Z</time>
      </trkpt>
      <trkpt lat="46.18255" lon="4.52446">
        <ele>523.6</ele>
        <time>2020-10-17T12:18:42Z</time>
      </trkpt>
      <trkpt lat="46.18252" lon="4.52445">
        <ele>523.6</ele>
        <time>2020-10-17T12:18:43Z</time>
      </trkpt>
      <trkpt lat="46.18252" lon="4.52445">
        <ele>523.8</ele>
        <time>2020-10-17T12:18:44Z</time>
      </trkpt>
      <trkpt lat="46.18249" lon="4.52445">
        <ele>523.6</ele>
        <time>2020-10-17T12:18:45Z</time>
      </trkpt>
      <trkpt lat="46.18249" lon="4.52445">
        <ele>523.6</ele>
        <time>2020-10-17T12:18:46Z</time>
      </trkpt>
      <trkpt lat="46.18247" lon="4.52443">
        <ele>523.8</ele>
        <time>2020-10-17T12:18:47Z</time>
      </trkpt>
      <trkpt lat="46.18247" lon="4.52443">
        <ele>523.8</ele>
        <time>2020-10-17T12:18:48Z</time>
      </trkpt>
      <trkpt lat="46.18243" lon="4.52442">
        <ele>523.8</ele>
        <time>2020-10-17T12:18:49Z</time>
      </trkpt>
      <trkpt lat="46.18243" lon="4.52442">
        <ele>523.6</ele>
        <time>2020-10-17T12:18:50Z</time>
      </trkpt>
      <trkpt lat="46.18241" lon="4.52441">
        <ele>523.6</ele>
        <time>2020-10-17T12:18:51Z</time>
      </trkpt>
      <trkpt lat="46.18241" lon="4.52441">
        <ele>523.4</ele>
        <time>2020-10-17T12:18:52Z</time>
      </trkpt>
      <trkpt lat="46.18238" lon="4.5244">
        <ele>523.8</ele>
        <time>2020-10-17T12:18:53Z</time>
      </trkpt>
      <trkpt lat="46.18238" lon="4.5244">
        <ele>524</ele>
        <time>2020-10-17T12:18:54Z</time>
      </trkpt>
      <trkpt lat="46.18235" lon="4.52438">
        <ele>524</ele>
        <time>2020-10-17T12:18:55Z</time>
      </trkpt>
      <trkpt lat="46.18235" lon="4.52438">
        <ele>524</ele>
        <time>2020-10-17T12:18:56Z</time>
      </trkpt>
      <trkpt lat="46.18234" lon="4.52434">
        <ele>524</ele>
        <time>2020-10-17T12:18:57Z</time>
      </trkpt>
      <trkpt lat="46.18234" lon="4.52434">
        <ele>524</ele>
        <time>2020-10-17T12:18:58Z</time>
      </trkpt>
      <trkpt lat="46.18233" lon="4.52431">
        <ele>523.8</ele>
        <time>2020-10-17T12:18:59Z</time>
      </trkpt>
      <trkpt lat="46.18233" lon="4.52431">
        <ele>523.8</ele>
        <time>2020-10-17T12:19:00Z</time>
      </trkpt>
      <trkpt lat="46.18232" lon="4.52428">
        <ele>524.2</ele>
        <time>2020-10-17T12:19:01Z</time>
      </trkpt>
      <trkpt lat="46.18232" lon="4.52428">
        <ele>524.2</ele>
        <time>2020-10-17T12:19:02Z</time>
      </trkpt>
      <trkpt lat="46.18231" lon="4.52424">
        <ele>524.4</ele>
        <time>2020-10-17T12:19:03Z</time>
      </trkpt>
      <trkpt lat="46.18231" lon="4.52424">
        <ele>524.2</ele>
        <time>2020-10-17T12:19:04Z</time>
      </trkpt>
      <trkpt lat="46.18232" lon="4.5242">
        <ele>524.2</ele>
        <time>2020-10-17T12:19:05Z</time>
      </trkpt>
      <trkpt lat="46.18232" lon="4.5242">
        <ele>524.2</ele>
        <time>2020-10-17T12:19:06Z</time>
      </trkpt>
      <trkpt lat="46.18231" lon="4.52415">
        <ele>524.2</ele>
        <time>2020-10-17T12:19:07Z</time>
      </trkpt>
      <trkpt lat="46.18231" lon="4.52415">
        <ele>524.6</ele>
        <time>2020-10-17T12:19:08Z</time>
      </trkpt>
      <trkpt lat="46.1823" lon="4.52412">
        <ele>524.6</ele>
        <time>2020-10-17T12:19:09Z</time>
      </trkpt>
      <trkpt lat="46.1823" lon="4.52412">
        <ele>524.8</ele>
        <time>2020-10-17T12:19:10Z</time>
      </trkpt>
      <trkpt lat="46.18228" lon="4.5241">
        <ele>525.2</ele>
        <time>2020-10-17T12:19:11Z</time>
      </trkpt>
      <trkpt lat="46.18228" lon="4.5241">
        <ele>525.4</ele>
        <time>2020-10-17T12:19:12Z</time>
      </trkpt>
      <trkpt lat="46.18227" lon="4.52406">
        <ele>525.6</ele>
        <time>2020-10-17T12:19:13Z</time>
      </trkpt>
      <trkpt lat="46.18227" lon="4.52406">
        <ele>525.8</ele>
        <time>2020-10-17T12:19:14Z</time>
      </trkpt>
      <trkpt lat="46.18225" lon="4.52403">
        <ele>525.8</ele>
        <time>2020-10-17T12:19:15Z</time>
      </trkpt>
      <trkpt lat="46.18225" lon="4.52401">
        <ele>526</ele>
        <time>2020-10-17T12:19:16Z</time>
      </trkpt>
      <trkpt lat="46.18224" lon="4.52398">
        <ele>526.2</ele>
        <time>2020-10-17T12:19:17Z</time>
      </trkpt>
      <trkpt lat="46.18224" lon="4.52398">
        <ele>526.4</ele>
        <time>2020-10-17T12:19:18Z</time>
      </trkpt>
      <trkpt lat="46.18223" lon="4.52394">
        <ele>526.4</ele>
        <time>2020-10-17T12:19:19Z</time>
      </trkpt>
      <trkpt lat="46.18223" lon="4.52394">
        <ele>526.4</ele>
        <time>2020-10-17T12:19:20Z</time>
      </trkpt>
      <trkpt lat="46.18223" lon="4.52389">
        <ele>526.6</ele>
        <time>2020-10-17T12:19:21Z</time>
      </trkpt>
      <trkpt lat="46.18223" lon="4.52389">
        <ele>526.4</ele>
        <time>2020-10-17T12:19:22Z</time>
      </trkpt>
      <trkpt lat="46.18223" lon="4.52385">
        <ele>526.6</ele>
        <time>2020-10-17T12:19:23Z</time>
      </trkpt>
      <trkpt lat="46.18223" lon="4.52383">
        <ele>527</ele>
        <time>2020-10-17T12:19:24Z</time>
      </trkpt>
      <trkpt lat="46.18223" lon="4.52383">
        <ele>527.4</ele>
        <time>2020-10-17T12:19:25Z</time>
      </trkpt>
      <trkpt lat="46.18224" lon="4.52379">
        <ele>527.6</ele>
        <time>2020-10-17T12:19:26Z</time>
      </trkpt>
      <trkpt lat="46.18224" lon="4.52379">
        <ele>527.6</ele>
        <time>2020-10-17T12:19:27Z</time>
      </trkpt>
      <trkpt lat="46.18224" lon="4.52374">
        <ele>527.6</ele>
        <time>2020-10-17T12:19:28Z</time>
      </trkpt>
      <trkpt lat="46.18224" lon="4.52374">
        <ele>527.6</ele>
        <time>2020-10-17T12:19:29Z</time>
      </trkpt>
      <trkpt lat="46.18223" lon="4.52371">
        <ele>527.8</ele>
        <time>2020-10-17T12:19:30Z</time>
      </trkpt>
      <trkpt lat="46.18223" lon="4.52371">
        <ele>528.2</ele>
        <time>2020-10-17T12:19:31Z</time>
      </trkpt>
      <trkpt lat="46.18222" lon="4.52367">
        <ele>528.2</ele>
        <time>2020-10-17T12:19:32Z</time>
      </trkpt>
      <trkpt lat="46.18222" lon="4.52367">
        <ele>528.2</ele>
        <time>2020-10-17T12:19:33Z</time>
      </trkpt>
      <trkpt lat="46.18221" lon="4.52363">
        <ele>528</ele>
        <time>2020-10-17T12:19:34Z</time>
      </trkpt>
      <trkpt lat="46.18221" lon="4.52363">
        <ele>528.2</ele>
        <time>2020-10-17T12:19:35Z</time>
      </trkpt>
      <trkpt lat="46.1822" lon="4.5236">
        <ele>528.6</ele>
        <time>2020-10-17T12:19:36Z</time>
      </trkpt>
      <trkpt lat="46.1822" lon="4.5236">
        <ele>528.8</ele>
        <time>2020-10-17T12:19:37Z</time>
      </trkpt>
      <trkpt lat="46.18218" lon="4.52357">
        <ele>528.8</ele>
        <time>2020-10-17T12:19:38Z</time>
      </trkpt>
      <trkpt lat="46.18218" lon="4.52357">
        <ele>529</ele>
        <time>2020-10-17T12:19:39Z</time>
      </trkpt>
      <trkpt lat="46.18217" lon="4.52354">
        <ele>529.2</ele>
        <time>2020-10-17T12:19:40Z</time>
      </trkpt>
      <trkpt lat="46.18217" lon="4.52354">
        <ele>529.6</ele>
        <time>2020-10-17T12:19:41Z</time>
      </trkpt>
      <trkpt lat="46.18216" lon="4.52352">
        <ele>529.8</ele>
        <time>2020-10-17T12:19:42Z</time>
      </trkpt>
      <trkpt lat="46.18216" lon="4.52352">
        <ele>529.8</ele>
        <time>2020-10-17T12:19:43Z</time>
      </trkpt>
      <trkpt lat="46.18214" lon="4.52349">
        <ele>529.8</ele>
        <time>2020-10-17T12:19:44Z</time>
      </trkpt>
      <trkpt lat="46.18214" lon="4.52349">
        <ele>529.6</ele>
        <time>2020-10-17T12:19:45Z</time>
      </trkpt>
      <trkpt lat="46.18213" lon="4.52345">
        <ele>529.8</ele>
        <time>2020-10-17T12:19:46Z</time>
      </trkpt>
      <trkpt lat="46.18213" lon="4.52345">
        <ele>530.4</ele>
        <time>2020-10-17T12:19:47Z</time>
      </trkpt>
      <trkpt lat="46.18211" lon="4.52342">
        <ele>530.4</ele>
        <time>2020-10-17T12:19:48Z</time>
      </trkpt>
      <trkpt lat="46.18211" lon="4.52342">
        <ele>530.6</ele>
        <time>2020-10-17T12:19:49Z</time>
      </trkpt>
      <trkpt lat="46.18209" lon="4.52341">
        <ele>530.6</ele>
        <time>2020-10-17T12:19:50Z</time>
      </trkpt>
      <trkpt lat="46.18209" lon="4.52341">
        <ele>530.8</ele>
        <time>2020-10-17T12:19:51Z</time>
      </trkpt>
      <trkpt lat="46.18207" lon="4.52339">
        <ele>530.8</ele>
        <time>2020-10-17T12:19:52Z</time>
      </trkpt>
      <trkpt lat="46.18207" lon="4.52339">
        <ele>531</ele>
        <time>2020-10-17T12:19:53Z</time>
      </trkpt>
      <trkpt lat="46.18204" lon="4.52338">
        <ele>531.2</ele>
        <time>2020-10-17T12:19:54Z</time>
      </trkpt>
      <trkpt lat="46.18204" lon="4.52338">
        <ele>531.2</ele>
        <time>2020-10-17T12:19:55Z</time>
      </trkpt>
      <trkpt lat="46.18201" lon="4.52337">
        <ele>531.2</ele>
        <time>2020-10-17T12:19:56Z</time>
      </trkpt>
      <trkpt lat="46.18201" lon="4.52337">
        <ele>531.2</ele>
        <time>2020-10-17T12:19:57Z</time>
      </trkpt>
      <trkpt lat="46.18198" lon="4.52335">
        <ele>531.2</ele>
        <time>2020-10-17T12:19:58Z</time>
      </trkpt>
      <trkpt lat="46.18198" lon="4.52335">
        <ele>531.4</ele>
        <time>2020-10-17T12:19:59Z</time>
      </trkpt>
      <trkpt lat="46.18195" lon="4.52334">
        <ele>531.4</ele>
        <time>2020-10-17T12:20:00Z</time>
      </trkpt>
      <trkpt lat="46.18195" lon="4.52334">
        <ele>531.8</ele>
        <time>2020-10-17T12:20:01Z</time>
      </trkpt>
      <trkpt lat="46.18192" lon="4.52332">
        <ele>532</ele>
        <time>2020-10-17T12:20:02Z</time>
      </trkpt>
      <trkpt lat="46.18192" lon="4.52332">
        <ele>532</ele>
        <time>2020-10-17T12:20:03Z</time>
      </trkpt>
      <trkpt lat="46.18189" lon="4.5233">
        <ele>532.2</ele>
        <time>2020-10-17T12:20:04Z</time>
      </trkpt>
      <trkpt lat="46.18188" lon="4.52329">
        <ele>532.2</ele>
        <time>2020-10-17T12:20:05Z</time>
      </trkpt>
      <trkpt lat="46.18188" lon="4.52329">
        <ele>532.2</ele>
        <time>2020-10-17T12:20:06Z</time>
      </trkpt>
      <trkpt lat="46.18185" lon="4.52327">
        <ele>532</ele>
        <time>2020-10-17T12:20:07Z</time>
      </trkpt>
      <trkpt lat="46.18185" lon="4.52327">
        <ele>532</ele>
        <time>2020-10-17T12:20:08Z</time>
      </trkpt>
      <trkpt lat="46.18182" lon="4.52325">
        <ele>532.2</ele>
        <time>2020-10-17T12:20:09Z</time>
      </trkpt>
      <trkpt lat="46.18182" lon="4.52325">
        <ele>532.4</ele>
        <time>2020-10-17T12:20:10Z</time>
      </trkpt>
      <trkpt lat="46.1818" lon="4.52324">
        <ele>532.4</ele>
        <time>2020-10-17T12:20:11Z</time>
      </trkpt>
      <trkpt lat="46.1818" lon="4.52324">
        <ele>532.4</ele>
        <time>2020-10-17T12:20:12Z</time>
      </trkpt>
      <trkpt lat="46.18178" lon="4.52323">
        <ele>532.4</ele>
        <time>2020-10-17T12:20:13Z</time>
      </trkpt>
      <trkpt lat="46.18178" lon="4.52323">
        <ele>532.4</ele>
        <time>2020-10-17T12:20:14Z</time>
      </trkpt>
      <trkpt lat="46.18176" lon="4.52322">
        <ele>532.8</ele>
        <time>2020-10-17T12:20:15Z</time>
      </trkpt>
      <trkpt lat="46.18176" lon="4.52322">
        <ele>532.6</ele>
        <time>2020-10-17T12:20:16Z</time>
      </trkpt>
      <trkpt lat="46.18176" lon="4.52322">
        <ele>532.6</ele>
        <time>2020-10-17T12:20:17Z</time>
      </trkpt>
      <trkpt lat="46.18174" lon="4.52321">
        <ele>532.8</ele>
        <time>2020-10-17T12:20:18Z</time>
      </trkpt>
      <trkpt lat="46.18174" lon="4.52321">
        <ele>532.8</ele>
        <time>2020-10-17T12:20:19Z</time>
      </trkpt>
      <trkpt lat="46.18174" lon="4.52321">
        <ele>532.8</ele>
        <time>2020-10-17T12:20:20Z</time>
      </trkpt>
      <trkpt lat="46.18174" lon="4.52321">
        <ele>532.8</ele>
        <time>2020-10-17T12:20:21Z</time>
      </trkpt>
      <trkpt lat="46.18174" lon="4.52321">
        <ele>532.8</ele>
        <time>2020-10-17T12:20:22Z</time>
      </trkpt>
      <trkpt lat="46.18174" lon="4.52321">
        <ele>532.8</ele>
        <time>2020-10-17T12:20:23Z</time>
      </trkpt>
      <trkpt lat="46.18175" lon="4.52318">
        <ele>532.8</ele>
        <time>2020-10-17T12:20:24Z</time>
      </trkpt>
      <trkpt lat="46.18175" lon="4.52318">
        <ele>532.8</ele>
        <time>2020-10-17T12:20:25Z</time>
      </trkpt>
      <trkpt lat="46.18177" lon="4.52316">
        <ele>533.2</ele>
        <time>2020-10-17T12:20:26Z</time>
      </trkpt>
      <trkpt lat="46.18177" lon="4.52316">
        <ele>533</ele>
        <time>2020-10-17T12:20:27Z</time>
      </trkpt>
      <trkpt lat="46.18177" lon="4.52313">
        <ele>533.2</ele>
        <time>2020-10-17T12:20:28Z</time>
      </trkpt>
      <trkpt lat="46.18177" lon="4.52313">
        <ele>533.6</ele>
        <time>2020-10-17T12:20:29Z</time>
      </trkpt>
      <trkpt lat="46.18176" lon="4.5231">
        <ele>533.6</ele>
        <time>2020-10-17T12:20:30Z</time>
      </trkpt>
      <trkpt lat="46.18176" lon="4.5231">
        <ele>533.8</ele>
        <time>2020-10-17T12:20:31Z</time>
      </trkpt>
      <trkpt lat="46.18176" lon="4.52306">
        <ele>533.8</ele>
        <time>2020-10-17T12:20:32Z</time>
      </trkpt>
      <trkpt lat="46.18176" lon="4.52306">
        <ele>534</ele>
        <time>2020-10-17T12:20:33Z</time>
      </trkpt>
      <trkpt lat="46.18176" lon="4.52302">
        <ele>534</ele>
        <time>2020-10-17T12:20:34Z</time>
      </trkpt>
      <trkpt lat="46.18176" lon="4.52302">
        <ele>534.4</ele>
        <time>2020-10-17T12:20:35Z</time>
      </trkpt>
      <trkpt lat="46.18176" lon="4.52299">
        <ele>534.6</ele>
        <time>2020-10-17T12:20:36Z</time>
      </trkpt>
      <trkpt lat="46.18176" lon="4.52299">
        <ele>534.8</ele>
        <time>2020-10-17T12:20:37Z</time>
      </trkpt>
      <trkpt lat="46.18176" lon="4.52296">
        <ele>534.8</ele>
        <time>2020-10-17T12:20:38Z</time>
      </trkpt>
      <trkpt lat="46.18176" lon="4.52296">
        <ele>535</ele>
        <time>2020-10-17T12:20:39Z</time>
      </trkpt>
      <trkpt lat="46.18176" lon="4.52293">
        <ele>535</ele>
        <time>2020-10-17T12:20:40Z</time>
      </trkpt>
      <trkpt lat="46.18176" lon="4.52293">
        <ele>535.4</ele>
        <time>2020-10-17T12:20:41Z</time>
      </trkpt>
      <trkpt lat="46.18177" lon="4.52289">
        <ele>536</ele>
        <time>2020-10-17T12:20:42Z</time>
      </trkpt>
      <trkpt lat="46.18177" lon="4.52289">
        <ele>536</ele>
        <time>2020-10-17T12:20:43Z</time>
      </trkpt>
      <trkpt lat="46.18178" lon="4.52286">
        <ele>536.2</ele>
        <time>2020-10-17T12:20:44Z</time>
      </trkpt>
      <trkpt lat="46.18178" lon="4.52286">
        <ele>536.4</ele>
        <time>2020-10-17T12:20:45Z</time>
      </trkpt>
      <trkpt lat="46.18179" lon="4.52282">
        <ele>536.4</ele>
        <time>2020-10-17T12:20:46Z</time>
      </trkpt>
      <trkpt lat="46.18179" lon="4.52282">
        <ele>536.8</ele>
        <time>2020-10-17T12:20:47Z</time>
      </trkpt>
      <trkpt lat="46.1818" lon="4.52279">
        <ele>537.2</ele>
        <time>2020-10-17T12:20:48Z</time>
      </trkpt>
      <trkpt lat="46.1818" lon="4.52279">
        <ele>537.2</ele>
        <time>2020-10-17T12:20:49Z</time>
      </trkpt>
      <trkpt lat="46.18181" lon="4.52276">
        <ele>537.2</ele>
        <time>2020-10-17T12:20:50Z</time>
      </trkpt>
      <trkpt lat="46.18181" lon="4.52276">
        <ele>537.4</ele>
        <time>2020-10-17T12:20:51Z</time>
      </trkpt>
      <trkpt lat="46.18182" lon="4.52272">
        <ele>537.4</ele>
        <time>2020-10-17T12:20:52Z</time>
      </trkpt>
      <trkpt lat="46.18182" lon="4.52272">
        <ele>537.6</ele>
        <time>2020-10-17T12:20:53Z</time>
      </trkpt>
      <trkpt lat="46.18183" lon="4.52268">
        <ele>537.6</ele>
        <time>2020-10-17T12:20:54Z</time>
      </trkpt>
      <trkpt lat="46.18183" lon="4.52268">
        <ele>538</ele>
        <time>2020-10-17T12:20:55Z</time>
      </trkpt>
      <trkpt lat="46.18183" lon="4.52264">
        <ele>538.2</ele>
        <time>2020-10-17T12:20:56Z</time>
      </trkpt>
      <trkpt lat="46.18183" lon="4.52264">
        <ele>538.4</ele>
        <time>2020-10-17T12:20:57Z</time>
      </trkpt>
      <trkpt lat="46.18184" lon="4.52262">
        <ele>538.8</ele>
        <time>2020-10-17T12:20:58Z</time>
      </trkpt>
      <trkpt lat="46.18184" lon="4.52262">
        <ele>539.2</ele>
        <time>2020-10-17T12:20:59Z</time>
      </trkpt>
      <trkpt lat="46.18185" lon="4.52258">
        <ele>539.2</ele>
        <time>2020-10-17T12:21:00Z</time>
      </trkpt>
      <trkpt lat="46.18185" lon="4.52258">
        <ele>539.4</ele>
        <time>2020-10-17T12:21:01Z</time>
      </trkpt>
      <trkpt lat="46.18185" lon="4.52255">
        <ele>539.6</ele>
        <time>2020-10-17T12:21:02Z</time>
      </trkpt>
      <trkpt lat="46.18185" lon="4.52255">
        <ele>540</ele>
        <time>2020-10-17T12:21:03Z</time>
      </trkpt>
      <trkpt lat="46.18185" lon="4.52251">
        <ele>540</ele>
        <time>2020-10-17T12:21:04Z</time>
      </trkpt>
      <trkpt lat="46.18185" lon="4.52251">
        <ele>540.2</ele>
        <time>2020-10-17T12:21:05Z</time>
      </trkpt>
      <trkpt lat="46.18185" lon="4.52251">
        <ele>540.6</ele>
        <time>2020-10-17T12:21:06Z</time>
      </trkpt>
      <trkpt lat="46.18186" lon="4.52248">
        <ele>540.8</ele>
        <time>2020-10-17T12:21:07Z</time>
      </trkpt>
      <trkpt lat="46.18186" lon="4.52248">
        <ele>540.8</ele>
        <time>2020-10-17T12:21:08Z</time>
      </trkpt>
      <trkpt lat="46.18186" lon="4.52248">
        <ele>541.2</ele>
        <time>2020-10-17T12:21:09Z</time>
      </trkpt>
      <trkpt lat="46.18188" lon="4.52244">
        <ele>541.4</ele>
        <time>2020-10-17T12:21:10Z</time>
      </trkpt>
      <trkpt lat="46.18189" lon="4.52242">
        <ele>541.4</ele>
        <time>2020-10-17T12:21:11Z</time>
      </trkpt>
      <trkpt lat="46.18189" lon="4.52242">
        <ele>541.6</ele>
        <time>2020-10-17T12:21:12Z</time>
      </trkpt>
      <trkpt lat="46.18191" lon="4.52237">
        <ele>541.6</ele>
        <time>2020-10-17T12:21:13Z</time>
      </trkpt>
      <trkpt lat="46.18191" lon="4.52237">
        <ele>542</ele>
        <time>2020-10-17T12:21:14Z</time>
      </trkpt>
      <trkpt lat="46.18192" lon="4.52233">
        <ele>542.4</ele>
        <time>2020-10-17T12:21:15Z</time>
      </trkpt>
      <trkpt lat="46.18192" lon="4.52233">
        <ele>542.6</ele>
        <time>2020-10-17T12:21:16Z</time>
      </trkpt>
      <trkpt lat="46.18192" lon="4.52229">
        <ele>542.6</ele>
        <time>2020-10-17T12:21:17Z</time>
      </trkpt>
      <trkpt lat="46.18192" lon="4.52229">
        <ele>542.8</ele>
        <time>2020-10-17T12:21:18Z</time>
      </trkpt>
      <trkpt lat="46.18192" lon="4.52225">
        <ele>543.2</ele>
        <time>2020-10-17T12:21:19Z</time>
      </trkpt>
      <trkpt lat="46.18192" lon="4.52225">
        <ele>543.6</ele>
        <time>2020-10-17T12:21:20Z</time>
      </trkpt>
      <trkpt lat="46.18192" lon="4.52222">
        <ele>543.8</ele>
        <time>2020-10-17T12:21:21Z</time>
      </trkpt>
      <trkpt lat="46.18192" lon="4.52222">
        <ele>543.8</ele>
        <time>2020-10-17T12:21:22Z</time>
      </trkpt>
      <trkpt lat="46.18193" lon="4.52218">
        <ele>544</ele>
        <time>2020-10-17T12:21:23Z</time>
      </trkpt>
      <trkpt lat="46.18193" lon="4.52218">
        <ele>544.6</ele>
        <time>2020-10-17T12:21:24Z</time>
      </trkpt>
      <trkpt lat="46.18193" lon="4.52215">
        <ele>545</ele>
        <time>2020-10-17T12:21:25Z</time>
      </trkpt>
      <trkpt lat="46.18193" lon="4.52215">
        <ele>545.2</ele>
        <time>2020-10-17T12:21:26Z</time>
      </trkpt>
      <trkpt lat="46.18194" lon="4.52211">
        <ele>545.2</ele>
        <time>2020-10-17T12:21:27Z</time>
      </trkpt>
      <trkpt lat="46.18194" lon="4.52211">
        <ele>545.4</ele>
        <time>2020-10-17T12:21:28Z</time>
      </trkpt>
      <trkpt lat="46.18194" lon="4.52208">
        <ele>545.6</ele>
        <time>2020-10-17T12:21:29Z</time>
      </trkpt>
      <trkpt lat="46.18194" lon="4.52208">
        <ele>545.8</ele>
        <time>2020-10-17T12:21:30Z</time>
      </trkpt>
      <trkpt lat="46.18194" lon="4.52205">
        <ele>546</ele>
        <time>2020-10-17T12:21:31Z</time>
      </trkpt>
      <trkpt lat="46.18194" lon="4.52205">
        <ele>545.8</ele>
        <time>2020-10-17T12:21:32Z</time>
      </trkpt>
      <trkpt lat="46.18195" lon="4.52201">
        <ele>546</ele>
        <time>2020-10-17T12:21:33Z</time>
      </trkpt>
      <trkpt lat="46.18195" lon="4.52201">
        <ele>546.4</ele>
        <time>2020-10-17T12:21:34Z</time>
      </trkpt>
      <trkpt lat="46.18196" lon="4.52197">
        <ele>546.4</ele>
        <time>2020-10-17T12:21:35Z</time>
      </trkpt>
      <trkpt lat="46.18196" lon="4.52197">
        <ele>546.4</ele>
        <time>2020-10-17T12:21:36Z</time>
      </trkpt>
      <trkpt lat="46.18197" lon="4.52194">
        <ele>546.6</ele>
        <time>2020-10-17T12:21:37Z</time>
      </trkpt>
      <trkpt lat="46.18197" lon="4.52194">
        <ele>546.8</ele>
        <time>2020-10-17T12:21:38Z</time>
      </trkpt>
      <trkpt lat="46.18197" lon="4.5219">
        <ele>546.8</ele>
        <time>2020-10-17T12:21:39Z</time>
      </trkpt>
      <trkpt lat="46.18197" lon="4.5219">
        <ele>547.2</ele>
        <time>2020-10-17T12:21:40Z</time>
      </trkpt>
      <trkpt lat="46.18197" lon="4.52186">
        <ele>547.4</ele>
        <time>2020-10-17T12:21:41Z</time>
      </trkpt>
      <trkpt lat="46.18197" lon="4.52186">
        <ele>547.4</ele>
        <time>2020-10-17T12:21:42Z</time>
      </trkpt>
      <trkpt lat="46.18197" lon="4.52183">
        <ele>547.8</ele>
        <time>2020-10-17T12:21:43Z</time>
      </trkpt>
      <trkpt lat="46.18197" lon="4.52183">
        <ele>548</ele>
        <time>2020-10-17T12:21:44Z</time>
      </trkpt>
      <trkpt lat="46.18198" lon="4.5218">
        <ele>547.8</ele>
        <time>2020-10-17T12:21:45Z</time>
      </trkpt>
      <trkpt lat="46.18198" lon="4.5218">
        <ele>548.4</ele>
        <time>2020-10-17T12:21:46Z</time>
      </trkpt>
      <trkpt lat="46.18198" lon="4.52176">
        <ele>548.6</ele>
        <time>2020-10-17T12:21:47Z</time>
      </trkpt>
      <trkpt lat="46.18198" lon="4.52176">
        <ele>548.6</ele>
        <time>2020-10-17T12:21:48Z</time>
      </trkpt>
      <trkpt lat="46.182" lon="4.52172">
        <ele>549</ele>
        <time>2020-10-17T12:21:49Z</time>
      </trkpt>
      <trkpt lat="46.182" lon="4.52172">
        <ele>549</ele>
        <time>2020-10-17T12:21:50Z</time>
      </trkpt>
      <trkpt lat="46.182" lon="4.52169">
        <ele>549.6</ele>
        <time>2020-10-17T12:21:51Z</time>
      </trkpt>
      <trkpt lat="46.182" lon="4.52169">
        <ele>550</ele>
        <time>2020-10-17T12:21:52Z</time>
      </trkpt>
      <trkpt lat="46.18201" lon="4.52165">
        <ele>550.2</ele>
        <time>2020-10-17T12:21:53Z</time>
      </trkpt>
      <trkpt lat="46.18201" lon="4.52165">
        <ele>550.8</ele>
        <time>2020-10-17T12:21:54Z</time>
      </trkpt>
      <trkpt lat="46.18202" lon="4.52161">
        <ele>551</ele>
        <time>2020-10-17T12:21:55Z</time>
      </trkpt>
      <trkpt lat="46.18202" lon="4.52161">
        <ele>551</ele>
        <time>2020-10-17T12:21:56Z</time>
      </trkpt>
      <trkpt lat="46.18202" lon="4.52158">
        <ele>551.4</ele>
        <time>2020-10-17T12:21:57Z</time>
      </trkpt>
      <trkpt lat="46.18202" lon="4.52158">
        <ele>551.8</ele>
        <time>2020-10-17T12:21:58Z</time>
      </trkpt>
      <trkpt lat="46.18203" lon="4.52153">
        <ele>551.8</ele>
        <time>2020-10-17T12:21:59Z</time>
      </trkpt>
      <trkpt lat="46.18203" lon="4.52153">
        <ele>552</ele>
        <time>2020-10-17T12:22:00Z</time>
      </trkpt>
      <trkpt lat="46.18204" lon="4.52149">
        <ele>552.2</ele>
        <time>2020-10-17T12:22:01Z</time>
      </trkpt>
      <trkpt lat="46.18204" lon="4.52149">
        <ele>552.4</ele>
        <time>2020-10-17T12:22:02Z</time>
      </trkpt>
      <trkpt lat="46.18204" lon="4.52147">
        <ele>552.6</ele>
        <time>2020-10-17T12:22:03Z</time>
      </trkpt>
      <trkpt lat="46.18204" lon="4.52147">
        <ele>552.8</ele>
        <time>2020-10-17T12:22:04Z</time>
      </trkpt>
      <trkpt lat="46.18204" lon="4.52144">
        <ele>552.6</ele>
        <time>2020-10-17T12:22:05Z</time>
      </trkpt>
      <trkpt lat="46.18204" lon="4.52144">
        <ele>552.8</ele>
        <time>2020-10-17T12:22:06Z</time>
      </trkpt>
      <trkpt lat="46.18205" lon="4.5214">
        <ele>553</ele>
        <time>2020-10-17T12:22:07Z</time>
      </trkpt>
      <trkpt lat="46.18205" lon="4.5214">
        <ele>553</ele>
        <time>2020-10-17T12:22:08Z</time>
      </trkpt>
      <trkpt lat="46.18206" lon="4.52136">
        <ele>553.2</ele>
        <time>2020-10-17T12:22:09Z</time>
      </trkpt>
      <trkpt lat="46.18206" lon="4.52136">
        <ele>553.4</ele>
        <time>2020-10-17T12:22:10Z</time>
      </trkpt>
      <trkpt lat="46.18206" lon="4.52133">
        <ele>553.8</ele>
        <time>2020-10-17T12:22:11Z</time>
      </trkpt>
      <trkpt lat="46.18206" lon="4.52133">
        <ele>554</ele>
        <time>2020-10-17T12:22:12Z</time>
      </trkpt>
      <trkpt lat="46.18206" lon="4.52129">
        <ele>554</ele>
        <time>2020-10-17T12:22:13Z</time>
      </trkpt>
      <trkpt lat="46.18206" lon="4.52129">
        <ele>554.4</ele>
        <time>2020-10-17T12:22:14Z</time>
      </trkpt>
      <trkpt lat="46.18207" lon="4.52126">
        <ele>554.6</ele>
        <time>2020-10-17T12:22:15Z</time>
      </trkpt>
      <trkpt lat="46.18207" lon="4.52126">
        <ele>554.6</ele>
        <time>2020-10-17T12:22:16Z</time>
      </trkpt>
      <trkpt lat="46.18208" lon="4.52123">
        <ele>555</ele>
        <time>2020-10-17T12:22:17Z</time>
      </trkpt>
      <trkpt lat="46.18208" lon="4.52123">
        <ele>555</ele>
        <time>2020-10-17T12:22:18Z</time>
      </trkpt>
      <trkpt lat="46.18208" lon="4.5212">
        <ele>555.4</ele>
        <time>2020-10-17T12:22:19Z</time>
      </trkpt>
      <trkpt lat="46.18208" lon="4.5212">
        <ele>555.6</ele>
        <time>2020-10-17T12:22:20Z</time>
      </trkpt>
      <trkpt lat="46.18208" lon="4.5212">
        <ele>555.8</ele>
        <time>2020-10-17T12:22:21Z</time>
      </trkpt>
      <trkpt lat="46.18209" lon="4.52117">
        <ele>556.4</ele>
        <time>2020-10-17T12:22:22Z</time>
      </trkpt>
      <trkpt lat="46.18209" lon="4.52117">
        <ele>556.4</ele>
        <time>2020-10-17T12:22:23Z</time>
      </trkpt>
      <trkpt lat="46.18211" lon="4.52113">
        <ele>556.8</ele>
        <time>2020-10-17T12:22:24Z</time>
      </trkpt>
      <trkpt lat="46.18211" lon="4.52113">
        <ele>557.2</ele>
        <time>2020-10-17T12:22:25Z</time>
      </trkpt>
      <trkpt lat="46.18211" lon="4.52109">
        <ele>557.2</ele>
        <time>2020-10-17T12:22:26Z</time>
      </trkpt>
      <trkpt lat="46.18211" lon="4.52109">
        <ele>557.6</ele>
        <time>2020-10-17T12:22:27Z</time>
      </trkpt>
      <trkpt lat="46.18212" lon="4.52104">
        <ele>557.4</ele>
        <time>2020-10-17T12:22:28Z</time>
      </trkpt>
      <trkpt lat="46.18212" lon="4.52104">
        <ele>558</ele>
        <time>2020-10-17T12:22:29Z</time>
      </trkpt>
      <trkpt lat="46.18213" lon="4.521">
        <ele>558.2</ele>
        <time>2020-10-17T12:22:30Z</time>
      </trkpt>
      <trkpt lat="46.18213" lon="4.521">
        <ele>558.4</ele>
        <time>2020-10-17T12:22:31Z</time>
      </trkpt>
      <trkpt lat="46.18214" lon="4.52096">
        <ele>558.4</ele>
        <time>2020-10-17T12:22:32Z</time>
      </trkpt>
      <trkpt lat="46.18214" lon="4.52096">
        <ele>558.6</ele>
        <time>2020-10-17T12:22:33Z</time>
      </trkpt>
      <trkpt lat="46.18215" lon="4.52093">
        <ele>558.8</ele>
        <time>2020-10-17T12:22:34Z</time>
      </trkpt>
      <trkpt lat="46.18215" lon="4.52093">
        <ele>558.8</ele>
        <time>2020-10-17T12:22:35Z</time>
      </trkpt>
      <trkpt lat="46.18214" lon="4.52088">
        <ele>559.2</ele>
        <time>2020-10-17T12:22:36Z</time>
      </trkpt>
      <trkpt lat="46.18214" lon="4.52088">
        <ele>559.4</ele>
        <time>2020-10-17T12:22:37Z</time>
      </trkpt>
      <trkpt lat="46.18214" lon="4.52084">
        <ele>560</ele>
        <time>2020-10-17T12:22:38Z</time>
      </trkpt>
      <trkpt lat="46.18214" lon="4.52084">
        <ele>560</ele>
        <time>2020-10-17T12:22:39Z</time>
      </trkpt>
      <trkpt lat="46.18213" lon="4.5208">
        <ele>560.4</ele>
        <time>2020-10-17T12:22:40Z</time>
      </trkpt>
      <trkpt lat="46.18213" lon="4.5208">
        <ele>560.4</ele>
        <time>2020-10-17T12:22:41Z</time>
      </trkpt>
      <trkpt lat="46.18213" lon="4.52076">
        <ele>560.2</ele>
        <time>2020-10-17T12:22:42Z</time>
      </trkpt>
      <trkpt lat="46.18213" lon="4.52076">
        <ele>560.4</ele>
        <time>2020-10-17T12:22:43Z</time>
      </trkpt>
      <trkpt lat="46.18213" lon="4.52073">
        <ele>560.6</ele>
        <time>2020-10-17T12:22:44Z</time>
      </trkpt>
      <trkpt lat="46.18213" lon="4.52073">
        <ele>560.8</ele>
        <time>2020-10-17T12:22:45Z</time>
      </trkpt>
      <trkpt lat="46.18214" lon="4.52069">
        <ele>561.2</ele>
        <time>2020-10-17T12:22:46Z</time>
      </trkpt>
      <trkpt lat="46.18214" lon="4.52069">
        <ele>561.4</ele>
        <time>2020-10-17T12:22:47Z</time>
      </trkpt>
      <trkpt lat="46.18214" lon="4.52064">
        <ele>561.4</ele>
        <time>2020-10-17T12:22:48Z</time>
      </trkpt>
      <trkpt lat="46.18214" lon="4.52064">
        <ele>561.8</ele>
        <time>2020-10-17T12:22:49Z</time>
      </trkpt>
      <trkpt lat="46.18214" lon="4.5206">
        <ele>561.6</ele>
        <time>2020-10-17T12:22:50Z</time>
      </trkpt>
      <trkpt lat="46.18214" lon="4.5206">
        <ele>562</ele>
        <time>2020-10-17T12:22:51Z</time>
      </trkpt>
      <trkpt lat="46.18213" lon="4.52056">
        <ele>562</ele>
        <time>2020-10-17T12:22:52Z</time>
      </trkpt>
      <trkpt lat="46.18213" lon="4.52056">
        <ele>562.4</ele>
        <time>2020-10-17T12:22:53Z</time>
      </trkpt>
      <trkpt lat="46.1821" lon="4.52053">
        <ele>562.6</ele>
        <time>2020-10-17T12:22:54Z</time>
      </trkpt>
      <trkpt lat="46.1821" lon="4.52053">
        <ele>562.8</ele>
        <time>2020-10-17T12:22:55Z</time>
      </trkpt>
      <trkpt lat="46.18208" lon="4.52052">
        <ele>562.8</ele>
        <time>2020-10-17T12:22:56Z</time>
      </trkpt>
      <trkpt lat="46.18208" lon="4.52052">
        <ele>563</ele>
        <time>2020-10-17T12:22:57Z</time>
      </trkpt>
      <trkpt lat="46.18205" lon="4.5205">
        <ele>563.2</ele>
        <time>2020-10-17T12:22:58Z</time>
      </trkpt>
      <trkpt lat="46.18205" lon="4.5205">
        <ele>563</ele>
        <time>2020-10-17T12:22:59Z</time>
      </trkpt>
      <trkpt lat="46.18202" lon="4.52049">
        <ele>563</ele>
        <time>2020-10-17T12:23:00Z</time>
      </trkpt>
      <trkpt lat="46.18202" lon="4.52049">
        <ele>563.2</ele>
        <time>2020-10-17T12:23:01Z</time>
      </trkpt>
      <trkpt lat="46.18199" lon="4.52048">
        <ele>563.2</ele>
        <time>2020-10-17T12:23:02Z</time>
      </trkpt>
      <trkpt lat="46.18199" lon="4.52048">
        <ele>563</ele>
        <time>2020-10-17T12:23:03Z</time>
      </trkpt>
      <trkpt lat="46.18196" lon="4.52046">
        <ele>563</ele>
        <time>2020-10-17T12:23:04Z</time>
      </trkpt>
      <trkpt lat="46.18196" lon="4.52046">
        <ele>563.2</ele>
        <time>2020-10-17T12:23:05Z</time>
      </trkpt>
      <trkpt lat="46.18193" lon="4.52044">
        <ele>563.2</ele>
        <time>2020-10-17T12:23:06Z</time>
      </trkpt>
      <trkpt lat="46.18193" lon="4.52044">
        <ele>563.2</ele>
        <time>2020-10-17T12:23:07Z</time>
      </trkpt>
      <trkpt lat="46.18191" lon="4.52042">
        <ele>563.6</ele>
        <time>2020-10-17T12:23:08Z</time>
      </trkpt>
      <trkpt lat="46.18191" lon="4.52042">
        <ele>563.8</ele>
        <time>2020-10-17T12:23:09Z</time>
      </trkpt>
      <trkpt lat="46.18188" lon="4.5204">
        <ele>563.6</ele>
        <time>2020-10-17T12:23:10Z</time>
      </trkpt>
      <trkpt lat="46.18188" lon="4.5204">
        <ele>563.6</ele>
        <time>2020-10-17T12:23:11Z</time>
      </trkpt>
      <trkpt lat="46.18186" lon="4.52038">
        <ele>563.8</ele>
        <time>2020-10-17T12:23:12Z</time>
      </trkpt>
      <trkpt lat="46.18186" lon="4.52038">
        <ele>564</ele>
        <time>2020-10-17T12:23:13Z</time>
      </trkpt>
      <trkpt lat="46.18183" lon="4.52036">
        <ele>564.2</ele>
        <time>2020-10-17T12:23:14Z</time>
      </trkpt>
      <trkpt lat="46.18183" lon="4.52036">
        <ele>564.4</ele>
        <time>2020-10-17T12:23:15Z</time>
      </trkpt>
      <trkpt lat="46.1818" lon="4.52034">
        <ele>564.4</ele>
        <time>2020-10-17T12:23:16Z</time>
      </trkpt>
      <trkpt lat="46.1818" lon="4.52034">
        <ele>564.4</ele>
        <time>2020-10-17T12:23:17Z</time>
      </trkpt>
      <trkpt lat="46.18177" lon="4.52032">
        <ele>564.6</ele>
        <time>2020-10-17T12:23:18Z</time>
      </trkpt>
      <trkpt lat="46.18177" lon="4.52032">
        <ele>564.8</ele>
        <time>2020-10-17T12:23:19Z</time>
      </trkpt>
      <trkpt lat="46.18175" lon="4.5203">
        <ele>565</ele>
        <time>2020-10-17T12:23:20Z</time>
      </trkpt>
      <trkpt lat="46.18175" lon="4.5203">
        <ele>565.2</ele>
        <time>2020-10-17T12:23:21Z</time>
      </trkpt>
      <trkpt lat="46.18173" lon="4.52029">
        <ele>565.4</ele>
        <time>2020-10-17T12:23:22Z</time>
      </trkpt>
      <trkpt lat="46.18173" lon="4.52029">
        <ele>565.6</ele>
        <time>2020-10-17T12:23:23Z</time>
      </trkpt>
      <trkpt lat="46.1817" lon="4.52027">
        <ele>566</ele>
        <time>2020-10-17T12:23:24Z</time>
      </trkpt>
      <trkpt lat="46.1817" lon="4.52027">
        <ele>566.2</ele>
        <time>2020-10-17T12:23:25Z</time>
      </trkpt>
      <trkpt lat="46.18168" lon="4.52024">
        <ele>566.4</ele>
        <time>2020-10-17T12:23:26Z</time>
      </trkpt>
      <trkpt lat="46.18168" lon="4.52024">
        <ele>566.4</ele>
        <time>2020-10-17T12:23:27Z</time>
      </trkpt>
      <trkpt lat="46.18165" lon="4.52023">
        <ele>566.4</ele>
        <time>2020-10-17T12:23:28Z</time>
      </trkpt>
      <trkpt lat="46.18165" lon="4.52023">
        <ele>566.8</ele>
        <time>2020-10-17T12:23:29Z</time>
      </trkpt>
      <trkpt lat="46.18162" lon="4.52022">
        <ele>566.8</ele>
        <time>2020-10-17T12:23:30Z</time>
      </trkpt>
      <trkpt lat="46.18162" lon="4.52022">
        <ele>567.2</ele>
        <time>2020-10-17T12:23:31Z</time>
      </trkpt>
      <trkpt lat="46.1816" lon="4.52021">
        <ele>567.4</ele>
        <time>2020-10-17T12:23:32Z</time>
      </trkpt>
      <trkpt lat="46.1816" lon="4.52021">
        <ele>567.6</ele>
        <time>2020-10-17T12:23:33Z</time>
      </trkpt>
      <trkpt lat="46.18157" lon="4.52021">
        <ele>568</ele>
        <time>2020-10-17T12:23:34Z</time>
      </trkpt>
      <trkpt lat="46.18157" lon="4.52021">
        <ele>568.2</ele>
        <time>2020-10-17T12:23:35Z</time>
      </trkpt>
      <trkpt lat="46.18155" lon="4.5202">
        <ele>568.6</ele>
        <time>2020-10-17T12:23:36Z</time>
      </trkpt>
      <trkpt lat="46.18155" lon="4.5202">
        <ele>568.6</ele>
        <time>2020-10-17T12:23:37Z</time>
      </trkpt>
      <trkpt lat="46.18152" lon="4.5202">
        <ele>568.6</ele>
        <time>2020-10-17T12:23:38Z</time>
      </trkpt>
      <trkpt lat="46.18152" lon="4.5202">
        <ele>568.4</ele>
        <time>2020-10-17T12:23:39Z</time>
      </trkpt>
      <trkpt lat="46.18149" lon="4.52019">
        <ele>569</ele>
        <time>2020-10-17T12:23:40Z</time>
      </trkpt>
      <trkpt lat="46.18149" lon="4.52019">
        <ele>569</ele>
        <time>2020-10-17T12:23:41Z</time>
      </trkpt>
      <trkpt lat="46.18146" lon="4.52019">
        <ele>569.4</ele>
        <time>2020-10-17T12:23:42Z</time>
      </trkpt>
      <trkpt lat="46.18146" lon="4.52019">
        <ele>569.4</ele>
        <time>2020-10-17T12:23:43Z</time>
      </trkpt>
      <trkpt lat="46.18142" lon="4.52019">
        <ele>569.6</ele>
        <time>2020-10-17T12:23:44Z</time>
      </trkpt>
      <trkpt lat="46.18142" lon="4.52019">
        <ele>569.8</ele>
        <time>2020-10-17T12:23:45Z</time>
      </trkpt>
      <trkpt lat="46.18139" lon="4.52018">
        <ele>569.8</ele>
        <time>2020-10-17T12:23:46Z</time>
      </trkpt>
      <trkpt lat="46.18139" lon="4.52018">
        <ele>570.2</ele>
        <time>2020-10-17T12:23:47Z</time>
      </trkpt>
      <trkpt lat="46.18136" lon="4.52017">
        <ele>570.4</ele>
        <time>2020-10-17T12:23:48Z</time>
      </trkpt>
      <trkpt lat="46.18136" lon="4.52017">
        <ele>570.6</ele>
        <time>2020-10-17T12:23:49Z</time>
      </trkpt>
      <trkpt lat="46.18133" lon="4.52017">
        <ele>570.6</ele>
        <time>2020-10-17T12:23:50Z</time>
      </trkpt>
      <trkpt lat="46.18133" lon="4.52017">
        <ele>570.6</ele>
        <time>2020-10-17T12:23:51Z</time>
      </trkpt>
      <trkpt lat="46.1813" lon="4.52016">
        <ele>570.6</ele>
        <time>2020-10-17T12:23:52Z</time>
      </trkpt>
      <trkpt lat="46.1813" lon="4.52016">
        <ele>571</ele>
        <time>2020-10-17T12:23:53Z</time>
      </trkpt>
      <trkpt lat="46.18127" lon="4.52015">
        <ele>571.2</ele>
        <time>2020-10-17T12:23:54Z</time>
      </trkpt>
      <trkpt lat="46.18127" lon="4.52015">
        <ele>571.4</ele>
        <time>2020-10-17T12:23:55Z</time>
      </trkpt>
      <trkpt lat="46.18125" lon="4.52013">
        <ele>571.4</ele>
        <time>2020-10-17T12:23:56Z</time>
      </trkpt>
      <trkpt lat="46.18125" lon="4.52013">
        <ele>571.4</ele>
        <time>2020-10-17T12:23:57Z</time>
      </trkpt>
      <trkpt lat="46.18122" lon="4.52012">
        <ele>571.4</ele>
        <time>2020-10-17T12:23:58Z</time>
      </trkpt>
      <trkpt lat="46.18122" lon="4.52012">
        <ele>571.6</ele>
        <time>2020-10-17T12:23:59Z</time>
      </trkpt>
      <trkpt lat="46.18119" lon="4.5201">
        <ele>572</ele>
        <time>2020-10-17T12:24:00Z</time>
      </trkpt>
      <trkpt lat="46.18119" lon="4.5201">
        <ele>572.2</ele>
        <time>2020-10-17T12:24:01Z</time>
      </trkpt>
      <trkpt lat="46.18116" lon="4.52009">
        <ele>572.6</ele>
        <time>2020-10-17T12:24:02Z</time>
      </trkpt>
      <trkpt lat="46.18116" lon="4.52009">
        <ele>572.6</ele>
        <time>2020-10-17T12:24:03Z</time>
      </trkpt>
      <trkpt lat="46.18113" lon="4.52007">
        <ele>572.6</ele>
        <time>2020-10-17T12:24:04Z</time>
      </trkpt>
      <trkpt lat="46.18113" lon="4.52007">
        <ele>572.8</ele>
        <time>2020-10-17T12:24:05Z</time>
      </trkpt>
      <trkpt lat="46.1811" lon="4.52005">
        <ele>572.8</ele>
        <time>2020-10-17T12:24:06Z</time>
      </trkpt>
      <trkpt lat="46.1811" lon="4.52005">
        <ele>573</ele>
        <time>2020-10-17T12:24:07Z</time>
      </trkpt>
      <trkpt lat="46.18108" lon="4.52003">
        <ele>573.4</ele>
        <time>2020-10-17T12:24:08Z</time>
      </trkpt>
      <trkpt lat="46.18108" lon="4.52003">
        <ele>573.4</ele>
        <time>2020-10-17T12:24:09Z</time>
      </trkpt>
      <trkpt lat="46.18105" lon="4.52001">
        <ele>573.6</ele>
        <time>2020-10-17T12:24:10Z</time>
      </trkpt>
      <trkpt lat="46.18105" lon="4.52001">
        <ele>574</ele>
        <time>2020-10-17T12:24:11Z</time>
      </trkpt>
      <trkpt lat="46.18102" lon="4.51999">
        <ele>574.2</ele>
        <time>2020-10-17T12:24:12Z</time>
      </trkpt>
      <trkpt lat="46.18102" lon="4.51999">
        <ele>574.2</ele>
        <time>2020-10-17T12:24:13Z</time>
      </trkpt>
      <trkpt lat="46.181" lon="4.51997">
        <ele>574.4</ele>
        <time>2020-10-17T12:24:14Z</time>
      </trkpt>
      <trkpt lat="46.181" lon="4.51997">
        <ele>574.4</ele>
        <time>2020-10-17T12:24:15Z</time>
      </trkpt>
      <trkpt lat="46.18097" lon="4.51994">
        <ele>574.4</ele>
        <time>2020-10-17T12:24:16Z</time>
      </trkpt>
      <trkpt lat="46.18097" lon="4.51994">
        <ele>574.4</ele>
        <time>2020-10-17T12:24:17Z</time>
      </trkpt>
      <trkpt lat="46.18095" lon="4.51992">
        <ele>574.4</ele>
        <time>2020-10-17T12:24:18Z</time>
      </trkpt>
      <trkpt lat="46.18095" lon="4.51992">
        <ele>574.6</ele>
        <time>2020-10-17T12:24:19Z</time>
      </trkpt>
      <trkpt lat="46.18092" lon="4.51989">
        <ele>574.8</ele>
        <time>2020-10-17T12:24:20Z</time>
      </trkpt>
      <trkpt lat="46.18092" lon="4.51989">
        <ele>574.8</ele>
        <time>2020-10-17T12:24:21Z</time>
      </trkpt>
      <trkpt lat="46.1809" lon="4.51987">
        <ele>575</ele>
        <time>2020-10-17T12:24:22Z</time>
      </trkpt>
      <trkpt lat="46.1809" lon="4.51987">
        <ele>574.8</ele>
        <time>2020-10-17T12:24:23Z</time>
      </trkpt>
      <trkpt lat="46.18087" lon="4.51985">
        <ele>575.2</ele>
        <time>2020-10-17T12:24:24Z</time>
      </trkpt>
      <trkpt lat="46.18087" lon="4.51985">
        <ele>575.2</ele>
        <time>2020-10-17T12:24:25Z</time>
      </trkpt>
      <trkpt lat="46.18085" lon="4.51983">
        <ele>575.4</ele>
        <time>2020-10-17T12:24:26Z</time>
      </trkpt>
      <trkpt lat="46.18085" lon="4.51983">
        <ele>575.4</ele>
        <time>2020-10-17T12:24:27Z</time>
      </trkpt>
      <trkpt lat="46.18082" lon="4.5198">
        <ele>575.4</ele>
        <time>2020-10-17T12:24:28Z</time>
      </trkpt>
      <trkpt lat="46.18082" lon="4.5198">
        <ele>575.2</ele>
        <time>2020-10-17T12:24:29Z</time>
      </trkpt>
      <trkpt lat="46.18079" lon="4.51978">
        <ele>575.6</ele>
        <time>2020-10-17T12:24:30Z</time>
      </trkpt>
      <trkpt lat="46.18079" lon="4.51978">
        <ele>575.6</ele>
        <time>2020-10-17T12:24:31Z</time>
      </trkpt>
      <trkpt lat="46.18076" lon="4.51976">
        <ele>575.8</ele>
        <time>2020-10-17T12:24:32Z</time>
      </trkpt>
      <trkpt lat="46.18076" lon="4.51976">
        <ele>575.8</ele>
        <time>2020-10-17T12:24:33Z</time>
      </trkpt>
      <trkpt lat="46.18073" lon="4.51973">
        <ele>575.6</ele>
        <time>2020-10-17T12:24:34Z</time>
      </trkpt>
      <trkpt lat="46.18073" lon="4.51973">
        <ele>575.4</ele>
        <time>2020-10-17T12:24:35Z</time>
      </trkpt>
      <trkpt lat="46.1807" lon="4.51972">
        <ele>575.6</ele>
        <time>2020-10-17T12:24:36Z</time>
      </trkpt>
      <trkpt lat="46.1807" lon="4.51972">
        <ele>575.8</ele>
        <time>2020-10-17T12:24:37Z</time>
      </trkpt>
      <trkpt lat="46.18067" lon="4.5197">
        <ele>575.8</ele>
        <time>2020-10-17T12:24:38Z</time>
      </trkpt>
      <trkpt lat="46.18067" lon="4.5197">
        <ele>575.6</ele>
        <time>2020-10-17T12:24:39Z</time>
      </trkpt>
      <trkpt lat="46.18064" lon="4.51968">
        <ele>575.4</ele>
        <time>2020-10-17T12:24:40Z</time>
      </trkpt>
      <trkpt lat="46.18064" lon="4.51968">
        <ele>575.4</ele>
        <time>2020-10-17T12:24:41Z</time>
      </trkpt>
      <trkpt lat="46.18061" lon="4.51966">
        <ele>575.4</ele>
        <time>2020-10-17T12:24:42Z</time>
      </trkpt>
      <trkpt lat="46.18061" lon="4.51966">
        <ele>575.6</ele>
        <time>2020-10-17T12:24:43Z</time>
      </trkpt>
      <trkpt lat="46.18058" lon="4.51964">
        <ele>575.6</ele>
        <time>2020-10-17T12:24:44Z</time>
      </trkpt>
      <trkpt lat="46.18058" lon="4.51964">
        <ele>576</ele>
        <time>2020-10-17T12:24:45Z</time>
      </trkpt>
      <trkpt lat="46.18055" lon="4.51963">
        <ele>576.2</ele>
        <time>2020-10-17T12:24:46Z</time>
      </trkpt>
      <trkpt lat="46.18055" lon="4.51963">
        <ele>576.4</ele>
        <time>2020-10-17T12:24:47Z</time>
      </trkpt>
      <trkpt lat="46.18052" lon="4.51962">
        <ele>576.4</ele>
        <time>2020-10-17T12:24:48Z</time>
      </trkpt>
      <trkpt lat="46.18052" lon="4.51962">
        <ele>576.2</ele>
        <time>2020-10-17T12:24:49Z</time>
      </trkpt>
      <trkpt lat="46.18049" lon="4.51961">
        <ele>576.4</ele>
        <time>2020-10-17T12:24:50Z</time>
      </trkpt>
      <trkpt lat="46.18049" lon="4.51961">
        <ele>576.4</ele>
        <time>2020-10-17T12:24:51Z</time>
      </trkpt>
      <trkpt lat="46.18046" lon="4.5196">
        <ele>576.6</ele>
        <time>2020-10-17T12:24:52Z</time>
      </trkpt>
      <trkpt lat="46.18046" lon="4.5196">
        <ele>576.6</ele>
        <time>2020-10-17T12:24:53Z</time>
      </trkpt>
      <trkpt lat="46.18043" lon="4.51959">
        <ele>576.8</ele>
        <time>2020-10-17T12:24:54Z</time>
      </trkpt>
      <trkpt lat="46.18043" lon="4.51959">
        <ele>576.8</ele>
        <time>2020-10-17T12:24:55Z</time>
      </trkpt>
      <trkpt lat="46.18039" lon="4.51957">
        <ele>576.8</ele>
        <time>2020-10-17T12:24:56Z</time>
      </trkpt>
      <trkpt lat="46.18038" lon="4.51956">
        <ele>577</ele>
        <time>2020-10-17T12:24:57Z</time>
      </trkpt>
      <trkpt lat="46.18036" lon="4.51956">
        <ele>577.2</ele>
        <time>2020-10-17T12:24:58Z</time>
      </trkpt>
      <trkpt lat="46.18036" lon="4.51956">
        <ele>577.4</ele>
        <time>2020-10-17T12:24:59Z</time>
      </trkpt>
      <trkpt lat="46.18033" lon="4.51954">
        <ele>577.2</ele>
        <time>2020-10-17T12:25:00Z</time>
      </trkpt>
      <trkpt lat="46.18033" lon="4.51954">
        <ele>577.4</ele>
        <time>2020-10-17T12:25:01Z</time>
      </trkpt>
      <trkpt lat="46.1803" lon="4.51953">
        <ele>577.2</ele>
        <time>2020-10-17T12:25:02Z</time>
      </trkpt>
      <trkpt lat="46.1803" lon="4.51953">
        <ele>577.4</ele>
        <time>2020-10-17T12:25:03Z</time>
      </trkpt>
      <trkpt lat="46.18027" lon="4.51951">
        <ele>577.6</ele>
        <time>2020-10-17T12:25:04Z</time>
      </trkpt>
      <trkpt lat="46.18027" lon="4.51951">
        <ele>577.4</ele>
        <time>2020-10-17T12:25:05Z</time>
      </trkpt>
      <trkpt lat="46.18024" lon="4.5195">
        <ele>577.6</ele>
        <time>2020-10-17T12:25:06Z</time>
      </trkpt>
      <trkpt lat="46.18024" lon="4.5195">
        <ele>577.8</ele>
        <time>2020-10-17T12:25:07Z</time>
      </trkpt>
      <trkpt lat="46.18021" lon="4.51948">
        <ele>577.8</ele>
        <time>2020-10-17T12:25:08Z</time>
      </trkpt>
      <trkpt lat="46.18021" lon="4.51948">
        <ele>578</ele>
        <time>2020-10-17T12:25:09Z</time>
      </trkpt>
      <trkpt lat="46.18018" lon="4.51947">
        <ele>578.2</ele>
        <time>2020-10-17T12:25:10Z</time>
      </trkpt>
      <trkpt lat="46.18018" lon="4.51947">
        <ele>578.4</ele>
        <time>2020-10-17T12:25:11Z</time>
      </trkpt>
      <trkpt lat="46.18015" lon="4.51945">
        <ele>578.4</ele>
        <time>2020-10-17T12:25:12Z</time>
      </trkpt>
      <trkpt lat="46.18015" lon="4.51945">
        <ele>578.6</ele>
        <time>2020-10-17T12:25:13Z</time>
      </trkpt>
      <trkpt lat="46.18013" lon="4.51944">
        <ele>578.8</ele>
        <time>2020-10-17T12:25:14Z</time>
      </trkpt>
      <trkpt lat="46.18013" lon="4.51944">
        <ele>578.8</ele>
        <time>2020-10-17T12:25:15Z</time>
      </trkpt>
      <trkpt lat="46.1801" lon="4.51942">
        <ele>578.8</ele>
        <time>2020-10-17T12:25:16Z</time>
      </trkpt>
      <trkpt lat="46.1801" lon="4.51942">
        <ele>578.6</ele>
        <time>2020-10-17T12:25:17Z</time>
      </trkpt>
      <trkpt lat="46.18007" lon="4.5194">
        <ele>578.6</ele>
        <time>2020-10-17T12:25:18Z</time>
      </trkpt>
      <trkpt lat="46.18007" lon="4.5194">
        <ele>578.6</ele>
        <time>2020-10-17T12:25:19Z</time>
      </trkpt>
      <trkpt lat="46.18004" lon="4.51937">
        <ele>578.8</ele>
        <time>2020-10-17T12:25:20Z</time>
      </trkpt>
      <trkpt lat="46.18004" lon="4.51937">
        <ele>579</ele>
        <time>2020-10-17T12:25:21Z</time>
      </trkpt>
      <trkpt lat="46.18002" lon="4.51935">
        <ele>579</ele>
        <time>2020-10-17T12:25:22Z</time>
      </trkpt>
      <trkpt lat="46.18002" lon="4.51935">
        <ele>578.8</ele>
        <time>2020-10-17T12:25:23Z</time>
      </trkpt>
      <trkpt lat="46.17999" lon="4.51933">
        <ele>579</ele>
        <time>2020-10-17T12:25:24Z</time>
      </trkpt>
      <trkpt lat="46.17999" lon="4.51933">
        <ele>578.8</ele>
        <time>2020-10-17T12:25:25Z</time>
      </trkpt>
      <trkpt lat="46.17996" lon="4.51931">
        <ele>578.6</ele>
        <time>2020-10-17T12:25:26Z</time>
      </trkpt>
      <trkpt lat="46.17996" lon="4.51931">
        <ele>578.6</ele>
        <time>2020-10-17T12:25:27Z</time>
      </trkpt>
      <trkpt lat="46.17993" lon="4.51928">
        <ele>578.6</ele>
        <time>2020-10-17T12:25:28Z</time>
      </trkpt>
      <trkpt lat="46.17993" lon="4.51928">
        <ele>578.8</ele>
        <time>2020-10-17T12:25:29Z</time>
      </trkpt>
      <trkpt lat="46.17991" lon="4.51925">
        <ele>579</ele>
        <time>2020-10-17T12:25:30Z</time>
      </trkpt>
      <trkpt lat="46.17991" lon="4.51925">
        <ele>579.2</ele>
        <time>2020-10-17T12:25:31Z</time>
      </trkpt>
      <trkpt lat="46.17988" lon="4.51922">
        <ele>579.2</ele>
        <time>2020-10-17T12:25:32Z</time>
      </trkpt>
      <trkpt lat="46.17988" lon="4.51922">
        <ele>579.2</ele>
        <time>2020-10-17T12:25:33Z</time>
      </trkpt>
      <trkpt lat="46.17986" lon="4.5192">
        <ele>579.4</ele>
        <time>2020-10-17T12:25:34Z</time>
      </trkpt>
      <trkpt lat="46.17986" lon="4.5192">
        <ele>579.8</ele>
        <time>2020-10-17T12:25:35Z</time>
      </trkpt>
      <trkpt lat="46.17984" lon="4.51917">
        <ele>579.8</ele>
        <time>2020-10-17T12:25:36Z</time>
      </trkpt>
      <trkpt lat="46.17984" lon="4.51917">
        <ele>580</ele>
        <time>2020-10-17T12:25:37Z</time>
      </trkpt>
      <trkpt lat="46.17981" lon="4.51914">
        <ele>580</ele>
        <time>2020-10-17T12:25:38Z</time>
      </trkpt>
      <trkpt lat="46.17981" lon="4.51914">
        <ele>580</ele>
        <time>2020-10-17T12:25:39Z</time>
      </trkpt>
      <trkpt lat="46.17978" lon="4.51911">
        <ele>580</ele>
        <time>2020-10-17T12:25:40Z</time>
      </trkpt>
      <trkpt lat="46.17978" lon="4.51911">
        <ele>580.2</ele>
        <time>2020-10-17T12:25:41Z</time>
      </trkpt>
      <trkpt lat="46.17975" lon="4.51909">
        <ele>580.2</ele>
        <time>2020-10-17T12:25:42Z</time>
      </trkpt>
      <trkpt lat="46.17975" lon="4.51909">
        <ele>580.2</ele>
        <time>2020-10-17T12:25:43Z</time>
      </trkpt>
      <trkpt lat="46.17973" lon="4.51907">
        <ele>580.2</ele>
        <time>2020-10-17T12:25:44Z</time>
      </trkpt>
      <trkpt lat="46.17973" lon="4.51907">
        <ele>580</ele>
        <time>2020-10-17T12:25:45Z</time>
      </trkpt>
      <trkpt lat="46.1797" lon="4.51905">
        <ele>579.8</ele>
        <time>2020-10-17T12:25:46Z</time>
      </trkpt>
      <trkpt lat="46.1797" lon="4.51905">
        <ele>579.6</ele>
        <time>2020-10-17T12:25:47Z</time>
      </trkpt>
      <trkpt lat="46.17968" lon="4.51902">
        <ele>579.6</ele>
        <time>2020-10-17T12:25:48Z</time>
      </trkpt>
      <trkpt lat="46.17968" lon="4.51902">
        <ele>579.6</ele>
        <time>2020-10-17T12:25:49Z</time>
      </trkpt>
      <trkpt lat="46.17965" lon="4.51901">
        <ele>579.6</ele>
        <time>2020-10-17T12:25:50Z</time>
      </trkpt>
      <trkpt lat="46.17965" lon="4.51901">
        <ele>579.6</ele>
        <time>2020-10-17T12:25:51Z</time>
      </trkpt>
      <trkpt lat="46.17963" lon="4.519">
        <ele>579.6</ele>
        <time>2020-10-17T12:25:52Z</time>
      </trkpt>
      <trkpt lat="46.17963" lon="4.519">
        <ele>579.6</ele>
        <time>2020-10-17T12:25:53Z</time>
      </trkpt>
      <trkpt lat="46.1796" lon="4.51899">
        <ele>579.6</ele>
        <time>2020-10-17T12:25:54Z</time>
      </trkpt>
      <trkpt lat="46.1796" lon="4.51899">
        <ele>579.8</ele>
        <time>2020-10-17T12:25:55Z</time>
      </trkpt>
      <trkpt lat="46.17957" lon="4.51899">
        <ele>580</ele>
        <time>2020-10-17T12:25:56Z</time>
      </trkpt>
      <trkpt lat="46.17955" lon="4.51899">
        <ele>580</ele>
        <time>2020-10-17T12:25:57Z</time>
      </trkpt>
      <trkpt lat="46.17955" lon="4.51899">
        <ele>580</ele>
        <time>2020-10-17T12:25:58Z</time>
      </trkpt>
      <trkpt lat="46.17951" lon="4.519">
        <ele>580.2</ele>
        <time>2020-10-17T12:25:59Z</time>
      </trkpt>
      <trkpt lat="46.17949" lon="4.51899">
        <ele>580.2</ele>
        <time>2020-10-17T12:26:00Z</time>
      </trkpt>
      <trkpt lat="46.17948" lon="4.519">
        <ele>580</ele>
        <time>2020-10-17T12:26:01Z</time>
      </trkpt>
      <trkpt lat="46.17947" lon="4.519">
        <ele>580</ele>
        <time>2020-10-17T12:26:02Z</time>
      </trkpt>
      <trkpt lat="46.17947" lon="4.519">
        <ele>580</ele>
        <time>2020-10-17T12:26:03Z</time>
      </trkpt>
      <trkpt lat="46.17944" lon="4.51901">
        <ele>579.8</ele>
        <time>2020-10-17T12:26:04Z</time>
      </trkpt>
      <trkpt lat="46.17944" lon="4.51901">
        <ele>579.8</ele>
        <time>2020-10-17T12:26:05Z</time>
      </trkpt>
      <trkpt lat="46.17941" lon="4.51901">
        <ele>579.6</ele>
        <time>2020-10-17T12:26:06Z</time>
      </trkpt>
      <trkpt lat="46.17941" lon="4.51901">
        <ele>579.6</ele>
        <time>2020-10-17T12:26:07Z</time>
      </trkpt>
      <trkpt lat="46.17938" lon="4.51902">
        <ele>579.4</ele>
        <time>2020-10-17T12:26:08Z</time>
      </trkpt>
      <trkpt lat="46.17938" lon="4.51902">
        <ele>579.4</ele>
        <time>2020-10-17T12:26:09Z</time>
      </trkpt>
      <trkpt lat="46.17936" lon="4.51902">
        <ele>579.2</ele>
        <time>2020-10-17T12:26:10Z</time>
      </trkpt>
      <trkpt lat="46.17936" lon="4.51902">
        <ele>579</ele>
        <time>2020-10-17T12:26:11Z</time>
      </trkpt>
      <trkpt lat="46.17932" lon="4.51903">
        <ele>578.8</ele>
        <time>2020-10-17T12:26:12Z</time>
      </trkpt>
      <trkpt lat="46.17932" lon="4.51903">
        <ele>578.6</ele>
        <time>2020-10-17T12:26:13Z</time>
      </trkpt>
      <trkpt lat="46.17929" lon="4.51904">
        <ele>578.6</ele>
        <time>2020-10-17T12:26:14Z</time>
      </trkpt>
      <trkpt lat="46.17929" lon="4.51904">
        <ele>578.6</ele>
        <time>2020-10-17T12:26:15Z</time>
      </trkpt>
      <trkpt lat="46.17927" lon="4.51905">
        <ele>578.4</ele>
        <time>2020-10-17T12:26:16Z</time>
      </trkpt>
      <trkpt lat="46.17927" lon="4.51905">
        <ele>578.2</ele>
        <time>2020-10-17T12:26:17Z</time>
      </trkpt>
      <trkpt lat="46.17927" lon="4.51905">
        <ele>578.2</ele>
        <time>2020-10-17T12:26:18Z</time>
      </trkpt>
      <trkpt lat="46.17926" lon="4.51908">
        <ele>578.2</ele>
        <time>2020-10-17T12:26:19Z</time>
      </trkpt>
      <trkpt lat="46.17926" lon="4.51908">
        <ele>578.6</ele>
        <time>2020-10-17T12:26:20Z</time>
      </trkpt>
      <trkpt lat="46.17925" lon="4.51911">
        <ele>578.6</ele>
        <time>2020-10-17T12:26:21Z</time>
      </trkpt>
      <trkpt lat="46.17925" lon="4.51911">
        <ele>578.6</ele>
        <time>2020-10-17T12:26:22Z</time>
      </trkpt>
      <trkpt lat="46.17924" lon="4.51914">
        <ele>578.6</ele>
        <time>2020-10-17T12:26:23Z</time>
      </trkpt>
      <trkpt lat="46.17924" lon="4.51914">
        <ele>578.8</ele>
        <time>2020-10-17T12:26:24Z</time>
      </trkpt>
      <trkpt lat="46.17923" lon="4.51916">
        <ele>579.2</ele>
        <time>2020-10-17T12:26:25Z</time>
      </trkpt>
      <trkpt lat="46.17923" lon="4.51916">
        <ele>579.6</ele>
        <time>2020-10-17T12:26:26Z</time>
      </trkpt>
      <trkpt lat="46.17921" lon="4.51919">
        <ele>579.6</ele>
        <time>2020-10-17T12:26:27Z</time>
      </trkpt>
      <trkpt lat="46.17921" lon="4.51919">
        <ele>579.6</ele>
        <time>2020-10-17T12:26:28Z</time>
      </trkpt>
      <trkpt lat="46.17919" lon="4.5192">
        <ele>579.8</ele>
        <time>2020-10-17T12:26:29Z</time>
      </trkpt>
      <trkpt lat="46.17919" lon="4.5192">
        <ele>579.8</ele>
        <time>2020-10-17T12:26:30Z</time>
      </trkpt>
      <trkpt lat="46.17919" lon="4.5192">
        <ele>580</ele>
        <time>2020-10-17T12:26:31Z</time>
      </trkpt>
      <trkpt lat="46.17919" lon="4.5192">
        <ele>580.2</ele>
        <time>2020-10-17T12:26:32Z</time>
      </trkpt>
      <trkpt lat="46.17918" lon="4.51922">
        <ele>580.6</ele>
        <time>2020-10-17T12:26:33Z</time>
      </trkpt>
      <trkpt lat="46.17918" lon="4.51922">
        <ele>580.8</ele>
        <time>2020-10-17T12:26:34Z</time>
      </trkpt>
      <trkpt lat="46.17916" lon="4.51925">
        <ele>581</ele>
        <time>2020-10-17T12:26:35Z</time>
      </trkpt>
      <trkpt lat="46.17916" lon="4.51925">
        <ele>581</ele>
        <time>2020-10-17T12:26:36Z</time>
      </trkpt>
      <trkpt lat="46.17915" lon="4.51929">
        <ele>581.2</ele>
        <time>2020-10-17T12:26:37Z</time>
      </trkpt>
      <trkpt lat="46.17915" lon="4.51929">
        <ele>581.2</ele>
        <time>2020-10-17T12:26:38Z</time>
      </trkpt>
      <trkpt lat="46.17913" lon="4.51932">
        <ele>581.4</ele>
        <time>2020-10-17T12:26:39Z</time>
      </trkpt>
      <trkpt lat="46.17913" lon="4.51932">
        <ele>581.6</ele>
        <time>2020-10-17T12:26:40Z</time>
      </trkpt>
      <trkpt lat="46.17911" lon="4.51935">
        <ele>581.8</ele>
        <time>2020-10-17T12:26:41Z</time>
      </trkpt>
      <trkpt lat="46.17911" lon="4.51935">
        <ele>581.8</ele>
        <time>2020-10-17T12:26:42Z</time>
      </trkpt>
      <trkpt lat="46.17909" lon="4.51938">
        <ele>582</ele>
        <time>2020-10-17T12:26:43Z</time>
      </trkpt>
      <trkpt lat="46.17909" lon="4.51938">
        <ele>582.2</ele>
        <time>2020-10-17T12:26:44Z</time>
      </trkpt>
      <trkpt lat="46.17907" lon="4.51941">
        <ele>582.4</ele>
        <time>2020-10-17T12:26:45Z</time>
      </trkpt>
      <trkpt lat="46.17907" lon="4.51941">
        <ele>582.4</ele>
        <time>2020-10-17T12:26:46Z</time>
      </trkpt>
      <trkpt lat="46.17905" lon="4.51944">
        <ele>582.4</ele>
        <time>2020-10-17T12:26:47Z</time>
      </trkpt>
      <trkpt lat="46.17905" lon="4.51944">
        <ele>582.6</ele>
        <time>2020-10-17T12:26:48Z</time>
      </trkpt>
      <trkpt lat="46.17903" lon="4.51947">
        <ele>582.8</ele>
        <time>2020-10-17T12:26:49Z</time>
      </trkpt>
      <trkpt lat="46.17903" lon="4.51947">
        <ele>582.8</ele>
        <time>2020-10-17T12:26:50Z</time>
      </trkpt>
      <trkpt lat="46.17901" lon="4.51951">
        <ele>583.2</ele>
        <time>2020-10-17T12:26:51Z</time>
      </trkpt>
      <trkpt lat="46.17901" lon="4.51951">
        <ele>583</ele>
        <time>2020-10-17T12:26:52Z</time>
      </trkpt>
      <trkpt lat="46.17899" lon="4.51954">
        <ele>583.2</ele>
        <time>2020-10-17T12:26:53Z</time>
      </trkpt>
      <trkpt lat="46.17899" lon="4.51954">
        <ele>583.4</ele>
        <time>2020-10-17T12:26:54Z</time>
      </trkpt>
      <trkpt lat="46.17898" lon="4.51957">
        <ele>583.4</ele>
        <time>2020-10-17T12:26:55Z</time>
      </trkpt>
      <trkpt lat="46.17898" lon="4.51957">
        <ele>583.6</ele>
        <time>2020-10-17T12:26:56Z</time>
      </trkpt>
      <trkpt lat="46.17896" lon="4.51961">
        <ele>583.8</ele>
        <time>2020-10-17T12:26:57Z</time>
      </trkpt>
      <trkpt lat="46.17896" lon="4.51961">
        <ele>583.8</ele>
        <time>2020-10-17T12:26:58Z</time>
      </trkpt>
      <trkpt lat="46.17894" lon="4.51964">
        <ele>584</ele>
        <time>2020-10-17T12:26:59Z</time>
      </trkpt>
      <trkpt lat="46.17894" lon="4.51964">
        <ele>584</ele>
        <time>2020-10-17T12:27:00Z</time>
      </trkpt>
      <trkpt lat="46.17893" lon="4.51968">
        <ele>584</ele>
        <time>2020-10-17T12:27:01Z</time>
      </trkpt>
      <trkpt lat="46.17893" lon="4.51968">
        <ele>583.8</ele>
        <time>2020-10-17T12:27:02Z</time>
      </trkpt>
      <trkpt lat="46.17891" lon="4.51971">
        <ele>583.8</ele>
        <time>2020-10-17T12:27:03Z</time>
      </trkpt>
      <trkpt lat="46.17891" lon="4.51971">
        <ele>583.8</ele>
        <time>2020-10-17T12:27:04Z</time>
      </trkpt>
      <trkpt lat="46.17889" lon="4.51975">
        <ele>583.8</ele>
        <time>2020-10-17T12:27:05Z</time>
      </trkpt>
      <trkpt lat="46.17889" lon="4.51975">
        <ele>584</ele>
        <time>2020-10-17T12:27:06Z</time>
      </trkpt>
      <trkpt lat="46.17887" lon="4.51978">
        <ele>584</ele>
        <time>2020-10-17T12:27:07Z</time>
      </trkpt>
      <trkpt lat="46.17887" lon="4.51978">
        <ele>584.4</ele>
        <time>2020-10-17T12:27:08Z</time>
      </trkpt>
      <trkpt lat="46.17885" lon="4.51982">
        <ele>584.4</ele>
        <time>2020-10-17T12:27:09Z</time>
      </trkpt>
      <trkpt lat="46.17885" lon="4.51982">
        <ele>584.4</ele>
        <time>2020-10-17T12:27:10Z</time>
      </trkpt>
      <trkpt lat="46.17883" lon="4.51985">
        <ele>584.4</ele>
        <time>2020-10-17T12:27:11Z</time>
      </trkpt>
      <trkpt lat="46.17883" lon="4.51985">
        <ele>584.6</ele>
        <time>2020-10-17T12:27:12Z</time>
      </trkpt>
      <trkpt lat="46.17881" lon="4.51989">
        <ele>584.6</ele>
        <time>2020-10-17T12:27:13Z</time>
      </trkpt>
      <trkpt lat="46.17881" lon="4.51989">
        <ele>584.8</ele>
        <time>2020-10-17T12:27:14Z</time>
      </trkpt>
      <trkpt lat="46.17879" lon="4.51993">
        <ele>584.8</ele>
        <time>2020-10-17T12:27:15Z</time>
      </trkpt>
      <trkpt lat="46.17879" lon="4.51993">
        <ele>584.8</ele>
        <time>2020-10-17T12:27:16Z</time>
      </trkpt>
      <trkpt lat="46.17877" lon="4.51996">
        <ele>585</ele>
        <time>2020-10-17T12:27:17Z</time>
      </trkpt>
      <trkpt lat="46.17877" lon="4.51996">
        <ele>584.8</ele>
        <time>2020-10-17T12:27:18Z</time>
      </trkpt>
      <trkpt lat="46.17875" lon="4.52">
        <ele>584.8</ele>
        <time>2020-10-17T12:27:19Z</time>
      </trkpt>
      <trkpt lat="46.17875" lon="4.52">
        <ele>585</ele>
        <time>2020-10-17T12:27:20Z</time>
      </trkpt>
      <trkpt lat="46.17873" lon="4.52003">
        <ele>585.2</ele>
        <time>2020-10-17T12:27:21Z</time>
      </trkpt>
      <trkpt lat="46.17873" lon="4.52003">
        <ele>585.4</ele>
        <time>2020-10-17T12:27:22Z</time>
      </trkpt>
      <trkpt lat="46.17871" lon="4.52006">
        <ele>585.4</ele>
        <time>2020-10-17T12:27:23Z</time>
      </trkpt>
      <trkpt lat="46.17871" lon="4.52006">
        <ele>585.4</ele>
        <time>2020-10-17T12:27:24Z</time>
      </trkpt>
      <trkpt lat="46.1787" lon="4.5201">
        <ele>585.4</ele>
        <time>2020-10-17T12:27:25Z</time>
      </trkpt>
      <trkpt lat="46.1787" lon="4.5201">
        <ele>585.4</ele>
        <time>2020-10-17T12:27:26Z</time>
      </trkpt>
      <trkpt lat="46.17868" lon="4.52013">
        <ele>585.6</ele>
        <time>2020-10-17T12:27:27Z</time>
      </trkpt>
      <trkpt lat="46.17868" lon="4.52013">
        <ele>585.8</ele>
        <time>2020-10-17T12:27:28Z</time>
      </trkpt>
      <trkpt lat="46.17866" lon="4.52017">
        <ele>586.2</ele>
        <time>2020-10-17T12:27:29Z</time>
      </trkpt>
      <trkpt lat="46.17866" lon="4.52017">
        <ele>586.4</ele>
        <time>2020-10-17T12:27:30Z</time>
      </trkpt>
      <trkpt lat="46.17864" lon="4.5202">
        <ele>586.6</ele>
        <time>2020-10-17T12:27:31Z</time>
      </trkpt>
      <trkpt lat="46.17864" lon="4.5202">
        <ele>586.4</ele>
        <time>2020-10-17T12:27:32Z</time>
      </trkpt>
      <trkpt lat="46.17862" lon="4.52024">
        <ele>586.6</ele>
        <time>2020-10-17T12:27:33Z</time>
      </trkpt>
      <trkpt lat="46.17862" lon="4.52024">
        <ele>586.6</ele>
        <time>2020-10-17T12:27:34Z</time>
      </trkpt>
      <trkpt lat="46.1786" lon="4.52028">
        <ele>586.4</ele>
        <time>2020-10-17T12:27:35Z</time>
      </trkpt>
      <trkpt lat="46.1786" lon="4.52028">
        <ele>586.4</ele>
        <time>2020-10-17T12:27:36Z</time>
      </trkpt>
      <trkpt lat="46.17858" lon="4.52031">
        <ele>586.6</ele>
        <time>2020-10-17T12:27:37Z</time>
      </trkpt>
      <trkpt lat="46.17858" lon="4.52031">
        <ele>586.6</ele>
        <time>2020-10-17T12:27:38Z</time>
      </trkpt>
      <trkpt lat="46.17856" lon="4.52034">
        <ele>586.6</ele>
        <time>2020-10-17T12:27:39Z</time>
      </trkpt>
      <trkpt lat="46.17856" lon="4.52034">
        <ele>587</ele>
        <time>2020-10-17T12:27:40Z</time>
      </trkpt>
      <trkpt lat="46.17854" lon="4.52038">
        <ele>587.2</ele>
        <time>2020-10-17T12:27:41Z</time>
      </trkpt>
      <trkpt lat="46.17854" lon="4.52038">
        <ele>587.2</ele>
        <time>2020-10-17T12:27:42Z</time>
      </trkpt>
      <trkpt lat="46.17851" lon="4.52041">
        <ele>587.6</ele>
        <time>2020-10-17T12:27:43Z</time>
      </trkpt>
      <trkpt lat="46.17851" lon="4.52041">
        <ele>587.8</ele>
        <time>2020-10-17T12:27:44Z</time>
      </trkpt>
      <trkpt lat="46.1785" lon="4.52045">
        <ele>587.8</ele>
        <time>2020-10-17T12:27:45Z</time>
      </trkpt>
      <trkpt lat="46.1785" lon="4.52045">
        <ele>587.8</ele>
        <time>2020-10-17T12:27:46Z</time>
      </trkpt>
      <trkpt lat="46.17848" lon="4.52049">
        <ele>587.6</ele>
        <time>2020-10-17T12:27:47Z</time>
      </trkpt>
      <trkpt lat="46.17848" lon="4.52049">
        <ele>587.6</ele>
        <time>2020-10-17T12:27:48Z</time>
      </trkpt>
      <trkpt lat="46.17846" lon="4.52053">
        <ele>587.6</ele>
        <time>2020-10-17T12:27:49Z</time>
      </trkpt>
      <trkpt lat="46.17846" lon="4.52053">
        <ele>587.6</ele>
        <time>2020-10-17T12:27:50Z</time>
      </trkpt>
      <trkpt lat="46.17844" lon="4.52056">
        <ele>587.6</ele>
        <time>2020-10-17T12:27:51Z</time>
      </trkpt>
      <trkpt lat="46.17844" lon="4.52056">
        <ele>587.8</ele>
        <time>2020-10-17T12:27:52Z</time>
      </trkpt>
      <trkpt lat="46.17842" lon="4.5206">
        <ele>588</ele>
        <time>2020-10-17T12:27:53Z</time>
      </trkpt>
      <trkpt lat="46.17842" lon="4.5206">
        <ele>588.2</ele>
        <time>2020-10-17T12:27:54Z</time>
      </trkpt>
      <trkpt lat="46.17841" lon="4.52063">
        <ele>588.2</ele>
        <time>2020-10-17T12:27:55Z</time>
      </trkpt>
      <trkpt lat="46.17841" lon="4.52063">
        <ele>588.6</ele>
        <time>2020-10-17T12:27:56Z</time>
      </trkpt>
      <trkpt lat="46.17839" lon="4.52067">
        <ele>588.6</ele>
        <time>2020-10-17T12:27:57Z</time>
      </trkpt>
      <trkpt lat="46.17839" lon="4.52067">
        <ele>588.8</ele>
        <time>2020-10-17T12:27:58Z</time>
      </trkpt>
      <trkpt lat="46.17837" lon="4.5207">
        <ele>588.6</ele>
        <time>2020-10-17T12:27:59Z</time>
      </trkpt>
      <trkpt lat="46.17836" lon="4.52072">
        <ele>588.8</ele>
        <time>2020-10-17T12:28:00Z</time>
      </trkpt>
      <trkpt lat="46.17836" lon="4.52072">
        <ele>588.8</ele>
        <time>2020-10-17T12:28:01Z</time>
      </trkpt>
      <trkpt lat="46.17834" lon="4.52077">
        <ele>589.2</ele>
        <time>2020-10-17T12:28:02Z</time>
      </trkpt>
      <trkpt lat="46.17833" lon="4.52079">
        <ele>589.4</ele>
        <time>2020-10-17T12:28:03Z</time>
      </trkpt>
      <trkpt lat="46.17832" lon="4.52081">
        <ele>589.4</ele>
        <time>2020-10-17T12:28:04Z</time>
      </trkpt>
      <trkpt lat="46.1783" lon="4.52083">
        <ele>589.6</ele>
        <time>2020-10-17T12:28:05Z</time>
      </trkpt>
      <trkpt lat="46.1783" lon="4.52086">
        <ele>589.8</ele>
        <time>2020-10-17T12:28:06Z</time>
      </trkpt>
      <trkpt lat="46.1783" lon="4.52086">
        <ele>589.6</ele>
        <time>2020-10-17T12:28:07Z</time>
      </trkpt>
      <trkpt lat="46.17827" lon="4.52089">
        <ele>589.6</ele>
        <time>2020-10-17T12:28:08Z</time>
      </trkpt>
      <trkpt lat="46.17827" lon="4.52089">
        <ele>589.8</ele>
        <time>2020-10-17T12:28:09Z</time>
      </trkpt>
      <trkpt lat="46.17826" lon="4.52093">
        <ele>589.8</ele>
        <time>2020-10-17T12:28:10Z</time>
      </trkpt>
      <trkpt lat="46.17826" lon="4.52093">
        <ele>589.8</ele>
        <time>2020-10-17T12:28:11Z</time>
      </trkpt>
      <trkpt lat="46.17823" lon="4.52096">
        <ele>589.8</ele>
        <time>2020-10-17T12:28:12Z</time>
      </trkpt>
      <trkpt lat="46.17823" lon="4.52096">
        <ele>589.8</ele>
        <time>2020-10-17T12:28:13Z</time>
      </trkpt>
      <trkpt lat="46.17821" lon="4.521">
        <ele>590.2</ele>
        <time>2020-10-17T12:28:14Z</time>
      </trkpt>
      <trkpt lat="46.17821" lon="4.521">
        <ele>590.2</ele>
        <time>2020-10-17T12:28:15Z</time>
      </trkpt>
      <trkpt lat="46.17819" lon="4.52103">
        <ele>590.2</ele>
        <time>2020-10-17T12:28:16Z</time>
      </trkpt>
      <trkpt lat="46.17819" lon="4.52103">
        <ele>590.2</ele>
        <time>2020-10-17T12:28:17Z</time>
      </trkpt>
      <trkpt lat="46.17817" lon="4.52107">
        <ele>590</ele>
        <time>2020-10-17T12:28:18Z</time>
      </trkpt>
      <trkpt lat="46.17817" lon="4.52107">
        <ele>590</ele>
        <time>2020-10-17T12:28:19Z</time>
      </trkpt>
      <trkpt lat="46.17815" lon="4.5211">
        <ele>590.2</ele>
        <time>2020-10-17T12:28:20Z</time>
      </trkpt>
      <trkpt lat="46.17815" lon="4.5211">
        <ele>590.4</ele>
        <time>2020-10-17T12:28:21Z</time>
      </trkpt>
      <trkpt lat="46.17814" lon="4.52112">
        <ele>590.6</ele>
        <time>2020-10-17T12:28:22Z</time>
      </trkpt>
      <trkpt lat="46.17814" lon="4.52112">
        <ele>590.8</ele>
        <time>2020-10-17T12:28:23Z</time>
      </trkpt>
      <trkpt lat="46.17812" lon="4.52115">
        <ele>591</ele>
        <time>2020-10-17T12:28:24Z</time>
      </trkpt>
      <trkpt lat="46.17812" lon="4.52115">
        <ele>591.2</ele>
        <time>2020-10-17T12:28:25Z</time>
      </trkpt>
      <trkpt lat="46.1781" lon="4.52117">
        <ele>591.6</ele>
        <time>2020-10-17T12:28:26Z</time>
      </trkpt>
      <trkpt lat="46.1781" lon="4.52117">
        <ele>591.6</ele>
        <time>2020-10-17T12:28:27Z</time>
      </trkpt>
      <trkpt lat="46.17808" lon="4.52119">
        <ele>591.8</ele>
        <time>2020-10-17T12:28:28Z</time>
      </trkpt>
      <trkpt lat="46.17808" lon="4.52119">
        <ele>591.8</ele>
        <time>2020-10-17T12:28:29Z</time>
      </trkpt>
      <trkpt lat="46.17806" lon="4.52121">
        <ele>592</ele>
        <time>2020-10-17T12:28:30Z</time>
      </trkpt>
      <trkpt lat="46.17806" lon="4.52121">
        <ele>592</ele>
        <time>2020-10-17T12:28:31Z</time>
      </trkpt>
      <trkpt lat="46.17805" lon="4.52124">
        <ele>592</ele>
        <time>2020-10-17T12:28:32Z</time>
      </trkpt>
      <trkpt lat="46.17805" lon="4.52124">
        <ele>592.2</ele>
        <time>2020-10-17T12:28:33Z</time>
      </trkpt>
      <trkpt lat="46.17803" lon="4.52128">
        <ele>592.4</ele>
        <time>2020-10-17T12:28:34Z</time>
      </trkpt>
      <trkpt lat="46.17803" lon="4.52128">
        <ele>592.6</ele>
        <time>2020-10-17T12:28:35Z</time>
      </trkpt>
      <trkpt lat="46.17802" lon="4.52131">
        <ele>592.8</ele>
        <time>2020-10-17T12:28:36Z</time>
      </trkpt>
      <trkpt lat="46.17802" lon="4.52131">
        <ele>592.8</ele>
        <time>2020-10-17T12:28:37Z</time>
      </trkpt>
      <trkpt lat="46.178" lon="4.52134">
        <ele>593</ele>
        <time>2020-10-17T12:28:38Z</time>
      </trkpt>
      <trkpt lat="46.178" lon="4.52134">
        <ele>593.2</ele>
        <time>2020-10-17T12:28:39Z</time>
      </trkpt>
      <trkpt lat="46.17798" lon="4.52138">
        <ele>593.4</ele>
        <time>2020-10-17T12:28:40Z</time>
      </trkpt>
      <trkpt lat="46.17798" lon="4.52138">
        <ele>593.6</ele>
        <time>2020-10-17T12:28:41Z</time>
      </trkpt>
      <trkpt lat="46.17796" lon="4.52142">
        <ele>593.6</ele>
        <time>2020-10-17T12:28:42Z</time>
      </trkpt>
      <trkpt lat="46.17796" lon="4.52142">
        <ele>593.6</ele>
        <time>2020-10-17T12:28:43Z</time>
      </trkpt>
      <trkpt lat="46.17794" lon="4.52145">
        <ele>593.8</ele>
        <time>2020-10-17T12:28:44Z</time>
      </trkpt>
      <trkpt lat="46.17794" lon="4.52145">
        <ele>593.8</ele>
        <time>2020-10-17T12:28:45Z</time>
      </trkpt>
      <trkpt lat="46.17792" lon="4.52148">
        <ele>593.8</ele>
        <time>2020-10-17T12:28:46Z</time>
      </trkpt>
      <trkpt lat="46.17792" lon="4.52148">
        <ele>594.2</ele>
        <time>2020-10-17T12:28:47Z</time>
      </trkpt>
      <trkpt lat="46.1779" lon="4.52151">
        <ele>594.4</ele>
        <time>2020-10-17T12:28:48Z</time>
      </trkpt>
      <trkpt lat="46.1779" lon="4.52151">
        <ele>594.4</ele>
        <time>2020-10-17T12:28:49Z</time>
      </trkpt>
      <trkpt lat="46.17788" lon="4.52154">
        <ele>594.6</ele>
        <time>2020-10-17T12:28:50Z</time>
      </trkpt>
      <trkpt lat="46.17788" lon="4.52154">
        <ele>595</ele>
        <time>2020-10-17T12:28:51Z</time>
      </trkpt>
      <trkpt lat="46.17787" lon="4.52158">
        <ele>595</ele>
        <time>2020-10-17T12:28:52Z</time>
      </trkpt>
      <trkpt lat="46.17787" lon="4.52158">
        <ele>595</ele>
        <time>2020-10-17T12:28:53Z</time>
      </trkpt>
      <trkpt lat="46.17785" lon="4.52161">
        <ele>595</ele>
        <time>2020-10-17T12:28:54Z</time>
      </trkpt>
      <trkpt lat="46.17785" lon="4.52161">
        <ele>594.8</ele>
        <time>2020-10-17T12:28:55Z</time>
      </trkpt>
      <trkpt lat="46.17783" lon="4.52164">
        <ele>594.6</ele>
        <time>2020-10-17T12:28:56Z</time>
      </trkpt>
      <trkpt lat="46.17783" lon="4.52164">
        <ele>594.6</ele>
        <time>2020-10-17T12:28:57Z</time>
      </trkpt>
      <trkpt lat="46.17782" lon="4.52168">
        <ele>594.4</ele>
        <time>2020-10-17T12:28:58Z</time>
      </trkpt>
      <trkpt lat="46.17781" lon="4.5217">
        <ele>594.4</ele>
        <time>2020-10-17T12:28:59Z</time>
      </trkpt>
      <trkpt lat="46.17781" lon="4.5217">
        <ele>594.4</ele>
        <time>2020-10-17T12:29:00Z</time>
      </trkpt>
      <trkpt lat="46.17779" lon="4.52174">
        <ele>594.4</ele>
        <time>2020-10-17T12:29:01Z</time>
      </trkpt>
      <trkpt lat="46.17779" lon="4.52174">
        <ele>594.4</ele>
        <time>2020-10-17T12:29:02Z</time>
      </trkpt>
      <trkpt lat="46.17777" lon="4.52177">
        <ele>594.6</ele>
        <time>2020-10-17T12:29:03Z</time>
      </trkpt>
      <trkpt lat="46.17776" lon="4.52179">
        <ele>594.6</ele>
        <time>2020-10-17T12:29:04Z</time>
      </trkpt>
      <trkpt lat="46.17774" lon="4.52181">
        <ele>594.8</ele>
        <time>2020-10-17T12:29:05Z</time>
      </trkpt>
      <trkpt lat="46.17773" lon="4.52183">
        <ele>595</ele>
        <time>2020-10-17T12:29:06Z</time>
      </trkpt>
      <trkpt lat="46.17771" lon="4.52185">
        <ele>595</ele>
        <time>2020-10-17T12:29:07Z</time>
      </trkpt>
      <trkpt lat="46.1777" lon="4.52188">
        <ele>595.2</ele>
        <time>2020-10-17T12:29:08Z</time>
      </trkpt>
      <trkpt lat="46.1777" lon="4.52188">
        <ele>595.4</ele>
        <time>2020-10-17T12:29:09Z</time>
      </trkpt>
      <trkpt lat="46.17768" lon="4.52191">
        <ele>595.8</ele>
        <time>2020-10-17T12:29:10Z</time>
      </trkpt>
      <trkpt lat="46.17768" lon="4.52191">
        <ele>596</ele>
        <time>2020-10-17T12:29:11Z</time>
      </trkpt>
      <trkpt lat="46.17765" lon="4.52195">
        <ele>596</ele>
        <time>2020-10-17T12:29:12Z</time>
      </trkpt>
      <trkpt lat="46.17764" lon="4.52197">
        <ele>595.8</ele>
        <time>2020-10-17T12:29:13Z</time>
      </trkpt>
      <trkpt lat="46.17764" lon="4.52197">
        <ele>596.2</ele>
        <time>2020-10-17T12:29:14Z</time>
      </trkpt>
      <trkpt lat="46.17761" lon="4.522">
        <ele>596.6</ele>
        <time>2020-10-17T12:29:15Z</time>
      </trkpt>
      <trkpt lat="46.1776" lon="4.52202">
        <ele>596.8</ele>
        <time>2020-10-17T12:29:16Z</time>
      </trkpt>
      <trkpt lat="46.1776" lon="4.52202">
        <ele>597</ele>
        <time>2020-10-17T12:29:17Z</time>
      </trkpt>
      <trkpt lat="46.17758" lon="4.52206">
        <ele>597.2</ele>
        <time>2020-10-17T12:29:18Z</time>
      </trkpt>
      <trkpt lat="46.17758" lon="4.52206">
        <ele>597.2</ele>
        <time>2020-10-17T12:29:19Z</time>
      </trkpt>
      <trkpt lat="46.17755" lon="4.5221">
        <ele>597.4</ele>
        <time>2020-10-17T12:29:20Z</time>
      </trkpt>
      <trkpt lat="46.17755" lon="4.5221">
        <ele>597.4</ele>
        <time>2020-10-17T12:29:21Z</time>
      </trkpt>
      <trkpt lat="46.17753" lon="4.52213">
        <ele>597.2</ele>
        <time>2020-10-17T12:29:22Z</time>
      </trkpt>
      <trkpt lat="46.17753" lon="4.52213">
        <ele>597.2</ele>
        <time>2020-10-17T12:29:23Z</time>
      </trkpt>
      <trkpt lat="46.17751" lon="4.52216">
        <ele>597.2</ele>
        <time>2020-10-17T12:29:24Z</time>
      </trkpt>
      <trkpt lat="46.17751" lon="4.52216">
        <ele>597.2</ele>
        <time>2020-10-17T12:29:25Z</time>
      </trkpt>
      <trkpt lat="46.17749" lon="4.5222">
        <ele>597.2</ele>
        <time>2020-10-17T12:29:26Z</time>
      </trkpt>
      <trkpt lat="46.17749" lon="4.5222">
        <ele>597.2</ele>
        <time>2020-10-17T12:29:27Z</time>
      </trkpt>
      <trkpt lat="46.17748" lon="4.52223">
        <ele>597.2</ele>
        <time>2020-10-17T12:29:28Z</time>
      </trkpt>
      <trkpt lat="46.17748" lon="4.52223">
        <ele>597.2</ele>
        <time>2020-10-17T12:29:29Z</time>
      </trkpt>
      <trkpt lat="46.17746" lon="4.52225">
        <ele>597.4</ele>
        <time>2020-10-17T12:29:30Z</time>
      </trkpt>
      <trkpt lat="46.17746" lon="4.52225">
        <ele>597.6</ele>
        <time>2020-10-17T12:29:31Z</time>
      </trkpt>
      <trkpt lat="46.17744" lon="4.52228">
        <ele>597.6</ele>
        <time>2020-10-17T12:29:32Z</time>
      </trkpt>
      <trkpt lat="46.17744" lon="4.52228">
        <ele>597.6</ele>
        <time>2020-10-17T12:29:33Z</time>
      </trkpt>
      <trkpt lat="46.17741" lon="4.52231">
        <ele>597.6</ele>
        <time>2020-10-17T12:29:34Z</time>
      </trkpt>
      <trkpt lat="46.17741" lon="4.52231">
        <ele>597.8</ele>
        <time>2020-10-17T12:29:35Z</time>
      </trkpt>
      <trkpt lat="46.17739" lon="4.52233">
        <ele>597.8</ele>
        <time>2020-10-17T12:29:36Z</time>
      </trkpt>
      <trkpt lat="46.17739" lon="4.52233">
        <ele>598</ele>
        <time>2020-10-17T12:29:37Z</time>
      </trkpt>
      <trkpt lat="46.17736" lon="4.52235">
        <ele>598</ele>
        <time>2020-10-17T12:29:38Z</time>
      </trkpt>
      <trkpt lat="46.17736" lon="4.52235">
        <ele>598.2</ele>
        <time>2020-10-17T12:29:39Z</time>
      </trkpt>
      <trkpt lat="46.17735" lon="4.52238">
        <ele>598.4</ele>
        <time>2020-10-17T12:29:40Z</time>
      </trkpt>
      <trkpt lat="46.17735" lon="4.52238">
        <ele>598.4</ele>
        <time>2020-10-17T12:29:41Z</time>
      </trkpt>
      <trkpt lat="46.17732" lon="4.5224">
        <ele>598.6</ele>
        <time>2020-10-17T12:29:42Z</time>
      </trkpt>
      <trkpt lat="46.17732" lon="4.5224">
        <ele>598.8</ele>
        <time>2020-10-17T12:29:43Z</time>
      </trkpt>
      <trkpt lat="46.1773" lon="4.52243">
        <ele>598.8</ele>
        <time>2020-10-17T12:29:44Z</time>
      </trkpt>
      <trkpt lat="46.1773" lon="4.52243">
        <ele>599.2</ele>
        <time>2020-10-17T12:29:45Z</time>
      </trkpt>
      <trkpt lat="46.17728" lon="4.52246">
        <ele>599.4</ele>
        <time>2020-10-17T12:29:46Z</time>
      </trkpt>
      <trkpt lat="46.17728" lon="4.52246">
        <ele>599.6</ele>
        <time>2020-10-17T12:29:47Z</time>
      </trkpt>
      <trkpt lat="46.17726" lon="4.52249">
        <ele>600</ele>
        <time>2020-10-17T12:29:48Z</time>
      </trkpt>
      <trkpt lat="46.17726" lon="4.52249">
        <ele>600.4</ele>
        <time>2020-10-17T12:29:49Z</time>
      </trkpt>
      <trkpt lat="46.17724" lon="4.52251">
        <ele>600.6</ele>
        <time>2020-10-17T12:29:50Z</time>
      </trkpt>
      <trkpt lat="46.17724" lon="4.52251">
        <ele>600.6</ele>
        <time>2020-10-17T12:29:51Z</time>
      </trkpt>
      <trkpt lat="46.1772" lon="4.52253">
        <ele>600.4</ele>
        <time>2020-10-17T12:29:52Z</time>
      </trkpt>
      <trkpt lat="46.17719" lon="4.52254">
        <ele>600.6</ele>
        <time>2020-10-17T12:29:53Z</time>
      </trkpt>
      <trkpt lat="46.17717" lon="4.52256">
        <ele>600.8</ele>
        <time>2020-10-17T12:29:54Z</time>
      </trkpt>
      <trkpt lat="46.17715" lon="4.52257">
        <ele>601</ele>
        <time>2020-10-17T12:29:55Z</time>
      </trkpt>
      <trkpt lat="46.17715" lon="4.52257">
        <ele>601</ele>
        <time>2020-10-17T12:29:56Z</time>
      </trkpt>
      <trkpt lat="46.17712" lon="4.52259">
        <ele>601</ele>
        <time>2020-10-17T12:29:57Z</time>
      </trkpt>
      <trkpt lat="46.17711" lon="4.5226">
        <ele>601</ele>
        <time>2020-10-17T12:29:58Z</time>
      </trkpt>
      <trkpt lat="46.17711" lon="4.5226">
        <ele>601</ele>
        <time>2020-10-17T12:29:59Z</time>
      </trkpt>
      <trkpt lat="46.17708" lon="4.52262">
        <ele>601.2</ele>
        <time>2020-10-17T12:30:00Z</time>
      </trkpt>
      <trkpt lat="46.17706" lon="4.52264">
        <ele>601</ele>
        <time>2020-10-17T12:30:01Z</time>
      </trkpt>
      <trkpt lat="46.17706" lon="4.52264">
        <ele>601</ele>
        <time>2020-10-17T12:30:02Z</time>
      </trkpt>
      <trkpt lat="46.17703" lon="4.52266">
        <ele>601.2</ele>
        <time>2020-10-17T12:30:03Z</time>
      </trkpt>
      <trkpt lat="46.17703" lon="4.52266">
        <ele>601.2</ele>
        <time>2020-10-17T12:30:04Z</time>
      </trkpt>
      <trkpt lat="46.17701" lon="4.52269">
        <ele>601</ele>
        <time>2020-10-17T12:30:05Z</time>
      </trkpt>
      <trkpt lat="46.17701" lon="4.52269">
        <ele>601.2</ele>
        <time>2020-10-17T12:30:06Z</time>
      </trkpt>
      <trkpt lat="46.17698" lon="4.52272">
        <ele>601.2</ele>
        <time>2020-10-17T12:30:07Z</time>
      </trkpt>
      <trkpt lat="46.17698" lon="4.52272">
        <ele>601.2</ele>
        <time>2020-10-17T12:30:08Z</time>
      </trkpt>
      <trkpt lat="46.17695" lon="4.52275">
        <ele>601.2</ele>
        <time>2020-10-17T12:30:09Z</time>
      </trkpt>
      <trkpt lat="46.17695" lon="4.52275">
        <ele>601</ele>
        <time>2020-10-17T12:30:10Z</time>
      </trkpt>
      <trkpt lat="46.17693" lon="4.52276">
        <ele>601.2</ele>
        <time>2020-10-17T12:30:11Z</time>
      </trkpt>
      <trkpt lat="46.17693" lon="4.52276">
        <ele>601.4</ele>
        <time>2020-10-17T12:30:12Z</time>
      </trkpt>
      <trkpt lat="46.1769" lon="4.52278">
        <ele>601.6</ele>
        <time>2020-10-17T12:30:13Z</time>
      </trkpt>
      <trkpt lat="46.1769" lon="4.52278">
        <ele>601.8</ele>
        <time>2020-10-17T12:30:14Z</time>
      </trkpt>
      <trkpt lat="46.17688" lon="4.52281">
        <ele>602</ele>
        <time>2020-10-17T12:30:15Z</time>
      </trkpt>
      <trkpt lat="46.17686" lon="4.52282">
        <ele>601.8</ele>
        <time>2020-10-17T12:30:16Z</time>
      </trkpt>
      <trkpt lat="46.17684" lon="4.52284">
        <ele>602</ele>
        <time>2020-10-17T12:30:17Z</time>
      </trkpt>
      <trkpt lat="46.17684" lon="4.52284">
        <ele>602.2</ele>
        <time>2020-10-17T12:30:18Z</time>
      </trkpt>
      <trkpt lat="46.17681" lon="4.52286">
        <ele>602.2</ele>
        <time>2020-10-17T12:30:19Z</time>
      </trkpt>
      <trkpt lat="46.17681" lon="4.52286">
        <ele>602.2</ele>
        <time>2020-10-17T12:30:20Z</time>
      </trkpt>
      <trkpt lat="46.17679" lon="4.52288">
        <ele>602.2</ele>
        <time>2020-10-17T12:30:21Z</time>
      </trkpt>
      <trkpt lat="46.17679" lon="4.52288">
        <ele>602.4</ele>
        <time>2020-10-17T12:30:22Z</time>
      </trkpt>
      <trkpt lat="46.17676" lon="4.52291">
        <ele>602.4</ele>
        <time>2020-10-17T12:30:23Z</time>
      </trkpt>
      <trkpt lat="46.17676" lon="4.52291">
        <ele>602.4</ele>
        <time>2020-10-17T12:30:24Z</time>
      </trkpt>
      <trkpt lat="46.17673" lon="4.52293">
        <ele>602.4</ele>
        <time>2020-10-17T12:30:25Z</time>
      </trkpt>
      <trkpt lat="46.17673" lon="4.52293">
        <ele>602.8</ele>
        <time>2020-10-17T12:30:26Z</time>
      </trkpt>
      <trkpt lat="46.17671" lon="4.52296">
        <ele>602.8</ele>
        <time>2020-10-17T12:30:27Z</time>
      </trkpt>
      <trkpt lat="46.17671" lon="4.52296">
        <ele>603</ele>
        <time>2020-10-17T12:30:28Z</time>
      </trkpt>
      <trkpt lat="46.17669" lon="4.52298">
        <ele>603.4</ele>
        <time>2020-10-17T12:30:29Z</time>
      </trkpt>
      <trkpt lat="46.17669" lon="4.52298">
        <ele>603.6</ele>
        <time>2020-10-17T12:30:30Z</time>
      </trkpt>
      <trkpt lat="46.17666" lon="4.52301">
        <ele>604</ele>
        <time>2020-10-17T12:30:31Z</time>
      </trkpt>
      <trkpt lat="46.17666" lon="4.52301">
        <ele>603.8</ele>
        <time>2020-10-17T12:30:32Z</time>
      </trkpt>
      <trkpt lat="46.17664" lon="4.52304">
        <ele>604.2</ele>
        <time>2020-10-17T12:30:33Z</time>
      </trkpt>
      <trkpt lat="46.17664" lon="4.52304">
        <ele>604.2</ele>
        <time>2020-10-17T12:30:34Z</time>
      </trkpt>
      <trkpt lat="46.17662" lon="4.52307">
        <ele>604.2</ele>
        <time>2020-10-17T12:30:35Z</time>
      </trkpt>
      <trkpt lat="46.17662" lon="4.52307">
        <ele>604.2</ele>
        <time>2020-10-17T12:30:36Z</time>
      </trkpt>
      <trkpt lat="46.17661" lon="4.52311">
        <ele>604.4</ele>
        <time>2020-10-17T12:30:37Z</time>
      </trkpt>
      <trkpt lat="46.17661" lon="4.52311">
        <ele>604.4</ele>
        <time>2020-10-17T12:30:38Z</time>
      </trkpt>
      <trkpt lat="46.17659" lon="4.52314">
        <ele>604.4</ele>
        <time>2020-10-17T12:30:39Z</time>
      </trkpt>
      <trkpt lat="46.17659" lon="4.52314">
        <ele>604.4</ele>
        <time>2020-10-17T12:30:40Z</time>
      </trkpt>
      <trkpt lat="46.17657" lon="4.52317">
        <ele>604.4</ele>
        <time>2020-10-17T12:30:41Z</time>
      </trkpt>
      <trkpt lat="46.17657" lon="4.52317">
        <ele>604.4</ele>
        <time>2020-10-17T12:30:42Z</time>
      </trkpt>
      <trkpt lat="46.17656" lon="4.52319">
        <ele>604.6</ele>
        <time>2020-10-17T12:30:43Z</time>
      </trkpt>
      <trkpt lat="46.17656" lon="4.52319">
        <ele>605</ele>
        <time>2020-10-17T12:30:44Z</time>
      </trkpt>
      <trkpt lat="46.17653" lon="4.52322">
        <ele>605.2</ele>
        <time>2020-10-17T12:30:45Z</time>
      </trkpt>
      <trkpt lat="46.17653" lon="4.52322">
        <ele>605.4</ele>
        <time>2020-10-17T12:30:46Z</time>
      </trkpt>
      <trkpt lat="46.17651" lon="4.52325">
        <ele>605.4</ele>
        <time>2020-10-17T12:30:47Z</time>
      </trkpt>
      <trkpt lat="46.1765" lon="4.52327">
        <ele>605.4</ele>
        <time>2020-10-17T12:30:48Z</time>
      </trkpt>
      <trkpt lat="46.17648" lon="4.52329">
        <ele>605.6</ele>
        <time>2020-10-17T12:30:49Z</time>
      </trkpt>
      <trkpt lat="46.17648" lon="4.52329">
        <ele>605.6</ele>
        <time>2020-10-17T12:30:50Z</time>
      </trkpt>
      <trkpt lat="46.17647" lon="4.52331">
        <ele>606</ele>
        <time>2020-10-17T12:30:51Z</time>
      </trkpt>
      <trkpt lat="46.17647" lon="4.52331">
        <ele>606.8</ele>
        <time>2020-10-17T12:30:52Z</time>
      </trkpt>
      <trkpt lat="46.17644" lon="4.52334">
        <ele>607.2</ele>
        <time>2020-10-17T12:30:53Z</time>
      </trkpt>
      <trkpt lat="46.17644" lon="4.52334">
        <ele>607.2</ele>
        <time>2020-10-17T12:30:54Z</time>
      </trkpt>
      <trkpt lat="46.17642" lon="4.52337">
        <ele>607</ele>
        <time>2020-10-17T12:30:55Z</time>
      </trkpt>
      <trkpt lat="46.17642" lon="4.52337">
        <ele>606.8</ele>
        <time>2020-10-17T12:30:56Z</time>
      </trkpt>
      <trkpt lat="46.1764" lon="4.5234">
        <ele>607</ele>
        <time>2020-10-17T12:30:57Z</time>
      </trkpt>
      <trkpt lat="46.1764" lon="4.5234">
        <ele>607.2</ele>
        <time>2020-10-17T12:30:58Z</time>
      </trkpt>
      <trkpt lat="46.17638" lon="4.52344">
        <ele>607.2</ele>
        <time>2020-10-17T12:30:59Z</time>
      </trkpt>
      <trkpt lat="46.17636" lon="4.52345">
        <ele>607.2</ele>
        <time>2020-10-17T12:31:00Z</time>
      </trkpt>
      <trkpt lat="46.17636" lon="4.52345">
        <ele>607.2</ele>
        <time>2020-10-17T12:31:01Z</time>
      </trkpt>
      <trkpt lat="46.17633" lon="4.52348">
        <ele>607.4</ele>
        <time>2020-10-17T12:31:02Z</time>
      </trkpt>
      <trkpt lat="46.17633" lon="4.52348">
        <ele>607.4</ele>
        <time>2020-10-17T12:31:03Z</time>
      </trkpt>
      <trkpt lat="46.17631" lon="4.52351">
        <ele>607.4</ele>
        <time>2020-10-17T12:31:04Z</time>
      </trkpt>
      <trkpt lat="46.17631" lon="4.52351">
        <ele>607.6</ele>
        <time>2020-10-17T12:31:05Z</time>
      </trkpt>
      <trkpt lat="46.17629" lon="4.52354">
        <ele>608</ele>
        <time>2020-10-17T12:31:06Z</time>
      </trkpt>
      <trkpt lat="46.17629" lon="4.52354">
        <ele>608</ele>
        <time>2020-10-17T12:31:07Z</time>
      </trkpt>
      <trkpt lat="46.17627" lon="4.52356">
        <ele>608</ele>
        <time>2020-10-17T12:31:08Z</time>
      </trkpt>
      <trkpt lat="46.17627" lon="4.52356">
        <ele>608.2</ele>
        <time>2020-10-17T12:31:09Z</time>
      </trkpt>
      <trkpt lat="46.17625" lon="4.52359">
        <ele>608.4</ele>
        <time>2020-10-17T12:31:10Z</time>
      </trkpt>
      <trkpt lat="46.17625" lon="4.52359">
        <ele>608.6</ele>
        <time>2020-10-17T12:31:11Z</time>
      </trkpt>
      <trkpt lat="46.17623" lon="4.52361">
        <ele>608.6</ele>
        <time>2020-10-17T12:31:12Z</time>
      </trkpt>
      <trkpt lat="46.17623" lon="4.52361">
        <ele>608.6</ele>
        <time>2020-10-17T12:31:13Z</time>
      </trkpt>
      <trkpt lat="46.17621" lon="4.52364">
        <ele>608.6</ele>
        <time>2020-10-17T12:31:14Z</time>
      </trkpt>
      <trkpt lat="46.17621" lon="4.52364">
        <ele>608.6</ele>
        <time>2020-10-17T12:31:15Z</time>
      </trkpt>
      <trkpt lat="46.1762" lon="4.52368">
        <ele>608.6</ele>
        <time>2020-10-17T12:31:16Z</time>
      </trkpt>
      <trkpt lat="46.1762" lon="4.52368">
        <ele>608.6</ele>
        <time>2020-10-17T12:31:17Z</time>
      </trkpt>
      <trkpt lat="46.17618" lon="4.52371">
        <ele>608.6</ele>
        <time>2020-10-17T12:31:18Z</time>
      </trkpt>
      <trkpt lat="46.17618" lon="4.52371">
        <ele>609.2</ele>
        <time>2020-10-17T12:31:19Z</time>
      </trkpt>
      <trkpt lat="46.17617" lon="4.52374">
        <ele>609.2</ele>
        <time>2020-10-17T12:31:20Z</time>
      </trkpt>
      <trkpt lat="46.17617" lon="4.52374">
        <ele>609.6</ele>
        <time>2020-10-17T12:31:21Z</time>
      </trkpt>
      <trkpt lat="46.17615" lon="4.52377">
        <ele>609.8</ele>
        <time>2020-10-17T12:31:22Z</time>
      </trkpt>
      <trkpt lat="46.17615" lon="4.52377">
        <ele>610</ele>
        <time>2020-10-17T12:31:23Z</time>
      </trkpt>
      <trkpt lat="46.17612" lon="4.5238">
        <ele>610</ele>
        <time>2020-10-17T12:31:24Z</time>
      </trkpt>
      <trkpt lat="46.17612" lon="4.5238">
        <ele>610</ele>
        <time>2020-10-17T12:31:25Z</time>
      </trkpt>
      <trkpt lat="46.1761" lon="4.52383">
        <ele>610</ele>
        <time>2020-10-17T12:31:26Z</time>
      </trkpt>
      <trkpt lat="46.1761" lon="4.52383">
        <ele>610.2</ele>
        <time>2020-10-17T12:31:27Z</time>
      </trkpt>
      <trkpt lat="46.17608" lon="4.52386">
        <ele>610.2</ele>
        <time>2020-10-17T12:31:28Z</time>
      </trkpt>
      <trkpt lat="46.17608" lon="4.52386">
        <ele>610</ele>
        <time>2020-10-17T12:31:29Z</time>
      </trkpt>
      <trkpt lat="46.17606" lon="4.52389">
        <ele>610</ele>
        <time>2020-10-17T12:31:30Z</time>
      </trkpt>
      <trkpt lat="46.17606" lon="4.52389">
        <ele>610</ele>
        <time>2020-10-17T12:31:31Z</time>
      </trkpt>
      <trkpt lat="46.17603" lon="4.52392">
        <ele>610.2</ele>
        <time>2020-10-17T12:31:32Z</time>
      </trkpt>
      <trkpt lat="46.17603" lon="4.52392">
        <ele>610.4</ele>
        <time>2020-10-17T12:31:33Z</time>
      </trkpt>
      <trkpt lat="46.17601" lon="4.52394">
        <ele>610.6</ele>
        <time>2020-10-17T12:31:34Z</time>
      </trkpt>
      <trkpt lat="46.17601" lon="4.52394">
        <ele>610.6</ele>
        <time>2020-10-17T12:31:35Z</time>
      </trkpt>
      <trkpt lat="46.17599" lon="4.52396">
        <ele>610.8</ele>
        <time>2020-10-17T12:31:36Z</time>
      </trkpt>
      <trkpt lat="46.17599" lon="4.52396">
        <ele>611</ele>
        <time>2020-10-17T12:31:37Z</time>
      </trkpt>
      <trkpt lat="46.17599" lon="4.52396">
        <ele>611.4</ele>
        <time>2020-10-17T12:31:38Z</time>
      </trkpt>
      <trkpt lat="46.17596" lon="4.52401">
        <ele>611.4</ele>
        <time>2020-10-17T12:31:39Z</time>
      </trkpt>
      <trkpt lat="46.17594" lon="4.52403">
        <ele>611.2</ele>
        <time>2020-10-17T12:31:40Z</time>
      </trkpt>
      <trkpt lat="46.17593" lon="4.52404">
        <ele>611.6</ele>
        <time>2020-10-17T12:31:41Z</time>
      </trkpt>
      <trkpt lat="46.17591" lon="4.52405">
        <ele>611.6</ele>
        <time>2020-10-17T12:31:42Z</time>
      </trkpt>
      <trkpt lat="46.1759" lon="4.52408">
        <ele>611.6</ele>
        <time>2020-10-17T12:31:43Z</time>
      </trkpt>
      <trkpt lat="46.17589" lon="4.5241">
        <ele>611.6</ele>
        <time>2020-10-17T12:31:44Z</time>
      </trkpt>
      <trkpt lat="46.17588" lon="4.52413">
        <ele>612</ele>
        <time>2020-10-17T12:31:45Z</time>
      </trkpt>
      <trkpt lat="46.17588" lon="4.52413">
        <ele>612</ele>
        <time>2020-10-17T12:31:46Z</time>
      </trkpt>
      <trkpt lat="46.17586" lon="4.52417">
        <ele>612</ele>
        <time>2020-10-17T12:31:47Z</time>
      </trkpt>
      <trkpt lat="46.17586" lon="4.52417">
        <ele>612.2</ele>
        <time>2020-10-17T12:31:48Z</time>
      </trkpt>
      <trkpt lat="46.17584" lon="4.5242">
        <ele>612.4</ele>
        <time>2020-10-17T12:31:49Z</time>
      </trkpt>
      <trkpt lat="46.17584" lon="4.5242">
        <ele>612.6</ele>
        <time>2020-10-17T12:31:50Z</time>
      </trkpt>
      <trkpt lat="46.17581" lon="4.52424">
        <ele>612.8</ele>
        <time>2020-10-17T12:31:51Z</time>
      </trkpt>
      <trkpt lat="46.17581" lon="4.52424">
        <ele>612.8</ele>
        <time>2020-10-17T12:31:52Z</time>
      </trkpt>
      <trkpt lat="46.17579" lon="4.52427">
        <ele>613</ele>
        <time>2020-10-17T12:31:53Z</time>
      </trkpt>
      <trkpt lat="46.17579" lon="4.52427">
        <ele>613</ele>
        <time>2020-10-17T12:31:54Z</time>
      </trkpt>
      <trkpt lat="46.17578" lon="4.5243">
        <ele>613</ele>
        <time>2020-10-17T12:31:55Z</time>
      </trkpt>
      <trkpt lat="46.17578" lon="4.5243">
        <ele>613</ele>
        <time>2020-10-17T12:31:56Z</time>
      </trkpt>
      <trkpt lat="46.17576" lon="4.52434">
        <ele>613</ele>
        <time>2020-10-17T12:31:57Z</time>
      </trkpt>
      <trkpt lat="46.17575" lon="4.52436">
        <ele>613.2</ele>
        <time>2020-10-17T12:31:58Z</time>
      </trkpt>
      <trkpt lat="46.17575" lon="4.52436">
        <ele>613.2</ele>
        <time>2020-10-17T12:31:59Z</time>
      </trkpt>
      <trkpt lat="46.17573" lon="4.5244">
        <ele>613.4</ele>
        <time>2020-10-17T12:32:00Z</time>
      </trkpt>
      <trkpt lat="46.17573" lon="4.5244">
        <ele>613.4</ele>
        <time>2020-10-17T12:32:01Z</time>
      </trkpt>
      <trkpt lat="46.17572" lon="4.52444">
        <ele>613.6</ele>
        <time>2020-10-17T12:32:02Z</time>
      </trkpt>
      <trkpt lat="46.17572" lon="4.52444">
        <ele>613.6</ele>
        <time>2020-10-17T12:32:03Z</time>
      </trkpt>
      <trkpt lat="46.17571" lon="4.52448">
        <ele>614</ele>
        <time>2020-10-17T12:32:04Z</time>
      </trkpt>
      <trkpt lat="46.17571" lon="4.52448">
        <ele>614</ele>
        <time>2020-10-17T12:32:05Z</time>
      </trkpt>
      <trkpt lat="46.17571" lon="4.52452">
        <ele>614</ele>
        <time>2020-10-17T12:32:06Z</time>
      </trkpt>
      <trkpt lat="46.17571" lon="4.52452">
        <ele>614.2</ele>
        <time>2020-10-17T12:32:07Z</time>
      </trkpt>
      <trkpt lat="46.1757" lon="4.52455">
        <ele>614.4</ele>
        <time>2020-10-17T12:32:08Z</time>
      </trkpt>
      <trkpt lat="46.1757" lon="4.52455">
        <ele>614.4</ele>
        <time>2020-10-17T12:32:09Z</time>
      </trkpt>
      <trkpt lat="46.17569" lon="4.52459">
        <ele>614.2</ele>
        <time>2020-10-17T12:32:10Z</time>
      </trkpt>
      <trkpt lat="46.17568" lon="4.52462">
        <ele>614.4</ele>
        <time>2020-10-17T12:32:11Z</time>
      </trkpt>
      <trkpt lat="46.17568" lon="4.52465">
        <ele>614.4</ele>
        <time>2020-10-17T12:32:12Z</time>
      </trkpt>
      <trkpt lat="46.17567" lon="4.52468">
        <ele>614.8</ele>
        <time>2020-10-17T12:32:13Z</time>
      </trkpt>
      <trkpt lat="46.17567" lon="4.52468">
        <ele>615.2</ele>
        <time>2020-10-17T12:32:14Z</time>
      </trkpt>
      <trkpt lat="46.17566" lon="4.52472">
        <ele>615.2</ele>
        <time>2020-10-17T12:32:15Z</time>
      </trkpt>
      <trkpt lat="46.17566" lon="4.52472">
        <ele>615.4</ele>
        <time>2020-10-17T12:32:16Z</time>
      </trkpt>
      <trkpt lat="46.17565" lon="4.52477">
        <ele>615.4</ele>
        <time>2020-10-17T12:32:17Z</time>
      </trkpt>
      <trkpt lat="46.17565" lon="4.52477">
        <ele>615.4</ele>
        <time>2020-10-17T12:32:18Z</time>
      </trkpt>
      <trkpt lat="46.17563" lon="4.5248">
        <ele>615.6</ele>
        <time>2020-10-17T12:32:19Z</time>
      </trkpt>
      <trkpt lat="46.17563" lon="4.5248">
        <ele>616</ele>
        <time>2020-10-17T12:32:20Z</time>
      </trkpt>
      <trkpt lat="46.17562" lon="4.52483">
        <ele>616</ele>
        <time>2020-10-17T12:32:21Z</time>
      </trkpt>
      <trkpt lat="46.17562" lon="4.52483">
        <ele>616.2</ele>
        <time>2020-10-17T12:32:22Z</time>
      </trkpt>
      <trkpt lat="46.17561" lon="4.52487">
        <ele>616.2</ele>
        <time>2020-10-17T12:32:23Z</time>
      </trkpt>
      <trkpt lat="46.17561" lon="4.52487">
        <ele>616.4</ele>
        <time>2020-10-17T12:32:24Z</time>
      </trkpt>
      <trkpt lat="46.1756" lon="4.52491">
        <ele>616.6</ele>
        <time>2020-10-17T12:32:25Z</time>
      </trkpt>
      <trkpt lat="46.1756" lon="4.52491">
        <ele>616.8</ele>
        <time>2020-10-17T12:32:26Z</time>
      </trkpt>
      <trkpt lat="46.1756" lon="4.52495">
        <ele>616.8</ele>
        <time>2020-10-17T12:32:27Z</time>
      </trkpt>
      <trkpt lat="46.1756" lon="4.52495">
        <ele>616.8</ele>
        <time>2020-10-17T12:32:28Z</time>
      </trkpt>
      <trkpt lat="46.17559" lon="4.52498">
        <ele>617</ele>
        <time>2020-10-17T12:32:29Z</time>
      </trkpt>
      <trkpt lat="46.17559" lon="4.52498">
        <ele>617.2</ele>
        <time>2020-10-17T12:32:30Z</time>
      </trkpt>
      <trkpt lat="46.17559" lon="4.52503">
        <ele>617.2</ele>
        <time>2020-10-17T12:32:31Z</time>
      </trkpt>
      <trkpt lat="46.17559" lon="4.52506">
        <ele>617.4</ele>
        <time>2020-10-17T12:32:32Z</time>
      </trkpt>
      <trkpt lat="46.17559" lon="4.52506">
        <ele>617.8</ele>
        <time>2020-10-17T12:32:33Z</time>
      </trkpt>
      <trkpt lat="46.17559" lon="4.5251">
        <ele>618</ele>
        <time>2020-10-17T12:32:34Z</time>
      </trkpt>
      <trkpt lat="46.17559" lon="4.5251">
        <ele>617.8</ele>
        <time>2020-10-17T12:32:35Z</time>
      </trkpt>
      <trkpt lat="46.17558" lon="4.52515">
        <ele>618</ele>
        <time>2020-10-17T12:32:36Z</time>
      </trkpt>
      <trkpt lat="46.17558" lon="4.52515">
        <ele>618</ele>
        <time>2020-10-17T12:32:37Z</time>
      </trkpt>
      <trkpt lat="46.17558" lon="4.52519">
        <ele>618</ele>
        <time>2020-10-17T12:32:38Z</time>
      </trkpt>
      <trkpt lat="46.17558" lon="4.52519">
        <ele>618</ele>
        <time>2020-10-17T12:32:39Z</time>
      </trkpt>
      <trkpt lat="46.17558" lon="4.52523">
        <ele>618.2</ele>
        <time>2020-10-17T12:32:40Z</time>
      </trkpt>
      <trkpt lat="46.17558" lon="4.52523">
        <ele>618.2</ele>
        <time>2020-10-17T12:32:41Z</time>
      </trkpt>
      <trkpt lat="46.17559" lon="4.52528">
        <ele>618.2</ele>
        <time>2020-10-17T12:32:42Z</time>
      </trkpt>
      <trkpt lat="46.17559" lon="4.52528">
        <ele>618.2</ele>
        <time>2020-10-17T12:32:43Z</time>
      </trkpt>
      <trkpt lat="46.17559" lon="4.52533">
        <ele>618.4</ele>
        <time>2020-10-17T12:32:44Z</time>
      </trkpt>
      <trkpt lat="46.17559" lon="4.52533">
        <ele>618.6</ele>
        <time>2020-10-17T12:32:45Z</time>
      </trkpt>
      <trkpt lat="46.1756" lon="4.52537">
        <ele>619</ele>
        <time>2020-10-17T12:32:46Z</time>
      </trkpt>
      <trkpt lat="46.1756" lon="4.52537">
        <ele>619</ele>
        <time>2020-10-17T12:32:47Z</time>
      </trkpt>
      <trkpt lat="46.1756" lon="4.52541">
        <ele>619.2</ele>
        <time>2020-10-17T12:32:48Z</time>
      </trkpt>
      <trkpt lat="46.1756" lon="4.52541">
        <ele>619.2</ele>
        <time>2020-10-17T12:32:49Z</time>
      </trkpt>
      <trkpt lat="46.17561" lon="4.52545">
        <ele>619</ele>
        <time>2020-10-17T12:32:50Z</time>
      </trkpt>
      <trkpt lat="46.17561" lon="4.52545">
        <ele>619.2</ele>
        <time>2020-10-17T12:32:51Z</time>
      </trkpt>
      <trkpt lat="46.17561" lon="4.5255">
        <ele>619</ele>
        <time>2020-10-17T12:32:52Z</time>
      </trkpt>
      <trkpt lat="46.17561" lon="4.5255">
        <ele>619.4</ele>
        <time>2020-10-17T12:32:53Z</time>
      </trkpt>
      <trkpt lat="46.17561" lon="4.52553">
        <ele>619.2</ele>
        <time>2020-10-17T12:32:54Z</time>
      </trkpt>
      <trkpt lat="46.17561" lon="4.52553">
        <ele>619.2</ele>
        <time>2020-10-17T12:32:55Z</time>
      </trkpt>
      <trkpt lat="46.17562" lon="4.52558">
        <ele>619.4</ele>
        <time>2020-10-17T12:32:56Z</time>
      </trkpt>
      <trkpt lat="46.17562" lon="4.52558">
        <ele>619.4</ele>
        <time>2020-10-17T12:32:57Z</time>
      </trkpt>
      <trkpt lat="46.17563" lon="4.52562">
        <ele>619.6</ele>
        <time>2020-10-17T12:32:58Z</time>
      </trkpt>
      <trkpt lat="46.17563" lon="4.52562">
        <ele>619.4</ele>
        <time>2020-10-17T12:32:59Z</time>
      </trkpt>
      <trkpt lat="46.17564" lon="4.52566">
        <ele>619.4</ele>
        <time>2020-10-17T12:33:00Z</time>
      </trkpt>
      <trkpt lat="46.17564" lon="4.52566">
        <ele>619.8</ele>
        <time>2020-10-17T12:33:01Z</time>
      </trkpt>
      <trkpt lat="46.17564" lon="4.5257">
        <ele>619.8</ele>
        <time>2020-10-17T12:33:02Z</time>
      </trkpt>
      <trkpt lat="46.17564" lon="4.5257">
        <ele>620.2</ele>
        <time>2020-10-17T12:33:03Z</time>
      </trkpt>
      <trkpt lat="46.17565" lon="4.52574">
        <ele>620.4</ele>
        <time>2020-10-17T12:33:04Z</time>
      </trkpt>
      <trkpt lat="46.17565" lon="4.52574">
        <ele>620.4</ele>
        <time>2020-10-17T12:33:05Z</time>
      </trkpt>
      <trkpt lat="46.17565" lon="4.52578">
        <ele>620.6</ele>
        <time>2020-10-17T12:33:06Z</time>
      </trkpt>
      <trkpt lat="46.17565" lon="4.52578">
        <ele>620.4</ele>
        <time>2020-10-17T12:33:07Z</time>
      </trkpt>
      <trkpt lat="46.17565" lon="4.52582">
        <ele>620.4</ele>
        <time>2020-10-17T12:33:08Z</time>
      </trkpt>
      <trkpt lat="46.17565" lon="4.52582">
        <ele>620.4</ele>
        <time>2020-10-17T12:33:09Z</time>
      </trkpt>
      <trkpt lat="46.17566" lon="4.52586">
        <ele>620.6</ele>
        <time>2020-10-17T12:33:10Z</time>
      </trkpt>
      <trkpt lat="46.17566" lon="4.52586">
        <ele>620.6</ele>
        <time>2020-10-17T12:33:11Z</time>
      </trkpt>
      <trkpt lat="46.17567" lon="4.5259">
        <ele>620.8</ele>
        <time>2020-10-17T12:33:12Z</time>
      </trkpt>
      <trkpt lat="46.17567" lon="4.5259">
        <ele>621.2</ele>
        <time>2020-10-17T12:33:13Z</time>
      </trkpt>
      <trkpt lat="46.17568" lon="4.52594">
        <ele>621.6</ele>
        <time>2020-10-17T12:33:14Z</time>
      </trkpt>
      <trkpt lat="46.17568" lon="4.52594">
        <ele>622</ele>
        <time>2020-10-17T12:33:15Z</time>
      </trkpt>
      <trkpt lat="46.17569" lon="4.52597">
        <ele>622</ele>
        <time>2020-10-17T12:33:16Z</time>
      </trkpt>
      <trkpt lat="46.17569" lon="4.52597">
        <ele>622</ele>
        <time>2020-10-17T12:33:17Z</time>
      </trkpt>
      <trkpt lat="46.17569" lon="4.52601">
        <ele>622.2</ele>
        <time>2020-10-17T12:33:18Z</time>
      </trkpt>
      <trkpt lat="46.17569" lon="4.52601">
        <ele>622.2</ele>
        <time>2020-10-17T12:33:19Z</time>
      </trkpt>
      <trkpt lat="46.1757" lon="4.52606">
        <ele>622.4</ele>
        <time>2020-10-17T12:33:20Z</time>
      </trkpt>
      <trkpt lat="46.1757" lon="4.52606">
        <ele>622.8</ele>
        <time>2020-10-17T12:33:21Z</time>
      </trkpt>
      <trkpt lat="46.17571" lon="4.5261">
        <ele>623</ele>
        <time>2020-10-17T12:33:22Z</time>
      </trkpt>
      <trkpt lat="46.17571" lon="4.5261">
        <ele>622.4</ele>
        <time>2020-10-17T12:33:23Z</time>
      </trkpt>
      <trkpt lat="46.17572" lon="4.52614">
        <ele>622.2</ele>
        <time>2020-10-17T12:33:24Z</time>
      </trkpt>
      <trkpt lat="46.17572" lon="4.52614">
        <ele>622.2</ele>
        <time>2020-10-17T12:33:25Z</time>
      </trkpt>
      <trkpt lat="46.17572" lon="4.52618">
        <ele>622.6</ele>
        <time>2020-10-17T12:33:26Z</time>
      </trkpt>
      <trkpt lat="46.17572" lon="4.52618">
        <ele>622.6</ele>
        <time>2020-10-17T12:33:27Z</time>
      </trkpt>
      <trkpt lat="46.17572" lon="4.52622">
        <ele>622.6</ele>
        <time>2020-10-17T12:33:28Z</time>
      </trkpt>
      <trkpt lat="46.17572" lon="4.52622">
        <ele>622.4</ele>
        <time>2020-10-17T12:33:29Z</time>
      </trkpt>
      <trkpt lat="46.17573" lon="4.52626">
        <ele>622.4</ele>
        <time>2020-10-17T12:33:30Z</time>
      </trkpt>
      <trkpt lat="46.17573" lon="4.52626">
        <ele>622.6</ele>
        <time>2020-10-17T12:33:31Z</time>
      </trkpt>
      <trkpt lat="46.17574" lon="4.52631">
        <ele>623</ele>
        <time>2020-10-17T12:33:32Z</time>
      </trkpt>
      <trkpt lat="46.17574" lon="4.52631">
        <ele>623.2</ele>
        <time>2020-10-17T12:33:33Z</time>
      </trkpt>
      <trkpt lat="46.17573" lon="4.52636">
        <ele>623.2</ele>
        <time>2020-10-17T12:33:34Z</time>
      </trkpt>
      <trkpt lat="46.17573" lon="4.52636">
        <ele>623.2</ele>
        <time>2020-10-17T12:33:35Z</time>
      </trkpt>
      <trkpt lat="46.17573" lon="4.5264">
        <ele>623.4</ele>
        <time>2020-10-17T12:33:36Z</time>
      </trkpt>
      <trkpt lat="46.17573" lon="4.5264">
        <ele>623.4</ele>
        <time>2020-10-17T12:33:37Z</time>
      </trkpt>
      <trkpt lat="46.17573" lon="4.52645">
        <ele>623.4</ele>
        <time>2020-10-17T12:33:38Z</time>
      </trkpt>
      <trkpt lat="46.17573" lon="4.52645">
        <ele>623.6</ele>
        <time>2020-10-17T12:33:39Z</time>
      </trkpt>
      <trkpt lat="46.17572" lon="4.52649">
        <ele>623.6</ele>
        <time>2020-10-17T12:33:40Z</time>
      </trkpt>
      <trkpt lat="46.17572" lon="4.52649">
        <ele>623.8</ele>
        <time>2020-10-17T12:33:41Z</time>
      </trkpt>
      <trkpt lat="46.17571" lon="4.52653">
        <ele>623.8</ele>
        <time>2020-10-17T12:33:42Z</time>
      </trkpt>
      <trkpt lat="46.17571" lon="4.52653">
        <ele>623.8</ele>
        <time>2020-10-17T12:33:43Z</time>
      </trkpt>
      <trkpt lat="46.17571" lon="4.52657">
        <ele>624</ele>
        <time>2020-10-17T12:33:44Z</time>
      </trkpt>
      <trkpt lat="46.17571" lon="4.52657">
        <ele>624</ele>
        <time>2020-10-17T12:33:45Z</time>
      </trkpt>
      <trkpt lat="46.1757" lon="4.52661">
        <ele>624</ele>
        <time>2020-10-17T12:33:46Z</time>
      </trkpt>
      <trkpt lat="46.1757" lon="4.52661">
        <ele>624.2</ele>
        <time>2020-10-17T12:33:47Z</time>
      </trkpt>
      <trkpt lat="46.17568" lon="4.52664">
        <ele>624.4</ele>
        <time>2020-10-17T12:33:48Z</time>
      </trkpt>
      <trkpt lat="46.17568" lon="4.52664">
        <ele>624.8</ele>
        <time>2020-10-17T12:33:49Z</time>
      </trkpt>
      <trkpt lat="46.17567" lon="4.52666">
        <ele>625</ele>
        <time>2020-10-17T12:33:50Z</time>
      </trkpt>
      <trkpt lat="46.17567" lon="4.52666">
        <ele>624.8</ele>
        <time>2020-10-17T12:33:51Z</time>
      </trkpt>
      <trkpt lat="46.17565" lon="4.52669">
        <ele>624.8</ele>
        <time>2020-10-17T12:33:52Z</time>
      </trkpt>
      <trkpt lat="46.17563" lon="4.52672">
        <ele>624.8</ele>
        <time>2020-10-17T12:33:53Z</time>
      </trkpt>
      <trkpt lat="46.17563" lon="4.52672">
        <ele>625</ele>
        <time>2020-10-17T12:33:54Z</time>
      </trkpt>
      <trkpt lat="46.17562" lon="4.52675">
        <ele>625.2</ele>
        <time>2020-10-17T12:33:55Z</time>
      </trkpt>
      <trkpt lat="46.17562" lon="4.52675">
        <ele>625.6</ele>
        <time>2020-10-17T12:33:56Z</time>
      </trkpt>
      <trkpt lat="46.1756" lon="4.52679">
        <ele>625.8</ele>
        <time>2020-10-17T12:33:57Z</time>
      </trkpt>
      <trkpt lat="46.1756" lon="4.52679">
        <ele>625.8</ele>
        <time>2020-10-17T12:33:58Z</time>
      </trkpt>
      <trkpt lat="46.17557" lon="4.52683">
        <ele>626</ele>
        <time>2020-10-17T12:33:59Z</time>
      </trkpt>
      <trkpt lat="46.17557" lon="4.52683">
        <ele>626.2</ele>
        <time>2020-10-17T12:34:00Z</time>
      </trkpt>
      <trkpt lat="46.17556" lon="4.52686">
        <ele>626.2</ele>
        <time>2020-10-17T12:34:01Z</time>
      </trkpt>
      <trkpt lat="46.17556" lon="4.52686">
        <ele>626</ele>
        <time>2020-10-17T12:34:02Z</time>
      </trkpt>
      <trkpt lat="46.17554" lon="4.5269">
        <ele>625.8</ele>
        <time>2020-10-17T12:34:03Z</time>
      </trkpt>
      <trkpt lat="46.17554" lon="4.5269">
        <ele>625.6</ele>
        <time>2020-10-17T12:34:04Z</time>
      </trkpt>
      <trkpt lat="46.17552" lon="4.52693">
        <ele>625.4</ele>
        <time>2020-10-17T12:34:05Z</time>
      </trkpt>
      <trkpt lat="46.17552" lon="4.52693">
        <ele>625.8</ele>
        <time>2020-10-17T12:34:06Z</time>
      </trkpt>
      <trkpt lat="46.17549" lon="4.52695">
        <ele>626.2</ele>
        <time>2020-10-17T12:34:07Z</time>
      </trkpt>
      <trkpt lat="46.17549" lon="4.52695">
        <ele>626.4</ele>
        <time>2020-10-17T12:34:08Z</time>
      </trkpt>
      <trkpt lat="46.17546" lon="4.52698">
        <ele>626.4</ele>
        <time>2020-10-17T12:34:09Z</time>
      </trkpt>
      <trkpt lat="46.17546" lon="4.52698">
        <ele>626.2</ele>
        <time>2020-10-17T12:34:10Z</time>
      </trkpt>
      <trkpt lat="46.17543" lon="4.527">
        <ele>626</ele>
        <time>2020-10-17T12:34:11Z</time>
      </trkpt>
      <trkpt lat="46.17542" lon="4.52701">
        <ele>626.2</ele>
        <time>2020-10-17T12:34:12Z</time>
      </trkpt>
      <trkpt lat="46.1754" lon="4.52702">
        <ele>626</ele>
        <time>2020-10-17T12:34:13Z</time>
      </trkpt>
      <trkpt lat="46.1754" lon="4.52702">
        <ele>626</ele>
        <time>2020-10-17T12:34:14Z</time>
      </trkpt>
      <trkpt lat="46.17537" lon="4.52704">
        <ele>626</ele>
        <time>2020-10-17T12:34:15Z</time>
      </trkpt>
      <trkpt lat="46.17537" lon="4.52704">
        <ele>626.2</ele>
        <time>2020-10-17T12:34:16Z</time>
      </trkpt>
      <trkpt lat="46.17534" lon="4.52705">
        <ele>626.2</ele>
        <time>2020-10-17T12:34:17Z</time>
      </trkpt>
      <trkpt lat="46.17532" lon="4.52706">
        <ele>626.2</ele>
        <time>2020-10-17T12:34:18Z</time>
      </trkpt>
      <trkpt lat="46.1753" lon="4.52707">
        <ele>626.2</ele>
        <time>2020-10-17T12:34:19Z</time>
      </trkpt>
      <trkpt lat="46.1753" lon="4.52707">
        <ele>626.2</ele>
        <time>2020-10-17T12:34:20Z</time>
      </trkpt>
      <trkpt lat="46.17527" lon="4.52708">
        <ele>626.2</ele>
        <time>2020-10-17T12:34:21Z</time>
      </trkpt>
      <trkpt lat="46.17525" lon="4.52709">
        <ele>626.2</ele>
        <time>2020-10-17T12:34:22Z</time>
      </trkpt>
      <trkpt lat="46.17523" lon="4.52709">
        <ele>626.2</ele>
        <time>2020-10-17T12:34:23Z</time>
      </trkpt>
      <trkpt lat="46.17521" lon="4.5271">
        <ele>626.4</ele>
        <time>2020-10-17T12:34:24Z</time>
      </trkpt>
      <trkpt lat="46.17521" lon="4.5271">
        <ele>626.6</ele>
        <time>2020-10-17T12:34:25Z</time>
      </trkpt>
      <trkpt lat="46.17518" lon="4.52711">
        <ele>626.8</ele>
        <time>2020-10-17T12:34:26Z</time>
      </trkpt>
      <trkpt lat="46.17516" lon="4.52711">
        <ele>626.8</ele>
        <time>2020-10-17T12:34:27Z</time>
      </trkpt>
      <trkpt lat="46.17516" lon="4.52711">
        <ele>627</ele>
        <time>2020-10-17T12:34:28Z</time>
      </trkpt>
      <trkpt lat="46.17513" lon="4.52712">
        <ele>627</ele>
        <time>2020-10-17T12:34:29Z</time>
      </trkpt>
      <trkpt lat="46.17513" lon="4.52712">
        <ele>627.2</ele>
        <time>2020-10-17T12:34:30Z</time>
      </trkpt>
      <trkpt lat="46.1751" lon="4.52712">
        <ele>627.2</ele>
        <time>2020-10-17T12:34:31Z</time>
      </trkpt>
      <trkpt lat="46.1751" lon="4.52712">
        <ele>627.2</ele>
        <time>2020-10-17T12:34:32Z</time>
      </trkpt>
      <trkpt lat="46.17507" lon="4.52712">
        <ele>627.2</ele>
        <time>2020-10-17T12:34:33Z</time>
      </trkpt>
      <trkpt lat="46.17507" lon="4.52712">
        <ele>627.4</ele>
        <time>2020-10-17T12:34:34Z</time>
      </trkpt>
      <trkpt lat="46.17504" lon="4.52713">
        <ele>627.6</ele>
        <time>2020-10-17T12:34:35Z</time>
      </trkpt>
      <trkpt lat="46.17504" lon="4.52713">
        <ele>627.4</ele>
        <time>2020-10-17T12:34:36Z</time>
      </trkpt>
      <trkpt lat="46.17501" lon="4.52713">
        <ele>627.4</ele>
        <time>2020-10-17T12:34:37Z</time>
      </trkpt>
      <trkpt lat="46.17499" lon="4.52713">
        <ele>627.4</ele>
        <time>2020-10-17T12:34:38Z</time>
      </trkpt>
      <trkpt lat="46.17499" lon="4.52713">
        <ele>627.4</ele>
        <time>2020-10-17T12:34:39Z</time>
      </trkpt>
      <trkpt lat="46.17497" lon="4.52714">
        <ele>627.6</ele>
        <time>2020-10-17T12:34:40Z</time>
      </trkpt>
      <trkpt lat="46.17497" lon="4.52714">
        <ele>627.8</ele>
        <time>2020-10-17T12:34:41Z</time>
      </trkpt>
      <trkpt lat="46.17493" lon="4.52714">
        <ele>627.8</ele>
        <time>2020-10-17T12:34:42Z</time>
      </trkpt>
      <trkpt lat="46.17493" lon="4.52714">
        <ele>628</ele>
        <time>2020-10-17T12:34:43Z</time>
      </trkpt>
      <trkpt lat="46.1749" lon="4.52714">
        <ele>628.2</ele>
        <time>2020-10-17T12:34:44Z</time>
      </trkpt>
      <trkpt lat="46.1749" lon="4.52714">
        <ele>628.2</ele>
        <time>2020-10-17T12:34:45Z</time>
      </trkpt>
      <trkpt lat="46.17486" lon="4.52714">
        <ele>628.2</ele>
        <time>2020-10-17T12:34:46Z</time>
      </trkpt>
      <trkpt lat="46.17486" lon="4.52714">
        <ele>628.4</ele>
        <time>2020-10-17T12:34:47Z</time>
      </trkpt>
      <trkpt lat="46.17483" lon="4.52712">
        <ele>628.6</ele>
        <time>2020-10-17T12:34:48Z</time>
      </trkpt>
      <trkpt lat="46.17481" lon="4.52712">
        <ele>628.8</ele>
        <time>2020-10-17T12:34:49Z</time>
      </trkpt>
      <trkpt lat="46.17481" lon="4.52712">
        <ele>629</ele>
        <time>2020-10-17T12:34:50Z</time>
      </trkpt>
      <trkpt lat="46.17478" lon="4.52712">
        <ele>629</ele>
        <time>2020-10-17T12:34:51Z</time>
      </trkpt>
      <trkpt lat="46.17476" lon="4.52712">
        <ele>629.2</ele>
        <time>2020-10-17T12:34:52Z</time>
      </trkpt>
      <trkpt lat="46.17474" lon="4.52711">
        <ele>629.4</ele>
        <time>2020-10-17T12:34:53Z</time>
      </trkpt>
      <trkpt lat="46.17474" lon="4.52711">
        <ele>629.4</ele>
        <time>2020-10-17T12:34:54Z</time>
      </trkpt>
      <trkpt lat="46.17471" lon="4.5271">
        <ele>629.4</ele>
        <time>2020-10-17T12:34:55Z</time>
      </trkpt>
      <trkpt lat="46.17471" lon="4.5271">
        <ele>629.2</ele>
        <time>2020-10-17T12:34:56Z</time>
      </trkpt>
      <trkpt lat="46.17469" lon="4.52709">
        <ele>629.4</ele>
        <time>2020-10-17T12:34:57Z</time>
      </trkpt>
      <trkpt lat="46.17469" lon="4.52709">
        <ele>629.4</ele>
        <time>2020-10-17T12:34:58Z</time>
      </trkpt>
      <trkpt lat="46.17466" lon="4.52708">
        <ele>629.6</ele>
        <time>2020-10-17T12:34:59Z</time>
      </trkpt>
      <trkpt lat="46.17466" lon="4.52708">
        <ele>629.6</ele>
        <time>2020-10-17T12:35:00Z</time>
      </trkpt>
      <trkpt lat="46.17463" lon="4.52707">
        <ele>629.8</ele>
        <time>2020-10-17T12:35:01Z</time>
      </trkpt>
      <trkpt lat="46.17463" lon="4.52707">
        <ele>629.8</ele>
        <time>2020-10-17T12:35:02Z</time>
      </trkpt>
      <trkpt lat="46.1746" lon="4.52706">
        <ele>630</ele>
        <time>2020-10-17T12:35:03Z</time>
      </trkpt>
      <trkpt lat="46.1746" lon="4.52706">
        <ele>630</ele>
        <time>2020-10-17T12:35:04Z</time>
      </trkpt>
      <trkpt lat="46.17458" lon="4.52705">
        <ele>630.2</ele>
        <time>2020-10-17T12:35:05Z</time>
      </trkpt>
      <trkpt lat="46.17455" lon="4.52704">
        <ele>630.4</ele>
        <time>2020-10-17T12:35:06Z</time>
      </trkpt>
      <trkpt lat="46.17455" lon="4.52704">
        <ele>630.4</ele>
        <time>2020-10-17T12:35:07Z</time>
      </trkpt>
      <trkpt lat="46.17454" lon="4.52702">
        <ele>630.4</ele>
        <time>2020-10-17T12:35:08Z</time>
      </trkpt>
      <trkpt lat="46.17454" lon="4.52702">
        <ele>630.6</ele>
        <time>2020-10-17T12:35:09Z</time>
      </trkpt>
      <trkpt lat="46.17452" lon="4.52699">
        <ele>630.6</ele>
        <time>2020-10-17T12:35:10Z</time>
      </trkpt>
      <trkpt lat="46.1745" lon="4.52698">
        <ele>630.2</ele>
        <time>2020-10-17T12:35:11Z</time>
      </trkpt>
      <trkpt lat="46.1745" lon="4.52698">
        <ele>630.2</ele>
        <time>2020-10-17T12:35:12Z</time>
      </trkpt>
      <trkpt lat="46.17447" lon="4.52696">
        <ele>630.4</ele>
        <time>2020-10-17T12:35:13Z</time>
      </trkpt>
      <trkpt lat="46.17445" lon="4.52695">
        <ele>630.4</ele>
        <time>2020-10-17T12:35:14Z</time>
      </trkpt>
      <trkpt lat="46.17445" lon="4.52695">
        <ele>630.4</ele>
        <time>2020-10-17T12:35:15Z</time>
      </trkpt>
      <trkpt lat="46.17443" lon="4.52693">
        <ele>630.6</ele>
        <time>2020-10-17T12:35:16Z</time>
      </trkpt>
      <trkpt lat="46.17443" lon="4.52693">
        <ele>630.6</ele>
        <time>2020-10-17T12:35:17Z</time>
      </trkpt>
      <trkpt lat="46.1744" lon="4.5269">
        <ele>630.8</ele>
        <time>2020-10-17T12:35:18Z</time>
      </trkpt>
      <trkpt lat="46.1744" lon="4.5269">
        <ele>630.8</ele>
        <time>2020-10-17T12:35:19Z</time>
      </trkpt>
      <trkpt lat="46.17438" lon="4.52688">
        <ele>630.6</ele>
        <time>2020-10-17T12:35:20Z</time>
      </trkpt>
      <trkpt lat="46.17438" lon="4.52688">
        <ele>631</ele>
        <time>2020-10-17T12:35:21Z</time>
      </trkpt>
      <trkpt lat="46.17435" lon="4.52685">
        <ele>631</ele>
        <time>2020-10-17T12:35:22Z</time>
      </trkpt>
      <trkpt lat="46.17435" lon="4.52685">
        <ele>631.2</ele>
        <time>2020-10-17T12:35:23Z</time>
      </trkpt>
      <trkpt lat="46.17432" lon="4.52683">
        <ele>631</ele>
        <time>2020-10-17T12:35:24Z</time>
      </trkpt>
      <trkpt lat="46.17432" lon="4.52683">
        <ele>630.8</ele>
        <time>2020-10-17T12:35:25Z</time>
      </trkpt>
      <trkpt lat="46.17429" lon="4.52678">
        <ele>631</ele>
        <time>2020-10-17T12:35:26Z</time>
      </trkpt>
      <trkpt lat="46.17428" lon="4.52675">
        <ele>630.8</ele>
        <time>2020-10-17T12:35:27Z</time>
      </trkpt>
      <trkpt lat="46.17426" lon="4.52672">
        <ele>631.2</ele>
        <time>2020-10-17T12:35:28Z</time>
      </trkpt>
      <trkpt lat="46.17425" lon="4.5267">
        <ele>631.4</ele>
        <time>2020-10-17T12:35:29Z</time>
      </trkpt>
      <trkpt lat="46.17424" lon="4.52668">
        <ele>631.4</ele>
        <time>2020-10-17T12:35:30Z</time>
      </trkpt>
      <trkpt lat="46.17422" lon="4.52665">
        <ele>631.6</ele>
        <time>2020-10-17T12:35:31Z</time>
      </trkpt>
      <trkpt lat="46.17421" lon="4.52663">
        <ele>631.6</ele>
        <time>2020-10-17T12:35:32Z</time>
      </trkpt>
      <trkpt lat="46.1742" lon="4.52661">
        <ele>631.6</ele>
        <time>2020-10-17T12:35:33Z</time>
      </trkpt>
      <trkpt lat="46.17419" lon="4.52659">
        <ele>631.6</ele>
        <time>2020-10-17T12:35:34Z</time>
      </trkpt>
      <trkpt lat="46.17418" lon="4.52657">
        <ele>631.6</ele>
        <time>2020-10-17T12:35:35Z</time>
      </trkpt>
      <trkpt lat="46.17418" lon="4.52657">
        <ele>631.8</ele>
        <time>2020-10-17T12:35:36Z</time>
      </trkpt>
      <trkpt lat="46.17416" lon="4.52653">
        <ele>631.6</ele>
        <time>2020-10-17T12:35:37Z</time>
      </trkpt>
      <trkpt lat="46.17416" lon="4.52653">
        <ele>631.8</ele>
        <time>2020-10-17T12:35:38Z</time>
      </trkpt>
      <trkpt lat="46.17414" lon="4.52649">
        <ele>631.8</ele>
        <time>2020-10-17T12:35:39Z</time>
      </trkpt>
      <trkpt lat="46.17414" lon="4.52649">
        <ele>631.8</ele>
        <time>2020-10-17T12:35:40Z</time>
      </trkpt>
      <trkpt lat="46.17412" lon="4.52645">
        <ele>631.8</ele>
        <time>2020-10-17T12:35:41Z</time>
      </trkpt>
      <trkpt lat="46.17412" lon="4.52645">
        <ele>631.8</ele>
        <time>2020-10-17T12:35:42Z</time>
      </trkpt>
      <trkpt lat="46.1741" lon="4.52641">
        <ele>631.8</ele>
        <time>2020-10-17T12:35:43Z</time>
      </trkpt>
      <trkpt lat="46.1741" lon="4.52641">
        <ele>631.8</ele>
        <time>2020-10-17T12:35:44Z</time>
      </trkpt>
      <trkpt lat="46.17409" lon="4.52637">
        <ele>631.6</ele>
        <time>2020-10-17T12:35:45Z</time>
      </trkpt>
      <trkpt lat="46.17409" lon="4.52637">
        <ele>631.6</ele>
        <time>2020-10-17T12:35:46Z</time>
      </trkpt>
      <trkpt lat="46.17407" lon="4.52632">
        <ele>631.6</ele>
        <time>2020-10-17T12:35:47Z</time>
      </trkpt>
      <trkpt lat="46.17407" lon="4.52632">
        <ele>631.6</ele>
        <time>2020-10-17T12:35:48Z</time>
      </trkpt>
      <trkpt lat="46.17406" lon="4.52628">
        <ele>631.6</ele>
        <time>2020-10-17T12:35:49Z</time>
      </trkpt>
      <trkpt lat="46.17406" lon="4.52628">
        <ele>631.6</ele>
        <time>2020-10-17T12:35:50Z</time>
      </trkpt>
      <trkpt lat="46.17405" lon="4.52623">
        <ele>631.8</ele>
        <time>2020-10-17T12:35:51Z</time>
      </trkpt>
      <trkpt lat="46.17405" lon="4.52623">
        <ele>631.4</ele>
        <time>2020-10-17T12:35:52Z</time>
      </trkpt>
      <trkpt lat="46.17403" lon="4.52619">
        <ele>631.4</ele>
        <time>2020-10-17T12:35:53Z</time>
      </trkpt>
      <trkpt lat="46.17403" lon="4.52619">
        <ele>631.2</ele>
        <time>2020-10-17T12:35:54Z</time>
      </trkpt>
      <trkpt lat="46.17402" lon="4.52615">
        <ele>631.2</ele>
        <time>2020-10-17T12:35:55Z</time>
      </trkpt>
      <trkpt lat="46.17402" lon="4.52615">
        <ele>631.4</ele>
        <time>2020-10-17T12:35:56Z</time>
      </trkpt>
      <trkpt lat="46.17401" lon="4.52611">
        <ele>631.4</ele>
        <time>2020-10-17T12:35:57Z</time>
      </trkpt>
      <trkpt lat="46.17401" lon="4.52611">
        <ele>631.6</ele>
        <time>2020-10-17T12:35:58Z</time>
      </trkpt>
      <trkpt lat="46.17399" lon="4.52606">
        <ele>631.4</ele>
        <time>2020-10-17T12:35:59Z</time>
      </trkpt>
      <trkpt lat="46.17399" lon="4.52606">
        <ele>631.4</ele>
        <time>2020-10-17T12:36:00Z</time>
      </trkpt>
      <trkpt lat="46.17398" lon="4.52601">
        <ele>631.2</ele>
        <time>2020-10-17T12:36:01Z</time>
      </trkpt>
      <trkpt lat="46.17398" lon="4.52598">
        <ele>631.2</ele>
        <time>2020-10-17T12:36:02Z</time>
      </trkpt>
      <trkpt lat="46.17397" lon="4.52595">
        <ele>631.2</ele>
        <time>2020-10-17T12:36:03Z</time>
      </trkpt>
      <trkpt lat="46.17396" lon="4.52592">
        <ele>631</ele>
        <time>2020-10-17T12:36:04Z</time>
      </trkpt>
      <trkpt lat="46.17396" lon="4.52589">
        <ele>631.2</ele>
        <time>2020-10-17T12:36:05Z</time>
      </trkpt>
      <trkpt lat="46.17395" lon="4.52585">
        <ele>631.8</ele>
        <time>2020-10-17T12:36:06Z</time>
      </trkpt>
      <trkpt lat="46.17394" lon="4.52582">
        <ele>631.8</ele>
        <time>2020-10-17T12:36:07Z</time>
      </trkpt>
      <trkpt lat="46.17393" lon="4.52579">
        <ele>632.2</ele>
        <time>2020-10-17T12:36:08Z</time>
      </trkpt>
      <trkpt lat="46.17392" lon="4.52576">
        <ele>632.4</ele>
        <time>2020-10-17T12:36:09Z</time>
      </trkpt>
      <trkpt lat="46.17391" lon="4.52572">
        <ele>632.4</ele>
        <time>2020-10-17T12:36:10Z</time>
      </trkpt>
      <trkpt lat="46.17391" lon="4.52569">
        <ele>632.2</ele>
        <time>2020-10-17T12:36:11Z</time>
      </trkpt>
      <trkpt lat="46.1739" lon="4.52565">
        <ele>632.2</ele>
        <time>2020-10-17T12:36:12Z</time>
      </trkpt>
      <trkpt lat="46.1739" lon="4.52562">
        <ele>632</ele>
        <time>2020-10-17T12:36:13Z</time>
      </trkpt>
      <trkpt lat="46.17389" lon="4.52559">
        <ele>632.2</ele>
        <time>2020-10-17T12:36:14Z</time>
      </trkpt>
      <trkpt lat="46.17388" lon="4.52556">
        <ele>631.8</ele>
        <time>2020-10-17T12:36:15Z</time>
      </trkpt>
      <trkpt lat="46.17387" lon="4.52552">
        <ele>631.6</ele>
        <time>2020-10-17T12:36:16Z</time>
      </trkpt>
      <trkpt lat="46.17387" lon="4.52549">
        <ele>631.8</ele>
        <time>2020-10-17T12:36:17Z</time>
      </trkpt>
      <trkpt lat="46.17386" lon="4.52546">
        <ele>631.8</ele>
        <time>2020-10-17T12:36:18Z</time>
      </trkpt>
      <trkpt lat="46.17386" lon="4.52543">
        <ele>631.6</ele>
        <time>2020-10-17T12:36:19Z</time>
      </trkpt>
      <trkpt lat="46.17385" lon="4.5254">
        <ele>632</ele>
        <time>2020-10-17T12:36:20Z</time>
      </trkpt>
      <trkpt lat="46.17384" lon="4.52537">
        <ele>631.8</ele>
        <time>2020-10-17T12:36:21Z</time>
      </trkpt>
      <trkpt lat="46.17384" lon="4.52534">
        <ele>631.6</ele>
        <time>2020-10-17T12:36:22Z</time>
      </trkpt>
      <trkpt lat="46.17383" lon="4.52531">
        <ele>632.2</ele>
        <time>2020-10-17T12:36:23Z</time>
      </trkpt>
      <trkpt lat="46.17382" lon="4.52527">
        <ele>631.8</ele>
        <time>2020-10-17T12:36:24Z</time>
      </trkpt>
      <trkpt lat="46.17381" lon="4.52525">
        <ele>631.6</ele>
        <time>2020-10-17T12:36:25Z</time>
      </trkpt>
      <trkpt lat="46.17381" lon="4.52522">
        <ele>631.8</ele>
        <time>2020-10-17T12:36:26Z</time>
      </trkpt>
      <trkpt lat="46.1738" lon="4.52519">
        <ele>631.8</ele>
        <time>2020-10-17T12:36:27Z</time>
      </trkpt>
      <trkpt lat="46.1738" lon="4.52516">
        <ele>631.6</ele>
        <time>2020-10-17T12:36:28Z</time>
      </trkpt>
      <trkpt lat="46.17379" lon="4.52513">
        <ele>631.8</ele>
        <time>2020-10-17T12:36:29Z</time>
      </trkpt>
      <trkpt lat="46.17378" lon="4.52509">
        <ele>631.8</ele>
        <time>2020-10-17T12:36:30Z</time>
      </trkpt>
      <trkpt lat="46.17377" lon="4.52506">
        <ele>632</ele>
        <time>2020-10-17T12:36:31Z</time>
      </trkpt>
      <trkpt lat="46.17377" lon="4.52503">
        <ele>632.2</ele>
        <time>2020-10-17T12:36:32Z</time>
      </trkpt>
      <trkpt lat="46.17376" lon="4.52499">
        <ele>632</ele>
        <time>2020-10-17T12:36:33Z</time>
      </trkpt>
      <trkpt lat="46.17375" lon="4.52497">
        <ele>632</ele>
        <time>2020-10-17T12:36:34Z</time>
      </trkpt>
      <trkpt lat="46.17374" lon="4.52494">
        <ele>631.8</ele>
        <time>2020-10-17T12:36:35Z</time>
      </trkpt>
      <trkpt lat="46.17373" lon="4.5249">
        <ele>632</ele>
        <time>2020-10-17T12:36:36Z</time>
      </trkpt>
      <trkpt lat="46.17372" lon="4.52487">
        <ele>632.2</ele>
        <time>2020-10-17T12:36:37Z</time>
      </trkpt>
      <trkpt lat="46.17371" lon="4.52484">
        <ele>631.8</ele>
        <time>2020-10-17T12:36:38Z</time>
      </trkpt>
      <trkpt lat="46.1737" lon="4.52481">
        <ele>631.4</ele>
        <time>2020-10-17T12:36:39Z</time>
      </trkpt>
      <trkpt lat="46.17369" lon="4.52478">
        <ele>631.4</ele>
        <time>2020-10-17T12:36:40Z</time>
      </trkpt>
      <trkpt lat="46.17368" lon="4.52475">
        <ele>631.4</ele>
        <time>2020-10-17T12:36:41Z</time>
      </trkpt>
      <trkpt lat="46.17366" lon="4.52472">
        <ele>631</ele>
        <time>2020-10-17T12:36:42Z</time>
      </trkpt>
      <trkpt lat="46.17365" lon="4.52469">
        <ele>631.4</ele>
        <time>2020-10-17T12:36:43Z</time>
      </trkpt>
      <trkpt lat="46.17364" lon="4.52467">
        <ele>631.2</ele>
        <time>2020-10-17T12:36:44Z</time>
      </trkpt>
      <trkpt lat="46.17363" lon="4.52465">
        <ele>631</ele>
        <time>2020-10-17T12:36:45Z</time>
      </trkpt>
      <trkpt lat="46.17361" lon="4.52462">
        <ele>631.4</ele>
        <time>2020-10-17T12:36:46Z</time>
      </trkpt>
      <trkpt lat="46.1736" lon="4.5246">
        <ele>631.4</ele>
        <time>2020-10-17T12:36:47Z</time>
      </trkpt>
      <trkpt lat="46.17358" lon="4.52458">
        <ele>631.2</ele>
        <time>2020-10-17T12:36:48Z</time>
      </trkpt>
      <trkpt lat="46.17356" lon="4.52455">
        <ele>631.6</ele>
        <time>2020-10-17T12:36:49Z</time>
      </trkpt>
      <trkpt lat="46.17354" lon="4.52453">
        <ele>631.4</ele>
        <time>2020-10-17T12:36:50Z</time>
      </trkpt>
      <trkpt lat="46.17353" lon="4.52451">
        <ele>631.4</ele>
        <time>2020-10-17T12:36:51Z</time>
      </trkpt>
      <trkpt lat="46.17351" lon="4.52449">
        <ele>631.6</ele>
        <time>2020-10-17T12:36:52Z</time>
      </trkpt>
      <trkpt lat="46.17349" lon="4.52447">
        <ele>631.6</ele>
        <time>2020-10-17T12:36:53Z</time>
      </trkpt>
      <trkpt lat="46.17347" lon="4.52444">
        <ele>631.4</ele>
        <time>2020-10-17T12:36:54Z</time>
      </trkpt>
      <trkpt lat="46.17345" lon="4.52442">
        <ele>631.6</ele>
        <time>2020-10-17T12:36:55Z</time>
      </trkpt>
      <trkpt lat="46.17343" lon="4.52441">
        <ele>631.6</ele>
        <time>2020-10-17T12:36:56Z</time>
      </trkpt>
      <trkpt lat="46.17341" lon="4.52439">
        <ele>631.6</ele>
        <time>2020-10-17T12:36:57Z</time>
      </trkpt>
      <trkpt lat="46.17339" lon="4.52437">
        <ele>631.8</ele>
        <time>2020-10-17T12:36:58Z</time>
      </trkpt>
      <trkpt lat="46.17337" lon="4.52435">
        <ele>632</ele>
        <time>2020-10-17T12:36:59Z</time>
      </trkpt>
      <trkpt lat="46.17335" lon="4.52434">
        <ele>632</ele>
        <time>2020-10-17T12:37:00Z</time>
      </trkpt>
      <trkpt lat="46.17333" lon="4.52432">
        <ele>631.8</ele>
        <time>2020-10-17T12:37:01Z</time>
      </trkpt>
      <trkpt lat="46.17331" lon="4.5243">
        <ele>631.6</ele>
        <time>2020-10-17T12:37:02Z</time>
      </trkpt>
      <trkpt lat="46.17328" lon="4.52429">
        <ele>632</ele>
        <time>2020-10-17T12:37:03Z</time>
      </trkpt>
      <trkpt lat="46.17326" lon="4.52428">
        <ele>631.8</ele>
        <time>2020-10-17T12:37:04Z</time>
      </trkpt>
      <trkpt lat="46.17324" lon="4.52426">
        <ele>631.8</ele>
        <time>2020-10-17T12:37:05Z</time>
      </trkpt>
      <trkpt lat="46.17322" lon="4.52424">
        <ele>631.8</ele>
        <time>2020-10-17T12:37:06Z</time>
      </trkpt>
      <trkpt lat="46.1732" lon="4.52422">
        <ele>631.8</ele>
        <time>2020-10-17T12:37:07Z</time>
      </trkpt>
      <trkpt lat="46.17318" lon="4.52421">
        <ele>631.8</ele>
        <time>2020-10-17T12:37:08Z</time>
      </trkpt>
      <trkpt lat="46.17316" lon="4.52419">
        <ele>632</ele>
        <time>2020-10-17T12:37:09Z</time>
      </trkpt>
      <trkpt lat="46.17314" lon="4.52417">
        <ele>632</ele>
        <time>2020-10-17T12:37:10Z</time>
      </trkpt>
      <trkpt lat="46.17312" lon="4.52415">
        <ele>632</ele>
        <time>2020-10-17T12:37:11Z</time>
      </trkpt>
      <trkpt lat="46.1731" lon="4.52414">
        <ele>632.4</ele>
        <time>2020-10-17T12:37:12Z</time>
      </trkpt>
      <trkpt lat="46.17307" lon="4.52412">
        <ele>632.2</ele>
        <time>2020-10-17T12:37:13Z</time>
      </trkpt>
      <trkpt lat="46.17305" lon="4.5241">
        <ele>631.8</ele>
        <time>2020-10-17T12:37:14Z</time>
      </trkpt>
      <trkpt lat="46.17303" lon="4.52409">
        <ele>632.2</ele>
        <time>2020-10-17T12:37:15Z</time>
      </trkpt>
      <trkpt lat="46.17301" lon="4.52407">
        <ele>632</ele>
        <time>2020-10-17T12:37:16Z</time>
      </trkpt>
      <trkpt lat="46.17299" lon="4.52405">
        <ele>631.8</ele>
        <time>2020-10-17T12:37:17Z</time>
      </trkpt>
      <trkpt lat="46.17297" lon="4.52403">
        <ele>632</ele>
        <time>2020-10-17T12:37:18Z</time>
      </trkpt>
      <trkpt lat="46.17295" lon="4.52402">
        <ele>632.2</ele>
        <time>2020-10-17T12:37:19Z</time>
      </trkpt>
      <trkpt lat="46.17293" lon="4.524">
        <ele>632.2</ele>
        <time>2020-10-17T12:37:20Z</time>
      </trkpt>
      <trkpt lat="46.17291" lon="4.52398">
        <ele>632.4</ele>
        <time>2020-10-17T12:37:21Z</time>
      </trkpt>
      <trkpt lat="46.17289" lon="4.52396">
        <ele>632.4</ele>
        <time>2020-10-17T12:37:22Z</time>
      </trkpt>
      <trkpt lat="46.17287" lon="4.52395">
        <ele>632.2</ele>
        <time>2020-10-17T12:37:23Z</time>
      </trkpt>
      <trkpt lat="46.17285" lon="4.52393">
        <ele>632.4</ele>
        <time>2020-10-17T12:37:24Z</time>
      </trkpt>
      <trkpt lat="46.17283" lon="4.52391">
        <ele>632.2</ele>
        <time>2020-10-17T12:37:25Z</time>
      </trkpt>
      <trkpt lat="46.17281" lon="4.52389">
        <ele>632.2</ele>
        <time>2020-10-17T12:37:26Z</time>
      </trkpt>
      <trkpt lat="46.17278" lon="4.52387">
        <ele>632.4</ele>
        <time>2020-10-17T12:37:27Z</time>
      </trkpt>
      <trkpt lat="46.17276" lon="4.52385">
        <ele>632.2</ele>
        <time>2020-10-17T12:37:28Z</time>
      </trkpt>
      <trkpt lat="46.17274" lon="4.52383">
        <ele>632.2</ele>
        <time>2020-10-17T12:37:29Z</time>
      </trkpt>
      <trkpt lat="46.17272" lon="4.52381">
        <ele>632.2</ele>
        <time>2020-10-17T12:37:30Z</time>
      </trkpt>
      <trkpt lat="46.1727" lon="4.52379">
        <ele>632</ele>
        <time>2020-10-17T12:37:31Z</time>
      </trkpt>
      <trkpt lat="46.17268" lon="4.52377">
        <ele>632</ele>
        <time>2020-10-17T12:37:32Z</time>
      </trkpt>
      <trkpt lat="46.17266" lon="4.52375">
        <ele>631.8</ele>
        <time>2020-10-17T12:37:33Z</time>
      </trkpt>
      <trkpt lat="46.17263" lon="4.52373">
        <ele>631.8</ele>
        <time>2020-10-17T12:37:34Z</time>
      </trkpt>
      <trkpt lat="46.17261" lon="4.52371">
        <ele>631.8</ele>
        <time>2020-10-17T12:37:35Z</time>
      </trkpt>
      <trkpt lat="46.17259" lon="4.52369">
        <ele>631.8</ele>
        <time>2020-10-17T12:37:36Z</time>
      </trkpt>
      <trkpt lat="46.17257" lon="4.52367">
        <ele>631.6</ele>
        <time>2020-10-17T12:37:37Z</time>
      </trkpt>
      <trkpt lat="46.17255" lon="4.52366">
        <ele>631.6</ele>
        <time>2020-10-17T12:37:38Z</time>
      </trkpt>
      <trkpt lat="46.17252" lon="4.52364">
        <ele>631.6</ele>
        <time>2020-10-17T12:37:39Z</time>
      </trkpt>
      <trkpt lat="46.1725" lon="4.52362">
        <ele>631.4</ele>
        <time>2020-10-17T12:37:40Z</time>
      </trkpt>
      <trkpt lat="46.17248" lon="4.5236">
        <ele>631.4</ele>
        <time>2020-10-17T12:37:41Z</time>
      </trkpt>
      <trkpt lat="46.17246" lon="4.52358">
        <ele>631.4</ele>
        <time>2020-10-17T12:37:42Z</time>
      </trkpt>
      <trkpt lat="46.17244" lon="4.52356">
        <ele>631.6</ele>
        <time>2020-10-17T12:37:43Z</time>
      </trkpt>
      <trkpt lat="46.17242" lon="4.52354">
        <ele>631.6</ele>
        <time>2020-10-17T12:37:44Z</time>
      </trkpt>
      <trkpt lat="46.1724" lon="4.52352">
        <ele>631.4</ele>
        <time>2020-10-17T12:37:45Z</time>
      </trkpt>
      <trkpt lat="46.17238" lon="4.5235">
        <ele>631.4</ele>
        <time>2020-10-17T12:37:46Z</time>
      </trkpt>
      <trkpt lat="46.17236" lon="4.52348">
        <ele>631.6</ele>
        <time>2020-10-17T12:37:47Z</time>
      </trkpt>
      <trkpt lat="46.17233" lon="4.52346">
        <ele>631.2</ele>
        <time>2020-10-17T12:37:48Z</time>
      </trkpt>
      <trkpt lat="46.17231" lon="4.52344">
        <ele>631.2</ele>
        <time>2020-10-17T12:37:49Z</time>
      </trkpt>
      <trkpt lat="46.17229" lon="4.52342">
        <ele>631.2</ele>
        <time>2020-10-17T12:37:50Z</time>
      </trkpt>
      <trkpt lat="46.17227" lon="4.5234">
        <ele>631.2</ele>
        <time>2020-10-17T12:37:51Z</time>
      </trkpt>
      <trkpt lat="46.17225" lon="4.52338">
        <ele>631</ele>
        <time>2020-10-17T12:37:52Z</time>
      </trkpt>
      <trkpt lat="46.17223" lon="4.52336">
        <ele>631.2</ele>
        <time>2020-10-17T12:37:53Z</time>
      </trkpt>
      <trkpt lat="46.17221" lon="4.52334">
        <ele>631.8</ele>
        <time>2020-10-17T12:37:54Z</time>
      </trkpt>
      <trkpt lat="46.17219" lon="4.52332">
        <ele>631.8</ele>
        <time>2020-10-17T12:37:55Z</time>
      </trkpt>
      <trkpt lat="46.17217" lon="4.5233">
        <ele>631.6</ele>
        <time>2020-10-17T12:37:56Z</time>
      </trkpt>
      <trkpt lat="46.17215" lon="4.52328">
        <ele>631.4</ele>
        <time>2020-10-17T12:37:57Z</time>
      </trkpt>
      <trkpt lat="46.17213" lon="4.52326">
        <ele>631</ele>
        <time>2020-10-17T12:37:58Z</time>
      </trkpt>
      <trkpt lat="46.17211" lon="4.52324">
        <ele>631.2</ele>
        <time>2020-10-17T12:37:59Z</time>
      </trkpt>
      <trkpt lat="46.17209" lon="4.52323">
        <ele>631</ele>
        <time>2020-10-17T12:38:00Z</time>
      </trkpt>
      <trkpt lat="46.17207" lon="4.52321">
        <ele>630.6</ele>
        <time>2020-10-17T12:38:01Z</time>
      </trkpt>
      <trkpt lat="46.17205" lon="4.5232">
        <ele>631</ele>
        <time>2020-10-17T12:38:02Z</time>
      </trkpt>
      <trkpt lat="46.17205" lon="4.5232">
        <ele>630.6</ele>
        <time>2020-10-17T12:38:03Z</time>
      </trkpt>
      <trkpt lat="46.17202" lon="4.52318">
        <ele>630.4</ele>
        <time>2020-10-17T12:38:04Z</time>
      </trkpt>
      <trkpt lat="46.17202" lon="4.52318">
        <ele>630.2</ele>
        <time>2020-10-17T12:38:05Z</time>
      </trkpt>
      <trkpt lat="46.172" lon="4.52315">
        <ele>630.2</ele>
        <time>2020-10-17T12:38:06Z</time>
      </trkpt>
      <trkpt lat="46.172" lon="4.52315">
        <ele>630.4</ele>
        <time>2020-10-17T12:38:07Z</time>
      </trkpt>
      <trkpt lat="46.17197" lon="4.52312">
        <ele>630.8</ele>
        <time>2020-10-17T12:38:08Z</time>
      </trkpt>
      <trkpt lat="46.17197" lon="4.52312">
        <ele>631</ele>
        <time>2020-10-17T12:38:09Z</time>
      </trkpt>
      <trkpt lat="46.17194" lon="4.5231">
        <ele>631.4</ele>
        <time>2020-10-17T12:38:10Z</time>
      </trkpt>
      <trkpt lat="46.17193" lon="4.52308">
        <ele>631.4</ele>
        <time>2020-10-17T12:38:11Z</time>
      </trkpt>
      <trkpt lat="46.17191" lon="4.52306">
        <ele>631.2</ele>
        <time>2020-10-17T12:38:12Z</time>
      </trkpt>
      <trkpt lat="46.17189" lon="4.52304">
        <ele>631.2</ele>
        <time>2020-10-17T12:38:13Z</time>
      </trkpt>
      <trkpt lat="46.17187" lon="4.52302">
        <ele>630.8</ele>
        <time>2020-10-17T12:38:14Z</time>
      </trkpt>
      <trkpt lat="46.17185" lon="4.523">
        <ele>630.8</ele>
        <time>2020-10-17T12:38:15Z</time>
      </trkpt>
      <trkpt lat="46.17184" lon="4.52298">
        <ele>631</ele>
        <time>2020-10-17T12:38:16Z</time>
      </trkpt>
      <trkpt lat="46.17182" lon="4.52296">
        <ele>630.8</ele>
        <time>2020-10-17T12:38:17Z</time>
      </trkpt>
      <trkpt lat="46.1718" lon="4.52294">
        <ele>630.6</ele>
        <time>2020-10-17T12:38:18Z</time>
      </trkpt>
      <trkpt lat="46.17179" lon="4.52292">
        <ele>630.8</ele>
        <time>2020-10-17T12:38:19Z</time>
      </trkpt>
      <trkpt lat="46.17179" lon="4.52292">
        <ele>630.8</ele>
        <time>2020-10-17T12:38:20Z</time>
      </trkpt>
      <trkpt lat="46.17176" lon="4.52288">
        <ele>630.6</ele>
        <time>2020-10-17T12:38:21Z</time>
      </trkpt>
      <trkpt lat="46.17174" lon="4.52286">
        <ele>630.8</ele>
        <time>2020-10-17T12:38:22Z</time>
      </trkpt>
      <trkpt lat="46.17172" lon="4.52284">
        <ele>630.6</ele>
        <time>2020-10-17T12:38:23Z</time>
      </trkpt>
      <trkpt lat="46.17171" lon="4.52282">
        <ele>630.6</ele>
        <time>2020-10-17T12:38:24Z</time>
      </trkpt>
      <trkpt lat="46.1717" lon="4.5228">
        <ele>630.8</ele>
        <time>2020-10-17T12:38:25Z</time>
      </trkpt>
      <trkpt lat="46.17168" lon="4.52278">
        <ele>630.6</ele>
        <time>2020-10-17T12:38:26Z</time>
      </trkpt>
      <trkpt lat="46.17166" lon="4.52276">
        <ele>630.6</ele>
        <time>2020-10-17T12:38:27Z</time>
      </trkpt>
      <trkpt lat="46.17165" lon="4.52274">
        <ele>631</ele>
        <time>2020-10-17T12:38:28Z</time>
      </trkpt>
      <trkpt lat="46.17163" lon="4.52272">
        <ele>630.8</ele>
        <time>2020-10-17T12:38:29Z</time>
      </trkpt>
      <trkpt lat="46.17161" lon="4.5227">
        <ele>630.6</ele>
        <time>2020-10-17T12:38:30Z</time>
      </trkpt>
      <trkpt lat="46.1716" lon="4.52268">
        <ele>630.8</ele>
        <time>2020-10-17T12:38:31Z</time>
      </trkpt>
      <trkpt lat="46.17158" lon="4.52266">
        <ele>630.6</ele>
        <time>2020-10-17T12:38:32Z</time>
      </trkpt>
      <trkpt lat="46.17157" lon="4.52264">
        <ele>630.8</ele>
        <time>2020-10-17T12:38:33Z</time>
      </trkpt>
      <trkpt lat="46.17156" lon="4.52261">
        <ele>630.8</ele>
        <time>2020-10-17T12:38:34Z</time>
      </trkpt>
      <trkpt lat="46.17154" lon="4.52258">
        <ele>630.8</ele>
        <time>2020-10-17T12:38:35Z</time>
      </trkpt>
      <trkpt lat="46.17153" lon="4.52255">
        <ele>630.8</ele>
        <time>2020-10-17T12:38:36Z</time>
      </trkpt>
      <trkpt lat="46.17152" lon="4.52253">
        <ele>631</ele>
        <time>2020-10-17T12:38:37Z</time>
      </trkpt>
      <trkpt lat="46.1715" lon="4.52251">
        <ele>631.2</ele>
        <time>2020-10-17T12:38:38Z</time>
      </trkpt>
      <trkpt lat="46.17149" lon="4.52248">
        <ele>631</ele>
        <time>2020-10-17T12:38:39Z</time>
      </trkpt>
      <trkpt lat="46.17148" lon="4.52246">
        <ele>631</ele>
        <time>2020-10-17T12:38:40Z</time>
      </trkpt>
      <trkpt lat="46.17148" lon="4.52246">
        <ele>630.8</ele>
        <time>2020-10-17T12:38:41Z</time>
      </trkpt>
      <trkpt lat="46.17146" lon="4.52242">
        <ele>630.6</ele>
        <time>2020-10-17T12:38:42Z</time>
      </trkpt>
      <trkpt lat="46.17146" lon="4.52242">
        <ele>630.8</ele>
        <time>2020-10-17T12:38:43Z</time>
      </trkpt>
      <trkpt lat="46.17145" lon="4.52238">
        <ele>630.8</ele>
        <time>2020-10-17T12:38:44Z</time>
      </trkpt>
      <trkpt lat="46.17145" lon="4.52238">
        <ele>631</ele>
        <time>2020-10-17T12:38:45Z</time>
      </trkpt>
      <trkpt lat="46.17144" lon="4.52233">
        <ele>630.8</ele>
        <time>2020-10-17T12:38:46Z</time>
      </trkpt>
      <trkpt lat="46.17144" lon="4.52233">
        <ele>630.8</ele>
        <time>2020-10-17T12:38:47Z</time>
      </trkpt>
      <trkpt lat="46.17142" lon="4.5223">
        <ele>630.8</ele>
        <time>2020-10-17T12:38:48Z</time>
      </trkpt>
      <trkpt lat="46.17142" lon="4.5223">
        <ele>630.8</ele>
        <time>2020-10-17T12:38:49Z</time>
      </trkpt>
      <trkpt lat="46.17142" lon="4.52226">
        <ele>630.8</ele>
        <time>2020-10-17T12:38:50Z</time>
      </trkpt>
      <trkpt lat="46.17142" lon="4.52226">
        <ele>630.8</ele>
        <time>2020-10-17T12:38:51Z</time>
      </trkpt>
      <trkpt lat="46.17141" lon="4.52222">
        <ele>631.4</ele>
        <time>2020-10-17T12:38:52Z</time>
      </trkpt>
      <trkpt lat="46.17141" lon="4.52222">
        <ele>631.8</ele>
        <time>2020-10-17T12:38:53Z</time>
      </trkpt>
      <trkpt lat="46.1714" lon="4.52218">
        <ele>632.2</ele>
        <time>2020-10-17T12:38:54Z</time>
      </trkpt>
      <trkpt lat="46.17139" lon="4.52216">
        <ele>632.6</ele>
        <time>2020-10-17T12:38:55Z</time>
      </trkpt>
      <trkpt lat="46.17138" lon="4.52214">
        <ele>632.6</ele>
        <time>2020-10-17T12:38:56Z</time>
      </trkpt>
      <trkpt lat="46.17138" lon="4.52214">
        <ele>632.4</ele>
        <time>2020-10-17T12:38:57Z</time>
      </trkpt>
      <trkpt lat="46.17137" lon="4.5221">
        <ele>632.2</ele>
        <time>2020-10-17T12:38:58Z</time>
      </trkpt>
      <trkpt lat="46.17137" lon="4.5221">
        <ele>632</ele>
        <time>2020-10-17T12:38:59Z</time>
      </trkpt>
      <trkpt lat="46.17135" lon="4.52207">
        <ele>631.8</ele>
        <time>2020-10-17T12:39:00Z</time>
      </trkpt>
      <trkpt lat="46.17135" lon="4.52207">
        <ele>631.4</ele>
        <time>2020-10-17T12:39:01Z</time>
      </trkpt>
      <trkpt lat="46.17133" lon="4.52205">
        <ele>631.4</ele>
        <time>2020-10-17T12:39:02Z</time>
      </trkpt>
      <trkpt lat="46.17133" lon="4.52205">
        <ele>631.4</ele>
        <time>2020-10-17T12:39:03Z</time>
      </trkpt>
      <trkpt lat="46.17132" lon="4.52201">
        <ele>631.4</ele>
        <time>2020-10-17T12:39:04Z</time>
      </trkpt>
      <trkpt lat="46.17132" lon="4.52198">
        <ele>631.4</ele>
        <time>2020-10-17T12:39:05Z</time>
      </trkpt>
      <trkpt lat="46.17132" lon="4.52198">
        <ele>631.6</ele>
        <time>2020-10-17T12:39:06Z</time>
      </trkpt>
      <trkpt lat="46.17131" lon="4.52195">
        <ele>631.8</ele>
        <time>2020-10-17T12:39:07Z</time>
      </trkpt>
      <trkpt lat="46.17131" lon="4.52195">
        <ele>632.2</ele>
        <time>2020-10-17T12:39:08Z</time>
      </trkpt>
      <trkpt lat="46.1713" lon="4.52191">
        <ele>632.2</ele>
        <time>2020-10-17T12:39:09Z</time>
      </trkpt>
      <trkpt lat="46.1713" lon="4.52191">
        <ele>632.4</ele>
        <time>2020-10-17T12:39:10Z</time>
      </trkpt>
      <trkpt lat="46.17128" lon="4.52188">
        <ele>632.6</ele>
        <time>2020-10-17T12:39:11Z</time>
      </trkpt>
      <trkpt lat="46.17128" lon="4.52188">
        <ele>632.6</ele>
        <time>2020-10-17T12:39:12Z</time>
      </trkpt>
      <trkpt lat="46.17126" lon="4.52185">
        <ele>632.8</ele>
        <time>2020-10-17T12:39:13Z</time>
      </trkpt>
      <trkpt lat="46.17126" lon="4.52185">
        <ele>632.8</ele>
        <time>2020-10-17T12:39:14Z</time>
      </trkpt>
      <trkpt lat="46.17125" lon="4.52182">
        <ele>632.8</ele>
        <time>2020-10-17T12:39:15Z</time>
      </trkpt>
      <trkpt lat="46.17125" lon="4.52182">
        <ele>633</ele>
        <time>2020-10-17T12:39:16Z</time>
      </trkpt>
      <trkpt lat="46.17124" lon="4.52178">
        <ele>633</ele>
        <time>2020-10-17T12:39:17Z</time>
      </trkpt>
      <trkpt lat="46.17124" lon="4.52178">
        <ele>633</ele>
        <time>2020-10-17T12:39:18Z</time>
      </trkpt>
      <trkpt lat="46.17124" lon="4.52178">
        <ele>632.8</ele>
        <time>2020-10-17T12:39:19Z</time>
      </trkpt>
      <trkpt lat="46.17124" lon="4.52178">
        <ele>633</ele>
        <time>2020-10-17T12:39:20Z</time>
      </trkpt>
      <trkpt lat="46.17122" lon="4.52171">
        <ele>633.2</ele>
        <time>2020-10-17T12:39:21Z</time>
      </trkpt>
      <trkpt lat="46.17122" lon="4.52171">
        <ele>633.4</ele>
        <time>2020-10-17T12:39:22Z</time>
      </trkpt>
      <trkpt lat="46.17122" lon="4.52171">
        <ele>633.4</ele>
        <time>2020-10-17T12:39:23Z</time>
      </trkpt>
      <trkpt lat="46.17122" lon="4.52171">
        <ele>633.2</ele>
        <time>2020-10-17T12:39:24Z</time>
      </trkpt>
      <trkpt lat="46.17118" lon="4.52163">
        <ele>633</ele>
        <time>2020-10-17T12:39:25Z</time>
      </trkpt>
      <trkpt lat="46.17118" lon="4.52163">
        <ele>633</ele>
        <time>2020-10-17T12:39:26Z</time>
      </trkpt>
      <trkpt lat="46.17118" lon="4.52163">
        <ele>633</ele>
        <time>2020-10-17T12:39:27Z</time>
      </trkpt>
      <trkpt lat="46.17118" lon="4.52163">
        <ele>633.2</ele>
        <time>2020-10-17T12:39:28Z</time>
      </trkpt>
      <trkpt lat="46.17116" lon="4.52154">
        <ele>633.4</ele>
        <time>2020-10-17T12:39:29Z</time>
      </trkpt>
      <trkpt lat="46.17116" lon="4.52152">
        <ele>633.4</ele>
        <time>2020-10-17T12:39:30Z</time>
      </trkpt>
      <trkpt lat="46.17116" lon="4.52149">
        <ele>633.6</ele>
        <time>2020-10-17T12:39:31Z</time>
      </trkpt>
      <trkpt lat="46.17116" lon="4.52147">
        <ele>633.6</ele>
        <time>2020-10-17T12:39:32Z</time>
      </trkpt>
      <trkpt lat="46.17115" lon="4.52142">
        <ele>633.4</ele>
        <time>2020-10-17T12:39:33Z</time>
      </trkpt>
      <trkpt lat="46.17115" lon="4.5214">
        <ele>633.6</ele>
        <time>2020-10-17T12:39:34Z</time>
      </trkpt>
      <trkpt lat="46.17114" lon="4.52138">
        <ele>633.8</ele>
        <time>2020-10-17T12:39:35Z</time>
      </trkpt>
      <trkpt lat="46.17113" lon="4.52135">
        <ele>633.8</ele>
        <time>2020-10-17T12:39:36Z</time>
      </trkpt>
      <trkpt lat="46.17113" lon="4.52133">
        <ele>634</ele>
        <time>2020-10-17T12:39:37Z</time>
      </trkpt>
      <trkpt lat="46.17113" lon="4.52133">
        <ele>634</ele>
        <time>2020-10-17T12:39:38Z</time>
      </trkpt>
      <trkpt lat="46.17111" lon="4.52128">
        <ele>633.8</ele>
        <time>2020-10-17T12:39:39Z</time>
      </trkpt>
      <trkpt lat="46.1711" lon="4.52126">
        <ele>634</ele>
        <time>2020-10-17T12:39:40Z</time>
      </trkpt>
      <trkpt lat="46.1711" lon="4.52126">
        <ele>634</ele>
        <time>2020-10-17T12:39:41Z</time>
      </trkpt>
      <trkpt lat="46.1711" lon="4.52126">
        <ele>634.2</ele>
        <time>2020-10-17T12:39:42Z</time>
      </trkpt>
      <trkpt lat="46.17108" lon="4.52119">
        <ele>634.4</ele>
        <time>2020-10-17T12:39:43Z</time>
      </trkpt>
      <trkpt lat="46.17108" lon="4.52118">
        <ele>634.6</ele>
        <time>2020-10-17T12:39:44Z</time>
      </trkpt>
      <trkpt lat="46.17108" lon="4.52116">
        <ele>634.8</ele>
        <time>2020-10-17T12:39:45Z</time>
      </trkpt>
      <trkpt lat="46.17108" lon="4.52114">
        <ele>635</ele>
        <time>2020-10-17T12:39:46Z</time>
      </trkpt>
      <trkpt lat="46.17107" lon="4.5211">
        <ele>635.2</ele>
        <time>2020-10-17T12:39:47Z</time>
      </trkpt>
      <trkpt lat="46.17107" lon="4.5211">
        <ele>635.2</ele>
        <time>2020-10-17T12:39:48Z</time>
      </trkpt>
      <trkpt lat="46.17107" lon="4.52105">
        <ele>635.2</ele>
        <time>2020-10-17T12:39:49Z</time>
      </trkpt>
      <trkpt lat="46.17107" lon="4.52105">
        <ele>635.4</ele>
        <time>2020-10-17T12:39:50Z</time>
      </trkpt>
      <trkpt lat="46.17106" lon="4.52101">
        <ele>635.4</ele>
        <time>2020-10-17T12:39:51Z</time>
      </trkpt>
      <trkpt lat="46.17106" lon="4.52101">
        <ele>635.8</ele>
        <time>2020-10-17T12:39:52Z</time>
      </trkpt>
      <trkpt lat="46.17105" lon="4.52097">
        <ele>636</ele>
        <time>2020-10-17T12:39:53Z</time>
      </trkpt>
      <trkpt lat="46.17105" lon="4.52097">
        <ele>636</ele>
        <time>2020-10-17T12:39:54Z</time>
      </trkpt>
      <trkpt lat="46.17105" lon="4.52094">
        <ele>636.2</ele>
        <time>2020-10-17T12:39:55Z</time>
      </trkpt>
      <trkpt lat="46.17105" lon="4.52094">
        <ele>636.2</ele>
        <time>2020-10-17T12:39:56Z</time>
      </trkpt>
      <trkpt lat="46.17104" lon="4.5209">
        <ele>636.2</ele>
        <time>2020-10-17T12:39:57Z</time>
      </trkpt>
      <trkpt lat="46.17104" lon="4.5209">
        <ele>636.4</ele>
        <time>2020-10-17T12:39:58Z</time>
      </trkpt>
      <trkpt lat="46.17102" lon="4.52087">
        <ele>636.4</ele>
        <time>2020-10-17T12:39:59Z</time>
      </trkpt>
      <trkpt lat="46.17102" lon="4.52087">
        <ele>636.2</ele>
        <time>2020-10-17T12:40:00Z</time>
      </trkpt>
      <trkpt lat="46.171" lon="4.52083">
        <ele>636.4</ele>
        <time>2020-10-17T12:40:01Z</time>
      </trkpt>
      <trkpt lat="46.171" lon="4.52083">
        <ele>636.4</ele>
        <time>2020-10-17T12:40:02Z</time>
      </trkpt>
      <trkpt lat="46.17098" lon="4.52079">
        <ele>636.4</ele>
        <time>2020-10-17T12:40:03Z</time>
      </trkpt>
      <trkpt lat="46.17098" lon="4.52079">
        <ele>636.6</ele>
        <time>2020-10-17T12:40:04Z</time>
      </trkpt>
      <trkpt lat="46.17096" lon="4.52076">
        <ele>636.8</ele>
        <time>2020-10-17T12:40:05Z</time>
      </trkpt>
      <trkpt lat="46.17096" lon="4.52076">
        <ele>637</ele>
        <time>2020-10-17T12:40:06Z</time>
      </trkpt>
      <trkpt lat="46.17095" lon="4.52072">
        <ele>637.2</ele>
        <time>2020-10-17T12:40:07Z</time>
      </trkpt>
      <trkpt lat="46.17095" lon="4.52072">
        <ele>637.2</ele>
        <time>2020-10-17T12:40:08Z</time>
      </trkpt>
      <trkpt lat="46.17095" lon="4.52068">
        <ele>637.2</ele>
        <time>2020-10-17T12:40:09Z</time>
      </trkpt>
      <trkpt lat="46.17095" lon="4.52068">
        <ele>637.4</ele>
        <time>2020-10-17T12:40:10Z</time>
      </trkpt>
      <trkpt lat="46.17096" lon="4.52064">
        <ele>637.4</ele>
        <time>2020-10-17T12:40:11Z</time>
      </trkpt>
      <trkpt lat="46.17096" lon="4.52064">
        <ele>637.2</ele>
        <time>2020-10-17T12:40:12Z</time>
      </trkpt>
      <trkpt lat="46.17095" lon="4.5206">
        <ele>637.4</ele>
        <time>2020-10-17T12:40:13Z</time>
      </trkpt>
      <trkpt lat="46.17095" lon="4.5206">
        <ele>637.4</ele>
        <time>2020-10-17T12:40:14Z</time>
      </trkpt>
      <trkpt lat="46.17096" lon="4.52056">
        <ele>637.6</ele>
        <time>2020-10-17T12:40:15Z</time>
      </trkpt>
      <trkpt lat="46.17096" lon="4.52053">
        <ele>637.8</ele>
        <time>2020-10-17T12:40:16Z</time>
      </trkpt>
      <trkpt lat="46.17096" lon="4.52051">
        <ele>637.8</ele>
        <time>2020-10-17T12:40:17Z</time>
      </trkpt>
      <trkpt lat="46.17095" lon="4.52048">
        <ele>637.8</ele>
        <time>2020-10-17T12:40:18Z</time>
      </trkpt>
      <trkpt lat="46.17094" lon="4.52046">
        <ele>638.2</ele>
        <time>2020-10-17T12:40:19Z</time>
      </trkpt>
      <trkpt lat="46.17094" lon="4.52046">
        <ele>638.4</ele>
        <time>2020-10-17T12:40:20Z</time>
      </trkpt>
      <trkpt lat="46.17093" lon="4.52041">
        <ele>638.8</ele>
        <time>2020-10-17T12:40:21Z</time>
      </trkpt>
      <trkpt lat="46.17093" lon="4.52041">
        <ele>638.8</ele>
        <time>2020-10-17T12:40:22Z</time>
      </trkpt>
      <trkpt lat="46.17093" lon="4.52037">
        <ele>639</ele>
        <time>2020-10-17T12:40:23Z</time>
      </trkpt>
      <trkpt lat="46.17092" lon="4.52034">
        <ele>639</ele>
        <time>2020-10-17T12:40:24Z</time>
      </trkpt>
      <trkpt lat="46.17092" lon="4.52034">
        <ele>639</ele>
        <time>2020-10-17T12:40:25Z</time>
      </trkpt>
      <trkpt lat="46.17091" lon="4.52031">
        <ele>639</ele>
        <time>2020-10-17T12:40:26Z</time>
      </trkpt>
      <trkpt lat="46.17091" lon="4.52031">
        <ele>639.2</ele>
        <time>2020-10-17T12:40:27Z</time>
      </trkpt>
      <trkpt lat="46.17091" lon="4.52027">
        <ele>639.2</ele>
        <time>2020-10-17T12:40:28Z</time>
      </trkpt>
      <trkpt lat="46.17091" lon="4.52027">
        <ele>639.2</ele>
        <time>2020-10-17T12:40:29Z</time>
      </trkpt>
      <trkpt lat="46.1709" lon="4.52023">
        <ele>639.4</ele>
        <time>2020-10-17T12:40:30Z</time>
      </trkpt>
      <trkpt lat="46.1709" lon="4.52023">
        <ele>639.4</ele>
        <time>2020-10-17T12:40:31Z</time>
      </trkpt>
      <trkpt lat="46.17089" lon="4.52018">
        <ele>639.8</ele>
        <time>2020-10-17T12:40:32Z</time>
      </trkpt>
      <trkpt lat="46.17089" lon="4.52018">
        <ele>640</ele>
        <time>2020-10-17T12:40:33Z</time>
      </trkpt>
      <trkpt lat="46.17088" lon="4.52014">
        <ele>640.2</ele>
        <time>2020-10-17T12:40:34Z</time>
      </trkpt>
      <trkpt lat="46.17088" lon="4.52014">
        <ele>640.4</ele>
        <time>2020-10-17T12:40:35Z</time>
      </trkpt>
      <trkpt lat="46.17087" lon="4.52009">
        <ele>640.4</ele>
        <time>2020-10-17T12:40:36Z</time>
      </trkpt>
      <trkpt lat="46.17087" lon="4.52009">
        <ele>640.6</ele>
        <time>2020-10-17T12:40:37Z</time>
      </trkpt>
      <trkpt lat="46.17086" lon="4.52005">
        <ele>640.6</ele>
        <time>2020-10-17T12:40:38Z</time>
      </trkpt>
      <trkpt lat="46.17086" lon="4.52005">
        <ele>640.8</ele>
        <time>2020-10-17T12:40:39Z</time>
      </trkpt>
      <trkpt lat="46.17084" lon="4.52001">
        <ele>640.6</ele>
        <time>2020-10-17T12:40:40Z</time>
      </trkpt>
      <trkpt lat="46.17084" lon="4.52001">
        <ele>640.6</ele>
        <time>2020-10-17T12:40:41Z</time>
      </trkpt>
      <trkpt lat="46.17082" lon="4.51997">
        <ele>640.6</ele>
        <time>2020-10-17T12:40:42Z</time>
      </trkpt>
      <trkpt lat="46.17082" lon="4.51997">
        <ele>640.6</ele>
        <time>2020-10-17T12:40:43Z</time>
      </trkpt>
      <trkpt lat="46.1708" lon="4.51994">
        <ele>640.8</ele>
        <time>2020-10-17T12:40:44Z</time>
      </trkpt>
      <trkpt lat="46.1708" lon="4.51994">
        <ele>640.8</ele>
        <time>2020-10-17T12:40:45Z</time>
      </trkpt>
      <trkpt lat="46.1708" lon="4.51994">
        <ele>641</ele>
        <time>2020-10-17T12:40:46Z</time>
      </trkpt>
      <trkpt lat="46.17078" lon="4.51992">
        <ele>641.2</ele>
        <time>2020-10-17T12:40:47Z</time>
      </trkpt>
      <trkpt lat="46.17078" lon="4.51992">
        <ele>641.2</ele>
        <time>2020-10-17T12:40:48Z</time>
      </trkpt>
      <trkpt lat="46.17077" lon="4.5199">
        <ele>641.2</ele>
        <time>2020-10-17T12:40:49Z</time>
      </trkpt>
      <trkpt lat="46.17076" lon="4.51988">
        <ele>641.4</ele>
        <time>2020-10-17T12:40:50Z</time>
      </trkpt>
      <trkpt lat="46.17076" lon="4.51988">
        <ele>641.2</ele>
        <time>2020-10-17T12:40:51Z</time>
      </trkpt>
      <trkpt lat="46.17075" lon="4.51984">
        <ele>641.4</ele>
        <time>2020-10-17T12:40:52Z</time>
      </trkpt>
      <trkpt lat="46.17075" lon="4.51984">
        <ele>641.6</ele>
        <time>2020-10-17T12:40:53Z</time>
      </trkpt>
      <trkpt lat="46.17074" lon="4.51979">
        <ele>641.8</ele>
        <time>2020-10-17T12:40:54Z</time>
      </trkpt>
      <trkpt lat="46.17074" lon="4.51979">
        <ele>641.6</ele>
        <time>2020-10-17T12:40:55Z</time>
      </trkpt>
      <trkpt lat="46.17073" lon="4.51975">
        <ele>641.6</ele>
        <time>2020-10-17T12:40:56Z</time>
      </trkpt>
      <trkpt lat="46.17073" lon="4.51975">
        <ele>641.6</ele>
        <time>2020-10-17T12:40:57Z</time>
      </trkpt>
      <trkpt lat="46.17071" lon="4.51971">
        <ele>641.6</ele>
        <time>2020-10-17T12:40:58Z</time>
      </trkpt>
      <trkpt lat="46.17071" lon="4.51971">
        <ele>641.4</ele>
        <time>2020-10-17T12:40:59Z</time>
      </trkpt>
      <trkpt lat="46.17069" lon="4.51967">
        <ele>641.6</ele>
        <time>2020-10-17T12:41:00Z</time>
      </trkpt>
      <trkpt lat="46.17069" lon="4.51967">
        <ele>641.6</ele>
        <time>2020-10-17T12:41:01Z</time>
      </trkpt>
      <trkpt lat="46.17067" lon="4.51964">
        <ele>641.6</ele>
        <time>2020-10-17T12:41:02Z</time>
      </trkpt>
      <trkpt lat="46.17067" lon="4.51964">
        <ele>641.6</ele>
        <time>2020-10-17T12:41:03Z</time>
      </trkpt>
      <trkpt lat="46.17065" lon="4.51961">
        <ele>641.6</ele>
        <time>2020-10-17T12:41:04Z</time>
      </trkpt>
      <trkpt lat="46.17065" lon="4.51961">
        <ele>641.6</ele>
        <time>2020-10-17T12:41:05Z</time>
      </trkpt>
      <trkpt lat="46.17062" lon="4.51958">
        <ele>641.8</ele>
        <time>2020-10-17T12:41:06Z</time>
      </trkpt>
      <trkpt lat="46.17062" lon="4.51958">
        <ele>642</ele>
        <time>2020-10-17T12:41:07Z</time>
      </trkpt>
      <trkpt lat="46.1706" lon="4.51956">
        <ele>642</ele>
        <time>2020-10-17T12:41:08Z</time>
      </trkpt>
      <trkpt lat="46.1706" lon="4.51956">
        <ele>642</ele>
        <time>2020-10-17T12:41:09Z</time>
      </trkpt>
      <trkpt lat="46.17057" lon="4.51954">
        <ele>642</ele>
        <time>2020-10-17T12:41:10Z</time>
      </trkpt>
      <trkpt lat="46.17057" lon="4.51954">
        <ele>642.2</ele>
        <time>2020-10-17T12:41:11Z</time>
      </trkpt>
      <trkpt lat="46.17055" lon="4.51952">
        <ele>642.2</ele>
        <time>2020-10-17T12:41:12Z</time>
      </trkpt>
      <trkpt lat="46.17055" lon="4.51952">
        <ele>642.2</ele>
        <time>2020-10-17T12:41:13Z</time>
      </trkpt>
      <trkpt lat="46.17052" lon="4.5195">
        <ele>642.4</ele>
        <time>2020-10-17T12:41:14Z</time>
      </trkpt>
      <trkpt lat="46.17052" lon="4.5195">
        <ele>642.8</ele>
        <time>2020-10-17T12:41:15Z</time>
      </trkpt>
      <trkpt lat="46.1705" lon="4.51948">
        <ele>642.8</ele>
        <time>2020-10-17T12:41:16Z</time>
      </trkpt>
      <trkpt lat="46.1705" lon="4.51948">
        <ele>642.8</ele>
        <time>2020-10-17T12:41:17Z</time>
      </trkpt>
      <trkpt lat="46.17047" lon="4.51947">
        <ele>642.8</ele>
        <time>2020-10-17T12:41:18Z</time>
      </trkpt>
      <trkpt lat="46.17047" lon="4.51947">
        <ele>642.8</ele>
        <time>2020-10-17T12:41:19Z</time>
      </trkpt>
      <trkpt lat="46.17045" lon="4.51946">
        <ele>643</ele>
        <time>2020-10-17T12:41:20Z</time>
      </trkpt>
      <trkpt lat="46.17045" lon="4.51946">
        <ele>643</ele>
        <time>2020-10-17T12:41:21Z</time>
      </trkpt>
      <trkpt lat="46.17043" lon="4.51944">
        <ele>643</ele>
        <time>2020-10-17T12:41:22Z</time>
      </trkpt>
      <trkpt lat="46.17043" lon="4.51944">
        <ele>642.8</ele>
        <time>2020-10-17T12:41:23Z</time>
      </trkpt>
      <trkpt lat="46.17042" lon="4.51943">
        <ele>642.8</ele>
        <time>2020-10-17T12:41:24Z</time>
      </trkpt>
      <trkpt lat="46.17042" lon="4.51943">
        <ele>642.8</ele>
        <time>2020-10-17T12:41:25Z</time>
      </trkpt>
      <trkpt lat="46.17042" lon="4.51943">
        <ele>642.6</ele>
        <time>2020-10-17T12:41:26Z</time>
      </trkpt>
      <trkpt lat="46.17039" lon="4.51941">
        <ele>642.4</ele>
        <time>2020-10-17T12:41:27Z</time>
      </trkpt>
      <trkpt lat="46.17039" lon="4.51941">
        <ele>642.6</ele>
        <time>2020-10-17T12:41:28Z</time>
      </trkpt>
      <trkpt lat="46.17037" lon="4.5194">
        <ele>642.6</ele>
        <time>2020-10-17T12:41:29Z</time>
      </trkpt>
      <trkpt lat="46.17037" lon="4.5194">
        <ele>642.6</ele>
        <time>2020-10-17T12:41:30Z</time>
      </trkpt>
      <trkpt lat="46.17034" lon="4.51939">
        <ele>642.6</ele>
        <time>2020-10-17T12:41:31Z</time>
      </trkpt>
      <trkpt lat="46.17034" lon="4.51939">
        <ele>642.4</ele>
        <time>2020-10-17T12:41:32Z</time>
      </trkpt>
      <trkpt lat="46.17031" lon="4.51937">
        <ele>642.4</ele>
        <time>2020-10-17T12:41:33Z</time>
      </trkpt>
      <trkpt lat="46.17031" lon="4.51937">
        <ele>642.4</ele>
        <time>2020-10-17T12:41:34Z</time>
      </trkpt>
      <trkpt lat="46.17027" lon="4.51935">
        <ele>642.4</ele>
        <time>2020-10-17T12:41:35Z</time>
      </trkpt>
      <trkpt lat="46.17025" lon="4.51933">
        <ele>642.4</ele>
        <time>2020-10-17T12:41:36Z</time>
      </trkpt>
      <trkpt lat="46.17024" lon="4.51931">
        <ele>642.6</ele>
        <time>2020-10-17T12:41:37Z</time>
      </trkpt>
      <trkpt lat="46.17022" lon="4.51929">
        <ele>642.6</ele>
        <time>2020-10-17T12:41:38Z</time>
      </trkpt>
      <trkpt lat="46.17022" lon="4.51929">
        <ele>642.4</ele>
        <time>2020-10-17T12:41:39Z</time>
      </trkpt>
      <trkpt lat="46.17019" lon="4.51927">
        <ele>642.2</ele>
        <time>2020-10-17T12:41:40Z</time>
      </trkpt>
      <trkpt lat="46.17019" lon="4.51927">
        <ele>642.4</ele>
        <time>2020-10-17T12:41:41Z</time>
      </trkpt>
      <trkpt lat="46.17016" lon="4.51925">
        <ele>642.4</ele>
        <time>2020-10-17T12:41:42Z</time>
      </trkpt>
      <trkpt lat="46.17016" lon="4.51925">
        <ele>642.4</ele>
        <time>2020-10-17T12:41:43Z</time>
      </trkpt>
      <trkpt lat="46.17013" lon="4.51923">
        <ele>642.2</ele>
        <time>2020-10-17T12:41:44Z</time>
      </trkpt>
      <trkpt lat="46.17013" lon="4.51923">
        <ele>642.2</ele>
        <time>2020-10-17T12:41:45Z</time>
      </trkpt>
      <trkpt lat="46.1701" lon="4.51921">
        <ele>642</ele>
        <time>2020-10-17T12:41:46Z</time>
      </trkpt>
      <trkpt lat="46.1701" lon="4.51921">
        <ele>642</ele>
        <time>2020-10-17T12:41:47Z</time>
      </trkpt>
      <trkpt lat="46.17007" lon="4.51919">
        <ele>642</ele>
        <time>2020-10-17T12:41:48Z</time>
      </trkpt>
      <trkpt lat="46.17007" lon="4.51919">
        <ele>642</ele>
        <time>2020-10-17T12:41:49Z</time>
      </trkpt>
      <trkpt lat="46.17004" lon="4.51917">
        <ele>642.2</ele>
        <time>2020-10-17T12:41:50Z</time>
      </trkpt>
      <trkpt lat="46.17004" lon="4.51917">
        <ele>642.2</ele>
        <time>2020-10-17T12:41:51Z</time>
      </trkpt>
      <trkpt lat="46.17001" lon="4.51916">
        <ele>642</ele>
        <time>2020-10-17T12:41:52Z</time>
      </trkpt>
      <trkpt lat="46.17001" lon="4.51916">
        <ele>642</ele>
        <time>2020-10-17T12:41:53Z</time>
      </trkpt>
      <trkpt lat="46.16999" lon="4.51914">
        <ele>642</ele>
        <time>2020-10-17T12:41:54Z</time>
      </trkpt>
      <trkpt lat="46.16999" lon="4.51914">
        <ele>642</ele>
        <time>2020-10-17T12:41:55Z</time>
      </trkpt>
      <trkpt lat="46.16995" lon="4.51913">
        <ele>642</ele>
        <time>2020-10-17T12:41:56Z</time>
      </trkpt>
      <trkpt lat="46.16994" lon="4.51912">
        <ele>641.8</ele>
        <time>2020-10-17T12:41:57Z</time>
      </trkpt>
      <trkpt lat="46.16994" lon="4.51912">
        <ele>641.8</ele>
        <time>2020-10-17T12:41:58Z</time>
      </trkpt>
      <trkpt lat="46.16991" lon="4.51911">
        <ele>641.8</ele>
        <time>2020-10-17T12:41:59Z</time>
      </trkpt>
      <trkpt lat="46.16991" lon="4.51911">
        <ele>641.8</ele>
        <time>2020-10-17T12:42:00Z</time>
      </trkpt>
      <trkpt lat="46.16988" lon="4.5191">
        <ele>641.8</ele>
        <time>2020-10-17T12:42:01Z</time>
      </trkpt>
      <trkpt lat="46.16988" lon="4.5191">
        <ele>641.8</ele>
        <time>2020-10-17T12:42:02Z</time>
      </trkpt>
      <trkpt lat="46.16985" lon="4.51909">
        <ele>641.8</ele>
        <time>2020-10-17T12:42:03Z</time>
      </trkpt>
      <trkpt lat="46.16985" lon="4.51909">
        <ele>642</ele>
        <time>2020-10-17T12:42:04Z</time>
      </trkpt>
      <trkpt lat="46.16983" lon="4.51908">
        <ele>641.8</ele>
        <time>2020-10-17T12:42:05Z</time>
      </trkpt>
      <trkpt lat="46.16983" lon="4.51908">
        <ele>642</ele>
        <time>2020-10-17T12:42:06Z</time>
      </trkpt>
      <trkpt lat="46.16979" lon="4.51907">
        <ele>642</ele>
        <time>2020-10-17T12:42:07Z</time>
      </trkpt>
      <trkpt lat="46.16979" lon="4.51907">
        <ele>642</ele>
        <time>2020-10-17T12:42:08Z</time>
      </trkpt>
      <trkpt lat="46.16976" lon="4.51907">
        <ele>642</ele>
        <time>2020-10-17T12:42:09Z</time>
      </trkpt>
      <trkpt lat="46.16976" lon="4.51907">
        <ele>642</ele>
        <time>2020-10-17T12:42:10Z</time>
      </trkpt>
      <trkpt lat="46.16973" lon="4.51907">
        <ele>642</ele>
        <time>2020-10-17T12:42:11Z</time>
      </trkpt>
      <trkpt lat="46.16973" lon="4.51907">
        <ele>642</ele>
        <time>2020-10-17T12:42:12Z</time>
      </trkpt>
      <trkpt lat="46.16971" lon="4.51908">
        <ele>642</ele>
        <time>2020-10-17T12:42:13Z</time>
      </trkpt>
      <trkpt lat="46.16971" lon="4.51908">
        <ele>641.8</ele>
        <time>2020-10-17T12:42:14Z</time>
      </trkpt>
      <trkpt lat="46.16968" lon="4.51908">
        <ele>641.8</ele>
        <time>2020-10-17T12:42:15Z</time>
      </trkpt>
      <trkpt lat="46.16968" lon="4.51908">
        <ele>641.6</ele>
        <time>2020-10-17T12:42:16Z</time>
      </trkpt>
      <trkpt lat="46.16966" lon="4.51907">
        <ele>641.6</ele>
        <time>2020-10-17T12:42:17Z</time>
      </trkpt>
      <trkpt lat="46.16966" lon="4.51907">
        <ele>641.8</ele>
        <time>2020-10-17T12:42:18Z</time>
      </trkpt>
      <trkpt lat="46.16963" lon="4.51906">
        <ele>641.6</ele>
        <time>2020-10-17T12:42:19Z</time>
      </trkpt>
      <trkpt lat="46.16963" lon="4.51906">
        <ele>641.6</ele>
        <time>2020-10-17T12:42:20Z</time>
      </trkpt>
      <trkpt lat="46.16959" lon="4.51905">
        <ele>641.8</ele>
        <time>2020-10-17T12:42:21Z</time>
      </trkpt>
      <trkpt lat="46.16957" lon="4.51905">
        <ele>641.8</ele>
        <time>2020-10-17T12:42:22Z</time>
      </trkpt>
      <trkpt lat="46.16955" lon="4.51904">
        <ele>641.8</ele>
        <time>2020-10-17T12:42:23Z</time>
      </trkpt>
      <trkpt lat="46.16953" lon="4.51903">
        <ele>641.8</ele>
        <time>2020-10-17T12:42:24Z</time>
      </trkpt>
      <trkpt lat="46.16951" lon="4.51902">
        <ele>641.8</ele>
        <time>2020-10-17T12:42:25Z</time>
      </trkpt>
      <trkpt lat="46.16949" lon="4.51901">
        <ele>642</ele>
        <time>2020-10-17T12:42:26Z</time>
      </trkpt>
      <trkpt lat="46.16947" lon="4.519">
        <ele>642.2</ele>
        <time>2020-10-17T12:42:27Z</time>
      </trkpt>
      <trkpt lat="46.16947" lon="4.519">
        <ele>642.4</ele>
        <time>2020-10-17T12:42:28Z</time>
      </trkpt>
      <trkpt lat="46.16944" lon="4.51899">
        <ele>642.4</ele>
        <time>2020-10-17T12:42:29Z</time>
      </trkpt>
      <trkpt lat="46.16941" lon="4.51898">
        <ele>642.4</ele>
        <time>2020-10-17T12:42:30Z</time>
      </trkpt>
      <trkpt lat="46.1694" lon="4.51898">
        <ele>642.6</ele>
        <time>2020-10-17T12:42:31Z</time>
      </trkpt>
      <trkpt lat="46.16939" lon="4.51898">
        <ele>642.6</ele>
        <time>2020-10-17T12:42:32Z</time>
      </trkpt>
      <trkpt lat="46.16937" lon="4.51897">
        <ele>642.4</ele>
        <time>2020-10-17T12:42:33Z</time>
      </trkpt>
      <trkpt lat="46.16936" lon="4.51897">
        <ele>642.6</ele>
        <time>2020-10-17T12:42:34Z</time>
      </trkpt>
      <trkpt lat="46.16934" lon="4.51896">
        <ele>642.6</ele>
        <time>2020-10-17T12:42:35Z</time>
      </trkpt>
      <trkpt lat="46.16932" lon="4.51895">
        <ele>642.6</ele>
        <time>2020-10-17T12:42:36Z</time>
      </trkpt>
      <trkpt lat="46.1693" lon="4.51894">
        <ele>642.6</ele>
        <time>2020-10-17T12:42:37Z</time>
      </trkpt>
      <trkpt lat="46.16928" lon="4.51893">
        <ele>642.6</ele>
        <time>2020-10-17T12:42:38Z</time>
      </trkpt>
      <trkpt lat="46.16925" lon="4.51893">
        <ele>642.8</ele>
        <time>2020-10-17T12:42:39Z</time>
      </trkpt>
      <trkpt lat="46.16924" lon="4.51892">
        <ele>642.8</ele>
        <time>2020-10-17T12:42:40Z</time>
      </trkpt>
      <trkpt lat="46.16922" lon="4.51891">
        <ele>642.8</ele>
        <time>2020-10-17T12:42:41Z</time>
      </trkpt>
      <trkpt lat="46.1692" lon="4.5189">
        <ele>643</ele>
        <time>2020-10-17T12:42:42Z</time>
      </trkpt>
      <trkpt lat="46.1692" lon="4.5189">
        <ele>643</ele>
        <time>2020-10-17T12:42:43Z</time>
      </trkpt>
      <trkpt lat="46.16917" lon="4.51889">
        <ele>642.8</ele>
        <time>2020-10-17T12:42:44Z</time>
      </trkpt>
      <trkpt lat="46.16917" lon="4.51889">
        <ele>643</ele>
        <time>2020-10-17T12:42:45Z</time>
      </trkpt>
      <trkpt lat="46.16915" lon="4.51888">
        <ele>643</ele>
        <time>2020-10-17T12:42:46Z</time>
      </trkpt>
      <trkpt lat="46.16915" lon="4.51888">
        <ele>643</ele>
        <time>2020-10-17T12:42:47Z</time>
      </trkpt>
      <trkpt lat="46.16912" lon="4.51886">
        <ele>643</ele>
        <time>2020-10-17T12:42:48Z</time>
      </trkpt>
      <trkpt lat="46.16912" lon="4.51886">
        <ele>643.2</ele>
        <time>2020-10-17T12:42:49Z</time>
      </trkpt>
      <trkpt lat="46.1691" lon="4.51886">
        <ele>643.2</ele>
        <time>2020-10-17T12:42:50Z</time>
      </trkpt>
      <trkpt lat="46.16908" lon="4.51885">
        <ele>643</ele>
        <time>2020-10-17T12:42:51Z</time>
      </trkpt>
      <trkpt lat="46.16908" lon="4.51885">
        <ele>643</ele>
        <time>2020-10-17T12:42:52Z</time>
      </trkpt>
      <trkpt lat="46.16906" lon="4.51884">
        <ele>643.2</ele>
        <time>2020-10-17T12:42:53Z</time>
      </trkpt>
      <trkpt lat="46.16906" lon="4.51884">
        <ele>643.2</ele>
        <time>2020-10-17T12:42:54Z</time>
      </trkpt>
      <trkpt lat="46.16903" lon="4.51884">
        <ele>643.4</ele>
        <time>2020-10-17T12:42:55Z</time>
      </trkpt>
      <trkpt lat="46.16903" lon="4.51884">
        <ele>643.4</ele>
        <time>2020-10-17T12:42:56Z</time>
      </trkpt>
      <trkpt lat="46.169" lon="4.51883">
        <ele>643.4</ele>
        <time>2020-10-17T12:42:57Z</time>
      </trkpt>
      <trkpt lat="46.16898" lon="4.51882">
        <ele>643.4</ele>
        <time>2020-10-17T12:42:58Z</time>
      </trkpt>
      <trkpt lat="46.16896" lon="4.51882">
        <ele>643.4</ele>
        <time>2020-10-17T12:42:59Z</time>
      </trkpt>
      <trkpt lat="46.16896" lon="4.51882">
        <ele>643.4</ele>
        <time>2020-10-17T12:43:00Z</time>
      </trkpt>
      <trkpt lat="46.16893" lon="4.51882">
        <ele>643.8</ele>
        <time>2020-10-17T12:43:01Z</time>
      </trkpt>
      <trkpt lat="46.16893" lon="4.51882">
        <ele>643.8</ele>
        <time>2020-10-17T12:43:02Z</time>
      </trkpt>
      <trkpt lat="46.1689" lon="4.51881">
        <ele>644</ele>
        <time>2020-10-17T12:43:03Z</time>
      </trkpt>
      <trkpt lat="46.1689" lon="4.51881">
        <ele>644</ele>
        <time>2020-10-17T12:43:04Z</time>
      </trkpt>
      <trkpt lat="46.1689" lon="4.51881">
        <ele>644.2</ele>
        <time>2020-10-17T12:43:05Z</time>
      </trkpt>
      <trkpt lat="46.16885" lon="4.5188">
        <ele>644.2</ele>
        <time>2020-10-17T12:43:06Z</time>
      </trkpt>
      <trkpt lat="46.16884" lon="4.51879">
        <ele>644.4</ele>
        <time>2020-10-17T12:43:07Z</time>
      </trkpt>
      <trkpt lat="46.16882" lon="4.51878">
        <ele>644.4</ele>
        <time>2020-10-17T12:43:08Z</time>
      </trkpt>
      <trkpt lat="46.16881" lon="4.51878">
        <ele>644.4</ele>
        <time>2020-10-17T12:43:09Z</time>
      </trkpt>
      <trkpt lat="46.16879" lon="4.51877">
        <ele>644.6</ele>
        <time>2020-10-17T12:43:10Z</time>
      </trkpt>
      <trkpt lat="46.16879" lon="4.51877">
        <ele>644.6</ele>
        <time>2020-10-17T12:43:11Z</time>
      </trkpt>
      <trkpt lat="46.16877" lon="4.51876">
        <ele>644.6</ele>
        <time>2020-10-17T12:43:12Z</time>
      </trkpt>
      <trkpt lat="46.16877" lon="4.51876">
        <ele>644.8</ele>
        <time>2020-10-17T12:43:13Z</time>
      </trkpt>
      <trkpt lat="46.16875" lon="4.51874">
        <ele>645</ele>
        <time>2020-10-17T12:43:14Z</time>
      </trkpt>
      <trkpt lat="46.16875" lon="4.51874">
        <ele>645</ele>
        <time>2020-10-17T12:43:15Z</time>
      </trkpt>
      <trkpt lat="46.16873" lon="4.51872">
        <ele>645</ele>
        <time>2020-10-17T12:43:16Z</time>
      </trkpt>
      <trkpt lat="46.16873" lon="4.51872">
        <ele>645</ele>
        <time>2020-10-17T12:43:17Z</time>
      </trkpt>
      <trkpt lat="46.1687" lon="4.5187">
        <ele>645</ele>
        <time>2020-10-17T12:43:18Z</time>
      </trkpt>
      <trkpt lat="46.1687" lon="4.5187">
        <ele>645.2</ele>
        <time>2020-10-17T12:43:19Z</time>
      </trkpt>
      <trkpt lat="46.16867" lon="4.51867">
        <ele>645.2</ele>
        <time>2020-10-17T12:43:20Z</time>
      </trkpt>
      <trkpt lat="46.16865" lon="4.51866">
        <ele>645.4</ele>
        <time>2020-10-17T12:43:21Z</time>
      </trkpt>
      <trkpt lat="46.16863" lon="4.51865">
        <ele>645.4</ele>
        <time>2020-10-17T12:43:22Z</time>
      </trkpt>
      <trkpt lat="46.16861" lon="4.51865">
        <ele>645.6</ele>
        <time>2020-10-17T12:43:23Z</time>
      </trkpt>
      <trkpt lat="46.16859" lon="4.51864">
        <ele>645.6</ele>
        <time>2020-10-17T12:43:24Z</time>
      </trkpt>
      <trkpt lat="46.16859" lon="4.51864">
        <ele>645.6</ele>
        <time>2020-10-17T12:43:25Z</time>
      </trkpt>
      <trkpt lat="46.16856" lon="4.51862">
        <ele>645.8</ele>
        <time>2020-10-17T12:43:26Z</time>
      </trkpt>
      <trkpt lat="46.16856" lon="4.51862">
        <ele>646</ele>
        <time>2020-10-17T12:43:27Z</time>
      </trkpt>
      <trkpt lat="46.16853" lon="4.5186">
        <ele>646.2</ele>
        <time>2020-10-17T12:43:28Z</time>
      </trkpt>
      <trkpt lat="46.16853" lon="4.5186">
        <ele>646.4</ele>
        <time>2020-10-17T12:43:29Z</time>
      </trkpt>
      <trkpt lat="46.16851" lon="4.51858">
        <ele>646.4</ele>
        <time>2020-10-17T12:43:30Z</time>
      </trkpt>
      <trkpt lat="46.16851" lon="4.51858">
        <ele>646.6</ele>
        <time>2020-10-17T12:43:31Z</time>
      </trkpt>
      <trkpt lat="46.16848" lon="4.51855">
        <ele>646.8</ele>
        <time>2020-10-17T12:43:32Z</time>
      </trkpt>
      <trkpt lat="46.16848" lon="4.51855">
        <ele>646.8</ele>
        <time>2020-10-17T12:43:33Z</time>
      </trkpt>
      <trkpt lat="46.16845" lon="4.51853">
        <ele>646.8</ele>
        <time>2020-10-17T12:43:34Z</time>
      </trkpt>
      <trkpt lat="46.16845" lon="4.51853">
        <ele>647</ele>
        <time>2020-10-17T12:43:35Z</time>
      </trkpt>
      <trkpt lat="46.16842" lon="4.51851">
        <ele>647</ele>
        <time>2020-10-17T12:43:36Z</time>
      </trkpt>
      <trkpt lat="46.16842" lon="4.51851">
        <ele>647</ele>
        <time>2020-10-17T12:43:37Z</time>
      </trkpt>
      <trkpt lat="46.1684" lon="4.51849">
        <ele>647</ele>
        <time>2020-10-17T12:43:38Z</time>
      </trkpt>
      <trkpt lat="46.1684" lon="4.51849">
        <ele>647</ele>
        <time>2020-10-17T12:43:39Z</time>
      </trkpt>
      <trkpt lat="46.16838" lon="4.51848">
        <ele>647</ele>
        <time>2020-10-17T12:43:40Z</time>
      </trkpt>
      <trkpt lat="46.16838" lon="4.51848">
        <ele>647</ele>
        <time>2020-10-17T12:43:41Z</time>
      </trkpt>
      <trkpt lat="46.16836" lon="4.51846">
        <ele>647</ele>
        <time>2020-10-17T12:43:42Z</time>
      </trkpt>
      <trkpt lat="46.16836" lon="4.51846">
        <ele>647.4</ele>
        <time>2020-10-17T12:43:43Z</time>
      </trkpt>
      <trkpt lat="46.16833" lon="4.51845">
        <ele>647.4</ele>
        <time>2020-10-17T12:43:44Z</time>
      </trkpt>
      <trkpt lat="46.16833" lon="4.51845">
        <ele>647.6</ele>
        <time>2020-10-17T12:43:45Z</time>
      </trkpt>
      <trkpt lat="46.16831" lon="4.51843">
        <ele>647.8</ele>
        <time>2020-10-17T12:43:46Z</time>
      </trkpt>
      <trkpt lat="46.16831" lon="4.51843">
        <ele>647.8</ele>
        <time>2020-10-17T12:43:47Z</time>
      </trkpt>
      <trkpt lat="46.16829" lon="4.5184">
        <ele>648</ele>
        <time>2020-10-17T12:43:48Z</time>
      </trkpt>
      <trkpt lat="46.16829" lon="4.5184">
        <ele>648</ele>
        <time>2020-10-17T12:43:49Z</time>
      </trkpt>
      <trkpt lat="46.16826" lon="4.51838">
        <ele>648.2</ele>
        <time>2020-10-17T12:43:50Z</time>
      </trkpt>
      <trkpt lat="46.16826" lon="4.51838">
        <ele>648.2</ele>
        <time>2020-10-17T12:43:51Z</time>
      </trkpt>
      <trkpt lat="46.16823" lon="4.51837">
        <ele>648.2</ele>
        <time>2020-10-17T12:43:52Z</time>
      </trkpt>
      <trkpt lat="46.16823" lon="4.51837">
        <ele>648.2</ele>
        <time>2020-10-17T12:43:53Z</time>
      </trkpt>
      <trkpt lat="46.1682" lon="4.51835">
        <ele>648.2</ele>
        <time>2020-10-17T12:43:54Z</time>
      </trkpt>
      <trkpt lat="46.1682" lon="4.51835">
        <ele>648.2</ele>
        <time>2020-10-17T12:43:55Z</time>
      </trkpt>
      <trkpt lat="46.16818" lon="4.51834">
        <ele>648.4</ele>
        <time>2020-10-17T12:43:56Z</time>
      </trkpt>
      <trkpt lat="46.16818" lon="4.51834">
        <ele>648.4</ele>
        <time>2020-10-17T12:43:57Z</time>
      </trkpt>
      <trkpt lat="46.16815" lon="4.51831">
        <ele>648.6</ele>
        <time>2020-10-17T12:43:58Z</time>
      </trkpt>
      <trkpt lat="46.16815" lon="4.51831">
        <ele>648.6</ele>
        <time>2020-10-17T12:43:59Z</time>
      </trkpt>
      <trkpt lat="46.16812" lon="4.5183">
        <ele>648.8</ele>
        <time>2020-10-17T12:44:00Z</time>
      </trkpt>
      <trkpt lat="46.16812" lon="4.5183">
        <ele>649</ele>
        <time>2020-10-17T12:44:01Z</time>
      </trkpt>
      <trkpt lat="46.16809" lon="4.51828">
        <ele>649.2</ele>
        <time>2020-10-17T12:44:02Z</time>
      </trkpt>
      <trkpt lat="46.16809" lon="4.51828">
        <ele>649.4</ele>
        <time>2020-10-17T12:44:03Z</time>
      </trkpt>
      <trkpt lat="46.16806" lon="4.51825">
        <ele>649.6</ele>
        <time>2020-10-17T12:44:04Z</time>
      </trkpt>
      <trkpt lat="46.16806" lon="4.51825">
        <ele>649.6</ele>
        <time>2020-10-17T12:44:05Z</time>
      </trkpt>
      <trkpt lat="46.16804" lon="4.51823">
        <ele>649.8</ele>
        <time>2020-10-17T12:44:06Z</time>
      </trkpt>
      <trkpt lat="46.16804" lon="4.51823">
        <ele>650.2</ele>
        <time>2020-10-17T12:44:07Z</time>
      </trkpt>
      <trkpt lat="46.16801" lon="4.51821">
        <ele>650.4</ele>
        <time>2020-10-17T12:44:08Z</time>
      </trkpt>
      <trkpt lat="46.16801" lon="4.51821">
        <ele>650.6</ele>
        <time>2020-10-17T12:44:09Z</time>
      </trkpt>
      <trkpt lat="46.16799" lon="4.51819">
        <ele>650.8</ele>
        <time>2020-10-17T12:44:10Z</time>
      </trkpt>
      <trkpt lat="46.16799" lon="4.51819">
        <ele>651</ele>
        <time>2020-10-17T12:44:11Z</time>
      </trkpt>
      <trkpt lat="46.16796" lon="4.51818">
        <ele>651</ele>
        <time>2020-10-17T12:44:12Z</time>
      </trkpt>
      <trkpt lat="46.16796" lon="4.51818">
        <ele>651.4</ele>
        <time>2020-10-17T12:44:13Z</time>
      </trkpt>
      <trkpt lat="46.16794" lon="4.51816">
        <ele>651.4</ele>
        <time>2020-10-17T12:44:14Z</time>
      </trkpt>
      <trkpt lat="46.16792" lon="4.51814">
        <ele>651.6</ele>
        <time>2020-10-17T12:44:15Z</time>
      </trkpt>
      <trkpt lat="46.16792" lon="4.51814">
        <ele>651.6</ele>
        <time>2020-10-17T12:44:16Z</time>
      </trkpt>
      <trkpt lat="46.16789" lon="4.51813">
        <ele>651.8</ele>
        <time>2020-10-17T12:44:17Z</time>
      </trkpt>
      <trkpt lat="46.16789" lon="4.51813">
        <ele>651.8</ele>
        <time>2020-10-17T12:44:18Z</time>
      </trkpt>
      <trkpt lat="46.16786" lon="4.51811">
        <ele>652</ele>
        <time>2020-10-17T12:44:19Z</time>
      </trkpt>
      <trkpt lat="46.16786" lon="4.51811">
        <ele>652</ele>
        <time>2020-10-17T12:44:20Z</time>
      </trkpt>
      <trkpt lat="46.16783" lon="4.5181">
        <ele>652</ele>
        <time>2020-10-17T12:44:21Z</time>
      </trkpt>
      <trkpt lat="46.16783" lon="4.5181">
        <ele>652.4</ele>
        <time>2020-10-17T12:44:22Z</time>
      </trkpt>
      <trkpt lat="46.1678" lon="4.51809">
        <ele>652.4</ele>
        <time>2020-10-17T12:44:23Z</time>
      </trkpt>
      <trkpt lat="46.1678" lon="4.51809">
        <ele>652.6</ele>
        <time>2020-10-17T12:44:24Z</time>
      </trkpt>
      <trkpt lat="46.16777" lon="4.51808">
        <ele>652.6</ele>
        <time>2020-10-17T12:44:25Z</time>
      </trkpt>
      <trkpt lat="46.16777" lon="4.51808">
        <ele>653</ele>
        <time>2020-10-17T12:44:26Z</time>
      </trkpt>
      <trkpt lat="46.16774" lon="4.51806">
        <ele>653.2</ele>
        <time>2020-10-17T12:44:27Z</time>
      </trkpt>
      <trkpt lat="46.16774" lon="4.51806">
        <ele>653.2</ele>
        <time>2020-10-17T12:44:28Z</time>
      </trkpt>
      <trkpt lat="46.16771" lon="4.51804">
        <ele>653.4</ele>
        <time>2020-10-17T12:44:29Z</time>
      </trkpt>
      <trkpt lat="46.16771" lon="4.51804">
        <ele>653.6</ele>
        <time>2020-10-17T12:44:30Z</time>
      </trkpt>
      <trkpt lat="46.16768" lon="4.51802">
        <ele>653.8</ele>
        <time>2020-10-17T12:44:31Z</time>
      </trkpt>
      <trkpt lat="46.16768" lon="4.51802">
        <ele>653.8</ele>
        <time>2020-10-17T12:44:32Z</time>
      </trkpt>
      <trkpt lat="46.16765" lon="4.518">
        <ele>654</ele>
        <time>2020-10-17T12:44:33Z</time>
      </trkpt>
      <trkpt lat="46.16763" lon="4.51799">
        <ele>654.2</ele>
        <time>2020-10-17T12:44:34Z</time>
      </trkpt>
      <trkpt lat="46.16762" lon="4.51798">
        <ele>654.4</ele>
        <time>2020-10-17T12:44:35Z</time>
      </trkpt>
      <trkpt lat="46.1676" lon="4.51797">
        <ele>654.6</ele>
        <time>2020-10-17T12:44:36Z</time>
      </trkpt>
      <trkpt lat="46.1676" lon="4.51797">
        <ele>654.4</ele>
        <time>2020-10-17T12:44:37Z</time>
      </trkpt>
      <trkpt lat="46.16757" lon="4.51795">
        <ele>654.6</ele>
        <time>2020-10-17T12:44:38Z</time>
      </trkpt>
      <trkpt lat="46.16757" lon="4.51795">
        <ele>654.4</ele>
        <time>2020-10-17T12:44:39Z</time>
      </trkpt>
      <trkpt lat="46.16755" lon="4.51793">
        <ele>654.6</ele>
        <time>2020-10-17T12:44:40Z</time>
      </trkpt>
      <trkpt lat="46.16755" lon="4.51793">
        <ele>654.8</ele>
        <time>2020-10-17T12:44:41Z</time>
      </trkpt>
      <trkpt lat="46.16752" lon="4.51791">
        <ele>655</ele>
        <time>2020-10-17T12:44:42Z</time>
      </trkpt>
      <trkpt lat="46.16752" lon="4.51791">
        <ele>655.2</ele>
        <time>2020-10-17T12:44:43Z</time>
      </trkpt>
      <trkpt lat="46.16749" lon="4.5179">
        <ele>655.4</ele>
        <time>2020-10-17T12:44:44Z</time>
      </trkpt>
      <trkpt lat="46.16749" lon="4.5179">
        <ele>655.4</ele>
        <time>2020-10-17T12:44:45Z</time>
      </trkpt>
      <trkpt lat="46.16746" lon="4.51789">
        <ele>655.8</ele>
        <time>2020-10-17T12:44:46Z</time>
      </trkpt>
      <trkpt lat="46.16746" lon="4.51789">
        <ele>655.8</ele>
        <time>2020-10-17T12:44:47Z</time>
      </trkpt>
      <trkpt lat="46.16744" lon="4.51787">
        <ele>655.8</ele>
        <time>2020-10-17T12:44:48Z</time>
      </trkpt>
      <trkpt lat="46.16744" lon="4.51787">
        <ele>656</ele>
        <time>2020-10-17T12:44:49Z</time>
      </trkpt>
      <trkpt lat="46.16741" lon="4.51785">
        <ele>656.4</ele>
        <time>2020-10-17T12:44:50Z</time>
      </trkpt>
      <trkpt lat="46.16741" lon="4.51785">
        <ele>656.6</ele>
        <time>2020-10-17T12:44:51Z</time>
      </trkpt>
      <trkpt lat="46.16739" lon="4.51783">
        <ele>657</ele>
        <time>2020-10-17T12:44:52Z</time>
      </trkpt>
      <trkpt lat="46.16739" lon="4.51783">
        <ele>657</ele>
        <time>2020-10-17T12:44:53Z</time>
      </trkpt>
      <trkpt lat="46.16736" lon="4.5178">
        <ele>657.2</ele>
        <time>2020-10-17T12:44:54Z</time>
      </trkpt>
      <trkpt lat="46.16736" lon="4.5178">
        <ele>657.4</ele>
        <time>2020-10-17T12:44:55Z</time>
      </trkpt>
      <trkpt lat="46.16734" lon="4.51778">
        <ele>657.2</ele>
        <time>2020-10-17T12:44:56Z</time>
      </trkpt>
      <trkpt lat="46.16734" lon="4.51778">
        <ele>657.6</ele>
        <time>2020-10-17T12:44:57Z</time>
      </trkpt>
      <trkpt lat="46.16732" lon="4.51776">
        <ele>657.6</ele>
        <time>2020-10-17T12:44:58Z</time>
      </trkpt>
      <trkpt lat="46.16732" lon="4.51776">
        <ele>657.8</ele>
        <time>2020-10-17T12:44:59Z</time>
      </trkpt>
      <trkpt lat="46.16732" lon="4.51776">
        <ele>657.8</ele>
        <time>2020-10-17T12:45:00Z</time>
      </trkpt>
      <trkpt lat="46.16731" lon="4.51774">
        <ele>657.8</ele>
        <time>2020-10-17T12:45:01Z</time>
      </trkpt>
      <trkpt lat="46.16731" lon="4.51774">
        <ele>657.6</ele>
        <time>2020-10-17T12:45:02Z</time>
      </trkpt>
      <trkpt lat="46.16731" lon="4.51774">
        <ele>657.6</ele>
        <time>2020-10-17T12:45:03Z</time>
      </trkpt>
      <trkpt lat="46.16731" lon="4.5177">
        <ele>657.8</ele>
        <time>2020-10-17T12:45:04Z</time>
      </trkpt>
      <trkpt lat="46.16731" lon="4.5177">
        <ele>658</ele>
        <time>2020-10-17T12:45:05Z</time>
      </trkpt>
      <trkpt lat="46.16731" lon="4.5177">
        <ele>658</ele>
        <time>2020-10-17T12:45:06Z</time>
      </trkpt>
      <trkpt lat="46.16731" lon="4.5177">
        <ele>658.2</ele>
        <time>2020-10-17T12:45:07Z</time>
      </trkpt>
      <trkpt lat="46.16731" lon="4.5177">
        <ele>658.4</ele>
        <time>2020-10-17T12:45:08Z</time>
      </trkpt>
      <trkpt lat="46.16731" lon="4.5177">
        <ele>658.6</ele>
        <time>2020-10-17T12:45:09Z</time>
      </trkpt>
      <trkpt lat="46.16731" lon="4.5177">
        <ele>658.6</ele>
        <time>2020-10-17T12:45:10Z</time>
      </trkpt>
      <trkpt lat="46.16728" lon="4.5177">
        <ele>658.4</ele>
        <time>2020-10-17T12:45:11Z</time>
      </trkpt>
      <trkpt lat="46.16728" lon="4.5177">
        <ele>658.6</ele>
        <time>2020-10-17T12:45:12Z</time>
      </trkpt>
      <trkpt lat="46.16728" lon="4.5177">
        <ele>658.6</ele>
        <time>2020-10-17T12:45:13Z</time>
      </trkpt>
      <trkpt lat="46.16726" lon="4.51768">
        <ele>658.8</ele>
        <time>2020-10-17T12:45:14Z</time>
      </trkpt>
      <trkpt lat="46.16726" lon="4.51768">
        <ele>658.8</ele>
        <time>2020-10-17T12:45:15Z</time>
      </trkpt>
      <trkpt lat="46.16723" lon="4.51766">
        <ele>658.8</ele>
        <time>2020-10-17T12:45:16Z</time>
      </trkpt>
      <trkpt lat="46.16723" lon="4.51766">
        <ele>658.8</ele>
        <time>2020-10-17T12:45:17Z</time>
      </trkpt>
      <trkpt lat="46.16721" lon="4.51764">
        <ele>658.8</ele>
        <time>2020-10-17T12:45:18Z</time>
      </trkpt>
      <trkpt lat="46.16721" lon="4.51764">
        <ele>658.8</ele>
        <time>2020-10-17T12:45:19Z</time>
      </trkpt>
      <trkpt lat="46.16718" lon="4.51761">
        <ele>659</ele>
        <time>2020-10-17T12:45:20Z</time>
      </trkpt>
      <trkpt lat="46.16717" lon="4.5176">
        <ele>659</ele>
        <time>2020-10-17T12:45:21Z</time>
      </trkpt>
      <trkpt lat="46.16717" lon="4.5176">
        <ele>659.2</ele>
        <time>2020-10-17T12:45:22Z</time>
      </trkpt>
      <trkpt lat="46.16714" lon="4.51757">
        <ele>659.4</ele>
        <time>2020-10-17T12:45:23Z</time>
      </trkpt>
      <trkpt lat="46.16714" lon="4.51757">
        <ele>659.4</ele>
        <time>2020-10-17T12:45:24Z</time>
      </trkpt>
      <trkpt lat="46.16712" lon="4.51754">
        <ele>659.6</ele>
        <time>2020-10-17T12:45:25Z</time>
      </trkpt>
      <trkpt lat="46.16712" lon="4.51754">
        <ele>659.4</ele>
        <time>2020-10-17T12:45:26Z</time>
      </trkpt>
      <trkpt lat="46.1671" lon="4.51751">
        <ele>659.4</ele>
        <time>2020-10-17T12:45:27Z</time>
      </trkpt>
      <trkpt lat="46.1671" lon="4.51751">
        <ele>659.8</ele>
        <time>2020-10-17T12:45:28Z</time>
      </trkpt>
      <trkpt lat="46.16708" lon="4.51748">
        <ele>659.6</ele>
        <time>2020-10-17T12:45:29Z</time>
      </trkpt>
      <trkpt lat="46.16708" lon="4.51748">
        <ele>659.8</ele>
        <time>2020-10-17T12:45:30Z</time>
      </trkpt>
      <trkpt lat="46.16706" lon="4.51745">
        <ele>659.8</ele>
        <time>2020-10-17T12:45:31Z</time>
      </trkpt>
      <trkpt lat="46.16706" lon="4.51745">
        <ele>660</ele>
        <time>2020-10-17T12:45:32Z</time>
      </trkpt>
      <trkpt lat="46.16704" lon="4.51741">
        <ele>660</ele>
        <time>2020-10-17T12:45:33Z</time>
      </trkpt>
      <trkpt lat="46.16702" lon="4.51739">
        <ele>660.2</ele>
        <time>2020-10-17T12:45:34Z</time>
      </trkpt>
      <trkpt lat="46.16701" lon="4.51737">
        <ele>660.2</ele>
        <time>2020-10-17T12:45:35Z</time>
      </trkpt>
      <trkpt lat="46.167" lon="4.51734">
        <ele>660.4</ele>
        <time>2020-10-17T12:45:36Z</time>
      </trkpt>
      <trkpt lat="46.167" lon="4.51734">
        <ele>660.6</ele>
        <time>2020-10-17T12:45:37Z</time>
      </trkpt>
      <trkpt lat="46.16698" lon="4.51731">
        <ele>661</ele>
        <time>2020-10-17T12:45:38Z</time>
      </trkpt>
      <trkpt lat="46.16698" lon="4.51731">
        <ele>661.4</ele>
        <time>2020-10-17T12:45:39Z</time>
      </trkpt>
      <trkpt lat="46.16697" lon="4.51727">
        <ele>661.8</ele>
        <time>2020-10-17T12:45:40Z</time>
      </trkpt>
      <trkpt lat="46.16697" lon="4.51727">
        <ele>662</ele>
        <time>2020-10-17T12:45:41Z</time>
      </trkpt>
      <trkpt lat="46.16695" lon="4.51724">
        <ele>662</ele>
        <time>2020-10-17T12:45:42Z</time>
      </trkpt>
      <trkpt lat="46.16695" lon="4.51724">
        <ele>662</ele>
        <time>2020-10-17T12:45:43Z</time>
      </trkpt>
      <trkpt lat="46.16693" lon="4.51721">
        <ele>662</ele>
        <time>2020-10-17T12:45:44Z</time>
      </trkpt>
      <trkpt lat="46.16693" lon="4.51721">
        <ele>661.8</ele>
        <time>2020-10-17T12:45:45Z</time>
      </trkpt>
      <trkpt lat="46.16692" lon="4.51718">
        <ele>661.8</ele>
        <time>2020-10-17T12:45:46Z</time>
      </trkpt>
      <trkpt lat="46.16692" lon="4.51718">
        <ele>661.8</ele>
        <time>2020-10-17T12:45:47Z</time>
      </trkpt>
      <trkpt lat="46.1669" lon="4.51715">
        <ele>662</ele>
        <time>2020-10-17T12:45:48Z</time>
      </trkpt>
      <trkpt lat="46.1669" lon="4.51715">
        <ele>661.8</ele>
        <time>2020-10-17T12:45:49Z</time>
      </trkpt>
      <trkpt lat="46.16688" lon="4.51711">
        <ele>662</ele>
        <time>2020-10-17T12:45:50Z</time>
      </trkpt>
      <trkpt lat="46.16686" lon="4.51709">
        <ele>662</ele>
        <time>2020-10-17T12:45:51Z</time>
      </trkpt>
      <trkpt lat="46.16685" lon="4.51708">
        <ele>662.2</ele>
        <time>2020-10-17T12:45:52Z</time>
      </trkpt>
      <trkpt lat="46.16685" lon="4.51708">
        <ele>662.4</ele>
        <time>2020-10-17T12:45:53Z</time>
      </trkpt>
      <trkpt lat="46.16683" lon="4.51704">
        <ele>662.4</ele>
        <time>2020-10-17T12:45:54Z</time>
      </trkpt>
      <trkpt lat="46.16683" lon="4.51704">
        <ele>662.4</ele>
        <time>2020-10-17T12:45:55Z</time>
      </trkpt>
      <trkpt lat="46.16681" lon="4.51701">
        <ele>662.6</ele>
        <time>2020-10-17T12:45:56Z</time>
      </trkpt>
      <trkpt lat="46.16681" lon="4.51701">
        <ele>662.8</ele>
        <time>2020-10-17T12:45:57Z</time>
      </trkpt>
      <trkpt lat="46.16679" lon="4.51697">
        <ele>662.8</ele>
        <time>2020-10-17T12:45:58Z</time>
      </trkpt>
      <trkpt lat="46.16678" lon="4.51695">
        <ele>662.8</ele>
        <time>2020-10-17T12:45:59Z</time>
      </trkpt>
      <trkpt lat="46.16678" lon="4.51695">
        <ele>663</ele>
        <time>2020-10-17T12:46:00Z</time>
      </trkpt>
      <trkpt lat="46.16677" lon="4.51691">
        <ele>663.2</ele>
        <time>2020-10-17T12:46:01Z</time>
      </trkpt>
      <trkpt lat="46.16677" lon="4.51691">
        <ele>663.4</ele>
        <time>2020-10-17T12:46:02Z</time>
      </trkpt>
      <trkpt lat="46.16675" lon="4.51688">
        <ele>663.8</ele>
        <time>2020-10-17T12:46:03Z</time>
      </trkpt>
      <trkpt lat="46.16675" lon="4.51688">
        <ele>664</ele>
        <time>2020-10-17T12:46:04Z</time>
      </trkpt>
      <trkpt lat="46.16673" lon="4.51684">
        <ele>663.8</ele>
        <time>2020-10-17T12:46:05Z</time>
      </trkpt>
      <trkpt lat="46.16673" lon="4.51684">
        <ele>663.8</ele>
        <time>2020-10-17T12:46:06Z</time>
      </trkpt>
      <trkpt lat="46.16671" lon="4.51681">
        <ele>663.8</ele>
        <time>2020-10-17T12:46:07Z</time>
      </trkpt>
      <trkpt lat="46.16671" lon="4.51681">
        <ele>664</ele>
        <time>2020-10-17T12:46:08Z</time>
      </trkpt>
      <trkpt lat="46.1667" lon="4.51678">
        <ele>664</ele>
        <time>2020-10-17T12:46:09Z</time>
      </trkpt>
      <trkpt lat="46.1667" lon="4.51678">
        <ele>664.2</ele>
        <time>2020-10-17T12:46:10Z</time>
      </trkpt>
      <trkpt lat="46.16668" lon="4.51675">
        <ele>664.2</ele>
        <time>2020-10-17T12:46:11Z</time>
      </trkpt>
      <trkpt lat="46.16668" lon="4.51675">
        <ele>664.4</ele>
        <time>2020-10-17T12:46:12Z</time>
      </trkpt>
      <trkpt lat="46.16667" lon="4.51672">
        <ele>664.4</ele>
        <time>2020-10-17T12:46:13Z</time>
      </trkpt>
      <trkpt lat="46.16667" lon="4.51672">
        <ele>664.4</ele>
        <time>2020-10-17T12:46:14Z</time>
      </trkpt>
      <trkpt lat="46.16666" lon="4.51669">
        <ele>664.6</ele>
        <time>2020-10-17T12:46:15Z</time>
      </trkpt>
      <trkpt lat="46.16666" lon="4.51669">
        <ele>664.6</ele>
        <time>2020-10-17T12:46:16Z</time>
      </trkpt>
      <trkpt lat="46.16664" lon="4.51666">
        <ele>664.8</ele>
        <time>2020-10-17T12:46:17Z</time>
      </trkpt>
      <trkpt lat="46.16663" lon="4.51664">
        <ele>665</ele>
        <time>2020-10-17T12:46:18Z</time>
      </trkpt>
      <trkpt lat="46.16663" lon="4.51664">
        <ele>665.4</ele>
        <time>2020-10-17T12:46:19Z</time>
      </trkpt>
      <trkpt lat="46.16662" lon="4.5166">
        <ele>665.6</ele>
        <time>2020-10-17T12:46:20Z</time>
      </trkpt>
      <trkpt lat="46.16662" lon="4.5166">
        <ele>665.8</ele>
        <time>2020-10-17T12:46:21Z</time>
      </trkpt>
      <trkpt lat="46.1666" lon="4.51658">
        <ele>665.8</ele>
        <time>2020-10-17T12:46:22Z</time>
      </trkpt>
      <trkpt lat="46.1666" lon="4.51658">
        <ele>665.8</ele>
        <time>2020-10-17T12:46:23Z</time>
      </trkpt>
      <trkpt lat="46.16659" lon="4.51654">
        <ele>665.8</ele>
        <time>2020-10-17T12:46:24Z</time>
      </trkpt>
      <trkpt lat="46.16659" lon="4.51654">
        <ele>666</ele>
        <time>2020-10-17T12:46:25Z</time>
      </trkpt>
      <trkpt lat="46.16657" lon="4.5165">
        <ele>665.8</ele>
        <time>2020-10-17T12:46:26Z</time>
      </trkpt>
      <trkpt lat="46.16657" lon="4.5165">
        <ele>665.8</ele>
        <time>2020-10-17T12:46:27Z</time>
      </trkpt>
      <trkpt lat="46.16656" lon="4.51647">
        <ele>665.8</ele>
        <time>2020-10-17T12:46:28Z</time>
      </trkpt>
      <trkpt lat="46.16656" lon="4.51647">
        <ele>665.8</ele>
        <time>2020-10-17T12:46:29Z</time>
      </trkpt>
      <trkpt lat="46.16654" lon="4.51643">
        <ele>666.2</ele>
        <time>2020-10-17T12:46:30Z</time>
      </trkpt>
      <trkpt lat="46.16654" lon="4.51643">
        <ele>666.2</ele>
        <time>2020-10-17T12:46:31Z</time>
      </trkpt>
      <trkpt lat="46.16652" lon="4.51639">
        <ele>666.4</ele>
        <time>2020-10-17T12:46:32Z</time>
      </trkpt>
      <trkpt lat="46.16652" lon="4.51639">
        <ele>666.4</ele>
        <time>2020-10-17T12:46:33Z</time>
      </trkpt>
      <trkpt lat="46.16651" lon="4.51635">
        <ele>666.4</ele>
        <time>2020-10-17T12:46:34Z</time>
      </trkpt>
      <trkpt lat="46.16651" lon="4.51635">
        <ele>666.4</ele>
        <time>2020-10-17T12:46:35Z</time>
      </trkpt>
      <trkpt lat="46.16649" lon="4.51631">
        <ele>666.8</ele>
        <time>2020-10-17T12:46:36Z</time>
      </trkpt>
      <trkpt lat="46.16649" lon="4.51631">
        <ele>666.8</ele>
        <time>2020-10-17T12:46:37Z</time>
      </trkpt>
      <trkpt lat="46.16648" lon="4.51627">
        <ele>666.8</ele>
        <time>2020-10-17T12:46:38Z</time>
      </trkpt>
      <trkpt lat="46.16648" lon="4.51627">
        <ele>666.8</ele>
        <time>2020-10-17T12:46:39Z</time>
      </trkpt>
      <trkpt lat="46.16647" lon="4.51623">
        <ele>667</ele>
        <time>2020-10-17T12:46:40Z</time>
      </trkpt>
      <trkpt lat="46.16647" lon="4.5162">
        <ele>667.2</ele>
        <time>2020-10-17T12:46:41Z</time>
      </trkpt>
      <trkpt lat="46.16647" lon="4.5162">
        <ele>667.2</ele>
        <time>2020-10-17T12:46:42Z</time>
      </trkpt>
      <trkpt lat="46.16645" lon="4.51615">
        <ele>667.4</ele>
        <time>2020-10-17T12:46:43Z</time>
      </trkpt>
      <trkpt lat="46.16645" lon="4.51613">
        <ele>667.4</ele>
        <time>2020-10-17T12:46:44Z</time>
      </trkpt>
      <trkpt lat="46.16644" lon="4.51611">
        <ele>667.4</ele>
        <time>2020-10-17T12:46:45Z</time>
      </trkpt>
      <trkpt lat="46.16644" lon="4.51611">
        <ele>667.4</ele>
        <time>2020-10-17T12:46:46Z</time>
      </trkpt>
      <trkpt lat="46.16642" lon="4.51607">
        <ele>667.8</ele>
        <time>2020-10-17T12:46:47Z</time>
      </trkpt>
      <trkpt lat="46.16642" lon="4.51607">
        <ele>667.8</ele>
        <time>2020-10-17T12:46:48Z</time>
      </trkpt>
      <trkpt lat="46.16641" lon="4.51603">
        <ele>668</ele>
        <time>2020-10-17T12:46:49Z</time>
      </trkpt>
      <trkpt lat="46.16641" lon="4.51603">
        <ele>668</ele>
        <time>2020-10-17T12:46:50Z</time>
      </trkpt>
      <trkpt lat="46.1664" lon="4.516">
        <ele>668</ele>
        <time>2020-10-17T12:46:51Z</time>
      </trkpt>
      <trkpt lat="46.1664" lon="4.516">
        <ele>668.2</ele>
        <time>2020-10-17T12:46:52Z</time>
      </trkpt>
      <trkpt lat="46.16639" lon="4.51596">
        <ele>668.4</ele>
        <time>2020-10-17T12:46:53Z</time>
      </trkpt>
      <trkpt lat="46.16639" lon="4.51596">
        <ele>668.4</ele>
        <time>2020-10-17T12:46:54Z</time>
      </trkpt>
      <trkpt lat="46.16637" lon="4.51592">
        <ele>668.8</ele>
        <time>2020-10-17T12:46:55Z</time>
      </trkpt>
      <trkpt lat="46.16637" lon="4.51592">
        <ele>668.6</ele>
        <time>2020-10-17T12:46:56Z</time>
      </trkpt>
      <trkpt lat="46.16635" lon="4.51589">
        <ele>668.6</ele>
        <time>2020-10-17T12:46:57Z</time>
      </trkpt>
      <trkpt lat="46.16635" lon="4.51589">
        <ele>668.6</ele>
        <time>2020-10-17T12:46:58Z</time>
      </trkpt>
      <trkpt lat="46.16633" lon="4.51586">
        <ele>668.8</ele>
        <time>2020-10-17T12:46:59Z</time>
      </trkpt>
      <trkpt lat="46.16633" lon="4.51586">
        <ele>668.8</ele>
        <time>2020-10-17T12:47:00Z</time>
      </trkpt>
      <trkpt lat="46.16631" lon="4.51584">
        <ele>669</ele>
        <time>2020-10-17T12:47:01Z</time>
      </trkpt>
      <trkpt lat="46.16631" lon="4.51584">
        <ele>669</ele>
        <time>2020-10-17T12:47:02Z</time>
      </trkpt>
      <trkpt lat="46.16629" lon="4.5158">
        <ele>668.8</ele>
        <time>2020-10-17T12:47:03Z</time>
      </trkpt>
      <trkpt lat="46.16629" lon="4.5158">
        <ele>669</ele>
        <time>2020-10-17T12:47:04Z</time>
      </trkpt>
      <trkpt lat="46.16627" lon="4.51578">
        <ele>669.2</ele>
        <time>2020-10-17T12:47:05Z</time>
      </trkpt>
      <trkpt lat="46.16627" lon="4.51578">
        <ele>669.4</ele>
        <time>2020-10-17T12:47:06Z</time>
      </trkpt>
      <trkpt lat="46.16624" lon="4.51575">
        <ele>669.4</ele>
        <time>2020-10-17T12:47:07Z</time>
      </trkpt>
      <trkpt lat="46.16624" lon="4.51575">
        <ele>669.4</ele>
        <time>2020-10-17T12:47:08Z</time>
      </trkpt>
      <trkpt lat="46.16622" lon="4.51571">
        <ele>669.6</ele>
        <time>2020-10-17T12:47:09Z</time>
      </trkpt>
      <trkpt lat="46.16622" lon="4.51571">
        <ele>669.8</ele>
        <time>2020-10-17T12:47:10Z</time>
      </trkpt>
      <trkpt lat="46.1662" lon="4.51568">
        <ele>670</ele>
        <time>2020-10-17T12:47:11Z</time>
      </trkpt>
      <trkpt lat="46.1662" lon="4.51568">
        <ele>670.2</ele>
        <time>2020-10-17T12:47:12Z</time>
      </trkpt>
      <trkpt lat="46.16618" lon="4.51564">
        <ele>670.4</ele>
        <time>2020-10-17T12:47:13Z</time>
      </trkpt>
      <trkpt lat="46.16618" lon="4.51564">
        <ele>670.4</ele>
        <time>2020-10-17T12:47:14Z</time>
      </trkpt>
      <trkpt lat="46.16616" lon="4.51561">
        <ele>670.6</ele>
        <time>2020-10-17T12:47:15Z</time>
      </trkpt>
      <trkpt lat="46.16616" lon="4.51561">
        <ele>670.8</ele>
        <time>2020-10-17T12:47:16Z</time>
      </trkpt>
      <trkpt lat="46.16614" lon="4.51559">
        <ele>671</ele>
        <time>2020-10-17T12:47:17Z</time>
      </trkpt>
      <trkpt lat="46.16614" lon="4.51559">
        <ele>671</ele>
        <time>2020-10-17T12:47:18Z</time>
      </trkpt>
      <trkpt lat="46.16612" lon="4.51556">
        <ele>671.2</ele>
        <time>2020-10-17T12:47:19Z</time>
      </trkpt>
      <trkpt lat="46.1661" lon="4.51554">
        <ele>671.4</ele>
        <time>2020-10-17T12:47:20Z</time>
      </trkpt>
      <trkpt lat="46.1661" lon="4.51554">
        <ele>671.4</ele>
        <time>2020-10-17T12:47:21Z</time>
      </trkpt>
      <trkpt lat="46.16608" lon="4.51552">
        <ele>671.4</ele>
        <time>2020-10-17T12:47:22Z</time>
      </trkpt>
      <trkpt lat="46.16608" lon="4.51552">
        <ele>671.8</ele>
        <time>2020-10-17T12:47:23Z</time>
      </trkpt>
      <trkpt lat="46.16606" lon="4.5155">
        <ele>672</ele>
        <time>2020-10-17T12:47:24Z</time>
      </trkpt>
      <trkpt lat="46.16606" lon="4.5155">
        <ele>672.2</ele>
        <time>2020-10-17T12:47:25Z</time>
      </trkpt>
      <trkpt lat="46.16603" lon="4.51549">
        <ele>672.4</ele>
        <time>2020-10-17T12:47:26Z</time>
      </trkpt>
      <trkpt lat="46.16603" lon="4.51549">
        <ele>672.6</ele>
        <time>2020-10-17T12:47:27Z</time>
      </trkpt>
      <trkpt lat="46.16601" lon="4.51548">
        <ele>672.8</ele>
        <time>2020-10-17T12:47:28Z</time>
      </trkpt>
      <trkpt lat="46.16601" lon="4.51548">
        <ele>672.8</ele>
        <time>2020-10-17T12:47:29Z</time>
      </trkpt>
      <trkpt lat="46.16599" lon="4.51546">
        <ele>673</ele>
        <time>2020-10-17T12:47:30Z</time>
      </trkpt>
      <trkpt lat="46.16599" lon="4.51546">
        <ele>673.2</ele>
        <time>2020-10-17T12:47:31Z</time>
      </trkpt>
      <trkpt lat="46.16597" lon="4.51545">
        <ele>673.2</ele>
        <time>2020-10-17T12:47:32Z</time>
      </trkpt>
      <trkpt lat="46.16597" lon="4.51545">
        <ele>673.2</ele>
        <time>2020-10-17T12:47:33Z</time>
      </trkpt>
      <trkpt lat="46.16595" lon="4.51543">
        <ele>673.4</ele>
        <time>2020-10-17T12:47:34Z</time>
      </trkpt>
      <trkpt lat="46.16595" lon="4.51543">
        <ele>673.6</ele>
        <time>2020-10-17T12:47:35Z</time>
      </trkpt>
      <trkpt lat="46.16592" lon="4.51542">
        <ele>673.8</ele>
        <time>2020-10-17T12:47:36Z</time>
      </trkpt>
      <trkpt lat="46.16592" lon="4.51542">
        <ele>674</ele>
        <time>2020-10-17T12:47:37Z</time>
      </trkpt>
      <trkpt lat="46.1659" lon="4.5154">
        <ele>674</ele>
        <time>2020-10-17T12:47:38Z</time>
      </trkpt>
      <trkpt lat="46.1659" lon="4.5154">
        <ele>674.2</ele>
        <time>2020-10-17T12:47:39Z</time>
      </trkpt>
      <trkpt lat="46.16586" lon="4.51538">
        <ele>674.2</ele>
        <time>2020-10-17T12:47:40Z</time>
      </trkpt>
      <trkpt lat="46.16584" lon="4.51538">
        <ele>674.6</ele>
        <time>2020-10-17T12:47:41Z</time>
      </trkpt>
      <trkpt lat="46.16582" lon="4.51537">
        <ele>674.6</ele>
        <time>2020-10-17T12:47:42Z</time>
      </trkpt>
      <trkpt lat="46.16581" lon="4.51537">
        <ele>674.6</ele>
        <time>2020-10-17T12:47:43Z</time>
      </trkpt>
      <trkpt lat="46.16581" lon="4.51537">
        <ele>674.6</ele>
        <time>2020-10-17T12:47:44Z</time>
      </trkpt>
      <trkpt lat="46.16578" lon="4.51536">
        <ele>675</ele>
        <time>2020-10-17T12:47:45Z</time>
      </trkpt>
      <trkpt lat="46.16578" lon="4.51536">
        <ele>675.2</ele>
        <time>2020-10-17T12:47:46Z</time>
      </trkpt>
      <trkpt lat="46.16576" lon="4.51535">
        <ele>675.2</ele>
        <time>2020-10-17T12:47:47Z</time>
      </trkpt>
      <trkpt lat="46.16576" lon="4.51535">
        <ele>675.2</ele>
        <time>2020-10-17T12:47:48Z</time>
      </trkpt>
      <trkpt lat="46.16574" lon="4.51533">
        <ele>675.4</ele>
        <time>2020-10-17T12:47:49Z</time>
      </trkpt>
      <trkpt lat="46.16574" lon="4.51533">
        <ele>675.4</ele>
        <time>2020-10-17T12:47:50Z</time>
      </trkpt>
      <trkpt lat="46.16571" lon="4.51531">
        <ele>675.8</ele>
        <time>2020-10-17T12:47:51Z</time>
      </trkpt>
      <trkpt lat="46.1657" lon="4.5153">
        <ele>676.2</ele>
        <time>2020-10-17T12:47:52Z</time>
      </trkpt>
      <trkpt lat="46.16568" lon="4.51529">
        <ele>676</ele>
        <time>2020-10-17T12:47:53Z</time>
      </trkpt>
      <trkpt lat="46.16566" lon="4.51528">
        <ele>676.2</ele>
        <time>2020-10-17T12:47:54Z</time>
      </trkpt>
      <trkpt lat="46.16566" lon="4.51528">
        <ele>676.4</ele>
        <time>2020-10-17T12:47:55Z</time>
      </trkpt>
      <trkpt lat="46.16563" lon="4.51526">
        <ele>676.4</ele>
        <time>2020-10-17T12:47:56Z</time>
      </trkpt>
      <trkpt lat="46.16563" lon="4.51526">
        <ele>676.6</ele>
        <time>2020-10-17T12:47:57Z</time>
      </trkpt>
      <trkpt lat="46.1656" lon="4.51525">
        <ele>676.8</ele>
        <time>2020-10-17T12:47:58Z</time>
      </trkpt>
      <trkpt lat="46.1656" lon="4.51525">
        <ele>676.8</ele>
        <time>2020-10-17T12:47:59Z</time>
      </trkpt>
      <trkpt lat="46.16558" lon="4.51523">
        <ele>677.2</ele>
        <time>2020-10-17T12:48:00Z</time>
      </trkpt>
      <trkpt lat="46.16558" lon="4.51523">
        <ele>677.4</ele>
        <time>2020-10-17T12:48:01Z</time>
      </trkpt>
      <trkpt lat="46.16555" lon="4.51521">
        <ele>677.4</ele>
        <time>2020-10-17T12:48:02Z</time>
      </trkpt>
      <trkpt lat="46.16555" lon="4.51521">
        <ele>677.6</ele>
        <time>2020-10-17T12:48:03Z</time>
      </trkpt>
      <trkpt lat="46.16553" lon="4.51518">
        <ele>677.8</ele>
        <time>2020-10-17T12:48:04Z</time>
      </trkpt>
      <trkpt lat="46.16553" lon="4.51518">
        <ele>677.8</ele>
        <time>2020-10-17T12:48:05Z</time>
      </trkpt>
      <trkpt lat="46.1655" lon="4.51516">
        <ele>678</ele>
        <time>2020-10-17T12:48:06Z</time>
      </trkpt>
      <trkpt lat="46.1655" lon="4.51516">
        <ele>678.6</ele>
        <time>2020-10-17T12:48:07Z</time>
      </trkpt>
      <trkpt lat="46.16547" lon="4.51515">
        <ele>678.8</ele>
        <time>2020-10-17T12:48:08Z</time>
      </trkpt>
      <trkpt lat="46.16545" lon="4.51515">
        <ele>678.8</ele>
        <time>2020-10-17T12:48:09Z</time>
      </trkpt>
      <trkpt lat="46.16545" lon="4.51515">
        <ele>678.8</ele>
        <time>2020-10-17T12:48:10Z</time>
      </trkpt>
      <trkpt lat="46.16542" lon="4.51514">
        <ele>678.8</ele>
        <time>2020-10-17T12:48:11Z</time>
      </trkpt>
      <trkpt lat="46.16542" lon="4.51514">
        <ele>679</ele>
        <time>2020-10-17T12:48:12Z</time>
      </trkpt>
      <trkpt lat="46.16539" lon="4.51512">
        <ele>679</ele>
        <time>2020-10-17T12:48:13Z</time>
      </trkpt>
      <trkpt lat="46.16539" lon="4.51512">
        <ele>678.8</ele>
        <time>2020-10-17T12:48:14Z</time>
      </trkpt>
      <trkpt lat="46.16539" lon="4.51512">
        <ele>679</ele>
        <time>2020-10-17T12:48:15Z</time>
      </trkpt>
      <trkpt lat="46.16536" lon="4.5151">
        <ele>679.2</ele>
        <time>2020-10-17T12:48:16Z</time>
      </trkpt>
      <trkpt lat="46.16536" lon="4.5151">
        <ele>679.2</ele>
        <time>2020-10-17T12:48:17Z</time>
      </trkpt>
      <trkpt lat="46.16536" lon="4.5151">
        <ele>679.2</ele>
        <time>2020-10-17T12:48:18Z</time>
      </trkpt>
      <trkpt lat="46.16533" lon="4.51509">
        <ele>679.4</ele>
        <time>2020-10-17T12:48:19Z</time>
      </trkpt>
      <trkpt lat="46.16533" lon="4.51509">
        <ele>679.8</ele>
        <time>2020-10-17T12:48:20Z</time>
      </trkpt>
      <trkpt lat="46.1653" lon="4.51508">
        <ele>680.2</ele>
        <time>2020-10-17T12:48:21Z</time>
      </trkpt>
      <trkpt lat="46.1653" lon="4.51508">
        <ele>680.6</ele>
        <time>2020-10-17T12:48:22Z</time>
      </trkpt>
      <trkpt lat="46.16528" lon="4.51508">
        <ele>681</ele>
        <time>2020-10-17T12:48:23Z</time>
      </trkpt>
      <trkpt lat="46.16528" lon="4.51508">
        <ele>681.4</ele>
        <time>2020-10-17T12:48:24Z</time>
      </trkpt>
      <trkpt lat="46.16525" lon="4.51508">
        <ele>681.8</ele>
        <time>2020-10-17T12:48:25Z</time>
      </trkpt>
      <trkpt lat="46.16525" lon="4.51508">
        <ele>681.6</ele>
        <time>2020-10-17T12:48:26Z</time>
      </trkpt>
      <trkpt lat="46.16523" lon="4.51508">
        <ele>681.8</ele>
        <time>2020-10-17T12:48:27Z</time>
      </trkpt>
      <trkpt lat="46.16523" lon="4.51508">
        <ele>682</ele>
        <time>2020-10-17T12:48:28Z</time>
      </trkpt>
      <trkpt lat="46.1652" lon="4.51509">
        <ele>682.2</ele>
        <time>2020-10-17T12:48:29Z</time>
      </trkpt>
      <trkpt lat="46.1652" lon="4.51509">
        <ele>682.2</ele>
        <time>2020-10-17T12:48:30Z</time>
      </trkpt>
      <trkpt lat="46.16517" lon="4.51509">
        <ele>682.4</ele>
        <time>2020-10-17T12:48:31Z</time>
      </trkpt>
      <trkpt lat="46.16517" lon="4.51509">
        <ele>682.6</ele>
        <time>2020-10-17T12:48:32Z</time>
      </trkpt>
      <trkpt lat="46.16515" lon="4.51509">
        <ele>682.8</ele>
        <time>2020-10-17T12:48:33Z</time>
      </trkpt>
      <trkpt lat="46.16515" lon="4.51509">
        <ele>682.8</ele>
        <time>2020-10-17T12:48:34Z</time>
      </trkpt>
      <trkpt lat="46.16511" lon="4.51508">
        <ele>683</ele>
        <time>2020-10-17T12:48:35Z</time>
      </trkpt>
      <trkpt lat="46.16511" lon="4.51508">
        <ele>683.2</ele>
        <time>2020-10-17T12:48:36Z</time>
      </trkpt>
      <trkpt lat="46.16509" lon="4.51509">
        <ele>683.2</ele>
        <time>2020-10-17T12:48:37Z</time>
      </trkpt>
      <trkpt lat="46.16509" lon="4.51509">
        <ele>683.4</ele>
        <time>2020-10-17T12:48:38Z</time>
      </trkpt>
      <trkpt lat="46.16509" lon="4.51509">
        <ele>683.6</ele>
        <time>2020-10-17T12:48:39Z</time>
      </trkpt>
      <trkpt lat="46.16506" lon="4.5151">
        <ele>683.6</ele>
        <time>2020-10-17T12:48:40Z</time>
      </trkpt>
      <trkpt lat="46.16506" lon="4.5151">
        <ele>683.6</ele>
        <time>2020-10-17T12:48:41Z</time>
      </trkpt>
      <trkpt lat="46.16504" lon="4.51511">
        <ele>683.4</ele>
        <time>2020-10-17T12:48:42Z</time>
      </trkpt>
      <trkpt lat="46.16504" lon="4.51511">
        <ele>683.8</ele>
        <time>2020-10-17T12:48:43Z</time>
      </trkpt>
      <trkpt lat="46.16504" lon="4.51511">
        <ele>683.8</ele>
        <time>2020-10-17T12:48:44Z</time>
      </trkpt>
      <trkpt lat="46.16501" lon="4.51512">
        <ele>684</ele>
        <time>2020-10-17T12:48:45Z</time>
      </trkpt>
      <trkpt lat="46.16501" lon="4.51512">
        <ele>684</ele>
        <time>2020-10-17T12:48:46Z</time>
      </trkpt>
      <trkpt lat="46.16499" lon="4.51514">
        <ele>684.2</ele>
        <time>2020-10-17T12:48:47Z</time>
      </trkpt>
      <trkpt lat="46.16499" lon="4.51514">
        <ele>684.4</ele>
        <time>2020-10-17T12:48:48Z</time>
      </trkpt>
      <trkpt lat="46.16497" lon="4.51515">
        <ele>684.6</ele>
        <time>2020-10-17T12:48:49Z</time>
      </trkpt>
      <trkpt lat="46.16497" lon="4.51515">
        <ele>684.8</ele>
        <time>2020-10-17T12:48:50Z</time>
      </trkpt>
      <trkpt lat="46.16495" lon="4.51517">
        <ele>684.6</ele>
        <time>2020-10-17T12:48:51Z</time>
      </trkpt>
      <trkpt lat="46.16495" lon="4.51517">
        <ele>685.2</ele>
        <time>2020-10-17T12:48:52Z</time>
      </trkpt>
      <trkpt lat="46.16494" lon="4.51518">
        <ele>685.4</ele>
        <time>2020-10-17T12:48:53Z</time>
      </trkpt>
      <trkpt lat="46.16494" lon="4.51518">
        <ele>685.4</ele>
        <time>2020-10-17T12:48:54Z</time>
      </trkpt>
      <trkpt lat="46.16491" lon="4.5152">
        <ele>685.6</ele>
        <time>2020-10-17T12:48:55Z</time>
      </trkpt>
      <trkpt lat="46.16491" lon="4.5152">
        <ele>685.8</ele>
        <time>2020-10-17T12:48:56Z</time>
      </trkpt>
      <trkpt lat="46.16489" lon="4.51522">
        <ele>686</ele>
        <time>2020-10-17T12:48:57Z</time>
      </trkpt>
      <trkpt lat="46.16489" lon="4.51522">
        <ele>686</ele>
        <time>2020-10-17T12:48:58Z</time>
      </trkpt>
      <trkpt lat="46.16487" lon="4.51524">
        <ele>685.8</ele>
        <time>2020-10-17T12:48:59Z</time>
      </trkpt>
      <trkpt lat="46.16487" lon="4.51524">
        <ele>686.4</ele>
        <time>2020-10-17T12:49:00Z</time>
      </trkpt>
      <trkpt lat="46.16485" lon="4.51524">
        <ele>686.6</ele>
        <time>2020-10-17T12:49:01Z</time>
      </trkpt>
      <trkpt lat="46.16485" lon="4.51524">
        <ele>686.8</ele>
        <time>2020-10-17T12:49:02Z</time>
      </trkpt>
      <trkpt lat="46.16482" lon="4.51526">
        <ele>687</ele>
        <time>2020-10-17T12:49:03Z</time>
      </trkpt>
      <trkpt lat="46.1648" lon="4.51527">
        <ele>687.2</ele>
        <time>2020-10-17T12:49:04Z</time>
      </trkpt>
      <trkpt lat="46.1648" lon="4.51527">
        <ele>687.2</ele>
        <time>2020-10-17T12:49:05Z</time>
      </trkpt>
      <trkpt lat="46.16478" lon="4.51529">
        <ele>687</ele>
        <time>2020-10-17T12:49:06Z</time>
      </trkpt>
      <trkpt lat="46.16478" lon="4.51529">
        <ele>687</ele>
        <time>2020-10-17T12:49:07Z</time>
      </trkpt>
      <trkpt lat="46.16476" lon="4.51531">
        <ele>687</ele>
        <time>2020-10-17T12:49:08Z</time>
      </trkpt>
      <trkpt lat="46.16476" lon="4.51531">
        <ele>687</ele>
        <time>2020-10-17T12:49:09Z</time>
      </trkpt>
      <trkpt lat="46.16474" lon="4.51533">
        <ele>687.4</ele>
        <time>2020-10-17T12:49:10Z</time>
      </trkpt>
      <trkpt lat="46.16474" lon="4.51533">
        <ele>687.4</ele>
        <time>2020-10-17T12:49:11Z</time>
      </trkpt>
      <trkpt lat="46.16473" lon="4.51534">
        <ele>688</ele>
        <time>2020-10-17T12:49:12Z</time>
      </trkpt>
      <trkpt lat="46.16473" lon="4.51534">
        <ele>688</ele>
        <time>2020-10-17T12:49:13Z</time>
      </trkpt>
      <trkpt lat="46.1647" lon="4.51537">
        <ele>688.2</ele>
        <time>2020-10-17T12:49:14Z</time>
      </trkpt>
      <trkpt lat="46.1647" lon="4.51537">
        <ele>688.4</ele>
        <time>2020-10-17T12:49:15Z</time>
      </trkpt>
      <trkpt lat="46.16467" lon="4.51538">
        <ele>688.4</ele>
        <time>2020-10-17T12:49:16Z</time>
      </trkpt>
      <trkpt lat="46.16467" lon="4.51538">
        <ele>688.6</ele>
        <time>2020-10-17T12:49:17Z</time>
      </trkpt>
      <trkpt lat="46.16466" lon="4.5154">
        <ele>688.6</ele>
        <time>2020-10-17T12:49:18Z</time>
      </trkpt>
      <trkpt lat="46.16466" lon="4.5154">
        <ele>689.2</ele>
        <time>2020-10-17T12:49:19Z</time>
      </trkpt>
      <trkpt lat="46.16464" lon="4.51541">
        <ele>689</ele>
        <time>2020-10-17T12:49:20Z</time>
      </trkpt>
      <trkpt lat="46.16464" lon="4.51541">
        <ele>689.4</ele>
        <time>2020-10-17T12:49:21Z</time>
      </trkpt>
      <trkpt lat="46.16461" lon="4.51542">
        <ele>689.4</ele>
        <time>2020-10-17T12:49:22Z</time>
      </trkpt>
      <trkpt lat="46.16461" lon="4.51542">
        <ele>689.6</ele>
        <time>2020-10-17T12:49:23Z</time>
      </trkpt>
      <trkpt lat="46.16459" lon="4.51544">
        <ele>689.6</ele>
        <time>2020-10-17T12:49:24Z</time>
      </trkpt>
      <trkpt lat="46.16459" lon="4.51544">
        <ele>689.8</ele>
        <time>2020-10-17T12:49:25Z</time>
      </trkpt>
      <trkpt lat="46.16457" lon="4.51545">
        <ele>690.2</ele>
        <time>2020-10-17T12:49:26Z</time>
      </trkpt>
      <trkpt lat="46.16457" lon="4.51545">
        <ele>690.2</ele>
        <time>2020-10-17T12:49:27Z</time>
      </trkpt>
      <trkpt lat="46.16455" lon="4.51546">
        <ele>690.2</ele>
        <time>2020-10-17T12:49:28Z</time>
      </trkpt>
      <trkpt lat="46.16455" lon="4.51546">
        <ele>690.2</ele>
        <time>2020-10-17T12:49:29Z</time>
      </trkpt>
      <trkpt lat="46.16452" lon="4.51549">
        <ele>690.6</ele>
        <time>2020-10-17T12:49:30Z</time>
      </trkpt>
      <trkpt lat="46.16452" lon="4.51549">
        <ele>690.6</ele>
        <time>2020-10-17T12:49:31Z</time>
      </trkpt>
      <trkpt lat="46.1645" lon="4.51551">
        <ele>691</ele>
        <time>2020-10-17T12:49:32Z</time>
      </trkpt>
      <trkpt lat="46.1645" lon="4.51551">
        <ele>691</ele>
        <time>2020-10-17T12:49:33Z</time>
      </trkpt>
      <trkpt lat="46.16447" lon="4.51553">
        <ele>690.8</ele>
        <time>2020-10-17T12:49:34Z</time>
      </trkpt>
      <trkpt lat="46.16447" lon="4.51553">
        <ele>691.4</ele>
        <time>2020-10-17T12:49:35Z</time>
      </trkpt>
      <trkpt lat="46.16445" lon="4.51555">
        <ele>691.6</ele>
        <time>2020-10-17T12:49:36Z</time>
      </trkpt>
      <trkpt lat="46.16443" lon="4.51556">
        <ele>692</ele>
        <time>2020-10-17T12:49:37Z</time>
      </trkpt>
      <trkpt lat="46.1644" lon="4.51558">
        <ele>691.8</ele>
        <time>2020-10-17T12:49:38Z</time>
      </trkpt>
      <trkpt lat="46.1644" lon="4.51558">
        <ele>692</ele>
        <time>2020-10-17T12:49:39Z</time>
      </trkpt>
      <trkpt lat="46.16437" lon="4.5156">
        <ele>691.8</ele>
        <time>2020-10-17T12:49:40Z</time>
      </trkpt>
      <trkpt lat="46.16437" lon="4.5156">
        <ele>692.4</ele>
        <time>2020-10-17T12:49:41Z</time>
      </trkpt>
      <trkpt lat="46.16435" lon="4.51562">
        <ele>692.4</ele>
        <time>2020-10-17T12:49:42Z</time>
      </trkpt>
      <trkpt lat="46.16435" lon="4.51562">
        <ele>692.4</ele>
        <time>2020-10-17T12:49:43Z</time>
      </trkpt>
      <trkpt lat="46.16432" lon="4.51563">
        <ele>692.6</ele>
        <time>2020-10-17T12:49:44Z</time>
      </trkpt>
      <trkpt lat="46.1643" lon="4.51564">
        <ele>692.6</ele>
        <time>2020-10-17T12:49:45Z</time>
      </trkpt>
      <trkpt lat="46.1643" lon="4.51564">
        <ele>692.6</ele>
        <time>2020-10-17T12:49:46Z</time>
      </trkpt>
      <trkpt lat="46.16427" lon="4.51565">
        <ele>692.6</ele>
        <time>2020-10-17T12:49:47Z</time>
      </trkpt>
      <trkpt lat="46.16427" lon="4.51565">
        <ele>693.2</ele>
        <time>2020-10-17T12:49:48Z</time>
      </trkpt>
      <trkpt lat="46.16424" lon="4.51567">
        <ele>693.4</ele>
        <time>2020-10-17T12:49:49Z</time>
      </trkpt>
      <trkpt lat="46.16424" lon="4.51567">
        <ele>693.6</ele>
        <time>2020-10-17T12:49:50Z</time>
      </trkpt>
      <trkpt lat="46.16422" lon="4.51569">
        <ele>693.6</ele>
        <time>2020-10-17T12:49:51Z</time>
      </trkpt>
      <trkpt lat="46.16422" lon="4.51569">
        <ele>694</ele>
        <time>2020-10-17T12:49:52Z</time>
      </trkpt>
      <trkpt lat="46.16422" lon="4.51569">
        <ele>694.4</ele>
        <time>2020-10-17T12:49:53Z</time>
      </trkpt>
      <trkpt lat="46.16419" lon="4.51571">
        <ele>694</ele>
        <time>2020-10-17T12:49:54Z</time>
      </trkpt>
      <trkpt lat="46.16419" lon="4.51571">
        <ele>694.2</ele>
        <time>2020-10-17T12:49:55Z</time>
      </trkpt>
      <trkpt lat="46.16417" lon="4.51574">
        <ele>694.4</ele>
        <time>2020-10-17T12:49:56Z</time>
      </trkpt>
      <trkpt lat="46.16417" lon="4.51574">
        <ele>694.8</ele>
        <time>2020-10-17T12:49:57Z</time>
      </trkpt>
      <trkpt lat="46.16414" lon="4.51576">
        <ele>695</ele>
        <time>2020-10-17T12:49:58Z</time>
      </trkpt>
      <trkpt lat="46.16414" lon="4.51576">
        <ele>695</ele>
        <time>2020-10-17T12:49:59Z</time>
      </trkpt>
      <trkpt lat="46.16412" lon="4.51579">
        <ele>695.4</ele>
        <time>2020-10-17T12:50:00Z</time>
      </trkpt>
      <trkpt lat="46.16412" lon="4.51579">
        <ele>695.2</ele>
        <time>2020-10-17T12:50:01Z</time>
      </trkpt>
      <trkpt lat="46.16411" lon="4.51581">
        <ele>695.8</ele>
        <time>2020-10-17T12:50:02Z</time>
      </trkpt>
      <trkpt lat="46.16411" lon="4.51581">
        <ele>696</ele>
        <time>2020-10-17T12:50:03Z</time>
      </trkpt>
      <trkpt lat="46.16408" lon="4.51583">
        <ele>696.2</ele>
        <time>2020-10-17T12:50:04Z</time>
      </trkpt>
      <trkpt lat="46.16406" lon="4.51585">
        <ele>696.2</ele>
        <time>2020-10-17T12:50:05Z</time>
      </trkpt>
      <trkpt lat="46.16405" lon="4.51586">
        <ele>696.6</ele>
        <time>2020-10-17T12:50:06Z</time>
      </trkpt>
      <trkpt lat="46.16405" lon="4.51586">
        <ele>696.6</ele>
        <time>2020-10-17T12:50:07Z</time>
      </trkpt>
      <trkpt lat="46.16402" lon="4.51589">
        <ele>696.6</ele>
        <time>2020-10-17T12:50:08Z</time>
      </trkpt>
      <trkpt lat="46.16402" lon="4.51589">
        <ele>696.8</ele>
        <time>2020-10-17T12:50:09Z</time>
      </trkpt>
      <trkpt lat="46.164" lon="4.51591">
        <ele>696.8</ele>
        <time>2020-10-17T12:50:10Z</time>
      </trkpt>
      <trkpt lat="46.16398" lon="4.51592">
        <ele>697.2</ele>
        <time>2020-10-17T12:50:11Z</time>
      </trkpt>
      <trkpt lat="46.16398" lon="4.51592">
        <ele>697.2</ele>
        <time>2020-10-17T12:50:12Z</time>
      </trkpt>
      <trkpt lat="46.16395" lon="4.51594">
        <ele>697.6</ele>
        <time>2020-10-17T12:50:13Z</time>
      </trkpt>
      <trkpt lat="46.16395" lon="4.51594">
        <ele>697.8</ele>
        <time>2020-10-17T12:50:14Z</time>
      </trkpt>
      <trkpt lat="46.16392" lon="4.51594">
        <ele>697.8</ele>
        <time>2020-10-17T12:50:15Z</time>
      </trkpt>
      <trkpt lat="46.1639" lon="4.51594">
        <ele>698</ele>
        <time>2020-10-17T12:50:16Z</time>
      </trkpt>
      <trkpt lat="46.1639" lon="4.51594">
        <ele>697.8</ele>
        <time>2020-10-17T12:50:17Z</time>
      </trkpt>
      <trkpt lat="46.16387" lon="4.51595">
        <ele>698.2</ele>
        <time>2020-10-17T12:50:18Z</time>
      </trkpt>
      <trkpt lat="46.16387" lon="4.51595">
        <ele>698.4</ele>
        <time>2020-10-17T12:50:19Z</time>
      </trkpt>
      <trkpt lat="46.16384" lon="4.51596">
        <ele>698.4</ele>
        <time>2020-10-17T12:50:20Z</time>
      </trkpt>
      <trkpt lat="46.16384" lon="4.51596">
        <ele>699</ele>
        <time>2020-10-17T12:50:21Z</time>
      </trkpt>
      <trkpt lat="46.16382" lon="4.51597">
        <ele>699</ele>
        <time>2020-10-17T12:50:22Z</time>
      </trkpt>
      <trkpt lat="46.16382" lon="4.51597">
        <ele>699</ele>
        <time>2020-10-17T12:50:23Z</time>
      </trkpt>
      <trkpt lat="46.16379" lon="4.51599">
        <ele>699.4</ele>
        <time>2020-10-17T12:50:24Z</time>
      </trkpt>
      <trkpt lat="46.16379" lon="4.51599">
        <ele>699.4</ele>
        <time>2020-10-17T12:50:25Z</time>
      </trkpt>
      <trkpt lat="46.16377" lon="4.516">
        <ele>699.8</ele>
        <time>2020-10-17T12:50:26Z</time>
      </trkpt>
      <trkpt lat="46.16377" lon="4.516">
        <ele>699.8</ele>
        <time>2020-10-17T12:50:27Z</time>
      </trkpt>
      <trkpt lat="46.16376" lon="4.51601">
        <ele>699.8</ele>
        <time>2020-10-17T12:50:28Z</time>
      </trkpt>
      <trkpt lat="46.16376" lon="4.51601">
        <ele>700</ele>
        <time>2020-10-17T12:50:29Z</time>
      </trkpt>
      <trkpt lat="46.16373" lon="4.51602">
        <ele>700.4</ele>
        <time>2020-10-17T12:50:30Z</time>
      </trkpt>
      <trkpt lat="46.16371" lon="4.51602">
        <ele>700.6</ele>
        <time>2020-10-17T12:50:31Z</time>
      </trkpt>
      <trkpt lat="46.16369" lon="4.51602">
        <ele>700.8</ele>
        <time>2020-10-17T12:50:32Z</time>
      </trkpt>
      <trkpt lat="46.16367" lon="4.51603">
        <ele>700.8</ele>
        <time>2020-10-17T12:50:33Z</time>
      </trkpt>
      <trkpt lat="46.16365" lon="4.51603">
        <ele>701</ele>
        <time>2020-10-17T12:50:34Z</time>
      </trkpt>
      <trkpt lat="46.16365" lon="4.51603">
        <ele>701.6</ele>
        <time>2020-10-17T12:50:35Z</time>
      </trkpt>
      <trkpt lat="46.16363" lon="4.51605">
        <ele>701.6</ele>
        <time>2020-10-17T12:50:36Z</time>
      </trkpt>
      <trkpt lat="46.16363" lon="4.51605">
        <ele>701.4</ele>
        <time>2020-10-17T12:50:37Z</time>
      </trkpt>
      <trkpt lat="46.1636" lon="4.51606">
        <ele>701.2</ele>
        <time>2020-10-17T12:50:38Z</time>
      </trkpt>
      <trkpt lat="46.1636" lon="4.51606">
        <ele>701.6</ele>
        <time>2020-10-17T12:50:39Z</time>
      </trkpt>
      <trkpt lat="46.16358" lon="4.51607">
        <ele>701.8</ele>
        <time>2020-10-17T12:50:40Z</time>
      </trkpt>
      <trkpt lat="46.16358" lon="4.51607">
        <ele>701.8</ele>
        <time>2020-10-17T12:50:41Z</time>
      </trkpt>
      <trkpt lat="46.16356" lon="4.51609">
        <ele>702.2</ele>
        <time>2020-10-17T12:50:42Z</time>
      </trkpt>
      <trkpt lat="46.16356" lon="4.51609">
        <ele>702.4</ele>
        <time>2020-10-17T12:50:43Z</time>
      </trkpt>
      <trkpt lat="46.16354" lon="4.5161">
        <ele>702.6</ele>
        <time>2020-10-17T12:50:44Z</time>
      </trkpt>
      <trkpt lat="46.16354" lon="4.5161">
        <ele>702.6</ele>
        <time>2020-10-17T12:50:45Z</time>
      </trkpt>
      <trkpt lat="46.16352" lon="4.51611">
        <ele>702.6</ele>
        <time>2020-10-17T12:50:46Z</time>
      </trkpt>
      <trkpt lat="46.16352" lon="4.51611">
        <ele>703</ele>
        <time>2020-10-17T12:50:47Z</time>
      </trkpt>
      <trkpt lat="46.16349" lon="4.51612">
        <ele>703</ele>
        <time>2020-10-17T12:50:48Z</time>
      </trkpt>
      <trkpt lat="46.16349" lon="4.51612">
        <ele>703.2</ele>
        <time>2020-10-17T12:50:49Z</time>
      </trkpt>
      <trkpt lat="46.16346" lon="4.51613">
        <ele>703.4</ele>
        <time>2020-10-17T12:50:50Z</time>
      </trkpt>
      <trkpt lat="46.16346" lon="4.51613">
        <ele>703.2</ele>
        <time>2020-10-17T12:50:51Z</time>
      </trkpt>
      <trkpt lat="46.16343" lon="4.51615">
        <ele>703.4</ele>
        <time>2020-10-17T12:50:52Z</time>
      </trkpt>
      <trkpt lat="46.16343" lon="4.51615">
        <ele>703.6</ele>
        <time>2020-10-17T12:50:53Z</time>
      </trkpt>
      <trkpt lat="46.1634" lon="4.51618">
        <ele>703.8</ele>
        <time>2020-10-17T12:50:54Z</time>
      </trkpt>
      <trkpt lat="46.16338" lon="4.51619">
        <ele>704</ele>
        <time>2020-10-17T12:50:55Z</time>
      </trkpt>
      <trkpt lat="46.16338" lon="4.51619">
        <ele>704</ele>
        <time>2020-10-17T12:50:56Z</time>
      </trkpt>
      <trkpt lat="46.16336" lon="4.51621">
        <ele>704.2</ele>
        <time>2020-10-17T12:50:57Z</time>
      </trkpt>
      <trkpt lat="46.16336" lon="4.51621">
        <ele>704.4</ele>
        <time>2020-10-17T12:50:58Z</time>
      </trkpt>
      <trkpt lat="46.16333" lon="4.51622">
        <ele>704.8</ele>
        <time>2020-10-17T12:50:59Z</time>
      </trkpt>
      <trkpt lat="46.16333" lon="4.51622">
        <ele>704.8</ele>
        <time>2020-10-17T12:51:00Z</time>
      </trkpt>
      <trkpt lat="46.16331" lon="4.51624">
        <ele>705.2</ele>
        <time>2020-10-17T12:51:01Z</time>
      </trkpt>
      <trkpt lat="46.16331" lon="4.51624">
        <ele>705.4</ele>
        <time>2020-10-17T12:51:02Z</time>
      </trkpt>
      <trkpt lat="46.16329" lon="4.51626">
        <ele>705.2</ele>
        <time>2020-10-17T12:51:03Z</time>
      </trkpt>
      <trkpt lat="46.16329" lon="4.51626">
        <ele>705.6</ele>
        <time>2020-10-17T12:51:04Z</time>
      </trkpt>
      <trkpt lat="46.16326" lon="4.51628">
        <ele>705.4</ele>
        <time>2020-10-17T12:51:05Z</time>
      </trkpt>
      <trkpt lat="46.16326" lon="4.51628">
        <ele>705.8</ele>
        <time>2020-10-17T12:51:06Z</time>
      </trkpt>
      <trkpt lat="46.16323" lon="4.51629">
        <ele>706</ele>
        <time>2020-10-17T12:51:07Z</time>
      </trkpt>
      <trkpt lat="46.16323" lon="4.51629">
        <ele>706</ele>
        <time>2020-10-17T12:51:08Z</time>
      </trkpt>
      <trkpt lat="46.1632" lon="4.51631">
        <ele>706.2</ele>
        <time>2020-10-17T12:51:09Z</time>
      </trkpt>
      <trkpt lat="46.1632" lon="4.51631">
        <ele>706.2</ele>
        <time>2020-10-17T12:51:10Z</time>
      </trkpt>
      <trkpt lat="46.16317" lon="4.51633">
        <ele>706.4</ele>
        <time>2020-10-17T12:51:11Z</time>
      </trkpt>
      <trkpt lat="46.16317" lon="4.51633">
        <ele>706.6</ele>
        <time>2020-10-17T12:51:12Z</time>
      </trkpt>
      <trkpt lat="46.16314" lon="4.51634">
        <ele>706.6</ele>
        <time>2020-10-17T12:51:13Z</time>
      </trkpt>
      <trkpt lat="46.16314" lon="4.51634">
        <ele>706.6</ele>
        <time>2020-10-17T12:51:14Z</time>
      </trkpt>
      <trkpt lat="46.16312" lon="4.51636">
        <ele>706.8</ele>
        <time>2020-10-17T12:51:15Z</time>
      </trkpt>
      <trkpt lat="46.16312" lon="4.51636">
        <ele>707</ele>
        <time>2020-10-17T12:51:16Z</time>
      </trkpt>
      <trkpt lat="46.16309" lon="4.51638">
        <ele>707.4</ele>
        <time>2020-10-17T12:51:17Z</time>
      </trkpt>
      <trkpt lat="46.16309" lon="4.51638">
        <ele>707.6</ele>
        <time>2020-10-17T12:51:18Z</time>
      </trkpt>
      <trkpt lat="46.16306" lon="4.51639">
        <ele>707.8</ele>
        <time>2020-10-17T12:51:19Z</time>
      </trkpt>
      <trkpt lat="46.16306" lon="4.51639">
        <ele>708.2</ele>
        <time>2020-10-17T12:51:20Z</time>
      </trkpt>
      <trkpt lat="46.16304" lon="4.51642">
        <ele>708.2</ele>
        <time>2020-10-17T12:51:21Z</time>
      </trkpt>
      <trkpt lat="46.16304" lon="4.51642">
        <ele>708.4</ele>
        <time>2020-10-17T12:51:22Z</time>
      </trkpt>
      <trkpt lat="46.16301" lon="4.51643">
        <ele>708.6</ele>
        <time>2020-10-17T12:51:23Z</time>
      </trkpt>
      <trkpt lat="46.16301" lon="4.51643">
        <ele>708.6</ele>
        <time>2020-10-17T12:51:24Z</time>
      </trkpt>
      <trkpt lat="46.16298" lon="4.51645">
        <ele>709</ele>
        <time>2020-10-17T12:51:25Z</time>
      </trkpt>
      <trkpt lat="46.16298" lon="4.51645">
        <ele>709.2</ele>
        <time>2020-10-17T12:51:26Z</time>
      </trkpt>
      <trkpt lat="46.16295" lon="4.51646">
        <ele>709.2</ele>
        <time>2020-10-17T12:51:27Z</time>
      </trkpt>
      <trkpt lat="46.16295" lon="4.51646">
        <ele>709.6</ele>
        <time>2020-10-17T12:51:28Z</time>
      </trkpt>
      <trkpt lat="46.16293" lon="4.51646">
        <ele>709.6</ele>
        <time>2020-10-17T12:51:29Z</time>
      </trkpt>
      <trkpt lat="46.16293" lon="4.51646">
        <ele>709.8</ele>
        <time>2020-10-17T12:51:30Z</time>
      </trkpt>
      <trkpt lat="46.16291" lon="4.51648">
        <ele>709.8</ele>
        <time>2020-10-17T12:51:31Z</time>
      </trkpt>
      <trkpt lat="46.16291" lon="4.51648">
        <ele>709.6</ele>
        <time>2020-10-17T12:51:32Z</time>
      </trkpt>
      <trkpt lat="46.16289" lon="4.51649">
        <ele>710</ele>
        <time>2020-10-17T12:51:33Z</time>
      </trkpt>
      <trkpt lat="46.16289" lon="4.51649">
        <ele>710.2</ele>
        <time>2020-10-17T12:51:34Z</time>
      </trkpt>
      <trkpt lat="46.16286" lon="4.5165">
        <ele>710.2</ele>
        <time>2020-10-17T12:51:35Z</time>
      </trkpt>
      <trkpt lat="46.16286" lon="4.5165">
        <ele>710.2</ele>
        <time>2020-10-17T12:51:36Z</time>
      </trkpt>
      <trkpt lat="46.16284" lon="4.51651">
        <ele>710.4</ele>
        <time>2020-10-17T12:51:37Z</time>
      </trkpt>
      <trkpt lat="46.16284" lon="4.51651">
        <ele>710.6</ele>
        <time>2020-10-17T12:51:38Z</time>
      </trkpt>
      <trkpt lat="46.16281" lon="4.51652">
        <ele>710.8</ele>
        <time>2020-10-17T12:51:39Z</time>
      </trkpt>
      <trkpt lat="46.16279" lon="4.51653">
        <ele>711.2</ele>
        <time>2020-10-17T12:51:40Z</time>
      </trkpt>
      <trkpt lat="46.16277" lon="4.51654">
        <ele>711.2</ele>
        <time>2020-10-17T12:51:41Z</time>
      </trkpt>
      <trkpt lat="46.16277" lon="4.51654">
        <ele>711.2</ele>
        <time>2020-10-17T12:51:42Z</time>
      </trkpt>
      <trkpt lat="46.16275" lon="4.51655">
        <ele>711.4</ele>
        <time>2020-10-17T12:51:43Z</time>
      </trkpt>
      <trkpt lat="46.16275" lon="4.51655">
        <ele>711.6</ele>
        <time>2020-10-17T12:51:44Z</time>
      </trkpt>
      <trkpt lat="46.16272" lon="4.51656">
        <ele>711.6</ele>
        <time>2020-10-17T12:51:45Z</time>
      </trkpt>
      <trkpt lat="46.16272" lon="4.51656">
        <ele>711.8</ele>
        <time>2020-10-17T12:51:46Z</time>
      </trkpt>
      <trkpt lat="46.1627" lon="4.51658">
        <ele>711.6</ele>
        <time>2020-10-17T12:51:47Z</time>
      </trkpt>
      <trkpt lat="46.16268" lon="4.51659">
        <ele>712</ele>
        <time>2020-10-17T12:51:48Z</time>
      </trkpt>
      <trkpt lat="46.16268" lon="4.51659">
        <ele>712.4</ele>
        <time>2020-10-17T12:51:49Z</time>
      </trkpt>
      <trkpt lat="46.16265" lon="4.5166">
        <ele>712.4</ele>
        <time>2020-10-17T12:51:50Z</time>
      </trkpt>
      <trkpt lat="46.16265" lon="4.5166">
        <ele>712.6</ele>
        <time>2020-10-17T12:51:51Z</time>
      </trkpt>
      <trkpt lat="46.16263" lon="4.51661">
        <ele>712.8</ele>
        <time>2020-10-17T12:51:52Z</time>
      </trkpt>
      <trkpt lat="46.16261" lon="4.51663">
        <ele>713</ele>
        <time>2020-10-17T12:51:53Z</time>
      </trkpt>
      <trkpt lat="46.16261" lon="4.51663">
        <ele>713.2</ele>
        <time>2020-10-17T12:51:54Z</time>
      </trkpt>
      <trkpt lat="46.16258" lon="4.51664">
        <ele>713.2</ele>
        <time>2020-10-17T12:51:55Z</time>
      </trkpt>
      <trkpt lat="46.16258" lon="4.51664">
        <ele>713.6</ele>
        <time>2020-10-17T12:51:56Z</time>
      </trkpt>
      <trkpt lat="46.16256" lon="4.51665">
        <ele>713.6</ele>
        <time>2020-10-17T12:51:57Z</time>
      </trkpt>
      <trkpt lat="46.16256" lon="4.51665">
        <ele>713.6</ele>
        <time>2020-10-17T12:51:58Z</time>
      </trkpt>
      <trkpt lat="46.16254" lon="4.51664">
        <ele>714</ele>
        <time>2020-10-17T12:51:59Z</time>
      </trkpt>
      <trkpt lat="46.16254" lon="4.51664">
        <ele>714.4</ele>
        <time>2020-10-17T12:52:00Z</time>
      </trkpt>
      <trkpt lat="46.16252" lon="4.51664">
        <ele>714.4</ele>
        <time>2020-10-17T12:52:01Z</time>
      </trkpt>
      <trkpt lat="46.16252" lon="4.51664">
        <ele>714.4</ele>
        <time>2020-10-17T12:52:02Z</time>
      </trkpt>
      <trkpt lat="46.16249" lon="4.51666">
        <ele>714.4</ele>
        <time>2020-10-17T12:52:03Z</time>
      </trkpt>
      <trkpt lat="46.16249" lon="4.51666">
        <ele>714.6</ele>
        <time>2020-10-17T12:52:04Z</time>
      </trkpt>
      <trkpt lat="46.16246" lon="4.51667">
        <ele>714.8</ele>
        <time>2020-10-17T12:52:05Z</time>
      </trkpt>
      <trkpt lat="46.16246" lon="4.51667">
        <ele>715</ele>
        <time>2020-10-17T12:52:06Z</time>
      </trkpt>
      <trkpt lat="46.16243" lon="4.51668">
        <ele>715</ele>
        <time>2020-10-17T12:52:07Z</time>
      </trkpt>
      <trkpt lat="46.16243" lon="4.51668">
        <ele>714.8</ele>
        <time>2020-10-17T12:52:08Z</time>
      </trkpt>
      <trkpt lat="46.16241" lon="4.51669">
        <ele>715</ele>
        <time>2020-10-17T12:52:09Z</time>
      </trkpt>
      <trkpt lat="46.16241" lon="4.51669">
        <ele>715.2</ele>
        <time>2020-10-17T12:52:10Z</time>
      </trkpt>
      <trkpt lat="46.16239" lon="4.5167">
        <ele>715.4</ele>
        <time>2020-10-17T12:52:11Z</time>
      </trkpt>
      <trkpt lat="46.16239" lon="4.5167">
        <ele>715.2</ele>
        <time>2020-10-17T12:52:12Z</time>
      </trkpt>
      <trkpt lat="46.16236" lon="4.51672">
        <ele>715.8</ele>
        <time>2020-10-17T12:52:13Z</time>
      </trkpt>
      <trkpt lat="46.16236" lon="4.51672">
        <ele>715.8</ele>
        <time>2020-10-17T12:52:14Z</time>
      </trkpt>
      <trkpt lat="46.16234" lon="4.51673">
        <ele>716</ele>
        <time>2020-10-17T12:52:15Z</time>
      </trkpt>
      <trkpt lat="46.16234" lon="4.51673">
        <ele>716.2</ele>
        <time>2020-10-17T12:52:16Z</time>
      </trkpt>
      <trkpt lat="46.16232" lon="4.51675">
        <ele>716.2</ele>
        <time>2020-10-17T12:52:17Z</time>
      </trkpt>
      <trkpt lat="46.16232" lon="4.51675">
        <ele>716.6</ele>
        <time>2020-10-17T12:52:18Z</time>
      </trkpt>
      <trkpt lat="46.1623" lon="4.51676">
        <ele>716.6</ele>
        <time>2020-10-17T12:52:19Z</time>
      </trkpt>
      <trkpt lat="46.1623" lon="4.51676">
        <ele>716.8</ele>
        <time>2020-10-17T12:52:20Z</time>
      </trkpt>
      <trkpt lat="46.16227" lon="4.51678">
        <ele>717</ele>
        <time>2020-10-17T12:52:21Z</time>
      </trkpt>
      <trkpt lat="46.16227" lon="4.51678">
        <ele>717.2</ele>
        <time>2020-10-17T12:52:22Z</time>
      </trkpt>
      <trkpt lat="46.16225" lon="4.51678">
        <ele>717.2</ele>
        <time>2020-10-17T12:52:23Z</time>
      </trkpt>
      <trkpt lat="46.16225" lon="4.51678">
        <ele>717.4</ele>
        <time>2020-10-17T12:52:24Z</time>
      </trkpt>
      <trkpt lat="46.16223" lon="4.5168">
        <ele>717.6</ele>
        <time>2020-10-17T12:52:25Z</time>
      </trkpt>
      <trkpt lat="46.16223" lon="4.5168">
        <ele>717.6</ele>
        <time>2020-10-17T12:52:26Z</time>
      </trkpt>
      <trkpt lat="46.16221" lon="4.5168">
        <ele>717.8</ele>
        <time>2020-10-17T12:52:27Z</time>
      </trkpt>
      <trkpt lat="46.16221" lon="4.5168">
        <ele>718</ele>
        <time>2020-10-17T12:52:28Z</time>
      </trkpt>
      <trkpt lat="46.16218" lon="4.51681">
        <ele>718.2</ele>
        <time>2020-10-17T12:52:29Z</time>
      </trkpt>
      <trkpt lat="46.16218" lon="4.51681">
        <ele>718.4</ele>
        <time>2020-10-17T12:52:30Z</time>
      </trkpt>
      <trkpt lat="46.16216" lon="4.51682">
        <ele>718.2</ele>
        <time>2020-10-17T12:52:31Z</time>
      </trkpt>
      <trkpt lat="46.16216" lon="4.51682">
        <ele>718.8</ele>
        <time>2020-10-17T12:52:32Z</time>
      </trkpt>
      <trkpt lat="46.16213" lon="4.51683">
        <ele>718.8</ele>
        <time>2020-10-17T12:52:33Z</time>
      </trkpt>
      <trkpt lat="46.16213" lon="4.51683">
        <ele>719.2</ele>
        <time>2020-10-17T12:52:34Z</time>
      </trkpt>
      <trkpt lat="46.16211" lon="4.51685">
        <ele>719.4</ele>
        <time>2020-10-17T12:52:35Z</time>
      </trkpt>
      <trkpt lat="46.16211" lon="4.51685">
        <ele>719.2</ele>
        <time>2020-10-17T12:52:36Z</time>
      </trkpt>
      <trkpt lat="46.16209" lon="4.51687">
        <ele>719.6</ele>
        <time>2020-10-17T12:52:37Z</time>
      </trkpt>
      <trkpt lat="46.16209" lon="4.51687">
        <ele>719.6</ele>
        <time>2020-10-17T12:52:38Z</time>
      </trkpt>
      <trkpt lat="46.16206" lon="4.51689">
        <ele>719.6</ele>
        <time>2020-10-17T12:52:39Z</time>
      </trkpt>
      <trkpt lat="46.16206" lon="4.51689">
        <ele>720</ele>
        <time>2020-10-17T12:52:40Z</time>
      </trkpt>
      <trkpt lat="46.16205" lon="4.51691">
        <ele>720.2</ele>
        <time>2020-10-17T12:52:41Z</time>
      </trkpt>
      <trkpt lat="46.16205" lon="4.51691">
        <ele>720.4</ele>
        <time>2020-10-17T12:52:42Z</time>
      </trkpt>
      <trkpt lat="46.16202" lon="4.51692">
        <ele>720.6</ele>
        <time>2020-10-17T12:52:43Z</time>
      </trkpt>
      <trkpt lat="46.16202" lon="4.51692">
        <ele>720.4</ele>
        <time>2020-10-17T12:52:44Z</time>
      </trkpt>
      <trkpt lat="46.16199" lon="4.51693">
        <ele>720.8</ele>
        <time>2020-10-17T12:52:45Z</time>
      </trkpt>
      <trkpt lat="46.16199" lon="4.51693">
        <ele>720.8</ele>
        <time>2020-10-17T12:52:46Z</time>
      </trkpt>
      <trkpt lat="46.16197" lon="4.51694">
        <ele>721.4</ele>
        <time>2020-10-17T12:52:47Z</time>
      </trkpt>
      <trkpt lat="46.16197" lon="4.51694">
        <ele>721.4</ele>
        <time>2020-10-17T12:52:48Z</time>
      </trkpt>
      <trkpt lat="46.16194" lon="4.51696">
        <ele>721.6</ele>
        <time>2020-10-17T12:52:49Z</time>
      </trkpt>
      <trkpt lat="46.16194" lon="4.51696">
        <ele>721.8</ele>
        <time>2020-10-17T12:52:50Z</time>
      </trkpt>
      <trkpt lat="46.16192" lon="4.51698">
        <ele>722</ele>
        <time>2020-10-17T12:52:51Z</time>
      </trkpt>
      <trkpt lat="46.16192" lon="4.51698">
        <ele>722</ele>
        <time>2020-10-17T12:52:52Z</time>
      </trkpt>
      <trkpt lat="46.1619" lon="4.51698">
        <ele>722.4</ele>
        <time>2020-10-17T12:52:53Z</time>
      </trkpt>
      <trkpt lat="46.1619" lon="4.51698">
        <ele>722.4</ele>
        <time>2020-10-17T12:52:54Z</time>
      </trkpt>
      <trkpt lat="46.16187" lon="4.517">
        <ele>722.6</ele>
        <time>2020-10-17T12:52:55Z</time>
      </trkpt>
      <trkpt lat="46.16187" lon="4.517">
        <ele>722.8</ele>
        <time>2020-10-17T12:52:56Z</time>
      </trkpt>
      <trkpt lat="46.16184" lon="4.51701">
        <ele>722.6</ele>
        <time>2020-10-17T12:52:57Z</time>
      </trkpt>
      <trkpt lat="46.16184" lon="4.51701">
        <ele>722.8</ele>
        <time>2020-10-17T12:52:58Z</time>
      </trkpt>
      <trkpt lat="46.16181" lon="4.51703">
        <ele>723</ele>
        <time>2020-10-17T12:52:59Z</time>
      </trkpt>
      <trkpt lat="46.16181" lon="4.51703">
        <ele>723</ele>
        <time>2020-10-17T12:53:00Z</time>
      </trkpt>
      <trkpt lat="46.16178" lon="4.51704">
        <ele>723.6</ele>
        <time>2020-10-17T12:53:01Z</time>
      </trkpt>
      <trkpt lat="46.16178" lon="4.51704">
        <ele>723.6</ele>
        <time>2020-10-17T12:53:02Z</time>
      </trkpt>
      <trkpt lat="46.16176" lon="4.51706">
        <ele>723.8</ele>
        <time>2020-10-17T12:53:03Z</time>
      </trkpt>
      <trkpt lat="46.16176" lon="4.51706">
        <ele>724</ele>
        <time>2020-10-17T12:53:04Z</time>
      </trkpt>
      <trkpt lat="46.16176" lon="4.51706">
        <ele>724.2</ele>
        <time>2020-10-17T12:53:05Z</time>
      </trkpt>
      <trkpt lat="46.16173" lon="4.51706">
        <ele>724.6</ele>
        <time>2020-10-17T12:53:06Z</time>
      </trkpt>
      <trkpt lat="46.16173" lon="4.51706">
        <ele>725</ele>
        <time>2020-10-17T12:53:07Z</time>
      </trkpt>
      <trkpt lat="46.16171" lon="4.51707">
        <ele>724.8</ele>
        <time>2020-10-17T12:53:08Z</time>
      </trkpt>
      <trkpt lat="46.16171" lon="4.51707">
        <ele>725</ele>
        <time>2020-10-17T12:53:09Z</time>
      </trkpt>
      <trkpt lat="46.16169" lon="4.51709">
        <ele>725</ele>
        <time>2020-10-17T12:53:10Z</time>
      </trkpt>
      <trkpt lat="46.16169" lon="4.51709">
        <ele>725.4</ele>
        <time>2020-10-17T12:53:11Z</time>
      </trkpt>
      <trkpt lat="46.16167" lon="4.5171">
        <ele>725.4</ele>
        <time>2020-10-17T12:53:12Z</time>
      </trkpt>
      <trkpt lat="46.16167" lon="4.5171">
        <ele>725.6</ele>
        <time>2020-10-17T12:53:13Z</time>
      </trkpt>
      <trkpt lat="46.16165" lon="4.5171">
        <ele>726</ele>
        <time>2020-10-17T12:53:14Z</time>
      </trkpt>
      <trkpt lat="46.16165" lon="4.5171">
        <ele>725.8</ele>
        <time>2020-10-17T12:53:15Z</time>
      </trkpt>
      <trkpt lat="46.16163" lon="4.51711">
        <ele>726</ele>
        <time>2020-10-17T12:53:16Z</time>
      </trkpt>
      <trkpt lat="46.16163" lon="4.51711">
        <ele>726</ele>
        <time>2020-10-17T12:53:17Z</time>
      </trkpt>
      <trkpt lat="46.1616" lon="4.51712">
        <ele>726.4</ele>
        <time>2020-10-17T12:53:18Z</time>
      </trkpt>
      <trkpt lat="46.1616" lon="4.51712">
        <ele>726.6</ele>
        <time>2020-10-17T12:53:19Z</time>
      </trkpt>
      <trkpt lat="46.16158" lon="4.51712">
        <ele>726.6</ele>
        <time>2020-10-17T12:53:20Z</time>
      </trkpt>
      <trkpt lat="46.16158" lon="4.51712">
        <ele>727.2</ele>
        <time>2020-10-17T12:53:21Z</time>
      </trkpt>
      <trkpt lat="46.16155" lon="4.51713">
        <ele>727.2</ele>
        <time>2020-10-17T12:53:22Z</time>
      </trkpt>
      <trkpt lat="46.16155" lon="4.51713">
        <ele>727.4</ele>
        <time>2020-10-17T12:53:23Z</time>
      </trkpt>
      <trkpt lat="46.16153" lon="4.51713">
        <ele>727.8</ele>
        <time>2020-10-17T12:53:24Z</time>
      </trkpt>
      <trkpt lat="46.16153" lon="4.51713">
        <ele>727.8</ele>
        <time>2020-10-17T12:53:25Z</time>
      </trkpt>
      <trkpt lat="46.16149" lon="4.51715">
        <ele>728.2</ele>
        <time>2020-10-17T12:53:26Z</time>
      </trkpt>
      <trkpt lat="46.16149" lon="4.51715">
        <ele>728.2</ele>
        <time>2020-10-17T12:53:27Z</time>
      </trkpt>
      <trkpt lat="46.16147" lon="4.51716">
        <ele>728.6</ele>
        <time>2020-10-17T12:53:28Z</time>
      </trkpt>
      <trkpt lat="46.16147" lon="4.51716">
        <ele>728.6</ele>
        <time>2020-10-17T12:53:29Z</time>
      </trkpt>
      <trkpt lat="46.16147" lon="4.51716">
        <ele>728.8</ele>
        <time>2020-10-17T12:53:30Z</time>
      </trkpt>
      <trkpt lat="46.16144" lon="4.51716">
        <ele>729</ele>
        <time>2020-10-17T12:53:31Z</time>
      </trkpt>
      <trkpt lat="46.16144" lon="4.51716">
        <ele>728.8</ele>
        <time>2020-10-17T12:53:32Z</time>
      </trkpt>
      <trkpt lat="46.16142" lon="4.51716">
        <ele>729</ele>
        <time>2020-10-17T12:53:33Z</time>
      </trkpt>
      <trkpt lat="46.16142" lon="4.51716">
        <ele>729.2</ele>
        <time>2020-10-17T12:53:34Z</time>
      </trkpt>
      <trkpt lat="46.1614" lon="4.51717">
        <ele>729.6</ele>
        <time>2020-10-17T12:53:35Z</time>
      </trkpt>
      <trkpt lat="46.1614" lon="4.51717">
        <ele>729.4</ele>
        <time>2020-10-17T12:53:36Z</time>
      </trkpt>
      <trkpt lat="46.16138" lon="4.51717">
        <ele>729.4</ele>
        <time>2020-10-17T12:53:37Z</time>
      </trkpt>
      <trkpt lat="46.16138" lon="4.51717">
        <ele>729.8</ele>
        <time>2020-10-17T12:53:38Z</time>
      </trkpt>
      <trkpt lat="46.16136" lon="4.51716">
        <ele>729.8</ele>
        <time>2020-10-17T12:53:39Z</time>
      </trkpt>
      <trkpt lat="46.16136" lon="4.51716">
        <ele>730.2</ele>
        <time>2020-10-17T12:53:40Z</time>
      </trkpt>
      <trkpt lat="46.16136" lon="4.51716">
        <ele>730.4</ele>
        <time>2020-10-17T12:53:41Z</time>
      </trkpt>
      <trkpt lat="46.16133" lon="4.51715">
        <ele>730.6</ele>
        <time>2020-10-17T12:53:42Z</time>
      </trkpt>
      <trkpt lat="46.16133" lon="4.51715">
        <ele>730.8</ele>
        <time>2020-10-17T12:53:43Z</time>
      </trkpt>
      <trkpt lat="46.1613" lon="4.51715">
        <ele>730.8</ele>
        <time>2020-10-17T12:53:44Z</time>
      </trkpt>
      <trkpt lat="46.1613" lon="4.51715">
        <ele>731.2</ele>
        <time>2020-10-17T12:53:45Z</time>
      </trkpt>
      <trkpt lat="46.16128" lon="4.51715">
        <ele>731.4</ele>
        <time>2020-10-17T12:53:46Z</time>
      </trkpt>
      <trkpt lat="46.16128" lon="4.51715">
        <ele>731.6</ele>
        <time>2020-10-17T12:53:47Z</time>
      </trkpt>
      <trkpt lat="46.16126" lon="4.51714">
        <ele>731.6</ele>
        <time>2020-10-17T12:53:48Z</time>
      </trkpt>
      <trkpt lat="46.16126" lon="4.51714">
        <ele>732.2</ele>
        <time>2020-10-17T12:53:49Z</time>
      </trkpt>
      <trkpt lat="46.16123" lon="4.51713">
        <ele>732</ele>
        <time>2020-10-17T12:53:50Z</time>
      </trkpt>
      <trkpt lat="46.16123" lon="4.51713">
        <ele>732.4</ele>
        <time>2020-10-17T12:53:51Z</time>
      </trkpt>
      <trkpt lat="46.16123" lon="4.51713">
        <ele>732.2</ele>
        <time>2020-10-17T12:53:52Z</time>
      </trkpt>
      <trkpt lat="46.16121" lon="4.5171">
        <ele>732.4</ele>
        <time>2020-10-17T12:53:53Z</time>
      </trkpt>
      <trkpt lat="46.16121" lon="4.5171">
        <ele>732.4</ele>
        <time>2020-10-17T12:53:54Z</time>
      </trkpt>
      <trkpt lat="46.16118" lon="4.5171">
        <ele>732.6</ele>
        <time>2020-10-17T12:53:55Z</time>
      </trkpt>
      <trkpt lat="46.16118" lon="4.5171">
        <ele>733</ele>
        <time>2020-10-17T12:53:56Z</time>
      </trkpt>
      <trkpt lat="46.16115" lon="4.51708">
        <ele>733.4</ele>
        <time>2020-10-17T12:53:57Z</time>
      </trkpt>
      <trkpt lat="46.16115" lon="4.51708">
        <ele>733.6</ele>
        <time>2020-10-17T12:53:58Z</time>
      </trkpt>
      <trkpt lat="46.16112" lon="4.51707">
        <ele>733.6</ele>
        <time>2020-10-17T12:53:59Z</time>
      </trkpt>
      <trkpt lat="46.16112" lon="4.51707">
        <ele>733.6</ele>
        <time>2020-10-17T12:54:00Z</time>
      </trkpt>
      <trkpt lat="46.16109" lon="4.51706">
        <ele>734</ele>
        <time>2020-10-17T12:54:01Z</time>
      </trkpt>
      <trkpt lat="46.16109" lon="4.51706">
        <ele>734</ele>
        <time>2020-10-17T12:54:02Z</time>
      </trkpt>
      <trkpt lat="46.16107" lon="4.51704">
        <ele>734.2</ele>
        <time>2020-10-17T12:54:03Z</time>
      </trkpt>
      <trkpt lat="46.16107" lon="4.51704">
        <ele>734.2</ele>
        <time>2020-10-17T12:54:04Z</time>
      </trkpt>
      <trkpt lat="46.16104" lon="4.51703">
        <ele>734.4</ele>
        <time>2020-10-17T12:54:05Z</time>
      </trkpt>
      <trkpt lat="46.16104" lon="4.51703">
        <ele>734.4</ele>
        <time>2020-10-17T12:54:06Z</time>
      </trkpt>
      <trkpt lat="46.16102" lon="4.51703">
        <ele>734.6</ele>
        <time>2020-10-17T12:54:07Z</time>
      </trkpt>
      <trkpt lat="46.16102" lon="4.51703">
        <ele>734.6</ele>
        <time>2020-10-17T12:54:08Z</time>
      </trkpt>
      <trkpt lat="46.161" lon="4.51701">
        <ele>734.8</ele>
        <time>2020-10-17T12:54:09Z</time>
      </trkpt>
      <trkpt lat="46.161" lon="4.51701">
        <ele>735</ele>
        <time>2020-10-17T12:54:10Z</time>
      </trkpt>
      <trkpt lat="46.16098" lon="4.517">
        <ele>735.2</ele>
        <time>2020-10-17T12:54:11Z</time>
      </trkpt>
      <trkpt lat="46.16098" lon="4.517">
        <ele>735.4</ele>
        <time>2020-10-17T12:54:12Z</time>
      </trkpt>
      <trkpt lat="46.16096" lon="4.51698">
        <ele>735.8</ele>
        <time>2020-10-17T12:54:13Z</time>
      </trkpt>
      <trkpt lat="46.16096" lon="4.51698">
        <ele>735.6</ele>
        <time>2020-10-17T12:54:14Z</time>
      </trkpt>
      <trkpt lat="46.16094" lon="4.51696">
        <ele>735.6</ele>
        <time>2020-10-17T12:54:15Z</time>
      </trkpt>
      <trkpt lat="46.16094" lon="4.51696">
        <ele>735.8</ele>
        <time>2020-10-17T12:54:16Z</time>
      </trkpt>
      <trkpt lat="46.16092" lon="4.51696">
        <ele>735.8</ele>
        <time>2020-10-17T12:54:17Z</time>
      </trkpt>
      <trkpt lat="46.16092" lon="4.51696">
        <ele>735.8</ele>
        <time>2020-10-17T12:54:18Z</time>
      </trkpt>
      <trkpt lat="46.16091" lon="4.51694">
        <ele>735.8</ele>
        <time>2020-10-17T12:54:19Z</time>
      </trkpt>
      <trkpt lat="46.16091" lon="4.51694">
        <ele>735.8</ele>
        <time>2020-10-17T12:54:20Z</time>
      </trkpt>
      <trkpt lat="46.16089" lon="4.51693">
        <ele>735.8</ele>
        <time>2020-10-17T12:54:21Z</time>
      </trkpt>
      <trkpt lat="46.16089" lon="4.51693">
        <ele>736.4</ele>
        <time>2020-10-17T12:54:22Z</time>
      </trkpt>
      <trkpt lat="46.16089" lon="4.51693">
        <ele>736.6</ele>
        <time>2020-10-17T12:54:23Z</time>
      </trkpt>
      <trkpt lat="46.16086" lon="4.5169">
        <ele>736.4</ele>
        <time>2020-10-17T12:54:24Z</time>
      </trkpt>
      <trkpt lat="46.16086" lon="4.5169">
        <ele>736.4</ele>
        <time>2020-10-17T12:54:25Z</time>
      </trkpt>
      <trkpt lat="46.16084" lon="4.51688">
        <ele>736.6</ele>
        <time>2020-10-17T12:54:26Z</time>
      </trkpt>
      <trkpt lat="46.16084" lon="4.51688">
        <ele>737</ele>
        <time>2020-10-17T12:54:27Z</time>
      </trkpt>
      <trkpt lat="46.16084" lon="4.51688">
        <ele>737.2</ele>
        <time>2020-10-17T12:54:28Z</time>
      </trkpt>
      <trkpt lat="46.16084" lon="4.51688">
        <ele>737.2</ele>
        <time>2020-10-17T12:54:29Z</time>
      </trkpt>
      <trkpt lat="46.16083" lon="4.51685">
        <ele>737.2</ele>
        <time>2020-10-17T12:54:30Z</time>
      </trkpt>
      <trkpt lat="46.16083" lon="4.51685">
        <ele>737.4</ele>
        <time>2020-10-17T12:54:31Z</time>
      </trkpt>
      <trkpt lat="46.16081" lon="4.51684">
        <ele>737.4</ele>
        <time>2020-10-17T12:54:32Z</time>
      </trkpt>
      <trkpt lat="46.16081" lon="4.51684">
        <ele>737.6</ele>
        <time>2020-10-17T12:54:33Z</time>
      </trkpt>
      <trkpt lat="46.16078" lon="4.51682">
        <ele>737.4</ele>
        <time>2020-10-17T12:54:34Z</time>
      </trkpt>
      <trkpt lat="46.16078" lon="4.51682">
        <ele>737.6</ele>
        <time>2020-10-17T12:54:35Z</time>
      </trkpt>
      <trkpt lat="46.16076" lon="4.5168">
        <ele>737.6</ele>
        <time>2020-10-17T12:54:36Z</time>
      </trkpt>
      <trkpt lat="46.16076" lon="4.5168">
        <ele>737.8</ele>
        <time>2020-10-17T12:54:37Z</time>
      </trkpt>
      <trkpt lat="46.16073" lon="4.51678">
        <ele>737.8</ele>
        <time>2020-10-17T12:54:38Z</time>
      </trkpt>
      <trkpt lat="46.16073" lon="4.51678">
        <ele>738.2</ele>
        <time>2020-10-17T12:54:39Z</time>
      </trkpt>
      <trkpt lat="46.16071" lon="4.51676">
        <ele>738.2</ele>
        <time>2020-10-17T12:54:40Z</time>
      </trkpt>
      <trkpt lat="46.16071" lon="4.51676">
        <ele>738.4</ele>
        <time>2020-10-17T12:54:41Z</time>
      </trkpt>
      <trkpt lat="46.16068" lon="4.51674">
        <ele>738.6</ele>
        <time>2020-10-17T12:54:42Z</time>
      </trkpt>
      <trkpt lat="46.16068" lon="4.51674">
        <ele>738.8</ele>
        <time>2020-10-17T12:54:43Z</time>
      </trkpt>
      <trkpt lat="46.16066" lon="4.51671">
        <ele>738.8</ele>
        <time>2020-10-17T12:54:44Z</time>
      </trkpt>
      <trkpt lat="46.16066" lon="4.51671">
        <ele>738.8</ele>
        <time>2020-10-17T12:54:45Z</time>
      </trkpt>
      <trkpt lat="46.16063" lon="4.51668">
        <ele>739</ele>
        <time>2020-10-17T12:54:46Z</time>
      </trkpt>
      <trkpt lat="46.16063" lon="4.51668">
        <ele>738.8</ele>
        <time>2020-10-17T12:54:47Z</time>
      </trkpt>
      <trkpt lat="46.16061" lon="4.51666">
        <ele>738.8</ele>
        <time>2020-10-17T12:54:48Z</time>
      </trkpt>
      <trkpt lat="46.16061" lon="4.51666">
        <ele>739.2</ele>
        <time>2020-10-17T12:54:49Z</time>
      </trkpt>
      <trkpt lat="46.16059" lon="4.51664">
        <ele>739.4</ele>
        <time>2020-10-17T12:54:50Z</time>
      </trkpt>
      <trkpt lat="46.16059" lon="4.51664">
        <ele>739.4</ele>
        <time>2020-10-17T12:54:51Z</time>
      </trkpt>
      <trkpt lat="46.16056" lon="4.51663">
        <ele>739.6</ele>
        <time>2020-10-17T12:54:52Z</time>
      </trkpt>
      <trkpt lat="46.16056" lon="4.51663">
        <ele>739.6</ele>
        <time>2020-10-17T12:54:53Z</time>
      </trkpt>
      <trkpt lat="46.16054" lon="4.51662">
        <ele>739.4</ele>
        <time>2020-10-17T12:54:54Z</time>
      </trkpt>
      <trkpt lat="46.16054" lon="4.51662">
        <ele>739.2</ele>
        <time>2020-10-17T12:54:55Z</time>
      </trkpt>
      <trkpt lat="46.16052" lon="4.5166">
        <ele>739.4</ele>
        <time>2020-10-17T12:54:56Z</time>
      </trkpt>
      <trkpt lat="46.1605" lon="4.51658">
        <ele>739.6</ele>
        <time>2020-10-17T12:54:57Z</time>
      </trkpt>
      <trkpt lat="46.1605" lon="4.51658">
        <ele>739.6</ele>
        <time>2020-10-17T12:54:58Z</time>
      </trkpt>
      <trkpt lat="46.16047" lon="4.51657">
        <ele>739.8</ele>
        <time>2020-10-17T12:54:59Z</time>
      </trkpt>
      <trkpt lat="46.16047" lon="4.51657">
        <ele>740</ele>
        <time>2020-10-17T12:55:00Z</time>
      </trkpt>
      <trkpt lat="46.16045" lon="4.51657">
        <ele>740.2</ele>
        <time>2020-10-17T12:55:01Z</time>
      </trkpt>
      <trkpt lat="46.16045" lon="4.51657">
        <ele>740.2</ele>
        <time>2020-10-17T12:55:02Z</time>
      </trkpt>
      <trkpt lat="46.16042" lon="4.51656">
        <ele>740</ele>
        <time>2020-10-17T12:55:03Z</time>
      </trkpt>
      <trkpt lat="46.16042" lon="4.51656">
        <ele>740</ele>
        <time>2020-10-17T12:55:04Z</time>
      </trkpt>
      <trkpt lat="46.16039" lon="4.51655">
        <ele>740</ele>
        <time>2020-10-17T12:55:05Z</time>
      </trkpt>
      <trkpt lat="46.16039" lon="4.51655">
        <ele>739.8</ele>
        <time>2020-10-17T12:55:06Z</time>
      </trkpt>
      <trkpt lat="46.16036" lon="4.51654">
        <ele>740</ele>
        <time>2020-10-17T12:55:07Z</time>
      </trkpt>
      <trkpt lat="46.16036" lon="4.51654">
        <ele>740</ele>
        <time>2020-10-17T12:55:08Z</time>
      </trkpt>
      <trkpt lat="46.16033" lon="4.51653">
        <ele>740</ele>
        <time>2020-10-17T12:55:09Z</time>
      </trkpt>
      <trkpt lat="46.16033" lon="4.51653">
        <ele>740</ele>
        <time>2020-10-17T12:55:10Z</time>
      </trkpt>
      <trkpt lat="46.1603" lon="4.51652">
        <ele>740.2</ele>
        <time>2020-10-17T12:55:11Z</time>
      </trkpt>
      <trkpt lat="46.1603" lon="4.51652">
        <ele>740</ele>
        <time>2020-10-17T12:55:12Z</time>
      </trkpt>
      <trkpt lat="46.16028" lon="4.51651">
        <ele>740</ele>
        <time>2020-10-17T12:55:13Z</time>
      </trkpt>
      <trkpt lat="46.16028" lon="4.51651">
        <ele>740</ele>
        <time>2020-10-17T12:55:14Z</time>
      </trkpt>
      <trkpt lat="46.16025" lon="4.5165">
        <ele>739.6</ele>
        <time>2020-10-17T12:55:15Z</time>
      </trkpt>
      <trkpt lat="46.16025" lon="4.5165">
        <ele>739.6</ele>
        <time>2020-10-17T12:55:16Z</time>
      </trkpt>
      <trkpt lat="46.16022" lon="4.51648">
        <ele>739.4</ele>
        <time>2020-10-17T12:55:17Z</time>
      </trkpt>
      <trkpt lat="46.16022" lon="4.51648">
        <ele>739.8</ele>
        <time>2020-10-17T12:55:18Z</time>
      </trkpt>
      <trkpt lat="46.16019" lon="4.51646">
        <ele>739.8</ele>
        <time>2020-10-17T12:55:19Z</time>
      </trkpt>
      <trkpt lat="46.16019" lon="4.51646">
        <ele>739.6</ele>
        <time>2020-10-17T12:55:20Z</time>
      </trkpt>
      <trkpt lat="46.16016" lon="4.51644">
        <ele>739.6</ele>
        <time>2020-10-17T12:55:21Z</time>
      </trkpt>
      <trkpt lat="46.16016" lon="4.51644">
        <ele>739.6</ele>
        <time>2020-10-17T12:55:22Z</time>
      </trkpt>
      <trkpt lat="46.16013" lon="4.51644">
        <ele>739.8</ele>
        <time>2020-10-17T12:55:23Z</time>
      </trkpt>
      <trkpt lat="46.16013" lon="4.51644">
        <ele>739.8</ele>
        <time>2020-10-17T12:55:24Z</time>
      </trkpt>
      <trkpt lat="46.1601" lon="4.51644">
        <ele>739.6</ele>
        <time>2020-10-17T12:55:25Z</time>
      </trkpt>
      <trkpt lat="46.1601" lon="4.51644">
        <ele>739.6</ele>
        <time>2020-10-17T12:55:26Z</time>
      </trkpt>
      <trkpt lat="46.16007" lon="4.51644">
        <ele>739.6</ele>
        <time>2020-10-17T12:55:27Z</time>
      </trkpt>
      <trkpt lat="46.16007" lon="4.51644">
        <ele>739.4</ele>
        <time>2020-10-17T12:55:28Z</time>
      </trkpt>
      <trkpt lat="46.16005" lon="4.51644">
        <ele>739.4</ele>
        <time>2020-10-17T12:55:29Z</time>
      </trkpt>
      <trkpt lat="46.16005" lon="4.51644">
        <ele>739.4</ele>
        <time>2020-10-17T12:55:30Z</time>
      </trkpt>
      <trkpt lat="46.16002" lon="4.51644">
        <ele>739.2</ele>
        <time>2020-10-17T12:55:31Z</time>
      </trkpt>
      <trkpt lat="46.16002" lon="4.51644">
        <ele>739.2</ele>
        <time>2020-10-17T12:55:32Z</time>
      </trkpt>
      <trkpt lat="46.16" lon="4.51644">
        <ele>739</ele>
        <time>2020-10-17T12:55:33Z</time>
      </trkpt>
      <trkpt lat="46.16" lon="4.51644">
        <ele>738.8</ele>
        <time>2020-10-17T12:55:34Z</time>
      </trkpt>
      <trkpt lat="46.15997" lon="4.51642">
        <ele>738.8</ele>
        <time>2020-10-17T12:55:35Z</time>
      </trkpt>
      <trkpt lat="46.15997" lon="4.51642">
        <ele>738.8</ele>
        <time>2020-10-17T12:55:36Z</time>
      </trkpt>
      <trkpt lat="46.15997" lon="4.51642">
        <ele>738.8</ele>
        <time>2020-10-17T12:55:37Z</time>
      </trkpt>
      <trkpt lat="46.15995" lon="4.51641">
        <ele>738.8</ele>
        <time>2020-10-17T12:55:38Z</time>
      </trkpt>
      <trkpt lat="46.15995" lon="4.51641">
        <ele>738.8</ele>
        <time>2020-10-17T12:55:39Z</time>
      </trkpt>
      <trkpt lat="46.15995" lon="4.51641">
        <ele>738.8</ele>
        <time>2020-10-17T12:55:40Z</time>
      </trkpt>
      <trkpt lat="46.15995" lon="4.51641">
        <ele>738.8</ele>
        <time>2020-10-17T12:55:41Z</time>
      </trkpt>
      <trkpt lat="46.15995" lon="4.51641">
        <ele>738.6</ele>
        <time>2020-10-17T12:55:42Z</time>
      </trkpt>
      <trkpt lat="46.15995" lon="4.51641">
        <ele>738.4</ele>
        <time>2020-10-17T12:55:43Z</time>
      </trkpt>
      <trkpt lat="46.15992" lon="4.51641">
        <ele>738.4</ele>
        <time>2020-10-17T12:55:44Z</time>
      </trkpt>
      <trkpt lat="46.15992" lon="4.51641">
        <ele>738.4</ele>
        <time>2020-10-17T12:55:45Z</time>
      </trkpt>
      <trkpt lat="46.1599" lon="4.51639">
        <ele>738.4</ele>
        <time>2020-10-17T12:55:46Z</time>
      </trkpt>
      <trkpt lat="46.1599" lon="4.51639">
        <ele>738.4</ele>
        <time>2020-10-17T12:55:47Z</time>
      </trkpt>
      <trkpt lat="46.15987" lon="4.51638">
        <ele>738.4</ele>
        <time>2020-10-17T12:55:48Z</time>
      </trkpt>
      <trkpt lat="46.15987" lon="4.51638">
        <ele>738.6</ele>
        <time>2020-10-17T12:55:49Z</time>
      </trkpt>
      <trkpt lat="46.15987" lon="4.51638">
        <ele>738.8</ele>
        <time>2020-10-17T12:55:50Z</time>
      </trkpt>
      <trkpt lat="46.15987" lon="4.51638">
        <ele>738.8</ele>
        <time>2020-10-17T12:55:51Z</time>
      </trkpt>
      <trkpt lat="46.15987" lon="4.51638">
        <ele>738.8</ele>
        <time>2020-10-17T12:55:52Z</time>
      </trkpt>
      <trkpt lat="46.15985" lon="4.51636">
        <ele>739</ele>
        <time>2020-10-17T12:55:53Z</time>
      </trkpt>
      <trkpt lat="46.15985" lon="4.51636">
        <ele>739.2</ele>
        <time>2020-10-17T12:55:54Z</time>
      </trkpt>
      <trkpt lat="46.15985" lon="4.51636">
        <ele>739.4</ele>
        <time>2020-10-17T12:55:55Z</time>
      </trkpt>
      <trkpt lat="46.15985" lon="4.51636">
        <ele>739.6</ele>
        <time>2020-10-17T12:55:56Z</time>
      </trkpt>
      <trkpt lat="46.15985" lon="4.51636">
        <ele>739.4</ele>
        <time>2020-10-17T12:55:57Z</time>
      </trkpt>
      <trkpt lat="46.15985" lon="4.51636">
        <ele>739.4</ele>
        <time>2020-10-17T12:55:58Z</time>
      </trkpt>
      <trkpt lat="46.15985" lon="4.51636">
        <ele>739.4</ele>
        <time>2020-10-17T12:55:59Z</time>
      </trkpt>
      <trkpt lat="46.15985" lon="4.51636">
        <ele>739.2</ele>
        <time>2020-10-17T12:56:00Z</time>
      </trkpt>
      <trkpt lat="46.15985" lon="4.51636">
        <ele>739.2</ele>
        <time>2020-10-17T12:56:01Z</time>
      </trkpt>
      <trkpt lat="46.15985" lon="4.51636">
        <ele>739</ele>
        <time>2020-10-17T12:56:02Z</time>
      </trkpt>
      <trkpt lat="46.15985" lon="4.51636">
        <ele>738.8</ele>
        <time>2020-10-17T12:56:03Z</time>
      </trkpt>
      <trkpt lat="46.15987" lon="4.51639">
        <ele>738.8</ele>
        <time>2020-10-17T12:56:04Z</time>
      </trkpt>
      <trkpt lat="46.15987" lon="4.51639">
        <ele>739</ele>
        <time>2020-10-17T12:56:05Z</time>
      </trkpt>
      <trkpt lat="46.15989" lon="4.51641">
        <ele>738.8</ele>
        <time>2020-10-17T12:56:06Z</time>
      </trkpt>
      <trkpt lat="46.15989" lon="4.51641">
        <ele>738.8</ele>
        <time>2020-10-17T12:56:07Z</time>
      </trkpt>
      <trkpt lat="46.1599" lon="4.51645">
        <ele>738.8</ele>
        <time>2020-10-17T12:56:08Z</time>
      </trkpt>
      <trkpt lat="46.1599" lon="4.51645">
        <ele>739</ele>
        <time>2020-10-17T12:56:09Z</time>
      </trkpt>
      <trkpt lat="46.1599" lon="4.51648">
        <ele>739</ele>
        <time>2020-10-17T12:56:10Z</time>
      </trkpt>
      <trkpt lat="46.1599" lon="4.51648">
        <ele>739</ele>
        <time>2020-10-17T12:56:11Z</time>
      </trkpt>
      <trkpt lat="46.15992" lon="4.5165">
        <ele>739</ele>
        <time>2020-10-17T12:56:12Z</time>
      </trkpt>
      <trkpt lat="46.15992" lon="4.5165">
        <ele>739.2</ele>
        <time>2020-10-17T12:56:13Z</time>
      </trkpt>
      <trkpt lat="46.15992" lon="4.5165">
        <ele>739.2</ele>
        <time>2020-10-17T12:56:14Z</time>
      </trkpt>
      <trkpt lat="46.15992" lon="4.5165">
        <ele>739.2</ele>
        <time>2020-10-17T12:56:15Z</time>
      </trkpt>
      <trkpt lat="46.15992" lon="4.5165">
        <ele>739.2</ele>
        <time>2020-10-17T12:56:16Z</time>
      </trkpt>
      <trkpt lat="46.15992" lon="4.5165">
        <ele>739.2</ele>
        <time>2020-10-17T12:56:17Z</time>
      </trkpt>
      <trkpt lat="46.15992" lon="4.5165">
        <ele>739</ele>
        <time>2020-10-17T12:56:18Z</time>
      </trkpt>
      <trkpt lat="46.15992" lon="4.5165">
        <ele>738.8</ele>
        <time>2020-10-17T12:56:19Z</time>
      </trkpt>
      <trkpt lat="46.15992" lon="4.5165">
        <ele>738.8</ele>
        <time>2020-10-17T12:56:20Z</time>
      </trkpt>
      <trkpt lat="46.1599" lon="4.51652">
        <ele>738.8</ele>
        <time>2020-10-17T12:56:21Z</time>
      </trkpt>
      <trkpt lat="46.1599" lon="4.51652">
        <ele>738.8</ele>
        <time>2020-10-17T12:56:22Z</time>
      </trkpt>
      <trkpt lat="46.15988" lon="4.51655">
        <ele>738.6</ele>
        <time>2020-10-17T12:56:23Z</time>
      </trkpt>
      <trkpt lat="46.15988" lon="4.51655">
        <ele>738.8</ele>
        <time>2020-10-17T12:56:24Z</time>
      </trkpt>
      <trkpt lat="46.15987" lon="4.51658">
        <ele>738.6</ele>
        <time>2020-10-17T12:56:25Z</time>
      </trkpt>
      <trkpt lat="46.15987" lon="4.51658">
        <ele>738.6</ele>
        <time>2020-10-17T12:56:26Z</time>
      </trkpt>
      <trkpt lat="46.15986" lon="4.51661">
        <ele>738.6</ele>
        <time>2020-10-17T12:56:27Z</time>
      </trkpt>
      <trkpt lat="46.15986" lon="4.51661">
        <ele>738.6</ele>
        <time>2020-10-17T12:56:28Z</time>
      </trkpt>
      <trkpt lat="46.15986" lon="4.51664">
        <ele>738.6</ele>
        <time>2020-10-17T12:56:29Z</time>
      </trkpt>
      <trkpt lat="46.15986" lon="4.51664">
        <ele>738.4</ele>
        <time>2020-10-17T12:56:30Z</time>
      </trkpt>
      <trkpt lat="46.15985" lon="4.51667">
        <ele>738.4</ele>
        <time>2020-10-17T12:56:31Z</time>
      </trkpt>
      <trkpt lat="46.15985" lon="4.51667">
        <ele>738.2</ele>
        <time>2020-10-17T12:56:32Z</time>
      </trkpt>
      <trkpt lat="46.15985" lon="4.5167">
        <ele>738.2</ele>
        <time>2020-10-17T12:56:33Z</time>
      </trkpt>
      <trkpt lat="46.15985" lon="4.5167">
        <ele>738</ele>
        <time>2020-10-17T12:56:34Z</time>
      </trkpt>
      <trkpt lat="46.15984" lon="4.51674">
        <ele>737.8</ele>
        <time>2020-10-17T12:56:35Z</time>
      </trkpt>
      <trkpt lat="46.15984" lon="4.51674">
        <ele>737.4</ele>
        <time>2020-10-17T12:56:36Z</time>
      </trkpt>
      <trkpt lat="46.15983" lon="4.51676">
        <ele>737.2</ele>
        <time>2020-10-17T12:56:37Z</time>
      </trkpt>
      <trkpt lat="46.15983" lon="4.51676">
        <ele>737.2</ele>
        <time>2020-10-17T12:56:38Z</time>
      </trkpt>
      <trkpt lat="46.15981" lon="4.5168">
        <ele>737</ele>
        <time>2020-10-17T12:56:39Z</time>
      </trkpt>
      <trkpt lat="46.15981" lon="4.5168">
        <ele>736.8</ele>
        <time>2020-10-17T12:56:40Z</time>
      </trkpt>
      <trkpt lat="46.1598" lon="4.51683">
        <ele>736.6</ele>
        <time>2020-10-17T12:56:41Z</time>
      </trkpt>
      <trkpt lat="46.1598" lon="4.51683">
        <ele>736.4</ele>
        <time>2020-10-17T12:56:42Z</time>
      </trkpt>
      <trkpt lat="46.15979" lon="4.51686">
        <ele>736.4</ele>
        <time>2020-10-17T12:56:43Z</time>
      </trkpt>
      <trkpt lat="46.15979" lon="4.51686">
        <ele>736.2</ele>
        <time>2020-10-17T12:56:44Z</time>
      </trkpt>
      <trkpt lat="46.15977" lon="4.51688">
        <ele>736.2</ele>
        <time>2020-10-17T12:56:45Z</time>
      </trkpt>
      <trkpt lat="46.15977" lon="4.51688">
        <ele>736.4</ele>
        <time>2020-10-17T12:56:46Z</time>
      </trkpt>
      <trkpt lat="46.15974" lon="4.51691">
        <ele>736.6</ele>
        <time>2020-10-17T12:56:47Z</time>
      </trkpt>
      <trkpt lat="46.15974" lon="4.51693">
        <ele>736.4</ele>
        <time>2020-10-17T12:56:48Z</time>
      </trkpt>
      <trkpt lat="46.15973" lon="4.51696">
        <ele>736.6</ele>
        <time>2020-10-17T12:56:49Z</time>
      </trkpt>
      <trkpt lat="46.15971" lon="4.51698">
        <ele>736.8</ele>
        <time>2020-10-17T12:56:50Z</time>
      </trkpt>
      <trkpt lat="46.15971" lon="4.51698">
        <ele>736.6</ele>
        <time>2020-10-17T12:56:51Z</time>
      </trkpt>
      <trkpt lat="46.15971" lon="4.51702">
        <ele>736.6</ele>
        <time>2020-10-17T12:56:52Z</time>
      </trkpt>
      <trkpt lat="46.15971" lon="4.51702">
        <ele>736.6</ele>
        <time>2020-10-17T12:56:53Z</time>
      </trkpt>
      <trkpt lat="46.15969" lon="4.51706">
        <ele>736.4</ele>
        <time>2020-10-17T12:56:54Z</time>
      </trkpt>
      <trkpt lat="46.15969" lon="4.51706">
        <ele>736</ele>
        <time>2020-10-17T12:56:55Z</time>
      </trkpt>
      <trkpt lat="46.15968" lon="4.51709">
        <ele>736</ele>
        <time>2020-10-17T12:56:56Z</time>
      </trkpt>
      <trkpt lat="46.15968" lon="4.51709">
        <ele>736</ele>
        <time>2020-10-17T12:56:57Z</time>
      </trkpt>
      <trkpt lat="46.15967" lon="4.51711">
        <ele>736</ele>
        <time>2020-10-17T12:56:58Z</time>
      </trkpt>
      <trkpt lat="46.15967" lon="4.51711">
        <ele>736</ele>
        <time>2020-10-17T12:56:59Z</time>
      </trkpt>
      <trkpt lat="46.15965" lon="4.51716">
        <ele>735.6</ele>
        <time>2020-10-17T12:57:00Z</time>
      </trkpt>
      <trkpt lat="46.15964" lon="4.51718">
        <ele>735.8</ele>
        <time>2020-10-17T12:57:01Z</time>
      </trkpt>
      <trkpt lat="46.15963" lon="4.51721">
        <ele>735.6</ele>
        <time>2020-10-17T12:57:02Z</time>
      </trkpt>
      <trkpt lat="46.15962" lon="4.51724">
        <ele>735</ele>
        <time>2020-10-17T12:57:03Z</time>
      </trkpt>
      <trkpt lat="46.1596" lon="4.51726">
        <ele>735.4</ele>
        <time>2020-10-17T12:57:04Z</time>
      </trkpt>
      <trkpt lat="46.15959" lon="4.51729">
        <ele>735.2</ele>
        <time>2020-10-17T12:57:05Z</time>
      </trkpt>
      <trkpt lat="46.15957" lon="4.51733">
        <ele>734.8</ele>
        <time>2020-10-17T12:57:06Z</time>
      </trkpt>
      <trkpt lat="46.15956" lon="4.51735">
        <ele>735.2</ele>
        <time>2020-10-17T12:57:07Z</time>
      </trkpt>
      <trkpt lat="46.15955" lon="4.51739">
        <ele>735.2</ele>
        <time>2020-10-17T12:57:08Z</time>
      </trkpt>
      <trkpt lat="46.15954" lon="4.51742">
        <ele>734.8</ele>
        <time>2020-10-17T12:57:09Z</time>
      </trkpt>
      <trkpt lat="46.15953" lon="4.51745">
        <ele>735</ele>
        <time>2020-10-17T12:57:10Z</time>
      </trkpt>
      <trkpt lat="46.15952" lon="4.51748">
        <ele>734.8</ele>
        <time>2020-10-17T12:57:11Z</time>
      </trkpt>
      <trkpt lat="46.15951" lon="4.51751">
        <ele>734.4</ele>
        <time>2020-10-17T12:57:12Z</time>
      </trkpt>
      <trkpt lat="46.1595" lon="4.51754">
        <ele>734.6</ele>
        <time>2020-10-17T12:57:13Z</time>
      </trkpt>
      <trkpt lat="46.15949" lon="4.51759">
        <ele>734.2</ele>
        <time>2020-10-17T12:57:14Z</time>
      </trkpt>
      <trkpt lat="46.15948" lon="4.51762">
        <ele>734</ele>
        <time>2020-10-17T12:57:15Z</time>
      </trkpt>
      <trkpt lat="46.15946" lon="4.51766">
        <ele>734.2</ele>
        <time>2020-10-17T12:57:16Z</time>
      </trkpt>
      <trkpt lat="46.15945" lon="4.51768">
        <ele>734</ele>
        <time>2020-10-17T12:57:17Z</time>
      </trkpt>
      <trkpt lat="46.15943" lon="4.51771">
        <ele>733.8</ele>
        <time>2020-10-17T12:57:18Z</time>
      </trkpt>
      <trkpt lat="46.15941" lon="4.51774">
        <ele>734.2</ele>
        <time>2020-10-17T12:57:19Z</time>
      </trkpt>
      <trkpt lat="46.1594" lon="4.51777">
        <ele>734</ele>
        <time>2020-10-17T12:57:20Z</time>
      </trkpt>
      <trkpt lat="46.15938" lon="4.5178">
        <ele>733.6</ele>
        <time>2020-10-17T12:57:21Z</time>
      </trkpt>
      <trkpt lat="46.15937" lon="4.51783">
        <ele>733.8</ele>
        <time>2020-10-17T12:57:22Z</time>
      </trkpt>
      <trkpt lat="46.15936" lon="4.51786">
        <ele>733.8</ele>
        <time>2020-10-17T12:57:23Z</time>
      </trkpt>
      <trkpt lat="46.15935" lon="4.51788">
        <ele>733.8</ele>
        <time>2020-10-17T12:57:24Z</time>
      </trkpt>
      <trkpt lat="46.15933" lon="4.51791">
        <ele>733.8</ele>
        <time>2020-10-17T12:57:25Z</time>
      </trkpt>
      <trkpt lat="46.15931" lon="4.51794">
        <ele>733.8</ele>
        <time>2020-10-17T12:57:26Z</time>
      </trkpt>
      <trkpt lat="46.15929" lon="4.51796">
        <ele>733.8</ele>
        <time>2020-10-17T12:57:27Z</time>
      </trkpt>
      <trkpt lat="46.15927" lon="4.51799">
        <ele>733.8</ele>
        <time>2020-10-17T12:57:28Z</time>
      </trkpt>
      <trkpt lat="46.15926" lon="4.51802">
        <ele>733.6</ele>
        <time>2020-10-17T12:57:29Z</time>
      </trkpt>
      <trkpt lat="46.15924" lon="4.51804">
        <ele>733.6</ele>
        <time>2020-10-17T12:57:30Z</time>
      </trkpt>
      <trkpt lat="46.15923" lon="4.51807">
        <ele>733.8</ele>
        <time>2020-10-17T12:57:31Z</time>
      </trkpt>
      <trkpt lat="46.15922" lon="4.51809">
        <ele>733.6</ele>
        <time>2020-10-17T12:57:32Z</time>
      </trkpt>
      <trkpt lat="46.15921" lon="4.51811">
        <ele>733.2</ele>
        <time>2020-10-17T12:57:33Z</time>
      </trkpt>
      <trkpt lat="46.15919" lon="4.51813">
        <ele>733.4</ele>
        <time>2020-10-17T12:57:34Z</time>
      </trkpt>
      <trkpt lat="46.15916" lon="4.51815">
        <ele>733.2</ele>
        <time>2020-10-17T12:57:35Z</time>
      </trkpt>
      <trkpt lat="46.15914" lon="4.51817">
        <ele>733.2</ele>
        <time>2020-10-17T12:57:36Z</time>
      </trkpt>
      <trkpt lat="46.15912" lon="4.51818">
        <ele>733.2</ele>
        <time>2020-10-17T12:57:37Z</time>
      </trkpt>
      <trkpt lat="46.1591" lon="4.5182">
        <ele>733.2</ele>
        <time>2020-10-17T12:57:38Z</time>
      </trkpt>
      <trkpt lat="46.15907" lon="4.51821">
        <ele>733</ele>
        <time>2020-10-17T12:57:39Z</time>
      </trkpt>
      <trkpt lat="46.15906" lon="4.51823">
        <ele>733.2</ele>
        <time>2020-10-17T12:57:40Z</time>
      </trkpt>
      <trkpt lat="46.15904" lon="4.51825">
        <ele>733</ele>
        <time>2020-10-17T12:57:41Z</time>
      </trkpt>
      <trkpt lat="46.15902" lon="4.51827">
        <ele>733</ele>
        <time>2020-10-17T12:57:42Z</time>
      </trkpt>
      <trkpt lat="46.159" lon="4.51828">
        <ele>733.2</ele>
        <time>2020-10-17T12:57:43Z</time>
      </trkpt>
      <trkpt lat="46.15898" lon="4.5183">
        <ele>733</ele>
        <time>2020-10-17T12:57:44Z</time>
      </trkpt>
      <trkpt lat="46.15896" lon="4.51832">
        <ele>732.8</ele>
        <time>2020-10-17T12:57:45Z</time>
      </trkpt>
      <trkpt lat="46.15896" lon="4.51832">
        <ele>732.8</ele>
        <time>2020-10-17T12:57:46Z</time>
      </trkpt>
      <trkpt lat="46.15893" lon="4.51835">
        <ele>732.6</ele>
        <time>2020-10-17T12:57:47Z</time>
      </trkpt>
      <trkpt lat="46.15892" lon="4.51837">
        <ele>732.4</ele>
        <time>2020-10-17T12:57:48Z</time>
      </trkpt>
      <trkpt lat="46.15892" lon="4.51837">
        <ele>732.6</ele>
        <time>2020-10-17T12:57:49Z</time>
      </trkpt>
      <trkpt lat="46.15889" lon="4.51841">
        <ele>732.4</ele>
        <time>2020-10-17T12:57:50Z</time>
      </trkpt>
      <trkpt lat="46.15887" lon="4.51843">
        <ele>732</ele>
        <time>2020-10-17T12:57:51Z</time>
      </trkpt>
      <trkpt lat="46.15885" lon="4.51845">
        <ele>732.4</ele>
        <time>2020-10-17T12:57:52Z</time>
      </trkpt>
      <trkpt lat="46.15884" lon="4.51847">
        <ele>732</ele>
        <time>2020-10-17T12:57:53Z</time>
      </trkpt>
      <trkpt lat="46.15882" lon="4.51849">
        <ele>731.6</ele>
        <time>2020-10-17T12:57:54Z</time>
      </trkpt>
      <trkpt lat="46.1588" lon="4.5185">
        <ele>731.8</ele>
        <time>2020-10-17T12:57:55Z</time>
      </trkpt>
      <trkpt lat="46.15878" lon="4.51852">
        <ele>731.4</ele>
        <time>2020-10-17T12:57:56Z</time>
      </trkpt>
      <trkpt lat="46.15876" lon="4.51854">
        <ele>731.4</ele>
        <time>2020-10-17T12:57:57Z</time>
      </trkpt>
      <trkpt lat="46.15874" lon="4.51856">
        <ele>731.6</ele>
        <time>2020-10-17T12:57:58Z</time>
      </trkpt>
      <trkpt lat="46.15873" lon="4.51858">
        <ele>731.2</ele>
        <time>2020-10-17T12:57:59Z</time>
      </trkpt>
      <trkpt lat="46.15871" lon="4.5186">
        <ele>730.8</ele>
        <time>2020-10-17T12:58:00Z</time>
      </trkpt>
      <trkpt lat="46.1587" lon="4.51863">
        <ele>731</ele>
        <time>2020-10-17T12:58:01Z</time>
      </trkpt>
      <trkpt lat="46.15868" lon="4.51865">
        <ele>730.8</ele>
        <time>2020-10-17T12:58:02Z</time>
      </trkpt>
      <trkpt lat="46.15867" lon="4.51867">
        <ele>730.4</ele>
        <time>2020-10-17T12:58:03Z</time>
      </trkpt>
      <trkpt lat="46.15866" lon="4.51869">
        <ele>730.8</ele>
        <time>2020-10-17T12:58:04Z</time>
      </trkpt>
      <trkpt lat="46.15864" lon="4.51871">
        <ele>730.4</ele>
        <time>2020-10-17T12:58:05Z</time>
      </trkpt>
      <trkpt lat="46.15862" lon="4.51874">
        <ele>730.2</ele>
        <time>2020-10-17T12:58:06Z</time>
      </trkpt>
      <trkpt lat="46.15861" lon="4.51876">
        <ele>730.4</ele>
        <time>2020-10-17T12:58:07Z</time>
      </trkpt>
      <trkpt lat="46.15859" lon="4.51878">
        <ele>730.2</ele>
        <time>2020-10-17T12:58:08Z</time>
      </trkpt>
      <trkpt lat="46.15857" lon="4.51879">
        <ele>729.8</ele>
        <time>2020-10-17T12:58:09Z</time>
      </trkpt>
      <trkpt lat="46.15856" lon="4.51881">
        <ele>730.4</ele>
        <time>2020-10-17T12:58:10Z</time>
      </trkpt>
      <trkpt lat="46.15853" lon="4.51883">
        <ele>730.2</ele>
        <time>2020-10-17T12:58:11Z</time>
      </trkpt>
      <trkpt lat="46.15852" lon="4.51885">
        <ele>729.8</ele>
        <time>2020-10-17T12:58:12Z</time>
      </trkpt>
      <trkpt lat="46.1585" lon="4.51888">
        <ele>729.8</ele>
        <time>2020-10-17T12:58:13Z</time>
      </trkpt>
      <trkpt lat="46.15848" lon="4.5189">
        <ele>729.6</ele>
        <time>2020-10-17T12:58:14Z</time>
      </trkpt>
      <trkpt lat="46.15846" lon="4.51893">
        <ele>729.4</ele>
        <time>2020-10-17T12:58:15Z</time>
      </trkpt>
      <trkpt lat="46.15844" lon="4.51895">
        <ele>729.6</ele>
        <time>2020-10-17T12:58:16Z</time>
      </trkpt>
      <trkpt lat="46.15842" lon="4.51897">
        <ele>729.2</ele>
        <time>2020-10-17T12:58:17Z</time>
      </trkpt>
      <trkpt lat="46.15839" lon="4.51899">
        <ele>729.2</ele>
        <time>2020-10-17T12:58:18Z</time>
      </trkpt>
      <trkpt lat="46.15838" lon="4.51901">
        <ele>729.4</ele>
        <time>2020-10-17T12:58:19Z</time>
      </trkpt>
      <trkpt lat="46.15836" lon="4.51903">
        <ele>729.2</ele>
        <time>2020-10-17T12:58:20Z</time>
      </trkpt>
      <trkpt lat="46.15836" lon="4.51903">
        <ele>729</ele>
        <time>2020-10-17T12:58:21Z</time>
      </trkpt>
      <trkpt lat="46.15834" lon="4.51906">
        <ele>729</ele>
        <time>2020-10-17T12:58:22Z</time>
      </trkpt>
      <trkpt lat="46.15834" lon="4.51906">
        <ele>729</ele>
        <time>2020-10-17T12:58:23Z</time>
      </trkpt>
      <trkpt lat="46.15832" lon="4.51909">
        <ele>728.6</ele>
        <time>2020-10-17T12:58:24Z</time>
      </trkpt>
      <trkpt lat="46.15832" lon="4.51909">
        <ele>728.4</ele>
        <time>2020-10-17T12:58:25Z</time>
      </trkpt>
      <trkpt lat="46.15829" lon="4.51911">
        <ele>728.4</ele>
        <time>2020-10-17T12:58:26Z</time>
      </trkpt>
      <trkpt lat="46.15828" lon="4.51913">
        <ele>728.4</ele>
        <time>2020-10-17T12:58:27Z</time>
      </trkpt>
      <trkpt lat="46.15827" lon="4.51915">
        <ele>728.2</ele>
        <time>2020-10-17T12:58:28Z</time>
      </trkpt>
      <trkpt lat="46.15827" lon="4.51915">
        <ele>728.2</ele>
        <time>2020-10-17T12:58:29Z</time>
      </trkpt>
      <trkpt lat="46.15825" lon="4.51918">
        <ele>728.2</ele>
        <time>2020-10-17T12:58:30Z</time>
      </trkpt>
      <trkpt lat="46.15823" lon="4.5192">
        <ele>728.2</ele>
        <time>2020-10-17T12:58:31Z</time>
      </trkpt>
      <trkpt lat="46.15823" lon="4.5192">
        <ele>728.2</ele>
        <time>2020-10-17T12:58:32Z</time>
      </trkpt>
      <trkpt lat="46.15821" lon="4.51923">
        <ele>729</ele>
        <time>2020-10-17T12:58:33Z</time>
      </trkpt>
      <trkpt lat="46.15821" lon="4.51923">
        <ele>729.2</ele>
        <time>2020-10-17T12:58:34Z</time>
      </trkpt>
      <trkpt lat="46.15819" lon="4.51926">
        <ele>729</ele>
        <time>2020-10-17T12:58:35Z</time>
      </trkpt>
      <trkpt lat="46.15817" lon="4.51928">
        <ele>728.8</ele>
        <time>2020-10-17T12:58:36Z</time>
      </trkpt>
      <trkpt lat="46.15817" lon="4.51928">
        <ele>728.8</ele>
        <time>2020-10-17T12:58:37Z</time>
      </trkpt>
      <trkpt lat="46.15815" lon="4.51931">
        <ele>728.6</ele>
        <time>2020-10-17T12:58:38Z</time>
      </trkpt>
      <trkpt lat="46.15815" lon="4.51931">
        <ele>728.6</ele>
        <time>2020-10-17T12:58:39Z</time>
      </trkpt>
      <trkpt lat="46.15814" lon="4.51934">
        <ele>728.6</ele>
        <time>2020-10-17T12:58:40Z</time>
      </trkpt>
      <trkpt lat="46.15814" lon="4.51934">
        <ele>728.4</ele>
        <time>2020-10-17T12:58:41Z</time>
      </trkpt>
      <trkpt lat="46.15813" lon="4.51937">
        <ele>728.4</ele>
        <time>2020-10-17T12:58:42Z</time>
      </trkpt>
      <trkpt lat="46.15813" lon="4.51937">
        <ele>728.4</ele>
        <time>2020-10-17T12:58:43Z</time>
      </trkpt>
      <trkpt lat="46.15811" lon="4.51941">
        <ele>728.6</ele>
        <time>2020-10-17T12:58:44Z</time>
      </trkpt>
      <trkpt lat="46.15811" lon="4.51941">
        <ele>728.4</ele>
        <time>2020-10-17T12:58:45Z</time>
      </trkpt>
      <trkpt lat="46.15809" lon="4.51943">
        <ele>728.4</ele>
        <time>2020-10-17T12:58:46Z</time>
      </trkpt>
      <trkpt lat="46.15809" lon="4.51943">
        <ele>728.2</ele>
        <time>2020-10-17T12:58:47Z</time>
      </trkpt>
      <trkpt lat="46.15806" lon="4.51946">
        <ele>728.2</ele>
        <time>2020-10-17T12:58:48Z</time>
      </trkpt>
      <trkpt lat="46.15806" lon="4.51946">
        <ele>728.6</ele>
        <time>2020-10-17T12:58:49Z</time>
      </trkpt>
      <trkpt lat="46.15805" lon="4.51948">
        <ele>728.6</ele>
        <time>2020-10-17T12:58:50Z</time>
      </trkpt>
      <trkpt lat="46.15805" lon="4.51948">
        <ele>728.6</ele>
        <time>2020-10-17T12:58:51Z</time>
      </trkpt>
      <trkpt lat="46.15803" lon="4.51951">
        <ele>728.4</ele>
        <time>2020-10-17T12:58:52Z</time>
      </trkpt>
      <trkpt lat="46.15801" lon="4.51953">
        <ele>728.2</ele>
        <time>2020-10-17T12:58:53Z</time>
      </trkpt>
      <trkpt lat="46.15801" lon="4.51953">
        <ele>728</ele>
        <time>2020-10-17T12:58:54Z</time>
      </trkpt>
      <trkpt lat="46.15799" lon="4.51955">
        <ele>728</ele>
        <time>2020-10-17T12:58:55Z</time>
      </trkpt>
      <trkpt lat="46.15799" lon="4.51955">
        <ele>727.8</ele>
        <time>2020-10-17T12:58:56Z</time>
      </trkpt>
      <trkpt lat="46.15798" lon="4.51957">
        <ele>727.8</ele>
        <time>2020-10-17T12:58:57Z</time>
      </trkpt>
      <trkpt lat="46.15798" lon="4.51957">
        <ele>727.6</ele>
        <time>2020-10-17T12:58:58Z</time>
      </trkpt>
      <trkpt lat="46.15795" lon="4.51959">
        <ele>727.6</ele>
        <time>2020-10-17T12:58:59Z</time>
      </trkpt>
      <trkpt lat="46.15795" lon="4.51959">
        <ele>727.6</ele>
        <time>2020-10-17T12:59:00Z</time>
      </trkpt>
      <trkpt lat="46.15792" lon="4.51961">
        <ele>727.2</ele>
        <time>2020-10-17T12:59:01Z</time>
      </trkpt>
      <trkpt lat="46.15791" lon="4.51963">
        <ele>727.2</ele>
        <time>2020-10-17T12:59:02Z</time>
      </trkpt>
      <trkpt lat="46.15789" lon="4.51965">
        <ele>727</ele>
        <time>2020-10-17T12:59:03Z</time>
      </trkpt>
      <trkpt lat="46.15788" lon="4.51967">
        <ele>727</ele>
        <time>2020-10-17T12:59:04Z</time>
      </trkpt>
      <trkpt lat="46.15788" lon="4.51967">
        <ele>727</ele>
        <time>2020-10-17T12:59:05Z</time>
      </trkpt>
      <trkpt lat="46.15786" lon="4.5197">
        <ele>726.6</ele>
        <time>2020-10-17T12:59:06Z</time>
      </trkpt>
      <trkpt lat="46.15786" lon="4.5197">
        <ele>726.4</ele>
        <time>2020-10-17T12:59:07Z</time>
      </trkpt>
      <trkpt lat="46.15784" lon="4.51972">
        <ele>726.4</ele>
        <time>2020-10-17T12:59:08Z</time>
      </trkpt>
      <trkpt lat="46.15784" lon="4.51972">
        <ele>726</ele>
        <time>2020-10-17T12:59:09Z</time>
      </trkpt>
      <trkpt lat="46.15782" lon="4.51974">
        <ele>725.8</ele>
        <time>2020-10-17T12:59:10Z</time>
      </trkpt>
      <trkpt lat="46.15782" lon="4.51974">
        <ele>725.8</ele>
        <time>2020-10-17T12:59:11Z</time>
      </trkpt>
      <trkpt lat="46.15779" lon="4.51977">
        <ele>725.8</ele>
        <time>2020-10-17T12:59:12Z</time>
      </trkpt>
      <trkpt lat="46.15779" lon="4.51977">
        <ele>725.6</ele>
        <time>2020-10-17T12:59:13Z</time>
      </trkpt>
      <trkpt lat="46.15776" lon="4.5198">
        <ele>725.6</ele>
        <time>2020-10-17T12:59:14Z</time>
      </trkpt>
      <trkpt lat="46.15774" lon="4.51982">
        <ele>725.4</ele>
        <time>2020-10-17T12:59:15Z</time>
      </trkpt>
      <trkpt lat="46.15773" lon="4.51984">
        <ele>725.4</ele>
        <time>2020-10-17T12:59:16Z</time>
      </trkpt>
      <trkpt lat="46.15771" lon="4.51986">
        <ele>725.4</ele>
        <time>2020-10-17T12:59:17Z</time>
      </trkpt>
      <trkpt lat="46.15769" lon="4.51989">
        <ele>725.2</ele>
        <time>2020-10-17T12:59:18Z</time>
      </trkpt>
      <trkpt lat="46.15767" lon="4.51991">
        <ele>725.4</ele>
        <time>2020-10-17T12:59:19Z</time>
      </trkpt>
      <trkpt lat="46.15767" lon="4.51994">
        <ele>725.2</ele>
        <time>2020-10-17T12:59:20Z</time>
      </trkpt>
      <trkpt lat="46.15765" lon="4.51997">
        <ele>724.8</ele>
        <time>2020-10-17T12:59:21Z</time>
      </trkpt>
      <trkpt lat="46.15764" lon="4.51999">
        <ele>725</ele>
        <time>2020-10-17T12:59:22Z</time>
      </trkpt>
      <trkpt lat="46.15763" lon="4.52002">
        <ele>725.2</ele>
        <time>2020-10-17T12:59:23Z</time>
      </trkpt>
      <trkpt lat="46.15761" lon="4.52004">
        <ele>725</ele>
        <time>2020-10-17T12:59:24Z</time>
      </trkpt>
      <trkpt lat="46.15759" lon="4.52007">
        <ele>724.8</ele>
        <time>2020-10-17T12:59:25Z</time>
      </trkpt>
      <trkpt lat="46.15758" lon="4.52009">
        <ele>725</ele>
        <time>2020-10-17T12:59:26Z</time>
      </trkpt>
      <trkpt lat="46.15757" lon="4.52012">
        <ele>724.8</ele>
        <time>2020-10-17T12:59:27Z</time>
      </trkpt>
      <trkpt lat="46.15756" lon="4.52014">
        <ele>724.4</ele>
        <time>2020-10-17T12:59:28Z</time>
      </trkpt>
      <trkpt lat="46.15755" lon="4.52017">
        <ele>724.8</ele>
        <time>2020-10-17T12:59:29Z</time>
      </trkpt>
      <trkpt lat="46.15754" lon="4.52019">
        <ele>724.8</ele>
        <time>2020-10-17T12:59:30Z</time>
      </trkpt>
      <trkpt lat="46.15753" lon="4.52023">
        <ele>724.2</ele>
        <time>2020-10-17T12:59:31Z</time>
      </trkpt>
      <trkpt lat="46.15751" lon="4.52026">
        <ele>724.4</ele>
        <time>2020-10-17T12:59:32Z</time>
      </trkpt>
      <trkpt lat="46.1575" lon="4.52028">
        <ele>724.4</ele>
        <time>2020-10-17T12:59:33Z</time>
      </trkpt>
      <trkpt lat="46.1575" lon="4.52031">
        <ele>723.8</ele>
        <time>2020-10-17T12:59:34Z</time>
      </trkpt>
      <trkpt lat="46.15749" lon="4.52034">
        <ele>724</ele>
        <time>2020-10-17T12:59:35Z</time>
      </trkpt>
      <trkpt lat="46.15748" lon="4.52037">
        <ele>723.8</ele>
        <time>2020-10-17T12:59:36Z</time>
      </trkpt>
      <trkpt lat="46.15748" lon="4.5204">
        <ele>723.6</ele>
        <time>2020-10-17T12:59:37Z</time>
      </trkpt>
      <trkpt lat="46.15747" lon="4.52042">
        <ele>723.8</ele>
        <time>2020-10-17T12:59:38Z</time>
      </trkpt>
      <trkpt lat="46.15746" lon="4.52045">
        <ele>723.4</ele>
        <time>2020-10-17T12:59:39Z</time>
      </trkpt>
      <trkpt lat="46.15745" lon="4.52048">
        <ele>723.4</ele>
        <time>2020-10-17T12:59:40Z</time>
      </trkpt>
      <trkpt lat="46.15744" lon="4.5205">
        <ele>723.8</ele>
        <time>2020-10-17T12:59:41Z</time>
      </trkpt>
      <trkpt lat="46.15743" lon="4.52053">
        <ele>723.6</ele>
        <time>2020-10-17T12:59:42Z</time>
      </trkpt>
      <trkpt lat="46.15742" lon="4.52056">
        <ele>723.4</ele>
        <time>2020-10-17T12:59:43Z</time>
      </trkpt>
      <trkpt lat="46.15742" lon="4.52056">
        <ele>723.8</ele>
        <time>2020-10-17T12:59:44Z</time>
      </trkpt>
      <trkpt lat="46.15741" lon="4.52061">
        <ele>723.4</ele>
        <time>2020-10-17T12:59:45Z</time>
      </trkpt>
      <trkpt lat="46.15741" lon="4.52064">
        <ele>723.4</ele>
        <time>2020-10-17T12:59:46Z</time>
      </trkpt>
      <trkpt lat="46.1574" lon="4.52068">
        <ele>723.4</ele>
        <time>2020-10-17T12:59:47Z</time>
      </trkpt>
      <trkpt lat="46.1574" lon="4.52069">
        <ele>723.4</ele>
        <time>2020-10-17T12:59:48Z</time>
      </trkpt>
      <trkpt lat="46.1574" lon="4.52072">
        <ele>723.2</ele>
        <time>2020-10-17T12:59:49Z</time>
      </trkpt>
      <trkpt lat="46.1574" lon="4.52072">
        <ele>723.4</ele>
        <time>2020-10-17T12:59:50Z</time>
      </trkpt>
      <trkpt lat="46.15739" lon="4.52078">
        <ele>723.4</ele>
        <time>2020-10-17T12:59:51Z</time>
      </trkpt>
      <trkpt lat="46.15739" lon="4.52078">
        <ele>723.4</ele>
        <time>2020-10-17T12:59:52Z</time>
      </trkpt>
      <trkpt lat="46.15738" lon="4.52085">
        <ele>723.4</ele>
        <time>2020-10-17T12:59:53Z</time>
      </trkpt>
      <trkpt lat="46.15738" lon="4.52087">
        <ele>723.4</ele>
        <time>2020-10-17T12:59:54Z</time>
      </trkpt>
      <trkpt lat="46.15737" lon="4.5209">
        <ele>723.4</ele>
        <time>2020-10-17T12:59:55Z</time>
      </trkpt>
      <trkpt lat="46.15736" lon="4.52093">
        <ele>723.2</ele>
        <time>2020-10-17T12:59:56Z</time>
      </trkpt>
      <trkpt lat="46.15735" lon="4.52097">
        <ele>723.4</ele>
        <time>2020-10-17T12:59:57Z</time>
      </trkpt>
      <trkpt lat="46.15734" lon="4.521">
        <ele>723.2</ele>
        <time>2020-10-17T12:59:58Z</time>
      </trkpt>
      <trkpt lat="46.15733" lon="4.52103">
        <ele>723</ele>
        <time>2020-10-17T12:59:59Z</time>
      </trkpt>
      <trkpt lat="46.15733" lon="4.52106">
        <ele>722.8</ele>
        <time>2020-10-17T13:00:00Z</time>
      </trkpt>
      <trkpt lat="46.15732" lon="4.52109">
        <ele>722.8</ele>
        <time>2020-10-17T13:00:01Z</time>
      </trkpt>
      <trkpt lat="46.15732" lon="4.52113">
        <ele>722.6</ele>
        <time>2020-10-17T13:00:02Z</time>
      </trkpt>
      <trkpt lat="46.15731" lon="4.52116">
        <ele>723</ele>
        <time>2020-10-17T13:00:03Z</time>
      </trkpt>
      <trkpt lat="46.15731" lon="4.52119">
        <ele>722.8</ele>
        <time>2020-10-17T13:00:04Z</time>
      </trkpt>
      <trkpt lat="46.1573" lon="4.52122">
        <ele>722.6</ele>
        <time>2020-10-17T13:00:05Z</time>
      </trkpt>
      <trkpt lat="46.1573" lon="4.52126">
        <ele>722.8</ele>
        <time>2020-10-17T13:00:06Z</time>
      </trkpt>
      <trkpt lat="46.15729" lon="4.52129">
        <ele>722.8</ele>
        <time>2020-10-17T13:00:07Z</time>
      </trkpt>
      <trkpt lat="46.15729" lon="4.52132">
        <ele>722.4</ele>
        <time>2020-10-17T13:00:08Z</time>
      </trkpt>
      <trkpt lat="46.15728" lon="4.52136">
        <ele>722.8</ele>
        <time>2020-10-17T13:00:09Z</time>
      </trkpt>
      <trkpt lat="46.15728" lon="4.52139">
        <ele>722.4</ele>
        <time>2020-10-17T13:00:10Z</time>
      </trkpt>
      <trkpt lat="46.15727" lon="4.52142">
        <ele>722.2</ele>
        <time>2020-10-17T13:00:11Z</time>
      </trkpt>
      <trkpt lat="46.15726" lon="4.52145">
        <ele>722.6</ele>
        <time>2020-10-17T13:00:12Z</time>
      </trkpt>
      <trkpt lat="46.15725" lon="4.52148">
        <ele>722.6</ele>
        <time>2020-10-17T13:00:13Z</time>
      </trkpt>
      <trkpt lat="46.15725" lon="4.52148">
        <ele>722.4</ele>
        <time>2020-10-17T13:00:14Z</time>
      </trkpt>
      <trkpt lat="46.15725" lon="4.52152">
        <ele>722.6</ele>
        <time>2020-10-17T13:00:15Z</time>
      </trkpt>
      <trkpt lat="46.15725" lon="4.52152">
        <ele>722.6</ele>
        <time>2020-10-17T13:00:16Z</time>
      </trkpt>
      <trkpt lat="46.15724" lon="4.52157">
        <ele>722.4</ele>
        <time>2020-10-17T13:00:17Z</time>
      </trkpt>
      <trkpt lat="46.15724" lon="4.52157">
        <ele>722.2</ele>
        <time>2020-10-17T13:00:18Z</time>
      </trkpt>
      <trkpt lat="46.15724" lon="4.5216">
        <ele>722.2</ele>
        <time>2020-10-17T13:00:19Z</time>
      </trkpt>
      <trkpt lat="46.15724" lon="4.5216">
        <ele>722.4</ele>
        <time>2020-10-17T13:00:20Z</time>
      </trkpt>
      <trkpt lat="46.15723" lon="4.52164">
        <ele>722.4</ele>
        <time>2020-10-17T13:00:21Z</time>
      </trkpt>
      <trkpt lat="46.15723" lon="4.52164">
        <ele>722.6</ele>
        <time>2020-10-17T13:00:22Z</time>
      </trkpt>
      <trkpt lat="46.15722" lon="4.52167">
        <ele>722.8</ele>
        <time>2020-10-17T13:00:23Z</time>
      </trkpt>
      <trkpt lat="46.15722" lon="4.52167">
        <ele>722.8</ele>
        <time>2020-10-17T13:00:24Z</time>
      </trkpt>
      <trkpt lat="46.15723" lon="4.52171">
        <ele>722.8</ele>
        <time>2020-10-17T13:00:25Z</time>
      </trkpt>
      <trkpt lat="46.15723" lon="4.52171">
        <ele>722.8</ele>
        <time>2020-10-17T13:00:26Z</time>
      </trkpt>
      <trkpt lat="46.15723" lon="4.52176">
        <ele>723</ele>
        <time>2020-10-17T13:00:27Z</time>
      </trkpt>
      <trkpt lat="46.15722" lon="4.52179">
        <ele>723</ele>
        <time>2020-10-17T13:00:28Z</time>
      </trkpt>
      <trkpt lat="46.15722" lon="4.52179">
        <ele>723</ele>
        <time>2020-10-17T13:00:29Z</time>
      </trkpt>
      <trkpt lat="46.15721" lon="4.52182">
        <ele>723</ele>
        <time>2020-10-17T13:00:30Z</time>
      </trkpt>
      <trkpt lat="46.15721" lon="4.52182">
        <ele>722.8</ele>
        <time>2020-10-17T13:00:31Z</time>
      </trkpt>
      <trkpt lat="46.15721" lon="4.52186">
        <ele>723</ele>
        <time>2020-10-17T13:00:32Z</time>
      </trkpt>
      <trkpt lat="46.15721" lon="4.52186">
        <ele>723.2</ele>
        <time>2020-10-17T13:00:33Z</time>
      </trkpt>
      <trkpt lat="46.1572" lon="4.52189">
        <ele>723.2</ele>
        <time>2020-10-17T13:00:34Z</time>
      </trkpt>
      <trkpt lat="46.1572" lon="4.52189">
        <ele>723.4</ele>
        <time>2020-10-17T13:00:35Z</time>
      </trkpt>
      <trkpt lat="46.1572" lon="4.52193">
        <ele>723.6</ele>
        <time>2020-10-17T13:00:36Z</time>
      </trkpt>
      <trkpt lat="46.1572" lon="4.52193">
        <ele>723.8</ele>
        <time>2020-10-17T13:00:37Z</time>
      </trkpt>
      <trkpt lat="46.15721" lon="4.52196">
        <ele>723.8</ele>
        <time>2020-10-17T13:00:38Z</time>
      </trkpt>
      <trkpt lat="46.15721" lon="4.52196">
        <ele>723.6</ele>
        <time>2020-10-17T13:00:39Z</time>
      </trkpt>
      <trkpt lat="46.1572" lon="4.52201">
        <ele>723.8</ele>
        <time>2020-10-17T13:00:40Z</time>
      </trkpt>
      <trkpt lat="46.1572" lon="4.52201">
        <ele>723.4</ele>
        <time>2020-10-17T13:00:41Z</time>
      </trkpt>
      <trkpt lat="46.1572" lon="4.52205">
        <ele>723.4</ele>
        <time>2020-10-17T13:00:42Z</time>
      </trkpt>
      <trkpt lat="46.1572" lon="4.52205">
        <ele>723.4</ele>
        <time>2020-10-17T13:00:43Z</time>
      </trkpt>
      <trkpt lat="46.15719" lon="4.5221">
        <ele>723.6</ele>
        <time>2020-10-17T13:00:44Z</time>
      </trkpt>
      <trkpt lat="46.15719" lon="4.5221">
        <ele>723.4</ele>
        <time>2020-10-17T13:00:45Z</time>
      </trkpt>
      <trkpt lat="46.15719" lon="4.52213">
        <ele>723.4</ele>
        <time>2020-10-17T13:00:46Z</time>
      </trkpt>
      <trkpt lat="46.15719" lon="4.52213">
        <ele>723.4</ele>
        <time>2020-10-17T13:00:47Z</time>
      </trkpt>
      <trkpt lat="46.15719" lon="4.52217">
        <ele>723.2</ele>
        <time>2020-10-17T13:00:48Z</time>
      </trkpt>
      <trkpt lat="46.15719" lon="4.52217">
        <ele>723.6</ele>
        <time>2020-10-17T13:00:49Z</time>
      </trkpt>
      <trkpt lat="46.15718" lon="4.52221">
        <ele>723.4</ele>
        <time>2020-10-17T13:00:50Z</time>
      </trkpt>
      <trkpt lat="46.15718" lon="4.52221">
        <ele>723.4</ele>
        <time>2020-10-17T13:00:51Z</time>
      </trkpt>
      <trkpt lat="46.15718" lon="4.52224">
        <ele>723.4</ele>
        <time>2020-10-17T13:00:52Z</time>
      </trkpt>
      <trkpt lat="46.15718" lon="4.52224">
        <ele>723.2</ele>
        <time>2020-10-17T13:00:53Z</time>
      </trkpt>
      <trkpt lat="46.15718" lon="4.52229">
        <ele>723.4</ele>
        <time>2020-10-17T13:00:54Z</time>
      </trkpt>
      <trkpt lat="46.15718" lon="4.52229">
        <ele>723.4</ele>
        <time>2020-10-17T13:00:55Z</time>
      </trkpt>
      <trkpt lat="46.15717" lon="4.52233">
        <ele>723.8</ele>
        <time>2020-10-17T13:00:56Z</time>
      </trkpt>
      <trkpt lat="46.15717" lon="4.52233">
        <ele>723.6</ele>
        <time>2020-10-17T13:00:57Z</time>
      </trkpt>
      <trkpt lat="46.15716" lon="4.52236">
        <ele>724</ele>
        <time>2020-10-17T13:00:58Z</time>
      </trkpt>
      <trkpt lat="46.15716" lon="4.52236">
        <ele>724</ele>
        <time>2020-10-17T13:00:59Z</time>
      </trkpt>
      <trkpt lat="46.15716" lon="4.52241">
        <ele>724.2</ele>
        <time>2020-10-17T13:01:00Z</time>
      </trkpt>
      <trkpt lat="46.15716" lon="4.52241">
        <ele>724</ele>
        <time>2020-10-17T13:01:01Z</time>
      </trkpt>
      <trkpt lat="46.15716" lon="4.52244">
        <ele>724.2</ele>
        <time>2020-10-17T13:01:02Z</time>
      </trkpt>
      <trkpt lat="46.15716" lon="4.52244">
        <ele>724</ele>
        <time>2020-10-17T13:01:03Z</time>
      </trkpt>
      <trkpt lat="46.15716" lon="4.52248">
        <ele>724</ele>
        <time>2020-10-17T13:01:04Z</time>
      </trkpt>
      <trkpt lat="46.15716" lon="4.52248">
        <ele>724</ele>
        <time>2020-10-17T13:01:05Z</time>
      </trkpt>
      <trkpt lat="46.15716" lon="4.52252">
        <ele>724.2</ele>
        <time>2020-10-17T13:01:06Z</time>
      </trkpt>
      <trkpt lat="46.15716" lon="4.52252">
        <ele>723.8</ele>
        <time>2020-10-17T13:01:07Z</time>
      </trkpt>
      <trkpt lat="46.15717" lon="4.52256">
        <ele>724.4</ele>
        <time>2020-10-17T13:01:08Z</time>
      </trkpt>
      <trkpt lat="46.15717" lon="4.52256">
        <ele>724.4</ele>
        <time>2020-10-17T13:01:09Z</time>
      </trkpt>
      <trkpt lat="46.15717" lon="4.5226">
        <ele>724.6</ele>
        <time>2020-10-17T13:01:10Z</time>
      </trkpt>
      <trkpt lat="46.15717" lon="4.5226">
        <ele>724.6</ele>
        <time>2020-10-17T13:01:11Z</time>
      </trkpt>
      <trkpt lat="46.15717" lon="4.52264">
        <ele>724.8</ele>
        <time>2020-10-17T13:01:12Z</time>
      </trkpt>
      <trkpt lat="46.15717" lon="4.52264">
        <ele>724.6</ele>
        <time>2020-10-17T13:01:13Z</time>
      </trkpt>
      <trkpt lat="46.15717" lon="4.52268">
        <ele>724.8</ele>
        <time>2020-10-17T13:01:14Z</time>
      </trkpt>
      <trkpt lat="46.15717" lon="4.52268">
        <ele>725</ele>
        <time>2020-10-17T13:01:15Z</time>
      </trkpt>
      <trkpt lat="46.15717" lon="4.52272">
        <ele>725.2</ele>
        <time>2020-10-17T13:01:16Z</time>
      </trkpt>
      <trkpt lat="46.15717" lon="4.52275">
        <ele>725.4</ele>
        <time>2020-10-17T13:01:17Z</time>
      </trkpt>
      <trkpt lat="46.15717" lon="4.52275">
        <ele>725.4</ele>
        <time>2020-10-17T13:01:18Z</time>
      </trkpt>
      <trkpt lat="46.15717" lon="4.52279">
        <ele>725.8</ele>
        <time>2020-10-17T13:01:19Z</time>
      </trkpt>
      <trkpt lat="46.15717" lon="4.52279">
        <ele>725.8</ele>
        <time>2020-10-17T13:01:20Z</time>
      </trkpt>
      <trkpt lat="46.15716" lon="4.52283">
        <ele>726</ele>
        <time>2020-10-17T13:01:21Z</time>
      </trkpt>
      <trkpt lat="46.15716" lon="4.52286">
        <ele>726</ele>
        <time>2020-10-17T13:01:22Z</time>
      </trkpt>
      <trkpt lat="46.15716" lon="4.52286">
        <ele>725.8</ele>
        <time>2020-10-17T13:01:23Z</time>
      </trkpt>
      <trkpt lat="46.15715" lon="4.52291">
        <ele>726</ele>
        <time>2020-10-17T13:01:24Z</time>
      </trkpt>
      <trkpt lat="46.15715" lon="4.52291">
        <ele>726.4</ele>
        <time>2020-10-17T13:01:25Z</time>
      </trkpt>
      <trkpt lat="46.15715" lon="4.52295">
        <ele>726.4</ele>
        <time>2020-10-17T13:01:26Z</time>
      </trkpt>
      <trkpt lat="46.15715" lon="4.52298">
        <ele>726.8</ele>
        <time>2020-10-17T13:01:27Z</time>
      </trkpt>
      <trkpt lat="46.15715" lon="4.52298">
        <ele>726.8</ele>
        <time>2020-10-17T13:01:28Z</time>
      </trkpt>
      <trkpt lat="46.15715" lon="4.52302">
        <ele>727.2</ele>
        <time>2020-10-17T13:01:29Z</time>
      </trkpt>
      <trkpt lat="46.15715" lon="4.52302">
        <ele>727.4</ele>
        <time>2020-10-17T13:01:30Z</time>
      </trkpt>
      <trkpt lat="46.15714" lon="4.52306">
        <ele>727.6</ele>
        <time>2020-10-17T13:01:31Z</time>
      </trkpt>
      <trkpt lat="46.15714" lon="4.52306">
        <ele>727.6</ele>
        <time>2020-10-17T13:01:32Z</time>
      </trkpt>
      <trkpt lat="46.15714" lon="4.5231">
        <ele>727.8</ele>
        <time>2020-10-17T13:01:33Z</time>
      </trkpt>
      <trkpt lat="46.15714" lon="4.5231">
        <ele>727.8</ele>
        <time>2020-10-17T13:01:34Z</time>
      </trkpt>
      <trkpt lat="46.15713" lon="4.52314">
        <ele>728.2</ele>
        <time>2020-10-17T13:01:35Z</time>
      </trkpt>
      <trkpt lat="46.15713" lon="4.52314">
        <ele>728</ele>
        <time>2020-10-17T13:01:36Z</time>
      </trkpt>
      <trkpt lat="46.15712" lon="4.52318">
        <ele>728.4</ele>
        <time>2020-10-17T13:01:37Z</time>
      </trkpt>
      <trkpt lat="46.15712" lon="4.52318">
        <ele>728.6</ele>
        <time>2020-10-17T13:01:38Z</time>
      </trkpt>
      <trkpt lat="46.15711" lon="4.52322">
        <ele>728.6</ele>
        <time>2020-10-17T13:01:39Z</time>
      </trkpt>
      <trkpt lat="46.15711" lon="4.52322">
        <ele>728.8</ele>
        <time>2020-10-17T13:01:40Z</time>
      </trkpt>
      <trkpt lat="46.15712" lon="4.52325">
        <ele>728.8</ele>
        <time>2020-10-17T13:01:41Z</time>
      </trkpt>
      <trkpt lat="46.15712" lon="4.52325">
        <ele>729.2</ele>
        <time>2020-10-17T13:01:42Z</time>
      </trkpt>
      <trkpt lat="46.15712" lon="4.52329">
        <ele>729.2</ele>
        <time>2020-10-17T13:01:43Z</time>
      </trkpt>
      <trkpt lat="46.15712" lon="4.52329">
        <ele>729.2</ele>
        <time>2020-10-17T13:01:44Z</time>
      </trkpt>
      <trkpt lat="46.15712" lon="4.52333">
        <ele>729.6</ele>
        <time>2020-10-17T13:01:45Z</time>
      </trkpt>
      <trkpt lat="46.15712" lon="4.52333">
        <ele>729.4</ele>
        <time>2020-10-17T13:01:46Z</time>
      </trkpt>
      <trkpt lat="46.15711" lon="4.52337">
        <ele>729.6</ele>
        <time>2020-10-17T13:01:47Z</time>
      </trkpt>
      <trkpt lat="46.15711" lon="4.52337">
        <ele>729.8</ele>
        <time>2020-10-17T13:01:48Z</time>
      </trkpt>
      <trkpt lat="46.1571" lon="4.52342">
        <ele>729.8</ele>
        <time>2020-10-17T13:01:49Z</time>
      </trkpt>
      <trkpt lat="46.15709" lon="4.52344">
        <ele>730.2</ele>
        <time>2020-10-17T13:01:50Z</time>
      </trkpt>
      <trkpt lat="46.15708" lon="4.52347">
        <ele>730.2</ele>
        <time>2020-10-17T13:01:51Z</time>
      </trkpt>
      <trkpt lat="46.15708" lon="4.5235">
        <ele>730</ele>
        <time>2020-10-17T13:01:52Z</time>
      </trkpt>
      <trkpt lat="46.15708" lon="4.5235">
        <ele>730.4</ele>
        <time>2020-10-17T13:01:53Z</time>
      </trkpt>
      <trkpt lat="46.15707" lon="4.52354">
        <ele>730.6</ele>
        <time>2020-10-17T13:01:54Z</time>
      </trkpt>
      <trkpt lat="46.15707" lon="4.52354">
        <ele>730.8</ele>
        <time>2020-10-17T13:01:55Z</time>
      </trkpt>
      <trkpt lat="46.15707" lon="4.52358">
        <ele>731.2</ele>
        <time>2020-10-17T13:01:56Z</time>
      </trkpt>
      <trkpt lat="46.15707" lon="4.52358">
        <ele>731</ele>
        <time>2020-10-17T13:01:57Z</time>
      </trkpt>
      <trkpt lat="46.15708" lon="4.52363">
        <ele>731</ele>
        <time>2020-10-17T13:01:58Z</time>
      </trkpt>
      <trkpt lat="46.15708" lon="4.52363">
        <ele>731</ele>
        <time>2020-10-17T13:01:59Z</time>
      </trkpt>
      <trkpt lat="46.15707" lon="4.52368">
        <ele>731</ele>
        <time>2020-10-17T13:02:00Z</time>
      </trkpt>
      <trkpt lat="46.15707" lon="4.52368">
        <ele>731.2</ele>
        <time>2020-10-17T13:02:01Z</time>
      </trkpt>
      <trkpt lat="46.15707" lon="4.52373">
        <ele>731.2</ele>
        <time>2020-10-17T13:02:02Z</time>
      </trkpt>
      <trkpt lat="46.15707" lon="4.52376">
        <ele>731.6</ele>
        <time>2020-10-17T13:02:03Z</time>
      </trkpt>
      <trkpt lat="46.15707" lon="4.52379">
        <ele>731.6</ele>
        <time>2020-10-17T13:02:04Z</time>
      </trkpt>
      <trkpt lat="46.15707" lon="4.52379">
        <ele>731.6</ele>
        <time>2020-10-17T13:02:05Z</time>
      </trkpt>
      <trkpt lat="46.15706" lon="4.52384">
        <ele>731.8</ele>
        <time>2020-10-17T13:02:06Z</time>
      </trkpt>
      <trkpt lat="46.15706" lon="4.52387">
        <ele>731.6</ele>
        <time>2020-10-17T13:02:07Z</time>
      </trkpt>
      <trkpt lat="46.15706" lon="4.52387">
        <ele>731.8</ele>
        <time>2020-10-17T13:02:08Z</time>
      </trkpt>
      <trkpt lat="46.15706" lon="4.52391">
        <ele>731.8</ele>
        <time>2020-10-17T13:02:09Z</time>
      </trkpt>
      <trkpt lat="46.15706" lon="4.52391">
        <ele>732</ele>
        <time>2020-10-17T13:02:10Z</time>
      </trkpt>
      <trkpt lat="46.15705" lon="4.52395">
        <ele>732</ele>
        <time>2020-10-17T13:02:11Z</time>
      </trkpt>
      <trkpt lat="46.15705" lon="4.52395">
        <ele>732</ele>
        <time>2020-10-17T13:02:12Z</time>
      </trkpt>
      <trkpt lat="46.15705" lon="4.52399">
        <ele>732.2</ele>
        <time>2020-10-17T13:02:13Z</time>
      </trkpt>
      <trkpt lat="46.15705" lon="4.52399">
        <ele>732.2</ele>
        <time>2020-10-17T13:02:14Z</time>
      </trkpt>
      <trkpt lat="46.15704" lon="4.52403">
        <ele>732.8</ele>
        <time>2020-10-17T13:02:15Z</time>
      </trkpt>
      <trkpt lat="46.15704" lon="4.52403">
        <ele>732.8</ele>
        <time>2020-10-17T13:02:16Z</time>
      </trkpt>
      <trkpt lat="46.15704" lon="4.52407">
        <ele>733</ele>
        <time>2020-10-17T13:02:17Z</time>
      </trkpt>
      <trkpt lat="46.15704" lon="4.52407">
        <ele>733.2</ele>
        <time>2020-10-17T13:02:18Z</time>
      </trkpt>
      <trkpt lat="46.15704" lon="4.52411">
        <ele>733.2</ele>
        <time>2020-10-17T13:02:19Z</time>
      </trkpt>
      <trkpt lat="46.15704" lon="4.52411">
        <ele>733.2</ele>
        <time>2020-10-17T13:02:20Z</time>
      </trkpt>
      <trkpt lat="46.15704" lon="4.52415">
        <ele>733.4</ele>
        <time>2020-10-17T13:02:21Z</time>
      </trkpt>
      <trkpt lat="46.15704" lon="4.52415">
        <ele>733.4</ele>
        <time>2020-10-17T13:02:22Z</time>
      </trkpt>
      <trkpt lat="46.15703" lon="4.52419">
        <ele>733.8</ele>
        <time>2020-10-17T13:02:23Z</time>
      </trkpt>
      <trkpt lat="46.15704" lon="4.52422">
        <ele>734</ele>
        <time>2020-10-17T13:02:24Z</time>
      </trkpt>
      <trkpt lat="46.15704" lon="4.52422">
        <ele>734.2</ele>
        <time>2020-10-17T13:02:25Z</time>
      </trkpt>
      <trkpt lat="46.15703" lon="4.52426">
        <ele>734.4</ele>
        <time>2020-10-17T13:02:26Z</time>
      </trkpt>
      <trkpt lat="46.15703" lon="4.52426">
        <ele>734.4</ele>
        <time>2020-10-17T13:02:27Z</time>
      </trkpt>
      <trkpt lat="46.15703" lon="4.52429">
        <ele>734.4</ele>
        <time>2020-10-17T13:02:28Z</time>
      </trkpt>
      <trkpt lat="46.15703" lon="4.52429">
        <ele>734.8</ele>
        <time>2020-10-17T13:02:29Z</time>
      </trkpt>
      <trkpt lat="46.15702" lon="4.52433">
        <ele>734.6</ele>
        <time>2020-10-17T13:02:30Z</time>
      </trkpt>
      <trkpt lat="46.15702" lon="4.52433">
        <ele>734.8</ele>
        <time>2020-10-17T13:02:31Z</time>
      </trkpt>
      <trkpt lat="46.15702" lon="4.52438">
        <ele>735</ele>
        <time>2020-10-17T13:02:32Z</time>
      </trkpt>
      <trkpt lat="46.15702" lon="4.52438">
        <ele>735.2</ele>
        <time>2020-10-17T13:02:33Z</time>
      </trkpt>
      <trkpt lat="46.15703" lon="4.52442">
        <ele>735.2</ele>
        <time>2020-10-17T13:02:34Z</time>
      </trkpt>
      <trkpt lat="46.15703" lon="4.52442">
        <ele>735.4</ele>
        <time>2020-10-17T13:02:35Z</time>
      </trkpt>
      <trkpt lat="46.15702" lon="4.52446">
        <ele>735.6</ele>
        <time>2020-10-17T13:02:36Z</time>
      </trkpt>
      <trkpt lat="46.15702" lon="4.52446">
        <ele>735.6</ele>
        <time>2020-10-17T13:02:37Z</time>
      </trkpt>
      <trkpt lat="46.15701" lon="4.5245">
        <ele>735.8</ele>
        <time>2020-10-17T13:02:38Z</time>
      </trkpt>
      <trkpt lat="46.15701" lon="4.5245">
        <ele>735.8</ele>
        <time>2020-10-17T13:02:39Z</time>
      </trkpt>
      <trkpt lat="46.157" lon="4.52455">
        <ele>735.6</ele>
        <time>2020-10-17T13:02:40Z</time>
      </trkpt>
      <trkpt lat="46.15701" lon="4.52457">
        <ele>735.6</ele>
        <time>2020-10-17T13:02:41Z</time>
      </trkpt>
      <trkpt lat="46.15701" lon="4.52457">
        <ele>735.8</ele>
        <time>2020-10-17T13:02:42Z</time>
      </trkpt>
      <trkpt lat="46.157" lon="4.52462">
        <ele>735.6</ele>
        <time>2020-10-17T13:02:43Z</time>
      </trkpt>
      <trkpt lat="46.157" lon="4.52462">
        <ele>735.8</ele>
        <time>2020-10-17T13:02:44Z</time>
      </trkpt>
      <trkpt lat="46.15699" lon="4.52465">
        <ele>735.6</ele>
        <time>2020-10-17T13:02:45Z</time>
      </trkpt>
      <trkpt lat="46.15699" lon="4.52465">
        <ele>735.4</ele>
        <time>2020-10-17T13:02:46Z</time>
      </trkpt>
      <trkpt lat="46.15698" lon="4.5247">
        <ele>735.2</ele>
        <time>2020-10-17T13:02:47Z</time>
      </trkpt>
      <trkpt lat="46.15698" lon="4.5247">
        <ele>735.4</ele>
        <time>2020-10-17T13:02:48Z</time>
      </trkpt>
      <trkpt lat="46.15697" lon="4.52474">
        <ele>735.4</ele>
        <time>2020-10-17T13:02:49Z</time>
      </trkpt>
      <trkpt lat="46.15696" lon="4.52477">
        <ele>735.6</ele>
        <time>2020-10-17T13:02:50Z</time>
      </trkpt>
      <trkpt lat="46.15696" lon="4.52477">
        <ele>735.4</ele>
        <time>2020-10-17T13:02:51Z</time>
      </trkpt>
      <trkpt lat="46.15696" lon="4.52481">
        <ele>735.4</ele>
        <time>2020-10-17T13:02:52Z</time>
      </trkpt>
      <trkpt lat="46.15696" lon="4.52481">
        <ele>735.2</ele>
        <time>2020-10-17T13:02:53Z</time>
      </trkpt>
      <trkpt lat="46.15696" lon="4.52485">
        <ele>735.2</ele>
        <time>2020-10-17T13:02:54Z</time>
      </trkpt>
      <trkpt lat="46.15696" lon="4.52488">
        <ele>735.2</ele>
        <time>2020-10-17T13:02:55Z</time>
      </trkpt>
      <trkpt lat="46.15695" lon="4.5249">
        <ele>735.2</ele>
        <time>2020-10-17T13:02:56Z</time>
      </trkpt>
      <trkpt lat="46.15694" lon="4.52493">
        <ele>735.6</ele>
        <time>2020-10-17T13:02:57Z</time>
      </trkpt>
      <trkpt lat="46.15693" lon="4.52495">
        <ele>735.4</ele>
        <time>2020-10-17T13:02:58Z</time>
      </trkpt>
      <trkpt lat="46.15693" lon="4.52495">
        <ele>735.6</ele>
        <time>2020-10-17T13:02:59Z</time>
      </trkpt>
      <trkpt lat="46.15692" lon="4.52501">
        <ele>735.6</ele>
        <time>2020-10-17T13:03:00Z</time>
      </trkpt>
      <trkpt lat="46.15692" lon="4.52501">
        <ele>735.4</ele>
        <time>2020-10-17T13:03:01Z</time>
      </trkpt>
      <trkpt lat="46.15691" lon="4.52507">
        <ele>735</ele>
        <time>2020-10-17T13:03:02Z</time>
      </trkpt>
      <trkpt lat="46.15691" lon="4.5251">
        <ele>735.4</ele>
        <time>2020-10-17T13:03:03Z</time>
      </trkpt>
      <trkpt lat="46.15691" lon="4.52512">
        <ele>735</ele>
        <time>2020-10-17T13:03:04Z</time>
      </trkpt>
      <trkpt lat="46.1569" lon="4.52514">
        <ele>735.2</ele>
        <time>2020-10-17T13:03:05Z</time>
      </trkpt>
      <trkpt lat="46.1569" lon="4.52514">
        <ele>735.2</ele>
        <time>2020-10-17T13:03:06Z</time>
      </trkpt>
      <trkpt lat="46.15688" lon="4.52519">
        <ele>735</ele>
        <time>2020-10-17T13:03:07Z</time>
      </trkpt>
      <trkpt lat="46.15688" lon="4.52519">
        <ele>734.8</ele>
        <time>2020-10-17T13:03:08Z</time>
      </trkpt>
      <trkpt lat="46.15686" lon="4.52523">
        <ele>734.4</ele>
        <time>2020-10-17T13:03:09Z</time>
      </trkpt>
      <trkpt lat="46.15686" lon="4.52523">
        <ele>734.2</ele>
        <time>2020-10-17T13:03:10Z</time>
      </trkpt>
      <trkpt lat="46.15685" lon="4.52527">
        <ele>734.2</ele>
        <time>2020-10-17T13:03:11Z</time>
      </trkpt>
      <trkpt lat="46.15685" lon="4.52527">
        <ele>734.2</ele>
        <time>2020-10-17T13:03:12Z</time>
      </trkpt>
      <trkpt lat="46.15684" lon="4.52531">
        <ele>734.4</ele>
        <time>2020-10-17T13:03:13Z</time>
      </trkpt>
      <trkpt lat="46.15684" lon="4.52531">
        <ele>734.4</ele>
        <time>2020-10-17T13:03:14Z</time>
      </trkpt>
      <trkpt lat="46.15684" lon="4.52535">
        <ele>734.4</ele>
        <time>2020-10-17T13:03:15Z</time>
      </trkpt>
      <trkpt lat="46.15684" lon="4.52535">
        <ele>734.4</ele>
        <time>2020-10-17T13:03:16Z</time>
      </trkpt>
      <trkpt lat="46.15683" lon="4.52539">
        <ele>734.2</ele>
        <time>2020-10-17T13:03:17Z</time>
      </trkpt>
      <trkpt lat="46.15683" lon="4.52539">
        <ele>734.2</ele>
        <time>2020-10-17T13:03:18Z</time>
      </trkpt>
      <trkpt lat="46.15683" lon="4.52542">
        <ele>734.2</ele>
        <time>2020-10-17T13:03:19Z</time>
      </trkpt>
      <trkpt lat="46.15683" lon="4.52542">
        <ele>734</ele>
        <time>2020-10-17T13:03:20Z</time>
      </trkpt>
      <trkpt lat="46.15683" lon="4.52546">
        <ele>734</ele>
        <time>2020-10-17T13:03:21Z</time>
      </trkpt>
      <trkpt lat="46.15683" lon="4.52546">
        <ele>734</ele>
        <time>2020-10-17T13:03:22Z</time>
      </trkpt>
      <trkpt lat="46.15684" lon="4.52551">
        <ele>734</ele>
        <time>2020-10-17T13:03:23Z</time>
      </trkpt>
      <trkpt lat="46.15684" lon="4.52551">
        <ele>734</ele>
        <time>2020-10-17T13:03:24Z</time>
      </trkpt>
      <trkpt lat="46.15684" lon="4.52556">
        <ele>734.2</ele>
        <time>2020-10-17T13:03:25Z</time>
      </trkpt>
      <trkpt lat="46.15684" lon="4.52559">
        <ele>734.6</ele>
        <time>2020-10-17T13:03:26Z</time>
      </trkpt>
      <trkpt lat="46.15685" lon="4.52563">
        <ele>734.6</ele>
        <time>2020-10-17T13:03:27Z</time>
      </trkpt>
      <trkpt lat="46.15685" lon="4.52565">
        <ele>735</ele>
        <time>2020-10-17T13:03:28Z</time>
      </trkpt>
      <trkpt lat="46.15685" lon="4.52565">
        <ele>735</ele>
        <time>2020-10-17T13:03:29Z</time>
      </trkpt>
      <trkpt lat="46.15685" lon="4.52569">
        <ele>734.4</ele>
        <time>2020-10-17T13:03:30Z</time>
      </trkpt>
      <trkpt lat="46.15685" lon="4.52569">
        <ele>734.4</ele>
        <time>2020-10-17T13:03:31Z</time>
      </trkpt>
      <trkpt lat="46.15687" lon="4.52574">
        <ele>734.2</ele>
        <time>2020-10-17T13:03:32Z</time>
      </trkpt>
      <trkpt lat="46.15687" lon="4.52574">
        <ele>734</ele>
        <time>2020-10-17T13:03:33Z</time>
      </trkpt>
      <trkpt lat="46.15689" lon="4.52579">
        <ele>734</ele>
        <time>2020-10-17T13:03:34Z</time>
      </trkpt>
      <trkpt lat="46.1569" lon="4.52581">
        <ele>734.2</ele>
        <time>2020-10-17T13:03:35Z</time>
      </trkpt>
      <trkpt lat="46.1569" lon="4.52581">
        <ele>734</ele>
        <time>2020-10-17T13:03:36Z</time>
      </trkpt>
      <trkpt lat="46.15691" lon="4.52586">
        <ele>734</ele>
        <time>2020-10-17T13:03:37Z</time>
      </trkpt>
      <trkpt lat="46.15691" lon="4.52586">
        <ele>733.8</ele>
        <time>2020-10-17T13:03:38Z</time>
      </trkpt>
      <trkpt lat="46.15692" lon="4.52591">
        <ele>733.8</ele>
        <time>2020-10-17T13:03:39Z</time>
      </trkpt>
      <trkpt lat="46.15692" lon="4.52594">
        <ele>733.8</ele>
        <time>2020-10-17T13:03:40Z</time>
      </trkpt>
      <trkpt lat="46.15692" lon="4.52594">
        <ele>733.4</ele>
        <time>2020-10-17T13:03:41Z</time>
      </trkpt>
      <trkpt lat="46.15691" lon="4.52599">
        <ele>733.6</ele>
        <time>2020-10-17T13:03:42Z</time>
      </trkpt>
      <trkpt lat="46.15691" lon="4.52599">
        <ele>733.4</ele>
        <time>2020-10-17T13:03:43Z</time>
      </trkpt>
      <trkpt lat="46.15691" lon="4.52604">
        <ele>733.6</ele>
        <time>2020-10-17T13:03:44Z</time>
      </trkpt>
      <trkpt lat="46.15691" lon="4.52607">
        <ele>733.6</ele>
        <time>2020-10-17T13:03:45Z</time>
      </trkpt>
      <trkpt lat="46.1569" lon="4.52612">
        <ele>733.6</ele>
        <time>2020-10-17T13:03:46Z</time>
      </trkpt>
      <trkpt lat="46.1569" lon="4.52613">
        <ele>733.8</ele>
        <time>2020-10-17T13:03:47Z</time>
      </trkpt>
      <trkpt lat="46.15689" lon="4.52616">
        <ele>734</ele>
        <time>2020-10-17T13:03:48Z</time>
      </trkpt>
      <trkpt lat="46.15689" lon="4.52618">
        <ele>734</ele>
        <time>2020-10-17T13:03:49Z</time>
      </trkpt>
      <trkpt lat="46.15688" lon="4.52621">
        <ele>734.2</ele>
        <time>2020-10-17T13:03:50Z</time>
      </trkpt>
      <trkpt lat="46.15688" lon="4.52624">
        <ele>734.2</ele>
        <time>2020-10-17T13:03:51Z</time>
      </trkpt>
      <trkpt lat="46.15688" lon="4.52627">
        <ele>734.2</ele>
        <time>2020-10-17T13:03:52Z</time>
      </trkpt>
      <trkpt lat="46.15688" lon="4.52627">
        <ele>734.4</ele>
        <time>2020-10-17T13:03:53Z</time>
      </trkpt>
      <trkpt lat="46.15687" lon="4.52632">
        <ele>734.2</ele>
        <time>2020-10-17T13:03:54Z</time>
      </trkpt>
      <trkpt lat="46.15687" lon="4.52635">
        <ele>734.2</ele>
        <time>2020-10-17T13:03:55Z</time>
      </trkpt>
      <trkpt lat="46.15687" lon="4.52635">
        <ele>734.4</ele>
        <time>2020-10-17T13:03:56Z</time>
      </trkpt>
      <trkpt lat="46.15687" lon="4.5264">
        <ele>734.4</ele>
        <time>2020-10-17T13:03:57Z</time>
      </trkpt>
      <trkpt lat="46.15687" lon="4.52643">
        <ele>734.4</ele>
        <time>2020-10-17T13:03:58Z</time>
      </trkpt>
      <trkpt lat="46.15687" lon="4.52643">
        <ele>734.4</ele>
        <time>2020-10-17T13:03:59Z</time>
      </trkpt>
      <trkpt lat="46.15686" lon="4.52648">
        <ele>734.4</ele>
        <time>2020-10-17T13:04:00Z</time>
      </trkpt>
      <trkpt lat="46.15686" lon="4.52651">
        <ele>734.4</ele>
        <time>2020-10-17T13:04:01Z</time>
      </trkpt>
      <trkpt lat="46.15686" lon="4.52651">
        <ele>734.4</ele>
        <time>2020-10-17T13:04:02Z</time>
      </trkpt>
      <trkpt lat="46.15686" lon="4.52656">
        <ele>734.4</ele>
        <time>2020-10-17T13:04:03Z</time>
      </trkpt>
      <trkpt lat="46.15687" lon="4.52659">
        <ele>734.4</ele>
        <time>2020-10-17T13:04:04Z</time>
      </trkpt>
      <trkpt lat="46.15687" lon="4.52659">
        <ele>734.4</ele>
        <time>2020-10-17T13:04:05Z</time>
      </trkpt>
      <trkpt lat="46.15687" lon="4.52664">
        <ele>734.4</ele>
        <time>2020-10-17T13:04:06Z</time>
      </trkpt>
      <trkpt lat="46.15687" lon="4.52664">
        <ele>734.4</ele>
        <time>2020-10-17T13:04:07Z</time>
      </trkpt>
      <trkpt lat="46.15687" lon="4.52668">
        <ele>734</ele>
        <time>2020-10-17T13:04:08Z</time>
      </trkpt>
      <trkpt lat="46.15687" lon="4.52668">
        <ele>734</ele>
        <time>2020-10-17T13:04:09Z</time>
      </trkpt>
      <trkpt lat="46.15688" lon="4.52673">
        <ele>734</ele>
        <time>2020-10-17T13:04:10Z</time>
      </trkpt>
      <trkpt lat="46.15688" lon="4.52673">
        <ele>734</ele>
        <time>2020-10-17T13:04:11Z</time>
      </trkpt>
      <trkpt lat="46.15689" lon="4.52678">
        <ele>734</ele>
        <time>2020-10-17T13:04:12Z</time>
      </trkpt>
      <trkpt lat="46.15689" lon="4.52678">
        <ele>734</ele>
        <time>2020-10-17T13:04:13Z</time>
      </trkpt>
      <trkpt lat="46.15691" lon="4.52683">
        <ele>734.2</ele>
        <time>2020-10-17T13:04:14Z</time>
      </trkpt>
      <trkpt lat="46.15691" lon="4.52683">
        <ele>734</ele>
        <time>2020-10-17T13:04:15Z</time>
      </trkpt>
      <trkpt lat="46.15692" lon="4.52687">
        <ele>733.6</ele>
        <time>2020-10-17T13:04:16Z</time>
      </trkpt>
      <trkpt lat="46.15692" lon="4.52687">
        <ele>733.6</ele>
        <time>2020-10-17T13:04:17Z</time>
      </trkpt>
      <trkpt lat="46.15693" lon="4.52691">
        <ele>733.6</ele>
        <time>2020-10-17T13:04:18Z</time>
      </trkpt>
      <trkpt lat="46.15693" lon="4.52691">
        <ele>733.4</ele>
        <time>2020-10-17T13:04:19Z</time>
      </trkpt>
      <trkpt lat="46.15695" lon="4.52695">
        <ele>733.4</ele>
        <time>2020-10-17T13:04:20Z</time>
      </trkpt>
      <trkpt lat="46.15695" lon="4.52695">
        <ele>733.2</ele>
        <time>2020-10-17T13:04:21Z</time>
      </trkpt>
      <trkpt lat="46.15696" lon="4.52699">
        <ele>733.4</ele>
        <time>2020-10-17T13:04:22Z</time>
      </trkpt>
      <trkpt lat="46.15696" lon="4.52699">
        <ele>733.2</ele>
        <time>2020-10-17T13:04:23Z</time>
      </trkpt>
      <trkpt lat="46.15698" lon="4.52703">
        <ele>733.2</ele>
        <time>2020-10-17T13:04:24Z</time>
      </trkpt>
      <trkpt lat="46.15698" lon="4.52703">
        <ele>733.4</ele>
        <time>2020-10-17T13:04:25Z</time>
      </trkpt>
      <trkpt lat="46.157" lon="4.52706">
        <ele>733.4</ele>
        <time>2020-10-17T13:04:26Z</time>
      </trkpt>
      <trkpt lat="46.157" lon="4.52706">
        <ele>733.6</ele>
        <time>2020-10-17T13:04:27Z</time>
      </trkpt>
      <trkpt lat="46.15702" lon="4.52709">
        <ele>733.4</ele>
        <time>2020-10-17T13:04:28Z</time>
      </trkpt>
      <trkpt lat="46.15702" lon="4.52709">
        <ele>733.4</ele>
        <time>2020-10-17T13:04:29Z</time>
      </trkpt>
      <trkpt lat="46.15703" lon="4.52712">
        <ele>733.4</ele>
        <time>2020-10-17T13:04:30Z</time>
      </trkpt>
      <trkpt lat="46.15703" lon="4.52712">
        <ele>733.4</ele>
        <time>2020-10-17T13:04:31Z</time>
      </trkpt>
      <trkpt lat="46.15705" lon="4.52716">
        <ele>733.8</ele>
        <time>2020-10-17T13:04:32Z</time>
      </trkpt>
      <trkpt lat="46.15705" lon="4.52716">
        <ele>734</ele>
        <time>2020-10-17T13:04:33Z</time>
      </trkpt>
      <trkpt lat="46.15707" lon="4.5272">
        <ele>734.2</ele>
        <time>2020-10-17T13:04:34Z</time>
      </trkpt>
      <trkpt lat="46.15707" lon="4.5272">
        <ele>734.4</ele>
        <time>2020-10-17T13:04:35Z</time>
      </trkpt>
      <trkpt lat="46.15709" lon="4.52723">
        <ele>734.4</ele>
        <time>2020-10-17T13:04:36Z</time>
      </trkpt>
      <trkpt lat="46.15709" lon="4.52723">
        <ele>734.4</ele>
        <time>2020-10-17T13:04:37Z</time>
      </trkpt>
      <trkpt lat="46.15711" lon="4.52727">
        <ele>734.6</ele>
        <time>2020-10-17T13:04:38Z</time>
      </trkpt>
      <trkpt lat="46.15711" lon="4.52727">
        <ele>735</ele>
        <time>2020-10-17T13:04:39Z</time>
      </trkpt>
      <trkpt lat="46.15711" lon="4.52731">
        <ele>735.2</ele>
        <time>2020-10-17T13:04:40Z</time>
      </trkpt>
      <trkpt lat="46.15711" lon="4.52731">
        <ele>735</ele>
        <time>2020-10-17T13:04:41Z</time>
      </trkpt>
      <trkpt lat="46.15712" lon="4.52735">
        <ele>735</ele>
        <time>2020-10-17T13:04:42Z</time>
      </trkpt>
      <trkpt lat="46.15712" lon="4.52735">
        <ele>735</ele>
        <time>2020-10-17T13:04:43Z</time>
      </trkpt>
      <trkpt lat="46.15713" lon="4.52739">
        <ele>734.6</ele>
        <time>2020-10-17T13:04:44Z</time>
      </trkpt>
      <trkpt lat="46.15713" lon="4.52739">
        <ele>734.6</ele>
        <time>2020-10-17T13:04:45Z</time>
      </trkpt>
      <trkpt lat="46.15714" lon="4.52742">
        <ele>734.2</ele>
        <time>2020-10-17T13:04:46Z</time>
      </trkpt>
      <trkpt lat="46.15714" lon="4.52742">
        <ele>734</ele>
        <time>2020-10-17T13:04:47Z</time>
      </trkpt>
      <trkpt lat="46.15716" lon="4.52746">
        <ele>733.6</ele>
        <time>2020-10-17T13:04:48Z</time>
      </trkpt>
      <trkpt lat="46.15716" lon="4.52746">
        <ele>733.4</ele>
        <time>2020-10-17T13:04:49Z</time>
      </trkpt>
      <trkpt lat="46.15718" lon="4.5275">
        <ele>733.4</ele>
        <time>2020-10-17T13:04:50Z</time>
      </trkpt>
      <trkpt lat="46.15719" lon="4.52753">
        <ele>733.2</ele>
        <time>2020-10-17T13:04:51Z</time>
      </trkpt>
      <trkpt lat="46.1572" lon="4.52756">
        <ele>733</ele>
        <time>2020-10-17T13:04:52Z</time>
      </trkpt>
      <trkpt lat="46.15721" lon="4.52759">
        <ele>733.2</ele>
        <time>2020-10-17T13:04:53Z</time>
      </trkpt>
      <trkpt lat="46.15722" lon="4.52762">
        <ele>732.8</ele>
        <time>2020-10-17T13:04:54Z</time>
      </trkpt>
      <trkpt lat="46.15724" lon="4.52766">
        <ele>732.8</ele>
        <time>2020-10-17T13:04:55Z</time>
      </trkpt>
      <trkpt lat="46.15725" lon="4.5277">
        <ele>732.4</ele>
        <time>2020-10-17T13:04:56Z</time>
      </trkpt>
      <trkpt lat="46.15726" lon="4.52772">
        <ele>732.4</ele>
        <time>2020-10-17T13:04:57Z</time>
      </trkpt>
      <trkpt lat="46.15727" lon="4.52775">
        <ele>732</ele>
        <time>2020-10-17T13:04:58Z</time>
      </trkpt>
      <trkpt lat="46.15729" lon="4.52779">
        <ele>731.8</ele>
        <time>2020-10-17T13:04:59Z</time>
      </trkpt>
      <trkpt lat="46.15729" lon="4.52782">
        <ele>731.6</ele>
        <time>2020-10-17T13:05:00Z</time>
      </trkpt>
      <trkpt lat="46.1573" lon="4.52785">
        <ele>731</ele>
        <time>2020-10-17T13:05:01Z</time>
      </trkpt>
      <trkpt lat="46.15731" lon="4.52788">
        <ele>731</ele>
        <time>2020-10-17T13:05:02Z</time>
      </trkpt>
      <trkpt lat="46.15732" lon="4.5279">
        <ele>730.4</ele>
        <time>2020-10-17T13:05:03Z</time>
      </trkpt>
      <trkpt lat="46.15732" lon="4.52793">
        <ele>730.2</ele>
        <time>2020-10-17T13:05:04Z</time>
      </trkpt>
      <trkpt lat="46.15732" lon="4.52797">
        <ele>729.4</ele>
        <time>2020-10-17T13:05:05Z</time>
      </trkpt>
      <trkpt lat="46.15733" lon="4.528">
        <ele>729.2</ele>
        <time>2020-10-17T13:05:06Z</time>
      </trkpt>
      <trkpt lat="46.15734" lon="4.52804">
        <ele>728.6</ele>
        <time>2020-10-17T13:05:07Z</time>
      </trkpt>
      <trkpt lat="46.15734" lon="4.52808">
        <ele>728</ele>
        <time>2020-10-17T13:05:08Z</time>
      </trkpt>
      <trkpt lat="46.15734" lon="4.52813">
        <ele>727.6</ele>
        <time>2020-10-17T13:05:09Z</time>
      </trkpt>
      <trkpt lat="46.15735" lon="4.52817">
        <ele>727.2</ele>
        <time>2020-10-17T13:05:10Z</time>
      </trkpt>
      <trkpt lat="46.15736" lon="4.52821">
        <ele>726.4</ele>
        <time>2020-10-17T13:05:11Z</time>
      </trkpt>
      <trkpt lat="46.15736" lon="4.52825">
        <ele>726.2</ele>
        <time>2020-10-17T13:05:12Z</time>
      </trkpt>
      <trkpt lat="46.15737" lon="4.52829">
        <ele>725.2</ele>
        <time>2020-10-17T13:05:13Z</time>
      </trkpt>
      <trkpt lat="46.15736" lon="4.52833">
        <ele>725</ele>
        <time>2020-10-17T13:05:14Z</time>
      </trkpt>
      <trkpt lat="46.15736" lon="4.52836">
        <ele>724.4</ele>
        <time>2020-10-17T13:05:15Z</time>
      </trkpt>
      <trkpt lat="46.15737" lon="4.52839">
        <ele>724</ele>
        <time>2020-10-17T13:05:16Z</time>
      </trkpt>
      <trkpt lat="46.15738" lon="4.52842">
        <ele>723</ele>
        <time>2020-10-17T13:05:17Z</time>
      </trkpt>
      <trkpt lat="46.15738" lon="4.52845">
        <ele>722.2</ele>
        <time>2020-10-17T13:05:18Z</time>
      </trkpt>
      <trkpt lat="46.1574" lon="4.52848">
        <ele>722</ele>
        <time>2020-10-17T13:05:19Z</time>
      </trkpt>
      <trkpt lat="46.15742" lon="4.5285">
        <ele>721.2</ele>
        <time>2020-10-17T13:05:20Z</time>
      </trkpt>
      <trkpt lat="46.15742" lon="4.52854">
        <ele>721</ele>
        <time>2020-10-17T13:05:21Z</time>
      </trkpt>
      <trkpt lat="46.15744" lon="4.52857">
        <ele>720.2</ele>
        <time>2020-10-17T13:05:22Z</time>
      </trkpt>
      <trkpt lat="46.15745" lon="4.5286">
        <ele>719</ele>
        <time>2020-10-17T13:05:23Z</time>
      </trkpt>
      <trkpt lat="46.15747" lon="4.52864">
        <ele>718.6</ele>
        <time>2020-10-17T13:05:24Z</time>
      </trkpt>
      <trkpt lat="46.15749" lon="4.52868">
        <ele>718.6</ele>
        <time>2020-10-17T13:05:25Z</time>
      </trkpt>
      <trkpt lat="46.15751" lon="4.52871">
        <ele>717.8</ele>
        <time>2020-10-17T13:05:26Z</time>
      </trkpt>
      <trkpt lat="46.15753" lon="4.52875">
        <ele>717.6</ele>
        <time>2020-10-17T13:05:27Z</time>
      </trkpt>
      <trkpt lat="46.15754" lon="4.52877">
        <ele>716.6</ele>
        <time>2020-10-17T13:05:28Z</time>
      </trkpt>
      <trkpt lat="46.15756" lon="4.5288">
        <ele>716.4</ele>
        <time>2020-10-17T13:05:29Z</time>
      </trkpt>
      <trkpt lat="46.15757" lon="4.52883">
        <ele>716.2</ele>
        <time>2020-10-17T13:05:30Z</time>
      </trkpt>
      <trkpt lat="46.15759" lon="4.52886">
        <ele>715.8</ele>
        <time>2020-10-17T13:05:31Z</time>
      </trkpt>
      <trkpt lat="46.15761" lon="4.52888">
        <ele>715.2</ele>
        <time>2020-10-17T13:05:32Z</time>
      </trkpt>
      <trkpt lat="46.15763" lon="4.5289">
        <ele>714.8</ele>
        <time>2020-10-17T13:05:33Z</time>
      </trkpt>
      <trkpt lat="46.15765" lon="4.52892">
        <ele>714.6</ele>
        <time>2020-10-17T13:05:34Z</time>
      </trkpt>
      <trkpt lat="46.15768" lon="4.52893">
        <ele>713.6</ele>
        <time>2020-10-17T13:05:35Z</time>
      </trkpt>
      <trkpt lat="46.15771" lon="4.52896">
        <ele>712.8</ele>
        <time>2020-10-17T13:05:36Z</time>
      </trkpt>
      <trkpt lat="46.15773" lon="4.52898">
        <ele>712.8</ele>
        <time>2020-10-17T13:05:37Z</time>
      </trkpt>
      <trkpt lat="46.15775" lon="4.529">
        <ele>712.2</ele>
        <time>2020-10-17T13:05:38Z</time>
      </trkpt>
      <trkpt lat="46.15777" lon="4.52904">
        <ele>711.8</ele>
        <time>2020-10-17T13:05:39Z</time>
      </trkpt>
      <trkpt lat="46.15778" lon="4.52907">
        <ele>711.4</ele>
        <time>2020-10-17T13:05:40Z</time>
      </trkpt>
      <trkpt lat="46.15778" lon="4.52907">
        <ele>711</ele>
        <time>2020-10-17T13:05:41Z</time>
      </trkpt>
      <trkpt lat="46.15778" lon="4.52911">
        <ele>710.4</ele>
        <time>2020-10-17T13:05:42Z</time>
      </trkpt>
      <trkpt lat="46.15775" lon="4.52914">
        <ele>710</ele>
        <time>2020-10-17T13:05:43Z</time>
      </trkpt>
      <trkpt lat="46.1577" lon="4.52916">
        <ele>709.4</ele>
        <time>2020-10-17T13:05:44Z</time>
      </trkpt>
      <trkpt lat="46.15765" lon="4.52919">
        <ele>708.6</ele>
        <time>2020-10-17T13:05:45Z</time>
      </trkpt>
      <trkpt lat="46.15761" lon="4.52921">
        <ele>708.4</ele>
        <time>2020-10-17T13:05:46Z</time>
      </trkpt>
      <trkpt lat="46.15759" lon="4.52923">
        <ele>708.2</ele>
        <time>2020-10-17T13:05:47Z</time>
      </trkpt>
      <trkpt lat="46.15756" lon="4.52924">
        <ele>708</ele>
        <time>2020-10-17T13:05:48Z</time>
      </trkpt>
      <trkpt lat="46.15754" lon="4.52925">
        <ele>707.8</ele>
        <time>2020-10-17T13:05:49Z</time>
      </trkpt>
      <trkpt lat="46.1575" lon="4.52927">
        <ele>707.8</ele>
        <time>2020-10-17T13:05:50Z</time>
      </trkpt>
      <trkpt lat="46.15748" lon="4.52928">
        <ele>707.6</ele>
        <time>2020-10-17T13:05:51Z</time>
      </trkpt>
      <trkpt lat="46.15746" lon="4.5293">
        <ele>707.2</ele>
        <time>2020-10-17T13:05:52Z</time>
      </trkpt>
      <trkpt lat="46.15746" lon="4.5293">
        <ele>706.2</ele>
        <time>2020-10-17T13:05:53Z</time>
      </trkpt>
      <trkpt lat="46.15743" lon="4.52933">
        <ele>705.8</ele>
        <time>2020-10-17T13:05:54Z</time>
      </trkpt>
      <trkpt lat="46.15743" lon="4.52933">
        <ele>705.8</ele>
        <time>2020-10-17T13:05:55Z</time>
      </trkpt>
      <trkpt lat="46.15741" lon="4.52937">
        <ele>705.2</ele>
        <time>2020-10-17T13:05:56Z</time>
      </trkpt>
      <trkpt lat="46.15741" lon="4.52937">
        <ele>704.8</ele>
        <time>2020-10-17T13:05:57Z</time>
      </trkpt>
      <trkpt lat="46.15739" lon="4.52937">
        <ele>704.6</ele>
        <time>2020-10-17T13:05:58Z</time>
      </trkpt>
      <trkpt lat="46.15739" lon="4.52937">
        <ele>704.6</ele>
        <time>2020-10-17T13:05:59Z</time>
      </trkpt>
      <trkpt lat="46.15736" lon="4.52936">
        <ele>704.2</ele>
        <time>2020-10-17T13:06:00Z</time>
      </trkpt>
      <trkpt lat="46.15734" lon="4.52935">
        <ele>704</ele>
        <time>2020-10-17T13:06:01Z</time>
      </trkpt>
      <trkpt lat="46.15734" lon="4.52935">
        <ele>704</ele>
        <time>2020-10-17T13:06:02Z</time>
      </trkpt>
      <trkpt lat="46.15732" lon="4.52934">
        <ele>704</ele>
        <time>2020-10-17T13:06:03Z</time>
      </trkpt>
      <trkpt lat="46.15732" lon="4.52934">
        <ele>704</ele>
        <time>2020-10-17T13:06:04Z</time>
      </trkpt>
      <trkpt lat="46.15729" lon="4.52932">
        <ele>703.8</ele>
        <time>2020-10-17T13:06:05Z</time>
      </trkpt>
      <trkpt lat="46.15729" lon="4.52932">
        <ele>703.8</ele>
        <time>2020-10-17T13:06:06Z</time>
      </trkpt>
      <trkpt lat="46.15726" lon="4.52932">
        <ele>703.6</ele>
        <time>2020-10-17T13:06:07Z</time>
      </trkpt>
      <trkpt lat="46.15726" lon="4.52932">
        <ele>703.6</ele>
        <time>2020-10-17T13:06:08Z</time>
      </trkpt>
      <trkpt lat="46.15724" lon="4.5293">
        <ele>703.4</ele>
        <time>2020-10-17T13:06:09Z</time>
      </trkpt>
      <trkpt lat="46.15724" lon="4.5293">
        <ele>703.4</ele>
        <time>2020-10-17T13:06:10Z</time>
      </trkpt>
      <trkpt lat="46.15724" lon="4.5293">
        <ele>703.2</ele>
        <time>2020-10-17T13:06:11Z</time>
      </trkpt>
      <trkpt lat="46.15722" lon="4.52928">
        <ele>703.4</ele>
        <time>2020-10-17T13:06:12Z</time>
      </trkpt>
      <trkpt lat="46.15722" lon="4.52928">
        <ele>703.2</ele>
        <time>2020-10-17T13:06:13Z</time>
      </trkpt>
      <trkpt lat="46.15722" lon="4.52925">
        <ele>703</ele>
        <time>2020-10-17T13:06:14Z</time>
      </trkpt>
      <trkpt lat="46.15722" lon="4.52925">
        <ele>703</ele>
        <time>2020-10-17T13:06:15Z</time>
      </trkpt>
      <trkpt lat="46.15722" lon="4.52922">
        <ele>703.2</ele>
        <time>2020-10-17T13:06:16Z</time>
      </trkpt>
      <trkpt lat="46.15722" lon="4.5292">
        <ele>703.2</ele>
        <time>2020-10-17T13:06:17Z</time>
      </trkpt>
      <trkpt lat="46.15722" lon="4.5292">
        <ele>703</ele>
        <time>2020-10-17T13:06:18Z</time>
      </trkpt>
      <trkpt lat="46.15721" lon="4.52917">
        <ele>703.2</ele>
        <time>2020-10-17T13:06:19Z</time>
      </trkpt>
      <trkpt lat="46.15721" lon="4.52917">
        <ele>703.4</ele>
        <time>2020-10-17T13:06:20Z</time>
      </trkpt>
      <trkpt lat="46.1572" lon="4.52913">
        <ele>703.6</ele>
        <time>2020-10-17T13:06:21Z</time>
      </trkpt>
      <trkpt lat="46.1572" lon="4.52913">
        <ele>703.8</ele>
        <time>2020-10-17T13:06:22Z</time>
      </trkpt>
      <trkpt lat="46.15719" lon="4.5291">
        <ele>704</ele>
        <time>2020-10-17T13:06:23Z</time>
      </trkpt>
      <trkpt lat="46.15719" lon="4.5291">
        <ele>704.2</ele>
        <time>2020-10-17T13:06:24Z</time>
      </trkpt>
      <trkpt lat="46.15717" lon="4.52908">
        <ele>704.4</ele>
        <time>2020-10-17T13:06:25Z</time>
      </trkpt>
      <trkpt lat="46.15717" lon="4.52908">
        <ele>704.6</ele>
        <time>2020-10-17T13:06:26Z</time>
      </trkpt>
      <trkpt lat="46.15717" lon="4.52908">
        <ele>704.8</ele>
        <time>2020-10-17T13:06:27Z</time>
      </trkpt>
      <trkpt lat="46.15715" lon="4.52907">
        <ele>705</ele>
        <time>2020-10-17T13:06:28Z</time>
      </trkpt>
      <trkpt lat="46.15715" lon="4.52907">
        <ele>705.4</ele>
        <time>2020-10-17T13:06:29Z</time>
      </trkpt>
      <trkpt lat="46.15715" lon="4.52907">
        <ele>705.6</ele>
        <time>2020-10-17T13:06:30Z</time>
      </trkpt>
      <trkpt lat="46.15712" lon="4.52905">
        <ele>705.8</ele>
        <time>2020-10-17T13:06:31Z</time>
      </trkpt>
      <trkpt lat="46.15712" lon="4.52905">
        <ele>706</ele>
        <time>2020-10-17T13:06:32Z</time>
      </trkpt>
      <trkpt lat="46.15709" lon="4.52904">
        <ele>706.4</ele>
        <time>2020-10-17T13:06:33Z</time>
      </trkpt>
      <trkpt lat="46.15709" lon="4.52904">
        <ele>706.6</ele>
        <time>2020-10-17T13:06:34Z</time>
      </trkpt>
      <trkpt lat="46.15707" lon="4.52904">
        <ele>706.6</ele>
        <time>2020-10-17T13:06:35Z</time>
      </trkpt>
      <trkpt lat="46.15707" lon="4.52904">
        <ele>706.6</ele>
        <time>2020-10-17T13:06:36Z</time>
      </trkpt>
      <trkpt lat="46.15705" lon="4.52904">
        <ele>707.2</ele>
        <time>2020-10-17T13:06:37Z</time>
      </trkpt>
      <trkpt lat="46.15705" lon="4.52904">
        <ele>707</ele>
        <time>2020-10-17T13:06:38Z</time>
      </trkpt>
      <trkpt lat="46.15705" lon="4.52904">
        <ele>706.8</ele>
        <time>2020-10-17T13:06:39Z</time>
      </trkpt>
      <trkpt lat="46.15705" lon="4.52904">
        <ele>706.8</ele>
        <time>2020-10-17T13:06:40Z</time>
      </trkpt>
      <trkpt lat="46.15705" lon="4.52904">
        <ele>706.6</ele>
        <time>2020-10-17T13:06:41Z</time>
      </trkpt>
      <trkpt lat="46.15705" lon="4.52904">
        <ele>706.6</ele>
        <time>2020-10-17T13:06:42Z</time>
      </trkpt>
      <trkpt lat="46.15705" lon="4.52904">
        <ele>706.6</ele>
        <time>2020-10-17T13:06:43Z</time>
      </trkpt>
      <trkpt lat="46.15705" lon="4.52904">
        <ele>706.4</ele>
        <time>2020-10-17T13:06:44Z</time>
      </trkpt>
      <trkpt lat="46.15705" lon="4.52904">
        <ele>706.6</ele>
        <time>2020-10-17T13:06:45Z</time>
      </trkpt>
      <trkpt lat="46.15707" lon="4.52904">
        <ele>706.4</ele>
        <time>2020-10-17T13:06:46Z</time>
      </trkpt>
      <trkpt lat="46.15707" lon="4.52904">
        <ele>706.4</ele>
        <time>2020-10-17T13:06:47Z</time>
      </trkpt>
      <trkpt lat="46.15709" lon="4.52904">
        <ele>706.6</ele>
        <time>2020-10-17T13:06:48Z</time>
      </trkpt>
      <trkpt lat="46.15709" lon="4.52904">
        <ele>706.6</ele>
        <time>2020-10-17T13:06:49Z</time>
      </trkpt>
      <trkpt lat="46.15712" lon="4.52904">
        <ele>706.6</ele>
        <time>2020-10-17T13:06:50Z</time>
      </trkpt>
      <trkpt lat="46.15712" lon="4.52904">
        <ele>706.8</ele>
        <time>2020-10-17T13:06:51Z</time>
      </trkpt>
      <trkpt lat="46.15713" lon="4.52905">
        <ele>707</ele>
        <time>2020-10-17T13:06:52Z</time>
      </trkpt>
      <trkpt lat="46.15713" lon="4.52905">
        <ele>707</ele>
        <time>2020-10-17T13:06:53Z</time>
      </trkpt>
      <trkpt lat="46.15713" lon="4.52905">
        <ele>707</ele>
        <time>2020-10-17T13:06:54Z</time>
      </trkpt>
      <trkpt lat="46.15713" lon="4.52905">
        <ele>706.8</ele>
        <time>2020-10-17T13:06:55Z</time>
      </trkpt>
      <trkpt lat="46.15713" lon="4.52905">
        <ele>707</ele>
        <time>2020-10-17T13:06:56Z</time>
      </trkpt>
      <trkpt lat="46.15713" lon="4.52905">
        <ele>706.8</ele>
        <time>2020-10-17T13:06:57Z</time>
      </trkpt>
      <trkpt lat="46.15713" lon="4.52905">
        <ele>706.8</ele>
        <time>2020-10-17T13:06:58Z</time>
      </trkpt>
      <trkpt lat="46.15714" lon="4.52902">
        <ele>706.6</ele>
        <time>2020-10-17T13:06:59Z</time>
      </trkpt>
      <trkpt lat="46.15714" lon="4.52902">
        <ele>706.8</ele>
        <time>2020-10-17T13:07:00Z</time>
      </trkpt>
      <trkpt lat="46.15716" lon="4.529">
        <ele>706.8</ele>
        <time>2020-10-17T13:07:01Z</time>
      </trkpt>
      <trkpt lat="46.15716" lon="4.529">
        <ele>706.8</ele>
        <time>2020-10-17T13:07:02Z</time>
      </trkpt>
      <trkpt lat="46.15718" lon="4.529">
        <ele>706.8</ele>
        <time>2020-10-17T13:07:03Z</time>
      </trkpt>
      <trkpt lat="46.15718" lon="4.529">
        <ele>707</ele>
        <time>2020-10-17T13:07:04Z</time>
      </trkpt>
      <trkpt lat="46.15722" lon="4.52899">
        <ele>707</ele>
        <time>2020-10-17T13:07:05Z</time>
      </trkpt>
      <trkpt lat="46.15722" lon="4.52899">
        <ele>706.8</ele>
        <time>2020-10-17T13:07:06Z</time>
      </trkpt>
      <trkpt lat="46.15724" lon="4.529">
        <ele>706.4</ele>
        <time>2020-10-17T13:07:07Z</time>
      </trkpt>
      <trkpt lat="46.15724" lon="4.529">
        <ele>706.4</ele>
        <time>2020-10-17T13:07:08Z</time>
      </trkpt>
      <trkpt lat="46.15727" lon="4.52902">
        <ele>706.2</ele>
        <time>2020-10-17T13:07:09Z</time>
      </trkpt>
      <trkpt lat="46.15727" lon="4.52902">
        <ele>706</ele>
        <time>2020-10-17T13:07:10Z</time>
      </trkpt>
      <trkpt lat="46.15726" lon="4.52907">
        <ele>705.6</ele>
        <time>2020-10-17T13:07:11Z</time>
      </trkpt>
      <trkpt lat="46.15726" lon="4.52907">
        <ele>705.2</ele>
        <time>2020-10-17T13:07:12Z</time>
      </trkpt>
      <trkpt lat="46.15726" lon="4.52911">
        <ele>705</ele>
        <time>2020-10-17T13:07:13Z</time>
      </trkpt>
      <trkpt lat="46.15726" lon="4.52914">
        <ele>705</ele>
        <time>2020-10-17T13:07:14Z</time>
      </trkpt>
      <trkpt lat="46.15725" lon="4.52917">
        <ele>704.8</ele>
        <time>2020-10-17T13:07:15Z</time>
      </trkpt>
      <trkpt lat="46.15723" lon="4.5292">
        <ele>704.6</ele>
        <time>2020-10-17T13:07:16Z</time>
      </trkpt>
      <trkpt lat="46.15722" lon="4.52922">
        <ele>704.4</ele>
        <time>2020-10-17T13:07:17Z</time>
      </trkpt>
      <trkpt lat="46.15722" lon="4.52922">
        <ele>704.2</ele>
        <time>2020-10-17T13:07:18Z</time>
      </trkpt>
      <trkpt lat="46.1572" lon="4.52924">
        <ele>704</ele>
        <time>2020-10-17T13:07:19Z</time>
      </trkpt>
      <trkpt lat="46.1572" lon="4.52924">
        <ele>703.8</ele>
        <time>2020-10-17T13:07:20Z</time>
      </trkpt>
      <trkpt lat="46.15717" lon="4.52926">
        <ele>703.6</ele>
        <time>2020-10-17T13:07:21Z</time>
      </trkpt>
      <trkpt lat="46.15717" lon="4.52926">
        <ele>703.4</ele>
        <time>2020-10-17T13:07:22Z</time>
      </trkpt>
      <trkpt lat="46.15714" lon="4.52927">
        <ele>703.2</ele>
        <time>2020-10-17T13:07:23Z</time>
      </trkpt>
      <trkpt lat="46.15714" lon="4.52927">
        <ele>703.2</ele>
        <time>2020-10-17T13:07:24Z</time>
      </trkpt>
      <trkpt lat="46.15711" lon="4.52928">
        <ele>703.2</ele>
        <time>2020-10-17T13:07:25Z</time>
      </trkpt>
      <trkpt lat="46.15711" lon="4.52928">
        <ele>703.4</ele>
        <time>2020-10-17T13:07:26Z</time>
      </trkpt>
      <trkpt lat="46.15709" lon="4.52928">
        <ele>703</ele>
        <time>2020-10-17T13:07:27Z</time>
      </trkpt>
      <trkpt lat="46.15709" lon="4.52928">
        <ele>702.6</ele>
        <time>2020-10-17T13:07:28Z</time>
      </trkpt>
      <trkpt lat="46.15709" lon="4.52928">
        <ele>702.2</ele>
        <time>2020-10-17T13:07:29Z</time>
      </trkpt>
      <trkpt lat="46.15706" lon="4.52929">
        <ele>701.8</ele>
        <time>2020-10-17T13:07:30Z</time>
      </trkpt>
      <trkpt lat="46.15706" lon="4.52929">
        <ele>701.6</ele>
        <time>2020-10-17T13:07:31Z</time>
      </trkpt>
      <trkpt lat="46.15703" lon="4.52928">
        <ele>701.6</ele>
        <time>2020-10-17T13:07:32Z</time>
      </trkpt>
      <trkpt lat="46.15703" lon="4.52928">
        <ele>701.4</ele>
        <time>2020-10-17T13:07:33Z</time>
      </trkpt>
      <trkpt lat="46.157" lon="4.52926">
        <ele>701.2</ele>
        <time>2020-10-17T13:07:34Z</time>
      </trkpt>
      <trkpt lat="46.15698" lon="4.52924">
        <ele>701</ele>
        <time>2020-10-17T13:07:35Z</time>
      </trkpt>
      <trkpt lat="46.15696" lon="4.52923">
        <ele>701</ele>
        <time>2020-10-17T13:07:36Z</time>
      </trkpt>
      <trkpt lat="46.15696" lon="4.52923">
        <ele>701.2</ele>
        <time>2020-10-17T13:07:37Z</time>
      </trkpt>
      <trkpt lat="46.15693" lon="4.52922">
        <ele>701</ele>
        <time>2020-10-17T13:07:38Z</time>
      </trkpt>
      <trkpt lat="46.15693" lon="4.52922">
        <ele>701</ele>
        <time>2020-10-17T13:07:39Z</time>
      </trkpt>
      <trkpt lat="46.15691" lon="4.52921">
        <ele>701</ele>
        <time>2020-10-17T13:07:40Z</time>
      </trkpt>
      <trkpt lat="46.15691" lon="4.52921">
        <ele>701.2</ele>
        <time>2020-10-17T13:07:41Z</time>
      </trkpt>
      <trkpt lat="46.15688" lon="4.52918">
        <ele>700.6</ele>
        <time>2020-10-17T13:07:42Z</time>
      </trkpt>
      <trkpt lat="46.15686" lon="4.52917">
        <ele>700.8</ele>
        <time>2020-10-17T13:07:43Z</time>
      </trkpt>
      <trkpt lat="46.15684" lon="4.52916">
        <ele>700.8</ele>
        <time>2020-10-17T13:07:44Z</time>
      </trkpt>
      <trkpt lat="46.15682" lon="4.52916">
        <ele>700.6</ele>
        <time>2020-10-17T13:07:45Z</time>
      </trkpt>
      <trkpt lat="46.1568" lon="4.52915">
        <ele>700.4</ele>
        <time>2020-10-17T13:07:46Z</time>
      </trkpt>
      <trkpt lat="46.15678" lon="4.52913">
        <ele>700.8</ele>
        <time>2020-10-17T13:07:47Z</time>
      </trkpt>
      <trkpt lat="46.15676" lon="4.52911">
        <ele>700.6</ele>
        <time>2020-10-17T13:07:48Z</time>
      </trkpt>
      <trkpt lat="46.15673" lon="4.52909">
        <ele>700.4</ele>
        <time>2020-10-17T13:07:49Z</time>
      </trkpt>
      <trkpt lat="46.15672" lon="4.52907">
        <ele>700.8</ele>
        <time>2020-10-17T13:07:50Z</time>
      </trkpt>
      <trkpt lat="46.1567" lon="4.52905">
        <ele>700.6</ele>
        <time>2020-10-17T13:07:51Z</time>
      </trkpt>
      <trkpt lat="46.15668" lon="4.52903">
        <ele>700.6</ele>
        <time>2020-10-17T13:07:52Z</time>
      </trkpt>
      <trkpt lat="46.15666" lon="4.52901">
        <ele>700.8</ele>
        <time>2020-10-17T13:07:53Z</time>
      </trkpt>
      <trkpt lat="46.15664" lon="4.529">
        <ele>700.6</ele>
        <time>2020-10-17T13:07:54Z</time>
      </trkpt>
      <trkpt lat="46.15662" lon="4.52898">
        <ele>700.4</ele>
        <time>2020-10-17T13:07:55Z</time>
      </trkpt>
      <trkpt lat="46.15661" lon="4.52896">
        <ele>700.4</ele>
        <time>2020-10-17T13:07:56Z</time>
      </trkpt>
      <trkpt lat="46.15659" lon="4.52895">
        <ele>700.4</ele>
        <time>2020-10-17T13:07:57Z</time>
      </trkpt>
      <trkpt lat="46.15657" lon="4.52893">
        <ele>700.2</ele>
        <time>2020-10-17T13:07:58Z</time>
      </trkpt>
      <trkpt lat="46.15655" lon="4.52891">
        <ele>700.4</ele>
        <time>2020-10-17T13:07:59Z</time>
      </trkpt>
      <trkpt lat="46.15653" lon="4.5289">
        <ele>700</ele>
        <time>2020-10-17T13:08:00Z</time>
      </trkpt>
      <trkpt lat="46.15651" lon="4.52889">
        <ele>700</ele>
        <time>2020-10-17T13:08:01Z</time>
      </trkpt>
      <trkpt lat="46.15648" lon="4.52888">
        <ele>700.2</ele>
        <time>2020-10-17T13:08:02Z</time>
      </trkpt>
      <trkpt lat="46.15646" lon="4.52886">
        <ele>700</ele>
        <time>2020-10-17T13:08:03Z</time>
      </trkpt>
      <trkpt lat="46.15644" lon="4.52884">
        <ele>699.8</ele>
        <time>2020-10-17T13:08:04Z</time>
      </trkpt>
      <trkpt lat="46.15641" lon="4.52883">
        <ele>700</ele>
        <time>2020-10-17T13:08:05Z</time>
      </trkpt>
      <trkpt lat="46.15639" lon="4.52881">
        <ele>700</ele>
        <time>2020-10-17T13:08:06Z</time>
      </trkpt>
      <trkpt lat="46.15637" lon="4.5288">
        <ele>699.6</ele>
        <time>2020-10-17T13:08:07Z</time>
      </trkpt>
      <trkpt lat="46.15635" lon="4.52878">
        <ele>699.6</ele>
        <time>2020-10-17T13:08:08Z</time>
      </trkpt>
      <trkpt lat="46.15633" lon="4.52876">
        <ele>699.4</ele>
        <time>2020-10-17T13:08:09Z</time>
      </trkpt>
      <trkpt lat="46.1563" lon="4.52875">
        <ele>699.4</ele>
        <time>2020-10-17T13:08:10Z</time>
      </trkpt>
      <trkpt lat="46.15628" lon="4.52873">
        <ele>699.4</ele>
        <time>2020-10-17T13:08:11Z</time>
      </trkpt>
      <trkpt lat="46.15626" lon="4.52872">
        <ele>699</ele>
        <time>2020-10-17T13:08:12Z</time>
      </trkpt>
      <trkpt lat="46.15624" lon="4.5287">
        <ele>698.6</ele>
        <time>2020-10-17T13:08:13Z</time>
      </trkpt>
      <trkpt lat="46.15622" lon="4.52869">
        <ele>699</ele>
        <time>2020-10-17T13:08:14Z</time>
      </trkpt>
      <trkpt lat="46.1562" lon="4.52868">
        <ele>698.6</ele>
        <time>2020-10-17T13:08:15Z</time>
      </trkpt>
      <trkpt lat="46.15618" lon="4.52866">
        <ele>698.2</ele>
        <time>2020-10-17T13:08:16Z</time>
      </trkpt>
      <trkpt lat="46.15616" lon="4.52864">
        <ele>698.2</ele>
        <time>2020-10-17T13:08:17Z</time>
      </trkpt>
      <trkpt lat="46.15614" lon="4.52863">
        <ele>697.6</ele>
        <time>2020-10-17T13:08:18Z</time>
      </trkpt>
      <trkpt lat="46.15612" lon="4.52862">
        <ele>697.6</ele>
        <time>2020-10-17T13:08:19Z</time>
      </trkpt>
      <trkpt lat="46.15612" lon="4.52862">
        <ele>697.6</ele>
        <time>2020-10-17T13:08:20Z</time>
      </trkpt>
      <trkpt lat="46.1561" lon="4.5286">
        <ele>697</ele>
        <time>2020-10-17T13:08:21Z</time>
      </trkpt>
      <trkpt lat="46.1561" lon="4.5286">
        <ele>696.8</ele>
        <time>2020-10-17T13:08:22Z</time>
      </trkpt>
      <trkpt lat="46.15607" lon="4.52859">
        <ele>696.6</ele>
        <time>2020-10-17T13:08:23Z</time>
      </trkpt>
      <trkpt lat="46.15607" lon="4.52859">
        <ele>696.6</ele>
        <time>2020-10-17T13:08:24Z</time>
      </trkpt>
      <trkpt lat="46.15605" lon="4.52858">
        <ele>696.4</ele>
        <time>2020-10-17T13:08:25Z</time>
      </trkpt>
      <trkpt lat="46.15605" lon="4.52858">
        <ele>696</ele>
        <time>2020-10-17T13:08:26Z</time>
      </trkpt>
      <trkpt lat="46.15603" lon="4.52857">
        <ele>695.8</ele>
        <time>2020-10-17T13:08:27Z</time>
      </trkpt>
      <trkpt lat="46.15603" lon="4.52857">
        <ele>696</ele>
        <time>2020-10-17T13:08:28Z</time>
      </trkpt>
      <trkpt lat="46.15603" lon="4.52857">
        <ele>696</ele>
        <time>2020-10-17T13:08:29Z</time>
      </trkpt>
      <trkpt lat="46.15603" lon="4.52857">
        <ele>695.8</ele>
        <time>2020-10-17T13:08:30Z</time>
      </trkpt>
      <trkpt lat="46.15602" lon="4.5286">
        <ele>695.8</ele>
        <time>2020-10-17T13:08:31Z</time>
      </trkpt>
      <trkpt lat="46.15602" lon="4.5286">
        <ele>696</ele>
        <time>2020-10-17T13:08:32Z</time>
      </trkpt>
      <trkpt lat="46.15602" lon="4.5286">
        <ele>695.8</ele>
        <time>2020-10-17T13:08:33Z</time>
      </trkpt>
      <trkpt lat="46.15602" lon="4.5286">
        <ele>695.4</ele>
        <time>2020-10-17T13:08:34Z</time>
      </trkpt>
      <trkpt lat="46.15602" lon="4.5286">
        <ele>695.2</ele>
        <time>2020-10-17T13:08:35Z</time>
      </trkpt>
      <trkpt lat="46.15602" lon="4.5286">
        <ele>695.2</ele>
        <time>2020-10-17T13:08:36Z</time>
      </trkpt>
      <trkpt lat="46.15602" lon="4.5286">
        <ele>695</ele>
        <time>2020-10-17T13:08:37Z</time>
      </trkpt>
      <trkpt lat="46.15602" lon="4.5286">
        <ele>694.8</ele>
        <time>2020-10-17T13:08:38Z</time>
      </trkpt>
      <trkpt lat="46.15602" lon="4.5286">
        <ele>694.8</ele>
        <time>2020-10-17T13:08:39Z</time>
      </trkpt>
      <trkpt lat="46.15602" lon="4.5286">
        <ele>694.8</ele>
        <time>2020-10-17T13:08:40Z</time>
      </trkpt>
      <trkpt lat="46.15602" lon="4.5286">
        <ele>695</ele>
        <time>2020-10-17T13:08:41Z</time>
      </trkpt>
      <trkpt lat="46.15602" lon="4.5286">
        <ele>694.8</ele>
        <time>2020-10-17T13:08:42Z</time>
      </trkpt>
      <trkpt lat="46.15602" lon="4.5286">
        <ele>695</ele>
        <time>2020-10-17T13:08:43Z</time>
      </trkpt>
      <trkpt lat="46.15602" lon="4.5286">
        <ele>694.8</ele>
        <time>2020-10-17T13:08:44Z</time>
      </trkpt>
      <trkpt lat="46.15602" lon="4.5286">
        <ele>695</ele>
        <time>2020-10-17T13:08:45Z</time>
      </trkpt>
      <trkpt lat="46.15602" lon="4.5286">
        <ele>695.2</ele>
        <time>2020-10-17T13:08:46Z</time>
      </trkpt>
      <trkpt lat="46.15602" lon="4.5286">
        <ele>695.2</ele>
        <time>2020-10-17T13:08:47Z</time>
      </trkpt>
      <trkpt lat="46.15602" lon="4.5286">
        <ele>695.2</ele>
        <time>2020-10-17T13:08:48Z</time>
      </trkpt>
      <trkpt lat="46.15602" lon="4.5286">
        <ele>695.2</ele>
        <time>2020-10-17T13:08:49Z</time>
      </trkpt>
      <trkpt lat="46.15602" lon="4.5286">
        <ele>695.2</ele>
        <time>2020-10-17T13:08:50Z</time>
      </trkpt>
      <trkpt lat="46.15602" lon="4.5286">
        <ele>695.4</ele>
        <time>2020-10-17T13:08:51Z</time>
      </trkpt>
      <trkpt lat="46.15602" lon="4.5286">
        <ele>695.4</ele>
        <time>2020-10-17T13:08:52Z</time>
      </trkpt>
      <trkpt lat="46.15602" lon="4.5286">
        <ele>695.2</ele>
        <time>2020-10-17T13:08:53Z</time>
      </trkpt>
      <trkpt lat="46.15602" lon="4.5286">
        <ele>695.4</ele>
        <time>2020-10-17T13:08:54Z</time>
      </trkpt>
      <trkpt lat="46.15602" lon="4.5286">
        <ele>695.4</ele>
        <time>2020-10-17T13:08:55Z</time>
      </trkpt>
      <trkpt lat="46.156" lon="4.5286">
        <ele>695.4</ele>
        <time>2020-10-17T13:08:56Z</time>
      </trkpt>
      <trkpt lat="46.156" lon="4.5286">
        <ele>695.4</ele>
        <time>2020-10-17T13:08:57Z</time>
      </trkpt>
      <trkpt lat="46.15597" lon="4.52858">
        <ele>695</ele>
        <time>2020-10-17T13:08:58Z</time>
      </trkpt>
      <trkpt lat="46.15597" lon="4.52858">
        <ele>695</ele>
        <time>2020-10-17T13:08:59Z</time>
      </trkpt>
      <trkpt lat="46.15595" lon="4.52856">
        <ele>694.8</ele>
        <time>2020-10-17T13:09:00Z</time>
      </trkpt>
      <trkpt lat="46.15595" lon="4.52856">
        <ele>694.8</ele>
        <time>2020-10-17T13:09:01Z</time>
      </trkpt>
      <trkpt lat="46.15593" lon="4.52852">
        <ele>694.8</ele>
        <time>2020-10-17T13:09:02Z</time>
      </trkpt>
      <trkpt lat="46.15593" lon="4.52852">
        <ele>694.8</ele>
        <time>2020-10-17T13:09:03Z</time>
      </trkpt>
      <trkpt lat="46.15591" lon="4.52848">
        <ele>694.8</ele>
        <time>2020-10-17T13:09:04Z</time>
      </trkpt>
      <trkpt lat="46.15591" lon="4.52848">
        <ele>694.6</ele>
        <time>2020-10-17T13:09:05Z</time>
      </trkpt>
      <trkpt lat="46.15589" lon="4.52845">
        <ele>694.6</ele>
        <time>2020-10-17T13:09:06Z</time>
      </trkpt>
      <trkpt lat="46.15589" lon="4.52845">
        <ele>694.6</ele>
        <time>2020-10-17T13:09:07Z</time>
      </trkpt>
      <trkpt lat="46.15586" lon="4.52844">
        <ele>694.6</ele>
        <time>2020-10-17T13:09:08Z</time>
      </trkpt>
      <trkpt lat="46.15586" lon="4.52844">
        <ele>694.4</ele>
        <time>2020-10-17T13:09:09Z</time>
      </trkpt>
      <trkpt lat="46.15584" lon="4.52844">
        <ele>694.4</ele>
        <time>2020-10-17T13:09:10Z</time>
      </trkpt>
      <trkpt lat="46.15584" lon="4.52844">
        <ele>694.2</ele>
        <time>2020-10-17T13:09:11Z</time>
      </trkpt>
      <trkpt lat="46.15581" lon="4.52843">
        <ele>694</ele>
        <time>2020-10-17T13:09:12Z</time>
      </trkpt>
      <trkpt lat="46.15581" lon="4.52843">
        <ele>693.8</ele>
        <time>2020-10-17T13:09:13Z</time>
      </trkpt>
      <trkpt lat="46.15579" lon="4.52842">
        <ele>693.8</ele>
        <time>2020-10-17T13:09:14Z</time>
      </trkpt>
      <trkpt lat="46.15579" lon="4.52842">
        <ele>693.6</ele>
        <time>2020-10-17T13:09:15Z</time>
      </trkpt>
      <trkpt lat="46.15577" lon="4.52839">
        <ele>693.4</ele>
        <time>2020-10-17T13:09:16Z</time>
      </trkpt>
      <trkpt lat="46.15577" lon="4.52839">
        <ele>693.2</ele>
        <time>2020-10-17T13:09:17Z</time>
      </trkpt>
      <trkpt lat="46.15574" lon="4.52837">
        <ele>693</ele>
        <time>2020-10-17T13:09:18Z</time>
      </trkpt>
      <trkpt lat="46.15574" lon="4.52837">
        <ele>692.8</ele>
        <time>2020-10-17T13:09:19Z</time>
      </trkpt>
      <trkpt lat="46.15572" lon="4.52835">
        <ele>692.4</ele>
        <time>2020-10-17T13:09:20Z</time>
      </trkpt>
      <trkpt lat="46.15572" lon="4.52835">
        <ele>692.2</ele>
        <time>2020-10-17T13:09:21Z</time>
      </trkpt>
      <trkpt lat="46.15569" lon="4.52832">
        <ele>692.2</ele>
        <time>2020-10-17T13:09:22Z</time>
      </trkpt>
      <trkpt lat="46.15569" lon="4.52832">
        <ele>692</ele>
        <time>2020-10-17T13:09:23Z</time>
      </trkpt>
      <trkpt lat="46.15567" lon="4.52829">
        <ele>692</ele>
        <time>2020-10-17T13:09:24Z</time>
      </trkpt>
      <trkpt lat="46.15567" lon="4.52829">
        <ele>692</ele>
        <time>2020-10-17T13:09:25Z</time>
      </trkpt>
      <trkpt lat="46.15564" lon="4.52826">
        <ele>692.2</ele>
        <time>2020-10-17T13:09:26Z</time>
      </trkpt>
      <trkpt lat="46.15564" lon="4.52826">
        <ele>692.4</ele>
        <time>2020-10-17T13:09:27Z</time>
      </trkpt>
      <trkpt lat="46.15562" lon="4.52823">
        <ele>692.4</ele>
        <time>2020-10-17T13:09:28Z</time>
      </trkpt>
      <trkpt lat="46.15562" lon="4.52823">
        <ele>692.2</ele>
        <time>2020-10-17T13:09:29Z</time>
      </trkpt>
      <trkpt lat="46.1556" lon="4.5282">
        <ele>691.8</ele>
        <time>2020-10-17T13:09:30Z</time>
      </trkpt>
      <trkpt lat="46.1556" lon="4.5282">
        <ele>691.4</ele>
        <time>2020-10-17T13:09:31Z</time>
      </trkpt>
      <trkpt lat="46.15558" lon="4.52816">
        <ele>691</ele>
        <time>2020-10-17T13:09:32Z</time>
      </trkpt>
      <trkpt lat="46.15558" lon="4.52816">
        <ele>690.8</ele>
        <time>2020-10-17T13:09:33Z</time>
      </trkpt>
      <trkpt lat="46.15556" lon="4.52813">
        <ele>690.6</ele>
        <time>2020-10-17T13:09:34Z</time>
      </trkpt>
      <trkpt lat="46.15556" lon="4.52813">
        <ele>690.4</ele>
        <time>2020-10-17T13:09:35Z</time>
      </trkpt>
      <trkpt lat="46.15554" lon="4.5281">
        <ele>690.4</ele>
        <time>2020-10-17T13:09:36Z</time>
      </trkpt>
      <trkpt lat="46.15554" lon="4.5281">
        <ele>690</ele>
        <time>2020-10-17T13:09:37Z</time>
      </trkpt>
      <trkpt lat="46.15553" lon="4.52806">
        <ele>689.8</ele>
        <time>2020-10-17T13:09:38Z</time>
      </trkpt>
      <trkpt lat="46.15553" lon="4.52806">
        <ele>689.6</ele>
        <time>2020-10-17T13:09:39Z</time>
      </trkpt>
      <trkpt lat="46.15551" lon="4.52803">
        <ele>689.4</ele>
        <time>2020-10-17T13:09:40Z</time>
      </trkpt>
      <trkpt lat="46.15551" lon="4.52803">
        <ele>689.2</ele>
        <time>2020-10-17T13:09:41Z</time>
      </trkpt>
      <trkpt lat="46.1555" lon="4.52799">
        <ele>689</ele>
        <time>2020-10-17T13:09:42Z</time>
      </trkpt>
      <trkpt lat="46.1555" lon="4.52799">
        <ele>688.8</ele>
        <time>2020-10-17T13:09:43Z</time>
      </trkpt>
      <trkpt lat="46.15548" lon="4.52795">
        <ele>688.6</ele>
        <time>2020-10-17T13:09:44Z</time>
      </trkpt>
      <trkpt lat="46.15548" lon="4.52795">
        <ele>688.4</ele>
        <time>2020-10-17T13:09:45Z</time>
      </trkpt>
      <trkpt lat="46.15547" lon="4.5279">
        <ele>688.2</ele>
        <time>2020-10-17T13:09:46Z</time>
      </trkpt>
      <trkpt lat="46.15547" lon="4.5279">
        <ele>688</ele>
        <time>2020-10-17T13:09:47Z</time>
      </trkpt>
      <trkpt lat="46.15545" lon="4.52786">
        <ele>688</ele>
        <time>2020-10-17T13:09:48Z</time>
      </trkpt>
      <trkpt lat="46.15545" lon="4.52786">
        <ele>688</ele>
        <time>2020-10-17T13:09:49Z</time>
      </trkpt>
      <trkpt lat="46.15544" lon="4.52782">
        <ele>687.8</ele>
        <time>2020-10-17T13:09:50Z</time>
      </trkpt>
      <trkpt lat="46.15544" lon="4.52782">
        <ele>687.8</ele>
        <time>2020-10-17T13:09:51Z</time>
      </trkpt>
      <trkpt lat="46.15543" lon="4.52778">
        <ele>687.6</ele>
        <time>2020-10-17T13:09:52Z</time>
      </trkpt>
      <trkpt lat="46.15543" lon="4.52778">
        <ele>687.6</ele>
        <time>2020-10-17T13:09:53Z</time>
      </trkpt>
      <trkpt lat="46.15542" lon="4.52773">
        <ele>687.4</ele>
        <time>2020-10-17T13:09:54Z</time>
      </trkpt>
      <trkpt lat="46.15542" lon="4.52773">
        <ele>687.2</ele>
        <time>2020-10-17T13:09:55Z</time>
      </trkpt>
      <trkpt lat="46.15541" lon="4.52768">
        <ele>687</ele>
        <time>2020-10-17T13:09:56Z</time>
      </trkpt>
      <trkpt lat="46.1554" lon="4.52766">
        <ele>686.6</ele>
        <time>2020-10-17T13:09:57Z</time>
      </trkpt>
      <trkpt lat="46.1554" lon="4.52766">
        <ele>686.4</ele>
        <time>2020-10-17T13:09:58Z</time>
      </trkpt>
      <trkpt lat="46.15539" lon="4.52761">
        <ele>686.2</ele>
        <time>2020-10-17T13:09:59Z</time>
      </trkpt>
      <trkpt lat="46.15539" lon="4.52761">
        <ele>686.2</ele>
        <time>2020-10-17T13:10:00Z</time>
      </trkpt>
      <trkpt lat="46.15538" lon="4.52758">
        <ele>686.2</ele>
        <time>2020-10-17T13:10:01Z</time>
      </trkpt>
      <trkpt lat="46.15538" lon="4.52758">
        <ele>686.2</ele>
        <time>2020-10-17T13:10:02Z</time>
      </trkpt>
      <trkpt lat="46.15537" lon="4.52754">
        <ele>686.2</ele>
        <time>2020-10-17T13:10:03Z</time>
      </trkpt>
      <trkpt lat="46.15537" lon="4.52754">
        <ele>686.2</ele>
        <time>2020-10-17T13:10:04Z</time>
      </trkpt>
      <trkpt lat="46.15537" lon="4.52749">
        <ele>686</ele>
        <time>2020-10-17T13:10:05Z</time>
      </trkpt>
      <trkpt lat="46.15537" lon="4.52749">
        <ele>686</ele>
        <time>2020-10-17T13:10:06Z</time>
      </trkpt>
      <trkpt lat="46.15536" lon="4.52744">
        <ele>685.8</ele>
        <time>2020-10-17T13:10:07Z</time>
      </trkpt>
      <trkpt lat="46.15536" lon="4.52744">
        <ele>685.6</ele>
        <time>2020-10-17T13:10:08Z</time>
      </trkpt>
      <trkpt lat="46.15536" lon="4.5274">
        <ele>685.6</ele>
        <time>2020-10-17T13:10:09Z</time>
      </trkpt>
      <trkpt lat="46.15536" lon="4.5274">
        <ele>685.2</ele>
        <time>2020-10-17T13:10:10Z</time>
      </trkpt>
      <trkpt lat="46.15536" lon="4.52735">
        <ele>685.2</ele>
        <time>2020-10-17T13:10:11Z</time>
      </trkpt>
      <trkpt lat="46.15536" lon="4.52735">
        <ele>685</ele>
        <time>2020-10-17T13:10:12Z</time>
      </trkpt>
      <trkpt lat="46.15535" lon="4.52731">
        <ele>685</ele>
        <time>2020-10-17T13:10:13Z</time>
      </trkpt>
      <trkpt lat="46.15535" lon="4.52731">
        <ele>685</ele>
        <time>2020-10-17T13:10:14Z</time>
      </trkpt>
      <trkpt lat="46.15535" lon="4.52726">
        <ele>684.8</ele>
        <time>2020-10-17T13:10:15Z</time>
      </trkpt>
      <trkpt lat="46.15535" lon="4.52726">
        <ele>684.8</ele>
        <time>2020-10-17T13:10:16Z</time>
      </trkpt>
      <trkpt lat="46.15534" lon="4.52722">
        <ele>684.8</ele>
        <time>2020-10-17T13:10:17Z</time>
      </trkpt>
      <trkpt lat="46.15534" lon="4.52722">
        <ele>684.8</ele>
        <time>2020-10-17T13:10:18Z</time>
      </trkpt>
      <trkpt lat="46.15534" lon="4.52717">
        <ele>684.4</ele>
        <time>2020-10-17T13:10:19Z</time>
      </trkpt>
      <trkpt lat="46.15534" lon="4.52717">
        <ele>684.2</ele>
        <time>2020-10-17T13:10:20Z</time>
      </trkpt>
      <trkpt lat="46.15534" lon="4.52712">
        <ele>684</ele>
        <time>2020-10-17T13:10:21Z</time>
      </trkpt>
      <trkpt lat="46.15534" lon="4.52712">
        <ele>684</ele>
        <time>2020-10-17T13:10:22Z</time>
      </trkpt>
      <trkpt lat="46.15534" lon="4.52707">
        <ele>683.8</ele>
        <time>2020-10-17T13:10:23Z</time>
      </trkpt>
      <trkpt lat="46.15534" lon="4.52707">
        <ele>684</ele>
        <time>2020-10-17T13:10:24Z</time>
      </trkpt>
      <trkpt lat="46.15533" lon="4.52703">
        <ele>684.2</ele>
        <time>2020-10-17T13:10:25Z</time>
      </trkpt>
      <trkpt lat="46.15533" lon="4.52703">
        <ele>684</ele>
        <time>2020-10-17T13:10:26Z</time>
      </trkpt>
      <trkpt lat="46.15533" lon="4.52698">
        <ele>683.8</ele>
        <time>2020-10-17T13:10:27Z</time>
      </trkpt>
      <trkpt lat="46.15533" lon="4.52698">
        <ele>683.6</ele>
        <time>2020-10-17T13:10:28Z</time>
      </trkpt>
      <trkpt lat="46.15532" lon="4.52693">
        <ele>683.6</ele>
        <time>2020-10-17T13:10:29Z</time>
      </trkpt>
      <trkpt lat="46.15532" lon="4.52693">
        <ele>683.4</ele>
        <time>2020-10-17T13:10:30Z</time>
      </trkpt>
      <trkpt lat="46.15532" lon="4.52688">
        <ele>683.2</ele>
        <time>2020-10-17T13:10:31Z</time>
      </trkpt>
      <trkpt lat="46.15532" lon="4.52688">
        <ele>682.8</ele>
        <time>2020-10-17T13:10:32Z</time>
      </trkpt>
      <trkpt lat="46.15531" lon="4.52684">
        <ele>683</ele>
        <time>2020-10-17T13:10:33Z</time>
      </trkpt>
      <trkpt lat="46.15531" lon="4.52682">
        <ele>683</ele>
        <time>2020-10-17T13:10:34Z</time>
      </trkpt>
      <trkpt lat="46.15531" lon="4.52682">
        <ele>682.6</ele>
        <time>2020-10-17T13:10:35Z</time>
      </trkpt>
      <trkpt lat="46.15531" lon="4.52677">
        <ele>682.4</ele>
        <time>2020-10-17T13:10:36Z</time>
      </trkpt>
      <trkpt lat="46.1553" lon="4.52674">
        <ele>682.4</ele>
        <time>2020-10-17T13:10:37Z</time>
      </trkpt>
      <trkpt lat="46.1553" lon="4.52674">
        <ele>682.2</ele>
        <time>2020-10-17T13:10:38Z</time>
      </trkpt>
      <trkpt lat="46.1553" lon="4.52669">
        <ele>682</ele>
        <time>2020-10-17T13:10:39Z</time>
      </trkpt>
      <trkpt lat="46.1553" lon="4.52669">
        <ele>681.8</ele>
        <time>2020-10-17T13:10:40Z</time>
      </trkpt>
      <trkpt lat="46.1553" lon="4.52665">
        <ele>681.4</ele>
        <time>2020-10-17T13:10:41Z</time>
      </trkpt>
      <trkpt lat="46.1553" lon="4.52665">
        <ele>681.4</ele>
        <time>2020-10-17T13:10:42Z</time>
      </trkpt>
      <trkpt lat="46.1553" lon="4.5266">
        <ele>681.4</ele>
        <time>2020-10-17T13:10:43Z</time>
      </trkpt>
      <trkpt lat="46.1553" lon="4.5266">
        <ele>681.2</ele>
        <time>2020-10-17T13:10:44Z</time>
      </trkpt>
      <trkpt lat="46.1553" lon="4.52655">
        <ele>681.2</ele>
        <time>2020-10-17T13:10:45Z</time>
      </trkpt>
      <trkpt lat="46.1553" lon="4.52655">
        <ele>681</ele>
        <time>2020-10-17T13:10:46Z</time>
      </trkpt>
      <trkpt lat="46.1553" lon="4.52651">
        <ele>680.8</ele>
        <time>2020-10-17T13:10:47Z</time>
      </trkpt>
      <trkpt lat="46.1553" lon="4.52651">
        <ele>681</ele>
        <time>2020-10-17T13:10:48Z</time>
      </trkpt>
      <trkpt lat="46.15529" lon="4.52646">
        <ele>680.8</ele>
        <time>2020-10-17T13:10:49Z</time>
      </trkpt>
      <trkpt lat="46.15529" lon="4.52646">
        <ele>680.6</ele>
        <time>2020-10-17T13:10:50Z</time>
      </trkpt>
      <trkpt lat="46.15529" lon="4.52641">
        <ele>680.6</ele>
        <time>2020-10-17T13:10:51Z</time>
      </trkpt>
      <trkpt lat="46.15529" lon="4.52641">
        <ele>680.4</ele>
        <time>2020-10-17T13:10:52Z</time>
      </trkpt>
      <trkpt lat="46.15529" lon="4.52637">
        <ele>680.4</ele>
        <time>2020-10-17T13:10:53Z</time>
      </trkpt>
      <trkpt lat="46.15529" lon="4.52637">
        <ele>680.4</ele>
        <time>2020-10-17T13:10:54Z</time>
      </trkpt>
      <trkpt lat="46.15529" lon="4.52633">
        <ele>680.6</ele>
        <time>2020-10-17T13:10:55Z</time>
      </trkpt>
      <trkpt lat="46.15529" lon="4.52633">
        <ele>680.6</ele>
        <time>2020-10-17T13:10:56Z</time>
      </trkpt>
      <trkpt lat="46.15529" lon="4.52633">
        <ele>680.4</ele>
        <time>2020-10-17T13:10:57Z</time>
      </trkpt>
      <trkpt lat="46.15529" lon="4.52633">
        <ele>680.6</ele>
        <time>2020-10-17T13:10:58Z</time>
      </trkpt>
      <trkpt lat="46.15529" lon="4.52633">
        <ele>680.2</ele>
        <time>2020-10-17T13:10:59Z</time>
      </trkpt>
      <trkpt lat="46.15528" lon="4.5263">
        <ele>680.2</ele>
        <time>2020-10-17T13:11:00Z</time>
      </trkpt>
      <trkpt lat="46.15528" lon="4.5263">
        <ele>680</ele>
        <time>2020-10-17T13:11:01Z</time>
      </trkpt>
      <trkpt lat="46.15527" lon="4.52625">
        <ele>679.8</ele>
        <time>2020-10-17T13:11:02Z</time>
      </trkpt>
      <trkpt lat="46.15527" lon="4.52622">
        <ele>679.4</ele>
        <time>2020-10-17T13:11:03Z</time>
      </trkpt>
      <trkpt lat="46.15527" lon="4.52619">
        <ele>679.4</ele>
        <time>2020-10-17T13:11:04Z</time>
      </trkpt>
      <trkpt lat="46.15527" lon="4.52616">
        <ele>679.2</ele>
        <time>2020-10-17T13:11:05Z</time>
      </trkpt>
      <trkpt lat="46.15527" lon="4.52613">
        <ele>679</ele>
        <time>2020-10-17T13:11:06Z</time>
      </trkpt>
      <trkpt lat="46.15527" lon="4.5261">
        <ele>678.8</ele>
        <time>2020-10-17T13:11:07Z</time>
      </trkpt>
      <trkpt lat="46.15526" lon="4.52608">
        <ele>679</ele>
        <time>2020-10-17T13:11:08Z</time>
      </trkpt>
      <trkpt lat="46.15526" lon="4.52605">
        <ele>678.8</ele>
        <time>2020-10-17T13:11:09Z</time>
      </trkpt>
      <trkpt lat="46.15526" lon="4.52602">
        <ele>678.8</ele>
        <time>2020-10-17T13:11:10Z</time>
      </trkpt>
      <trkpt lat="46.15526" lon="4.526">
        <ele>679</ele>
        <time>2020-10-17T13:11:11Z</time>
      </trkpt>
      <trkpt lat="46.15526" lon="4.52597">
        <ele>678.8</ele>
        <time>2020-10-17T13:11:12Z</time>
      </trkpt>
      <trkpt lat="46.15526" lon="4.52597">
        <ele>678.8</ele>
        <time>2020-10-17T13:11:13Z</time>
      </trkpt>
      <trkpt lat="46.15525" lon="4.52592">
        <ele>678.4</ele>
        <time>2020-10-17T13:11:14Z</time>
      </trkpt>
      <trkpt lat="46.15525" lon="4.52592">
        <ele>678.4</ele>
        <time>2020-10-17T13:11:15Z</time>
      </trkpt>
      <trkpt lat="46.15525" lon="4.52587">
        <ele>678.4</ele>
        <time>2020-10-17T13:11:16Z</time>
      </trkpt>
      <trkpt lat="46.15525" lon="4.52587">
        <ele>678</ele>
        <time>2020-10-17T13:11:17Z</time>
      </trkpt>
      <trkpt lat="46.15524" lon="4.52582">
        <ele>677.8</ele>
        <time>2020-10-17T13:11:18Z</time>
      </trkpt>
      <trkpt lat="46.15524" lon="4.52582">
        <ele>677.6</ele>
        <time>2020-10-17T13:11:19Z</time>
      </trkpt>
      <trkpt lat="46.15524" lon="4.52577">
        <ele>677.4</ele>
        <time>2020-10-17T13:11:20Z</time>
      </trkpt>
      <trkpt lat="46.15524" lon="4.52574">
        <ele>677.4</ele>
        <time>2020-10-17T13:11:21Z</time>
      </trkpt>
      <trkpt lat="46.15524" lon="4.52572">
        <ele>677.2</ele>
        <time>2020-10-17T13:11:22Z</time>
      </trkpt>
      <trkpt lat="46.15524" lon="4.52572">
        <ele>677</ele>
        <time>2020-10-17T13:11:23Z</time>
      </trkpt>
      <trkpt lat="46.15524" lon="4.52567">
        <ele>677.4</ele>
        <time>2020-10-17T13:11:24Z</time>
      </trkpt>
      <trkpt lat="46.15524" lon="4.52567">
        <ele>677.4</ele>
        <time>2020-10-17T13:11:25Z</time>
      </trkpt>
      <trkpt lat="46.15523" lon="4.52562">
        <ele>676.8</ele>
        <time>2020-10-17T13:11:26Z</time>
      </trkpt>
      <trkpt lat="46.15523" lon="4.52562">
        <ele>676.6</ele>
        <time>2020-10-17T13:11:27Z</time>
      </trkpt>
      <trkpt lat="46.15523" lon="4.52557">
        <ele>676.2</ele>
        <time>2020-10-17T13:11:28Z</time>
      </trkpt>
      <trkpt lat="46.15523" lon="4.52557">
        <ele>676.2</ele>
        <time>2020-10-17T13:11:29Z</time>
      </trkpt>
      <trkpt lat="46.15523" lon="4.52553">
        <ele>676</ele>
        <time>2020-10-17T13:11:30Z</time>
      </trkpt>
      <trkpt lat="46.15523" lon="4.52553">
        <ele>675.8</ele>
        <time>2020-10-17T13:11:31Z</time>
      </trkpt>
      <trkpt lat="46.15523" lon="4.52549">
        <ele>675.6</ele>
        <time>2020-10-17T13:11:32Z</time>
      </trkpt>
      <trkpt lat="46.15523" lon="4.52549">
        <ele>675.6</ele>
        <time>2020-10-17T13:11:33Z</time>
      </trkpt>
      <trkpt lat="46.15523" lon="4.52546">
        <ele>675.6</ele>
        <time>2020-10-17T13:11:34Z</time>
      </trkpt>
      <trkpt lat="46.15523" lon="4.52546">
        <ele>675.2</ele>
        <time>2020-10-17T13:11:35Z</time>
      </trkpt>
      <trkpt lat="46.15522" lon="4.52541">
        <ele>675.4</ele>
        <time>2020-10-17T13:11:36Z</time>
      </trkpt>
      <trkpt lat="46.15522" lon="4.52541">
        <ele>675</ele>
        <time>2020-10-17T13:11:37Z</time>
      </trkpt>
      <trkpt lat="46.15522" lon="4.52537">
        <ele>674.8</ele>
        <time>2020-10-17T13:11:38Z</time>
      </trkpt>
      <trkpt lat="46.15522" lon="4.52537">
        <ele>674.6</ele>
        <time>2020-10-17T13:11:39Z</time>
      </trkpt>
      <trkpt lat="46.15522" lon="4.52533">
        <ele>674.2</ele>
        <time>2020-10-17T13:11:40Z</time>
      </trkpt>
      <trkpt lat="46.15522" lon="4.52533">
        <ele>673.8</ele>
        <time>2020-10-17T13:11:41Z</time>
      </trkpt>
      <trkpt lat="46.15522" lon="4.52529">
        <ele>674</ele>
        <time>2020-10-17T13:11:42Z</time>
      </trkpt>
      <trkpt lat="46.15522" lon="4.52529">
        <ele>674</ele>
        <time>2020-10-17T13:11:43Z</time>
      </trkpt>
      <trkpt lat="46.15522" lon="4.52524">
        <ele>674.2</ele>
        <time>2020-10-17T13:11:44Z</time>
      </trkpt>
      <trkpt lat="46.15522" lon="4.52524">
        <ele>674.2</ele>
        <time>2020-10-17T13:11:45Z</time>
      </trkpt>
      <trkpt lat="46.15522" lon="4.5252">
        <ele>674.2</ele>
        <time>2020-10-17T13:11:46Z</time>
      </trkpt>
      <trkpt lat="46.15522" lon="4.5252">
        <ele>674</ele>
        <time>2020-10-17T13:11:47Z</time>
      </trkpt>
      <trkpt lat="46.15522" lon="4.52516">
        <ele>673.8</ele>
        <time>2020-10-17T13:11:48Z</time>
      </trkpt>
      <trkpt lat="46.15522" lon="4.52516">
        <ele>673.6</ele>
        <time>2020-10-17T13:11:49Z</time>
      </trkpt>
      <trkpt lat="46.15522" lon="4.52512">
        <ele>673.4</ele>
        <time>2020-10-17T13:11:50Z</time>
      </trkpt>
      <trkpt lat="46.15522" lon="4.52512">
        <ele>673.4</ele>
        <time>2020-10-17T13:11:51Z</time>
      </trkpt>
      <trkpt lat="46.15521" lon="4.52509">
        <ele>673.2</ele>
        <time>2020-10-17T13:11:52Z</time>
      </trkpt>
      <trkpt lat="46.15521" lon="4.52509">
        <ele>673</ele>
        <time>2020-10-17T13:11:53Z</time>
      </trkpt>
      <trkpt lat="46.15521" lon="4.52505">
        <ele>672.8</ele>
        <time>2020-10-17T13:11:54Z</time>
      </trkpt>
      <trkpt lat="46.15521" lon="4.52505">
        <ele>672.6</ele>
        <time>2020-10-17T13:11:55Z</time>
      </trkpt>
      <trkpt lat="46.15522" lon="4.52501">
        <ele>672.4</ele>
        <time>2020-10-17T13:11:56Z</time>
      </trkpt>
      <trkpt lat="46.15522" lon="4.52501">
        <ele>672</ele>
        <time>2020-10-17T13:11:57Z</time>
      </trkpt>
      <trkpt lat="46.15522" lon="4.52497">
        <ele>672</ele>
        <time>2020-10-17T13:11:58Z</time>
      </trkpt>
      <trkpt lat="46.15522" lon="4.52497">
        <ele>671.8</ele>
        <time>2020-10-17T13:11:59Z</time>
      </trkpt>
      <trkpt lat="46.15522" lon="4.52493">
        <ele>671.8</ele>
        <time>2020-10-17T13:12:00Z</time>
      </trkpt>
      <trkpt lat="46.15522" lon="4.5249">
        <ele>672</ele>
        <time>2020-10-17T13:12:01Z</time>
      </trkpt>
      <trkpt lat="46.15523" lon="4.52487">
        <ele>672</ele>
        <time>2020-10-17T13:12:02Z</time>
      </trkpt>
      <trkpt lat="46.15523" lon="4.52487">
        <ele>672</ele>
        <time>2020-10-17T13:12:03Z</time>
      </trkpt>
      <trkpt lat="46.15523" lon="4.52482">
        <ele>671.8</ele>
        <time>2020-10-17T13:12:04Z</time>
      </trkpt>
      <trkpt lat="46.15523" lon="4.52479">
        <ele>671.6</ele>
        <time>2020-10-17T13:12:05Z</time>
      </trkpt>
      <trkpt lat="46.15523" lon="4.52479">
        <ele>671.4</ele>
        <time>2020-10-17T13:12:06Z</time>
      </trkpt>
      <trkpt lat="46.15523" lon="4.52474">
        <ele>671.2</ele>
        <time>2020-10-17T13:12:07Z</time>
      </trkpt>
      <trkpt lat="46.15523" lon="4.52474">
        <ele>670.6</ele>
        <time>2020-10-17T13:12:08Z</time>
      </trkpt>
      <trkpt lat="46.15522" lon="4.5247">
        <ele>670.8</ele>
        <time>2020-10-17T13:12:09Z</time>
      </trkpt>
      <trkpt lat="46.15522" lon="4.5247">
        <ele>670.4</ele>
        <time>2020-10-17T13:12:10Z</time>
      </trkpt>
      <trkpt lat="46.15522" lon="4.52466">
        <ele>670.4</ele>
        <time>2020-10-17T13:12:11Z</time>
      </trkpt>
      <trkpt lat="46.15522" lon="4.52466">
        <ele>670.4</ele>
        <time>2020-10-17T13:12:12Z</time>
      </trkpt>
      <trkpt lat="46.15521" lon="4.52461">
        <ele>670.4</ele>
        <time>2020-10-17T13:12:13Z</time>
      </trkpt>
      <trkpt lat="46.15521" lon="4.52461">
        <ele>670.2</ele>
        <time>2020-10-17T13:12:14Z</time>
      </trkpt>
      <trkpt lat="46.15519" lon="4.52458">
        <ele>670.2</ele>
        <time>2020-10-17T13:12:15Z</time>
      </trkpt>
      <trkpt lat="46.15519" lon="4.52458">
        <ele>670</ele>
        <time>2020-10-17T13:12:16Z</time>
      </trkpt>
      <trkpt lat="46.15516" lon="4.52457">
        <ele>669.8</ele>
        <time>2020-10-17T13:12:17Z</time>
      </trkpt>
      <trkpt lat="46.15514" lon="4.52458">
        <ele>670</ele>
        <time>2020-10-17T13:12:18Z</time>
      </trkpt>
      <trkpt lat="46.15512" lon="4.52459">
        <ele>669.8</ele>
        <time>2020-10-17T13:12:19Z</time>
      </trkpt>
      <trkpt lat="46.15511" lon="4.52461">
        <ele>669.6</ele>
        <time>2020-10-17T13:12:20Z</time>
      </trkpt>
      <trkpt lat="46.1551" lon="4.52463">
        <ele>669.4</ele>
        <time>2020-10-17T13:12:21Z</time>
      </trkpt>
      <trkpt lat="46.15508" lon="4.52467">
        <ele>668.8</ele>
        <time>2020-10-17T13:12:22Z</time>
      </trkpt>
      <trkpt lat="46.15507" lon="4.52471">
        <ele>668.6</ele>
        <time>2020-10-17T13:12:23Z</time>
      </trkpt>
      <trkpt lat="46.15506" lon="4.52474">
        <ele>668.4</ele>
        <time>2020-10-17T13:12:24Z</time>
      </trkpt>
      <trkpt lat="46.15505" lon="4.52477">
        <ele>667.8</ele>
        <time>2020-10-17T13:12:25Z</time>
      </trkpt>
      <trkpt lat="46.15504" lon="4.5248">
        <ele>667.8</ele>
        <time>2020-10-17T13:12:26Z</time>
      </trkpt>
      <trkpt lat="46.15503" lon="4.52483">
        <ele>667.6</ele>
        <time>2020-10-17T13:12:27Z</time>
      </trkpt>
      <trkpt lat="46.15503" lon="4.52487">
        <ele>667.4</ele>
        <time>2020-10-17T13:12:28Z</time>
      </trkpt>
      <trkpt lat="46.15502" lon="4.5249">
        <ele>667.4</ele>
        <time>2020-10-17T13:12:29Z</time>
      </trkpt>
      <trkpt lat="46.15502" lon="4.52493">
        <ele>666.8</ele>
        <time>2020-10-17T13:12:30Z</time>
      </trkpt>
      <trkpt lat="46.15501" lon="4.52496">
        <ele>666.8</ele>
        <time>2020-10-17T13:12:31Z</time>
      </trkpt>
      <trkpt lat="46.15501" lon="4.52499">
        <ele>666.8</ele>
        <time>2020-10-17T13:12:32Z</time>
      </trkpt>
      <trkpt lat="46.155" lon="4.52502">
        <ele>666.4</ele>
        <time>2020-10-17T13:12:33Z</time>
      </trkpt>
      <trkpt lat="46.155" lon="4.52505">
        <ele>666.2</ele>
        <time>2020-10-17T13:12:34Z</time>
      </trkpt>
      <trkpt lat="46.15499" lon="4.52509">
        <ele>666</ele>
        <time>2020-10-17T13:12:35Z</time>
      </trkpt>
      <trkpt lat="46.15498" lon="4.52512">
        <ele>666</ele>
        <time>2020-10-17T13:12:36Z</time>
      </trkpt>
      <trkpt lat="46.15497" lon="4.52515">
        <ele>665.4</ele>
        <time>2020-10-17T13:12:37Z</time>
      </trkpt>
      <trkpt lat="46.15496" lon="4.52518">
        <ele>665.6</ele>
        <time>2020-10-17T13:12:38Z</time>
      </trkpt>
      <trkpt lat="46.15495" lon="4.52521">
        <ele>665.2</ele>
        <time>2020-10-17T13:12:39Z</time>
      </trkpt>
      <trkpt lat="46.15494" lon="4.52524">
        <ele>664.8</ele>
        <time>2020-10-17T13:12:40Z</time>
      </trkpt>
      <trkpt lat="46.15493" lon="4.52527">
        <ele>664.8</ele>
        <time>2020-10-17T13:12:41Z</time>
      </trkpt>
      <trkpt lat="46.15492" lon="4.52531">
        <ele>664.6</ele>
        <time>2020-10-17T13:12:42Z</time>
      </trkpt>
      <trkpt lat="46.15491" lon="4.52533">
        <ele>664.2</ele>
        <time>2020-10-17T13:12:43Z</time>
      </trkpt>
      <trkpt lat="46.1549" lon="4.52536">
        <ele>664.4</ele>
        <time>2020-10-17T13:12:44Z</time>
      </trkpt>
      <trkpt lat="46.15488" lon="4.52539">
        <ele>664</ele>
        <time>2020-10-17T13:12:45Z</time>
      </trkpt>
      <trkpt lat="46.15486" lon="4.52542">
        <ele>663.6</ele>
        <time>2020-10-17T13:12:46Z</time>
      </trkpt>
      <trkpt lat="46.15485" lon="4.52545">
        <ele>663.6</ele>
        <time>2020-10-17T13:12:47Z</time>
      </trkpt>
      <trkpt lat="46.15483" lon="4.52548">
        <ele>663.4</ele>
        <time>2020-10-17T13:12:48Z</time>
      </trkpt>
      <trkpt lat="46.15481" lon="4.52551">
        <ele>662.8</ele>
        <time>2020-10-17T13:12:49Z</time>
      </trkpt>
      <trkpt lat="46.15479" lon="4.52553">
        <ele>663</ele>
        <time>2020-10-17T13:12:50Z</time>
      </trkpt>
      <trkpt lat="46.15477" lon="4.52556">
        <ele>662.4</ele>
        <time>2020-10-17T13:12:51Z</time>
      </trkpt>
      <trkpt lat="46.15475" lon="4.52558">
        <ele>662</ele>
        <time>2020-10-17T13:12:52Z</time>
      </trkpt>
      <trkpt lat="46.15473" lon="4.5256">
        <ele>662.2</ele>
        <time>2020-10-17T13:12:53Z</time>
      </trkpt>
      <trkpt lat="46.15471" lon="4.52563">
        <ele>662</ele>
        <time>2020-10-17T13:12:54Z</time>
      </trkpt>
      <trkpt lat="46.15469" lon="4.52566">
        <ele>661.4</ele>
        <time>2020-10-17T13:12:55Z</time>
      </trkpt>
      <trkpt lat="46.15467" lon="4.52568">
        <ele>661.6</ele>
        <time>2020-10-17T13:12:56Z</time>
      </trkpt>
      <trkpt lat="46.15466" lon="4.52571">
        <ele>661.4</ele>
        <time>2020-10-17T13:12:57Z</time>
      </trkpt>
      <trkpt lat="46.15464" lon="4.52573">
        <ele>661</ele>
        <time>2020-10-17T13:12:58Z</time>
      </trkpt>
      <trkpt lat="46.15462" lon="4.52576">
        <ele>661.2</ele>
        <time>2020-10-17T13:12:59Z</time>
      </trkpt>
      <trkpt lat="46.1546" lon="4.52579">
        <ele>660.6</ele>
        <time>2020-10-17T13:13:00Z</time>
      </trkpt>
      <trkpt lat="46.15458" lon="4.52581">
        <ele>660</ele>
        <time>2020-10-17T13:13:01Z</time>
      </trkpt>
      <trkpt lat="46.15456" lon="4.52584">
        <ele>660</ele>
        <time>2020-10-17T13:13:02Z</time>
      </trkpt>
      <trkpt lat="46.15454" lon="4.52586">
        <ele>659.8</ele>
        <time>2020-10-17T13:13:03Z</time>
      </trkpt>
      <trkpt lat="46.15453" lon="4.52588">
        <ele>659.2</ele>
        <time>2020-10-17T13:13:04Z</time>
      </trkpt>
      <trkpt lat="46.15451" lon="4.52591">
        <ele>659.4</ele>
        <time>2020-10-17T13:13:05Z</time>
      </trkpt>
      <trkpt lat="46.15449" lon="4.52593">
        <ele>659.2</ele>
        <time>2020-10-17T13:13:06Z</time>
      </trkpt>
      <trkpt lat="46.15448" lon="4.52595">
        <ele>658.8</ele>
        <time>2020-10-17T13:13:07Z</time>
      </trkpt>
      <trkpt lat="46.15446" lon="4.52598">
        <ele>659</ele>
        <time>2020-10-17T13:13:08Z</time>
      </trkpt>
      <trkpt lat="46.15444" lon="4.526">
        <ele>658.6</ele>
        <time>2020-10-17T13:13:09Z</time>
      </trkpt>
      <trkpt lat="46.15443" lon="4.52602">
        <ele>658</ele>
        <time>2020-10-17T13:13:10Z</time>
      </trkpt>
      <trkpt lat="46.15441" lon="4.52603">
        <ele>658</ele>
        <time>2020-10-17T13:13:11Z</time>
      </trkpt>
      <trkpt lat="46.15439" lon="4.52605">
        <ele>657.6</ele>
        <time>2020-10-17T13:13:12Z</time>
      </trkpt>
      <trkpt lat="46.15438" lon="4.52608">
        <ele>657.2</ele>
        <time>2020-10-17T13:13:13Z</time>
      </trkpt>
      <trkpt lat="46.15438" lon="4.52608">
        <ele>657.4</ele>
        <time>2020-10-17T13:13:14Z</time>
      </trkpt>
      <trkpt lat="46.15436" lon="4.52612">
        <ele>656.6</ele>
        <time>2020-10-17T13:13:15Z</time>
      </trkpt>
      <trkpt lat="46.15436" lon="4.52612">
        <ele>656.2</ele>
        <time>2020-10-17T13:13:16Z</time>
      </trkpt>
      <trkpt lat="46.15435" lon="4.52616">
        <ele>656.4</ele>
        <time>2020-10-17T13:13:17Z</time>
      </trkpt>
      <trkpt lat="46.15433" lon="4.52618">
        <ele>656.4</ele>
        <time>2020-10-17T13:13:18Z</time>
      </trkpt>
      <trkpt lat="46.15432" lon="4.5262">
        <ele>656.2</ele>
        <time>2020-10-17T13:13:19Z</time>
      </trkpt>
      <trkpt lat="46.15432" lon="4.5262">
        <ele>656.2</ele>
        <time>2020-10-17T13:13:20Z</time>
      </trkpt>
      <trkpt lat="46.1543" lon="4.52623">
        <ele>656.2</ele>
        <time>2020-10-17T13:13:21Z</time>
      </trkpt>
      <trkpt lat="46.1543" lon="4.52623">
        <ele>656.2</ele>
        <time>2020-10-17T13:13:22Z</time>
      </trkpt>
      <trkpt lat="46.15429" lon="4.52626">
        <ele>656.2</ele>
        <time>2020-10-17T13:13:23Z</time>
      </trkpt>
      <trkpt lat="46.15429" lon="4.52626">
        <ele>656.2</ele>
        <time>2020-10-17T13:13:24Z</time>
      </trkpt>
      <trkpt lat="46.15428" lon="4.52629">
        <ele>656</ele>
        <time>2020-10-17T13:13:25Z</time>
      </trkpt>
      <trkpt lat="46.15428" lon="4.52629">
        <ele>655.8</ele>
        <time>2020-10-17T13:13:26Z</time>
      </trkpt>
      <trkpt lat="46.15427" lon="4.52633">
        <ele>656</ele>
        <time>2020-10-17T13:13:27Z</time>
      </trkpt>
      <trkpt lat="46.15427" lon="4.52633">
        <ele>656</ele>
        <time>2020-10-17T13:13:28Z</time>
      </trkpt>
      <trkpt lat="46.15425" lon="4.52637">
        <ele>656</ele>
        <time>2020-10-17T13:13:29Z</time>
      </trkpt>
      <trkpt lat="46.15425" lon="4.52637">
        <ele>656</ele>
        <time>2020-10-17T13:13:30Z</time>
      </trkpt>
      <trkpt lat="46.15423" lon="4.5264">
        <ele>656</ele>
        <time>2020-10-17T13:13:31Z</time>
      </trkpt>
      <trkpt lat="46.15423" lon="4.5264">
        <ele>655.6</ele>
        <time>2020-10-17T13:13:32Z</time>
      </trkpt>
      <trkpt lat="46.15421" lon="4.52644">
        <ele>655.8</ele>
        <time>2020-10-17T13:13:33Z</time>
      </trkpt>
      <trkpt lat="46.15421" lon="4.52644">
        <ele>655.6</ele>
        <time>2020-10-17T13:13:34Z</time>
      </trkpt>
      <trkpt lat="46.1542" lon="4.52647">
        <ele>655.6</ele>
        <time>2020-10-17T13:13:35Z</time>
      </trkpt>
      <trkpt lat="46.1542" lon="4.52647">
        <ele>655.6</ele>
        <time>2020-10-17T13:13:36Z</time>
      </trkpt>
      <trkpt lat="46.15419" lon="4.5265">
        <ele>655.4</ele>
        <time>2020-10-17T13:13:37Z</time>
      </trkpt>
      <trkpt lat="46.15419" lon="4.5265">
        <ele>655.4</ele>
        <time>2020-10-17T13:13:38Z</time>
      </trkpt>
      <trkpt lat="46.15418" lon="4.52654">
        <ele>655.6</ele>
        <time>2020-10-17T13:13:39Z</time>
      </trkpt>
      <trkpt lat="46.15418" lon="4.52654">
        <ele>655.6</ele>
        <time>2020-10-17T13:13:40Z</time>
      </trkpt>
      <trkpt lat="46.15416" lon="4.52656">
        <ele>655.6</ele>
        <time>2020-10-17T13:13:41Z</time>
      </trkpt>
      <trkpt lat="46.15416" lon="4.52656">
        <ele>655.8</ele>
        <time>2020-10-17T13:13:42Z</time>
      </trkpt>
      <trkpt lat="46.15415" lon="4.52659">
        <ele>655.8</ele>
        <time>2020-10-17T13:13:43Z</time>
      </trkpt>
      <trkpt lat="46.15414" lon="4.52662">
        <ele>656</ele>
        <time>2020-10-17T13:13:44Z</time>
      </trkpt>
      <trkpt lat="46.15413" lon="4.52664">
        <ele>656.2</ele>
        <time>2020-10-17T13:13:45Z</time>
      </trkpt>
      <trkpt lat="46.15413" lon="4.52664">
        <ele>656.2</ele>
        <time>2020-10-17T13:13:46Z</time>
      </trkpt>
      <trkpt lat="46.15412" lon="4.52669">
        <ele>656</ele>
        <time>2020-10-17T13:13:47Z</time>
      </trkpt>
      <trkpt lat="46.15412" lon="4.52669">
        <ele>656</ele>
        <time>2020-10-17T13:13:48Z</time>
      </trkpt>
      <trkpt lat="46.15411" lon="4.52673">
        <ele>656</ele>
        <time>2020-10-17T13:13:49Z</time>
      </trkpt>
      <trkpt lat="46.1541" lon="4.52676">
        <ele>656</ele>
        <time>2020-10-17T13:13:50Z</time>
      </trkpt>
      <trkpt lat="46.1541" lon="4.52678">
        <ele>656</ele>
        <time>2020-10-17T13:13:51Z</time>
      </trkpt>
      <trkpt lat="46.1541" lon="4.52678">
        <ele>656.2</ele>
        <time>2020-10-17T13:13:52Z</time>
      </trkpt>
      <trkpt lat="46.15409" lon="4.52682">
        <ele>656.2</ele>
        <time>2020-10-17T13:13:53Z</time>
      </trkpt>
      <trkpt lat="46.15409" lon="4.52682">
        <ele>656.2</ele>
        <time>2020-10-17T13:13:54Z</time>
      </trkpt>
      <trkpt lat="46.15408" lon="4.52686">
        <ele>656.2</ele>
        <time>2020-10-17T13:13:55Z</time>
      </trkpt>
      <trkpt lat="46.15408" lon="4.52686">
        <ele>656.2</ele>
        <time>2020-10-17T13:13:56Z</time>
      </trkpt>
      <trkpt lat="46.15407" lon="4.5269">
        <ele>656.2</ele>
        <time>2020-10-17T13:13:57Z</time>
      </trkpt>
      <trkpt lat="46.15406" lon="4.52692">
        <ele>656</ele>
        <time>2020-10-17T13:13:58Z</time>
      </trkpt>
      <trkpt lat="46.15406" lon="4.52692">
        <ele>656</ele>
        <time>2020-10-17T13:13:59Z</time>
      </trkpt>
      <trkpt lat="46.15404" lon="4.52696">
        <ele>656.2</ele>
        <time>2020-10-17T13:14:00Z</time>
      </trkpt>
      <trkpt lat="46.15404" lon="4.52696">
        <ele>656.4</ele>
        <time>2020-10-17T13:14:01Z</time>
      </trkpt>
      <trkpt lat="46.15403" lon="4.52701">
        <ele>656</ele>
        <time>2020-10-17T13:14:02Z</time>
      </trkpt>
      <trkpt lat="46.15402" lon="4.52703">
        <ele>655.8</ele>
        <time>2020-10-17T13:14:03Z</time>
      </trkpt>
      <trkpt lat="46.15401" lon="4.52706">
        <ele>656</ele>
        <time>2020-10-17T13:14:04Z</time>
      </trkpt>
      <trkpt lat="46.154" lon="4.52708">
        <ele>655.8</ele>
        <time>2020-10-17T13:14:05Z</time>
      </trkpt>
      <trkpt lat="46.154" lon="4.52708">
        <ele>655.8</ele>
        <time>2020-10-17T13:14:06Z</time>
      </trkpt>
      <trkpt lat="46.15398" lon="4.52712">
        <ele>655.6</ele>
        <time>2020-10-17T13:14:07Z</time>
      </trkpt>
      <trkpt lat="46.15398" lon="4.52712">
        <ele>655.4</ele>
        <time>2020-10-17T13:14:08Z</time>
      </trkpt>
      <trkpt lat="46.15397" lon="4.52716">
        <ele>655.4</ele>
        <time>2020-10-17T13:14:09Z</time>
      </trkpt>
      <trkpt lat="46.15397" lon="4.52716">
        <ele>655.4</ele>
        <time>2020-10-17T13:14:10Z</time>
      </trkpt>
      <trkpt lat="46.15395" lon="4.52719">
        <ele>655.4</ele>
        <time>2020-10-17T13:14:11Z</time>
      </trkpt>
      <trkpt lat="46.15395" lon="4.52719">
        <ele>655.6</ele>
        <time>2020-10-17T13:14:12Z</time>
      </trkpt>
      <trkpt lat="46.15393" lon="4.52722">
        <ele>655.4</ele>
        <time>2020-10-17T13:14:13Z</time>
      </trkpt>
      <trkpt lat="46.15393" lon="4.52722">
        <ele>655.4</ele>
        <time>2020-10-17T13:14:14Z</time>
      </trkpt>
      <trkpt lat="46.15392" lon="4.52726">
        <ele>655.4</ele>
        <time>2020-10-17T13:14:15Z</time>
      </trkpt>
      <trkpt lat="46.15392" lon="4.52726">
        <ele>655.4</ele>
        <time>2020-10-17T13:14:16Z</time>
      </trkpt>
      <trkpt lat="46.15389" lon="4.52729">
        <ele>655.2</ele>
        <time>2020-10-17T13:14:17Z</time>
      </trkpt>
      <trkpt lat="46.15388" lon="4.52731">
        <ele>655.2</ele>
        <time>2020-10-17T13:14:18Z</time>
      </trkpt>
      <trkpt lat="46.15388" lon="4.52731">
        <ele>655</ele>
        <time>2020-10-17T13:14:19Z</time>
      </trkpt>
      <trkpt lat="46.15387" lon="4.52735">
        <ele>655</ele>
        <time>2020-10-17T13:14:20Z</time>
      </trkpt>
      <trkpt lat="46.15387" lon="4.52735">
        <ele>655</ele>
        <time>2020-10-17T13:14:21Z</time>
      </trkpt>
      <trkpt lat="46.15386" lon="4.52739">
        <ele>654.8</ele>
        <time>2020-10-17T13:14:22Z</time>
      </trkpt>
      <trkpt lat="46.15386" lon="4.52739">
        <ele>654.8</ele>
        <time>2020-10-17T13:14:23Z</time>
      </trkpt>
      <trkpt lat="46.15385" lon="4.52743">
        <ele>654.6</ele>
        <time>2020-10-17T13:14:24Z</time>
      </trkpt>
      <trkpt lat="46.15385" lon="4.52743">
        <ele>654.2</ele>
        <time>2020-10-17T13:14:25Z</time>
      </trkpt>
      <trkpt lat="46.15383" lon="4.52747">
        <ele>654</ele>
        <time>2020-10-17T13:14:26Z</time>
      </trkpt>
      <trkpt lat="46.15383" lon="4.52747">
        <ele>654</ele>
        <time>2020-10-17T13:14:27Z</time>
      </trkpt>
      <trkpt lat="46.15382" lon="4.5275">
        <ele>653.8</ele>
        <time>2020-10-17T13:14:28Z</time>
      </trkpt>
      <trkpt lat="46.15382" lon="4.5275">
        <ele>653.8</ele>
        <time>2020-10-17T13:14:29Z</time>
      </trkpt>
      <trkpt lat="46.15381" lon="4.52752">
        <ele>653.6</ele>
        <time>2020-10-17T13:14:30Z</time>
      </trkpt>
      <trkpt lat="46.15381" lon="4.52752">
        <ele>653.8</ele>
        <time>2020-10-17T13:14:31Z</time>
      </trkpt>
      <trkpt lat="46.15379" lon="4.52756">
        <ele>653.6</ele>
        <time>2020-10-17T13:14:32Z</time>
      </trkpt>
      <trkpt lat="46.15378" lon="4.52758">
        <ele>653.4</ele>
        <time>2020-10-17T13:14:33Z</time>
      </trkpt>
      <trkpt lat="46.15377" lon="4.52761">
        <ele>653.4</ele>
        <time>2020-10-17T13:14:34Z</time>
      </trkpt>
      <trkpt lat="46.15376" lon="4.52763">
        <ele>653.2</ele>
        <time>2020-10-17T13:14:35Z</time>
      </trkpt>
      <trkpt lat="46.15375" lon="4.52765">
        <ele>653</ele>
        <time>2020-10-17T13:14:36Z</time>
      </trkpt>
      <trkpt lat="46.15375" lon="4.52765">
        <ele>652.8</ele>
        <time>2020-10-17T13:14:37Z</time>
      </trkpt>
      <trkpt lat="46.15374" lon="4.5277">
        <ele>652.8</ele>
        <time>2020-10-17T13:14:38Z</time>
      </trkpt>
      <trkpt lat="46.15373" lon="4.52773">
        <ele>652.8</ele>
        <time>2020-10-17T13:14:39Z</time>
      </trkpt>
      <trkpt lat="46.15372" lon="4.52776">
        <ele>652.6</ele>
        <time>2020-10-17T13:14:40Z</time>
      </trkpt>
      <trkpt lat="46.15371" lon="4.52779">
        <ele>652.4</ele>
        <time>2020-10-17T13:14:41Z</time>
      </trkpt>
      <trkpt lat="46.1537" lon="4.52783">
        <ele>652.2</ele>
        <time>2020-10-17T13:14:42Z</time>
      </trkpt>
      <trkpt lat="46.1537" lon="4.52786">
        <ele>652.2</ele>
        <time>2020-10-17T13:14:43Z</time>
      </trkpt>
      <trkpt lat="46.15369" lon="4.52789">
        <ele>652</ele>
        <time>2020-10-17T13:14:44Z</time>
      </trkpt>
      <trkpt lat="46.15368" lon="4.52793">
        <ele>652.2</ele>
        <time>2020-10-17T13:14:45Z</time>
      </trkpt>
      <trkpt lat="46.15367" lon="4.52797">
        <ele>652</ele>
        <time>2020-10-17T13:14:46Z</time>
      </trkpt>
      <trkpt lat="46.15367" lon="4.52797">
        <ele>652.4</ele>
        <time>2020-10-17T13:14:47Z</time>
      </trkpt>
      <trkpt lat="46.15367" lon="4.528">
        <ele>652.4</ele>
        <time>2020-10-17T13:14:48Z</time>
      </trkpt>
      <trkpt lat="46.15367" lon="4.528">
        <ele>652.2</ele>
        <time>2020-10-17T13:14:49Z</time>
      </trkpt>
      <trkpt lat="46.15367" lon="4.52803">
        <ele>652.2</ele>
        <time>2020-10-17T13:14:50Z</time>
      </trkpt>
      <trkpt lat="46.15367" lon="4.52803">
        <ele>652</ele>
        <time>2020-10-17T13:14:51Z</time>
      </trkpt>
      <trkpt lat="46.15368" lon="4.52806">
        <ele>651.8</ele>
        <time>2020-10-17T13:14:52Z</time>
      </trkpt>
      <trkpt lat="46.15368" lon="4.52806">
        <ele>651.8</ele>
        <time>2020-10-17T13:14:53Z</time>
      </trkpt>
      <trkpt lat="46.15368" lon="4.5281">
        <ele>651.8</ele>
        <time>2020-10-17T13:14:54Z</time>
      </trkpt>
      <trkpt lat="46.15368" lon="4.5281">
        <ele>651.8</ele>
        <time>2020-10-17T13:14:55Z</time>
      </trkpt>
      <trkpt lat="46.15368" lon="4.52813">
        <ele>651.8</ele>
        <time>2020-10-17T13:14:56Z</time>
      </trkpt>
      <trkpt lat="46.15368" lon="4.52813">
        <ele>651.6</ele>
        <time>2020-10-17T13:14:57Z</time>
      </trkpt>
      <trkpt lat="46.15368" lon="4.52818">
        <ele>651.6</ele>
        <time>2020-10-17T13:14:58Z</time>
      </trkpt>
      <trkpt lat="46.15368" lon="4.52818">
        <ele>651.6</ele>
        <time>2020-10-17T13:14:59Z</time>
      </trkpt>
      <trkpt lat="46.15368" lon="4.52823">
        <ele>651.6</ele>
        <time>2020-10-17T13:15:00Z</time>
      </trkpt>
      <trkpt lat="46.15368" lon="4.52823">
        <ele>651.4</ele>
        <time>2020-10-17T13:15:01Z</time>
      </trkpt>
      <trkpt lat="46.15368" lon="4.52827">
        <ele>651.2</ele>
        <time>2020-10-17T13:15:02Z</time>
      </trkpt>
      <trkpt lat="46.15368" lon="4.52827">
        <ele>651.2</ele>
        <time>2020-10-17T13:15:03Z</time>
      </trkpt>
      <trkpt lat="46.15368" lon="4.52831">
        <ele>651</ele>
        <time>2020-10-17T13:15:04Z</time>
      </trkpt>
      <trkpt lat="46.15368" lon="4.52831">
        <ele>651</ele>
        <time>2020-10-17T13:15:05Z</time>
      </trkpt>
      <trkpt lat="46.15368" lon="4.52835">
        <ele>650.8</ele>
        <time>2020-10-17T13:15:06Z</time>
      </trkpt>
      <trkpt lat="46.15368" lon="4.52835">
        <ele>651</ele>
        <time>2020-10-17T13:15:07Z</time>
      </trkpt>
      <trkpt lat="46.15367" lon="4.52839">
        <ele>650.8</ele>
        <time>2020-10-17T13:15:08Z</time>
      </trkpt>
      <trkpt lat="46.15367" lon="4.52839">
        <ele>650.8</ele>
        <time>2020-10-17T13:15:09Z</time>
      </trkpt>
      <trkpt lat="46.15367" lon="4.52844">
        <ele>650.6</ele>
        <time>2020-10-17T13:15:10Z</time>
      </trkpt>
      <trkpt lat="46.15367" lon="4.52844">
        <ele>650.4</ele>
        <time>2020-10-17T13:15:11Z</time>
      </trkpt>
      <trkpt lat="46.15366" lon="4.52848">
        <ele>650.4</ele>
        <time>2020-10-17T13:15:12Z</time>
      </trkpt>
      <trkpt lat="46.15366" lon="4.52848">
        <ele>650.4</ele>
        <time>2020-10-17T13:15:13Z</time>
      </trkpt>
      <trkpt lat="46.15367" lon="4.52853">
        <ele>650.2</ele>
        <time>2020-10-17T13:15:14Z</time>
      </trkpt>
      <trkpt lat="46.15366" lon="4.52856">
        <ele>650.2</ele>
        <time>2020-10-17T13:15:15Z</time>
      </trkpt>
      <trkpt lat="46.15366" lon="4.52856">
        <ele>650.2</ele>
        <time>2020-10-17T13:15:16Z</time>
      </trkpt>
      <trkpt lat="46.15365" lon="4.52861">
        <ele>650</ele>
        <time>2020-10-17T13:15:17Z</time>
      </trkpt>
      <trkpt lat="46.15364" lon="4.52864">
        <ele>649.6</ele>
        <time>2020-10-17T13:15:18Z</time>
      </trkpt>
      <trkpt lat="46.15363" lon="4.52867">
        <ele>649.6</ele>
        <time>2020-10-17T13:15:19Z</time>
      </trkpt>
      <trkpt lat="46.15363" lon="4.52871">
        <ele>649.6</ele>
        <time>2020-10-17T13:15:20Z</time>
      </trkpt>
      <trkpt lat="46.15363" lon="4.52874">
        <ele>649.4</ele>
        <time>2020-10-17T13:15:21Z</time>
      </trkpt>
      <trkpt lat="46.15362" lon="4.52877">
        <ele>649.2</ele>
        <time>2020-10-17T13:15:22Z</time>
      </trkpt>
      <trkpt lat="46.15361" lon="4.52881">
        <ele>648.6</ele>
        <time>2020-10-17T13:15:23Z</time>
      </trkpt>
      <trkpt lat="46.1536" lon="4.52885">
        <ele>648.4</ele>
        <time>2020-10-17T13:15:24Z</time>
      </trkpt>
      <trkpt lat="46.15359" lon="4.52888">
        <ele>648.4</ele>
        <time>2020-10-17T13:15:25Z</time>
      </trkpt>
      <trkpt lat="46.15359" lon="4.52892">
        <ele>648.2</ele>
        <time>2020-10-17T13:15:26Z</time>
      </trkpt>
      <trkpt lat="46.15359" lon="4.52895">
        <ele>647.8</ele>
        <time>2020-10-17T13:15:27Z</time>
      </trkpt>
      <trkpt lat="46.15359" lon="4.52898">
        <ele>647.8</ele>
        <time>2020-10-17T13:15:28Z</time>
      </trkpt>
      <trkpt lat="46.15359" lon="4.52902">
        <ele>647.2</ele>
        <time>2020-10-17T13:15:29Z</time>
      </trkpt>
      <trkpt lat="46.15359" lon="4.52905">
        <ele>647.2</ele>
        <time>2020-10-17T13:15:30Z</time>
      </trkpt>
      <trkpt lat="46.15359" lon="4.52909">
        <ele>647</ele>
        <time>2020-10-17T13:15:31Z</time>
      </trkpt>
      <trkpt lat="46.1536" lon="4.52913">
        <ele>646.6</ele>
        <time>2020-10-17T13:15:32Z</time>
      </trkpt>
      <trkpt lat="46.1536" lon="4.52916">
        <ele>646</ele>
        <time>2020-10-17T13:15:33Z</time>
      </trkpt>
      <trkpt lat="46.1536" lon="4.5292">
        <ele>646</ele>
        <time>2020-10-17T13:15:34Z</time>
      </trkpt>
      <trkpt lat="46.1536" lon="4.52924">
        <ele>645.8</ele>
        <time>2020-10-17T13:15:35Z</time>
      </trkpt>
      <trkpt lat="46.1536" lon="4.52928">
        <ele>645.2</ele>
        <time>2020-10-17T13:15:36Z</time>
      </trkpt>
      <trkpt lat="46.15361" lon="4.52931">
        <ele>645</ele>
        <time>2020-10-17T13:15:37Z</time>
      </trkpt>
      <trkpt lat="46.15361" lon="4.52934">
        <ele>644.4</ele>
        <time>2020-10-17T13:15:38Z</time>
      </trkpt>
      <trkpt lat="46.15362" lon="4.52938">
        <ele>644</ele>
        <time>2020-10-17T13:15:39Z</time>
      </trkpt>
      <trkpt lat="46.15362" lon="4.52941">
        <ele>643.8</ele>
        <time>2020-10-17T13:15:40Z</time>
      </trkpt>
      <trkpt lat="46.15363" lon="4.52943">
        <ele>643.6</ele>
        <time>2020-10-17T13:15:41Z</time>
      </trkpt>
      <trkpt lat="46.15364" lon="4.52946">
        <ele>643.2</ele>
        <time>2020-10-17T13:15:42Z</time>
      </trkpt>
      <trkpt lat="46.15365" lon="4.52949">
        <ele>643.4</ele>
        <time>2020-10-17T13:15:43Z</time>
      </trkpt>
      <trkpt lat="46.15365" lon="4.52952">
        <ele>643.2</ele>
        <time>2020-10-17T13:15:44Z</time>
      </trkpt>
      <trkpt lat="46.15366" lon="4.52954">
        <ele>642.8</ele>
        <time>2020-10-17T13:15:45Z</time>
      </trkpt>
      <trkpt lat="46.15367" lon="4.52958">
        <ele>642.8</ele>
        <time>2020-10-17T13:15:46Z</time>
      </trkpt>
      <trkpt lat="46.15367" lon="4.52961">
        <ele>642.4</ele>
        <time>2020-10-17T13:15:47Z</time>
      </trkpt>
      <trkpt lat="46.15368" lon="4.52963">
        <ele>642</ele>
        <time>2020-10-17T13:15:48Z</time>
      </trkpt>
      <trkpt lat="46.15369" lon="4.52966">
        <ele>642</ele>
        <time>2020-10-17T13:15:49Z</time>
      </trkpt>
      <trkpt lat="46.15369" lon="4.52966">
        <ele>641.2</ele>
        <time>2020-10-17T13:15:50Z</time>
      </trkpt>
      <trkpt lat="46.15371" lon="4.5297">
        <ele>641</ele>
        <time>2020-10-17T13:15:51Z</time>
      </trkpt>
      <trkpt lat="46.15373" lon="4.52974">
        <ele>640.4</ele>
        <time>2020-10-17T13:15:52Z</time>
      </trkpt>
      <trkpt lat="46.15374" lon="4.52976">
        <ele>639.8</ele>
        <time>2020-10-17T13:15:53Z</time>
      </trkpt>
      <trkpt lat="46.15375" lon="4.52979">
        <ele>639.6</ele>
        <time>2020-10-17T13:15:54Z</time>
      </trkpt>
      <trkpt lat="46.15376" lon="4.52982">
        <ele>639.2</ele>
        <time>2020-10-17T13:15:55Z</time>
      </trkpt>
      <trkpt lat="46.15377" lon="4.52985">
        <ele>638.8</ele>
        <time>2020-10-17T13:15:56Z</time>
      </trkpt>
      <trkpt lat="46.15378" lon="4.52989">
        <ele>638.4</ele>
        <time>2020-10-17T13:15:57Z</time>
      </trkpt>
      <trkpt lat="46.15379" lon="4.52993">
        <ele>637.6</ele>
        <time>2020-10-17T13:15:58Z</time>
      </trkpt>
      <trkpt lat="46.1538" lon="4.52997">
        <ele>637</ele>
        <time>2020-10-17T13:15:59Z</time>
      </trkpt>
      <trkpt lat="46.1538" lon="4.53">
        <ele>637</ele>
        <time>2020-10-17T13:16:00Z</time>
      </trkpt>
      <trkpt lat="46.15381" lon="4.53004">
        <ele>636.6</ele>
        <time>2020-10-17T13:16:01Z</time>
      </trkpt>
      <trkpt lat="46.15382" lon="4.53006">
        <ele>636</ele>
        <time>2020-10-17T13:16:02Z</time>
      </trkpt>
      <trkpt lat="46.15382" lon="4.53009">
        <ele>635.8</ele>
        <time>2020-10-17T13:16:03Z</time>
      </trkpt>
      <trkpt lat="46.15382" lon="4.53009">
        <ele>635.8</ele>
        <time>2020-10-17T13:16:04Z</time>
      </trkpt>
      <trkpt lat="46.15383" lon="4.53015">
        <ele>635.2</ele>
        <time>2020-10-17T13:16:05Z</time>
      </trkpt>
      <trkpt lat="46.15383" lon="4.53019">
        <ele>634.8</ele>
        <time>2020-10-17T13:16:06Z</time>
      </trkpt>
      <trkpt lat="46.15384" lon="4.53025">
        <ele>634.6</ele>
        <time>2020-10-17T13:16:07Z</time>
      </trkpt>
      <trkpt lat="46.15384" lon="4.53027">
        <ele>634</ele>
        <time>2020-10-17T13:16:08Z</time>
      </trkpt>
      <trkpt lat="46.15385" lon="4.5303">
        <ele>633.6</ele>
        <time>2020-10-17T13:16:09Z</time>
      </trkpt>
      <trkpt lat="46.15386" lon="4.53034">
        <ele>633.6</ele>
        <time>2020-10-17T13:16:10Z</time>
      </trkpt>
      <trkpt lat="46.15386" lon="4.53038">
        <ele>633.2</ele>
        <time>2020-10-17T13:16:11Z</time>
      </trkpt>
      <trkpt lat="46.15387" lon="4.53041">
        <ele>632.6</ele>
        <time>2020-10-17T13:16:12Z</time>
      </trkpt>
      <trkpt lat="46.15387" lon="4.53044">
        <ele>632.8</ele>
        <time>2020-10-17T13:16:13Z</time>
      </trkpt>
      <trkpt lat="46.15388" lon="4.53047">
        <ele>632.2</ele>
        <time>2020-10-17T13:16:14Z</time>
      </trkpt>
      <trkpt lat="46.15389" lon="4.53051">
        <ele>631.6</ele>
        <time>2020-10-17T13:16:15Z</time>
      </trkpt>
      <trkpt lat="46.1539" lon="4.53054">
        <ele>631.6</ele>
        <time>2020-10-17T13:16:16Z</time>
      </trkpt>
      <trkpt lat="46.15391" lon="4.53057">
        <ele>631.2</ele>
        <time>2020-10-17T13:16:17Z</time>
      </trkpt>
      <trkpt lat="46.15392" lon="4.5306">
        <ele>630.6</ele>
        <time>2020-10-17T13:16:18Z</time>
      </trkpt>
      <trkpt lat="46.15393" lon="4.53064">
        <ele>630.6</ele>
        <time>2020-10-17T13:16:19Z</time>
      </trkpt>
      <trkpt lat="46.15394" lon="4.53068">
        <ele>630.2</ele>
        <time>2020-10-17T13:16:20Z</time>
      </trkpt>
      <trkpt lat="46.15395" lon="4.53071">
        <ele>629.8</ele>
        <time>2020-10-17T13:16:21Z</time>
      </trkpt>
      <trkpt lat="46.15396" lon="4.53075">
        <ele>629.8</ele>
        <time>2020-10-17T13:16:22Z</time>
      </trkpt>
      <trkpt lat="46.15397" lon="4.53079">
        <ele>629.4</ele>
        <time>2020-10-17T13:16:23Z</time>
      </trkpt>
      <trkpt lat="46.15397" lon="4.53082">
        <ele>629.2</ele>
        <time>2020-10-17T13:16:24Z</time>
      </trkpt>
      <trkpt lat="46.15398" lon="4.53086">
        <ele>629.2</ele>
        <time>2020-10-17T13:16:25Z</time>
      </trkpt>
      <trkpt lat="46.15399" lon="4.5309">
        <ele>628.8</ele>
        <time>2020-10-17T13:16:26Z</time>
      </trkpt>
      <trkpt lat="46.15399" lon="4.53093">
        <ele>628.4</ele>
        <time>2020-10-17T13:16:27Z</time>
      </trkpt>
      <trkpt lat="46.15399" lon="4.53097">
        <ele>628.4</ele>
        <time>2020-10-17T13:16:28Z</time>
      </trkpt>
      <trkpt lat="46.154" lon="4.53101">
        <ele>627.6</ele>
        <time>2020-10-17T13:16:29Z</time>
      </trkpt>
      <trkpt lat="46.154" lon="4.53105">
        <ele>627.6</ele>
        <time>2020-10-17T13:16:30Z</time>
      </trkpt>
      <trkpt lat="46.15401" lon="4.53108">
        <ele>627.6</ele>
        <time>2020-10-17T13:16:31Z</time>
      </trkpt>
      <trkpt lat="46.15402" lon="4.53111">
        <ele>627.6</ele>
        <time>2020-10-17T13:16:32Z</time>
      </trkpt>
      <trkpt lat="46.15402" lon="4.53115">
        <ele>627.4</ele>
        <time>2020-10-17T13:16:33Z</time>
      </trkpt>
      <trkpt lat="46.15403" lon="4.53117">
        <ele>627.2</ele>
        <time>2020-10-17T13:16:34Z</time>
      </trkpt>
      <trkpt lat="46.15403" lon="4.53121">
        <ele>627.2</ele>
        <time>2020-10-17T13:16:35Z</time>
      </trkpt>
      <trkpt lat="46.15404" lon="4.53125">
        <ele>627</ele>
        <time>2020-10-17T13:16:36Z</time>
      </trkpt>
      <trkpt lat="46.15405" lon="4.53129">
        <ele>626.8</ele>
        <time>2020-10-17T13:16:37Z</time>
      </trkpt>
      <trkpt lat="46.15406" lon="4.53132">
        <ele>626.2</ele>
        <time>2020-10-17T13:16:38Z</time>
      </trkpt>
      <trkpt lat="46.15408" lon="4.53136">
        <ele>626</ele>
        <time>2020-10-17T13:16:39Z</time>
      </trkpt>
      <trkpt lat="46.15409" lon="4.5314">
        <ele>626</ele>
        <time>2020-10-17T13:16:40Z</time>
      </trkpt>
      <trkpt lat="46.15411" lon="4.53144">
        <ele>625.8</ele>
        <time>2020-10-17T13:16:41Z</time>
      </trkpt>
      <trkpt lat="46.15412" lon="4.53148">
        <ele>625.2</ele>
        <time>2020-10-17T13:16:42Z</time>
      </trkpt>
      <trkpt lat="46.15413" lon="4.53152">
        <ele>625.2</ele>
        <time>2020-10-17T13:16:43Z</time>
      </trkpt>
      <trkpt lat="46.15414" lon="4.53156">
        <ele>624.6</ele>
        <time>2020-10-17T13:16:44Z</time>
      </trkpt>
      <trkpt lat="46.15415" lon="4.53159">
        <ele>624.4</ele>
        <time>2020-10-17T13:16:45Z</time>
      </trkpt>
      <trkpt lat="46.15417" lon="4.53161">
        <ele>624.6</ele>
        <time>2020-10-17T13:16:46Z</time>
      </trkpt>
      <trkpt lat="46.15419" lon="4.53165">
        <ele>624.8</ele>
        <time>2020-10-17T13:16:47Z</time>
      </trkpt>
      <trkpt lat="46.1542" lon="4.53168">
        <ele>624.6</ele>
        <time>2020-10-17T13:16:48Z</time>
      </trkpt>
      <trkpt lat="46.15422" lon="4.53171">
        <ele>624.4</ele>
        <time>2020-10-17T13:16:49Z</time>
      </trkpt>
      <trkpt lat="46.15423" lon="4.53174">
        <ele>624.6</ele>
        <time>2020-10-17T13:16:50Z</time>
      </trkpt>
      <trkpt lat="46.15425" lon="4.53177">
        <ele>624.2</ele>
        <time>2020-10-17T13:16:51Z</time>
      </trkpt>
      <trkpt lat="46.15426" lon="4.5318">
        <ele>624</ele>
        <time>2020-10-17T13:16:52Z</time>
      </trkpt>
      <trkpt lat="46.15427" lon="4.53183">
        <ele>624</ele>
        <time>2020-10-17T13:16:53Z</time>
      </trkpt>
      <trkpt lat="46.15429" lon="4.53186">
        <ele>623.8</ele>
        <time>2020-10-17T13:16:54Z</time>
      </trkpt>
      <trkpt lat="46.15431" lon="4.53189">
        <ele>623.4</ele>
        <time>2020-10-17T13:16:55Z</time>
      </trkpt>
      <trkpt lat="46.15432" lon="4.53192">
        <ele>623.6</ele>
        <time>2020-10-17T13:16:56Z</time>
      </trkpt>
      <trkpt lat="46.15435" lon="4.53195">
        <ele>623.2</ele>
        <time>2020-10-17T13:16:57Z</time>
      </trkpt>
      <trkpt lat="46.15436" lon="4.53199">
        <ele>623</ele>
        <time>2020-10-17T13:16:58Z</time>
      </trkpt>
      <trkpt lat="46.15438" lon="4.53202">
        <ele>623</ele>
        <time>2020-10-17T13:16:59Z</time>
      </trkpt>
      <trkpt lat="46.15439" lon="4.53206">
        <ele>622.6</ele>
        <time>2020-10-17T13:17:00Z</time>
      </trkpt>
      <trkpt lat="46.15441" lon="4.53209">
        <ele>622.4</ele>
        <time>2020-10-17T13:17:01Z</time>
      </trkpt>
      <trkpt lat="46.15443" lon="4.53212">
        <ele>622.4</ele>
        <time>2020-10-17T13:17:02Z</time>
      </trkpt>
      <trkpt lat="46.15444" lon="4.53215">
        <ele>622</ele>
        <time>2020-10-17T13:17:03Z</time>
      </trkpt>
      <trkpt lat="46.15445" lon="4.53218">
        <ele>621.4</ele>
        <time>2020-10-17T13:17:04Z</time>
      </trkpt>
      <trkpt lat="46.15447" lon="4.53221">
        <ele>621.6</ele>
        <time>2020-10-17T13:17:05Z</time>
      </trkpt>
      <trkpt lat="46.15448" lon="4.53224">
        <ele>621.2</ele>
        <time>2020-10-17T13:17:06Z</time>
      </trkpt>
      <trkpt lat="46.15449" lon="4.53227">
        <ele>620.6</ele>
        <time>2020-10-17T13:17:07Z</time>
      </trkpt>
      <trkpt lat="46.1545" lon="4.53231">
        <ele>621</ele>
        <time>2020-10-17T13:17:08Z</time>
      </trkpt>
      <trkpt lat="46.1545" lon="4.53235">
        <ele>620.4</ele>
        <time>2020-10-17T13:17:09Z</time>
      </trkpt>
      <trkpt lat="46.15452" lon="4.53238">
        <ele>620.2</ele>
        <time>2020-10-17T13:17:10Z</time>
      </trkpt>
      <trkpt lat="46.15453" lon="4.53242">
        <ele>620.6</ele>
        <time>2020-10-17T13:17:11Z</time>
      </trkpt>
      <trkpt lat="46.15455" lon="4.53245">
        <ele>620.2</ele>
        <time>2020-10-17T13:17:12Z</time>
      </trkpt>
      <trkpt lat="46.15457" lon="4.53248">
        <ele>619.8</ele>
        <time>2020-10-17T13:17:13Z</time>
      </trkpt>
      <trkpt lat="46.15458" lon="4.53251">
        <ele>620</ele>
        <time>2020-10-17T13:17:14Z</time>
      </trkpt>
      <trkpt lat="46.1546" lon="4.53254">
        <ele>619.6</ele>
        <time>2020-10-17T13:17:15Z</time>
      </trkpt>
      <trkpt lat="46.15461" lon="4.53257">
        <ele>619</ele>
        <time>2020-10-17T13:17:16Z</time>
      </trkpt>
      <trkpt lat="46.15462" lon="4.53261">
        <ele>619.4</ele>
        <time>2020-10-17T13:17:17Z</time>
      </trkpt>
      <trkpt lat="46.15463" lon="4.53264">
        <ele>618.8</ele>
        <time>2020-10-17T13:17:18Z</time>
      </trkpt>
      <trkpt lat="46.15464" lon="4.53268">
        <ele>618.4</ele>
        <time>2020-10-17T13:17:19Z</time>
      </trkpt>
      <trkpt lat="46.15465" lon="4.53271">
        <ele>618.8</ele>
        <time>2020-10-17T13:17:20Z</time>
      </trkpt>
      <trkpt lat="46.15466" lon="4.53275">
        <ele>618.4</ele>
        <time>2020-10-17T13:17:21Z</time>
      </trkpt>
      <trkpt lat="46.15467" lon="4.53279">
        <ele>618.2</ele>
        <time>2020-10-17T13:17:22Z</time>
      </trkpt>
      <trkpt lat="46.15468" lon="4.53283">
        <ele>618.2</ele>
        <time>2020-10-17T13:17:23Z</time>
      </trkpt>
      <trkpt lat="46.15469" lon="4.53286">
        <ele>617.6</ele>
        <time>2020-10-17T13:17:24Z</time>
      </trkpt>
      <trkpt lat="46.1547" lon="4.5329">
        <ele>617.4</ele>
        <time>2020-10-17T13:17:25Z</time>
      </trkpt>
      <trkpt lat="46.1547" lon="4.53293">
        <ele>617.4</ele>
        <time>2020-10-17T13:17:26Z</time>
      </trkpt>
      <trkpt lat="46.15471" lon="4.53297">
        <ele>617.6</ele>
        <time>2020-10-17T13:17:27Z</time>
      </trkpt>
      <trkpt lat="46.15472" lon="4.53301">
        <ele>617.4</ele>
        <time>2020-10-17T13:17:28Z</time>
      </trkpt>
      <trkpt lat="46.15473" lon="4.53306">
        <ele>617.2</ele>
        <time>2020-10-17T13:17:29Z</time>
      </trkpt>
      <trkpt lat="46.15474" lon="4.53309">
        <ele>617.2</ele>
        <time>2020-10-17T13:17:30Z</time>
      </trkpt>
      <trkpt lat="46.15474" lon="4.53314">
        <ele>616.8</ele>
        <time>2020-10-17T13:17:31Z</time>
      </trkpt>
      <trkpt lat="46.15475" lon="4.53318">
        <ele>616.4</ele>
        <time>2020-10-17T13:17:32Z</time>
      </trkpt>
      <trkpt lat="46.15476" lon="4.53321">
        <ele>616.6</ele>
        <time>2020-10-17T13:17:33Z</time>
      </trkpt>
      <trkpt lat="46.15476" lon="4.53325">
        <ele>615.8</ele>
        <time>2020-10-17T13:17:34Z</time>
      </trkpt>
      <trkpt lat="46.15477" lon="4.53329">
        <ele>615.2</ele>
        <time>2020-10-17T13:17:35Z</time>
      </trkpt>
      <trkpt lat="46.15477" lon="4.53333">
        <ele>615.4</ele>
        <time>2020-10-17T13:17:36Z</time>
      </trkpt>
      <trkpt lat="46.15478" lon="4.53337">
        <ele>614.8</ele>
        <time>2020-10-17T13:17:37Z</time>
      </trkpt>
      <trkpt lat="46.15478" lon="4.53342">
        <ele>614.4</ele>
        <time>2020-10-17T13:17:38Z</time>
      </trkpt>
      <trkpt lat="46.15479" lon="4.53347">
        <ele>614.4</ele>
        <time>2020-10-17T13:17:39Z</time>
      </trkpt>
      <trkpt lat="46.15479" lon="4.53351">
        <ele>613.8</ele>
        <time>2020-10-17T13:17:40Z</time>
      </trkpt>
      <trkpt lat="46.15479" lon="4.53355">
        <ele>613.2</ele>
        <time>2020-10-17T13:17:41Z</time>
      </trkpt>
      <trkpt lat="46.1548" lon="4.53359">
        <ele>613.4</ele>
        <time>2020-10-17T13:17:42Z</time>
      </trkpt>
      <trkpt lat="46.15481" lon="4.53363">
        <ele>612.4</ele>
        <time>2020-10-17T13:17:43Z</time>
      </trkpt>
      <trkpt lat="46.15481" lon="4.53366">
        <ele>611.4</ele>
        <time>2020-10-17T13:17:44Z</time>
      </trkpt>
      <trkpt lat="46.15482" lon="4.5337">
        <ele>611.8</ele>
        <time>2020-10-17T13:17:45Z</time>
      </trkpt>
      <trkpt lat="46.15483" lon="4.53374">
        <ele>611.2</ele>
        <time>2020-10-17T13:17:46Z</time>
      </trkpt>
      <trkpt lat="46.15484" lon="4.53377">
        <ele>610.8</ele>
        <time>2020-10-17T13:17:47Z</time>
      </trkpt>
      <trkpt lat="46.15485" lon="4.53381">
        <ele>611</ele>
        <time>2020-10-17T13:17:48Z</time>
      </trkpt>
      <trkpt lat="46.15485" lon="4.53385">
        <ele>610.4</ele>
        <time>2020-10-17T13:17:49Z</time>
      </trkpt>
      <trkpt lat="46.15486" lon="4.53389">
        <ele>610.2</ele>
        <time>2020-10-17T13:17:50Z</time>
      </trkpt>
      <trkpt lat="46.15486" lon="4.53393">
        <ele>610.4</ele>
        <time>2020-10-17T13:17:51Z</time>
      </trkpt>
      <trkpt lat="46.15488" lon="4.53397">
        <ele>609.8</ele>
        <time>2020-10-17T13:17:52Z</time>
      </trkpt>
      <trkpt lat="46.15489" lon="4.53401">
        <ele>609.2</ele>
        <time>2020-10-17T13:17:53Z</time>
      </trkpt>
      <trkpt lat="46.15489" lon="4.53405">
        <ele>609.4</ele>
        <time>2020-10-17T13:17:54Z</time>
      </trkpt>
      <trkpt lat="46.1549" lon="4.53409">
        <ele>608.6</ele>
        <time>2020-10-17T13:17:55Z</time>
      </trkpt>
      <trkpt lat="46.1549" lon="4.53413">
        <ele>608.4</ele>
        <time>2020-10-17T13:17:56Z</time>
      </trkpt>
      <trkpt lat="46.15491" lon="4.53417">
        <ele>608.2</ele>
        <time>2020-10-17T13:17:57Z</time>
      </trkpt>
      <trkpt lat="46.15491" lon="4.53421">
        <ele>607.4</ele>
        <time>2020-10-17T13:17:58Z</time>
      </trkpt>
      <trkpt lat="46.15492" lon="4.53425">
        <ele>607.2</ele>
        <time>2020-10-17T13:17:59Z</time>
      </trkpt>
      <trkpt lat="46.15493" lon="4.53428">
        <ele>607.2</ele>
        <time>2020-10-17T13:18:00Z</time>
      </trkpt>
      <trkpt lat="46.15493" lon="4.53431">
        <ele>606.2</ele>
        <time>2020-10-17T13:18:01Z</time>
      </trkpt>
      <trkpt lat="46.15494" lon="4.53435">
        <ele>606</ele>
        <time>2020-10-17T13:18:02Z</time>
      </trkpt>
      <trkpt lat="46.15495" lon="4.53439">
        <ele>606</ele>
        <time>2020-10-17T13:18:03Z</time>
      </trkpt>
      <trkpt lat="46.15496" lon="4.53443">
        <ele>605.4</ele>
        <time>2020-10-17T13:18:04Z</time>
      </trkpt>
      <trkpt lat="46.15496" lon="4.53447">
        <ele>605.2</ele>
        <time>2020-10-17T13:18:05Z</time>
      </trkpt>
      <trkpt lat="46.15496" lon="4.53451">
        <ele>605.4</ele>
        <time>2020-10-17T13:18:06Z</time>
      </trkpt>
      <trkpt lat="46.15497" lon="4.53455">
        <ele>604.8</ele>
        <time>2020-10-17T13:18:07Z</time>
      </trkpt>
      <trkpt lat="46.15498" lon="4.53459">
        <ele>604.4</ele>
        <time>2020-10-17T13:18:08Z</time>
      </trkpt>
      <trkpt lat="46.15498" lon="4.53463">
        <ele>604.6</ele>
        <time>2020-10-17T13:18:09Z</time>
      </trkpt>
      <trkpt lat="46.15498" lon="4.53466">
        <ele>604</ele>
        <time>2020-10-17T13:18:10Z</time>
      </trkpt>
      <trkpt lat="46.15498" lon="4.53469">
        <ele>603.6</ele>
        <time>2020-10-17T13:18:11Z</time>
      </trkpt>
      <trkpt lat="46.15498" lon="4.53469">
        <ele>603.8</ele>
        <time>2020-10-17T13:18:12Z</time>
      </trkpt>
      <trkpt lat="46.15498" lon="4.53473">
        <ele>603.2</ele>
        <time>2020-10-17T13:18:13Z</time>
      </trkpt>
      <trkpt lat="46.15498" lon="4.53473">
        <ele>603</ele>
        <time>2020-10-17T13:18:14Z</time>
      </trkpt>
      <trkpt lat="46.15499" lon="4.53477">
        <ele>603</ele>
        <time>2020-10-17T13:18:15Z</time>
      </trkpt>
      <trkpt lat="46.155" lon="4.5348">
        <ele>603</ele>
        <time>2020-10-17T13:18:16Z</time>
      </trkpt>
      <trkpt lat="46.15502" lon="4.53482">
        <ele>603</ele>
        <time>2020-10-17T13:18:17Z</time>
      </trkpt>
      <trkpt lat="46.15503" lon="4.53485">
        <ele>603</ele>
        <time>2020-10-17T13:18:18Z</time>
      </trkpt>
      <trkpt lat="46.15505" lon="4.53487">
        <ele>603</ele>
        <time>2020-10-17T13:18:19Z</time>
      </trkpt>
      <trkpt lat="46.15508" lon="4.5349">
        <ele>602.8</ele>
        <time>2020-10-17T13:18:20Z</time>
      </trkpt>
      <trkpt lat="46.1551" lon="4.53492">
        <ele>602.6</ele>
        <time>2020-10-17T13:18:21Z</time>
      </trkpt>
      <trkpt lat="46.15512" lon="4.53495">
        <ele>602.6</ele>
        <time>2020-10-17T13:18:22Z</time>
      </trkpt>
      <trkpt lat="46.15514" lon="4.53497">
        <ele>601.8</ele>
        <time>2020-10-17T13:18:23Z</time>
      </trkpt>
      <trkpt lat="46.15516" lon="4.535">
        <ele>601.6</ele>
        <time>2020-10-17T13:18:24Z</time>
      </trkpt>
      <trkpt lat="46.15518" lon="4.53501">
        <ele>601.6</ele>
        <time>2020-10-17T13:18:25Z</time>
      </trkpt>
      <trkpt lat="46.15519" lon="4.53503">
        <ele>601</ele>
        <time>2020-10-17T13:18:26Z</time>
      </trkpt>
      <trkpt lat="46.15519" lon="4.53503">
        <ele>600.4</ele>
        <time>2020-10-17T13:18:27Z</time>
      </trkpt>
      <trkpt lat="46.15521" lon="4.53506">
        <ele>600.2</ele>
        <time>2020-10-17T13:18:28Z</time>
      </trkpt>
      <trkpt lat="46.15521" lon="4.53506">
        <ele>599.6</ele>
        <time>2020-10-17T13:18:29Z</time>
      </trkpt>
      <trkpt lat="46.15523" lon="4.53508">
        <ele>599.4</ele>
        <time>2020-10-17T13:18:30Z</time>
      </trkpt>
      <trkpt lat="46.15523" lon="4.53508">
        <ele>599.4</ele>
        <time>2020-10-17T13:18:31Z</time>
      </trkpt>
      <trkpt lat="46.15525" lon="4.5351">
        <ele>599</ele>
        <time>2020-10-17T13:18:32Z</time>
      </trkpt>
      <trkpt lat="46.15525" lon="4.5351">
        <ele>598.8</ele>
        <time>2020-10-17T13:18:33Z</time>
      </trkpt>
      <trkpt lat="46.15525" lon="4.5351">
        <ele>598.6</ele>
        <time>2020-10-17T13:18:34Z</time>
      </trkpt>
      <trkpt lat="46.15524" lon="4.53513">
        <ele>598.8</ele>
        <time>2020-10-17T13:18:35Z</time>
      </trkpt>
      <trkpt lat="46.15524" lon="4.53513">
        <ele>599</ele>
        <time>2020-10-17T13:18:36Z</time>
      </trkpt>
      <trkpt lat="46.15524" lon="4.53513">
        <ele>599</ele>
        <time>2020-10-17T13:18:37Z</time>
      </trkpt>
      <trkpt lat="46.15524" lon="4.53513">
        <ele>599.2</ele>
        <time>2020-10-17T13:18:38Z</time>
      </trkpt>
      <trkpt lat="46.15524" lon="4.53513">
        <ele>599.2</ele>
        <time>2020-10-17T13:18:39Z</time>
      </trkpt>
      <trkpt lat="46.15527" lon="4.53514">
        <ele>599.2</ele>
        <time>2020-10-17T13:18:40Z</time>
      </trkpt>
      <trkpt lat="46.15527" lon="4.53514">
        <ele>599.4</ele>
        <time>2020-10-17T13:18:41Z</time>
      </trkpt>
      <trkpt lat="46.1553" lon="4.53515">
        <ele>599.2</ele>
        <time>2020-10-17T13:18:42Z</time>
      </trkpt>
      <trkpt lat="46.15532" lon="4.53517">
        <ele>599</ele>
        <time>2020-10-17T13:18:43Z</time>
      </trkpt>
      <trkpt lat="46.15534" lon="4.53519">
        <ele>598.8</ele>
        <time>2020-10-17T13:18:44Z</time>
      </trkpt>
      <trkpt lat="46.15536" lon="4.53521">
        <ele>598.8</ele>
        <time>2020-10-17T13:18:45Z</time>
      </trkpt>
      <trkpt lat="46.15538" lon="4.53523">
        <ele>598.6</ele>
        <time>2020-10-17T13:18:46Z</time>
      </trkpt>
      <trkpt lat="46.15539" lon="4.53526">
        <ele>598.6</ele>
        <time>2020-10-17T13:18:47Z</time>
      </trkpt>
      <trkpt lat="46.15541" lon="4.53529">
        <ele>598.2</ele>
        <time>2020-10-17T13:18:48Z</time>
      </trkpt>
      <trkpt lat="46.15543" lon="4.53532">
        <ele>598</ele>
        <time>2020-10-17T13:18:49Z</time>
      </trkpt>
      <trkpt lat="46.15544" lon="4.53535">
        <ele>598</ele>
        <time>2020-10-17T13:18:50Z</time>
      </trkpt>
      <trkpt lat="46.15546" lon="4.53539">
        <ele>597.8</ele>
        <time>2020-10-17T13:18:51Z</time>
      </trkpt>
      <trkpt lat="46.15547" lon="4.53542">
        <ele>597.6</ele>
        <time>2020-10-17T13:18:52Z</time>
      </trkpt>
      <trkpt lat="46.15548" lon="4.53546">
        <ele>597.6</ele>
        <time>2020-10-17T13:18:53Z</time>
      </trkpt>
      <trkpt lat="46.1555" lon="4.53549">
        <ele>597.4</ele>
        <time>2020-10-17T13:18:54Z</time>
      </trkpt>
      <trkpt lat="46.15551" lon="4.53552">
        <ele>597</ele>
        <time>2020-10-17T13:18:55Z</time>
      </trkpt>
      <trkpt lat="46.15552" lon="4.53556">
        <ele>596.8</ele>
        <time>2020-10-17T13:18:56Z</time>
      </trkpt>
      <trkpt lat="46.15553" lon="4.53559">
        <ele>596.8</ele>
        <time>2020-10-17T13:18:57Z</time>
      </trkpt>
      <trkpt lat="46.15553" lon="4.53562">
        <ele>596.6</ele>
        <time>2020-10-17T13:18:58Z</time>
      </trkpt>
      <trkpt lat="46.15554" lon="4.53565">
        <ele>596.4</ele>
        <time>2020-10-17T13:18:59Z</time>
      </trkpt>
      <trkpt lat="46.15555" lon="4.53569">
        <ele>596.8</ele>
        <time>2020-10-17T13:19:00Z</time>
      </trkpt>
      <trkpt lat="46.15556" lon="4.53572">
        <ele>596.4</ele>
        <time>2020-10-17T13:19:01Z</time>
      </trkpt>
      <trkpt lat="46.15556" lon="4.53575">
        <ele>596.4</ele>
        <time>2020-10-17T13:19:02Z</time>
      </trkpt>
      <trkpt lat="46.15557" lon="4.53578">
        <ele>596.4</ele>
        <time>2020-10-17T13:19:03Z</time>
      </trkpt>
      <trkpt lat="46.15558" lon="4.53581">
        <ele>596</ele>
        <time>2020-10-17T13:19:04Z</time>
      </trkpt>
      <trkpt lat="46.15559" lon="4.53584">
        <ele>595.8</ele>
        <time>2020-10-17T13:19:05Z</time>
      </trkpt>
      <trkpt lat="46.1556" lon="4.53587">
        <ele>595.8</ele>
        <time>2020-10-17T13:19:06Z</time>
      </trkpt>
      <trkpt lat="46.15561" lon="4.53591">
        <ele>595.2</ele>
        <time>2020-10-17T13:19:07Z</time>
      </trkpt>
      <trkpt lat="46.15562" lon="4.53594">
        <ele>595.2</ele>
        <time>2020-10-17T13:19:08Z</time>
      </trkpt>
      <trkpt lat="46.15563" lon="4.53597">
        <ele>595.2</ele>
        <time>2020-10-17T13:19:09Z</time>
      </trkpt>
      <trkpt lat="46.15564" lon="4.53601">
        <ele>594.8</ele>
        <time>2020-10-17T13:19:10Z</time>
      </trkpt>
      <trkpt lat="46.15565" lon="4.53604">
        <ele>594.8</ele>
        <time>2020-10-17T13:19:11Z</time>
      </trkpt>
      <trkpt lat="46.15566" lon="4.53608">
        <ele>594.8</ele>
        <time>2020-10-17T13:19:12Z</time>
      </trkpt>
      <trkpt lat="46.15566" lon="4.53611">
        <ele>594.4</ele>
        <time>2020-10-17T13:19:13Z</time>
      </trkpt>
      <trkpt lat="46.15567" lon="4.53614">
        <ele>594</ele>
        <time>2020-10-17T13:19:14Z</time>
      </trkpt>
      <trkpt lat="46.15568" lon="4.53618">
        <ele>594</ele>
        <time>2020-10-17T13:19:15Z</time>
      </trkpt>
      <trkpt lat="46.15569" lon="4.53621">
        <ele>593.8</ele>
        <time>2020-10-17T13:19:16Z</time>
      </trkpt>
      <trkpt lat="46.15569" lon="4.53625">
        <ele>593.6</ele>
        <time>2020-10-17T13:19:17Z</time>
      </trkpt>
      <trkpt lat="46.1557" lon="4.53628">
        <ele>593.6</ele>
        <time>2020-10-17T13:19:18Z</time>
      </trkpt>
      <trkpt lat="46.15572" lon="4.53632">
        <ele>593.4</ele>
        <time>2020-10-17T13:19:19Z</time>
      </trkpt>
      <trkpt lat="46.15572" lon="4.53634">
        <ele>593.6</ele>
        <time>2020-10-17T13:19:20Z</time>
      </trkpt>
      <trkpt lat="46.15574" lon="4.53638">
        <ele>593.4</ele>
        <time>2020-10-17T13:19:21Z</time>
      </trkpt>
      <trkpt lat="46.15575" lon="4.53641">
        <ele>593.4</ele>
        <time>2020-10-17T13:19:22Z</time>
      </trkpt>
      <trkpt lat="46.15575" lon="4.53645">
        <ele>593.8</ele>
        <time>2020-10-17T13:19:23Z</time>
      </trkpt>
      <trkpt lat="46.15576" lon="4.53649">
        <ele>593.8</ele>
        <time>2020-10-17T13:19:24Z</time>
      </trkpt>
      <trkpt lat="46.15577" lon="4.53652">
        <ele>593.6</ele>
        <time>2020-10-17T13:19:25Z</time>
      </trkpt>
      <trkpt lat="46.15578" lon="4.53655">
        <ele>593.8</ele>
        <time>2020-10-17T13:19:26Z</time>
      </trkpt>
      <trkpt lat="46.15579" lon="4.53659">
        <ele>593.4</ele>
        <time>2020-10-17T13:19:27Z</time>
      </trkpt>
      <trkpt lat="46.15579" lon="4.53662">
        <ele>593.4</ele>
        <time>2020-10-17T13:19:28Z</time>
      </trkpt>
      <trkpt lat="46.15581" lon="4.53665">
        <ele>593.8</ele>
        <time>2020-10-17T13:19:29Z</time>
      </trkpt>
      <trkpt lat="46.15582" lon="4.53668">
        <ele>593.6</ele>
        <time>2020-10-17T13:19:30Z</time>
      </trkpt>
      <trkpt lat="46.15583" lon="4.53671">
        <ele>593.4</ele>
        <time>2020-10-17T13:19:31Z</time>
      </trkpt>
      <trkpt lat="46.15584" lon="4.53674">
        <ele>593.8</ele>
        <time>2020-10-17T13:19:32Z</time>
      </trkpt>
      <trkpt lat="46.15585" lon="4.53677">
        <ele>593.8</ele>
        <time>2020-10-17T13:19:33Z</time>
      </trkpt>
      <trkpt lat="46.15586" lon="4.5368">
        <ele>593.8</ele>
        <time>2020-10-17T13:19:34Z</time>
      </trkpt>
      <trkpt lat="46.15587" lon="4.53683">
        <ele>594</ele>
        <time>2020-10-17T13:19:35Z</time>
      </trkpt>
      <trkpt lat="46.15588" lon="4.53687">
        <ele>594</ele>
        <time>2020-10-17T13:19:36Z</time>
      </trkpt>
      <trkpt lat="46.15589" lon="4.5369">
        <ele>594</ele>
        <time>2020-10-17T13:19:37Z</time>
      </trkpt>
      <trkpt lat="46.1559" lon="4.53694">
        <ele>594.6</ele>
        <time>2020-10-17T13:19:38Z</time>
      </trkpt>
      <trkpt lat="46.15591" lon="4.53697">
        <ele>594.4</ele>
        <time>2020-10-17T13:19:39Z</time>
      </trkpt>
      <trkpt lat="46.15592" lon="4.537">
        <ele>594.2</ele>
        <time>2020-10-17T13:19:40Z</time>
      </trkpt>
      <trkpt lat="46.15593" lon="4.53703">
        <ele>594.6</ele>
        <time>2020-10-17T13:19:41Z</time>
      </trkpt>
      <trkpt lat="46.15594" lon="4.53706">
        <ele>594.6</ele>
        <time>2020-10-17T13:19:42Z</time>
      </trkpt>
      <trkpt lat="46.15595" lon="4.5371">
        <ele>594.4</ele>
        <time>2020-10-17T13:19:43Z</time>
      </trkpt>
      <trkpt lat="46.15596" lon="4.53713">
        <ele>594.6</ele>
        <time>2020-10-17T13:19:44Z</time>
      </trkpt>
      <trkpt lat="46.15598" lon="4.53717">
        <ele>594.4</ele>
        <time>2020-10-17T13:19:45Z</time>
      </trkpt>
      <trkpt lat="46.15599" lon="4.5372">
        <ele>594.2</ele>
        <time>2020-10-17T13:19:46Z</time>
      </trkpt>
      <trkpt lat="46.15601" lon="4.53723">
        <ele>594.8</ele>
        <time>2020-10-17T13:19:47Z</time>
      </trkpt>
      <trkpt lat="46.15602" lon="4.53726">
        <ele>594.6</ele>
        <time>2020-10-17T13:19:48Z</time>
      </trkpt>
      <trkpt lat="46.15603" lon="4.5373">
        <ele>594.2</ele>
        <time>2020-10-17T13:19:49Z</time>
      </trkpt>
      <trkpt lat="46.15604" lon="4.53733">
        <ele>594.6</ele>
        <time>2020-10-17T13:19:50Z</time>
      </trkpt>
      <trkpt lat="46.15605" lon="4.53737">
        <ele>594.8</ele>
        <time>2020-10-17T13:19:51Z</time>
      </trkpt>
      <trkpt lat="46.15606" lon="4.5374">
        <ele>595</ele>
        <time>2020-10-17T13:19:52Z</time>
      </trkpt>
      <trkpt lat="46.15606" lon="4.53743">
        <ele>595.2</ele>
        <time>2020-10-17T13:19:53Z</time>
      </trkpt>
      <trkpt lat="46.15607" lon="4.53746">
        <ele>595.2</ele>
        <time>2020-10-17T13:19:54Z</time>
      </trkpt>
      <trkpt lat="46.15608" lon="4.5375">
        <ele>594.6</ele>
        <time>2020-10-17T13:19:55Z</time>
      </trkpt>
      <trkpt lat="46.15609" lon="4.53753">
        <ele>595.2</ele>
        <time>2020-10-17T13:19:56Z</time>
      </trkpt>
      <trkpt lat="46.15609" lon="4.53756">
        <ele>595.2</ele>
        <time>2020-10-17T13:19:57Z</time>
      </trkpt>
      <trkpt lat="46.15609" lon="4.5376">
        <ele>595</ele>
        <time>2020-10-17T13:19:58Z</time>
      </trkpt>
      <trkpt lat="46.15609" lon="4.53763">
        <ele>595.6</ele>
        <time>2020-10-17T13:19:59Z</time>
      </trkpt>
      <trkpt lat="46.15608" lon="4.53766">
        <ele>595.4</ele>
        <time>2020-10-17T13:20:00Z</time>
      </trkpt>
      <trkpt lat="46.15608" lon="4.5377">
        <ele>595.2</ele>
        <time>2020-10-17T13:20:01Z</time>
      </trkpt>
      <trkpt lat="46.15607" lon="4.53772">
        <ele>595.6</ele>
        <time>2020-10-17T13:20:02Z</time>
      </trkpt>
      <trkpt lat="46.15606" lon="4.53776">
        <ele>595</ele>
        <time>2020-10-17T13:20:03Z</time>
      </trkpt>
      <trkpt lat="46.15606" lon="4.53779">
        <ele>594.8</ele>
        <time>2020-10-17T13:20:04Z</time>
      </trkpt>
      <trkpt lat="46.15605" lon="4.53783">
        <ele>595</ele>
        <time>2020-10-17T13:20:05Z</time>
      </trkpt>
      <trkpt lat="46.15605" lon="4.53786">
        <ele>594.6</ele>
        <time>2020-10-17T13:20:06Z</time>
      </trkpt>
      <trkpt lat="46.15604" lon="4.5379">
        <ele>594.4</ele>
        <time>2020-10-17T13:20:07Z</time>
      </trkpt>
      <trkpt lat="46.15604" lon="4.53794">
        <ele>594.4</ele>
        <time>2020-10-17T13:20:08Z</time>
      </trkpt>
      <trkpt lat="46.15603" lon="4.53798">
        <ele>594.4</ele>
        <time>2020-10-17T13:20:09Z</time>
      </trkpt>
      <trkpt lat="46.15602" lon="4.53802">
        <ele>594</ele>
        <time>2020-10-17T13:20:10Z</time>
      </trkpt>
      <trkpt lat="46.15602" lon="4.53806">
        <ele>593.6</ele>
        <time>2020-10-17T13:20:11Z</time>
      </trkpt>
      <trkpt lat="46.15602" lon="4.5381">
        <ele>593.8</ele>
        <time>2020-10-17T13:20:12Z</time>
      </trkpt>
      <trkpt lat="46.15602" lon="4.53814">
        <ele>593.4</ele>
        <time>2020-10-17T13:20:13Z</time>
      </trkpt>
      <trkpt lat="46.15603" lon="4.53818">
        <ele>593.4</ele>
        <time>2020-10-17T13:20:14Z</time>
      </trkpt>
      <trkpt lat="46.15604" lon="4.53821">
        <ele>593.6</ele>
        <time>2020-10-17T13:20:15Z</time>
      </trkpt>
      <trkpt lat="46.15604" lon="4.53825">
        <ele>593.2</ele>
        <time>2020-10-17T13:20:16Z</time>
      </trkpt>
      <trkpt lat="46.15605" lon="4.53829">
        <ele>593</ele>
        <time>2020-10-17T13:20:17Z</time>
      </trkpt>
      <trkpt lat="46.15605" lon="4.53833">
        <ele>593.2</ele>
        <time>2020-10-17T13:20:18Z</time>
      </trkpt>
      <trkpt lat="46.15606" lon="4.53837">
        <ele>593</ele>
        <time>2020-10-17T13:20:19Z</time>
      </trkpt>
      <trkpt lat="46.15606" lon="4.53841">
        <ele>592.4</ele>
        <time>2020-10-17T13:20:20Z</time>
      </trkpt>
      <trkpt lat="46.15607" lon="4.53844">
        <ele>592.4</ele>
        <time>2020-10-17T13:20:21Z</time>
      </trkpt>
      <trkpt lat="46.15608" lon="4.53848">
        <ele>592.2</ele>
        <time>2020-10-17T13:20:22Z</time>
      </trkpt>
      <trkpt lat="46.15609" lon="4.53851">
        <ele>592</ele>
        <time>2020-10-17T13:20:23Z</time>
      </trkpt>
      <trkpt lat="46.1561" lon="4.53855">
        <ele>592</ele>
        <time>2020-10-17T13:20:24Z</time>
      </trkpt>
      <trkpt lat="46.15611" lon="4.53858">
        <ele>591.6</ele>
        <time>2020-10-17T13:20:25Z</time>
      </trkpt>
      <trkpt lat="46.15612" lon="4.53861">
        <ele>591.4</ele>
        <time>2020-10-17T13:20:26Z</time>
      </trkpt>
      <trkpt lat="46.15613" lon="4.53864">
        <ele>591.6</ele>
        <time>2020-10-17T13:20:27Z</time>
      </trkpt>
      <trkpt lat="46.15614" lon="4.53867">
        <ele>591</ele>
        <time>2020-10-17T13:20:28Z</time>
      </trkpt>
      <trkpt lat="46.15615" lon="4.5387">
        <ele>590.8</ele>
        <time>2020-10-17T13:20:29Z</time>
      </trkpt>
      <trkpt lat="46.15616" lon="4.53873">
        <ele>590.8</ele>
        <time>2020-10-17T13:20:30Z</time>
      </trkpt>
      <trkpt lat="46.15617" lon="4.53876">
        <ele>590.8</ele>
        <time>2020-10-17T13:20:31Z</time>
      </trkpt>
      <trkpt lat="46.15618" lon="4.5388">
        <ele>590.6</ele>
        <time>2020-10-17T13:20:32Z</time>
      </trkpt>
      <trkpt lat="46.15619" lon="4.53883">
        <ele>590.4</ele>
        <time>2020-10-17T13:20:33Z</time>
      </trkpt>
      <trkpt lat="46.1562" lon="4.53887">
        <ele>590.4</ele>
        <time>2020-10-17T13:20:34Z</time>
      </trkpt>
      <trkpt lat="46.15621" lon="4.53891">
        <ele>590.2</ele>
        <time>2020-10-17T13:20:35Z</time>
      </trkpt>
      <trkpt lat="46.15622" lon="4.53894">
        <ele>589.8</ele>
        <time>2020-10-17T13:20:36Z</time>
      </trkpt>
      <trkpt lat="46.15624" lon="4.53898">
        <ele>589.8</ele>
        <time>2020-10-17T13:20:37Z</time>
      </trkpt>
      <trkpt lat="46.15625" lon="4.53901">
        <ele>589.4</ele>
        <time>2020-10-17T13:20:38Z</time>
      </trkpt>
      <trkpt lat="46.15626" lon="4.53905">
        <ele>589</ele>
        <time>2020-10-17T13:20:39Z</time>
      </trkpt>
      <trkpt lat="46.15628" lon="4.53907">
        <ele>589</ele>
        <time>2020-10-17T13:20:40Z</time>
      </trkpt>
      <trkpt lat="46.1563" lon="4.5391">
        <ele>588.6</ele>
        <time>2020-10-17T13:20:41Z</time>
      </trkpt>
      <trkpt lat="46.15632" lon="4.53912">
        <ele>588.2</ele>
        <time>2020-10-17T13:20:42Z</time>
      </trkpt>
      <trkpt lat="46.15633" lon="4.53915">
        <ele>587.8</ele>
        <time>2020-10-17T13:20:43Z</time>
      </trkpt>
      <trkpt lat="46.15635" lon="4.53918">
        <ele>587.4</ele>
        <time>2020-10-17T13:20:44Z</time>
      </trkpt>
      <trkpt lat="46.15637" lon="4.5392">
        <ele>587.2</ele>
        <time>2020-10-17T13:20:45Z</time>
      </trkpt>
      <trkpt lat="46.15638" lon="4.53923">
        <ele>586.4</ele>
        <time>2020-10-17T13:20:46Z</time>
      </trkpt>
      <trkpt lat="46.1564" lon="4.53925">
        <ele>586</ele>
        <time>2020-10-17T13:20:47Z</time>
      </trkpt>
      <trkpt lat="46.15642" lon="4.53927">
        <ele>586</ele>
        <time>2020-10-17T13:20:48Z</time>
      </trkpt>
      <trkpt lat="46.15644" lon="4.53929">
        <ele>585.6</ele>
        <time>2020-10-17T13:20:49Z</time>
      </trkpt>
      <trkpt lat="46.15645" lon="4.53932">
        <ele>585.2</ele>
        <time>2020-10-17T13:20:50Z</time>
      </trkpt>
      <trkpt lat="46.15647" lon="4.53934">
        <ele>585.2</ele>
        <time>2020-10-17T13:20:51Z</time>
      </trkpt>
      <trkpt lat="46.15649" lon="4.53937">
        <ele>584.8</ele>
        <time>2020-10-17T13:20:52Z</time>
      </trkpt>
      <trkpt lat="46.15651" lon="4.53939">
        <ele>584.2</ele>
        <time>2020-10-17T13:20:53Z</time>
      </trkpt>
      <trkpt lat="46.15653" lon="4.53941">
        <ele>584</ele>
        <time>2020-10-17T13:20:54Z</time>
      </trkpt>
      <trkpt lat="46.15655" lon="4.53944">
        <ele>583.8</ele>
        <time>2020-10-17T13:20:55Z</time>
      </trkpt>
      <trkpt lat="46.15657" lon="4.53947">
        <ele>583.8</ele>
        <time>2020-10-17T13:20:56Z</time>
      </trkpt>
      <trkpt lat="46.15659" lon="4.53951">
        <ele>583.2</ele>
        <time>2020-10-17T13:20:57Z</time>
      </trkpt>
      <trkpt lat="46.1566" lon="4.53956">
        <ele>583</ele>
        <time>2020-10-17T13:20:58Z</time>
      </trkpt>
      <trkpt lat="46.15662" lon="4.5396">
        <ele>582.4</ele>
        <time>2020-10-17T13:20:59Z</time>
      </trkpt>
      <trkpt lat="46.15664" lon="4.53964">
        <ele>582</ele>
        <time>2020-10-17T13:21:00Z</time>
      </trkpt>
      <trkpt lat="46.15665" lon="4.53968">
        <ele>581.2</ele>
        <time>2020-10-17T13:21:01Z</time>
      </trkpt>
      <trkpt lat="46.15667" lon="4.53971">
        <ele>581</ele>
        <time>2020-10-17T13:21:02Z</time>
      </trkpt>
      <trkpt lat="46.1567" lon="4.53974">
        <ele>580</ele>
        <time>2020-10-17T13:21:03Z</time>
      </trkpt>
      <trkpt lat="46.15671" lon="4.53977">
        <ele>579.4</ele>
        <time>2020-10-17T13:21:04Z</time>
      </trkpt>
      <trkpt lat="46.15673" lon="4.5398">
        <ele>578.8</ele>
        <time>2020-10-17T13:21:05Z</time>
      </trkpt>
      <trkpt lat="46.15676" lon="4.53982">
        <ele>578.2</ele>
        <time>2020-10-17T13:21:06Z</time>
      </trkpt>
      <trkpt lat="46.15679" lon="4.53984">
        <ele>577</ele>
        <time>2020-10-17T13:21:07Z</time>
      </trkpt>
      <trkpt lat="46.15681" lon="4.53986">
        <ele>576.2</ele>
        <time>2020-10-17T13:21:08Z</time>
      </trkpt>
      <trkpt lat="46.15684" lon="4.53988">
        <ele>576.2</ele>
        <time>2020-10-17T13:21:09Z</time>
      </trkpt>
      <trkpt lat="46.15687" lon="4.53989">
        <ele>575.6</ele>
        <time>2020-10-17T13:21:10Z</time>
      </trkpt>
      <trkpt lat="46.15689" lon="4.53991">
        <ele>575.2</ele>
        <time>2020-10-17T13:21:11Z</time>
      </trkpt>
      <trkpt lat="46.15692" lon="4.53992">
        <ele>575.2</ele>
        <time>2020-10-17T13:21:12Z</time>
      </trkpt>
      <trkpt lat="46.15695" lon="4.53993">
        <ele>574.6</ele>
        <time>2020-10-17T13:21:13Z</time>
      </trkpt>
      <trkpt lat="46.15697" lon="4.53994">
        <ele>574</ele>
        <time>2020-10-17T13:21:14Z</time>
      </trkpt>
      <trkpt lat="46.157" lon="4.53995">
        <ele>574.2</ele>
        <time>2020-10-17T13:21:15Z</time>
      </trkpt>
      <trkpt lat="46.15703" lon="4.53996">
        <ele>573.4</ele>
        <time>2020-10-17T13:21:16Z</time>
      </trkpt>
      <trkpt lat="46.15705" lon="4.53996">
        <ele>573</ele>
        <time>2020-10-17T13:21:17Z</time>
      </trkpt>
      <trkpt lat="46.15707" lon="4.53996">
        <ele>572.4</ele>
        <time>2020-10-17T13:21:18Z</time>
      </trkpt>
      <trkpt lat="46.1571" lon="4.53996">
        <ele>571.6</ele>
        <time>2020-10-17T13:21:19Z</time>
      </trkpt>
      <trkpt lat="46.15712" lon="4.53996">
        <ele>571.4</ele>
        <time>2020-10-17T13:21:20Z</time>
      </trkpt>
      <trkpt lat="46.15716" lon="4.53996">
        <ele>570.6</ele>
        <time>2020-10-17T13:21:21Z</time>
      </trkpt>
      <trkpt lat="46.15719" lon="4.53996">
        <ele>570</ele>
        <time>2020-10-17T13:21:22Z</time>
      </trkpt>
      <trkpt lat="46.15721" lon="4.53997">
        <ele>570</ele>
        <time>2020-10-17T13:21:23Z</time>
      </trkpt>
      <trkpt lat="46.15724" lon="4.53997">
        <ele>569.2</ele>
        <time>2020-10-17T13:21:24Z</time>
      </trkpt>
      <trkpt lat="46.15727" lon="4.53996">
        <ele>568.6</ele>
        <time>2020-10-17T13:21:25Z</time>
      </trkpt>
      <trkpt lat="46.15729" lon="4.53996">
        <ele>568.6</ele>
        <time>2020-10-17T13:21:26Z</time>
      </trkpt>
      <trkpt lat="46.15731" lon="4.53996">
        <ele>567.8</ele>
        <time>2020-10-17T13:21:27Z</time>
      </trkpt>
      <trkpt lat="46.15734" lon="4.53996">
        <ele>567.4</ele>
        <time>2020-10-17T13:21:28Z</time>
      </trkpt>
      <trkpt lat="46.15736" lon="4.53995">
        <ele>566.4</ele>
        <time>2020-10-17T13:21:29Z</time>
      </trkpt>
      <trkpt lat="46.15739" lon="4.53995">
        <ele>566</ele>
        <time>2020-10-17T13:21:30Z</time>
      </trkpt>
      <trkpt lat="46.15742" lon="4.53996">
        <ele>566</ele>
        <time>2020-10-17T13:21:31Z</time>
      </trkpt>
      <trkpt lat="46.15745" lon="4.53996">
        <ele>565.4</ele>
        <time>2020-10-17T13:21:32Z</time>
      </trkpt>
      <trkpt lat="46.15748" lon="4.53996">
        <ele>564.8</ele>
        <time>2020-10-17T13:21:33Z</time>
      </trkpt>
      <trkpt lat="46.15751" lon="4.53995">
        <ele>564.6</ele>
        <time>2020-10-17T13:21:34Z</time>
      </trkpt>
      <trkpt lat="46.15753" lon="4.53996">
        <ele>563.8</ele>
        <time>2020-10-17T13:21:35Z</time>
      </trkpt>
      <trkpt lat="46.15756" lon="4.53997">
        <ele>563.2</ele>
        <time>2020-10-17T13:21:36Z</time>
      </trkpt>
      <trkpt lat="46.15759" lon="4.53997">
        <ele>563.4</ele>
        <time>2020-10-17T13:21:37Z</time>
      </trkpt>
      <trkpt lat="46.15762" lon="4.53997">
        <ele>563</ele>
        <time>2020-10-17T13:21:38Z</time>
      </trkpt>
      <trkpt lat="46.15765" lon="4.53997">
        <ele>562.8</ele>
        <time>2020-10-17T13:21:39Z</time>
      </trkpt>
      <trkpt lat="46.15768" lon="4.53998">
        <ele>562</ele>
        <time>2020-10-17T13:21:40Z</time>
      </trkpt>
      <trkpt lat="46.15771" lon="4.53999">
        <ele>561.6</ele>
        <time>2020-10-17T13:21:41Z</time>
      </trkpt>
      <trkpt lat="46.15774" lon="4.54">
        <ele>561</ele>
        <time>2020-10-17T13:21:42Z</time>
      </trkpt>
      <trkpt lat="46.15777" lon="4.54002">
        <ele>560.2</ele>
        <time>2020-10-17T13:21:43Z</time>
      </trkpt>
      <trkpt lat="46.15781" lon="4.54003">
        <ele>560.2</ele>
        <time>2020-10-17T13:21:44Z</time>
      </trkpt>
      <trkpt lat="46.15783" lon="4.54004">
        <ele>559.6</ele>
        <time>2020-10-17T13:21:45Z</time>
      </trkpt>
      <trkpt lat="46.15786" lon="4.54005">
        <ele>559</ele>
        <time>2020-10-17T13:21:46Z</time>
      </trkpt>
      <trkpt lat="46.15788" lon="4.54007">
        <ele>558.4</ele>
        <time>2020-10-17T13:21:47Z</time>
      </trkpt>
      <trkpt lat="46.1579" lon="4.54008">
        <ele>557.8</ele>
        <time>2020-10-17T13:21:48Z</time>
      </trkpt>
      <trkpt lat="46.15792" lon="4.54008">
        <ele>557.6</ele>
        <time>2020-10-17T13:21:49Z</time>
      </trkpt>
      <trkpt lat="46.15794" lon="4.54008">
        <ele>557</ele>
        <time>2020-10-17T13:21:50Z</time>
      </trkpt>
      <trkpt lat="46.15796" lon="4.54008">
        <ele>556.4</ele>
        <time>2020-10-17T13:21:51Z</time>
      </trkpt>
      <trkpt lat="46.15798" lon="4.54008">
        <ele>556.2</ele>
        <time>2020-10-17T13:21:52Z</time>
      </trkpt>
      <trkpt lat="46.15801" lon="4.54008">
        <ele>555.4</ele>
        <time>2020-10-17T13:21:53Z</time>
      </trkpt>
      <trkpt lat="46.15803" lon="4.54008">
        <ele>555</ele>
        <time>2020-10-17T13:21:54Z</time>
      </trkpt>
      <trkpt lat="46.15805" lon="4.54008">
        <ele>554.2</ele>
        <time>2020-10-17T13:21:55Z</time>
      </trkpt>
      <trkpt lat="46.15808" lon="4.54009">
        <ele>553.6</ele>
        <time>2020-10-17T13:21:56Z</time>
      </trkpt>
      <trkpt lat="46.1581" lon="4.5401">
        <ele>553.4</ele>
        <time>2020-10-17T13:21:57Z</time>
      </trkpt>
      <trkpt lat="46.15813" lon="4.5401">
        <ele>552.8</ele>
        <time>2020-10-17T13:21:58Z</time>
      </trkpt>
      <trkpt lat="46.15816" lon="4.5401">
        <ele>552.4</ele>
        <time>2020-10-17T13:21:59Z</time>
      </trkpt>
      <trkpt lat="46.15818" lon="4.54011">
        <ele>551.8</ele>
        <time>2020-10-17T13:22:00Z</time>
      </trkpt>
      <trkpt lat="46.1582" lon="4.54011">
        <ele>551.2</ele>
        <time>2020-10-17T13:22:01Z</time>
      </trkpt>
      <trkpt lat="46.15823" lon="4.54012">
        <ele>551.2</ele>
        <time>2020-10-17T13:22:02Z</time>
      </trkpt>
      <trkpt lat="46.15825" lon="4.54012">
        <ele>550.6</ele>
        <time>2020-10-17T13:22:03Z</time>
      </trkpt>
      <trkpt lat="46.15828" lon="4.54013">
        <ele>550.4</ele>
        <time>2020-10-17T13:22:04Z</time>
      </trkpt>
      <trkpt lat="46.1583" lon="4.54014">
        <ele>549.2</ele>
        <time>2020-10-17T13:22:05Z</time>
      </trkpt>
      <trkpt lat="46.15833" lon="4.54015">
        <ele>548.4</ele>
        <time>2020-10-17T13:22:06Z</time>
      </trkpt>
      <trkpt lat="46.15836" lon="4.54017">
        <ele>548.4</ele>
        <time>2020-10-17T13:22:07Z</time>
      </trkpt>
      <trkpt lat="46.1584" lon="4.54018">
        <ele>547.8</ele>
        <time>2020-10-17T13:22:08Z</time>
      </trkpt>
      <trkpt lat="46.15843" lon="4.5402">
        <ele>547.6</ele>
        <time>2020-10-17T13:22:09Z</time>
      </trkpt>
      <trkpt lat="46.15845" lon="4.54022">
        <ele>547</ele>
        <time>2020-10-17T13:22:10Z</time>
      </trkpt>
      <trkpt lat="46.15848" lon="4.54026">
        <ele>546.2</ele>
        <time>2020-10-17T13:22:11Z</time>
      </trkpt>
      <trkpt lat="46.1585" lon="4.54028">
        <ele>546</ele>
        <time>2020-10-17T13:22:12Z</time>
      </trkpt>
      <trkpt lat="46.15852" lon="4.54032">
        <ele>545.4</ele>
        <time>2020-10-17T13:22:13Z</time>
      </trkpt>
      <trkpt lat="46.15853" lon="4.54036">
        <ele>544.6</ele>
        <time>2020-10-17T13:22:14Z</time>
      </trkpt>
      <trkpt lat="46.15855" lon="4.5404">
        <ele>544.4</ele>
        <time>2020-10-17T13:22:15Z</time>
      </trkpt>
      <trkpt lat="46.15856" lon="4.54044">
        <ele>544</ele>
        <time>2020-10-17T13:22:16Z</time>
      </trkpt>
      <trkpt lat="46.15857" lon="4.54047">
        <ele>543.6</ele>
        <time>2020-10-17T13:22:17Z</time>
      </trkpt>
      <trkpt lat="46.15859" lon="4.5405">
        <ele>543.2</ele>
        <time>2020-10-17T13:22:18Z</time>
      </trkpt>
      <trkpt lat="46.15861" lon="4.54053">
        <ele>542.6</ele>
        <time>2020-10-17T13:22:19Z</time>
      </trkpt>
      <trkpt lat="46.15863" lon="4.54056">
        <ele>542.4</ele>
        <time>2020-10-17T13:22:20Z</time>
      </trkpt>
      <trkpt lat="46.15865" lon="4.54058">
        <ele>541.8</ele>
        <time>2020-10-17T13:22:21Z</time>
      </trkpt>
      <trkpt lat="46.15866" lon="4.54061">
        <ele>541.4</ele>
        <time>2020-10-17T13:22:22Z</time>
      </trkpt>
      <trkpt lat="46.15868" lon="4.54063">
        <ele>541.6</ele>
        <time>2020-10-17T13:22:23Z</time>
      </trkpt>
      <trkpt lat="46.1587" lon="4.54066">
        <ele>540.8</ele>
        <time>2020-10-17T13:22:24Z</time>
      </trkpt>
      <trkpt lat="46.15872" lon="4.54067">
        <ele>540.2</ele>
        <time>2020-10-17T13:22:25Z</time>
      </trkpt>
      <trkpt lat="46.15874" lon="4.54069">
        <ele>539.8</ele>
        <time>2020-10-17T13:22:26Z</time>
      </trkpt>
      <trkpt lat="46.15876" lon="4.54071">
        <ele>539.4</ele>
        <time>2020-10-17T13:22:27Z</time>
      </trkpt>
      <trkpt lat="46.15879" lon="4.54073">
        <ele>539.2</ele>
        <time>2020-10-17T13:22:28Z</time>
      </trkpt>
      <trkpt lat="46.15881" lon="4.54075">
        <ele>539</ele>
        <time>2020-10-17T13:22:29Z</time>
      </trkpt>
      <trkpt lat="46.15883" lon="4.54076">
        <ele>538</ele>
        <time>2020-10-17T13:22:30Z</time>
      </trkpt>
      <trkpt lat="46.15885" lon="4.54078">
        <ele>537.6</ele>
        <time>2020-10-17T13:22:31Z</time>
      </trkpt>
      <trkpt lat="46.15888" lon="4.5408">
        <ele>537.2</ele>
        <time>2020-10-17T13:22:32Z</time>
      </trkpt>
      <trkpt lat="46.1589" lon="4.54082">
        <ele>536.8</ele>
        <time>2020-10-17T13:22:33Z</time>
      </trkpt>
      <trkpt lat="46.15892" lon="4.54084">
        <ele>536.8</ele>
        <time>2020-10-17T13:22:34Z</time>
      </trkpt>
      <trkpt lat="46.15895" lon="4.54086">
        <ele>536.4</ele>
        <time>2020-10-17T13:22:35Z</time>
      </trkpt>
      <trkpt lat="46.15897" lon="4.54087">
        <ele>536</ele>
        <time>2020-10-17T13:22:36Z</time>
      </trkpt>
      <trkpt lat="46.15899" lon="4.54089">
        <ele>536</ele>
        <time>2020-10-17T13:22:37Z</time>
      </trkpt>
      <trkpt lat="46.15901" lon="4.54092">
        <ele>535.6</ele>
        <time>2020-10-17T13:22:38Z</time>
      </trkpt>
      <trkpt lat="46.15903" lon="4.54095">
        <ele>535.4</ele>
        <time>2020-10-17T13:22:39Z</time>
      </trkpt>
      <trkpt lat="46.15905" lon="4.54096">
        <ele>535.2</ele>
        <time>2020-10-17T13:22:40Z</time>
      </trkpt>
      <trkpt lat="46.15908" lon="4.54097">
        <ele>534.8</ele>
        <time>2020-10-17T13:22:41Z</time>
      </trkpt>
      <trkpt lat="46.15911" lon="4.54098">
        <ele>534.6</ele>
        <time>2020-10-17T13:22:42Z</time>
      </trkpt>
      <trkpt lat="46.15913" lon="4.541">
        <ele>534.4</ele>
        <time>2020-10-17T13:22:43Z</time>
      </trkpt>
      <trkpt lat="46.15916" lon="4.54101">
        <ele>533.8</ele>
        <time>2020-10-17T13:22:44Z</time>
      </trkpt>
      <trkpt lat="46.15919" lon="4.54103">
        <ele>533.6</ele>
        <time>2020-10-17T13:22:45Z</time>
      </trkpt>
      <trkpt lat="46.15921" lon="4.54104">
        <ele>533</ele>
        <time>2020-10-17T13:22:46Z</time>
      </trkpt>
      <trkpt lat="46.15924" lon="4.54105">
        <ele>532.6</ele>
        <time>2020-10-17T13:22:47Z</time>
      </trkpt>
      <trkpt lat="46.15927" lon="4.54107">
        <ele>532.8</ele>
        <time>2020-10-17T13:22:48Z</time>
      </trkpt>
      <trkpt lat="46.15929" lon="4.54109">
        <ele>532.4</ele>
        <time>2020-10-17T13:22:49Z</time>
      </trkpt>
      <trkpt lat="46.15932" lon="4.54112">
        <ele>531.8</ele>
        <time>2020-10-17T13:22:50Z</time>
      </trkpt>
      <trkpt lat="46.15934" lon="4.54115">
        <ele>531.8</ele>
        <time>2020-10-17T13:22:51Z</time>
      </trkpt>
      <trkpt lat="46.15936" lon="4.54118">
        <ele>531</ele>
        <time>2020-10-17T13:22:52Z</time>
      </trkpt>
      <trkpt lat="46.15938" lon="4.54121">
        <ele>531</ele>
        <time>2020-10-17T13:22:53Z</time>
      </trkpt>
      <trkpt lat="46.15939" lon="4.54124">
        <ele>531</ele>
        <time>2020-10-17T13:22:54Z</time>
      </trkpt>
      <trkpt lat="46.15941" lon="4.54127">
        <ele>530.4</ele>
        <time>2020-10-17T13:22:55Z</time>
      </trkpt>
      <trkpt lat="46.15943" lon="4.5413">
        <ele>530</ele>
        <time>2020-10-17T13:22:56Z</time>
      </trkpt>
      <trkpt lat="46.15944" lon="4.54133">
        <ele>530.4</ele>
        <time>2020-10-17T13:22:57Z</time>
      </trkpt>
      <trkpt lat="46.15946" lon="4.54135">
        <ele>529.8</ele>
        <time>2020-10-17T13:22:58Z</time>
      </trkpt>
      <trkpt lat="46.15948" lon="4.54138">
        <ele>529.4</ele>
        <time>2020-10-17T13:22:59Z</time>
      </trkpt>
      <trkpt lat="46.1595" lon="4.54141">
        <ele>529.6</ele>
        <time>2020-10-17T13:23:00Z</time>
      </trkpt>
      <trkpt lat="46.15952" lon="4.54144">
        <ele>529</ele>
        <time>2020-10-17T13:23:01Z</time>
      </trkpt>
      <trkpt lat="46.15955" lon="4.54147">
        <ele>528.8</ele>
        <time>2020-10-17T13:23:02Z</time>
      </trkpt>
      <trkpt lat="46.15957" lon="4.5415">
        <ele>529</ele>
        <time>2020-10-17T13:23:03Z</time>
      </trkpt>
      <trkpt lat="46.15959" lon="4.54153">
        <ele>528.6</ele>
        <time>2020-10-17T13:23:04Z</time>
      </trkpt>
      <trkpt lat="46.15961" lon="4.54156">
        <ele>528.2</ele>
        <time>2020-10-17T13:23:05Z</time>
      </trkpt>
      <trkpt lat="46.15964" lon="4.54159">
        <ele>528.2</ele>
        <time>2020-10-17T13:23:06Z</time>
      </trkpt>
      <trkpt lat="46.15966" lon="4.54161">
        <ele>528</ele>
        <time>2020-10-17T13:23:07Z</time>
      </trkpt>
      <trkpt lat="46.15968" lon="4.54163">
        <ele>527.2</ele>
        <time>2020-10-17T13:23:08Z</time>
      </trkpt>
      <trkpt lat="46.1597" lon="4.54166">
        <ele>527.6</ele>
        <time>2020-10-17T13:23:09Z</time>
      </trkpt>
      <trkpt lat="46.15973" lon="4.54167">
        <ele>527</ele>
        <time>2020-10-17T13:23:10Z</time>
      </trkpt>
      <trkpt lat="46.15975" lon="4.54169">
        <ele>526.4</ele>
        <time>2020-10-17T13:23:11Z</time>
      </trkpt>
      <trkpt lat="46.15977" lon="4.54171">
        <ele>526.8</ele>
        <time>2020-10-17T13:23:12Z</time>
      </trkpt>
      <trkpt lat="46.15979" lon="4.54173">
        <ele>526.4</ele>
        <time>2020-10-17T13:23:13Z</time>
      </trkpt>
      <trkpt lat="46.15981" lon="4.54175">
        <ele>525.8</ele>
        <time>2020-10-17T13:23:14Z</time>
      </trkpt>
      <trkpt lat="46.15983" lon="4.54177">
        <ele>526.2</ele>
        <time>2020-10-17T13:23:15Z</time>
      </trkpt>
      <trkpt lat="46.15985" lon="4.54179">
        <ele>525.8</ele>
        <time>2020-10-17T13:23:16Z</time>
      </trkpt>
      <trkpt lat="46.15987" lon="4.54182">
        <ele>525.2</ele>
        <time>2020-10-17T13:23:17Z</time>
      </trkpt>
      <trkpt lat="46.15989" lon="4.54184">
        <ele>525.4</ele>
        <time>2020-10-17T13:23:18Z</time>
      </trkpt>
      <trkpt lat="46.15991" lon="4.54187">
        <ele>525</ele>
        <time>2020-10-17T13:23:19Z</time>
      </trkpt>
      <trkpt lat="46.15993" lon="4.5419">
        <ele>524.8</ele>
        <time>2020-10-17T13:23:20Z</time>
      </trkpt>
      <trkpt lat="46.15995" lon="4.54193">
        <ele>524.8</ele>
        <time>2020-10-17T13:23:21Z</time>
      </trkpt>
      <trkpt lat="46.15997" lon="4.54196">
        <ele>524.6</ele>
        <time>2020-10-17T13:23:22Z</time>
      </trkpt>
      <trkpt lat="46.15998" lon="4.542">
        <ele>524.6</ele>
        <time>2020-10-17T13:23:23Z</time>
      </trkpt>
      <trkpt lat="46.16" lon="4.54203">
        <ele>524.6</ele>
        <time>2020-10-17T13:23:24Z</time>
      </trkpt>
      <trkpt lat="46.16002" lon="4.54206">
        <ele>524.4</ele>
        <time>2020-10-17T13:23:25Z</time>
      </trkpt>
      <trkpt lat="46.16004" lon="4.54209">
        <ele>524.4</ele>
        <time>2020-10-17T13:23:26Z</time>
      </trkpt>
      <trkpt lat="46.16006" lon="4.54212">
        <ele>524</ele>
        <time>2020-10-17T13:23:27Z</time>
      </trkpt>
      <trkpt lat="46.16008" lon="4.54215">
        <ele>523.6</ele>
        <time>2020-10-17T13:23:28Z</time>
      </trkpt>
      <trkpt lat="46.1601" lon="4.54219">
        <ele>523.8</ele>
        <time>2020-10-17T13:23:29Z</time>
      </trkpt>
      <trkpt lat="46.16012" lon="4.54221">
        <ele>523.6</ele>
        <time>2020-10-17T13:23:30Z</time>
      </trkpt>
      <trkpt lat="46.16014" lon="4.54224">
        <ele>523.2</ele>
        <time>2020-10-17T13:23:31Z</time>
      </trkpt>
      <trkpt lat="46.16016" lon="4.54227">
        <ele>523.4</ele>
        <time>2020-10-17T13:23:32Z</time>
      </trkpt>
      <trkpt lat="46.16018" lon="4.5423">
        <ele>523</ele>
        <time>2020-10-17T13:23:33Z</time>
      </trkpt>
      <trkpt lat="46.16019" lon="4.54232">
        <ele>523</ele>
        <time>2020-10-17T13:23:34Z</time>
      </trkpt>
      <trkpt lat="46.16021" lon="4.54235">
        <ele>523.2</ele>
        <time>2020-10-17T13:23:35Z</time>
      </trkpt>
      <trkpt lat="46.16023" lon="4.54237">
        <ele>522.8</ele>
        <time>2020-10-17T13:23:36Z</time>
      </trkpt>
      <trkpt lat="46.16024" lon="4.54239">
        <ele>522.4</ele>
        <time>2020-10-17T13:23:37Z</time>
      </trkpt>
      <trkpt lat="46.16026" lon="4.54241">
        <ele>522.8</ele>
        <time>2020-10-17T13:23:38Z</time>
      </trkpt>
      <trkpt lat="46.16028" lon="4.54243">
        <ele>522.6</ele>
        <time>2020-10-17T13:23:39Z</time>
      </trkpt>
      <trkpt lat="46.1603" lon="4.54245">
        <ele>522.2</ele>
        <time>2020-10-17T13:23:40Z</time>
      </trkpt>
      <trkpt lat="46.16031" lon="4.54247">
        <ele>522.8</ele>
        <time>2020-10-17T13:23:41Z</time>
      </trkpt>
      <trkpt lat="46.16033" lon="4.5425">
        <ele>522.6</ele>
        <time>2020-10-17T13:23:42Z</time>
      </trkpt>
      <trkpt lat="46.16035" lon="4.54253">
        <ele>522.4</ele>
        <time>2020-10-17T13:23:43Z</time>
      </trkpt>
      <trkpt lat="46.16036" lon="4.54256">
        <ele>522.8</ele>
        <time>2020-10-17T13:23:44Z</time>
      </trkpt>
      <trkpt lat="46.16038" lon="4.5426">
        <ele>522.4</ele>
        <time>2020-10-17T13:23:45Z</time>
      </trkpt>
      <trkpt lat="46.1604" lon="4.54263">
        <ele>522</ele>
        <time>2020-10-17T13:23:46Z</time>
      </trkpt>
      <trkpt lat="46.16041" lon="4.54267">
        <ele>522.2</ele>
        <time>2020-10-17T13:23:47Z</time>
      </trkpt>
      <trkpt lat="46.16042" lon="4.5427">
        <ele>522.4</ele>
        <time>2020-10-17T13:23:48Z</time>
      </trkpt>
      <trkpt lat="46.16043" lon="4.54274">
        <ele>521.8</ele>
        <time>2020-10-17T13:23:49Z</time>
      </trkpt>
      <trkpt lat="46.16044" lon="4.54278">
        <ele>522.2</ele>
        <time>2020-10-17T13:23:50Z</time>
      </trkpt>
      <trkpt lat="46.16045" lon="4.54282">
        <ele>522</ele>
        <time>2020-10-17T13:23:51Z</time>
      </trkpt>
      <trkpt lat="46.16047" lon="4.54285">
        <ele>521.8</ele>
        <time>2020-10-17T13:23:52Z</time>
      </trkpt>
      <trkpt lat="46.16048" lon="4.54289">
        <ele>522.4</ele>
        <time>2020-10-17T13:23:53Z</time>
      </trkpt>
      <trkpt lat="46.16049" lon="4.54293">
        <ele>522</ele>
        <time>2020-10-17T13:23:54Z</time>
      </trkpt>
      <trkpt lat="46.16051" lon="4.54296">
        <ele>522</ele>
        <time>2020-10-17T13:23:55Z</time>
      </trkpt>
      <trkpt lat="46.16052" lon="4.54299">
        <ele>522.4</ele>
        <time>2020-10-17T13:23:56Z</time>
      </trkpt>
      <trkpt lat="46.16053" lon="4.54303">
        <ele>522.2</ele>
        <time>2020-10-17T13:23:57Z</time>
      </trkpt>
      <trkpt lat="46.16054" lon="4.54306">
        <ele>521.8</ele>
        <time>2020-10-17T13:23:58Z</time>
      </trkpt>
      <trkpt lat="46.16055" lon="4.54308">
        <ele>522</ele>
        <time>2020-10-17T13:23:59Z</time>
      </trkpt>
      <trkpt lat="46.16056" lon="4.54312">
        <ele>522</ele>
        <time>2020-10-17T13:24:00Z</time>
      </trkpt>
      <trkpt lat="46.16057" lon="4.54315">
        <ele>522</ele>
        <time>2020-10-17T13:24:01Z</time>
      </trkpt>
      <trkpt lat="46.16058" lon="4.54318">
        <ele>522.2</ele>
        <time>2020-10-17T13:24:02Z</time>
      </trkpt>
      <trkpt lat="46.16059" lon="4.54321">
        <ele>522</ele>
        <time>2020-10-17T13:24:03Z</time>
      </trkpt>
      <trkpt lat="46.1606" lon="4.54324">
        <ele>521.6</ele>
        <time>2020-10-17T13:24:04Z</time>
      </trkpt>
      <trkpt lat="46.16061" lon="4.54327">
        <ele>522.2</ele>
        <time>2020-10-17T13:24:05Z</time>
      </trkpt>
      <trkpt lat="46.16062" lon="4.54331">
        <ele>521.8</ele>
        <time>2020-10-17T13:24:06Z</time>
      </trkpt>
      <trkpt lat="46.16063" lon="4.54334">
        <ele>521.8</ele>
        <time>2020-10-17T13:24:07Z</time>
      </trkpt>
      <trkpt lat="46.16064" lon="4.54337">
        <ele>521.8</ele>
        <time>2020-10-17T13:24:08Z</time>
      </trkpt>
      <trkpt lat="46.16065" lon="4.5434">
        <ele>521.6</ele>
        <time>2020-10-17T13:24:09Z</time>
      </trkpt>
      <trkpt lat="46.16065" lon="4.54344">
        <ele>521.6</ele>
        <time>2020-10-17T13:24:10Z</time>
      </trkpt>
      <trkpt lat="46.16066" lon="4.54348">
        <ele>521.6</ele>
        <time>2020-10-17T13:24:11Z</time>
      </trkpt>
      <trkpt lat="46.16066" lon="4.54351">
        <ele>521.4</ele>
        <time>2020-10-17T13:24:12Z</time>
      </trkpt>
      <trkpt lat="46.16067" lon="4.54355">
        <ele>521.6</ele>
        <time>2020-10-17T13:24:13Z</time>
      </trkpt>
      <trkpt lat="46.16068" lon="4.54359">
        <ele>521.4</ele>
        <time>2020-10-17T13:24:14Z</time>
      </trkpt>
      <trkpt lat="46.16069" lon="4.54363">
        <ele>521.6</ele>
        <time>2020-10-17T13:24:15Z</time>
      </trkpt>
      <trkpt lat="46.16069" lon="4.54367">
        <ele>521.6</ele>
        <time>2020-10-17T13:24:16Z</time>
      </trkpt>
      <trkpt lat="46.1607" lon="4.54371">
        <ele>521.4</ele>
        <time>2020-10-17T13:24:17Z</time>
      </trkpt>
      <trkpt lat="46.16071" lon="4.54376">
        <ele>521.2</ele>
        <time>2020-10-17T13:24:18Z</time>
      </trkpt>
      <trkpt lat="46.16071" lon="4.54379">
        <ele>521.2</ele>
        <time>2020-10-17T13:24:19Z</time>
      </trkpt>
      <trkpt lat="46.16072" lon="4.54382">
        <ele>521.2</ele>
        <time>2020-10-17T13:24:20Z</time>
      </trkpt>
      <trkpt lat="46.16073" lon="4.54385">
        <ele>521</ele>
        <time>2020-10-17T13:24:21Z</time>
      </trkpt>
      <trkpt lat="46.16074" lon="4.54389">
        <ele>521.4</ele>
        <time>2020-10-17T13:24:22Z</time>
      </trkpt>
      <trkpt lat="46.16074" lon="4.54392">
        <ele>521.2</ele>
        <time>2020-10-17T13:24:23Z</time>
      </trkpt>
      <trkpt lat="46.16075" lon="4.54396">
        <ele>521.2</ele>
        <time>2020-10-17T13:24:24Z</time>
      </trkpt>
      <trkpt lat="46.16076" lon="4.544">
        <ele>521.2</ele>
        <time>2020-10-17T13:24:25Z</time>
      </trkpt>
      <trkpt lat="46.16077" lon="4.54404">
        <ele>521</ele>
        <time>2020-10-17T13:24:26Z</time>
      </trkpt>
      <trkpt lat="46.16078" lon="4.54407">
        <ele>520.8</ele>
        <time>2020-10-17T13:24:27Z</time>
      </trkpt>
      <trkpt lat="46.16078" lon="4.54411">
        <ele>521</ele>
        <time>2020-10-17T13:24:28Z</time>
      </trkpt>
      <trkpt lat="46.16079" lon="4.54414">
        <ele>520.8</ele>
        <time>2020-10-17T13:24:29Z</time>
      </trkpt>
      <trkpt lat="46.1608" lon="4.54416">
        <ele>520.4</ele>
        <time>2020-10-17T13:24:30Z</time>
      </trkpt>
      <trkpt lat="46.1608" lon="4.54416">
        <ele>520.2</ele>
        <time>2020-10-17T13:24:31Z</time>
      </trkpt>
      <trkpt lat="46.16081" lon="4.5442">
        <ele>520.2</ele>
        <time>2020-10-17T13:24:32Z</time>
      </trkpt>
      <trkpt lat="46.16081" lon="4.5442">
        <ele>519.4</ele>
        <time>2020-10-17T13:24:33Z</time>
      </trkpt>
      <trkpt lat="46.1608" lon="4.54422">
        <ele>519</ele>
        <time>2020-10-17T13:24:34Z</time>
      </trkpt>
      <trkpt lat="46.1608" lon="4.54422">
        <ele>518.8</ele>
        <time>2020-10-17T13:24:35Z</time>
      </trkpt>
      <trkpt lat="46.16077" lon="4.54425">
        <ele>518.2</ele>
        <time>2020-10-17T13:24:36Z</time>
      </trkpt>
      <trkpt lat="46.16074" lon="4.54427">
        <ele>518</ele>
        <time>2020-10-17T13:24:37Z</time>
      </trkpt>
      <trkpt lat="46.16071" lon="4.54428">
        <ele>517.8</ele>
        <time>2020-10-17T13:24:38Z</time>
      </trkpt>
      <trkpt lat="46.16069" lon="4.54429">
        <ele>517.6</ele>
        <time>2020-10-17T13:24:39Z</time>
      </trkpt>
      <trkpt lat="46.16066" lon="4.54428">
        <ele>517.6</ele>
        <time>2020-10-17T13:24:40Z</time>
      </trkpt>
      <trkpt lat="46.16063" lon="4.54428">
        <ele>517.8</ele>
        <time>2020-10-17T13:24:41Z</time>
      </trkpt>
      <trkpt lat="46.1606" lon="4.54427">
        <ele>517.6</ele>
        <time>2020-10-17T13:24:42Z</time>
      </trkpt>
      <trkpt lat="46.16058" lon="4.54426">
        <ele>517.2</ele>
        <time>2020-10-17T13:24:43Z</time>
      </trkpt>
      <trkpt lat="46.16056" lon="4.54424">
        <ele>517.4</ele>
        <time>2020-10-17T13:24:44Z</time>
      </trkpt>
      <trkpt lat="46.16054" lon="4.54422">
        <ele>517.2</ele>
        <time>2020-10-17T13:24:45Z</time>
      </trkpt>
      <trkpt lat="46.16052" lon="4.5442">
        <ele>517.2</ele>
        <time>2020-10-17T13:24:46Z</time>
      </trkpt>
      <trkpt lat="46.16051" lon="4.54417">
        <ele>517</ele>
        <time>2020-10-17T13:24:47Z</time>
      </trkpt>
      <trkpt lat="46.1605" lon="4.54415">
        <ele>516.4</ele>
        <time>2020-10-17T13:24:48Z</time>
      </trkpt>
      <trkpt lat="46.1605" lon="4.54415">
        <ele>516</ele>
        <time>2020-10-17T13:24:49Z</time>
      </trkpt>
      <trkpt lat="46.16049" lon="4.54411">
        <ele>516</ele>
        <time>2020-10-17T13:24:50Z</time>
      </trkpt>
      <trkpt lat="46.16049" lon="4.54411">
        <ele>515.6</ele>
        <time>2020-10-17T13:24:51Z</time>
      </trkpt>
      <trkpt lat="46.16047" lon="4.54408">
        <ele>515.4</ele>
        <time>2020-10-17T13:24:52Z</time>
      </trkpt>
      <trkpt lat="46.16047" lon="4.54408">
        <ele>515.6</ele>
        <time>2020-10-17T13:24:53Z</time>
      </trkpt>
      <trkpt lat="46.16046" lon="4.54407">
        <ele>515.6</ele>
        <time>2020-10-17T13:24:54Z</time>
      </trkpt>
      <trkpt lat="46.16046" lon="4.54407">
        <ele>515.4</ele>
        <time>2020-10-17T13:24:55Z</time>
      </trkpt>
      <trkpt lat="46.16044" lon="4.54406">
        <ele>515.4</ele>
        <time>2020-10-17T13:24:56Z</time>
      </trkpt>
      <trkpt lat="46.16044" lon="4.54406">
        <ele>515.2</ele>
        <time>2020-10-17T13:24:57Z</time>
      </trkpt>
      <trkpt lat="46.16044" lon="4.54406">
        <ele>515</ele>
        <time>2020-10-17T13:24:58Z</time>
      </trkpt>
      <trkpt lat="46.16044" lon="4.54406">
        <ele>514.8</ele>
        <time>2020-10-17T13:24:59Z</time>
      </trkpt>
      <trkpt lat="46.16044" lon="4.54406">
        <ele>514.6</ele>
        <time>2020-10-17T13:25:00Z</time>
      </trkpt>
      <trkpt lat="46.16044" lon="4.54406">
        <ele>514.4</ele>
        <time>2020-10-17T13:25:01Z</time>
      </trkpt>
      <trkpt lat="46.16044" lon="4.54406">
        <ele>514.2</ele>
        <time>2020-10-17T13:25:02Z</time>
      </trkpt>
      <trkpt lat="46.16044" lon="4.54406">
        <ele>514.2</ele>
        <time>2020-10-17T13:25:03Z</time>
      </trkpt>
      <trkpt lat="46.16045" lon="4.54409">
        <ele>514.2</ele>
        <time>2020-10-17T13:25:04Z</time>
      </trkpt>
      <trkpt lat="46.16045" lon="4.54409">
        <ele>514.4</ele>
        <time>2020-10-17T13:25:05Z</time>
      </trkpt>
      <trkpt lat="46.16043" lon="4.54412">
        <ele>514.4</ele>
        <time>2020-10-17T13:25:06Z</time>
      </trkpt>
      <trkpt lat="46.16043" lon="4.54412">
        <ele>514.2</ele>
        <time>2020-10-17T13:25:07Z</time>
      </trkpt>
      <trkpt lat="46.1604" lon="4.54415">
        <ele>513.8</ele>
        <time>2020-10-17T13:25:08Z</time>
      </trkpt>
      <trkpt lat="46.16038" lon="4.54417">
        <ele>513.8</ele>
        <time>2020-10-17T13:25:09Z</time>
      </trkpt>
      <trkpt lat="46.16037" lon="4.54419">
        <ele>513.6</ele>
        <time>2020-10-17T13:25:10Z</time>
      </trkpt>
      <trkpt lat="46.16035" lon="4.54421">
        <ele>513.4</ele>
        <time>2020-10-17T13:25:11Z</time>
      </trkpt>
      <trkpt lat="46.16034" lon="4.54423">
        <ele>512.8</ele>
        <time>2020-10-17T13:25:12Z</time>
      </trkpt>
      <trkpt lat="46.16032" lon="4.54424">
        <ele>512.2</ele>
        <time>2020-10-17T13:25:13Z</time>
      </trkpt>
      <trkpt lat="46.1603" lon="4.54426">
        <ele>512</ele>
        <time>2020-10-17T13:25:14Z</time>
      </trkpt>
      <trkpt lat="46.16029" lon="4.54428">
        <ele>511.4</ele>
        <time>2020-10-17T13:25:15Z</time>
      </trkpt>
      <trkpt lat="46.16028" lon="4.5443">
        <ele>511</ele>
        <time>2020-10-17T13:25:16Z</time>
      </trkpt>
      <trkpt lat="46.16028" lon="4.54433">
        <ele>510.2</ele>
        <time>2020-10-17T13:25:17Z</time>
      </trkpt>
      <trkpt lat="46.16028" lon="4.54436">
        <ele>510</ele>
        <time>2020-10-17T13:25:18Z</time>
      </trkpt>
      <trkpt lat="46.16028" lon="4.54439">
        <ele>509.2</ele>
        <time>2020-10-17T13:25:19Z</time>
      </trkpt>
      <trkpt lat="46.16028" lon="4.54442">
        <ele>508.6</ele>
        <time>2020-10-17T13:25:20Z</time>
      </trkpt>
      <trkpt lat="46.16029" lon="4.54445">
        <ele>508.4</ele>
        <time>2020-10-17T13:25:21Z</time>
      </trkpt>
      <trkpt lat="46.1603" lon="4.54447">
        <ele>508.2</ele>
        <time>2020-10-17T13:25:22Z</time>
      </trkpt>
      <trkpt lat="46.1603" lon="4.54447">
        <ele>507.6</ele>
        <time>2020-10-17T13:25:23Z</time>
      </trkpt>
      <trkpt lat="46.16031" lon="4.54452">
        <ele>507.4</ele>
        <time>2020-10-17T13:25:24Z</time>
      </trkpt>
      <trkpt lat="46.16032" lon="4.54455">
        <ele>507</ele>
        <time>2020-10-17T13:25:25Z</time>
      </trkpt>
      <trkpt lat="46.16032" lon="4.54455">
        <ele>506.8</ele>
        <time>2020-10-17T13:25:26Z</time>
      </trkpt>
      <trkpt lat="46.1603" lon="4.54459">
        <ele>505.8</ele>
        <time>2020-10-17T13:25:27Z</time>
      </trkpt>
      <trkpt lat="46.16028" lon="4.5446">
        <ele>505.4</ele>
        <time>2020-10-17T13:25:28Z</time>
      </trkpt>
      <trkpt lat="46.16025" lon="4.54461">
        <ele>505.4</ele>
        <time>2020-10-17T13:25:29Z</time>
      </trkpt>
      <trkpt lat="46.16022" lon="4.5446">
        <ele>505</ele>
        <time>2020-10-17T13:25:30Z</time>
      </trkpt>
      <trkpt lat="46.1602" lon="4.54459">
        <ele>504.6</ele>
        <time>2020-10-17T13:25:31Z</time>
      </trkpt>
      <trkpt lat="46.16017" lon="4.54458">
        <ele>503.6</ele>
        <time>2020-10-17T13:25:32Z</time>
      </trkpt>
      <trkpt lat="46.16015" lon="4.54458">
        <ele>503</ele>
        <time>2020-10-17T13:25:33Z</time>
      </trkpt>
      <trkpt lat="46.16012" lon="4.54457">
        <ele>502.4</ele>
        <time>2020-10-17T13:25:34Z</time>
      </trkpt>
      <trkpt lat="46.1601" lon="4.54456">
        <ele>502</ele>
        <time>2020-10-17T13:25:35Z</time>
      </trkpt>
      <trkpt lat="46.16008" lon="4.54455">
        <ele>501.2</ele>
        <time>2020-10-17T13:25:36Z</time>
      </trkpt>
      <trkpt lat="46.16005" lon="4.54454">
        <ele>500.6</ele>
        <time>2020-10-17T13:25:37Z</time>
      </trkpt>
      <trkpt lat="46.16002" lon="4.54453">
        <ele>500.6</ele>
        <time>2020-10-17T13:25:38Z</time>
      </trkpt>
      <trkpt lat="46.16001" lon="4.54452">
        <ele>499.8</ele>
        <time>2020-10-17T13:25:39Z</time>
      </trkpt>
      <trkpt lat="46.15999" lon="4.5445">
        <ele>499.6</ele>
        <time>2020-10-17T13:25:40Z</time>
      </trkpt>
      <trkpt lat="46.15997" lon="4.54448">
        <ele>499.2</ele>
        <time>2020-10-17T13:25:41Z</time>
      </trkpt>
      <trkpt lat="46.15995" lon="4.54447">
        <ele>498.8</ele>
        <time>2020-10-17T13:25:42Z</time>
      </trkpt>
      <trkpt lat="46.15993" lon="4.54447">
        <ele>498</ele>
        <time>2020-10-17T13:25:43Z</time>
      </trkpt>
      <trkpt lat="46.15993" lon="4.54447">
        <ele>497.8</ele>
        <time>2020-10-17T13:25:44Z</time>
      </trkpt>
      <trkpt lat="46.15992" lon="4.54452">
        <ele>497.6</ele>
        <time>2020-10-17T13:25:45Z</time>
      </trkpt>
      <trkpt lat="46.15993" lon="4.54455">
        <ele>497</ele>
        <time>2020-10-17T13:25:46Z</time>
      </trkpt>
      <trkpt lat="46.15993" lon="4.54458">
        <ele>496.8</ele>
        <time>2020-10-17T13:25:47Z</time>
      </trkpt>
      <trkpt lat="46.15994" lon="4.5446">
        <ele>496.4</ele>
        <time>2020-10-17T13:25:48Z</time>
      </trkpt>
      <trkpt lat="46.15995" lon="4.54463">
        <ele>495.8</ele>
        <time>2020-10-17T13:25:49Z</time>
      </trkpt>
      <trkpt lat="46.15996" lon="4.54466">
        <ele>495</ele>
        <time>2020-10-17T13:25:50Z</time>
      </trkpt>
      <trkpt lat="46.15997" lon="4.54468">
        <ele>494.4</ele>
        <time>2020-10-17T13:25:51Z</time>
      </trkpt>
      <trkpt lat="46.15998" lon="4.54471">
        <ele>494</ele>
        <time>2020-10-17T13:25:52Z</time>
      </trkpt>
      <trkpt lat="46.15998" lon="4.54474">
        <ele>493.4</ele>
        <time>2020-10-17T13:25:53Z</time>
      </trkpt>
      <trkpt lat="46.15997" lon="4.54478">
        <ele>493.6</ele>
        <time>2020-10-17T13:25:54Z</time>
      </trkpt>
      <trkpt lat="46.15995" lon="4.5448">
        <ele>493</ele>
        <time>2020-10-17T13:25:55Z</time>
      </trkpt>
      <trkpt lat="46.15992" lon="4.5448">
        <ele>492.4</ele>
        <time>2020-10-17T13:25:56Z</time>
      </trkpt>
      <trkpt lat="46.15989" lon="4.54479">
        <ele>491.8</ele>
        <time>2020-10-17T13:25:57Z</time>
      </trkpt>
      <trkpt lat="46.15986" lon="4.54478">
        <ele>491</ele>
        <time>2020-10-17T13:25:58Z</time>
      </trkpt>
      <trkpt lat="46.15984" lon="4.54478">
        <ele>490.6</ele>
        <time>2020-10-17T13:25:59Z</time>
      </trkpt>
      <trkpt lat="46.15982" lon="4.54477">
        <ele>490</ele>
        <time>2020-10-17T13:26:00Z</time>
      </trkpt>
      <trkpt lat="46.15979" lon="4.54476">
        <ele>489.6</ele>
        <time>2020-10-17T13:26:01Z</time>
      </trkpt>
      <trkpt lat="46.15976" lon="4.54475">
        <ele>488.8</ele>
        <time>2020-10-17T13:26:02Z</time>
      </trkpt>
      <trkpt lat="46.15974" lon="4.54474">
        <ele>488</ele>
        <time>2020-10-17T13:26:03Z</time>
      </trkpt>
      <trkpt lat="46.15972" lon="4.54474">
        <ele>487.2</ele>
        <time>2020-10-17T13:26:04Z</time>
      </trkpt>
      <trkpt lat="46.1597" lon="4.54473">
        <ele>486.8</ele>
        <time>2020-10-17T13:26:05Z</time>
      </trkpt>
      <trkpt lat="46.15967" lon="4.54472">
        <ele>486.2</ele>
        <time>2020-10-17T13:26:06Z</time>
      </trkpt>
      <trkpt lat="46.15965" lon="4.54471">
        <ele>486</ele>
        <time>2020-10-17T13:26:07Z</time>
      </trkpt>
      <trkpt lat="46.15962" lon="4.5447">
        <ele>485.4</ele>
        <time>2020-10-17T13:26:08Z</time>
      </trkpt>
      <trkpt lat="46.1596" lon="4.54469">
        <ele>484.8</ele>
        <time>2020-10-17T13:26:09Z</time>
      </trkpt>
      <trkpt lat="46.15958" lon="4.54469">
        <ele>484</ele>
        <time>2020-10-17T13:26:10Z</time>
      </trkpt>
      <trkpt lat="46.15955" lon="4.54468">
        <ele>483.4</ele>
        <time>2020-10-17T13:26:11Z</time>
      </trkpt>
      <trkpt lat="46.15953" lon="4.54467">
        <ele>483.4</ele>
        <time>2020-10-17T13:26:12Z</time>
      </trkpt>
      <trkpt lat="46.15951" lon="4.54467">
        <ele>483</ele>
        <time>2020-10-17T13:26:13Z</time>
      </trkpt>
      <trkpt lat="46.15948" lon="4.54466">
        <ele>482.6</ele>
        <time>2020-10-17T13:26:14Z</time>
      </trkpt>
      <trkpt lat="46.15946" lon="4.54467">
        <ele>482.2</ele>
        <time>2020-10-17T13:26:15Z</time>
      </trkpt>
      <trkpt lat="46.15944" lon="4.54467">
        <ele>481.8</ele>
        <time>2020-10-17T13:26:16Z</time>
      </trkpt>
      <trkpt lat="46.15942" lon="4.54467">
        <ele>481.4</ele>
        <time>2020-10-17T13:26:17Z</time>
      </trkpt>
      <trkpt lat="46.1594" lon="4.54467">
        <ele>481</ele>
        <time>2020-10-17T13:26:18Z</time>
      </trkpt>
      <trkpt lat="46.15938" lon="4.54467">
        <ele>480.2</ele>
        <time>2020-10-17T13:26:19Z</time>
      </trkpt>
      <trkpt lat="46.15935" lon="4.54468">
        <ele>479.6</ele>
        <time>2020-10-17T13:26:20Z</time>
      </trkpt>
      <trkpt lat="46.15933" lon="4.54468">
        <ele>479</ele>
        <time>2020-10-17T13:26:21Z</time>
      </trkpt>
      <trkpt lat="46.15931" lon="4.54468">
        <ele>478.6</ele>
        <time>2020-10-17T13:26:22Z</time>
      </trkpt>
      <trkpt lat="46.15928" lon="4.54468">
        <ele>477.8</ele>
        <time>2020-10-17T13:26:23Z</time>
      </trkpt>
      <trkpt lat="46.15926" lon="4.54468">
        <ele>477.4</ele>
        <time>2020-10-17T13:26:24Z</time>
      </trkpt>
      <trkpt lat="46.15925" lon="4.54469">
        <ele>476.6</ele>
        <time>2020-10-17T13:26:25Z</time>
      </trkpt>
      <trkpt lat="46.15923" lon="4.5447">
        <ele>476</ele>
        <time>2020-10-17T13:26:26Z</time>
      </trkpt>
      <trkpt lat="46.1592" lon="4.54471">
        <ele>475.2</ele>
        <time>2020-10-17T13:26:27Z</time>
      </trkpt>
      <trkpt lat="46.15918" lon="4.54472">
        <ele>474.6</ele>
        <time>2020-10-17T13:26:28Z</time>
      </trkpt>
      <trkpt lat="46.15916" lon="4.54473">
        <ele>474</ele>
        <time>2020-10-17T13:26:29Z</time>
      </trkpt>
      <trkpt lat="46.15915" lon="4.54475">
        <ele>473.4</ele>
        <time>2020-10-17T13:26:30Z</time>
      </trkpt>
      <trkpt lat="46.15913" lon="4.54476">
        <ele>472.6</ele>
        <time>2020-10-17T13:26:31Z</time>
      </trkpt>
      <trkpt lat="46.15911" lon="4.54478">
        <ele>472</ele>
        <time>2020-10-17T13:26:32Z</time>
      </trkpt>
      <trkpt lat="46.15909" lon="4.54481">
        <ele>471.6</ele>
        <time>2020-10-17T13:26:33Z</time>
      </trkpt>
      <trkpt lat="46.15907" lon="4.54483">
        <ele>470.8</ele>
        <time>2020-10-17T13:26:34Z</time>
      </trkpt>
      <trkpt lat="46.15905" lon="4.54484">
        <ele>470.4</ele>
        <time>2020-10-17T13:26:35Z</time>
      </trkpt>
      <trkpt lat="46.15905" lon="4.54484">
        <ele>469.8</ele>
        <time>2020-10-17T13:26:36Z</time>
      </trkpt>
      <trkpt lat="46.15902" lon="4.54487">
        <ele>469.2</ele>
        <time>2020-10-17T13:26:37Z</time>
      </trkpt>
      <trkpt lat="46.159" lon="4.54488">
        <ele>469.2</ele>
        <time>2020-10-17T13:26:38Z</time>
      </trkpt>
      <trkpt lat="46.15898" lon="4.5449">
        <ele>468.4</ele>
        <time>2020-10-17T13:26:39Z</time>
      </trkpt>
      <trkpt lat="46.15897" lon="4.5449">
        <ele>468</ele>
        <time>2020-10-17T13:26:40Z</time>
      </trkpt>
      <trkpt lat="46.15894" lon="4.54492">
        <ele>467.6</ele>
        <time>2020-10-17T13:26:41Z</time>
      </trkpt>
      <trkpt lat="46.15892" lon="4.54493">
        <ele>467</ele>
        <time>2020-10-17T13:26:42Z</time>
      </trkpt>
      <trkpt lat="46.1589" lon="4.54493">
        <ele>466.8</ele>
        <time>2020-10-17T13:26:43Z</time>
      </trkpt>
      <trkpt lat="46.15887" lon="4.54494">
        <ele>466.2</ele>
        <time>2020-10-17T13:26:44Z</time>
      </trkpt>
      <trkpt lat="46.15885" lon="4.54495">
        <ele>466.2</ele>
        <time>2020-10-17T13:26:45Z</time>
      </trkpt>
      <trkpt lat="46.15882" lon="4.54494">
        <ele>465.4</ele>
        <time>2020-10-17T13:26:46Z</time>
      </trkpt>
      <trkpt lat="46.15879" lon="4.54493">
        <ele>464.8</ele>
        <time>2020-10-17T13:26:47Z</time>
      </trkpt>
      <trkpt lat="46.15876" lon="4.54492">
        <ele>464.6</ele>
        <time>2020-10-17T13:26:48Z</time>
      </trkpt>
      <trkpt lat="46.15874" lon="4.5449">
        <ele>464</ele>
        <time>2020-10-17T13:26:49Z</time>
      </trkpt>
      <trkpt lat="46.15871" lon="4.54489">
        <ele>463.6</ele>
        <time>2020-10-17T13:26:50Z</time>
      </trkpt>
      <trkpt lat="46.15868" lon="4.54487">
        <ele>463.8</ele>
        <time>2020-10-17T13:26:51Z</time>
      </trkpt>
      <trkpt lat="46.15866" lon="4.54484">
        <ele>463.6</ele>
        <time>2020-10-17T13:26:52Z</time>
      </trkpt>
      <trkpt lat="46.15863" lon="4.54482">
        <ele>463.4</ele>
        <time>2020-10-17T13:26:53Z</time>
      </trkpt>
      <trkpt lat="46.1586" lon="4.5448">
        <ele>463.2</ele>
        <time>2020-10-17T13:26:54Z</time>
      </trkpt>
      <trkpt lat="46.15858" lon="4.54478">
        <ele>463</ele>
        <time>2020-10-17T13:26:55Z</time>
      </trkpt>
      <trkpt lat="46.15856" lon="4.54476">
        <ele>463</ele>
        <time>2020-10-17T13:26:56Z</time>
      </trkpt>
      <trkpt lat="46.15854" lon="4.54473">
        <ele>462.8</ele>
        <time>2020-10-17T13:26:57Z</time>
      </trkpt>
      <trkpt lat="46.15853" lon="4.54471">
        <ele>462.6</ele>
        <time>2020-10-17T13:26:58Z</time>
      </trkpt>
      <trkpt lat="46.15851" lon="4.54468">
        <ele>462.8</ele>
        <time>2020-10-17T13:26:59Z</time>
      </trkpt>
      <trkpt lat="46.1585" lon="4.54466">
        <ele>462.4</ele>
        <time>2020-10-17T13:27:00Z</time>
      </trkpt>
      <trkpt lat="46.15849" lon="4.54463">
        <ele>462.2</ele>
        <time>2020-10-17T13:27:01Z</time>
      </trkpt>
      <trkpt lat="46.15849" lon="4.54463">
        <ele>462.6</ele>
        <time>2020-10-17T13:27:02Z</time>
      </trkpt>
      <trkpt lat="46.15847" lon="4.54458">
        <ele>463.2</ele>
        <time>2020-10-17T13:27:03Z</time>
      </trkpt>
      <trkpt lat="46.15846" lon="4.54457">
        <ele>462.8</ele>
        <time>2020-10-17T13:27:04Z</time>
      </trkpt>
      <trkpt lat="46.15844" lon="4.54455">
        <ele>463.2</ele>
        <time>2020-10-17T13:27:05Z</time>
      </trkpt>
      <trkpt lat="46.15842" lon="4.54454">
        <ele>462.8</ele>
        <time>2020-10-17T13:27:06Z</time>
      </trkpt>
      <trkpt lat="46.15841" lon="4.54454">
        <ele>462.8</ele>
        <time>2020-10-17T13:27:07Z</time>
      </trkpt>
      <trkpt lat="46.15841" lon="4.54454">
        <ele>463.2</ele>
        <time>2020-10-17T13:27:08Z</time>
      </trkpt>
      <trkpt lat="46.15838" lon="4.54458">
        <ele>463</ele>
        <time>2020-10-17T13:27:09Z</time>
      </trkpt>
      <trkpt lat="46.15836" lon="4.5446">
        <ele>462.6</ele>
        <time>2020-10-17T13:27:10Z</time>
      </trkpt>
      <trkpt lat="46.15835" lon="4.54461">
        <ele>462.8</ele>
        <time>2020-10-17T13:27:11Z</time>
      </trkpt>
      <trkpt lat="46.15835" lon="4.54461">
        <ele>462.6</ele>
        <time>2020-10-17T13:27:12Z</time>
      </trkpt>
      <trkpt lat="46.15833" lon="4.54465">
        <ele>462.6</ele>
        <time>2020-10-17T13:27:13Z</time>
      </trkpt>
      <trkpt lat="46.15832" lon="4.54468">
        <ele>462.6</ele>
        <time>2020-10-17T13:27:14Z</time>
      </trkpt>
      <trkpt lat="46.15832" lon="4.54468">
        <ele>462.2</ele>
        <time>2020-10-17T13:27:15Z</time>
      </trkpt>
      <trkpt lat="46.1583" lon="4.54472">
        <ele>461.6</ele>
        <time>2020-10-17T13:27:16Z</time>
      </trkpt>
      <trkpt lat="46.15829" lon="4.54475">
        <ele>461.8</ele>
        <time>2020-10-17T13:27:17Z</time>
      </trkpt>
      <trkpt lat="46.15828" lon="4.54479">
        <ele>461.6</ele>
        <time>2020-10-17T13:27:18Z</time>
      </trkpt>
      <trkpt lat="46.15828" lon="4.54483">
        <ele>461.2</ele>
        <time>2020-10-17T13:27:19Z</time>
      </trkpt>
      <trkpt lat="46.15827" lon="4.54486">
        <ele>460.4</ele>
        <time>2020-10-17T13:27:20Z</time>
      </trkpt>
      <trkpt lat="46.15827" lon="4.5449">
        <ele>460</ele>
        <time>2020-10-17T13:27:21Z</time>
      </trkpt>
      <trkpt lat="46.15827" lon="4.54493">
        <ele>459.6</ele>
        <time>2020-10-17T13:27:22Z</time>
      </trkpt>
      <trkpt lat="46.15827" lon="4.54497">
        <ele>459.2</ele>
        <time>2020-10-17T13:27:23Z</time>
      </trkpt>
      <trkpt lat="46.15826" lon="4.545">
        <ele>458.2</ele>
        <time>2020-10-17T13:27:24Z</time>
      </trkpt>
      <trkpt lat="46.15826" lon="4.54503">
        <ele>457.8</ele>
        <time>2020-10-17T13:27:25Z</time>
      </trkpt>
      <trkpt lat="46.15825" lon="4.54505">
        <ele>457.6</ele>
        <time>2020-10-17T13:27:26Z</time>
      </trkpt>
      <trkpt lat="46.15825" lon="4.54505">
        <ele>457.2</ele>
        <time>2020-10-17T13:27:27Z</time>
      </trkpt>
      <trkpt lat="46.15824" lon="4.5451">
        <ele>456.8</ele>
        <time>2020-10-17T13:27:28Z</time>
      </trkpt>
      <trkpt lat="46.15823" lon="4.54513">
        <ele>455.8</ele>
        <time>2020-10-17T13:27:29Z</time>
      </trkpt>
      <trkpt lat="46.15822" lon="4.54516">
        <ele>455.4</ele>
        <time>2020-10-17T13:27:30Z</time>
      </trkpt>
      <trkpt lat="46.15821" lon="4.5452">
        <ele>455</ele>
        <time>2020-10-17T13:27:31Z</time>
      </trkpt>
      <trkpt lat="46.15819" lon="4.54523">
        <ele>454.6</ele>
        <time>2020-10-17T13:27:32Z</time>
      </trkpt>
      <trkpt lat="46.15818" lon="4.54526">
        <ele>454.6</ele>
        <time>2020-10-17T13:27:33Z</time>
      </trkpt>
      <trkpt lat="46.15815" lon="4.54528">
        <ele>454</ele>
        <time>2020-10-17T13:27:34Z</time>
      </trkpt>
      <trkpt lat="46.15813" lon="4.54532">
        <ele>453.4</ele>
        <time>2020-10-17T13:27:35Z</time>
      </trkpt>
      <trkpt lat="46.15811" lon="4.54534">
        <ele>453.2</ele>
        <time>2020-10-17T13:27:36Z</time>
      </trkpt>
      <trkpt lat="46.15808" lon="4.54537">
        <ele>452.6</ele>
        <time>2020-10-17T13:27:37Z</time>
      </trkpt>
      <trkpt lat="46.15806" lon="4.54539">
        <ele>452.2</ele>
        <time>2020-10-17T13:27:38Z</time>
      </trkpt>
      <trkpt lat="46.15803" lon="4.5454">
        <ele>452.2</ele>
        <time>2020-10-17T13:27:39Z</time>
      </trkpt>
      <trkpt lat="46.158" lon="4.54541">
        <ele>451.6</ele>
        <time>2020-10-17T13:27:40Z</time>
      </trkpt>
      <trkpt lat="46.15798" lon="4.54542">
        <ele>451.4</ele>
        <time>2020-10-17T13:27:41Z</time>
      </trkpt>
      <trkpt lat="46.15795" lon="4.54543">
        <ele>451.4</ele>
        <time>2020-10-17T13:27:42Z</time>
      </trkpt>
      <trkpt lat="46.15792" lon="4.54545">
        <ele>450.8</ele>
        <time>2020-10-17T13:27:43Z</time>
      </trkpt>
      <trkpt lat="46.1579" lon="4.54546">
        <ele>450.4</ele>
        <time>2020-10-17T13:27:44Z</time>
      </trkpt>
      <trkpt lat="46.15788" lon="4.54546">
        <ele>450.4</ele>
        <time>2020-10-17T13:27:45Z</time>
      </trkpt>
      <trkpt lat="46.15785" lon="4.54547">
        <ele>450.2</ele>
        <time>2020-10-17T13:27:46Z</time>
      </trkpt>
      <trkpt lat="46.15783" lon="4.54548">
        <ele>450</ele>
        <time>2020-10-17T13:27:47Z</time>
      </trkpt>
      <trkpt lat="46.15781" lon="4.54549">
        <ele>450</ele>
        <time>2020-10-17T13:27:48Z</time>
      </trkpt>
      <trkpt lat="46.15778" lon="4.5455">
        <ele>449.8</ele>
        <time>2020-10-17T13:27:49Z</time>
      </trkpt>
      <trkpt lat="46.15776" lon="4.54551">
        <ele>449.6</ele>
        <time>2020-10-17T13:27:50Z</time>
      </trkpt>
      <trkpt lat="46.15774" lon="4.54551">
        <ele>449.6</ele>
        <time>2020-10-17T13:27:51Z</time>
      </trkpt>
      <trkpt lat="46.15771" lon="4.54551">
        <ele>449.6</ele>
        <time>2020-10-17T13:27:52Z</time>
      </trkpt>
      <trkpt lat="46.15769" lon="4.54552">
        <ele>449.4</ele>
        <time>2020-10-17T13:27:53Z</time>
      </trkpt>
      <trkpt lat="46.15767" lon="4.54553">
        <ele>449.2</ele>
        <time>2020-10-17T13:27:54Z</time>
      </trkpt>
      <trkpt lat="46.15765" lon="4.54553">
        <ele>449</ele>
        <time>2020-10-17T13:27:55Z</time>
      </trkpt>
      <trkpt lat="46.15763" lon="4.54554">
        <ele>448.6</ele>
        <time>2020-10-17T13:27:56Z</time>
      </trkpt>
      <trkpt lat="46.15761" lon="4.54555">
        <ele>448.4</ele>
        <time>2020-10-17T13:27:57Z</time>
      </trkpt>
      <trkpt lat="46.15759" lon="4.54556">
        <ele>448.4</ele>
        <time>2020-10-17T13:27:58Z</time>
      </trkpt>
      <trkpt lat="46.15757" lon="4.54557">
        <ele>448</ele>
        <time>2020-10-17T13:27:59Z</time>
      </trkpt>
      <trkpt lat="46.15754" lon="4.54558">
        <ele>447.6</ele>
        <time>2020-10-17T13:28:00Z</time>
      </trkpt>
      <trkpt lat="46.15752" lon="4.5456">
        <ele>447.8</ele>
        <time>2020-10-17T13:28:01Z</time>
      </trkpt>
      <trkpt lat="46.1575" lon="4.54561">
        <ele>447.6</ele>
        <time>2020-10-17T13:28:02Z</time>
      </trkpt>
      <trkpt lat="46.15748" lon="4.54563">
        <ele>447.2</ele>
        <time>2020-10-17T13:28:03Z</time>
      </trkpt>
      <trkpt lat="46.15746" lon="4.54564">
        <ele>447.2</ele>
        <time>2020-10-17T13:28:04Z</time>
      </trkpt>
      <trkpt lat="46.15743" lon="4.54564">
        <ele>447</ele>
        <time>2020-10-17T13:28:05Z</time>
      </trkpt>
      <trkpt lat="46.15741" lon="4.54565">
        <ele>446.6</ele>
        <time>2020-10-17T13:28:06Z</time>
      </trkpt>
      <trkpt lat="46.15738" lon="4.54566">
        <ele>446.6</ele>
        <time>2020-10-17T13:28:07Z</time>
      </trkpt>
      <trkpt lat="46.15736" lon="4.54567">
        <ele>446.4</ele>
        <time>2020-10-17T13:28:08Z</time>
      </trkpt>
      <trkpt lat="46.15733" lon="4.54569">
        <ele>446.2</ele>
        <time>2020-10-17T13:28:09Z</time>
      </trkpt>
      <trkpt lat="46.15731" lon="4.54569">
        <ele>446.2</ele>
        <time>2020-10-17T13:28:10Z</time>
      </trkpt>
      <trkpt lat="46.15729" lon="4.54571">
        <ele>445.8</ele>
        <time>2020-10-17T13:28:11Z</time>
      </trkpt>
      <trkpt lat="46.15727" lon="4.54572">
        <ele>445.4</ele>
        <time>2020-10-17T13:28:12Z</time>
      </trkpt>
      <trkpt lat="46.15725" lon="4.54574">
        <ele>445.6</ele>
        <time>2020-10-17T13:28:13Z</time>
      </trkpt>
      <trkpt lat="46.15723" lon="4.54576">
        <ele>445.4</ele>
        <time>2020-10-17T13:28:14Z</time>
      </trkpt>
      <trkpt lat="46.15723" lon="4.54576">
        <ele>444.8</ele>
        <time>2020-10-17T13:28:15Z</time>
      </trkpt>
      <trkpt lat="46.1572" lon="4.54578">
        <ele>445</ele>
        <time>2020-10-17T13:28:16Z</time>
      </trkpt>
      <trkpt lat="46.1572" lon="4.54578">
        <ele>444.4</ele>
        <time>2020-10-17T13:28:17Z</time>
      </trkpt>
      <trkpt lat="46.15719" lon="4.5458">
        <ele>444</ele>
        <time>2020-10-17T13:28:18Z</time>
      </trkpt>
      <trkpt lat="46.15719" lon="4.5458">
        <ele>444</ele>
        <time>2020-10-17T13:28:19Z</time>
      </trkpt>
      <trkpt lat="46.15717" lon="4.54583">
        <ele>443.8</ele>
        <time>2020-10-17T13:28:20Z</time>
      </trkpt>
      <trkpt lat="46.15717" lon="4.54583">
        <ele>443.8</ele>
        <time>2020-10-17T13:28:21Z</time>
      </trkpt>
      <trkpt lat="46.15715" lon="4.54586">
        <ele>443.6</ele>
        <time>2020-10-17T13:28:22Z</time>
      </trkpt>
      <trkpt lat="46.15715" lon="4.54586">
        <ele>443.4</ele>
        <time>2020-10-17T13:28:23Z</time>
      </trkpt>
      <trkpt lat="46.15713" lon="4.54589">
        <ele>443.4</ele>
        <time>2020-10-17T13:28:24Z</time>
      </trkpt>
      <trkpt lat="46.15713" lon="4.54589">
        <ele>443.2</ele>
        <time>2020-10-17T13:28:25Z</time>
      </trkpt>
      <trkpt lat="46.15712" lon="4.54592">
        <ele>443.2</ele>
        <time>2020-10-17T13:28:26Z</time>
      </trkpt>
      <trkpt lat="46.15712" lon="4.54592">
        <ele>443.2</ele>
        <time>2020-10-17T13:28:27Z</time>
      </trkpt>
      <trkpt lat="46.15711" lon="4.54595">
        <ele>443</ele>
        <time>2020-10-17T13:28:28Z</time>
      </trkpt>
      <trkpt lat="46.15711" lon="4.54595">
        <ele>443.2</ele>
        <time>2020-10-17T13:28:29Z</time>
      </trkpt>
      <trkpt lat="46.15708" lon="4.54598">
        <ele>443.2</ele>
        <time>2020-10-17T13:28:30Z</time>
      </trkpt>
      <trkpt lat="46.15708" lon="4.54598">
        <ele>442.8</ele>
        <time>2020-10-17T13:28:31Z</time>
      </trkpt>
      <trkpt lat="46.15706" lon="4.546">
        <ele>442.8</ele>
        <time>2020-10-17T13:28:32Z</time>
      </trkpt>
      <trkpt lat="46.15706" lon="4.546">
        <ele>442.8</ele>
        <time>2020-10-17T13:28:33Z</time>
      </trkpt>
      <trkpt lat="46.15703" lon="4.54601">
        <ele>442.6</ele>
        <time>2020-10-17T13:28:34Z</time>
      </trkpt>
      <trkpt lat="46.15703" lon="4.54601">
        <ele>442.4</ele>
        <time>2020-10-17T13:28:35Z</time>
      </trkpt>
      <trkpt lat="46.157" lon="4.54601">
        <ele>442.4</ele>
        <time>2020-10-17T13:28:36Z</time>
      </trkpt>
      <trkpt lat="46.157" lon="4.54601">
        <ele>442.2</ele>
        <time>2020-10-17T13:28:37Z</time>
      </trkpt>
      <trkpt lat="46.15698" lon="4.546">
        <ele>442.2</ele>
        <time>2020-10-17T13:28:38Z</time>
      </trkpt>
      <trkpt lat="46.15698" lon="4.546">
        <ele>442</ele>
        <time>2020-10-17T13:28:39Z</time>
      </trkpt>
      <trkpt lat="46.15695" lon="4.54598">
        <ele>442.2</ele>
        <time>2020-10-17T13:28:40Z</time>
      </trkpt>
      <trkpt lat="46.15695" lon="4.54598">
        <ele>442.2</ele>
        <time>2020-10-17T13:28:41Z</time>
      </trkpt>
      <trkpt lat="46.15693" lon="4.54595">
        <ele>442.2</ele>
        <time>2020-10-17T13:28:42Z</time>
      </trkpt>
      <trkpt lat="46.15693" lon="4.54595">
        <ele>442.2</ele>
        <time>2020-10-17T13:28:43Z</time>
      </trkpt>
      <trkpt lat="46.15692" lon="4.54592">
        <ele>442.4</ele>
        <time>2020-10-17T13:28:44Z</time>
      </trkpt>
      <trkpt lat="46.15692" lon="4.54592">
        <ele>442.4</ele>
        <time>2020-10-17T13:28:45Z</time>
      </trkpt>
      <trkpt lat="46.15692" lon="4.54589">
        <ele>442.4</ele>
        <time>2020-10-17T13:28:46Z</time>
      </trkpt>
      <trkpt lat="46.15692" lon="4.54589">
        <ele>442.8</ele>
        <time>2020-10-17T13:28:47Z</time>
      </trkpt>
      <trkpt lat="46.15692" lon="4.54589">
        <ele>443.2</ele>
        <time>2020-10-17T13:28:48Z</time>
      </trkpt>
      <trkpt lat="46.15692" lon="4.54589">
        <ele>443.4</ele>
        <time>2020-10-17T13:28:49Z</time>
      </trkpt>
      <trkpt lat="46.15692" lon="4.54589">
        <ele>443.4</ele>
        <time>2020-10-17T13:28:50Z</time>
      </trkpt>
      <trkpt lat="46.15692" lon="4.54589">
        <ele>443.4</ele>
        <time>2020-10-17T13:28:51Z</time>
      </trkpt>
      <trkpt lat="46.15692" lon="4.54589">
        <ele>443.4</ele>
        <time>2020-10-17T13:28:52Z</time>
      </trkpt>
      <trkpt lat="46.15692" lon="4.54589">
        <ele>443.4</ele>
        <time>2020-10-17T13:28:53Z</time>
      </trkpt>
      <trkpt lat="46.15692" lon="4.54589">
        <ele>443.6</ele>
        <time>2020-10-17T13:28:54Z</time>
      </trkpt>
      <trkpt lat="46.15692" lon="4.54589">
        <ele>443.8</ele>
        <time>2020-10-17T13:28:55Z</time>
      </trkpt>
      <trkpt lat="46.15692" lon="4.54589">
        <ele>443.8</ele>
        <time>2020-10-17T13:28:56Z</time>
      </trkpt>
      <trkpt lat="46.15692" lon="4.54589">
        <ele>444</ele>
        <time>2020-10-17T13:28:57Z</time>
      </trkpt>
      <trkpt lat="46.15692" lon="4.54589">
        <ele>444.2</ele>
        <time>2020-10-17T13:28:58Z</time>
      </trkpt>
      <trkpt lat="46.15692" lon="4.54589">
        <ele>444.6</ele>
        <time>2020-10-17T13:28:59Z</time>
      </trkpt>
      <trkpt lat="46.15692" lon="4.54589">
        <ele>444.4</ele>
        <time>2020-10-17T13:29:00Z</time>
      </trkpt>
      <trkpt lat="46.15692" lon="4.54589">
        <ele>444.4</ele>
        <time>2020-10-17T13:29:01Z</time>
      </trkpt>
      <trkpt lat="46.15692" lon="4.54589">
        <ele>444.4</ele>
        <time>2020-10-17T13:29:02Z</time>
      </trkpt>
      <trkpt lat="46.15692" lon="4.54589">
        <ele>444.4</ele>
        <time>2020-10-17T13:29:03Z</time>
      </trkpt>
      <trkpt lat="46.15692" lon="4.54589">
        <ele>444</ele>
        <time>2020-10-17T13:29:04Z</time>
      </trkpt>
      <trkpt lat="46.15692" lon="4.54589">
        <ele>443.8</ele>
        <time>2020-10-17T13:29:05Z</time>
      </trkpt>
      <trkpt lat="46.15692" lon="4.54589">
        <ele>443.4</ele>
        <time>2020-10-17T13:29:06Z</time>
      </trkpt>
      <trkpt lat="46.15692" lon="4.54589">
        <ele>443.4</ele>
        <time>2020-10-17T13:29:07Z</time>
      </trkpt>
      <trkpt lat="46.15692" lon="4.54589">
        <ele>443.2</ele>
        <time>2020-10-17T13:29:08Z</time>
      </trkpt>
      <trkpt lat="46.15692" lon="4.54589">
        <ele>443.4</ele>
        <time>2020-10-17T13:29:09Z</time>
      </trkpt>
      <trkpt lat="46.15692" lon="4.54589">
        <ele>443.2</ele>
        <time>2020-10-17T13:29:10Z</time>
      </trkpt>
      <trkpt lat="46.15692" lon="4.54589">
        <ele>443</ele>
        <time>2020-10-17T13:29:11Z</time>
      </trkpt>
      <trkpt lat="46.15692" lon="4.54589">
        <ele>443.2</ele>
        <time>2020-10-17T13:29:12Z</time>
      </trkpt>
      <trkpt lat="46.15692" lon="4.54589">
        <ele>443</ele>
        <time>2020-10-17T13:29:13Z</time>
      </trkpt>
      <trkpt lat="46.15692" lon="4.54589">
        <ele>443</ele>
        <time>2020-10-17T13:29:14Z</time>
      </trkpt>
      <trkpt lat="46.15692" lon="4.54586">
        <ele>442.8</ele>
        <time>2020-10-17T13:29:15Z</time>
      </trkpt>
      <trkpt lat="46.15692" lon="4.54586">
        <ele>442.8</ele>
        <time>2020-10-17T13:29:16Z</time>
      </trkpt>
      <trkpt lat="46.15692" lon="4.54586">
        <ele>442.8</ele>
        <time>2020-10-17T13:29:17Z</time>
      </trkpt>
      <trkpt lat="46.15692" lon="4.54586">
        <ele>442.8</ele>
        <time>2020-10-17T13:29:18Z</time>
      </trkpt>
      <trkpt lat="46.15692" lon="4.54586">
        <ele>442.6</ele>
        <time>2020-10-17T13:29:19Z</time>
      </trkpt>
      <trkpt lat="46.15692" lon="4.54586">
        <ele>442.4</ele>
        <time>2020-10-17T13:29:20Z</time>
      </trkpt>
      <trkpt lat="46.15692" lon="4.54586">
        <ele>442.2</ele>
        <time>2020-10-17T13:29:21Z</time>
      </trkpt>
      <trkpt lat="46.15692" lon="4.54586">
        <ele>442</ele>
        <time>2020-10-17T13:29:22Z</time>
      </trkpt>
      <trkpt lat="46.15692" lon="4.54586">
        <ele>441.8</ele>
        <time>2020-10-17T13:29:23Z</time>
      </trkpt>
      <trkpt lat="46.15692" lon="4.54586">
        <ele>441.8</ele>
        <time>2020-10-17T13:29:24Z</time>
      </trkpt>
      <trkpt lat="46.15692" lon="4.54586">
        <ele>441.8</ele>
        <time>2020-10-17T13:29:25Z</time>
      </trkpt>
      <trkpt lat="46.15692" lon="4.54586">
        <ele>441.6</ele>
        <time>2020-10-17T13:29:26Z</time>
      </trkpt>
      <trkpt lat="46.15692" lon="4.54586">
        <ele>441.6</ele>
        <time>2020-10-17T13:29:27Z</time>
      </trkpt>
      <trkpt lat="46.15692" lon="4.54586">
        <ele>441.4</ele>
        <time>2020-10-17T13:29:28Z</time>
      </trkpt>
      <trkpt lat="46.15692" lon="4.54586">
        <ele>441.2</ele>
        <time>2020-10-17T13:29:29Z</time>
      </trkpt>
      <trkpt lat="46.15692" lon="4.54586">
        <ele>441.2</ele>
        <time>2020-10-17T13:29:30Z</time>
      </trkpt>
      <trkpt lat="46.15692" lon="4.54586">
        <ele>441.2</ele>
        <time>2020-10-17T13:29:31Z</time>
      </trkpt>
      <trkpt lat="46.15692" lon="4.54586">
        <ele>441</ele>
        <time>2020-10-17T13:29:32Z</time>
      </trkpt>
      <trkpt lat="46.15691" lon="4.54589">
        <ele>441</ele>
        <time>2020-10-17T13:29:33Z</time>
      </trkpt>
      <trkpt lat="46.15691" lon="4.54589">
        <ele>440.8</ele>
        <time>2020-10-17T13:29:34Z</time>
      </trkpt>
      <trkpt lat="46.1569" lon="4.54592">
        <ele>440.8</ele>
        <time>2020-10-17T13:29:35Z</time>
      </trkpt>
      <trkpt lat="46.1569" lon="4.54592">
        <ele>440.8</ele>
        <time>2020-10-17T13:29:36Z</time>
      </trkpt>
      <trkpt lat="46.1569" lon="4.54592">
        <ele>440.4</ele>
        <time>2020-10-17T13:29:37Z</time>
      </trkpt>
      <trkpt lat="46.1569" lon="4.54592">
        <ele>440.2</ele>
        <time>2020-10-17T13:29:38Z</time>
      </trkpt>
      <trkpt lat="46.1569" lon="4.54592">
        <ele>440</ele>
        <time>2020-10-17T13:29:39Z</time>
      </trkpt>
      <trkpt lat="46.15689" lon="4.54594">
        <ele>440.2</ele>
        <time>2020-10-17T13:29:40Z</time>
      </trkpt>
      <trkpt lat="46.15689" lon="4.54594">
        <ele>440.4</ele>
        <time>2020-10-17T13:29:41Z</time>
      </trkpt>
      <trkpt lat="46.15687" lon="4.54596">
        <ele>440.4</ele>
        <time>2020-10-17T13:29:42Z</time>
      </trkpt>
      <trkpt lat="46.15687" lon="4.54596">
        <ele>440.4</ele>
        <time>2020-10-17T13:29:43Z</time>
      </trkpt>
      <trkpt lat="46.15684" lon="4.54598">
        <ele>440.4</ele>
        <time>2020-10-17T13:29:44Z</time>
      </trkpt>
      <trkpt lat="46.15684" lon="4.54598">
        <ele>440.4</ele>
        <time>2020-10-17T13:29:45Z</time>
      </trkpt>
      <trkpt lat="46.15682" lon="4.546">
        <ele>440.2</ele>
        <time>2020-10-17T13:29:46Z</time>
      </trkpt>
      <trkpt lat="46.15682" lon="4.546">
        <ele>440.6</ele>
        <time>2020-10-17T13:29:47Z</time>
      </trkpt>
      <trkpt lat="46.15682" lon="4.546">
        <ele>440.6</ele>
        <time>2020-10-17T13:29:48Z</time>
      </trkpt>
      <trkpt lat="46.15682" lon="4.546">
        <ele>440.8</ele>
        <time>2020-10-17T13:29:49Z</time>
      </trkpt>
      <trkpt lat="46.15681" lon="4.54603">
        <ele>441</ele>
        <time>2020-10-17T13:29:50Z</time>
      </trkpt>
      <trkpt lat="46.15681" lon="4.54603">
        <ele>440.6</ele>
        <time>2020-10-17T13:29:51Z</time>
      </trkpt>
      <trkpt lat="46.15681" lon="4.54606">
        <ele>440.4</ele>
        <time>2020-10-17T13:29:52Z</time>
      </trkpt>
      <trkpt lat="46.15681" lon="4.54606">
        <ele>440.2</ele>
        <time>2020-10-17T13:29:53Z</time>
      </trkpt>
      <trkpt lat="46.15682" lon="4.5461">
        <ele>440.2</ele>
        <time>2020-10-17T13:29:54Z</time>
      </trkpt>
      <trkpt lat="46.15682" lon="4.5461">
        <ele>440.2</ele>
        <time>2020-10-17T13:29:55Z</time>
      </trkpt>
      <trkpt lat="46.15682" lon="4.54615">
        <ele>440</ele>
        <time>2020-10-17T13:29:56Z</time>
      </trkpt>
      <trkpt lat="46.15682" lon="4.54618">
        <ele>439.6</ele>
        <time>2020-10-17T13:29:57Z</time>
      </trkpt>
      <trkpt lat="46.15682" lon="4.54618">
        <ele>439.4</ele>
        <time>2020-10-17T13:29:58Z</time>
      </trkpt>
      <trkpt lat="46.15682" lon="4.54622">
        <ele>439.2</ele>
        <time>2020-10-17T13:29:59Z</time>
      </trkpt>
      <trkpt lat="46.15682" lon="4.54622">
        <ele>438.8</ele>
        <time>2020-10-17T13:30:00Z</time>
      </trkpt>
      <trkpt lat="46.15682" lon="4.54626">
        <ele>438.6</ele>
        <time>2020-10-17T13:30:01Z</time>
      </trkpt>
      <trkpt lat="46.15682" lon="4.54626">
        <ele>438.2</ele>
        <time>2020-10-17T13:30:02Z</time>
      </trkpt>
      <trkpt lat="46.15683" lon="4.5463">
        <ele>437.8</ele>
        <time>2020-10-17T13:30:03Z</time>
      </trkpt>
      <trkpt lat="46.15683" lon="4.5463">
        <ele>437.4</ele>
        <time>2020-10-17T13:30:04Z</time>
      </trkpt>
      <trkpt lat="46.15682" lon="4.54633">
        <ele>437</ele>
        <time>2020-10-17T13:30:05Z</time>
      </trkpt>
      <trkpt lat="46.15682" lon="4.54633">
        <ele>437</ele>
        <time>2020-10-17T13:30:06Z</time>
      </trkpt>
      <trkpt lat="46.15682" lon="4.54638">
        <ele>436.8</ele>
        <time>2020-10-17T13:30:07Z</time>
      </trkpt>
      <trkpt lat="46.15682" lon="4.54638">
        <ele>436.4</ele>
        <time>2020-10-17T13:30:08Z</time>
      </trkpt>
      <trkpt lat="46.15682" lon="4.54641">
        <ele>436</ele>
        <time>2020-10-17T13:30:09Z</time>
      </trkpt>
      <trkpt lat="46.15682" lon="4.54641">
        <ele>435.8</ele>
        <time>2020-10-17T13:30:10Z</time>
      </trkpt>
      <trkpt lat="46.15682" lon="4.54646">
        <ele>435.2</ele>
        <time>2020-10-17T13:30:11Z</time>
      </trkpt>
      <trkpt lat="46.15682" lon="4.54646">
        <ele>434.8</ele>
        <time>2020-10-17T13:30:12Z</time>
      </trkpt>
      <trkpt lat="46.15682" lon="4.54646">
        <ele>434</ele>
        <time>2020-10-17T13:30:13Z</time>
      </trkpt>
      <trkpt lat="46.15682" lon="4.54649">
        <ele>433.6</ele>
        <time>2020-10-17T13:30:14Z</time>
      </trkpt>
      <trkpt lat="46.15682" lon="4.54649">
        <ele>433.8</ele>
        <time>2020-10-17T13:30:15Z</time>
      </trkpt>
      <trkpt lat="46.15683" lon="4.54653">
        <ele>433.6</ele>
        <time>2020-10-17T13:30:16Z</time>
      </trkpt>
      <trkpt lat="46.15683" lon="4.54653">
        <ele>434</ele>
        <time>2020-10-17T13:30:17Z</time>
      </trkpt>
      <trkpt lat="46.15683" lon="4.54657">
        <ele>434.2</ele>
        <time>2020-10-17T13:30:18Z</time>
      </trkpt>
      <trkpt lat="46.15683" lon="4.54657">
        <ele>434</ele>
        <time>2020-10-17T13:30:19Z</time>
      </trkpt>
      <trkpt lat="46.15683" lon="4.54657">
        <ele>433.8</ele>
        <time>2020-10-17T13:30:20Z</time>
      </trkpt>
      <trkpt lat="46.15683" lon="4.5466">
        <ele>433.8</ele>
        <time>2020-10-17T13:30:21Z</time>
      </trkpt>
      <trkpt lat="46.15683" lon="4.5466">
        <ele>433.4</ele>
        <time>2020-10-17T13:30:22Z</time>
      </trkpt>
      <trkpt lat="46.15683" lon="4.5466">
        <ele>433.2</ele>
        <time>2020-10-17T13:30:23Z</time>
      </trkpt>
      <trkpt lat="46.15683" lon="4.5466">
        <ele>433.2</ele>
        <time>2020-10-17T13:30:24Z</time>
      </trkpt>
      <trkpt lat="46.15683" lon="4.5466">
        <ele>433.2</ele>
        <time>2020-10-17T13:30:25Z</time>
      </trkpt>
      <trkpt lat="46.15683" lon="4.5466">
        <ele>433</ele>
        <time>2020-10-17T13:30:26Z</time>
      </trkpt>
      <trkpt lat="46.15683" lon="4.5466">
        <ele>433</ele>
        <time>2020-10-17T13:30:27Z</time>
      </trkpt>
      <trkpt lat="46.15683" lon="4.5466">
        <ele>432.8</ele>
        <time>2020-10-17T13:30:28Z</time>
      </trkpt>
      <trkpt lat="46.15682" lon="4.54662">
        <ele>432.8</ele>
        <time>2020-10-17T13:30:29Z</time>
      </trkpt>
      <trkpt lat="46.15682" lon="4.54662">
        <ele>432.6</ele>
        <time>2020-10-17T13:30:30Z</time>
      </trkpt>
      <trkpt lat="46.15682" lon="4.54665">
        <ele>432.8</ele>
        <time>2020-10-17T13:30:31Z</time>
      </trkpt>
      <trkpt lat="46.15682" lon="4.54665">
        <ele>432.8</ele>
        <time>2020-10-17T13:30:32Z</time>
      </trkpt>
      <trkpt lat="46.15682" lon="4.54669">
        <ele>432.8</ele>
        <time>2020-10-17T13:30:33Z</time>
      </trkpt>
      <trkpt lat="46.15682" lon="4.54669">
        <ele>432.6</ele>
        <time>2020-10-17T13:30:34Z</time>
      </trkpt>
      <trkpt lat="46.15683" lon="4.54672">
        <ele>432.6</ele>
        <time>2020-10-17T13:30:35Z</time>
      </trkpt>
      <trkpt lat="46.15683" lon="4.54672">
        <ele>432.4</ele>
        <time>2020-10-17T13:30:36Z</time>
      </trkpt>
      <trkpt lat="46.15683" lon="4.54676">
        <ele>432</ele>
        <time>2020-10-17T13:30:37Z</time>
      </trkpt>
      <trkpt lat="46.15683" lon="4.54676">
        <ele>431.6</ele>
        <time>2020-10-17T13:30:38Z</time>
      </trkpt>
      <trkpt lat="46.15683" lon="4.5468">
        <ele>431.4</ele>
        <time>2020-10-17T13:30:39Z</time>
      </trkpt>
      <trkpt lat="46.15683" lon="4.5468">
        <ele>431.2</ele>
        <time>2020-10-17T13:30:40Z</time>
      </trkpt>
      <trkpt lat="46.15683" lon="4.54683">
        <ele>431.2</ele>
        <time>2020-10-17T13:30:41Z</time>
      </trkpt>
      <trkpt lat="46.15683" lon="4.54683">
        <ele>431</ele>
        <time>2020-10-17T13:30:42Z</time>
      </trkpt>
      <trkpt lat="46.15683" lon="4.54687">
        <ele>430.8</ele>
        <time>2020-10-17T13:30:43Z</time>
      </trkpt>
      <trkpt lat="46.15683" lon="4.54687">
        <ele>430.4</ele>
        <time>2020-10-17T13:30:44Z</time>
      </trkpt>
      <trkpt lat="46.15684" lon="4.54691">
        <ele>430.2</ele>
        <time>2020-10-17T13:30:45Z</time>
      </trkpt>
      <trkpt lat="46.15684" lon="4.54691">
        <ele>429.8</ele>
        <time>2020-10-17T13:30:46Z</time>
      </trkpt>
      <trkpt lat="46.15683" lon="4.54695">
        <ele>429.4</ele>
        <time>2020-10-17T13:30:47Z</time>
      </trkpt>
      <trkpt lat="46.15683" lon="4.54695">
        <ele>428.8</ele>
        <time>2020-10-17T13:30:48Z</time>
      </trkpt>
      <trkpt lat="46.15683" lon="4.54699">
        <ele>428.4</ele>
        <time>2020-10-17T13:30:49Z</time>
      </trkpt>
      <trkpt lat="46.15683" lon="4.54699">
        <ele>428.2</ele>
        <time>2020-10-17T13:30:50Z</time>
      </trkpt>
      <trkpt lat="46.15683" lon="4.54703">
        <ele>427.8</ele>
        <time>2020-10-17T13:30:51Z</time>
      </trkpt>
      <trkpt lat="46.15683" lon="4.54703">
        <ele>427.4</ele>
        <time>2020-10-17T13:30:52Z</time>
      </trkpt>
      <trkpt lat="46.15683" lon="4.54707">
        <ele>427</ele>
        <time>2020-10-17T13:30:53Z</time>
      </trkpt>
      <trkpt lat="46.15683" lon="4.54707">
        <ele>426.6</ele>
        <time>2020-10-17T13:30:54Z</time>
      </trkpt>
      <trkpt lat="46.15683" lon="4.54712">
        <ele>426.4</ele>
        <time>2020-10-17T13:30:55Z</time>
      </trkpt>
      <trkpt lat="46.15683" lon="4.54714">
        <ele>426.2</ele>
        <time>2020-10-17T13:30:56Z</time>
      </trkpt>
      <trkpt lat="46.15683" lon="4.54714">
        <ele>426.2</ele>
        <time>2020-10-17T13:30:57Z</time>
      </trkpt>
      <trkpt lat="46.15683" lon="4.54719">
        <ele>425.8</ele>
        <time>2020-10-17T13:30:58Z</time>
      </trkpt>
      <trkpt lat="46.15683" lon="4.54722">
        <ele>425.4</ele>
        <time>2020-10-17T13:30:59Z</time>
      </trkpt>
      <trkpt lat="46.15683" lon="4.54725">
        <ele>425.4</ele>
        <time>2020-10-17T13:31:00Z</time>
      </trkpt>
      <trkpt lat="46.15683" lon="4.54729">
        <ele>424.6</ele>
        <time>2020-10-17T13:31:01Z</time>
      </trkpt>
      <trkpt lat="46.15683" lon="4.54732">
        <ele>424.4</ele>
        <time>2020-10-17T13:31:02Z</time>
      </trkpt>
      <trkpt lat="46.15683" lon="4.54735">
        <ele>424</ele>
        <time>2020-10-17T13:31:03Z</time>
      </trkpt>
      <trkpt lat="46.15683" lon="4.54739">
        <ele>423.8</ele>
        <time>2020-10-17T13:31:04Z</time>
      </trkpt>
      <trkpt lat="46.15683" lon="4.54742">
        <ele>422.8</ele>
        <time>2020-10-17T13:31:05Z</time>
      </trkpt>
      <trkpt lat="46.15683" lon="4.54746">
        <ele>422.4</ele>
        <time>2020-10-17T13:31:06Z</time>
      </trkpt>
      <trkpt lat="46.15683" lon="4.54749">
        <ele>422.2</ele>
        <time>2020-10-17T13:31:07Z</time>
      </trkpt>
      <trkpt lat="46.15682" lon="4.54752">
        <ele>421.6</ele>
        <time>2020-10-17T13:31:08Z</time>
      </trkpt>
      <trkpt lat="46.15682" lon="4.54755">
        <ele>421.4</ele>
        <time>2020-10-17T13:31:09Z</time>
      </trkpt>
      <trkpt lat="46.15681" lon="4.54758">
        <ele>421</ele>
        <time>2020-10-17T13:31:10Z</time>
      </trkpt>
      <trkpt lat="46.1568" lon="4.54762">
        <ele>420.6</ele>
        <time>2020-10-17T13:31:11Z</time>
      </trkpt>
      <trkpt lat="46.15679" lon="4.54765">
        <ele>419.8</ele>
        <time>2020-10-17T13:31:12Z</time>
      </trkpt>
      <trkpt lat="46.15677" lon="4.54768">
        <ele>419</ele>
        <time>2020-10-17T13:31:13Z</time>
      </trkpt>
      <trkpt lat="46.15676" lon="4.5477">
        <ele>418.6</ele>
        <time>2020-10-17T13:31:14Z</time>
      </trkpt>
      <trkpt lat="46.15674" lon="4.54773">
        <ele>418</ele>
        <time>2020-10-17T13:31:15Z</time>
      </trkpt>
      <trkpt lat="46.15672" lon="4.54775">
        <ele>417.8</ele>
        <time>2020-10-17T13:31:16Z</time>
      </trkpt>
      <trkpt lat="46.1567" lon="4.54777">
        <ele>417.4</ele>
        <time>2020-10-17T13:31:17Z</time>
      </trkpt>
      <trkpt lat="46.15669" lon="4.54778">
        <ele>416.6</ele>
        <time>2020-10-17T13:31:18Z</time>
      </trkpt>
      <trkpt lat="46.15669" lon="4.54778">
        <ele>416.2</ele>
        <time>2020-10-17T13:31:19Z</time>
      </trkpt>
      <trkpt lat="46.15666" lon="4.54781">
        <ele>415.8</ele>
        <time>2020-10-17T13:31:20Z</time>
      </trkpt>
      <trkpt lat="46.15666" lon="4.54781">
        <ele>415.4</ele>
        <time>2020-10-17T13:31:21Z</time>
      </trkpt>
      <trkpt lat="46.15664" lon="4.54784">
        <ele>415.2</ele>
        <time>2020-10-17T13:31:22Z</time>
      </trkpt>
      <trkpt lat="46.15664" lon="4.54784">
        <ele>414.8</ele>
        <time>2020-10-17T13:31:23Z</time>
      </trkpt>
      <trkpt lat="46.15662" lon="4.54786">
        <ele>414.6</ele>
        <time>2020-10-17T13:31:24Z</time>
      </trkpt>
      <trkpt lat="46.15662" lon="4.54786">
        <ele>414</ele>
        <time>2020-10-17T13:31:25Z</time>
      </trkpt>
      <trkpt lat="46.1566" lon="4.54788">
        <ele>413.8</ele>
        <time>2020-10-17T13:31:26Z</time>
      </trkpt>
      <trkpt lat="46.1566" lon="4.54788">
        <ele>413.6</ele>
        <time>2020-10-17T13:31:27Z</time>
      </trkpt>
      <trkpt lat="46.15658" lon="4.54791">
        <ele>413.4</ele>
        <time>2020-10-17T13:31:28Z</time>
      </trkpt>
      <trkpt lat="46.15658" lon="4.54791">
        <ele>413.2</ele>
        <time>2020-10-17T13:31:29Z</time>
      </trkpt>
      <trkpt lat="46.15656" lon="4.54794">
        <ele>412.8</ele>
        <time>2020-10-17T13:31:30Z</time>
      </trkpt>
      <trkpt lat="46.15656" lon="4.54794">
        <ele>412.8</ele>
        <time>2020-10-17T13:31:31Z</time>
      </trkpt>
      <trkpt lat="46.15655" lon="4.54798">
        <ele>412.6</ele>
        <time>2020-10-17T13:31:32Z</time>
      </trkpt>
      <trkpt lat="46.15655" lon="4.54798">
        <ele>412.4</ele>
        <time>2020-10-17T13:31:33Z</time>
      </trkpt>
      <trkpt lat="46.15654" lon="4.54801">
        <ele>412</ele>
        <time>2020-10-17T13:31:34Z</time>
      </trkpt>
      <trkpt lat="46.15654" lon="4.54801">
        <ele>411.8</ele>
        <time>2020-10-17T13:31:35Z</time>
      </trkpt>
      <trkpt lat="46.15653" lon="4.54805">
        <ele>411.8</ele>
        <time>2020-10-17T13:31:36Z</time>
      </trkpt>
      <trkpt lat="46.15653" lon="4.54805">
        <ele>411.8</ele>
        <time>2020-10-17T13:31:37Z</time>
      </trkpt>
      <trkpt lat="46.15652" lon="4.54809">
        <ele>411.6</ele>
        <time>2020-10-17T13:31:38Z</time>
      </trkpt>
      <trkpt lat="46.15652" lon="4.54809">
        <ele>411.6</ele>
        <time>2020-10-17T13:31:39Z</time>
      </trkpt>
      <trkpt lat="46.15651" lon="4.54812">
        <ele>411.2</ele>
        <time>2020-10-17T13:31:40Z</time>
      </trkpt>
      <trkpt lat="46.15651" lon="4.54812">
        <ele>411</ele>
        <time>2020-10-17T13:31:41Z</time>
      </trkpt>
      <trkpt lat="46.1565" lon="4.54816">
        <ele>410.8</ele>
        <time>2020-10-17T13:31:42Z</time>
      </trkpt>
      <trkpt lat="46.1565" lon="4.54816">
        <ele>410.6</ele>
        <time>2020-10-17T13:31:43Z</time>
      </trkpt>
      <trkpt lat="46.1565" lon="4.54818">
        <ele>410.4</ele>
        <time>2020-10-17T13:31:44Z</time>
      </trkpt>
      <trkpt lat="46.1565" lon="4.54818">
        <ele>410.2</ele>
        <time>2020-10-17T13:31:45Z</time>
      </trkpt>
      <trkpt lat="46.15649" lon="4.54822">
        <ele>410</ele>
        <time>2020-10-17T13:31:46Z</time>
      </trkpt>
      <trkpt lat="46.15649" lon="4.54822">
        <ele>410</ele>
        <time>2020-10-17T13:31:47Z</time>
      </trkpt>
      <trkpt lat="46.15649" lon="4.54825">
        <ele>409.8</ele>
        <time>2020-10-17T13:31:48Z</time>
      </trkpt>
      <trkpt lat="46.15649" lon="4.54825">
        <ele>409.8</ele>
        <time>2020-10-17T13:31:49Z</time>
      </trkpt>
      <trkpt lat="46.15648" lon="4.54828">
        <ele>409.6</ele>
        <time>2020-10-17T13:31:50Z</time>
      </trkpt>
      <trkpt lat="46.15648" lon="4.54828">
        <ele>409.2</ele>
        <time>2020-10-17T13:31:51Z</time>
      </trkpt>
      <trkpt lat="46.15647" lon="4.54832">
        <ele>409</ele>
        <time>2020-10-17T13:31:52Z</time>
      </trkpt>
      <trkpt lat="46.15645" lon="4.54834">
        <ele>408.8</ele>
        <time>2020-10-17T13:31:53Z</time>
      </trkpt>
      <trkpt lat="46.15644" lon="4.54836">
        <ele>408.4</ele>
        <time>2020-10-17T13:31:54Z</time>
      </trkpt>
      <trkpt lat="46.15644" lon="4.54836">
        <ele>408</ele>
        <time>2020-10-17T13:31:55Z</time>
      </trkpt>
      <trkpt lat="46.15641" lon="4.54835">
        <ele>407.8</ele>
        <time>2020-10-17T13:31:56Z</time>
      </trkpt>
      <trkpt lat="46.15641" lon="4.54835">
        <ele>407.8</ele>
        <time>2020-10-17T13:31:57Z</time>
      </trkpt>
      <trkpt lat="46.15638" lon="4.54833">
        <ele>407.8</ele>
        <time>2020-10-17T13:31:58Z</time>
      </trkpt>
      <trkpt lat="46.15636" lon="4.54832">
        <ele>407.8</ele>
        <time>2020-10-17T13:31:59Z</time>
      </trkpt>
      <trkpt lat="46.15632" lon="4.54832">
        <ele>407.6</ele>
        <time>2020-10-17T13:32:00Z</time>
      </trkpt>
      <trkpt lat="46.1563" lon="4.54832">
        <ele>407.4</ele>
        <time>2020-10-17T13:32:01Z</time>
      </trkpt>
      <trkpt lat="46.1563" lon="4.54832">
        <ele>407.6</ele>
        <time>2020-10-17T13:32:02Z</time>
      </trkpt>
      <trkpt lat="46.15627" lon="4.5483">
        <ele>407.6</ele>
        <time>2020-10-17T13:32:03Z</time>
      </trkpt>
      <trkpt lat="46.15625" lon="4.54829">
        <ele>407.4</ele>
        <time>2020-10-17T13:32:04Z</time>
      </trkpt>
      <trkpt lat="46.15624" lon="4.54828">
        <ele>407.4</ele>
        <time>2020-10-17T13:32:05Z</time>
      </trkpt>
      <trkpt lat="46.15624" lon="4.54828">
        <ele>407.2</ele>
        <time>2020-10-17T13:32:06Z</time>
      </trkpt>
      <trkpt lat="46.15621" lon="4.54826">
        <ele>407</ele>
        <time>2020-10-17T13:32:07Z</time>
      </trkpt>
      <trkpt lat="46.15621" lon="4.54826">
        <ele>407</ele>
        <time>2020-10-17T13:32:08Z</time>
      </trkpt>
      <trkpt lat="46.15617" lon="4.54824">
        <ele>407</ele>
        <time>2020-10-17T13:32:09Z</time>
      </trkpt>
      <trkpt lat="46.15617" lon="4.54824">
        <ele>406.8</ele>
        <time>2020-10-17T13:32:10Z</time>
      </trkpt>
      <trkpt lat="46.15614" lon="4.54822">
        <ele>406.6</ele>
        <time>2020-10-17T13:32:11Z</time>
      </trkpt>
      <trkpt lat="46.15614" lon="4.54822">
        <ele>406.8</ele>
        <time>2020-10-17T13:32:12Z</time>
      </trkpt>
      <trkpt lat="46.15612" lon="4.54821">
        <ele>406.6</ele>
        <time>2020-10-17T13:32:13Z</time>
      </trkpt>
      <trkpt lat="46.15612" lon="4.54821">
        <ele>406.6</ele>
        <time>2020-10-17T13:32:14Z</time>
      </trkpt>
      <trkpt lat="46.15609" lon="4.54819">
        <ele>406.6</ele>
        <time>2020-10-17T13:32:15Z</time>
      </trkpt>
      <trkpt lat="46.15607" lon="4.54818">
        <ele>406.8</ele>
        <time>2020-10-17T13:32:16Z</time>
      </trkpt>
      <trkpt lat="46.15605" lon="4.54817">
        <ele>406.6</ele>
        <time>2020-10-17T13:32:17Z</time>
      </trkpt>
      <trkpt lat="46.15605" lon="4.54817">
        <ele>406.6</ele>
        <time>2020-10-17T13:32:18Z</time>
      </trkpt>
      <trkpt lat="46.15602" lon="4.54814">
        <ele>406.4</ele>
        <time>2020-10-17T13:32:19Z</time>
      </trkpt>
      <trkpt lat="46.156" lon="4.54813">
        <ele>406.4</ele>
        <time>2020-10-17T13:32:20Z</time>
      </trkpt>
      <trkpt lat="46.15599" lon="4.54812">
        <ele>406.4</ele>
        <time>2020-10-17T13:32:21Z</time>
      </trkpt>
      <trkpt lat="46.15599" lon="4.54812">
        <ele>406.6</ele>
        <time>2020-10-17T13:32:22Z</time>
      </trkpt>
      <trkpt lat="46.15595" lon="4.5481">
        <ele>406.4</ele>
        <time>2020-10-17T13:32:23Z</time>
      </trkpt>
      <trkpt lat="46.15595" lon="4.5481">
        <ele>406.6</ele>
        <time>2020-10-17T13:32:24Z</time>
      </trkpt>
      <trkpt lat="46.15593" lon="4.54806">
        <ele>406.6</ele>
        <time>2020-10-17T13:32:25Z</time>
      </trkpt>
      <trkpt lat="46.15592" lon="4.54804">
        <ele>406.6</ele>
        <time>2020-10-17T13:32:26Z</time>
      </trkpt>
      <trkpt lat="46.1559" lon="4.54802">
        <ele>406.8</ele>
        <time>2020-10-17T13:32:27Z</time>
      </trkpt>
      <trkpt lat="46.1559" lon="4.54802">
        <ele>406.8</ele>
        <time>2020-10-17T13:32:28Z</time>
      </trkpt>
      <trkpt lat="46.15588" lon="4.54799">
        <ele>406.8</ele>
        <time>2020-10-17T13:32:29Z</time>
      </trkpt>
      <trkpt lat="46.15588" lon="4.54799">
        <ele>406.6</ele>
        <time>2020-10-17T13:32:30Z</time>
      </trkpt>
      <trkpt lat="46.15586" lon="4.54796">
        <ele>406.4</ele>
        <time>2020-10-17T13:32:31Z</time>
      </trkpt>
      <trkpt lat="46.15586" lon="4.54796">
        <ele>406.6</ele>
        <time>2020-10-17T13:32:32Z</time>
      </trkpt>
      <trkpt lat="46.15584" lon="4.54793">
        <ele>406.6</ele>
        <time>2020-10-17T13:32:33Z</time>
      </trkpt>
      <trkpt lat="46.15584" lon="4.54793">
        <ele>406.4</ele>
        <time>2020-10-17T13:32:34Z</time>
      </trkpt>
      <trkpt lat="46.15582" lon="4.5479">
        <ele>406.2</ele>
        <time>2020-10-17T13:32:35Z</time>
      </trkpt>
      <trkpt lat="46.15582" lon="4.5479">
        <ele>406.4</ele>
        <time>2020-10-17T13:32:36Z</time>
      </trkpt>
      <trkpt lat="46.1558" lon="4.54788">
        <ele>406.2</ele>
        <time>2020-10-17T13:32:37Z</time>
      </trkpt>
      <trkpt lat="46.15578" lon="4.54786">
        <ele>406.2</ele>
        <time>2020-10-17T13:32:38Z</time>
      </trkpt>
      <trkpt lat="46.15578" lon="4.54786">
        <ele>406.4</ele>
        <time>2020-10-17T13:32:39Z</time>
      </trkpt>
      <trkpt lat="46.15575" lon="4.54784">
        <ele>406.2</ele>
        <time>2020-10-17T13:32:40Z</time>
      </trkpt>
      <trkpt lat="46.15575" lon="4.54784">
        <ele>406.2</ele>
        <time>2020-10-17T13:32:41Z</time>
      </trkpt>
      <trkpt lat="46.15572" lon="4.54781">
        <ele>406.4</ele>
        <time>2020-10-17T13:32:42Z</time>
      </trkpt>
      <trkpt lat="46.15572" lon="4.54781">
        <ele>406.2</ele>
        <time>2020-10-17T13:32:43Z</time>
      </trkpt>
      <trkpt lat="46.15569" lon="4.5478">
        <ele>406.2</ele>
        <time>2020-10-17T13:32:44Z</time>
      </trkpt>
      <trkpt lat="46.15569" lon="4.5478">
        <ele>406.6</ele>
        <time>2020-10-17T13:32:45Z</time>
      </trkpt>
      <trkpt lat="46.15566" lon="4.54779">
        <ele>407</ele>
        <time>2020-10-17T13:32:46Z</time>
      </trkpt>
      <trkpt lat="46.15566" lon="4.54779">
        <ele>407</ele>
        <time>2020-10-17T13:32:47Z</time>
      </trkpt>
      <trkpt lat="46.15564" lon="4.5478">
        <ele>407</ele>
        <time>2020-10-17T13:32:48Z</time>
      </trkpt>
      <trkpt lat="46.15564" lon="4.5478">
        <ele>406.8</ele>
        <time>2020-10-17T13:32:49Z</time>
      </trkpt>
      <trkpt lat="46.15561" lon="4.54781">
        <ele>406.8</ele>
        <time>2020-10-17T13:32:50Z</time>
      </trkpt>
      <trkpt lat="46.15561" lon="4.54781">
        <ele>406.8</ele>
        <time>2020-10-17T13:32:51Z</time>
      </trkpt>
      <trkpt lat="46.15559" lon="4.54783">
        <ele>406.8</ele>
        <time>2020-10-17T13:32:52Z</time>
      </trkpt>
      <trkpt lat="46.15559" lon="4.54783">
        <ele>406.8</ele>
        <time>2020-10-17T13:32:53Z</time>
      </trkpt>
      <trkpt lat="46.15559" lon="4.54783">
        <ele>406.8</ele>
        <time>2020-10-17T13:32:54Z</time>
      </trkpt>
      <trkpt lat="46.15559" lon="4.54783">
        <ele>406.8</ele>
        <time>2020-10-17T13:32:55Z</time>
      </trkpt>
      <trkpt lat="46.15559" lon="4.54783">
        <ele>406.6</ele>
        <time>2020-10-17T13:32:56Z</time>
      </trkpt>
      <trkpt lat="46.15559" lon="4.54783">
        <ele>406.8</ele>
        <time>2020-10-17T13:32:57Z</time>
      </trkpt>
      <trkpt lat="46.15559" lon="4.54783">
        <ele>406.6</ele>
        <time>2020-10-17T13:32:58Z</time>
      </trkpt>
      <trkpt lat="46.15561" lon="4.5478">
        <ele>406.6</ele>
        <time>2020-10-17T13:32:59Z</time>
      </trkpt>
      <trkpt lat="46.15562" lon="4.54778">
        <ele>406.4</ele>
        <time>2020-10-17T13:33:00Z</time>
      </trkpt>
      <trkpt lat="46.15562" lon="4.54778">
        <ele>406.4</ele>
        <time>2020-10-17T13:33:01Z</time>
      </trkpt>
      <trkpt lat="46.15564" lon="4.54774">
        <ele>406.4</ele>
        <time>2020-10-17T13:33:02Z</time>
      </trkpt>
      <trkpt lat="46.15564" lon="4.54774">
        <ele>406.2</ele>
        <time>2020-10-17T13:33:03Z</time>
      </trkpt>
      <trkpt lat="46.15565" lon="4.54771">
        <ele>406.2</ele>
        <time>2020-10-17T13:33:04Z</time>
      </trkpt>
      <trkpt lat="46.15565" lon="4.54771">
        <ele>406.4</ele>
        <time>2020-10-17T13:33:05Z</time>
      </trkpt>
      <trkpt lat="46.15565" lon="4.54771">
        <ele>406.4</ele>
        <time>2020-10-17T13:33:06Z</time>
      </trkpt>
      <trkpt lat="46.15565" lon="4.54771">
        <ele>406.4</ele>
        <time>2020-10-17T13:33:07Z</time>
      </trkpt>
      <trkpt lat="46.15564" lon="4.54775">
        <ele>406.4</ele>
        <time>2020-10-17T13:33:08Z</time>
      </trkpt>
      <trkpt lat="46.15564" lon="4.54775">
        <ele>406.4</ele>
        <time>2020-10-17T13:33:09Z</time>
      </trkpt>
      <trkpt lat="46.15563" lon="4.54778">
        <ele>406.4</ele>
        <time>2020-10-17T13:33:10Z</time>
      </trkpt>
      <trkpt lat="46.15563" lon="4.54778">
        <ele>406.2</ele>
        <time>2020-10-17T13:33:11Z</time>
      </trkpt>
      <trkpt lat="46.15562" lon="4.54783">
        <ele>406.4</ele>
        <time>2020-10-17T13:33:12Z</time>
      </trkpt>
      <trkpt lat="46.15562" lon="4.54783">
        <ele>406.4</ele>
        <time>2020-10-17T13:33:13Z</time>
      </trkpt>
      <trkpt lat="46.15561" lon="4.54787">
        <ele>406.6</ele>
        <time>2020-10-17T13:33:14Z</time>
      </trkpt>
      <trkpt lat="46.15561" lon="4.54787">
        <ele>406.8</ele>
        <time>2020-10-17T13:33:15Z</time>
      </trkpt>
      <trkpt lat="46.1556" lon="4.5479">
        <ele>406.8</ele>
        <time>2020-10-17T13:33:16Z</time>
      </trkpt>
      <trkpt lat="46.1556" lon="4.5479">
        <ele>407</ele>
        <time>2020-10-17T13:33:17Z</time>
      </trkpt>
      <trkpt lat="46.1556" lon="4.54794">
        <ele>406.8</ele>
        <time>2020-10-17T13:33:18Z</time>
      </trkpt>
      <trkpt lat="46.1556" lon="4.54794">
        <ele>407.2</ele>
        <time>2020-10-17T13:33:19Z</time>
      </trkpt>
      <trkpt lat="46.1556" lon="4.54798">
        <ele>407.2</ele>
        <time>2020-10-17T13:33:20Z</time>
      </trkpt>
      <trkpt lat="46.1556" lon="4.54798">
        <ele>407.2</ele>
        <time>2020-10-17T13:33:21Z</time>
      </trkpt>
      <trkpt lat="46.1556" lon="4.54802">
        <ele>407.6</ele>
        <time>2020-10-17T13:33:22Z</time>
      </trkpt>
      <trkpt lat="46.1556" lon="4.54802">
        <ele>407.6</ele>
        <time>2020-10-17T13:33:23Z</time>
      </trkpt>
      <trkpt lat="46.15559" lon="4.54806">
        <ele>408</ele>
        <time>2020-10-17T13:33:24Z</time>
      </trkpt>
      <trkpt lat="46.15559" lon="4.54806">
        <ele>408</ele>
        <time>2020-10-17T13:33:25Z</time>
      </trkpt>
      <trkpt lat="46.15559" lon="4.54809">
        <ele>408</ele>
        <time>2020-10-17T13:33:26Z</time>
      </trkpt>
      <trkpt lat="46.15559" lon="4.54809">
        <ele>408</ele>
        <time>2020-10-17T13:33:27Z</time>
      </trkpt>
      <trkpt lat="46.15558" lon="4.54813">
        <ele>408.2</ele>
        <time>2020-10-17T13:33:28Z</time>
      </trkpt>
      <trkpt lat="46.15558" lon="4.54813">
        <ele>408.4</ele>
        <time>2020-10-17T13:33:29Z</time>
      </trkpt>
      <trkpt lat="46.15558" lon="4.54817">
        <ele>408.4</ele>
        <time>2020-10-17T13:33:30Z</time>
      </trkpt>
      <trkpt lat="46.15558" lon="4.54817">
        <ele>408.6</ele>
        <time>2020-10-17T13:33:31Z</time>
      </trkpt>
      <trkpt lat="46.15557" lon="4.54821">
        <ele>408.6</ele>
        <time>2020-10-17T13:33:32Z</time>
      </trkpt>
      <trkpt lat="46.15557" lon="4.54821">
        <ele>408.6</ele>
        <time>2020-10-17T13:33:33Z</time>
      </trkpt>
      <trkpt lat="46.15557" lon="4.54824">
        <ele>408.6</ele>
        <time>2020-10-17T13:33:34Z</time>
      </trkpt>
      <trkpt lat="46.15557" lon="4.54824">
        <ele>408.8</ele>
        <time>2020-10-17T13:33:35Z</time>
      </trkpt>
      <trkpt lat="46.15557" lon="4.54828">
        <ele>408.8</ele>
        <time>2020-10-17T13:33:36Z</time>
      </trkpt>
      <trkpt lat="46.15557" lon="4.54828">
        <ele>408.8</ele>
        <time>2020-10-17T13:33:37Z</time>
      </trkpt>
      <trkpt lat="46.15556" lon="4.54832">
        <ele>408.6</ele>
        <time>2020-10-17T13:33:38Z</time>
      </trkpt>
      <trkpt lat="46.15556" lon="4.54832">
        <ele>408.8</ele>
        <time>2020-10-17T13:33:39Z</time>
      </trkpt>
      <trkpt lat="46.15556" lon="4.54837">
        <ele>409</ele>
        <time>2020-10-17T13:33:40Z</time>
      </trkpt>
      <trkpt lat="46.15556" lon="4.54837">
        <ele>409.2</ele>
        <time>2020-10-17T13:33:41Z</time>
      </trkpt>
      <trkpt lat="46.15554" lon="4.5484">
        <ele>409.4</ele>
        <time>2020-10-17T13:33:42Z</time>
      </trkpt>
      <trkpt lat="46.15554" lon="4.5484">
        <ele>409.4</ele>
        <time>2020-10-17T13:33:43Z</time>
      </trkpt>
      <trkpt lat="46.15553" lon="4.54843">
        <ele>409.8</ele>
        <time>2020-10-17T13:33:44Z</time>
      </trkpt>
      <trkpt lat="46.15553" lon="4.54843">
        <ele>409.8</ele>
        <time>2020-10-17T13:33:45Z</time>
      </trkpt>
      <trkpt lat="46.15551" lon="4.54846">
        <ele>409.8</ele>
        <time>2020-10-17T13:33:46Z</time>
      </trkpt>
      <trkpt lat="46.15551" lon="4.54846">
        <ele>410</ele>
        <time>2020-10-17T13:33:47Z</time>
      </trkpt>
      <trkpt lat="46.15548" lon="4.54847">
        <ele>410.2</ele>
        <time>2020-10-17T13:33:48Z</time>
      </trkpt>
      <trkpt lat="46.15548" lon="4.54847">
        <ele>410.2</ele>
        <time>2020-10-17T13:33:49Z</time>
      </trkpt>
      <trkpt lat="46.15545" lon="4.54849">
        <ele>410.2</ele>
        <time>2020-10-17T13:33:50Z</time>
      </trkpt>
      <trkpt lat="46.15545" lon="4.54849">
        <ele>410.2</ele>
        <time>2020-10-17T13:33:51Z</time>
      </trkpt>
      <trkpt lat="46.15542" lon="4.5485">
        <ele>410.6</ele>
        <time>2020-10-17T13:33:52Z</time>
      </trkpt>
      <trkpt lat="46.15542" lon="4.5485">
        <ele>410.6</ele>
        <time>2020-10-17T13:33:53Z</time>
      </trkpt>
      <trkpt lat="46.15539" lon="4.5485">
        <ele>410.8</ele>
        <time>2020-10-17T13:33:54Z</time>
      </trkpt>
      <trkpt lat="46.15539" lon="4.5485">
        <ele>410.8</ele>
        <time>2020-10-17T13:33:55Z</time>
      </trkpt>
      <trkpt lat="46.15535" lon="4.54851">
        <ele>411</ele>
        <time>2020-10-17T13:33:56Z</time>
      </trkpt>
      <trkpt lat="46.15535" lon="4.54851">
        <ele>411</ele>
        <time>2020-10-17T13:33:57Z</time>
      </trkpt>
      <trkpt lat="46.15532" lon="4.5485">
        <ele>411</ele>
        <time>2020-10-17T13:33:58Z</time>
      </trkpt>
      <trkpt lat="46.15532" lon="4.5485">
        <ele>410.8</ele>
        <time>2020-10-17T13:33:59Z</time>
      </trkpt>
      <trkpt lat="46.15529" lon="4.54849">
        <ele>411</ele>
        <time>2020-10-17T13:34:00Z</time>
      </trkpt>
      <trkpt lat="46.15529" lon="4.54849">
        <ele>411</ele>
        <time>2020-10-17T13:34:01Z</time>
      </trkpt>
      <trkpt lat="46.15527" lon="4.54848">
        <ele>411</ele>
        <time>2020-10-17T13:34:02Z</time>
      </trkpt>
      <trkpt lat="46.15527" lon="4.54848">
        <ele>411.2</ele>
        <time>2020-10-17T13:34:03Z</time>
      </trkpt>
      <trkpt lat="46.15524" lon="4.54847">
        <ele>411.2</ele>
        <time>2020-10-17T13:34:04Z</time>
      </trkpt>
      <trkpt lat="46.15524" lon="4.54847">
        <ele>411.4</ele>
        <time>2020-10-17T13:34:05Z</time>
      </trkpt>
      <trkpt lat="46.15521" lon="4.54846">
        <ele>411.4</ele>
        <time>2020-10-17T13:34:06Z</time>
      </trkpt>
      <trkpt lat="46.15521" lon="4.54846">
        <ele>411.2</ele>
        <time>2020-10-17T13:34:07Z</time>
      </trkpt>
      <trkpt lat="46.15518" lon="4.54846">
        <ele>411.4</ele>
        <time>2020-10-17T13:34:08Z</time>
      </trkpt>
      <trkpt lat="46.15518" lon="4.54846">
        <ele>411.4</ele>
        <time>2020-10-17T13:34:09Z</time>
      </trkpt>
      <trkpt lat="46.15515" lon="4.54845">
        <ele>411.4</ele>
        <time>2020-10-17T13:34:10Z</time>
      </trkpt>
      <trkpt lat="46.15515" lon="4.54845">
        <ele>411.4</ele>
        <time>2020-10-17T13:34:11Z</time>
      </trkpt>
      <trkpt lat="46.15512" lon="4.54844">
        <ele>411.6</ele>
        <time>2020-10-17T13:34:12Z</time>
      </trkpt>
      <trkpt lat="46.15512" lon="4.54844">
        <ele>411.6</ele>
        <time>2020-10-17T13:34:13Z</time>
      </trkpt>
      <trkpt lat="46.15509" lon="4.54844">
        <ele>412</ele>
        <time>2020-10-17T13:34:14Z</time>
      </trkpt>
      <trkpt lat="46.15509" lon="4.54844">
        <ele>411.8</ele>
        <time>2020-10-17T13:34:15Z</time>
      </trkpt>
      <trkpt lat="46.15506" lon="4.54844">
        <ele>412</ele>
        <time>2020-10-17T13:34:16Z</time>
      </trkpt>
      <trkpt lat="46.15506" lon="4.54844">
        <ele>412.2</ele>
        <time>2020-10-17T13:34:17Z</time>
      </trkpt>
      <trkpt lat="46.15504" lon="4.54844">
        <ele>412.2</ele>
        <time>2020-10-17T13:34:18Z</time>
      </trkpt>
      <trkpt lat="46.15504" lon="4.54844">
        <ele>412.8</ele>
        <time>2020-10-17T13:34:19Z</time>
      </trkpt>
      <trkpt lat="46.15501" lon="4.54843">
        <ele>412.8</ele>
        <time>2020-10-17T13:34:20Z</time>
      </trkpt>
      <trkpt lat="46.15501" lon="4.54843">
        <ele>412.8</ele>
        <time>2020-10-17T13:34:21Z</time>
      </trkpt>
      <trkpt lat="46.15498" lon="4.54842">
        <ele>413</ele>
        <time>2020-10-17T13:34:22Z</time>
      </trkpt>
      <trkpt lat="46.15498" lon="4.54842">
        <ele>413.2</ele>
        <time>2020-10-17T13:34:23Z</time>
      </trkpt>
      <trkpt lat="46.15496" lon="4.54841">
        <ele>413.2</ele>
        <time>2020-10-17T13:34:24Z</time>
      </trkpt>
      <trkpt lat="46.15496" lon="4.54841">
        <ele>413.6</ele>
        <time>2020-10-17T13:34:25Z</time>
      </trkpt>
      <trkpt lat="46.15493" lon="4.54841">
        <ele>413.8</ele>
        <time>2020-10-17T13:34:26Z</time>
      </trkpt>
      <trkpt lat="46.15493" lon="4.54841">
        <ele>414</ele>
        <time>2020-10-17T13:34:27Z</time>
      </trkpt>
      <trkpt lat="46.15491" lon="4.54842">
        <ele>413.8</ele>
        <time>2020-10-17T13:34:28Z</time>
      </trkpt>
      <trkpt lat="46.15491" lon="4.54842">
        <ele>413.8</ele>
        <time>2020-10-17T13:34:29Z</time>
      </trkpt>
      <trkpt lat="46.15489" lon="4.54842">
        <ele>413.6</ele>
        <time>2020-10-17T13:34:30Z</time>
      </trkpt>
      <trkpt lat="46.15489" lon="4.54842">
        <ele>413.6</ele>
        <time>2020-10-17T13:34:31Z</time>
      </trkpt>
      <trkpt lat="46.15486" lon="4.54842">
        <ele>413.6</ele>
        <time>2020-10-17T13:34:32Z</time>
      </trkpt>
      <trkpt lat="46.15486" lon="4.54842">
        <ele>413.6</ele>
        <time>2020-10-17T13:34:33Z</time>
      </trkpt>
      <trkpt lat="46.15483" lon="4.54844">
        <ele>413.6</ele>
        <time>2020-10-17T13:34:34Z</time>
      </trkpt>
      <trkpt lat="46.15483" lon="4.54844">
        <ele>413.8</ele>
        <time>2020-10-17T13:34:35Z</time>
      </trkpt>
      <trkpt lat="46.1548" lon="4.54843">
        <ele>414</ele>
        <time>2020-10-17T13:34:36Z</time>
      </trkpt>
      <trkpt lat="46.1548" lon="4.54843">
        <ele>414</ele>
        <time>2020-10-17T13:34:37Z</time>
      </trkpt>
      <trkpt lat="46.15477" lon="4.54843">
        <ele>414.2</ele>
        <time>2020-10-17T13:34:38Z</time>
      </trkpt>
      <trkpt lat="46.15477" lon="4.54843">
        <ele>414.2</ele>
        <time>2020-10-17T13:34:39Z</time>
      </trkpt>
      <trkpt lat="46.15474" lon="4.54843">
        <ele>414.6</ele>
        <time>2020-10-17T13:34:40Z</time>
      </trkpt>
      <trkpt lat="46.15474" lon="4.54843">
        <ele>414.8</ele>
        <time>2020-10-17T13:34:41Z</time>
      </trkpt>
      <trkpt lat="46.15472" lon="4.54843">
        <ele>414.6</ele>
        <time>2020-10-17T13:34:42Z</time>
      </trkpt>
      <trkpt lat="46.15472" lon="4.54843">
        <ele>414.6</ele>
        <time>2020-10-17T13:34:43Z</time>
      </trkpt>
      <trkpt lat="46.15468" lon="4.54843">
        <ele>414.8</ele>
        <time>2020-10-17T13:34:44Z</time>
      </trkpt>
      <trkpt lat="46.15468" lon="4.54843">
        <ele>415</ele>
        <time>2020-10-17T13:34:45Z</time>
      </trkpt>
      <trkpt lat="46.15466" lon="4.54843">
        <ele>415.4</ele>
        <time>2020-10-17T13:34:46Z</time>
      </trkpt>
      <trkpt lat="46.15466" lon="4.54843">
        <ele>415.6</ele>
        <time>2020-10-17T13:34:47Z</time>
      </trkpt>
      <trkpt lat="46.15463" lon="4.54843">
        <ele>416</ele>
        <time>2020-10-17T13:34:48Z</time>
      </trkpt>
      <trkpt lat="46.15463" lon="4.54843">
        <ele>416</ele>
        <time>2020-10-17T13:34:49Z</time>
      </trkpt>
      <trkpt lat="46.1546" lon="4.54844">
        <ele>416.4</ele>
        <time>2020-10-17T13:34:50Z</time>
      </trkpt>
      <trkpt lat="46.1546" lon="4.54844">
        <ele>416.4</ele>
        <time>2020-10-17T13:34:51Z</time>
      </trkpt>
      <trkpt lat="46.15458" lon="4.54845">
        <ele>416.4</ele>
        <time>2020-10-17T13:34:52Z</time>
      </trkpt>
      <trkpt lat="46.15458" lon="4.54845">
        <ele>416.6</ele>
        <time>2020-10-17T13:34:53Z</time>
      </trkpt>
      <trkpt lat="46.15456" lon="4.54846">
        <ele>416.8</ele>
        <time>2020-10-17T13:34:54Z</time>
      </trkpt>
      <trkpt lat="46.15456" lon="4.54846">
        <ele>417</ele>
        <time>2020-10-17T13:34:55Z</time>
      </trkpt>
      <trkpt lat="46.15454" lon="4.54847">
        <ele>417.2</ele>
        <time>2020-10-17T13:34:56Z</time>
      </trkpt>
      <trkpt lat="46.15454" lon="4.54847">
        <ele>417.4</ele>
        <time>2020-10-17T13:34:57Z</time>
      </trkpt>
      <trkpt lat="46.15452" lon="4.54849">
        <ele>417.8</ele>
        <time>2020-10-17T13:34:58Z</time>
      </trkpt>
      <trkpt lat="46.15452" lon="4.54849">
        <ele>417.8</ele>
        <time>2020-10-17T13:34:59Z</time>
      </trkpt>
      <trkpt lat="46.1545" lon="4.54851">
        <ele>418</ele>
        <time>2020-10-17T13:35:00Z</time>
      </trkpt>
      <trkpt lat="46.1545" lon="4.54851">
        <ele>418</ele>
        <time>2020-10-17T13:35:01Z</time>
      </trkpt>
      <trkpt lat="46.15447" lon="4.54853">
        <ele>418.2</ele>
        <time>2020-10-17T13:35:02Z</time>
      </trkpt>
      <trkpt lat="46.15447" lon="4.54853">
        <ele>418.2</ele>
        <time>2020-10-17T13:35:03Z</time>
      </trkpt>
      <trkpt lat="46.15445" lon="4.54854">
        <ele>418.4</ele>
        <time>2020-10-17T13:35:04Z</time>
      </trkpt>
      <trkpt lat="46.15445" lon="4.54854">
        <ele>418.6</ele>
        <time>2020-10-17T13:35:05Z</time>
      </trkpt>
      <trkpt lat="46.15443" lon="4.54856">
        <ele>418.4</ele>
        <time>2020-10-17T13:35:06Z</time>
      </trkpt>
      <trkpt lat="46.15443" lon="4.54856">
        <ele>418.8</ele>
        <time>2020-10-17T13:35:07Z</time>
      </trkpt>
      <trkpt lat="46.15441" lon="4.54858">
        <ele>419.2</ele>
        <time>2020-10-17T13:35:08Z</time>
      </trkpt>
      <trkpt lat="46.15441" lon="4.54858">
        <ele>419.2</ele>
        <time>2020-10-17T13:35:09Z</time>
      </trkpt>
      <trkpt lat="46.15439" lon="4.54859">
        <ele>419.2</ele>
        <time>2020-10-17T13:35:10Z</time>
      </trkpt>
      <trkpt lat="46.15439" lon="4.54859">
        <ele>419.6</ele>
        <time>2020-10-17T13:35:11Z</time>
      </trkpt>
      <trkpt lat="46.15436" lon="4.54861">
        <ele>419.8</ele>
        <time>2020-10-17T13:35:12Z</time>
      </trkpt>
      <trkpt lat="46.15436" lon="4.54861">
        <ele>420</ele>
        <time>2020-10-17T13:35:13Z</time>
      </trkpt>
      <trkpt lat="46.15433" lon="4.54864">
        <ele>420.2</ele>
        <time>2020-10-17T13:35:14Z</time>
      </trkpt>
      <trkpt lat="46.15433" lon="4.54864">
        <ele>420.2</ele>
        <time>2020-10-17T13:35:15Z</time>
      </trkpt>
      <trkpt lat="46.15431" lon="4.54866">
        <ele>420.2</ele>
        <time>2020-10-17T13:35:16Z</time>
      </trkpt>
      <trkpt lat="46.15431" lon="4.54866">
        <ele>420</ele>
        <time>2020-10-17T13:35:17Z</time>
      </trkpt>
      <trkpt lat="46.15428" lon="4.54868">
        <ele>420.2</ele>
        <time>2020-10-17T13:35:18Z</time>
      </trkpt>
      <trkpt lat="46.15428" lon="4.54868">
        <ele>420.2</ele>
        <time>2020-10-17T13:35:19Z</time>
      </trkpt>
      <trkpt lat="46.15426" lon="4.54871">
        <ele>420.4</ele>
        <time>2020-10-17T13:35:20Z</time>
      </trkpt>
      <trkpt lat="46.15426" lon="4.54871">
        <ele>421</ele>
        <time>2020-10-17T13:35:21Z</time>
      </trkpt>
      <trkpt lat="46.15424" lon="4.54874">
        <ele>421.4</ele>
        <time>2020-10-17T13:35:22Z</time>
      </trkpt>
      <trkpt lat="46.15424" lon="4.54874">
        <ele>421.4</ele>
        <time>2020-10-17T13:35:23Z</time>
      </trkpt>
      <trkpt lat="46.15421" lon="4.54876">
        <ele>421.6</ele>
        <time>2020-10-17T13:35:24Z</time>
      </trkpt>
      <trkpt lat="46.15421" lon="4.54876">
        <ele>421.6</ele>
        <time>2020-10-17T13:35:25Z</time>
      </trkpt>
      <trkpt lat="46.15419" lon="4.54877">
        <ele>421.8</ele>
        <time>2020-10-17T13:35:26Z</time>
      </trkpt>
      <trkpt lat="46.15419" lon="4.54877">
        <ele>421.8</ele>
        <time>2020-10-17T13:35:27Z</time>
      </trkpt>
      <trkpt lat="46.15419" lon="4.54877">
        <ele>422.2</ele>
        <time>2020-10-17T13:35:28Z</time>
      </trkpt>
      <trkpt lat="46.15417" lon="4.5488">
        <ele>422.4</ele>
        <time>2020-10-17T13:35:29Z</time>
      </trkpt>
      <trkpt lat="46.15417" lon="4.5488">
        <ele>422.6</ele>
        <time>2020-10-17T13:35:30Z</time>
      </trkpt>
      <trkpt lat="46.15415" lon="4.54882">
        <ele>422.8</ele>
        <time>2020-10-17T13:35:31Z</time>
      </trkpt>
      <trkpt lat="46.15415" lon="4.54882">
        <ele>423</ele>
        <time>2020-10-17T13:35:32Z</time>
      </trkpt>
      <trkpt lat="46.15413" lon="4.54884">
        <ele>423</ele>
        <time>2020-10-17T13:35:33Z</time>
      </trkpt>
      <trkpt lat="46.15413" lon="4.54884">
        <ele>423</ele>
        <time>2020-10-17T13:35:34Z</time>
      </trkpt>
      <trkpt lat="46.15411" lon="4.54887">
        <ele>423</ele>
        <time>2020-10-17T13:35:35Z</time>
      </trkpt>
      <trkpt lat="46.15411" lon="4.54887">
        <ele>423.4</ele>
        <time>2020-10-17T13:35:36Z</time>
      </trkpt>
      <trkpt lat="46.1541" lon="4.5489">
        <ele>423.6</ele>
        <time>2020-10-17T13:35:37Z</time>
      </trkpt>
      <trkpt lat="46.1541" lon="4.5489">
        <ele>423.8</ele>
        <time>2020-10-17T13:35:38Z</time>
      </trkpt>
      <trkpt lat="46.15409" lon="4.54893">
        <ele>424.2</ele>
        <time>2020-10-17T13:35:39Z</time>
      </trkpt>
      <trkpt lat="46.15409" lon="4.54893">
        <ele>424.2</ele>
        <time>2020-10-17T13:35:40Z</time>
      </trkpt>
      <trkpt lat="46.15409" lon="4.54893">
        <ele>424.2</ele>
        <time>2020-10-17T13:35:41Z</time>
      </trkpt>
      <trkpt lat="46.15411" lon="4.54896">
        <ele>424.6</ele>
        <time>2020-10-17T13:35:42Z</time>
      </trkpt>
      <trkpt lat="46.15411" lon="4.54896">
        <ele>424.6</ele>
        <time>2020-10-17T13:35:43Z</time>
      </trkpt>
      <trkpt lat="46.15413" lon="4.54897">
        <ele>424.4</ele>
        <time>2020-10-17T13:35:44Z</time>
      </trkpt>
      <trkpt lat="46.15413" lon="4.54897">
        <ele>424.4</ele>
        <time>2020-10-17T13:35:45Z</time>
      </trkpt>
      <trkpt lat="46.15416" lon="4.54896">
        <ele>424.6</ele>
        <time>2020-10-17T13:35:46Z</time>
      </trkpt>
      <trkpt lat="46.15416" lon="4.54896">
        <ele>424.8</ele>
        <time>2020-10-17T13:35:47Z</time>
      </trkpt>
      <trkpt lat="46.15418" lon="4.54895">
        <ele>424.8</ele>
        <time>2020-10-17T13:35:48Z</time>
      </trkpt>
      <trkpt lat="46.15418" lon="4.54895">
        <ele>424.8</ele>
        <time>2020-10-17T13:35:49Z</time>
      </trkpt>
      <trkpt lat="46.15421" lon="4.54893">
        <ele>424.8</ele>
        <time>2020-10-17T13:35:50Z</time>
      </trkpt>
      <trkpt lat="46.15421" lon="4.54893">
        <ele>424.8</ele>
        <time>2020-10-17T13:35:51Z</time>
      </trkpt>
      <trkpt lat="46.15424" lon="4.54892">
        <ele>425</ele>
        <time>2020-10-17T13:35:52Z</time>
      </trkpt>
      <trkpt lat="46.15424" lon="4.54892">
        <ele>425</ele>
        <time>2020-10-17T13:35:53Z</time>
      </trkpt>
      <trkpt lat="46.15426" lon="4.5489">
        <ele>425.2</ele>
        <time>2020-10-17T13:35:54Z</time>
      </trkpt>
      <trkpt lat="46.15426" lon="4.5489">
        <ele>425.4</ele>
        <time>2020-10-17T13:35:55Z</time>
      </trkpt>
      <trkpt lat="46.15429" lon="4.54888">
        <ele>425.2</ele>
        <time>2020-10-17T13:35:56Z</time>
      </trkpt>
      <trkpt lat="46.15429" lon="4.54888">
        <ele>425.2</ele>
        <time>2020-10-17T13:35:57Z</time>
      </trkpt>
      <trkpt lat="46.15432" lon="4.54886">
        <ele>425</ele>
        <time>2020-10-17T13:35:58Z</time>
      </trkpt>
      <trkpt lat="46.15432" lon="4.54886">
        <ele>425.2</ele>
        <time>2020-10-17T13:35:59Z</time>
      </trkpt>
      <trkpt lat="46.15434" lon="4.54884">
        <ele>425.2</ele>
        <time>2020-10-17T13:36:00Z</time>
      </trkpt>
      <trkpt lat="46.15434" lon="4.54884">
        <ele>425.4</ele>
        <time>2020-10-17T13:36:01Z</time>
      </trkpt>
      <trkpt lat="46.15436" lon="4.54882">
        <ele>425.4</ele>
        <time>2020-10-17T13:36:02Z</time>
      </trkpt>
      <trkpt lat="46.15436" lon="4.54882">
        <ele>425.6</ele>
        <time>2020-10-17T13:36:03Z</time>
      </trkpt>
      <trkpt lat="46.15438" lon="4.54879">
        <ele>425.8</ele>
        <time>2020-10-17T13:36:04Z</time>
      </trkpt>
      <trkpt lat="46.15438" lon="4.54879">
        <ele>426</ele>
        <time>2020-10-17T13:36:05Z</time>
      </trkpt>
      <trkpt lat="46.15441" lon="4.54878">
        <ele>426</ele>
        <time>2020-10-17T13:36:06Z</time>
      </trkpt>
      <trkpt lat="46.15441" lon="4.54878">
        <ele>426</ele>
        <time>2020-10-17T13:36:07Z</time>
      </trkpt>
      <trkpt lat="46.15441" lon="4.54878">
        <ele>425.8</ele>
        <time>2020-10-17T13:36:08Z</time>
      </trkpt>
      <trkpt lat="46.15444" lon="4.54877">
        <ele>426</ele>
        <time>2020-10-17T13:36:09Z</time>
      </trkpt>
      <trkpt lat="46.15444" lon="4.54877">
        <ele>426.2</ele>
        <time>2020-10-17T13:36:10Z</time>
      </trkpt>
      <trkpt lat="46.15446" lon="4.54876">
        <ele>426.2</ele>
        <time>2020-10-17T13:36:11Z</time>
      </trkpt>
      <trkpt lat="46.15446" lon="4.54876">
        <ele>426.4</ele>
        <time>2020-10-17T13:36:12Z</time>
      </trkpt>
      <trkpt lat="46.15449" lon="4.54876">
        <ele>426.6</ele>
        <time>2020-10-17T13:36:13Z</time>
      </trkpt>
      <trkpt lat="46.15449" lon="4.54876">
        <ele>427</ele>
        <time>2020-10-17T13:36:14Z</time>
      </trkpt>
      <trkpt lat="46.15452" lon="4.54875">
        <ele>427</ele>
        <time>2020-10-17T13:36:15Z</time>
      </trkpt>
      <trkpt lat="46.15452" lon="4.54875">
        <ele>427</ele>
        <time>2020-10-17T13:36:16Z</time>
      </trkpt>
      <trkpt lat="46.15455" lon="4.54874">
        <ele>427.4</ele>
        <time>2020-10-17T13:36:17Z</time>
      </trkpt>
      <trkpt lat="46.15455" lon="4.54874">
        <ele>427.4</ele>
        <time>2020-10-17T13:36:18Z</time>
      </trkpt>
      <trkpt lat="46.15458" lon="4.54874">
        <ele>427.4</ele>
        <time>2020-10-17T13:36:19Z</time>
      </trkpt>
      <trkpt lat="46.15458" lon="4.54874">
        <ele>427.8</ele>
        <time>2020-10-17T13:36:20Z</time>
      </trkpt>
      <trkpt lat="46.1546" lon="4.54872">
        <ele>427.8</ele>
        <time>2020-10-17T13:36:21Z</time>
      </trkpt>
      <trkpt lat="46.1546" lon="4.54872">
        <ele>427.8</ele>
        <time>2020-10-17T13:36:22Z</time>
      </trkpt>
      <trkpt lat="46.15463" lon="4.54871">
        <ele>428</ele>
        <time>2020-10-17T13:36:23Z</time>
      </trkpt>
      <trkpt lat="46.15463" lon="4.54871">
        <ele>428</ele>
        <time>2020-10-17T13:36:24Z</time>
      </trkpt>
      <trkpt lat="46.15465" lon="4.54869">
        <ele>428.2</ele>
        <time>2020-10-17T13:36:25Z</time>
      </trkpt>
      <trkpt lat="46.15465" lon="4.54869">
        <ele>428.4</ele>
        <time>2020-10-17T13:36:26Z</time>
      </trkpt>
      <trkpt lat="46.15467" lon="4.54869">
        <ele>428.4</ele>
        <time>2020-10-17T13:36:27Z</time>
      </trkpt>
      <trkpt lat="46.15467" lon="4.54869">
        <ele>428.6</ele>
        <time>2020-10-17T13:36:28Z</time>
      </trkpt>
      <trkpt lat="46.15467" lon="4.54869">
        <ele>428.6</ele>
        <time>2020-10-17T13:36:29Z</time>
      </trkpt>
      <trkpt lat="46.15467" lon="4.54869">
        <ele>429</ele>
        <time>2020-10-17T13:36:30Z</time>
      </trkpt>
      <trkpt lat="46.15467" lon="4.54869">
        <ele>429.2</ele>
        <time>2020-10-17T13:36:31Z</time>
      </trkpt>
      <trkpt lat="46.1547" lon="4.54871">
        <ele>429.4</ele>
        <time>2020-10-17T13:36:32Z</time>
      </trkpt>
      <trkpt lat="46.1547" lon="4.54871">
        <ele>429.6</ele>
        <time>2020-10-17T13:36:33Z</time>
      </trkpt>
      <trkpt lat="46.15472" lon="4.54872">
        <ele>429.6</ele>
        <time>2020-10-17T13:36:34Z</time>
      </trkpt>
      <trkpt lat="46.15472" lon="4.54872">
        <ele>429.8</ele>
        <time>2020-10-17T13:36:35Z</time>
      </trkpt>
      <trkpt lat="46.15475" lon="4.54874">
        <ele>430</ele>
        <time>2020-10-17T13:36:36Z</time>
      </trkpt>
      <trkpt lat="46.15475" lon="4.54874">
        <ele>430.2</ele>
        <time>2020-10-17T13:36:37Z</time>
      </trkpt>
      <trkpt lat="46.15478" lon="4.54875">
        <ele>430.4</ele>
        <time>2020-10-17T13:36:38Z</time>
      </trkpt>
      <trkpt lat="46.15478" lon="4.54875">
        <ele>430.8</ele>
        <time>2020-10-17T13:36:39Z</time>
      </trkpt>
      <trkpt lat="46.15481" lon="4.54875">
        <ele>430.8</ele>
        <time>2020-10-17T13:36:40Z</time>
      </trkpt>
      <trkpt lat="46.15481" lon="4.54875">
        <ele>431</ele>
        <time>2020-10-17T13:36:41Z</time>
      </trkpt>
      <trkpt lat="46.15483" lon="4.54877">
        <ele>431.2</ele>
        <time>2020-10-17T13:36:42Z</time>
      </trkpt>
      <trkpt lat="46.15483" lon="4.54877">
        <ele>431.2</ele>
        <time>2020-10-17T13:36:43Z</time>
      </trkpt>
      <trkpt lat="46.15486" lon="4.54878">
        <ele>431.4</ele>
        <time>2020-10-17T13:36:44Z</time>
      </trkpt>
      <trkpt lat="46.15486" lon="4.54878">
        <ele>431.4</ele>
        <time>2020-10-17T13:36:45Z</time>
      </trkpt>
      <trkpt lat="46.15488" lon="4.5488">
        <ele>431.8</ele>
        <time>2020-10-17T13:36:46Z</time>
      </trkpt>
      <trkpt lat="46.15488" lon="4.5488">
        <ele>432</ele>
        <time>2020-10-17T13:36:47Z</time>
      </trkpt>
      <trkpt lat="46.15491" lon="4.54881">
        <ele>432</ele>
        <time>2020-10-17T13:36:48Z</time>
      </trkpt>
      <trkpt lat="46.15491" lon="4.54881">
        <ele>432.2</ele>
        <time>2020-10-17T13:36:49Z</time>
      </trkpt>
      <trkpt lat="46.15493" lon="4.54884">
        <ele>432.6</ele>
        <time>2020-10-17T13:36:50Z</time>
      </trkpt>
      <trkpt lat="46.15493" lon="4.54884">
        <ele>432.6</ele>
        <time>2020-10-17T13:36:51Z</time>
      </trkpt>
      <trkpt lat="46.15495" lon="4.54887">
        <ele>432.8</ele>
        <time>2020-10-17T13:36:52Z</time>
      </trkpt>
      <trkpt lat="46.15495" lon="4.54887">
        <ele>433</ele>
        <time>2020-10-17T13:36:53Z</time>
      </trkpt>
      <trkpt lat="46.15497" lon="4.54891">
        <ele>433.2</ele>
        <time>2020-10-17T13:36:54Z</time>
      </trkpt>
      <trkpt lat="46.15497" lon="4.54891">
        <ele>433.4</ele>
        <time>2020-10-17T13:36:55Z</time>
      </trkpt>
      <trkpt lat="46.15498" lon="4.54894">
        <ele>433.2</ele>
        <time>2020-10-17T13:36:56Z</time>
      </trkpt>
      <trkpt lat="46.15498" lon="4.54894">
        <ele>433.2</ele>
        <time>2020-10-17T13:36:57Z</time>
      </trkpt>
      <trkpt lat="46.15498" lon="4.54897">
        <ele>433.4</ele>
        <time>2020-10-17T13:36:58Z</time>
      </trkpt>
      <trkpt lat="46.15498" lon="4.54897">
        <ele>433.4</ele>
        <time>2020-10-17T13:36:59Z</time>
      </trkpt>
      <trkpt lat="46.15497" lon="4.549">
        <ele>433.4</ele>
        <time>2020-10-17T13:37:00Z</time>
      </trkpt>
      <trkpt lat="46.15497" lon="4.549">
        <ele>433.8</ele>
        <time>2020-10-17T13:37:01Z</time>
      </trkpt>
      <trkpt lat="46.15496" lon="4.54903">
        <ele>434.2</ele>
        <time>2020-10-17T13:37:02Z</time>
      </trkpt>
      <trkpt lat="46.15496" lon="4.54903">
        <ele>434.2</ele>
        <time>2020-10-17T13:37:03Z</time>
      </trkpt>
      <trkpt lat="46.15494" lon="4.54905">
        <ele>434.6</ele>
        <time>2020-10-17T13:37:04Z</time>
      </trkpt>
      <trkpt lat="46.15494" lon="4.54905">
        <ele>434.8</ele>
        <time>2020-10-17T13:37:05Z</time>
      </trkpt>
      <trkpt lat="46.15492" lon="4.54907">
        <ele>434.6</ele>
        <time>2020-10-17T13:37:06Z</time>
      </trkpt>
      <trkpt lat="46.15492" lon="4.54907">
        <ele>435</ele>
        <time>2020-10-17T13:37:07Z</time>
      </trkpt>
      <trkpt lat="46.1549" lon="4.54908">
        <ele>435.2</ele>
        <time>2020-10-17T13:37:08Z</time>
      </trkpt>
      <trkpt lat="46.1549" lon="4.54908">
        <ele>435.6</ele>
        <time>2020-10-17T13:37:09Z</time>
      </trkpt>
      <trkpt lat="46.15488" lon="4.54909">
        <ele>435.8</ele>
        <time>2020-10-17T13:37:10Z</time>
      </trkpt>
      <trkpt lat="46.15488" lon="4.54909">
        <ele>436.2</ele>
        <time>2020-10-17T13:37:11Z</time>
      </trkpt>
      <trkpt lat="46.15486" lon="4.54911">
        <ele>436.6</ele>
        <time>2020-10-17T13:37:12Z</time>
      </trkpt>
      <trkpt lat="46.15486" lon="4.54911">
        <ele>437</ele>
        <time>2020-10-17T13:37:13Z</time>
      </trkpt>
      <trkpt lat="46.15486" lon="4.54911">
        <ele>437.2</ele>
        <time>2020-10-17T13:37:14Z</time>
      </trkpt>
      <trkpt lat="46.15486" lon="4.54911">
        <ele>437.6</ele>
        <time>2020-10-17T13:37:15Z</time>
      </trkpt>
      <trkpt lat="46.15486" lon="4.54911">
        <ele>437.6</ele>
        <time>2020-10-17T13:37:16Z</time>
      </trkpt>
      <trkpt lat="46.15484" lon="4.54912">
        <ele>437.6</ele>
        <time>2020-10-17T13:37:17Z</time>
      </trkpt>
      <trkpt lat="46.15484" lon="4.54912">
        <ele>438</ele>
        <time>2020-10-17T13:37:18Z</time>
      </trkpt>
      <trkpt lat="46.15482" lon="4.54914">
        <ele>438</ele>
        <time>2020-10-17T13:37:19Z</time>
      </trkpt>
      <trkpt lat="46.15482" lon="4.54914">
        <ele>438.4</ele>
        <time>2020-10-17T13:37:20Z</time>
      </trkpt>
      <trkpt lat="46.15479" lon="4.54916">
        <ele>438.4</ele>
        <time>2020-10-17T13:37:21Z</time>
      </trkpt>
      <trkpt lat="46.15479" lon="4.54916">
        <ele>438.4</ele>
        <time>2020-10-17T13:37:22Z</time>
      </trkpt>
      <trkpt lat="46.15477" lon="4.54917">
        <ele>438.8</ele>
        <time>2020-10-17T13:37:23Z</time>
      </trkpt>
      <trkpt lat="46.15477" lon="4.54917">
        <ele>439.2</ele>
        <time>2020-10-17T13:37:24Z</time>
      </trkpt>
      <trkpt lat="46.15477" lon="4.54917">
        <ele>439.2</ele>
        <time>2020-10-17T13:37:25Z</time>
      </trkpt>
      <trkpt lat="46.15477" lon="4.54917">
        <ele>439.6</ele>
        <time>2020-10-17T13:37:26Z</time>
      </trkpt>
      <trkpt lat="46.15476" lon="4.5492">
        <ele>439.6</ele>
        <time>2020-10-17T13:37:27Z</time>
      </trkpt>
      <trkpt lat="46.15476" lon="4.5492">
        <ele>439.8</ele>
        <time>2020-10-17T13:37:28Z</time>
      </trkpt>
      <trkpt lat="46.15474" lon="4.54922">
        <ele>440</ele>
        <time>2020-10-17T13:37:29Z</time>
      </trkpt>
      <trkpt lat="46.15474" lon="4.54922">
        <ele>440</ele>
        <time>2020-10-17T13:37:30Z</time>
      </trkpt>
      <trkpt lat="46.15472" lon="4.54924">
        <ele>440.2</ele>
        <time>2020-10-17T13:37:31Z</time>
      </trkpt>
      <trkpt lat="46.15472" lon="4.54924">
        <ele>440.2</ele>
        <time>2020-10-17T13:37:32Z</time>
      </trkpt>
      <trkpt lat="46.15469" lon="4.54926">
        <ele>440</ele>
        <time>2020-10-17T13:37:33Z</time>
      </trkpt>
      <trkpt lat="46.15469" lon="4.54926">
        <ele>440</ele>
        <time>2020-10-17T13:37:34Z</time>
      </trkpt>
      <trkpt lat="46.15467" lon="4.54928">
        <ele>440</ele>
        <time>2020-10-17T13:37:35Z</time>
      </trkpt>
      <trkpt lat="46.15467" lon="4.54928">
        <ele>440.2</ele>
        <time>2020-10-17T13:37:36Z</time>
      </trkpt>
      <trkpt lat="46.15465" lon="4.5493">
        <ele>440.4</ele>
        <time>2020-10-17T13:37:37Z</time>
      </trkpt>
      <trkpt lat="46.15465" lon="4.5493">
        <ele>440.4</ele>
        <time>2020-10-17T13:37:38Z</time>
      </trkpt>
      <trkpt lat="46.15463" lon="4.54932">
        <ele>440.6</ele>
        <time>2020-10-17T13:37:39Z</time>
      </trkpt>
      <trkpt lat="46.15463" lon="4.54932">
        <ele>440.8</ele>
        <time>2020-10-17T13:37:40Z</time>
      </trkpt>
      <trkpt lat="46.15461" lon="4.54934">
        <ele>440.6</ele>
        <time>2020-10-17T13:37:41Z</time>
      </trkpt>
      <trkpt lat="46.15461" lon="4.54934">
        <ele>440.8</ele>
        <time>2020-10-17T13:37:42Z</time>
      </trkpt>
      <trkpt lat="46.15458" lon="4.54937">
        <ele>440.8</ele>
        <time>2020-10-17T13:37:43Z</time>
      </trkpt>
      <trkpt lat="46.15458" lon="4.54937">
        <ele>441</ele>
        <time>2020-10-17T13:37:44Z</time>
      </trkpt>
      <trkpt lat="46.15456" lon="4.5494">
        <ele>441.2</ele>
        <time>2020-10-17T13:37:45Z</time>
      </trkpt>
      <trkpt lat="46.15456" lon="4.5494">
        <ele>441.2</ele>
        <time>2020-10-17T13:37:46Z</time>
      </trkpt>
      <trkpt lat="46.15454" lon="4.54943">
        <ele>441.2</ele>
        <time>2020-10-17T13:37:47Z</time>
      </trkpt>
      <trkpt lat="46.15454" lon="4.54943">
        <ele>441.6</ele>
        <time>2020-10-17T13:37:48Z</time>
      </trkpt>
      <trkpt lat="46.15451" lon="4.54945">
        <ele>441.6</ele>
        <time>2020-10-17T13:37:49Z</time>
      </trkpt>
      <trkpt lat="46.15451" lon="4.54945">
        <ele>442</ele>
        <time>2020-10-17T13:37:50Z</time>
      </trkpt>
      <trkpt lat="46.15449" lon="4.54947">
        <ele>442.2</ele>
        <time>2020-10-17T13:37:51Z</time>
      </trkpt>
      <trkpt lat="46.15449" lon="4.54947">
        <ele>442.4</ele>
        <time>2020-10-17T13:37:52Z</time>
      </trkpt>
      <trkpt lat="46.15448" lon="4.5495">
        <ele>442.4</ele>
        <time>2020-10-17T13:37:53Z</time>
      </trkpt>
      <trkpt lat="46.15448" lon="4.5495">
        <ele>442.4</ele>
        <time>2020-10-17T13:37:54Z</time>
      </trkpt>
      <trkpt lat="46.15446" lon="4.54951">
        <ele>442.4</ele>
        <time>2020-10-17T13:37:55Z</time>
      </trkpt>
      <trkpt lat="46.15446" lon="4.54951">
        <ele>442.6</ele>
        <time>2020-10-17T13:37:56Z</time>
      </trkpt>
      <trkpt lat="46.15444" lon="4.54953">
        <ele>443</ele>
        <time>2020-10-17T13:37:57Z</time>
      </trkpt>
      <trkpt lat="46.15444" lon="4.54953">
        <ele>443.2</ele>
        <time>2020-10-17T13:37:58Z</time>
      </trkpt>
      <trkpt lat="46.15442" lon="4.54955">
        <ele>443.2</ele>
        <time>2020-10-17T13:37:59Z</time>
      </trkpt>
      <trkpt lat="46.15442" lon="4.54955">
        <ele>443.4</ele>
        <time>2020-10-17T13:38:00Z</time>
      </trkpt>
      <trkpt lat="46.1544" lon="4.54958">
        <ele>443.4</ele>
        <time>2020-10-17T13:38:01Z</time>
      </trkpt>
      <trkpt lat="46.1544" lon="4.54958">
        <ele>443.8</ele>
        <time>2020-10-17T13:38:02Z</time>
      </trkpt>
      <trkpt lat="46.15437" lon="4.5496">
        <ele>443.8</ele>
        <time>2020-10-17T13:38:03Z</time>
      </trkpt>
      <trkpt lat="46.15437" lon="4.5496">
        <ele>444.4</ele>
        <time>2020-10-17T13:38:04Z</time>
      </trkpt>
      <trkpt lat="46.15435" lon="4.54962">
        <ele>444.6</ele>
        <time>2020-10-17T13:38:05Z</time>
      </trkpt>
      <trkpt lat="46.15435" lon="4.54962">
        <ele>444.6</ele>
        <time>2020-10-17T13:38:06Z</time>
      </trkpt>
      <trkpt lat="46.15434" lon="4.54965">
        <ele>444.8</ele>
        <time>2020-10-17T13:38:07Z</time>
      </trkpt>
      <trkpt lat="46.15434" lon="4.54965">
        <ele>444.8</ele>
        <time>2020-10-17T13:38:08Z</time>
      </trkpt>
      <trkpt lat="46.15434" lon="4.54968">
        <ele>445.2</ele>
        <time>2020-10-17T13:38:09Z</time>
      </trkpt>
      <trkpt lat="46.15434" lon="4.54968">
        <ele>445.2</ele>
        <time>2020-10-17T13:38:10Z</time>
      </trkpt>
      <trkpt lat="46.15435" lon="4.54971">
        <ele>445.2</ele>
        <time>2020-10-17T13:38:11Z</time>
      </trkpt>
      <trkpt lat="46.15435" lon="4.54971">
        <ele>445.6</ele>
        <time>2020-10-17T13:38:12Z</time>
      </trkpt>
      <trkpt lat="46.15436" lon="4.54973">
        <ele>445.4</ele>
        <time>2020-10-17T13:38:13Z</time>
      </trkpt>
      <trkpt lat="46.15436" lon="4.54973">
        <ele>445.8</ele>
        <time>2020-10-17T13:38:14Z</time>
      </trkpt>
      <trkpt lat="46.15437" lon="4.54976">
        <ele>446.2</ele>
        <time>2020-10-17T13:38:15Z</time>
      </trkpt>
      <trkpt lat="46.15437" lon="4.54976">
        <ele>446.4</ele>
        <time>2020-10-17T13:38:16Z</time>
      </trkpt>
      <trkpt lat="46.15438" lon="4.54979">
        <ele>446.8</ele>
        <time>2020-10-17T13:38:17Z</time>
      </trkpt>
      <trkpt lat="46.15438" lon="4.54979">
        <ele>446.8</ele>
        <time>2020-10-17T13:38:18Z</time>
      </trkpt>
      <trkpt lat="46.15439" lon="4.54982">
        <ele>447.2</ele>
        <time>2020-10-17T13:38:19Z</time>
      </trkpt>
      <trkpt lat="46.15439" lon="4.54982">
        <ele>447.4</ele>
        <time>2020-10-17T13:38:20Z</time>
      </trkpt>
      <trkpt lat="46.15439" lon="4.54982">
        <ele>447.6</ele>
        <time>2020-10-17T13:38:21Z</time>
      </trkpt>
      <trkpt lat="46.1544" lon="4.54986">
        <ele>447.8</ele>
        <time>2020-10-17T13:38:22Z</time>
      </trkpt>
      <trkpt lat="46.1544" lon="4.54986">
        <ele>447.8</ele>
        <time>2020-10-17T13:38:23Z</time>
      </trkpt>
      <trkpt lat="46.1544" lon="4.54986">
        <ele>448.2</ele>
        <time>2020-10-17T13:38:24Z</time>
      </trkpt>
      <trkpt lat="46.15442" lon="4.5499">
        <ele>448.4</ele>
        <time>2020-10-17T13:38:25Z</time>
      </trkpt>
      <trkpt lat="46.15442" lon="4.5499">
        <ele>448.4</ele>
        <time>2020-10-17T13:38:26Z</time>
      </trkpt>
      <trkpt lat="46.15442" lon="4.5499">
        <ele>448.8</ele>
        <time>2020-10-17T13:38:27Z</time>
      </trkpt>
      <trkpt lat="46.15443" lon="4.54992">
        <ele>449.2</ele>
        <time>2020-10-17T13:38:28Z</time>
      </trkpt>
      <trkpt lat="46.15443" lon="4.54992">
        <ele>449.2</ele>
        <time>2020-10-17T13:38:29Z</time>
      </trkpt>
      <trkpt lat="46.15443" lon="4.54992">
        <ele>449.6</ele>
        <time>2020-10-17T13:38:30Z</time>
      </trkpt>
      <trkpt lat="46.15444" lon="4.54995">
        <ele>449.8</ele>
        <time>2020-10-17T13:38:31Z</time>
      </trkpt>
      <trkpt lat="46.15444" lon="4.54995">
        <ele>450</ele>
        <time>2020-10-17T13:38:32Z</time>
      </trkpt>
      <trkpt lat="46.15444" lon="4.54995">
        <ele>450.6</ele>
        <time>2020-10-17T13:38:33Z</time>
      </trkpt>
      <trkpt lat="46.15444" lon="4.54999">
        <ele>450.8</ele>
        <time>2020-10-17T13:38:34Z</time>
      </trkpt>
      <trkpt lat="46.15444" lon="4.54999">
        <ele>451</ele>
        <time>2020-10-17T13:38:35Z</time>
      </trkpt>
      <trkpt lat="46.15444" lon="4.54999">
        <ele>451.4</ele>
        <time>2020-10-17T13:38:36Z</time>
      </trkpt>
      <trkpt lat="46.15445" lon="4.55002">
        <ele>451.6</ele>
        <time>2020-10-17T13:38:37Z</time>
      </trkpt>
      <trkpt lat="46.15445" lon="4.55002">
        <ele>452</ele>
        <time>2020-10-17T13:38:38Z</time>
      </trkpt>
      <trkpt lat="46.15445" lon="4.55002">
        <ele>452.4</ele>
        <time>2020-10-17T13:38:39Z</time>
      </trkpt>
      <trkpt lat="46.15446" lon="4.55006">
        <ele>452.8</ele>
        <time>2020-10-17T13:38:40Z</time>
      </trkpt>
      <trkpt lat="46.15446" lon="4.55006">
        <ele>452.8</ele>
        <time>2020-10-17T13:38:41Z</time>
      </trkpt>
      <trkpt lat="46.15446" lon="4.55006">
        <ele>453.2</ele>
        <time>2020-10-17T13:38:42Z</time>
      </trkpt>
      <trkpt lat="46.15446" lon="4.5501">
        <ele>453.4</ele>
        <time>2020-10-17T13:38:43Z</time>
      </trkpt>
      <trkpt lat="46.15446" lon="4.5501">
        <ele>453.4</ele>
        <time>2020-10-17T13:38:44Z</time>
      </trkpt>
      <trkpt lat="46.15446" lon="4.5501">
        <ele>453.6</ele>
        <time>2020-10-17T13:38:45Z</time>
      </trkpt>
      <trkpt lat="46.15445" lon="4.55014">
        <ele>453.8</ele>
        <time>2020-10-17T13:38:46Z</time>
      </trkpt>
      <trkpt lat="46.15445" lon="4.55014">
        <ele>453.6</ele>
        <time>2020-10-17T13:38:47Z</time>
      </trkpt>
      <trkpt lat="46.15444" lon="4.55017">
        <ele>454</ele>
        <time>2020-10-17T13:38:48Z</time>
      </trkpt>
      <trkpt lat="46.15444" lon="4.55017">
        <ele>454.2</ele>
        <time>2020-10-17T13:38:49Z</time>
      </trkpt>
      <trkpt lat="46.15444" lon="4.5502">
        <ele>454.4</ele>
        <time>2020-10-17T13:38:50Z</time>
      </trkpt>
      <trkpt lat="46.15444" lon="4.5502">
        <ele>454.8</ele>
        <time>2020-10-17T13:38:51Z</time>
      </trkpt>
      <trkpt lat="46.15444" lon="4.55023">
        <ele>455</ele>
        <time>2020-10-17T13:38:52Z</time>
      </trkpt>
      <trkpt lat="46.15444" lon="4.55023">
        <ele>455.2</ele>
        <time>2020-10-17T13:38:53Z</time>
      </trkpt>
      <trkpt lat="46.15443" lon="4.55026">
        <ele>455.6</ele>
        <time>2020-10-17T13:38:54Z</time>
      </trkpt>
      <trkpt lat="46.15443" lon="4.55026">
        <ele>455.6</ele>
        <time>2020-10-17T13:38:55Z</time>
      </trkpt>
      <trkpt lat="46.15442" lon="4.5503">
        <ele>455.6</ele>
        <time>2020-10-17T13:38:56Z</time>
      </trkpt>
      <trkpt lat="46.15442" lon="4.5503">
        <ele>455.8</ele>
        <time>2020-10-17T13:38:57Z</time>
      </trkpt>
      <trkpt lat="46.15442" lon="4.55033">
        <ele>456</ele>
        <time>2020-10-17T13:38:58Z</time>
      </trkpt>
      <trkpt lat="46.15442" lon="4.55033">
        <ele>456.4</ele>
        <time>2020-10-17T13:38:59Z</time>
      </trkpt>
      <trkpt lat="46.15442" lon="4.55036">
        <ele>456.6</ele>
        <time>2020-10-17T13:39:00Z</time>
      </trkpt>
      <trkpt lat="46.15442" lon="4.55036">
        <ele>456.6</ele>
        <time>2020-10-17T13:39:01Z</time>
      </trkpt>
      <trkpt lat="46.15442" lon="4.5504">
        <ele>457</ele>
        <time>2020-10-17T13:39:02Z</time>
      </trkpt>
      <trkpt lat="46.15442" lon="4.5504">
        <ele>457</ele>
        <time>2020-10-17T13:39:03Z</time>
      </trkpt>
      <trkpt lat="46.15442" lon="4.55043">
        <ele>457</ele>
        <time>2020-10-17T13:39:04Z</time>
      </trkpt>
      <trkpt lat="46.15442" lon="4.55043">
        <ele>457.6</ele>
        <time>2020-10-17T13:39:05Z</time>
      </trkpt>
      <trkpt lat="46.15443" lon="4.55046">
        <ele>457.4</ele>
        <time>2020-10-17T13:39:06Z</time>
      </trkpt>
      <trkpt lat="46.15443" lon="4.55046">
        <ele>458</ele>
        <time>2020-10-17T13:39:07Z</time>
      </trkpt>
      <trkpt lat="46.15443" lon="4.55049">
        <ele>458.2</ele>
        <time>2020-10-17T13:39:08Z</time>
      </trkpt>
      <trkpt lat="46.15443" lon="4.55049">
        <ele>458.2</ele>
        <time>2020-10-17T13:39:09Z</time>
      </trkpt>
      <trkpt lat="46.15443" lon="4.55052">
        <ele>458.6</ele>
        <time>2020-10-17T13:39:10Z</time>
      </trkpt>
      <trkpt lat="46.15443" lon="4.55052">
        <ele>459</ele>
        <time>2020-10-17T13:39:11Z</time>
      </trkpt>
      <trkpt lat="46.15443" lon="4.55055">
        <ele>459</ele>
        <time>2020-10-17T13:39:12Z</time>
      </trkpt>
      <trkpt lat="46.15443" lon="4.55055">
        <ele>459.2</ele>
        <time>2020-10-17T13:39:13Z</time>
      </trkpt>
      <trkpt lat="46.15442" lon="4.55059">
        <ele>459.6</ele>
        <time>2020-10-17T13:39:14Z</time>
      </trkpt>
      <trkpt lat="46.15442" lon="4.55059">
        <ele>459.6</ele>
        <time>2020-10-17T13:39:15Z</time>
      </trkpt>
      <trkpt lat="46.15442" lon="4.55062">
        <ele>460</ele>
        <time>2020-10-17T13:39:16Z</time>
      </trkpt>
      <trkpt lat="46.15442" lon="4.55062">
        <ele>460.6</ele>
        <time>2020-10-17T13:39:17Z</time>
      </trkpt>
      <trkpt lat="46.15441" lon="4.55065">
        <ele>460.4</ele>
        <time>2020-10-17T13:39:18Z</time>
      </trkpt>
      <trkpt lat="46.15441" lon="4.55065">
        <ele>460.2</ele>
        <time>2020-10-17T13:39:19Z</time>
      </trkpt>
      <trkpt lat="46.1544" lon="4.55068">
        <ele>460.6</ele>
        <time>2020-10-17T13:39:20Z</time>
      </trkpt>
      <trkpt lat="46.1544" lon="4.55068">
        <ele>460.8</ele>
        <time>2020-10-17T13:39:21Z</time>
      </trkpt>
      <trkpt lat="46.15439" lon="4.55071">
        <ele>460.6</ele>
        <time>2020-10-17T13:39:22Z</time>
      </trkpt>
      <trkpt lat="46.15439" lon="4.55071">
        <ele>461.2</ele>
        <time>2020-10-17T13:39:23Z</time>
      </trkpt>
      <trkpt lat="46.15438" lon="4.55073">
        <ele>461.4</ele>
        <time>2020-10-17T13:39:24Z</time>
      </trkpt>
      <trkpt lat="46.15438" lon="4.55073">
        <ele>461.4</ele>
        <time>2020-10-17T13:39:25Z</time>
      </trkpt>
      <trkpt lat="46.15436" lon="4.55076">
        <ele>461.8</ele>
        <time>2020-10-17T13:39:26Z</time>
      </trkpt>
      <trkpt lat="46.15436" lon="4.55076">
        <ele>462</ele>
        <time>2020-10-17T13:39:27Z</time>
      </trkpt>
      <trkpt lat="46.15435" lon="4.55079">
        <ele>462.4</ele>
        <time>2020-10-17T13:39:28Z</time>
      </trkpt>
      <trkpt lat="46.15435" lon="4.55079">
        <ele>463</ele>
        <time>2020-10-17T13:39:29Z</time>
      </trkpt>
      <trkpt lat="46.15435" lon="4.55079">
        <ele>463</ele>
        <time>2020-10-17T13:39:30Z</time>
      </trkpt>
      <trkpt lat="46.15434" lon="4.55082">
        <ele>463.6</ele>
        <time>2020-10-17T13:39:31Z</time>
      </trkpt>
      <trkpt lat="46.15434" lon="4.55082">
        <ele>464</ele>
        <time>2020-10-17T13:39:32Z</time>
      </trkpt>
      <trkpt lat="46.15433" lon="4.55084">
        <ele>464.2</ele>
        <time>2020-10-17T13:39:33Z</time>
      </trkpt>
      <trkpt lat="46.15433" lon="4.55084">
        <ele>464.6</ele>
        <time>2020-10-17T13:39:34Z</time>
      </trkpt>
      <trkpt lat="46.15433" lon="4.55084">
        <ele>464.8</ele>
        <time>2020-10-17T13:39:35Z</time>
      </trkpt>
      <trkpt lat="46.15432" lon="4.55087">
        <ele>464.8</ele>
        <time>2020-10-17T13:39:36Z</time>
      </trkpt>
      <trkpt lat="46.15432" lon="4.55087">
        <ele>465.2</ele>
        <time>2020-10-17T13:39:37Z</time>
      </trkpt>
      <trkpt lat="46.15431" lon="4.55089">
        <ele>465.4</ele>
        <time>2020-10-17T13:39:38Z</time>
      </trkpt>
      <trkpt lat="46.15431" lon="4.55089">
        <ele>466</ele>
        <time>2020-10-17T13:39:39Z</time>
      </trkpt>
      <trkpt lat="46.15431" lon="4.55093">
        <ele>466.4</ele>
        <time>2020-10-17T13:39:40Z</time>
      </trkpt>
      <trkpt lat="46.15431" lon="4.55093">
        <ele>466.4</ele>
        <time>2020-10-17T13:39:41Z</time>
      </trkpt>
      <trkpt lat="46.15431" lon="4.55093">
        <ele>466.8</ele>
        <time>2020-10-17T13:39:42Z</time>
      </trkpt>
      <trkpt lat="46.15431" lon="4.55097">
        <ele>467</ele>
        <time>2020-10-17T13:39:43Z</time>
      </trkpt>
      <trkpt lat="46.15431" lon="4.55097">
        <ele>467</ele>
        <time>2020-10-17T13:39:44Z</time>
      </trkpt>
      <trkpt lat="46.15431" lon="4.55101">
        <ele>467.4</ele>
        <time>2020-10-17T13:39:45Z</time>
      </trkpt>
      <trkpt lat="46.15431" lon="4.55101">
        <ele>467.4</ele>
        <time>2020-10-17T13:39:46Z</time>
      </trkpt>
      <trkpt lat="46.15431" lon="4.55101">
        <ele>467.8</ele>
        <time>2020-10-17T13:39:47Z</time>
      </trkpt>
      <trkpt lat="46.15431" lon="4.55104">
        <ele>468.2</ele>
        <time>2020-10-17T13:39:48Z</time>
      </trkpt>
      <trkpt lat="46.15431" lon="4.55104">
        <ele>468.2</ele>
        <time>2020-10-17T13:39:49Z</time>
      </trkpt>
      <trkpt lat="46.15433" lon="4.55107">
        <ele>468.6</ele>
        <time>2020-10-17T13:39:50Z</time>
      </trkpt>
      <trkpt lat="46.15433" lon="4.55107">
        <ele>468.8</ele>
        <time>2020-10-17T13:39:51Z</time>
      </trkpt>
      <trkpt lat="46.15434" lon="4.55109">
        <ele>468.8</ele>
        <time>2020-10-17T13:39:52Z</time>
      </trkpt>
      <trkpt lat="46.15434" lon="4.55109">
        <ele>469.2</ele>
        <time>2020-10-17T13:39:53Z</time>
      </trkpt>
      <trkpt lat="46.15434" lon="4.55109">
        <ele>469.4</ele>
        <time>2020-10-17T13:39:54Z</time>
      </trkpt>
      <trkpt lat="46.15435" lon="4.55111">
        <ele>469.6</ele>
        <time>2020-10-17T13:39:55Z</time>
      </trkpt>
      <trkpt lat="46.15435" lon="4.55111">
        <ele>470.2</ele>
        <time>2020-10-17T13:39:56Z</time>
      </trkpt>
      <trkpt lat="46.15437" lon="4.55113">
        <ele>470.4</ele>
        <time>2020-10-17T13:39:57Z</time>
      </trkpt>
      <trkpt lat="46.15437" lon="4.55113">
        <ele>470.8</ele>
        <time>2020-10-17T13:39:58Z</time>
      </trkpt>
      <trkpt lat="46.15437" lon="4.55113">
        <ele>470.8</ele>
        <time>2020-10-17T13:39:59Z</time>
      </trkpt>
      <trkpt lat="46.15437" lon="4.55117">
        <ele>471</ele>
        <time>2020-10-17T13:40:00Z</time>
      </trkpt>
      <trkpt lat="46.15437" lon="4.55117">
        <ele>471.4</ele>
        <time>2020-10-17T13:40:01Z</time>
      </trkpt>
      <trkpt lat="46.15437" lon="4.55117">
        <ele>471.4</ele>
        <time>2020-10-17T13:40:02Z</time>
      </trkpt>
      <trkpt lat="46.15438" lon="4.5512">
        <ele>471.8</ele>
        <time>2020-10-17T13:40:03Z</time>
      </trkpt>
      <trkpt lat="46.15438" lon="4.5512">
        <ele>472.2</ele>
        <time>2020-10-17T13:40:04Z</time>
      </trkpt>
      <trkpt lat="46.15439" lon="4.55123">
        <ele>472</ele>
        <time>2020-10-17T13:40:05Z</time>
      </trkpt>
      <trkpt lat="46.15439" lon="4.55123">
        <ele>472.6</ele>
        <time>2020-10-17T13:40:06Z</time>
      </trkpt>
      <trkpt lat="46.15439" lon="4.55126">
        <ele>472.6</ele>
        <time>2020-10-17T13:40:07Z</time>
      </trkpt>
      <trkpt lat="46.15439" lon="4.55126">
        <ele>472.8</ele>
        <time>2020-10-17T13:40:08Z</time>
      </trkpt>
      <trkpt lat="46.15439" lon="4.55126">
        <ele>473.2</ele>
        <time>2020-10-17T13:40:09Z</time>
      </trkpt>
      <trkpt lat="46.15441" lon="4.55129">
        <ele>473.2</ele>
        <time>2020-10-17T13:40:10Z</time>
      </trkpt>
      <trkpt lat="46.15441" lon="4.55129">
        <ele>473.4</ele>
        <time>2020-10-17T13:40:11Z</time>
      </trkpt>
      <trkpt lat="46.15442" lon="4.55132">
        <ele>474</ele>
        <time>2020-10-17T13:40:12Z</time>
      </trkpt>
      <trkpt lat="46.15442" lon="4.55132">
        <ele>474.2</ele>
        <time>2020-10-17T13:40:13Z</time>
      </trkpt>
      <trkpt lat="46.15443" lon="4.55135">
        <ele>474</ele>
        <time>2020-10-17T13:40:14Z</time>
      </trkpt>
      <trkpt lat="46.15443" lon="4.55135">
        <ele>474.4</ele>
        <time>2020-10-17T13:40:15Z</time>
      </trkpt>
      <trkpt lat="46.15445" lon="4.55137">
        <ele>474.8</ele>
        <time>2020-10-17T13:40:16Z</time>
      </trkpt>
      <trkpt lat="46.15445" lon="4.55137">
        <ele>474.8</ele>
        <time>2020-10-17T13:40:17Z</time>
      </trkpt>
      <trkpt lat="46.15446" lon="4.5514">
        <ele>475.4</ele>
        <time>2020-10-17T13:40:18Z</time>
      </trkpt>
      <trkpt lat="46.15446" lon="4.5514">
        <ele>475.6</ele>
        <time>2020-10-17T13:40:19Z</time>
      </trkpt>
      <trkpt lat="46.15446" lon="4.55143">
        <ele>475.8</ele>
        <time>2020-10-17T13:40:20Z</time>
      </trkpt>
      <trkpt lat="46.15446" lon="4.55143">
        <ele>476.2</ele>
        <time>2020-10-17T13:40:21Z</time>
      </trkpt>
      <trkpt lat="46.15446" lon="4.55143">
        <ele>476.4</ele>
        <time>2020-10-17T13:40:22Z</time>
      </trkpt>
      <trkpt lat="46.15448" lon="4.55145">
        <ele>476.8</ele>
        <time>2020-10-17T13:40:23Z</time>
      </trkpt>
      <trkpt lat="46.15448" lon="4.55145">
        <ele>477</ele>
        <time>2020-10-17T13:40:24Z</time>
      </trkpt>
      <trkpt lat="46.15449" lon="4.55147">
        <ele>477</ele>
        <time>2020-10-17T13:40:25Z</time>
      </trkpt>
      <trkpt lat="46.15449" lon="4.55147">
        <ele>477.8</ele>
        <time>2020-10-17T13:40:26Z</time>
      </trkpt>
      <trkpt lat="46.15451" lon="4.5515">
        <ele>478</ele>
        <time>2020-10-17T13:40:27Z</time>
      </trkpt>
      <trkpt lat="46.15451" lon="4.5515">
        <ele>477.8</ele>
        <time>2020-10-17T13:40:28Z</time>
      </trkpt>
      <trkpt lat="46.15453" lon="4.55153">
        <ele>478.2</ele>
        <time>2020-10-17T13:40:29Z</time>
      </trkpt>
      <trkpt lat="46.15453" lon="4.55153">
        <ele>478.4</ele>
        <time>2020-10-17T13:40:30Z</time>
      </trkpt>
      <trkpt lat="46.15453" lon="4.55153">
        <ele>478.4</ele>
        <time>2020-10-17T13:40:31Z</time>
      </trkpt>
      <trkpt lat="46.15454" lon="4.55155">
        <ele>478.8</ele>
        <time>2020-10-17T13:40:32Z</time>
      </trkpt>
      <trkpt lat="46.15454" lon="4.55155">
        <ele>479.2</ele>
        <time>2020-10-17T13:40:33Z</time>
      </trkpt>
      <trkpt lat="46.15454" lon="4.55155">
        <ele>479.4</ele>
        <time>2020-10-17T13:40:34Z</time>
      </trkpt>
      <trkpt lat="46.15457" lon="4.55157">
        <ele>479.6</ele>
        <time>2020-10-17T13:40:35Z</time>
      </trkpt>
      <trkpt lat="46.15457" lon="4.55157">
        <ele>479.8</ele>
        <time>2020-10-17T13:40:36Z</time>
      </trkpt>
      <trkpt lat="46.15458" lon="4.5516">
        <ele>479.8</ele>
        <time>2020-10-17T13:40:37Z</time>
      </trkpt>
      <trkpt lat="46.15458" lon="4.5516">
        <ele>480</ele>
        <time>2020-10-17T13:40:38Z</time>
      </trkpt>
      <trkpt lat="46.1546" lon="4.55163">
        <ele>480.2</ele>
        <time>2020-10-17T13:40:39Z</time>
      </trkpt>
      <trkpt lat="46.1546" lon="4.55163">
        <ele>480.6</ele>
        <time>2020-10-17T13:40:40Z</time>
      </trkpt>
      <trkpt lat="46.1546" lon="4.55166">
        <ele>480.8</ele>
        <time>2020-10-17T13:40:41Z</time>
      </trkpt>
      <trkpt lat="46.1546" lon="4.55166">
        <ele>481</ele>
        <time>2020-10-17T13:40:42Z</time>
      </trkpt>
      <trkpt lat="46.15461" lon="4.55168">
        <ele>481.4</ele>
        <time>2020-10-17T13:40:43Z</time>
      </trkpt>
      <trkpt lat="46.15461" lon="4.55168">
        <ele>481.6</ele>
        <time>2020-10-17T13:40:44Z</time>
      </trkpt>
      <trkpt lat="46.15462" lon="4.55171">
        <ele>481.6</ele>
        <time>2020-10-17T13:40:45Z</time>
      </trkpt>
      <trkpt lat="46.15462" lon="4.55171">
        <ele>482</ele>
        <time>2020-10-17T13:40:46Z</time>
      </trkpt>
      <trkpt lat="46.15464" lon="4.55172">
        <ele>482.2</ele>
        <time>2020-10-17T13:40:47Z</time>
      </trkpt>
      <trkpt lat="46.15464" lon="4.55172">
        <ele>482.6</ele>
        <time>2020-10-17T13:40:48Z</time>
      </trkpt>
      <trkpt lat="46.15466" lon="4.55174">
        <ele>482.6</ele>
        <time>2020-10-17T13:40:49Z</time>
      </trkpt>
      <trkpt lat="46.15466" lon="4.55174">
        <ele>482.8</ele>
        <time>2020-10-17T13:40:50Z</time>
      </trkpt>
      <trkpt lat="46.15468" lon="4.55177">
        <ele>483.2</ele>
        <time>2020-10-17T13:40:51Z</time>
      </trkpt>
      <trkpt lat="46.15468" lon="4.55177">
        <ele>483.2</ele>
        <time>2020-10-17T13:40:52Z</time>
      </trkpt>
      <trkpt lat="46.15469" lon="4.55179">
        <ele>483.6</ele>
        <time>2020-10-17T13:40:53Z</time>
      </trkpt>
      <trkpt lat="46.1547" lon="4.55181">
        <ele>484</ele>
        <time>2020-10-17T13:40:54Z</time>
      </trkpt>
      <trkpt lat="46.1547" lon="4.55181">
        <ele>484.4</ele>
        <time>2020-10-17T13:40:55Z</time>
      </trkpt>
      <trkpt lat="46.15472" lon="4.55184">
        <ele>484.8</ele>
        <time>2020-10-17T13:40:56Z</time>
      </trkpt>
      <trkpt lat="46.15472" lon="4.55184">
        <ele>484.8</ele>
        <time>2020-10-17T13:40:57Z</time>
      </trkpt>
      <trkpt lat="46.15474" lon="4.55188">
        <ele>484.6</ele>
        <time>2020-10-17T13:40:58Z</time>
      </trkpt>
      <trkpt lat="46.15474" lon="4.55188">
        <ele>485</ele>
        <time>2020-10-17T13:40:59Z</time>
      </trkpt>
      <trkpt lat="46.15475" lon="4.55191">
        <ele>485.2</ele>
        <time>2020-10-17T13:41:00Z</time>
      </trkpt>
      <trkpt lat="46.15475" lon="4.55191">
        <ele>485.8</ele>
        <time>2020-10-17T13:41:01Z</time>
      </trkpt>
      <trkpt lat="46.15477" lon="4.55194">
        <ele>485.8</ele>
        <time>2020-10-17T13:41:02Z</time>
      </trkpt>
      <trkpt lat="46.15478" lon="4.55196">
        <ele>486</ele>
        <time>2020-10-17T13:41:03Z</time>
      </trkpt>
      <trkpt lat="46.15478" lon="4.55196">
        <ele>486</ele>
        <time>2020-10-17T13:41:04Z</time>
      </trkpt>
      <trkpt lat="46.1548" lon="4.55199">
        <ele>486.6</ele>
        <time>2020-10-17T13:41:05Z</time>
      </trkpt>
      <trkpt lat="46.1548" lon="4.55199">
        <ele>486.8</ele>
        <time>2020-10-17T13:41:06Z</time>
      </trkpt>
      <trkpt lat="46.1548" lon="4.55203">
        <ele>487</ele>
        <time>2020-10-17T13:41:07Z</time>
      </trkpt>
      <trkpt lat="46.1548" lon="4.55203">
        <ele>487.2</ele>
        <time>2020-10-17T13:41:08Z</time>
      </trkpt>
      <trkpt lat="46.15482" lon="4.55206">
        <ele>487.2</ele>
        <time>2020-10-17T13:41:09Z</time>
      </trkpt>
      <trkpt lat="46.15482" lon="4.55206">
        <ele>487.8</ele>
        <time>2020-10-17T13:41:10Z</time>
      </trkpt>
      <trkpt lat="46.15483" lon="4.5521">
        <ele>487.8</ele>
        <time>2020-10-17T13:41:11Z</time>
      </trkpt>
      <trkpt lat="46.15483" lon="4.5521">
        <ele>488</ele>
        <time>2020-10-17T13:41:12Z</time>
      </trkpt>
      <trkpt lat="46.15485" lon="4.55212">
        <ele>488.4</ele>
        <time>2020-10-17T13:41:13Z</time>
      </trkpt>
      <trkpt lat="46.15485" lon="4.55212">
        <ele>488.4</ele>
        <time>2020-10-17T13:41:14Z</time>
      </trkpt>
      <trkpt lat="46.15486" lon="4.55215">
        <ele>488.6</ele>
        <time>2020-10-17T13:41:15Z</time>
      </trkpt>
      <trkpt lat="46.15486" lon="4.55215">
        <ele>488.6</ele>
        <time>2020-10-17T13:41:16Z</time>
      </trkpt>
      <trkpt lat="46.15487" lon="4.55217">
        <ele>489</ele>
        <time>2020-10-17T13:41:17Z</time>
      </trkpt>
      <trkpt lat="46.15487" lon="4.55217">
        <ele>489.2</ele>
        <time>2020-10-17T13:41:18Z</time>
      </trkpt>
      <trkpt lat="46.15488" lon="4.5522">
        <ele>489.6</ele>
        <time>2020-10-17T13:41:19Z</time>
      </trkpt>
      <trkpt lat="46.15488" lon="4.5522">
        <ele>489.6</ele>
        <time>2020-10-17T13:41:20Z</time>
      </trkpt>
      <trkpt lat="46.1549" lon="4.55223">
        <ele>489.6</ele>
        <time>2020-10-17T13:41:21Z</time>
      </trkpt>
      <trkpt lat="46.15491" lon="4.55226">
        <ele>489.8</ele>
        <time>2020-10-17T13:41:22Z</time>
      </trkpt>
      <trkpt lat="46.15491" lon="4.55226">
        <ele>490.2</ele>
        <time>2020-10-17T13:41:23Z</time>
      </trkpt>
      <trkpt lat="46.15493" lon="4.55228">
        <ele>490.4</ele>
        <time>2020-10-17T13:41:24Z</time>
      </trkpt>
      <trkpt lat="46.15493" lon="4.55228">
        <ele>490.6</ele>
        <time>2020-10-17T13:41:25Z</time>
      </trkpt>
      <trkpt lat="46.15495" lon="4.55231">
        <ele>490.8</ele>
        <time>2020-10-17T13:41:26Z</time>
      </trkpt>
      <trkpt lat="46.15495" lon="4.55231">
        <ele>490.8</ele>
        <time>2020-10-17T13:41:27Z</time>
      </trkpt>
      <trkpt lat="46.15496" lon="4.55234">
        <ele>491.4</ele>
        <time>2020-10-17T13:41:28Z</time>
      </trkpt>
      <trkpt lat="46.15496" lon="4.55234">
        <ele>491.6</ele>
        <time>2020-10-17T13:41:29Z</time>
      </trkpt>
      <trkpt lat="46.15498" lon="4.55238">
        <ele>492</ele>
        <time>2020-10-17T13:41:30Z</time>
      </trkpt>
      <trkpt lat="46.155" lon="4.5524">
        <ele>492.4</ele>
        <time>2020-10-17T13:41:31Z</time>
      </trkpt>
      <trkpt lat="46.15501" lon="4.55242">
        <ele>492.8</ele>
        <time>2020-10-17T13:41:32Z</time>
      </trkpt>
      <trkpt lat="46.15501" lon="4.55242">
        <ele>492.8</ele>
        <time>2020-10-17T13:41:33Z</time>
      </trkpt>
      <trkpt lat="46.15503" lon="4.55247">
        <ele>493.2</ele>
        <time>2020-10-17T13:41:34Z</time>
      </trkpt>
      <trkpt lat="46.15503" lon="4.55247">
        <ele>493.6</ele>
        <time>2020-10-17T13:41:35Z</time>
      </trkpt>
      <trkpt lat="46.15505" lon="4.5525">
        <ele>493.6</ele>
        <time>2020-10-17T13:41:36Z</time>
      </trkpt>
      <trkpt lat="46.15505" lon="4.5525">
        <ele>494.2</ele>
        <time>2020-10-17T13:41:37Z</time>
      </trkpt>
      <trkpt lat="46.15507" lon="4.55253">
        <ele>494.2</ele>
        <time>2020-10-17T13:41:38Z</time>
      </trkpt>
      <trkpt lat="46.15508" lon="4.55256">
        <ele>494.8</ele>
        <time>2020-10-17T13:41:39Z</time>
      </trkpt>
      <trkpt lat="46.15509" lon="4.55258">
        <ele>494.8</ele>
        <time>2020-10-17T13:41:40Z</time>
      </trkpt>
      <trkpt lat="46.1551" lon="4.5526">
        <ele>495</ele>
        <time>2020-10-17T13:41:41Z</time>
      </trkpt>
      <trkpt lat="46.1551" lon="4.5526">
        <ele>495.4</ele>
        <time>2020-10-17T13:41:42Z</time>
      </trkpt>
      <trkpt lat="46.15513" lon="4.55264">
        <ele>495.6</ele>
        <time>2020-10-17T13:41:43Z</time>
      </trkpt>
      <trkpt lat="46.15513" lon="4.55264">
        <ele>496.2</ele>
        <time>2020-10-17T13:41:44Z</time>
      </trkpt>
      <trkpt lat="46.15515" lon="4.55267">
        <ele>496.2</ele>
        <time>2020-10-17T13:41:45Z</time>
      </trkpt>
      <trkpt lat="46.15515" lon="4.55267">
        <ele>496.2</ele>
        <time>2020-10-17T13:41:46Z</time>
      </trkpt>
      <trkpt lat="46.15516" lon="4.55271">
        <ele>496.8</ele>
        <time>2020-10-17T13:41:47Z</time>
      </trkpt>
      <trkpt lat="46.15516" lon="4.55271">
        <ele>496.6</ele>
        <time>2020-10-17T13:41:48Z</time>
      </trkpt>
      <trkpt lat="46.15517" lon="4.55274">
        <ele>497.4</ele>
        <time>2020-10-17T13:41:49Z</time>
      </trkpt>
      <trkpt lat="46.15517" lon="4.55274">
        <ele>497.8</ele>
        <time>2020-10-17T13:41:50Z</time>
      </trkpt>
      <trkpt lat="46.15518" lon="4.55277">
        <ele>497.8</ele>
        <time>2020-10-17T13:41:51Z</time>
      </trkpt>
      <trkpt lat="46.15518" lon="4.55277">
        <ele>498.4</ele>
        <time>2020-10-17T13:41:52Z</time>
      </trkpt>
      <trkpt lat="46.1552" lon="4.5528">
        <ele>498.4</ele>
        <time>2020-10-17T13:41:53Z</time>
      </trkpt>
      <trkpt lat="46.1552" lon="4.5528">
        <ele>498.8</ele>
        <time>2020-10-17T13:41:54Z</time>
      </trkpt>
      <trkpt lat="46.15521" lon="4.55284">
        <ele>499.2</ele>
        <time>2020-10-17T13:41:55Z</time>
      </trkpt>
      <trkpt lat="46.15521" lon="4.55284">
        <ele>499.2</ele>
        <time>2020-10-17T13:41:56Z</time>
      </trkpt>
      <trkpt lat="46.15522" lon="4.55288">
        <ele>499.8</ele>
        <time>2020-10-17T13:41:57Z</time>
      </trkpt>
      <trkpt lat="46.15522" lon="4.55288">
        <ele>500</ele>
        <time>2020-10-17T13:41:58Z</time>
      </trkpt>
      <trkpt lat="46.15523" lon="4.55291">
        <ele>500</ele>
        <time>2020-10-17T13:41:59Z</time>
      </trkpt>
      <trkpt lat="46.15524" lon="4.55293">
        <ele>500.6</ele>
        <time>2020-10-17T13:42:00Z</time>
      </trkpt>
      <trkpt lat="46.15524" lon="4.55293">
        <ele>500.8</ele>
        <time>2020-10-17T13:42:01Z</time>
      </trkpt>
      <trkpt lat="46.15526" lon="4.55296">
        <ele>501.2</ele>
        <time>2020-10-17T13:42:02Z</time>
      </trkpt>
      <trkpt lat="46.15526" lon="4.55296">
        <ele>501.6</ele>
        <time>2020-10-17T13:42:03Z</time>
      </trkpt>
      <trkpt lat="46.15527" lon="4.55299">
        <ele>501.6</ele>
        <time>2020-10-17T13:42:04Z</time>
      </trkpt>
      <trkpt lat="46.15527" lon="4.55299">
        <ele>502.2</ele>
        <time>2020-10-17T13:42:05Z</time>
      </trkpt>
      <trkpt lat="46.15529" lon="4.55301">
        <ele>502.4</ele>
        <time>2020-10-17T13:42:06Z</time>
      </trkpt>
      <trkpt lat="46.15529" lon="4.55301">
        <ele>502.4</ele>
        <time>2020-10-17T13:42:07Z</time>
      </trkpt>
      <trkpt lat="46.15532" lon="4.55305">
        <ele>503</ele>
        <time>2020-10-17T13:42:08Z</time>
      </trkpt>
      <trkpt lat="46.15532" lon="4.55305">
        <ele>503.2</ele>
        <time>2020-10-17T13:42:09Z</time>
      </trkpt>
      <trkpt lat="46.15533" lon="4.55307">
        <ele>503.6</ele>
        <time>2020-10-17T13:42:10Z</time>
      </trkpt>
      <trkpt lat="46.15533" lon="4.55307">
        <ele>503.8</ele>
        <time>2020-10-17T13:42:11Z</time>
      </trkpt>
      <trkpt lat="46.15533" lon="4.55307">
        <ele>504</ele>
        <time>2020-10-17T13:42:12Z</time>
      </trkpt>
      <trkpt lat="46.15536" lon="4.55309">
        <ele>504.6</ele>
        <time>2020-10-17T13:42:13Z</time>
      </trkpt>
      <trkpt lat="46.15536" lon="4.55309">
        <ele>504.8</ele>
        <time>2020-10-17T13:42:14Z</time>
      </trkpt>
      <trkpt lat="46.15538" lon="4.5531">
        <ele>505</ele>
        <time>2020-10-17T13:42:15Z</time>
      </trkpt>
      <trkpt lat="46.15538" lon="4.5531">
        <ele>505.4</ele>
        <time>2020-10-17T13:42:16Z</time>
      </trkpt>
      <trkpt lat="46.1554" lon="4.55312">
        <ele>505.6</ele>
        <time>2020-10-17T13:42:17Z</time>
      </trkpt>
      <trkpt lat="46.1554" lon="4.55312">
        <ele>506</ele>
        <time>2020-10-17T13:42:18Z</time>
      </trkpt>
      <trkpt lat="46.15541" lon="4.55315">
        <ele>506.2</ele>
        <time>2020-10-17T13:42:19Z</time>
      </trkpt>
      <trkpt lat="46.15541" lon="4.55315">
        <ele>506.6</ele>
        <time>2020-10-17T13:42:20Z</time>
      </trkpt>
      <trkpt lat="46.15542" lon="4.55319">
        <ele>506.8</ele>
        <time>2020-10-17T13:42:21Z</time>
      </trkpt>
      <trkpt lat="46.15542" lon="4.55319">
        <ele>507.2</ele>
        <time>2020-10-17T13:42:22Z</time>
      </trkpt>
      <trkpt lat="46.15544" lon="4.55322">
        <ele>507.8</ele>
        <time>2020-10-17T13:42:23Z</time>
      </trkpt>
      <trkpt lat="46.15544" lon="4.55322">
        <ele>508.2</ele>
        <time>2020-10-17T13:42:24Z</time>
      </trkpt>
      <trkpt lat="46.15546" lon="4.55324">
        <ele>508.2</ele>
        <time>2020-10-17T13:42:25Z</time>
      </trkpt>
      <trkpt lat="46.15546" lon="4.55324">
        <ele>508.4</ele>
        <time>2020-10-17T13:42:26Z</time>
      </trkpt>
      <trkpt lat="46.15547" lon="4.55327">
        <ele>508.6</ele>
        <time>2020-10-17T13:42:27Z</time>
      </trkpt>
      <trkpt lat="46.15547" lon="4.55327">
        <ele>508.4</ele>
        <time>2020-10-17T13:42:28Z</time>
      </trkpt>
      <trkpt lat="46.15549" lon="4.55329">
        <ele>508.8</ele>
        <time>2020-10-17T13:42:29Z</time>
      </trkpt>
      <trkpt lat="46.15549" lon="4.55329">
        <ele>509</ele>
        <time>2020-10-17T13:42:30Z</time>
      </trkpt>
      <trkpt lat="46.15552" lon="4.55331">
        <ele>509.4</ele>
        <time>2020-10-17T13:42:31Z</time>
      </trkpt>
      <trkpt lat="46.15553" lon="4.55332">
        <ele>509.6</ele>
        <time>2020-10-17T13:42:32Z</time>
      </trkpt>
      <trkpt lat="46.15555" lon="4.55334">
        <ele>510.2</ele>
        <time>2020-10-17T13:42:33Z</time>
      </trkpt>
      <trkpt lat="46.15555" lon="4.55334">
        <ele>510.4</ele>
        <time>2020-10-17T13:42:34Z</time>
      </trkpt>
      <trkpt lat="46.15556" lon="4.55336">
        <ele>510.6</ele>
        <time>2020-10-17T13:42:35Z</time>
      </trkpt>
      <trkpt lat="46.15556" lon="4.55336">
        <ele>510.8</ele>
        <time>2020-10-17T13:42:36Z</time>
      </trkpt>
      <trkpt lat="46.15557" lon="4.5534">
        <ele>510.6</ele>
        <time>2020-10-17T13:42:37Z</time>
      </trkpt>
      <trkpt lat="46.15557" lon="4.5534">
        <ele>510.6</ele>
        <time>2020-10-17T13:42:38Z</time>
      </trkpt>
      <trkpt lat="46.15559" lon="4.55343">
        <ele>510.6</ele>
        <time>2020-10-17T13:42:39Z</time>
      </trkpt>
      <trkpt lat="46.15559" lon="4.55343">
        <ele>510.8</ele>
        <time>2020-10-17T13:42:40Z</time>
      </trkpt>
      <trkpt lat="46.1556" lon="4.55348">
        <ele>510.8</ele>
        <time>2020-10-17T13:42:41Z</time>
      </trkpt>
      <trkpt lat="46.1556" lon="4.55348">
        <ele>510.8</ele>
        <time>2020-10-17T13:42:42Z</time>
      </trkpt>
      <trkpt lat="46.15563" lon="4.55352">
        <ele>511</ele>
        <time>2020-10-17T13:42:43Z</time>
      </trkpt>
      <trkpt lat="46.15564" lon="4.55354">
        <ele>511.2</ele>
        <time>2020-10-17T13:42:44Z</time>
      </trkpt>
      <trkpt lat="46.15564" lon="4.55354">
        <ele>511.2</ele>
        <time>2020-10-17T13:42:45Z</time>
      </trkpt>
      <trkpt lat="46.15564" lon="4.55358">
        <ele>511.6</ele>
        <time>2020-10-17T13:42:46Z</time>
      </trkpt>
      <trkpt lat="46.15565" lon="4.55361">
        <ele>511.4</ele>
        <time>2020-10-17T13:42:47Z</time>
      </trkpt>
      <trkpt lat="46.15565" lon="4.55361">
        <ele>511.6</ele>
        <time>2020-10-17T13:42:48Z</time>
      </trkpt>
      <trkpt lat="46.15567" lon="4.55365">
        <ele>511.6</ele>
        <time>2020-10-17T13:42:49Z</time>
      </trkpt>
      <trkpt lat="46.15567" lon="4.55365">
        <ele>511.4</ele>
        <time>2020-10-17T13:42:50Z</time>
      </trkpt>
      <trkpt lat="46.15568" lon="4.55368">
        <ele>511.4</ele>
        <time>2020-10-17T13:42:51Z</time>
      </trkpt>
      <trkpt lat="46.15568" lon="4.55368">
        <ele>511.6</ele>
        <time>2020-10-17T13:42:52Z</time>
      </trkpt>
      <trkpt lat="46.15569" lon="4.55373">
        <ele>511.6</ele>
        <time>2020-10-17T13:42:53Z</time>
      </trkpt>
      <trkpt lat="46.15569" lon="4.55375">
        <ele>512</ele>
        <time>2020-10-17T13:42:54Z</time>
      </trkpt>
      <trkpt lat="46.15569" lon="4.55375">
        <ele>512</ele>
        <time>2020-10-17T13:42:55Z</time>
      </trkpt>
      <trkpt lat="46.15571" lon="4.55379">
        <ele>512.4</ele>
        <time>2020-10-17T13:42:56Z</time>
      </trkpt>
      <trkpt lat="46.15571" lon="4.55379">
        <ele>512.4</ele>
        <time>2020-10-17T13:42:57Z</time>
      </trkpt>
      <trkpt lat="46.15571" lon="4.55384">
        <ele>512.4</ele>
        <time>2020-10-17T13:42:58Z</time>
      </trkpt>
      <trkpt lat="46.15571" lon="4.55384">
        <ele>512.4</ele>
        <time>2020-10-17T13:42:59Z</time>
      </trkpt>
      <trkpt lat="46.15572" lon="4.55387">
        <ele>512.4</ele>
        <time>2020-10-17T13:43:00Z</time>
      </trkpt>
      <trkpt lat="46.15572" lon="4.55387">
        <ele>512.6</ele>
        <time>2020-10-17T13:43:01Z</time>
      </trkpt>
      <trkpt lat="46.15572" lon="4.5539">
        <ele>512.8</ele>
        <time>2020-10-17T13:43:02Z</time>
      </trkpt>
      <trkpt lat="46.15572" lon="4.5539">
        <ele>513</ele>
        <time>2020-10-17T13:43:03Z</time>
      </trkpt>
      <trkpt lat="46.15573" lon="4.55394">
        <ele>513</ele>
        <time>2020-10-17T13:43:04Z</time>
      </trkpt>
      <trkpt lat="46.15573" lon="4.55394">
        <ele>512.8</ele>
        <time>2020-10-17T13:43:05Z</time>
      </trkpt>
      <trkpt lat="46.15574" lon="4.55397">
        <ele>512.8</ele>
        <time>2020-10-17T13:43:06Z</time>
      </trkpt>
      <trkpt lat="46.15574" lon="4.55397">
        <ele>512.6</ele>
        <time>2020-10-17T13:43:07Z</time>
      </trkpt>
      <trkpt lat="46.15574" lon="4.55401">
        <ele>512.6</ele>
        <time>2020-10-17T13:43:08Z</time>
      </trkpt>
      <trkpt lat="46.15574" lon="4.55401">
        <ele>512.8</ele>
        <time>2020-10-17T13:43:09Z</time>
      </trkpt>
      <trkpt lat="46.15575" lon="4.55405">
        <ele>513</ele>
        <time>2020-10-17T13:43:10Z</time>
      </trkpt>
      <trkpt lat="46.15575" lon="4.55405">
        <ele>513</ele>
        <time>2020-10-17T13:43:11Z</time>
      </trkpt>
      <trkpt lat="46.15575" lon="4.55409">
        <ele>513</ele>
        <time>2020-10-17T13:43:12Z</time>
      </trkpt>
      <trkpt lat="46.15575" lon="4.55409">
        <ele>513</ele>
        <time>2020-10-17T13:43:13Z</time>
      </trkpt>
      <trkpt lat="46.15575" lon="4.55412">
        <ele>513</ele>
        <time>2020-10-17T13:43:14Z</time>
      </trkpt>
      <trkpt lat="46.15575" lon="4.55412">
        <ele>513</ele>
        <time>2020-10-17T13:43:15Z</time>
      </trkpt>
      <trkpt lat="46.15575" lon="4.55416">
        <ele>513</ele>
        <time>2020-10-17T13:43:16Z</time>
      </trkpt>
      <trkpt lat="46.15575" lon="4.55416">
        <ele>513</ele>
        <time>2020-10-17T13:43:17Z</time>
      </trkpt>
      <trkpt lat="46.15576" lon="4.5542">
        <ele>513</ele>
        <time>2020-10-17T13:43:18Z</time>
      </trkpt>
      <trkpt lat="46.15576" lon="4.5542">
        <ele>513.4</ele>
        <time>2020-10-17T13:43:19Z</time>
      </trkpt>
      <trkpt lat="46.15576" lon="4.55423">
        <ele>513.2</ele>
        <time>2020-10-17T13:43:20Z</time>
      </trkpt>
      <trkpt lat="46.15576" lon="4.55423">
        <ele>513.4</ele>
        <time>2020-10-17T13:43:21Z</time>
      </trkpt>
      <trkpt lat="46.15577" lon="4.55427">
        <ele>513.4</ele>
        <time>2020-10-17T13:43:22Z</time>
      </trkpt>
      <trkpt lat="46.15577" lon="4.55427">
        <ele>513.4</ele>
        <time>2020-10-17T13:43:23Z</time>
      </trkpt>
      <trkpt lat="46.15576" lon="4.55429">
        <ele>513.4</ele>
        <time>2020-10-17T13:43:24Z</time>
      </trkpt>
      <trkpt lat="46.15576" lon="4.55429">
        <ele>513.6</ele>
        <time>2020-10-17T13:43:25Z</time>
      </trkpt>
      <trkpt lat="46.15576" lon="4.55429">
        <ele>513.6</ele>
        <time>2020-10-17T13:43:26Z</time>
      </trkpt>
      <trkpt lat="46.15576" lon="4.55429">
        <ele>513.6</ele>
        <time>2020-10-17T13:43:27Z</time>
      </trkpt>
      <trkpt lat="46.15577" lon="4.55431">
        <ele>513.6</ele>
        <time>2020-10-17T13:43:28Z</time>
      </trkpt>
      <trkpt lat="46.15577" lon="4.55433">
        <ele>513.6</ele>
        <time>2020-10-17T13:43:29Z</time>
      </trkpt>
      <trkpt lat="46.15578" lon="4.55435">
        <ele>513.6</ele>
        <time>2020-10-17T13:43:30Z</time>
      </trkpt>
      <trkpt lat="46.15579" lon="4.55436">
        <ele>513.6</ele>
        <time>2020-10-17T13:43:31Z</time>
      </trkpt>
      <trkpt lat="46.15579" lon="4.55438">
        <ele>513.6</ele>
        <time>2020-10-17T13:43:32Z</time>
      </trkpt>
      <trkpt lat="46.1558" lon="4.5544">
        <ele>513.4</ele>
        <time>2020-10-17T13:43:33Z</time>
      </trkpt>
      <trkpt lat="46.1558" lon="4.55443">
        <ele>513.4</ele>
        <time>2020-10-17T13:43:34Z</time>
      </trkpt>
      <trkpt lat="46.1558" lon="4.55443">
        <ele>513.4</ele>
        <time>2020-10-17T13:43:35Z</time>
      </trkpt>
      <trkpt lat="46.15581" lon="4.55447">
        <ele>513.4</ele>
        <time>2020-10-17T13:43:36Z</time>
      </trkpt>
      <trkpt lat="46.15581" lon="4.55447">
        <ele>513.4</ele>
        <time>2020-10-17T13:43:37Z</time>
      </trkpt>
      <trkpt lat="46.15583" lon="4.55451">
        <ele>513.2</ele>
        <time>2020-10-17T13:43:38Z</time>
      </trkpt>
      <trkpt lat="46.15583" lon="4.55451">
        <ele>513.4</ele>
        <time>2020-10-17T13:43:39Z</time>
      </trkpt>
      <trkpt lat="46.15585" lon="4.55455">
        <ele>513.4</ele>
        <time>2020-10-17T13:43:40Z</time>
      </trkpt>
      <trkpt lat="46.15585" lon="4.55455">
        <ele>513.4</ele>
        <time>2020-10-17T13:43:41Z</time>
      </trkpt>
      <trkpt lat="46.15586" lon="4.55458">
        <ele>513.6</ele>
        <time>2020-10-17T13:43:42Z</time>
      </trkpt>
      <trkpt lat="46.15586" lon="4.55458">
        <ele>513.6</ele>
        <time>2020-10-17T13:43:43Z</time>
      </trkpt>
      <trkpt lat="46.15587" lon="4.55463">
        <ele>513.6</ele>
        <time>2020-10-17T13:43:44Z</time>
      </trkpt>
      <trkpt lat="46.15588" lon="4.55465">
        <ele>513.6</ele>
        <time>2020-10-17T13:43:45Z</time>
      </trkpt>
      <trkpt lat="46.15588" lon="4.55465">
        <ele>513.6</ele>
        <time>2020-10-17T13:43:46Z</time>
      </trkpt>
      <trkpt lat="46.1559" lon="4.55469">
        <ele>513.4</ele>
        <time>2020-10-17T13:43:47Z</time>
      </trkpt>
      <trkpt lat="46.15591" lon="4.55472">
        <ele>513.4</ele>
        <time>2020-10-17T13:43:48Z</time>
      </trkpt>
      <trkpt lat="46.15591" lon="4.55475">
        <ele>513.6</ele>
        <time>2020-10-17T13:43:49Z</time>
      </trkpt>
      <trkpt lat="46.15591" lon="4.55475">
        <ele>513.6</ele>
        <time>2020-10-17T13:43:50Z</time>
      </trkpt>
      <trkpt lat="46.15594" lon="4.5548">
        <ele>513.6</ele>
        <time>2020-10-17T13:43:51Z</time>
      </trkpt>
      <trkpt lat="46.15594" lon="4.55485">
        <ele>513.6</ele>
        <time>2020-10-17T13:43:52Z</time>
      </trkpt>
      <trkpt lat="46.15594" lon="4.55488">
        <ele>513.6</ele>
        <time>2020-10-17T13:43:53Z</time>
      </trkpt>
      <trkpt lat="46.15595" lon="4.55491">
        <ele>513.6</ele>
        <time>2020-10-17T13:43:54Z</time>
      </trkpt>
      <trkpt lat="46.15595" lon="4.55491">
        <ele>513.4</ele>
        <time>2020-10-17T13:43:55Z</time>
      </trkpt>
      <trkpt lat="46.15596" lon="4.55495">
        <ele>513.6</ele>
        <time>2020-10-17T13:43:56Z</time>
      </trkpt>
      <trkpt lat="46.15596" lon="4.55495">
        <ele>513.4</ele>
        <time>2020-10-17T13:43:57Z</time>
      </trkpt>
      <trkpt lat="46.15598" lon="4.55499">
        <ele>513</ele>
        <time>2020-10-17T13:43:58Z</time>
      </trkpt>
      <trkpt lat="46.15599" lon="4.55502">
        <ele>513.2</ele>
        <time>2020-10-17T13:43:59Z</time>
      </trkpt>
      <trkpt lat="46.156" lon="4.55505">
        <ele>513.2</ele>
        <time>2020-10-17T13:44:00Z</time>
      </trkpt>
      <trkpt lat="46.15601" lon="4.55507">
        <ele>513.6</ele>
        <time>2020-10-17T13:44:01Z</time>
      </trkpt>
      <trkpt lat="46.15602" lon="4.55509">
        <ele>513.6</ele>
        <time>2020-10-17T13:44:02Z</time>
      </trkpt>
      <trkpt lat="46.15602" lon="4.55509">
        <ele>513.6</ele>
        <time>2020-10-17T13:44:03Z</time>
      </trkpt>
      <trkpt lat="46.15603" lon="4.55513">
        <ele>513.8</ele>
        <time>2020-10-17T13:44:04Z</time>
      </trkpt>
      <trkpt lat="46.15603" lon="4.55513">
        <ele>513.8</ele>
        <time>2020-10-17T13:44:05Z</time>
      </trkpt>
      <trkpt lat="46.15604" lon="4.55517">
        <ele>514.2</ele>
        <time>2020-10-17T13:44:06Z</time>
      </trkpt>
      <trkpt lat="46.15604" lon="4.55517">
        <ele>514</ele>
        <time>2020-10-17T13:44:07Z</time>
      </trkpt>
      <trkpt lat="46.15606" lon="4.55522">
        <ele>514.4</ele>
        <time>2020-10-17T13:44:08Z</time>
      </trkpt>
      <trkpt lat="46.15606" lon="4.55522">
        <ele>514.4</ele>
        <time>2020-10-17T13:44:09Z</time>
      </trkpt>
      <trkpt lat="46.15608" lon="4.55526">
        <ele>514.6</ele>
        <time>2020-10-17T13:44:10Z</time>
      </trkpt>
      <trkpt lat="46.15608" lon="4.55526">
        <ele>514.8</ele>
        <time>2020-10-17T13:44:11Z</time>
      </trkpt>
      <trkpt lat="46.1561" lon="4.5553">
        <ele>514.8</ele>
        <time>2020-10-17T13:44:12Z</time>
      </trkpt>
      <trkpt lat="46.1561" lon="4.5553">
        <ele>515</ele>
        <time>2020-10-17T13:44:13Z</time>
      </trkpt>
      <trkpt lat="46.1561" lon="4.55534">
        <ele>515</ele>
        <time>2020-10-17T13:44:14Z</time>
      </trkpt>
      <trkpt lat="46.1561" lon="4.55534">
        <ele>515.6</ele>
        <time>2020-10-17T13:44:15Z</time>
      </trkpt>
      <trkpt lat="46.15611" lon="4.55538">
        <ele>515.6</ele>
        <time>2020-10-17T13:44:16Z</time>
      </trkpt>
      <trkpt lat="46.15611" lon="4.55538">
        <ele>516</ele>
        <time>2020-10-17T13:44:17Z</time>
      </trkpt>
      <trkpt lat="46.15611" lon="4.55542">
        <ele>516</ele>
        <time>2020-10-17T13:44:18Z</time>
      </trkpt>
      <trkpt lat="46.15611" lon="4.55542">
        <ele>516.4</ele>
        <time>2020-10-17T13:44:19Z</time>
      </trkpt>
      <trkpt lat="46.15613" lon="4.55545">
        <ele>516.4</ele>
        <time>2020-10-17T13:44:20Z</time>
      </trkpt>
      <trkpt lat="46.15613" lon="4.55545">
        <ele>516.6</ele>
        <time>2020-10-17T13:44:21Z</time>
      </trkpt>
      <trkpt lat="46.15615" lon="4.55548">
        <ele>516.8</ele>
        <time>2020-10-17T13:44:22Z</time>
      </trkpt>
      <trkpt lat="46.15616" lon="4.5555">
        <ele>517</ele>
        <time>2020-10-17T13:44:23Z</time>
      </trkpt>
      <trkpt lat="46.15616" lon="4.5555">
        <ele>517</ele>
        <time>2020-10-17T13:44:24Z</time>
      </trkpt>
      <trkpt lat="46.15618" lon="4.55554">
        <ele>517.2</ele>
        <time>2020-10-17T13:44:25Z</time>
      </trkpt>
      <trkpt lat="46.15618" lon="4.55554">
        <ele>517.8</ele>
        <time>2020-10-17T13:44:26Z</time>
      </trkpt>
      <trkpt lat="46.15621" lon="4.55557">
        <ele>517.8</ele>
        <time>2020-10-17T13:44:27Z</time>
      </trkpt>
      <trkpt lat="46.15622" lon="4.55559">
        <ele>518.2</ele>
        <time>2020-10-17T13:44:28Z</time>
      </trkpt>
      <trkpt lat="46.15623" lon="4.55562">
        <ele>518.6</ele>
        <time>2020-10-17T13:44:29Z</time>
      </trkpt>
      <trkpt lat="46.15623" lon="4.55562">
        <ele>518.6</ele>
        <time>2020-10-17T13:44:30Z</time>
      </trkpt>
      <trkpt lat="46.15624" lon="4.55566">
        <ele>519</ele>
        <time>2020-10-17T13:44:31Z</time>
      </trkpt>
      <trkpt lat="46.15626" lon="4.55568">
        <ele>519.2</ele>
        <time>2020-10-17T13:44:32Z</time>
      </trkpt>
      <trkpt lat="46.15627" lon="4.55571">
        <ele>519.2</ele>
        <time>2020-10-17T13:44:33Z</time>
      </trkpt>
      <trkpt lat="46.15628" lon="4.55573">
        <ele>519.4</ele>
        <time>2020-10-17T13:44:34Z</time>
      </trkpt>
      <trkpt lat="46.15629" lon="4.55575">
        <ele>519.4</ele>
        <time>2020-10-17T13:44:35Z</time>
      </trkpt>
      <trkpt lat="46.15629" lon="4.55575">
        <ele>519.6</ele>
        <time>2020-10-17T13:44:36Z</time>
      </trkpt>
      <trkpt lat="46.1563" lon="4.55579">
        <ele>519.8</ele>
        <time>2020-10-17T13:44:37Z</time>
      </trkpt>
      <trkpt lat="46.1563" lon="4.55579">
        <ele>519.8</ele>
        <time>2020-10-17T13:44:38Z</time>
      </trkpt>
      <trkpt lat="46.15632" lon="4.55583">
        <ele>519.6</ele>
        <time>2020-10-17T13:44:39Z</time>
      </trkpt>
      <trkpt lat="46.15632" lon="4.55583">
        <ele>520</ele>
        <time>2020-10-17T13:44:40Z</time>
      </trkpt>
      <trkpt lat="46.15634" lon="4.55587">
        <ele>520</ele>
        <time>2020-10-17T13:44:41Z</time>
      </trkpt>
      <trkpt lat="46.15634" lon="4.55587">
        <ele>520.6</ele>
        <time>2020-10-17T13:44:42Z</time>
      </trkpt>
      <trkpt lat="46.15634" lon="4.5559">
        <ele>520.6</ele>
        <time>2020-10-17T13:44:43Z</time>
      </trkpt>
      <trkpt lat="46.15634" lon="4.5559">
        <ele>521</ele>
        <time>2020-10-17T13:44:44Z</time>
      </trkpt>
      <trkpt lat="46.15636" lon="4.55593">
        <ele>521</ele>
        <time>2020-10-17T13:44:45Z</time>
      </trkpt>
      <trkpt lat="46.15636" lon="4.55593">
        <ele>521.2</ele>
        <time>2020-10-17T13:44:46Z</time>
      </trkpt>
      <trkpt lat="46.15637" lon="4.55597">
        <ele>521.4</ele>
        <time>2020-10-17T13:44:47Z</time>
      </trkpt>
      <trkpt lat="46.15637" lon="4.55597">
        <ele>521.6</ele>
        <time>2020-10-17T13:44:48Z</time>
      </trkpt>
      <trkpt lat="46.15638" lon="4.55601">
        <ele>521.8</ele>
        <time>2020-10-17T13:44:49Z</time>
      </trkpt>
      <trkpt lat="46.15638" lon="4.55601">
        <ele>522</ele>
        <time>2020-10-17T13:44:50Z</time>
      </trkpt>
      <trkpt lat="46.15639" lon="4.55606">
        <ele>522.2</ele>
        <time>2020-10-17T13:44:51Z</time>
      </trkpt>
      <trkpt lat="46.15639" lon="4.55606">
        <ele>522.2</ele>
        <time>2020-10-17T13:44:52Z</time>
      </trkpt>
      <trkpt lat="46.15639" lon="4.55609">
        <ele>522.6</ele>
        <time>2020-10-17T13:44:53Z</time>
      </trkpt>
      <trkpt lat="46.15639" lon="4.55609">
        <ele>522.6</ele>
        <time>2020-10-17T13:44:54Z</time>
      </trkpt>
      <trkpt lat="46.15639" lon="4.55613">
        <ele>522.8</ele>
        <time>2020-10-17T13:44:55Z</time>
      </trkpt>
      <trkpt lat="46.15639" lon="4.55613">
        <ele>523</ele>
        <time>2020-10-17T13:44:56Z</time>
      </trkpt>
      <trkpt lat="46.15639" lon="4.55617">
        <ele>523</ele>
        <time>2020-10-17T13:44:57Z</time>
      </trkpt>
      <trkpt lat="46.15639" lon="4.55617">
        <ele>523</ele>
        <time>2020-10-17T13:44:58Z</time>
      </trkpt>
      <trkpt lat="46.15638" lon="4.55621">
        <ele>523</ele>
        <time>2020-10-17T13:44:59Z</time>
      </trkpt>
      <trkpt lat="46.15638" lon="4.55621">
        <ele>523</ele>
        <time>2020-10-17T13:45:00Z</time>
      </trkpt>
      <trkpt lat="46.15637" lon="4.55626">
        <ele>523</ele>
        <time>2020-10-17T13:45:01Z</time>
      </trkpt>
      <trkpt lat="46.15637" lon="4.55626">
        <ele>523.4</ele>
        <time>2020-10-17T13:45:02Z</time>
      </trkpt>
      <trkpt lat="46.15636" lon="4.5563">
        <ele>523.6</ele>
        <time>2020-10-17T13:45:03Z</time>
      </trkpt>
      <trkpt lat="46.15636" lon="4.5563">
        <ele>523.6</ele>
        <time>2020-10-17T13:45:04Z</time>
      </trkpt>
      <trkpt lat="46.15635" lon="4.55633">
        <ele>523.6</ele>
        <time>2020-10-17T13:45:05Z</time>
      </trkpt>
      <trkpt lat="46.15635" lon="4.55633">
        <ele>523.8</ele>
        <time>2020-10-17T13:45:06Z</time>
      </trkpt>
      <trkpt lat="46.15634" lon="4.55637">
        <ele>524</ele>
        <time>2020-10-17T13:45:07Z</time>
      </trkpt>
      <trkpt lat="46.15634" lon="4.55637">
        <ele>524.2</ele>
        <time>2020-10-17T13:45:08Z</time>
      </trkpt>
      <trkpt lat="46.15633" lon="4.5564">
        <ele>524.6</ele>
        <time>2020-10-17T13:45:09Z</time>
      </trkpt>
      <trkpt lat="46.15633" lon="4.5564">
        <ele>524.8</ele>
        <time>2020-10-17T13:45:10Z</time>
      </trkpt>
      <trkpt lat="46.15631" lon="4.55643">
        <ele>525</ele>
        <time>2020-10-17T13:45:11Z</time>
      </trkpt>
      <trkpt lat="46.15631" lon="4.55643">
        <ele>525</ele>
        <time>2020-10-17T13:45:12Z</time>
      </trkpt>
      <trkpt lat="46.1563" lon="4.55646">
        <ele>525.4</ele>
        <time>2020-10-17T13:45:13Z</time>
      </trkpt>
      <trkpt lat="46.1563" lon="4.55646">
        <ele>525.8</ele>
        <time>2020-10-17T13:45:14Z</time>
      </trkpt>
      <trkpt lat="46.15628" lon="4.55648">
        <ele>526</ele>
        <time>2020-10-17T13:45:15Z</time>
      </trkpt>
      <trkpt lat="46.15628" lon="4.55648">
        <ele>526.2</ele>
        <time>2020-10-17T13:45:16Z</time>
      </trkpt>
      <trkpt lat="46.15626" lon="4.5565">
        <ele>526.4</ele>
        <time>2020-10-17T13:45:17Z</time>
      </trkpt>
      <trkpt lat="46.15626" lon="4.5565">
        <ele>526.6</ele>
        <time>2020-10-17T13:45:18Z</time>
      </trkpt>
      <trkpt lat="46.15623" lon="4.55653">
        <ele>526.6</ele>
        <time>2020-10-17T13:45:19Z</time>
      </trkpt>
      <trkpt lat="46.15623" lon="4.55653">
        <ele>526.8</ele>
        <time>2020-10-17T13:45:20Z</time>
      </trkpt>
      <trkpt lat="46.1562" lon="4.55654">
        <ele>526.8</ele>
        <time>2020-10-17T13:45:21Z</time>
      </trkpt>
      <trkpt lat="46.1562" lon="4.55654">
        <ele>527</ele>
        <time>2020-10-17T13:45:22Z</time>
      </trkpt>
      <trkpt lat="46.15618" lon="4.55655">
        <ele>527</ele>
        <time>2020-10-17T13:45:23Z</time>
      </trkpt>
      <trkpt lat="46.15618" lon="4.55655">
        <ele>527</ele>
        <time>2020-10-17T13:45:24Z</time>
      </trkpt>
      <trkpt lat="46.15615" lon="4.55657">
        <ele>527.2</ele>
        <time>2020-10-17T13:45:25Z</time>
      </trkpt>
      <trkpt lat="46.15615" lon="4.55657">
        <ele>527.2</ele>
        <time>2020-10-17T13:45:26Z</time>
      </trkpt>
      <trkpt lat="46.15612" lon="4.55659">
        <ele>527.6</ele>
        <time>2020-10-17T13:45:27Z</time>
      </trkpt>
      <trkpt lat="46.15611" lon="4.5566">
        <ele>527.4</ele>
        <time>2020-10-17T13:45:28Z</time>
      </trkpt>
      <trkpt lat="46.15609" lon="4.55661">
        <ele>527.8</ele>
        <time>2020-10-17T13:45:29Z</time>
      </trkpt>
      <trkpt lat="46.15607" lon="4.55662">
        <ele>527.8</ele>
        <time>2020-10-17T13:45:30Z</time>
      </trkpt>
      <trkpt lat="46.15607" lon="4.55662">
        <ele>528.2</ele>
        <time>2020-10-17T13:45:31Z</time>
      </trkpt>
      <trkpt lat="46.15604" lon="4.55664">
        <ele>528.2</ele>
        <time>2020-10-17T13:45:32Z</time>
      </trkpt>
      <trkpt lat="46.15602" lon="4.55665">
        <ele>528.6</ele>
        <time>2020-10-17T13:45:33Z</time>
      </trkpt>
      <trkpt lat="46.15602" lon="4.55665">
        <ele>528.6</ele>
        <time>2020-10-17T13:45:34Z</time>
      </trkpt>
      <trkpt lat="46.15599" lon="4.55667">
        <ele>529</ele>
        <time>2020-10-17T13:45:35Z</time>
      </trkpt>
      <trkpt lat="46.15599" lon="4.55667">
        <ele>529</ele>
        <time>2020-10-17T13:45:36Z</time>
      </trkpt>
      <trkpt lat="46.15597" lon="4.55668">
        <ele>528.8</ele>
        <time>2020-10-17T13:45:37Z</time>
      </trkpt>
      <trkpt lat="46.15597" lon="4.55668">
        <ele>529</ele>
        <time>2020-10-17T13:45:38Z</time>
      </trkpt>
      <trkpt lat="46.15594" lon="4.55669">
        <ele>528.8</ele>
        <time>2020-10-17T13:45:39Z</time>
      </trkpt>
      <trkpt lat="46.15594" lon="4.55669">
        <ele>529.2</ele>
        <time>2020-10-17T13:45:40Z</time>
      </trkpt>
      <trkpt lat="46.15591" lon="4.5567">
        <ele>529.4</ele>
        <time>2020-10-17T13:45:41Z</time>
      </trkpt>
      <trkpt lat="46.15591" lon="4.5567">
        <ele>529.8</ele>
        <time>2020-10-17T13:45:42Z</time>
      </trkpt>
      <trkpt lat="46.15588" lon="4.55672">
        <ele>529.6</ele>
        <time>2020-10-17T13:45:43Z</time>
      </trkpt>
      <trkpt lat="46.15588" lon="4.55672">
        <ele>530</ele>
        <time>2020-10-17T13:45:44Z</time>
      </trkpt>
      <trkpt lat="46.15586" lon="4.55673">
        <ele>529.8</ele>
        <time>2020-10-17T13:45:45Z</time>
      </trkpt>
      <trkpt lat="46.15586" lon="4.55673">
        <ele>530</ele>
        <time>2020-10-17T13:45:46Z</time>
      </trkpt>
      <trkpt lat="46.15583" lon="4.55673">
        <ele>529.8</ele>
        <time>2020-10-17T13:45:47Z</time>
      </trkpt>
      <trkpt lat="46.15583" lon="4.55673">
        <ele>530.2</ele>
        <time>2020-10-17T13:45:48Z</time>
      </trkpt>
      <trkpt lat="46.15581" lon="4.55675">
        <ele>530</ele>
        <time>2020-10-17T13:45:49Z</time>
      </trkpt>
      <trkpt lat="46.15581" lon="4.55675">
        <ele>530.6</ele>
        <time>2020-10-17T13:45:50Z</time>
      </trkpt>
      <trkpt lat="46.15578" lon="4.55676">
        <ele>530.4</ele>
        <time>2020-10-17T13:45:51Z</time>
      </trkpt>
      <trkpt lat="46.15578" lon="4.55676">
        <ele>530.8</ele>
        <time>2020-10-17T13:45:52Z</time>
      </trkpt>
      <trkpt lat="46.15575" lon="4.55677">
        <ele>531</ele>
        <time>2020-10-17T13:45:53Z</time>
      </trkpt>
      <trkpt lat="46.15575" lon="4.55677">
        <ele>531.4</ele>
        <time>2020-10-17T13:45:54Z</time>
      </trkpt>
      <trkpt lat="46.15573" lon="4.55679">
        <ele>531.6</ele>
        <time>2020-10-17T13:45:55Z</time>
      </trkpt>
      <trkpt lat="46.15573" lon="4.55679">
        <ele>532</ele>
        <time>2020-10-17T13:45:56Z</time>
      </trkpt>
      <trkpt lat="46.1557" lon="4.5568">
        <ele>531.8</ele>
        <time>2020-10-17T13:45:57Z</time>
      </trkpt>
      <trkpt lat="46.1557" lon="4.5568">
        <ele>531.6</ele>
        <time>2020-10-17T13:45:58Z</time>
      </trkpt>
      <trkpt lat="46.15567" lon="4.55681">
        <ele>531.6</ele>
        <time>2020-10-17T13:45:59Z</time>
      </trkpt>
      <trkpt lat="46.15567" lon="4.55681">
        <ele>531.6</ele>
        <time>2020-10-17T13:46:00Z</time>
      </trkpt>
      <trkpt lat="46.15565" lon="4.55682">
        <ele>531.8</ele>
        <time>2020-10-17T13:46:01Z</time>
      </trkpt>
      <trkpt lat="46.15565" lon="4.55682">
        <ele>532</ele>
        <time>2020-10-17T13:46:02Z</time>
      </trkpt>
      <trkpt lat="46.15562" lon="4.55684">
        <ele>532.2</ele>
        <time>2020-10-17T13:46:03Z</time>
      </trkpt>
      <trkpt lat="46.15562" lon="4.55684">
        <ele>532</ele>
        <time>2020-10-17T13:46:04Z</time>
      </trkpt>
      <trkpt lat="46.15559" lon="4.55685">
        <ele>532</ele>
        <time>2020-10-17T13:46:05Z</time>
      </trkpt>
      <trkpt lat="46.15559" lon="4.55685">
        <ele>532.2</ele>
        <time>2020-10-17T13:46:06Z</time>
      </trkpt>
      <trkpt lat="46.15556" lon="4.55687">
        <ele>532.2</ele>
        <time>2020-10-17T13:46:07Z</time>
      </trkpt>
      <trkpt lat="46.15556" lon="4.55687">
        <ele>532.2</ele>
        <time>2020-10-17T13:46:08Z</time>
      </trkpt>
      <trkpt lat="46.15554" lon="4.55688">
        <ele>532.4</ele>
        <time>2020-10-17T13:46:09Z</time>
      </trkpt>
      <trkpt lat="46.15554" lon="4.55688">
        <ele>532.4</ele>
        <time>2020-10-17T13:46:10Z</time>
      </trkpt>
      <trkpt lat="46.15551" lon="4.55689">
        <ele>532.6</ele>
        <time>2020-10-17T13:46:11Z</time>
      </trkpt>
      <trkpt lat="46.15551" lon="4.55689">
        <ele>533</ele>
        <time>2020-10-17T13:46:12Z</time>
      </trkpt>
      <trkpt lat="46.15548" lon="4.55689">
        <ele>533</ele>
        <time>2020-10-17T13:46:13Z</time>
      </trkpt>
      <trkpt lat="46.15548" lon="4.55689">
        <ele>532.8</ele>
        <time>2020-10-17T13:46:14Z</time>
      </trkpt>
      <trkpt lat="46.15545" lon="4.5569">
        <ele>533</ele>
        <time>2020-10-17T13:46:15Z</time>
      </trkpt>
      <trkpt lat="46.15545" lon="4.5569">
        <ele>533.2</ele>
        <time>2020-10-17T13:46:16Z</time>
      </trkpt>
      <trkpt lat="46.15542" lon="4.5569">
        <ele>533.4</ele>
        <time>2020-10-17T13:46:17Z</time>
      </trkpt>
      <trkpt lat="46.15542" lon="4.5569">
        <ele>533.2</ele>
        <time>2020-10-17T13:46:18Z</time>
      </trkpt>
      <trkpt lat="46.1554" lon="4.5569">
        <ele>533.2</ele>
        <time>2020-10-17T13:46:19Z</time>
      </trkpt>
      <trkpt lat="46.15538" lon="4.55686">
        <ele>538.1</ele>
      </trkpt>
      <trkpt lat="46.15545" lon="4.55663">
        <ele>540.4</ele>
      </trkpt>
      <trkpt lat="46.15549" lon="4.55623">
        <ele>540.1</ele>
      </trkpt>
      <trkpt lat="46.15544" lon="4.55587">
        <ele>540.3</ele>
      </trkpt>
      <trkpt lat="46.15524" lon="4.55547">
        <ele>538.9</ele>
      </trkpt>
      <trkpt lat="46.15508" lon="4.55497">
        <ele>539.1</ele>
      </trkpt>
      <trkpt lat="46.15494" lon="4.55466">
        <ele>545.4</ele>
      </trkpt>
      <trkpt lat="46.1549" lon="4.5546">
        <ele>545.3</ele>
      </trkpt>
      <trkpt lat="46.15476" lon="4.55443">
        <ele>545.1</ele>
      </trkpt>
      <trkpt lat="46.15432" lon="4.55415">
        <ele>542.6</ele>
      </trkpt>
      <trkpt lat="46.15409" lon="4.55407">
        <ele>545.9</ele>
      </trkpt>
      <trkpt lat="46.15391" lon="4.55403">
        <ele>544.1</ele>
      </trkpt>
      <trkpt lat="46.1535" lon="4.55416">
        <ele>547.5</ele>
      </trkpt>
      <trkpt lat="46.15319" lon="4.55427">
        <ele>559.5</ele>
      </trkpt>
      <trkpt lat="46.15246" lon="4.55442">
        <ele>567.6</ele>
      </trkpt>
      <trkpt lat="46.15189" lon="4.55437">
        <ele>571.6</ele>
      </trkpt>
      <trkpt lat="46.1515" lon="4.55423">
        <ele>576.9</ele>
      </trkpt>
      <trkpt lat="46.15081" lon="4.55411">
        <ele>582.6</ele>
      </trkpt>
      <trkpt lat="46.15036" lon="4.55382">
        <ele>586.4</ele>
      </trkpt>
      <trkpt lat="46.14983" lon="4.55316">
        <ele>584</ele>
      </trkpt>
      <trkpt lat="46.14981" lon="4.55315">
        <ele>583.9</ele>
      </trkpt>
      <trkpt lat="46.1493" lon="4.55296">
        <ele>584.9</ele>
      </trkpt>
      <trkpt lat="46.14926" lon="4.55295">
        <ele>584.9</ele>
      </trkpt>
      <trkpt lat="46.14872" lon="4.55295">
        <ele>585.2</ele>
      </trkpt>
      <trkpt lat="46.14823" lon="4.55309">
        <ele>582.4</ele>
      </trkpt>
      <trkpt lat="46.14771" lon="4.55351">
        <ele>595.8</ele>
      </trkpt>
      <trkpt lat="46.14754" lon="4.55371">
        <ele>598.8</ele>
      </trkpt>
      <trkpt lat="46.14735" lon="4.55413">
        <ele>599.6</ele>
      </trkpt>
      <trkpt lat="46.14698" lon="4.55458">
        <ele>611.6</ele>
      </trkpt>
      <trkpt lat="46.1467" lon="4.55502">
        <ele>618.9</ele>
      </trkpt>
      <trkpt lat="46.14646" lon="4.55514">
        <ele>624.3</ele>
      </trkpt>
      <trkpt lat="46.14605" lon="4.55508">
        <ele>624.4</ele>
      </trkpt>
      <trkpt lat="46.14523" lon="4.55449">
        <ele>614.9</ele>
      </trkpt>
      <trkpt lat="46.14416" lon="4.5538">
        <ele>635</ele>
      </trkpt>
      <trkpt lat="46.14411" lon="4.55363">
        <ele>633.8</ele>
      </trkpt>
      <trkpt lat="46.14408" lon="4.55328">
        <ele>628</ele>
      </trkpt>
      <trkpt lat="46.14409" lon="4.55306">
        <ele>632.4</ele>
      </trkpt>
      <trkpt lat="46.1441" lon="4.55284">
        <ele>633.6</ele>
      </trkpt>
      <trkpt lat="46.14419" lon="4.55255">
        <ele>625.4</ele>
      </trkpt>
      <trkpt lat="46.14426" lon="4.55236">
        <ele>622.4</ele>
      </trkpt>
      <trkpt lat="46.1443" lon="4.55225">
        <ele>620.4</ele>
      </trkpt>
      <trkpt lat="46.14421" lon="4.55195">
        <ele>619.8</ele>
      </trkpt>
      <trkpt lat="46.14405" lon="4.55145">
        <ele>630.3</ele>
      </trkpt>
      <trkpt lat="46.14389" lon="4.55112">
        <ele>633</ele>
      </trkpt>
      <trkpt lat="46.1438" lon="4.55072">
        <ele>632.2</ele>
      </trkpt>
      <trkpt lat="46.14373" lon="4.55008">
        <ele>632.3</ele>
      </trkpt>
      <trkpt lat="46.14366" lon="4.55009">
        <ele>633.9</ele>
      </trkpt>
      <trkpt lat="46.14356" lon="4.5501">
        <ele>636.1</ele>
      </trkpt>
      <trkpt lat="46.14323" lon="4.5502">
        <ele>650.6</ele>
      </trkpt>
      <trkpt lat="46.14303" lon="4.5504">
        <ele>654.1</ele>
      </trkpt>
      <trkpt lat="46.14302" lon="4.55041">
        <ele>654.2</ele>
      </trkpt>
      <trkpt lat="46.14282" lon="4.55125">
        <ele>658.9</ele>
      </trkpt>
      <trkpt lat="46.14263" lon="4.55194">
        <ele>664.5</ele>
      </trkpt>
      <trkpt lat="46.1425" lon="4.55255">
        <ele>677.9</ele>
      </trkpt>
      <trkpt lat="46.14234" lon="4.55303">
        <ele>687.5</ele>
      </trkpt>
      <trkpt lat="46.14228" lon="4.55359">
        <ele>693.3</ele>
      </trkpt>
      <trkpt lat="46.14207" lon="4.55453">
        <ele>702.4</ele>
      </trkpt>
      <trkpt lat="46.142" lon="4.55471">
        <ele>703.7</ele>
      </trkpt>
      <trkpt lat="46.14189" lon="4.55503">
        <ele>708.6</ele>
      </trkpt>
      <trkpt lat="46.14178" lon="4.55521">
        <ele>709.5</ele>
      </trkpt>
      <trkpt lat="46.14167" lon="4.55526">
        <ele>709.9</ele>
      </trkpt>
      <trkpt lat="46.14157" lon="4.55522">
        <ele>718.5</ele>
      </trkpt>
      <trkpt lat="46.1414" lon="4.55524">
        <ele>719.6</ele>
      </trkpt>
      <trkpt lat="46.14124" lon="4.55535">
        <ele>720.7</ele>
      </trkpt>
      <trkpt lat="46.14114" lon="4.5555">
        <ele>721.4</ele>
      </trkpt>
      <trkpt lat="46.1411" lon="4.55565">
        <ele>721.8</ele>
      </trkpt>
      <trkpt lat="46.14106" lon="4.55581">
        <ele>722.4</ele>
      </trkpt>
      <trkpt lat="46.14103" lon="4.5561">
        <ele>723.7</ele>
      </trkpt>
      <trkpt lat="46.14104" lon="4.55633">
        <ele>723.9</ele>
      </trkpt>
      <trkpt lat="46.141" lon="4.55653">
        <ele>724.5</ele>
      </trkpt>
      <trkpt lat="46.14095" lon="4.55662">
        <ele>725</ele>
      </trkpt>
    </trkseg>
  </trk>
</gpx>